<?xml version="1.0" encoding="UTF-8" standalone="no" ?>
<gpx xmlns="http://www.topografix.com/GPX/1/1" xmlns:xsi="http://www.w3.org/2001/XMLSchema-instance" xsi:schemaLocation="http://www.topografix.com/GPX/1/1 http://www.topografix.com/GPX/1/1/gpx.xsd" version="1.1" creator="VisuGPX - https://www.visugpx.com">
  <metadata>
    <name>2018-06-09 Bike ride-Amberieux en Dombes O via Toussieux 41k</name>
    <desc><![CDATA[2018-06-09 Bike ride-Amberieux en Dombes O via Toussieux 41k]]></desc>
  </metadata>
  <wpt lat="45.92463" lon="4.73711">
    <ele>174</ele>
    <name><![CDATA[2018-06-09 10:54 (Start)]]></name>
  </wpt>
  <wpt lat="45.92457" lon="4.73709">
    <ele>174</ele>
    <name><![CDATA[2018-06-09 10:54 (End)]]></name>
  </wpt>
  <trk>
    <name><![CDATA[2018-06-09 10:54]]></name>
    <trkseg>
      <trkpt lat="45.92463" lon="4.73711">
        <ele>174</ele>
        <time>2018-06-09T08:54:24.58Z</time>
      </trkpt>
      <trkpt lat="45.9247" lon="4.73705">
        <ele>174</ele>
        <time>2018-06-09T08:54:54Z</time>
      </trkpt>
      <trkpt lat="45.9247" lon="4.73702">
        <ele>174</ele>
        <time>2018-06-09T08:54:55Z</time>
      </trkpt>
      <trkpt lat="45.92471" lon="4.73689">
        <ele>174</ele>
        <time>2018-06-09T08:55:00Z</time>
      </trkpt>
      <trkpt lat="45.92472" lon="4.73686">
        <ele>174</ele>
        <time>2018-06-09T08:55:01Z</time>
      </trkpt>
      <trkpt lat="45.92475" lon="4.73674">
        <ele>174</ele>
        <time>2018-06-09T08:55:04Z</time>
      </trkpt>
      <trkpt lat="45.92476" lon="4.73669">
        <ele>175</ele>
        <time>2018-06-09T08:55:05Z</time>
      </trkpt>
      <trkpt lat="45.92478" lon="4.73653">
        <ele>174</ele>
        <time>2018-06-09T08:55:06Z</time>
      </trkpt>
      <trkpt lat="45.92476" lon="4.7364">
        <ele>174</ele>
        <time>2018-06-09T08:55:08Z</time>
      </trkpt>
      <trkpt lat="45.92476" lon="4.73634">
        <ele>174</ele>
        <time>2018-06-09T08:55:09Z</time>
      </trkpt>
      <trkpt lat="45.92475" lon="4.73622">
        <ele>174</ele>
        <time>2018-06-09T08:55:11Z</time>
      </trkpt>
      <trkpt lat="45.92475" lon="4.73615">
        <ele>174</ele>
        <time>2018-06-09T08:55:12Z</time>
      </trkpt>
      <trkpt lat="45.92475" lon="4.73602">
        <ele>174</ele>
        <time>2018-06-09T08:55:14Z</time>
      </trkpt>
      <trkpt lat="45.92473" lon="4.73596">
        <ele>174</ele>
        <time>2018-06-09T08:55:15Z</time>
      </trkpt>
      <trkpt lat="45.92471" lon="4.73583">
        <ele>173</ele>
        <time>2018-06-09T08:55:17Z</time>
      </trkpt>
      <trkpt lat="45.9247" lon="4.73578">
        <ele>173</ele>
        <time>2018-06-09T08:55:18Z</time>
      </trkpt>
      <trkpt lat="45.92469" lon="4.73566">
        <ele>173</ele>
        <time>2018-06-09T08:55:20Z</time>
      </trkpt>
      <trkpt lat="45.92469" lon="4.7356">
        <ele>173</ele>
        <time>2018-06-09T08:55:21Z</time>
      </trkpt>
      <trkpt lat="45.9247" lon="4.73548">
        <ele>173</ele>
        <time>2018-06-09T08:55:26Z</time>
      </trkpt>
      <trkpt lat="45.9247" lon="4.73546">
        <ele>173</ele>
        <time>2018-06-09T08:55:27Z</time>
      </trkpt>
      <trkpt lat="45.92472" lon="4.73536">
        <ele>174</ele>
        <time>2018-06-09T08:55:30.646Z</time>
      </trkpt>
      <trkpt lat="45.92471" lon="4.73525">
        <ele>174</ele>
        <time>2018-06-09T08:55:31Z</time>
      </trkpt>
      <trkpt lat="45.9247" lon="4.73514">
        <ele>174</ele>
        <time>2018-06-09T08:55:33Z</time>
      </trkpt>
      <trkpt lat="45.92472" lon="4.73507">
        <ele>174</ele>
        <time>2018-06-09T08:55:34Z</time>
      </trkpt>
      <trkpt lat="45.92472" lon="4.735">
        <ele>174</ele>
        <time>2018-06-09T08:55:35Z</time>
      </trkpt>
      <trkpt lat="45.92473" lon="4.73494">
        <ele>173</ele>
        <time>2018-06-09T08:55:36Z</time>
      </trkpt>
      <trkpt lat="45.92473" lon="4.73487">
        <ele>173</ele>
        <time>2018-06-09T08:55:37Z</time>
      </trkpt>
      <trkpt lat="45.92472" lon="4.73481">
        <ele>173</ele>
        <time>2018-06-09T08:55:38Z</time>
      </trkpt>
      <trkpt lat="45.92472" lon="4.73473">
        <ele>173</ele>
        <time>2018-06-09T08:55:39Z</time>
      </trkpt>
      <trkpt lat="45.92472" lon="4.73466">
        <ele>173</ele>
        <time>2018-06-09T08:55:40Z</time>
      </trkpt>
      <trkpt lat="45.92471" lon="4.73458">
        <ele>173</ele>
        <time>2018-06-09T08:55:41Z</time>
      </trkpt>
      <trkpt lat="45.9247" lon="4.73451">
        <ele>173</ele>
        <time>2018-06-09T08:55:42Z</time>
      </trkpt>
      <trkpt lat="45.92468" lon="4.73443">
        <ele>173</ele>
        <time>2018-06-09T08:55:43Z</time>
      </trkpt>
      <trkpt lat="45.92465" lon="4.73436">
        <ele>173</ele>
        <time>2018-06-09T08:55:44Z</time>
      </trkpt>
      <trkpt lat="45.9246" lon="4.7343">
        <ele>173</ele>
        <time>2018-06-09T08:55:45Z</time>
      </trkpt>
      <trkpt lat="45.92456" lon="4.73424">
        <ele>173</ele>
        <time>2018-06-09T08:55:46Z</time>
      </trkpt>
      <trkpt lat="45.92452" lon="4.73422">
        <ele>173</ele>
        <time>2018-06-09T08:55:47Z</time>
      </trkpt>
      <trkpt lat="45.92446" lon="4.73419">
        <ele>173</ele>
        <time>2018-06-09T08:55:48Z</time>
      </trkpt>
      <trkpt lat="45.92441" lon="4.73414">
        <ele>172</ele>
        <time>2018-06-09T08:55:49Z</time>
      </trkpt>
      <trkpt lat="45.92436" lon="4.7341">
        <ele>172</ele>
        <time>2018-06-09T08:55:50Z</time>
      </trkpt>
      <trkpt lat="45.92432" lon="4.73405">
        <ele>172</ele>
        <time>2018-06-09T08:55:51Z</time>
      </trkpt>
      <trkpt lat="45.92429" lon="4.73397">
        <ele>172</ele>
        <time>2018-06-09T08:55:52Z</time>
      </trkpt>
      <trkpt lat="45.92428" lon="4.7339">
        <ele>172</ele>
        <time>2018-06-09T08:55:53Z</time>
      </trkpt>
      <trkpt lat="45.92427" lon="4.73382">
        <ele>172</ele>
        <time>2018-06-09T08:55:54Z</time>
      </trkpt>
      <trkpt lat="45.92426" lon="4.73374">
        <ele>172</ele>
        <time>2018-06-09T08:55:55Z</time>
      </trkpt>
      <trkpt lat="45.92424" lon="4.73365">
        <ele>172</ele>
        <time>2018-06-09T08:55:56Z</time>
      </trkpt>
      <trkpt lat="45.92424" lon="4.73357">
        <ele>171</ele>
        <time>2018-06-09T08:55:57Z</time>
      </trkpt>
      <trkpt lat="45.92419" lon="4.73348">
        <ele>171</ele>
        <time>2018-06-09T08:55:58Z</time>
      </trkpt>
      <trkpt lat="45.92419" lon="4.7334">
        <ele>171</ele>
        <time>2018-06-09T08:55:59Z</time>
      </trkpt>
      <trkpt lat="45.92418" lon="4.73333">
        <ele>171</ele>
        <time>2018-06-09T08:56:00Z</time>
      </trkpt>
      <trkpt lat="45.92418" lon="4.73326">
        <ele>171</ele>
        <time>2018-06-09T08:56:01Z</time>
      </trkpt>
      <trkpt lat="45.92418" lon="4.7332">
        <ele>171</ele>
        <time>2018-06-09T08:56:02Z</time>
      </trkpt>
      <trkpt lat="45.92418" lon="4.73312">
        <ele>171</ele>
        <time>2018-06-09T08:56:03Z</time>
      </trkpt>
      <trkpt lat="45.92416" lon="4.73304">
        <ele>171</ele>
        <time>2018-06-09T08:56:04Z</time>
      </trkpt>
      <trkpt lat="45.92415" lon="4.73298">
        <ele>171</ele>
        <time>2018-06-09T08:56:05Z</time>
      </trkpt>
      <trkpt lat="45.92415" lon="4.73291">
        <ele>171</ele>
        <time>2018-06-09T08:56:06Z</time>
      </trkpt>
      <trkpt lat="45.92416" lon="4.73283">
        <ele>171</ele>
        <time>2018-06-09T08:56:07Z</time>
      </trkpt>
      <trkpt lat="45.92415" lon="4.73276">
        <ele>171</ele>
        <time>2018-06-09T08:56:08Z</time>
      </trkpt>
      <trkpt lat="45.92415" lon="4.73269">
        <ele>171</ele>
        <time>2018-06-09T08:56:09Z</time>
      </trkpt>
      <trkpt lat="45.92413" lon="4.73261">
        <ele>171</ele>
        <time>2018-06-09T08:56:10Z</time>
      </trkpt>
      <trkpt lat="45.92413" lon="4.73253">
        <ele>171</ele>
        <time>2018-06-09T08:56:11Z</time>
      </trkpt>
      <trkpt lat="45.92412" lon="4.73247">
        <ele>171</ele>
        <time>2018-06-09T08:56:12Z</time>
      </trkpt>
      <trkpt lat="45.92411" lon="4.7324">
        <ele>171</ele>
        <time>2018-06-09T08:56:13Z</time>
      </trkpt>
      <trkpt lat="45.92411" lon="4.73233">
        <ele>171</ele>
        <time>2018-06-09T08:56:14Z</time>
      </trkpt>
      <trkpt lat="45.92411" lon="4.73225">
        <ele>171</ele>
        <time>2018-06-09T08:56:15Z</time>
      </trkpt>
      <trkpt lat="45.92411" lon="4.73218">
        <ele>171</ele>
        <time>2018-06-09T08:56:16Z</time>
      </trkpt>
      <trkpt lat="45.92411" lon="4.7321">
        <ele>171</ele>
        <time>2018-06-09T08:56:17Z</time>
      </trkpt>
      <trkpt lat="45.92411" lon="4.73202">
        <ele>171</ele>
        <time>2018-06-09T08:56:18Z</time>
      </trkpt>
      <trkpt lat="45.92411" lon="4.73194">
        <ele>171</ele>
        <time>2018-06-09T08:56:19Z</time>
      </trkpt>
      <trkpt lat="45.92411" lon="4.73187">
        <ele>171</ele>
        <time>2018-06-09T08:56:20Z</time>
      </trkpt>
      <trkpt lat="45.92411" lon="4.73178">
        <ele>171</ele>
        <time>2018-06-09T08:56:21Z</time>
      </trkpt>
      <trkpt lat="45.92412" lon="4.7317">
        <ele>170</ele>
        <time>2018-06-09T08:56:22Z</time>
      </trkpt>
      <trkpt lat="45.92412" lon="4.73162">
        <ele>170</ele>
        <time>2018-06-09T08:56:23Z</time>
      </trkpt>
      <trkpt lat="45.92412" lon="4.73155">
        <ele>170</ele>
        <time>2018-06-09T08:56:24Z</time>
      </trkpt>
      <trkpt lat="45.92411" lon="4.73148">
        <ele>171</ele>
        <time>2018-06-09T08:56:25Z</time>
      </trkpt>
      <trkpt lat="45.92412" lon="4.7314">
        <ele>171</ele>
        <time>2018-06-09T08:56:26Z</time>
      </trkpt>
      <trkpt lat="45.92412" lon="4.7313">
        <ele>171</ele>
        <time>2018-06-09T08:56:27Z</time>
      </trkpt>
      <trkpt lat="45.92414" lon="4.73122">
        <ele>171</ele>
        <time>2018-06-09T08:56:28Z</time>
      </trkpt>
      <trkpt lat="45.92418" lon="4.73116">
        <ele>170</ele>
        <time>2018-06-09T08:56:29Z</time>
      </trkpt>
      <trkpt lat="45.92421" lon="4.7311">
        <ele>170</ele>
        <time>2018-06-09T08:56:30Z</time>
      </trkpt>
      <trkpt lat="45.92426" lon="4.73107">
        <ele>170</ele>
        <time>2018-06-09T08:56:31Z</time>
      </trkpt>
      <trkpt lat="45.9243" lon="4.73104">
        <ele>171</ele>
        <time>2018-06-09T08:56:32Z</time>
      </trkpt>
      <trkpt lat="45.92433" lon="4.73098">
        <ele>171</ele>
        <time>2018-06-09T08:56:33Z</time>
      </trkpt>
      <trkpt lat="45.92438" lon="4.73095">
        <ele>171</ele>
        <time>2018-06-09T08:56:34Z</time>
      </trkpt>
      <trkpt lat="45.92442" lon="4.7309">
        <ele>170</ele>
        <time>2018-06-09T08:56:35Z</time>
      </trkpt>
      <trkpt lat="45.92447" lon="4.73086">
        <ele>170</ele>
        <time>2018-06-09T08:56:36Z</time>
      </trkpt>
      <trkpt lat="45.92451" lon="4.73083">
        <ele>170</ele>
        <time>2018-06-09T08:56:37Z</time>
      </trkpt>
      <trkpt lat="45.92456" lon="4.73078">
        <ele>170</ele>
        <time>2018-06-09T08:56:38Z</time>
      </trkpt>
      <trkpt lat="45.92461" lon="4.73074">
        <ele>170</ele>
        <time>2018-06-09T08:56:39Z</time>
      </trkpt>
      <trkpt lat="45.92466" lon="4.73069">
        <ele>170</ele>
        <time>2018-06-09T08:56:40Z</time>
      </trkpt>
      <trkpt lat="45.92471" lon="4.73066">
        <ele>170</ele>
        <time>2018-06-09T08:56:41Z</time>
      </trkpt>
      <trkpt lat="45.92476" lon="4.73063">
        <ele>170</ele>
        <time>2018-06-09T08:56:42Z</time>
      </trkpt>
      <trkpt lat="45.92481" lon="4.73057">
        <ele>170</ele>
        <time>2018-06-09T08:56:43Z</time>
      </trkpt>
      <trkpt lat="45.92486" lon="4.73052">
        <ele>170</ele>
        <time>2018-06-09T08:56:44Z</time>
      </trkpt>
      <trkpt lat="45.9249" lon="4.73049">
        <ele>170</ele>
        <time>2018-06-09T08:56:45Z</time>
      </trkpt>
      <trkpt lat="45.92495" lon="4.73045">
        <ele>170</ele>
        <time>2018-06-09T08:56:46Z</time>
      </trkpt>
      <trkpt lat="45.92499" lon="4.73042">
        <ele>170</ele>
        <time>2018-06-09T08:56:47Z</time>
      </trkpt>
      <trkpt lat="45.92504" lon="4.73038">
        <ele>169</ele>
        <time>2018-06-09T08:56:48Z</time>
      </trkpt>
      <trkpt lat="45.92508" lon="4.73035">
        <ele>169</ele>
        <time>2018-06-09T08:56:49Z</time>
      </trkpt>
      <trkpt lat="45.92513" lon="4.73031">
        <ele>169</ele>
        <time>2018-06-09T08:56:50Z</time>
      </trkpt>
      <trkpt lat="45.92517" lon="4.73027">
        <ele>169</ele>
        <time>2018-06-09T08:56:51Z</time>
      </trkpt>
      <trkpt lat="45.92522" lon="4.73024">
        <ele>169</ele>
        <time>2018-06-09T08:56:52Z</time>
      </trkpt>
      <trkpt lat="45.92526" lon="4.7302">
        <ele>169</ele>
        <time>2018-06-09T08:56:53Z</time>
      </trkpt>
      <trkpt lat="45.92531" lon="4.73015">
        <ele>169</ele>
        <time>2018-06-09T08:56:54Z</time>
      </trkpt>
      <trkpt lat="45.92535" lon="4.73011">
        <ele>169</ele>
        <time>2018-06-09T08:56:55Z</time>
      </trkpt>
      <trkpt lat="45.92539" lon="4.73008">
        <ele>169</ele>
        <time>2018-06-09T08:56:56Z</time>
      </trkpt>
      <trkpt lat="45.92546" lon="4.73002">
        <ele>169</ele>
        <time>2018-06-09T08:56:58Z</time>
      </trkpt>
      <trkpt lat="45.9255" lon="4.72998">
        <ele>169</ele>
        <time>2018-06-09T08:56:59Z</time>
      </trkpt>
      <trkpt lat="45.92554" lon="4.72993">
        <ele>169</ele>
        <time>2018-06-09T08:57:00Z</time>
      </trkpt>
      <trkpt lat="45.92558" lon="4.72989">
        <ele>169</ele>
        <time>2018-06-09T08:57:01Z</time>
      </trkpt>
      <trkpt lat="45.92563" lon="4.72987">
        <ele>169</ele>
        <time>2018-06-09T08:57:02Z</time>
      </trkpt>
      <trkpt lat="45.92568" lon="4.72982">
        <ele>169</ele>
        <time>2018-06-09T08:57:03Z</time>
      </trkpt>
      <trkpt lat="45.92572" lon="4.72977">
        <ele>169</ele>
        <time>2018-06-09T08:57:04Z</time>
      </trkpt>
      <trkpt lat="45.92576" lon="4.72972">
        <ele>169</ele>
        <time>2018-06-09T08:57:05Z</time>
      </trkpt>
      <trkpt lat="45.92581" lon="4.72966">
        <ele>169</ele>
        <time>2018-06-09T08:57:06Z</time>
      </trkpt>
      <trkpt lat="45.92586" lon="4.72962">
        <ele>169</ele>
        <time>2018-06-09T08:57:07Z</time>
      </trkpt>
      <trkpt lat="45.92591" lon="4.72955">
        <ele>169</ele>
        <time>2018-06-09T08:57:08Z</time>
      </trkpt>
      <trkpt lat="45.92595" lon="4.72951">
        <ele>169</ele>
        <time>2018-06-09T08:57:09Z</time>
      </trkpt>
      <trkpt lat="45.92598" lon="4.72945">
        <ele>169</ele>
        <time>2018-06-09T08:57:10Z</time>
      </trkpt>
      <trkpt lat="45.92602" lon="4.72941">
        <ele>169</ele>
        <time>2018-06-09T08:57:11Z</time>
      </trkpt>
      <trkpt lat="45.92606" lon="4.72936">
        <ele>169</ele>
        <time>2018-06-09T08:57:12Z</time>
      </trkpt>
      <trkpt lat="45.92611" lon="4.72933">
        <ele>169</ele>
        <time>2018-06-09T08:57:13Z</time>
      </trkpt>
      <trkpt lat="45.92616" lon="4.72929">
        <ele>169</ele>
        <time>2018-06-09T08:57:14Z</time>
      </trkpt>
      <trkpt lat="45.9262" lon="4.72921">
        <ele>169</ele>
        <time>2018-06-09T08:57:15Z</time>
      </trkpt>
      <trkpt lat="45.92625" lon="4.72919">
        <ele>169</ele>
        <time>2018-06-09T08:57:16Z</time>
      </trkpt>
      <trkpt lat="45.92629" lon="4.72916">
        <ele>169</ele>
        <time>2018-06-09T08:57:17Z</time>
      </trkpt>
      <trkpt lat="45.92635" lon="4.72911">
        <ele>169</ele>
        <time>2018-06-09T08:57:18Z</time>
      </trkpt>
      <trkpt lat="45.92639" lon="4.72906">
        <ele>169</ele>
        <time>2018-06-09T08:57:19Z</time>
      </trkpt>
      <trkpt lat="45.92645" lon="4.72902">
        <ele>169</ele>
        <time>2018-06-09T08:57:20Z</time>
      </trkpt>
      <trkpt lat="45.92651" lon="4.72899">
        <ele>170</ele>
        <time>2018-06-09T08:57:21Z</time>
      </trkpt>
      <trkpt lat="45.92656" lon="4.72895">
        <ele>170</ele>
        <time>2018-06-09T08:57:22Z</time>
      </trkpt>
      <trkpt lat="45.9266" lon="4.72892">
        <ele>169</ele>
        <time>2018-06-09T08:57:23Z</time>
      </trkpt>
      <trkpt lat="45.92665" lon="4.72889">
        <ele>169</ele>
        <time>2018-06-09T08:57:24Z</time>
      </trkpt>
      <trkpt lat="45.9267" lon="4.72884">
        <ele>170</ele>
        <time>2018-06-09T08:57:25Z</time>
      </trkpt>
      <trkpt lat="45.92674" lon="4.72882">
        <ele>170</ele>
        <time>2018-06-09T08:57:26Z</time>
      </trkpt>
      <trkpt lat="45.92679" lon="4.72878">
        <ele>170</ele>
        <time>2018-06-09T08:57:27Z</time>
      </trkpt>
      <trkpt lat="45.92684" lon="4.72873">
        <ele>169</ele>
        <time>2018-06-09T08:57:28Z</time>
      </trkpt>
      <trkpt lat="45.92688" lon="4.7287">
        <ele>169</ele>
        <time>2018-06-09T08:57:29Z</time>
      </trkpt>
      <trkpt lat="45.92694" lon="4.72865">
        <ele>169</ele>
        <time>2018-06-09T08:57:30Z</time>
      </trkpt>
      <trkpt lat="45.92699" lon="4.72861">
        <ele>169</ele>
        <time>2018-06-09T08:57:31Z</time>
      </trkpt>
      <trkpt lat="45.92704" lon="4.72857">
        <ele>169</ele>
        <time>2018-06-09T08:57:32Z</time>
      </trkpt>
      <trkpt lat="45.9271" lon="4.72853">
        <ele>169</ele>
        <time>2018-06-09T08:57:33Z</time>
      </trkpt>
      <trkpt lat="45.92713" lon="4.7285">
        <ele>169</ele>
        <time>2018-06-09T08:57:34Z</time>
      </trkpt>
      <trkpt lat="45.92718" lon="4.72846">
        <ele>169</ele>
        <time>2018-06-09T08:57:35Z</time>
      </trkpt>
      <trkpt lat="45.92724" lon="4.72842">
        <ele>169</ele>
        <time>2018-06-09T08:57:36Z</time>
      </trkpt>
      <trkpt lat="45.92729" lon="4.7284">
        <ele>169</ele>
        <time>2018-06-09T08:57:37Z</time>
      </trkpt>
      <trkpt lat="45.92735" lon="4.72835">
        <ele>169</ele>
        <time>2018-06-09T08:57:38Z</time>
      </trkpt>
      <trkpt lat="45.92739" lon="4.72831">
        <ele>169</ele>
        <time>2018-06-09T08:57:39Z</time>
      </trkpt>
      <trkpt lat="45.92744" lon="4.72828">
        <ele>169</ele>
        <time>2018-06-09T08:57:40Z</time>
      </trkpt>
      <trkpt lat="45.9275" lon="4.72823">
        <ele>169</ele>
        <time>2018-06-09T08:57:41Z</time>
      </trkpt>
      <trkpt lat="45.92755" lon="4.72818">
        <ele>170</ele>
        <time>2018-06-09T08:57:42Z</time>
      </trkpt>
      <trkpt lat="45.9276" lon="4.72815">
        <ele>170</ele>
        <time>2018-06-09T08:57:43Z</time>
      </trkpt>
      <trkpt lat="45.92765" lon="4.72812">
        <ele>170</ele>
        <time>2018-06-09T08:57:44Z</time>
      </trkpt>
      <trkpt lat="45.9277" lon="4.72808">
        <ele>170</ele>
        <time>2018-06-09T08:57:45Z</time>
      </trkpt>
      <trkpt lat="45.92775" lon="4.72803">
        <ele>170</ele>
        <time>2018-06-09T08:57:46Z</time>
      </trkpt>
      <trkpt lat="45.92779" lon="4.72799">
        <ele>170</ele>
        <time>2018-06-09T08:57:47Z</time>
      </trkpt>
      <trkpt lat="45.92785" lon="4.72794">
        <ele>170</ele>
        <time>2018-06-09T08:57:48Z</time>
      </trkpt>
      <trkpt lat="45.9279" lon="4.72791">
        <ele>170</ele>
        <time>2018-06-09T08:57:49Z</time>
      </trkpt>
      <trkpt lat="45.92794" lon="4.72788">
        <ele>171</ele>
        <time>2018-06-09T08:57:50Z</time>
      </trkpt>
      <trkpt lat="45.92799" lon="4.72788">
        <ele>171</ele>
        <time>2018-06-09T08:57:51Z</time>
      </trkpt>
      <trkpt lat="45.92808" lon="4.72789">
        <ele>171</ele>
        <time>2018-06-09T08:57:53Z</time>
      </trkpt>
      <trkpt lat="45.92808" lon="4.72795">
        <ele>171</ele>
        <time>2018-06-09T08:57:54Z</time>
      </trkpt>
      <trkpt lat="45.92808" lon="4.72803">
        <ele>171</ele>
        <time>2018-06-09T08:57:55Z</time>
      </trkpt>
      <trkpt lat="45.9281" lon="4.72809">
        <ele>171</ele>
        <time>2018-06-09T08:57:56Z</time>
      </trkpt>
      <trkpt lat="45.92811" lon="4.72815">
        <ele>171</ele>
        <time>2018-06-09T08:57:57Z</time>
      </trkpt>
      <trkpt lat="45.92812" lon="4.72822">
        <ele>171</ele>
        <time>2018-06-09T08:57:58Z</time>
      </trkpt>
      <trkpt lat="45.9281" lon="4.72829">
        <ele>171</ele>
        <time>2018-06-09T08:57:59Z</time>
      </trkpt>
      <trkpt lat="45.92813" lon="4.7284">
        <ele>170</ele>
        <time>2018-06-09T08:58:00Z</time>
      </trkpt>
      <trkpt lat="45.92814" lon="4.72848">
        <ele>170</ele>
        <time>2018-06-09T08:58:01Z</time>
      </trkpt>
      <trkpt lat="45.92816" lon="4.72854">
        <ele>170</ele>
        <time>2018-06-09T08:58:02Z</time>
      </trkpt>
      <trkpt lat="45.92818" lon="4.72862">
        <ele>170</ele>
        <time>2018-06-09T08:58:03Z</time>
      </trkpt>
      <trkpt lat="45.92821" lon="4.7287">
        <ele>170</ele>
        <time>2018-06-09T08:58:04Z</time>
      </trkpt>
      <trkpt lat="45.92823" lon="4.72878">
        <ele>170</ele>
        <time>2018-06-09T08:58:05Z</time>
      </trkpt>
      <trkpt lat="45.92824" lon="4.72885">
        <ele>170</ele>
        <time>2018-06-09T08:58:06Z</time>
      </trkpt>
      <trkpt lat="45.92825" lon="4.72894">
        <ele>170</ele>
        <time>2018-06-09T08:58:07Z</time>
      </trkpt>
      <trkpt lat="45.92827" lon="4.72902">
        <ele>170</ele>
        <time>2018-06-09T08:58:08Z</time>
      </trkpt>
      <trkpt lat="45.92829" lon="4.72912">
        <ele>170</ele>
        <time>2018-06-09T08:58:09Z</time>
      </trkpt>
      <trkpt lat="45.92829" lon="4.7292">
        <ele>170</ele>
        <time>2018-06-09T08:58:10Z</time>
      </trkpt>
      <trkpt lat="45.9283" lon="4.72929">
        <ele>170</ele>
        <time>2018-06-09T08:58:11Z</time>
      </trkpt>
      <trkpt lat="45.92831" lon="4.72939">
        <ele>170</ele>
        <time>2018-06-09T08:58:12Z</time>
      </trkpt>
      <trkpt lat="45.92831" lon="4.72947">
        <ele>170</ele>
        <time>2018-06-09T08:58:13Z</time>
      </trkpt>
      <trkpt lat="45.92832" lon="4.72954">
        <ele>170</ele>
        <time>2018-06-09T08:58:14Z</time>
      </trkpt>
      <trkpt lat="45.92832" lon="4.72963">
        <ele>170</ele>
        <time>2018-06-09T08:58:15Z</time>
      </trkpt>
      <trkpt lat="45.92832" lon="4.7297">
        <ele>170</ele>
        <time>2018-06-09T08:58:16Z</time>
      </trkpt>
      <trkpt lat="45.92833" lon="4.72977">
        <ele>170</ele>
        <time>2018-06-09T08:58:17Z</time>
      </trkpt>
      <trkpt lat="45.92834" lon="4.72985">
        <ele>171</ele>
        <time>2018-06-09T08:58:18Z</time>
      </trkpt>
      <trkpt lat="45.92836" lon="4.72993">
        <ele>170</ele>
        <time>2018-06-09T08:58:19Z</time>
      </trkpt>
      <trkpt lat="45.92837" lon="4.73001">
        <ele>170</ele>
        <time>2018-06-09T08:58:20Z</time>
      </trkpt>
      <trkpt lat="45.92839" lon="4.73009">
        <ele>171</ele>
        <time>2018-06-09T08:58:21Z</time>
      </trkpt>
      <trkpt lat="45.9284" lon="4.73016">
        <ele>171</ele>
        <time>2018-06-09T08:58:22Z</time>
      </trkpt>
      <trkpt lat="45.92841" lon="4.73024">
        <ele>171</ele>
        <time>2018-06-09T08:58:23Z</time>
      </trkpt>
      <trkpt lat="45.92842" lon="4.73031">
        <ele>171</ele>
        <time>2018-06-09T08:58:24Z</time>
      </trkpt>
      <trkpt lat="45.92843" lon="4.7304">
        <ele>171</ele>
        <time>2018-06-09T08:58:25Z</time>
      </trkpt>
      <trkpt lat="45.92845" lon="4.73048">
        <ele>171</ele>
        <time>2018-06-09T08:58:26Z</time>
      </trkpt>
      <trkpt lat="45.92846" lon="4.73056">
        <ele>171</ele>
        <time>2018-06-09T08:58:27Z</time>
      </trkpt>
      <trkpt lat="45.92848" lon="4.73064">
        <ele>171</ele>
        <time>2018-06-09T08:58:28Z</time>
      </trkpt>
      <trkpt lat="45.9285" lon="4.73072">
        <ele>171</ele>
        <time>2018-06-09T08:58:29Z</time>
      </trkpt>
      <trkpt lat="45.92852" lon="4.7308">
        <ele>171</ele>
        <time>2018-06-09T08:58:30Z</time>
      </trkpt>
      <trkpt lat="45.92853" lon="4.73087">
        <ele>171</ele>
        <time>2018-06-09T08:58:31Z</time>
      </trkpt>
      <trkpt lat="45.92854" lon="4.73095">
        <ele>171</ele>
        <time>2018-06-09T08:58:32Z</time>
      </trkpt>
      <trkpt lat="45.92858" lon="4.73102">
        <ele>171</ele>
        <time>2018-06-09T08:58:34Z</time>
      </trkpt>
      <trkpt lat="45.92863" lon="4.73103">
        <ele>171</ele>
        <time>2018-06-09T08:58:35Z</time>
      </trkpt>
      <trkpt lat="45.92868" lon="4.73097">
        <ele>172</ele>
        <time>2018-06-09T08:58:37Z</time>
      </trkpt>
      <trkpt lat="45.92871" lon="4.73093">
        <ele>172</ele>
        <time>2018-06-09T08:58:38Z</time>
      </trkpt>
      <trkpt lat="45.92878" lon="4.73085">
        <ele>172</ele>
        <time>2018-06-09T08:58:41Z</time>
      </trkpt>
      <trkpt lat="45.92882" lon="4.73082">
        <ele>172</ele>
        <time>2018-06-09T08:58:42Z</time>
      </trkpt>
      <trkpt lat="45.92889" lon="4.7308">
        <ele>172</ele>
        <time>2018-06-09T08:58:44Z</time>
      </trkpt>
      <trkpt lat="45.92893" lon="4.73074">
        <ele>172</ele>
        <time>2018-06-09T08:58:45Z</time>
      </trkpt>
      <trkpt lat="45.92896" lon="4.73068">
        <ele>172</ele>
        <time>2018-06-09T08:58:46Z</time>
      </trkpt>
      <trkpt lat="45.929" lon="4.73063">
        <ele>172</ele>
        <time>2018-06-09T08:58:47Z</time>
      </trkpt>
      <trkpt lat="45.92903" lon="4.73057">
        <ele>172</ele>
        <time>2018-06-09T08:58:48Z</time>
      </trkpt>
      <trkpt lat="45.92907" lon="4.73051">
        <ele>172</ele>
        <time>2018-06-09T08:58:49Z</time>
      </trkpt>
      <trkpt lat="45.92911" lon="4.73042">
        <ele>172</ele>
        <time>2018-06-09T08:58:50Z</time>
      </trkpt>
      <trkpt lat="45.92914" lon="4.73039">
        <ele>172</ele>
        <time>2018-06-09T08:58:51Z</time>
      </trkpt>
      <trkpt lat="45.92917" lon="4.73036">
        <ele>172</ele>
        <time>2018-06-09T08:58:52Z</time>
      </trkpt>
      <trkpt lat="45.92921" lon="4.73029">
        <ele>171</ele>
        <time>2018-06-09T08:58:53Z</time>
      </trkpt>
      <trkpt lat="45.92925" lon="4.73024">
        <ele>171</ele>
        <time>2018-06-09T08:58:54Z</time>
      </trkpt>
      <trkpt lat="45.92929" lon="4.7302">
        <ele>171</ele>
        <time>2018-06-09T08:58:55Z</time>
      </trkpt>
      <trkpt lat="45.92934" lon="4.73013">
        <ele>171</ele>
        <time>2018-06-09T08:58:56Z</time>
      </trkpt>
      <trkpt lat="45.92938" lon="4.73008">
        <ele>171</ele>
        <time>2018-06-09T08:58:57Z</time>
      </trkpt>
      <trkpt lat="45.92943" lon="4.73003">
        <ele>171</ele>
        <time>2018-06-09T08:58:58Z</time>
      </trkpt>
      <trkpt lat="45.92948" lon="4.72997">
        <ele>171</ele>
        <time>2018-06-09T08:58:59Z</time>
      </trkpt>
      <trkpt lat="45.92951" lon="4.72992">
        <ele>171</ele>
        <time>2018-06-09T08:59:00Z</time>
      </trkpt>
      <trkpt lat="45.92956" lon="4.72986">
        <ele>171</ele>
        <time>2018-06-09T08:59:01Z</time>
      </trkpt>
      <trkpt lat="45.92962" lon="4.7298">
        <ele>171</ele>
        <time>2018-06-09T08:59:02Z</time>
      </trkpt>
      <trkpt lat="45.92967" lon="4.72973">
        <ele>171</ele>
        <time>2018-06-09T08:59:03Z</time>
      </trkpt>
      <trkpt lat="45.92972" lon="4.72968">
        <ele>171</ele>
        <time>2018-06-09T08:59:04Z</time>
      </trkpt>
      <trkpt lat="45.92976" lon="4.72963">
        <ele>171</ele>
        <time>2018-06-09T08:59:05Z</time>
      </trkpt>
      <trkpt lat="45.92981" lon="4.72955">
        <ele>171</ele>
        <time>2018-06-09T08:59:06Z</time>
      </trkpt>
      <trkpt lat="45.92985" lon="4.7295">
        <ele>171</ele>
        <time>2018-06-09T08:59:07Z</time>
      </trkpt>
      <trkpt lat="45.9299" lon="4.72945">
        <ele>171</ele>
        <time>2018-06-09T08:59:08Z</time>
      </trkpt>
      <trkpt lat="45.92994" lon="4.72937">
        <ele>171</ele>
        <time>2018-06-09T08:59:09Z</time>
      </trkpt>
      <trkpt lat="45.92999" lon="4.72932">
        <ele>171</ele>
        <time>2018-06-09T08:59:10Z</time>
      </trkpt>
      <trkpt lat="45.93003" lon="4.72925">
        <ele>170</ele>
        <time>2018-06-09T08:59:11Z</time>
      </trkpt>
      <trkpt lat="45.93007" lon="4.72921">
        <ele>170</ele>
        <time>2018-06-09T08:59:12Z</time>
      </trkpt>
      <trkpt lat="45.93011" lon="4.72915">
        <ele>171</ele>
        <time>2018-06-09T08:59:13Z</time>
      </trkpt>
      <trkpt lat="45.93015" lon="4.72909">
        <ele>171</ele>
        <time>2018-06-09T08:59:14Z</time>
      </trkpt>
      <trkpt lat="45.93019" lon="4.72904">
        <ele>172</ele>
        <time>2018-06-09T08:59:15Z</time>
      </trkpt>
      <trkpt lat="45.93023" lon="4.729">
        <ele>172</ele>
        <time>2018-06-09T08:59:16Z</time>
      </trkpt>
      <trkpt lat="45.93027" lon="4.72893">
        <ele>172</ele>
        <time>2018-06-09T08:59:17Z</time>
      </trkpt>
      <trkpt lat="45.93031" lon="4.7289">
        <ele>172</ele>
        <time>2018-06-09T08:59:18Z</time>
      </trkpt>
      <trkpt lat="45.93035" lon="4.72887">
        <ele>172</ele>
        <time>2018-06-09T08:59:19Z</time>
      </trkpt>
      <trkpt lat="45.9304" lon="4.72883">
        <ele>172</ele>
        <time>2018-06-09T08:59:20Z</time>
      </trkpt>
      <trkpt lat="45.93045" lon="4.72879">
        <ele>172</ele>
        <time>2018-06-09T08:59:21Z</time>
      </trkpt>
      <trkpt lat="45.93049" lon="4.72872">
        <ele>172</ele>
        <time>2018-06-09T08:59:22Z</time>
      </trkpt>
      <trkpt lat="45.93054" lon="4.72866">
        <ele>172</ele>
        <time>2018-06-09T08:59:23Z</time>
      </trkpt>
      <trkpt lat="45.93059" lon="4.72862">
        <ele>172</ele>
        <time>2018-06-09T08:59:24Z</time>
      </trkpt>
      <trkpt lat="45.93061" lon="4.72855">
        <ele>172</ele>
        <time>2018-06-09T08:59:25Z</time>
      </trkpt>
      <trkpt lat="45.93066" lon="4.72849">
        <ele>172</ele>
        <time>2018-06-09T08:59:26Z</time>
      </trkpt>
      <trkpt lat="45.9307" lon="4.72843">
        <ele>173</ele>
        <time>2018-06-09T08:59:27Z</time>
      </trkpt>
      <trkpt lat="45.93075" lon="4.72838">
        <ele>173</ele>
        <time>2018-06-09T08:59:28Z</time>
      </trkpt>
      <trkpt lat="45.93118" lon="4.72798">
        <ele>171</ele>
        <time>2018-06-09T08:59:36Z</time>
      </trkpt>
      <trkpt lat="45.93124" lon="4.72788">
        <ele>171</ele>
        <time>2018-06-09T08:59:37Z</time>
      </trkpt>
      <trkpt lat="45.93128" lon="4.72783">
        <ele>171</ele>
        <time>2018-06-09T08:59:39Z</time>
      </trkpt>
      <trkpt lat="45.93131" lon="4.72778">
        <ele>171</ele>
        <time>2018-06-09T08:59:40Z</time>
      </trkpt>
      <trkpt lat="45.93136" lon="4.72775">
        <ele>171</ele>
        <time>2018-06-09T08:59:41Z</time>
      </trkpt>
      <trkpt lat="45.93141" lon="4.7277">
        <ele>171</ele>
        <time>2018-06-09T08:59:42Z</time>
      </trkpt>
      <trkpt lat="45.93145" lon="4.72765">
        <ele>171</ele>
        <time>2018-06-09T08:59:43Z</time>
      </trkpt>
      <trkpt lat="45.93149" lon="4.72761">
        <ele>171</ele>
        <time>2018-06-09T08:59:44Z</time>
      </trkpt>
      <trkpt lat="45.93153" lon="4.72757">
        <ele>170</ele>
        <time>2018-06-09T08:59:45Z</time>
      </trkpt>
      <trkpt lat="45.93158" lon="4.72749">
        <ele>170</ele>
        <time>2018-06-09T08:59:46Z</time>
      </trkpt>
      <trkpt lat="45.93165" lon="4.72742">
        <ele>170</ele>
        <time>2018-06-09T08:59:47Z</time>
      </trkpt>
      <trkpt lat="45.93169" lon="4.72737">
        <ele>170</ele>
        <time>2018-06-09T08:59:48Z</time>
      </trkpt>
      <trkpt lat="45.93173" lon="4.72732">
        <ele>170</ele>
        <time>2018-06-09T08:59:49Z</time>
      </trkpt>
      <trkpt lat="45.93179" lon="4.72724">
        <ele>170</ele>
        <time>2018-06-09T08:59:50Z</time>
      </trkpt>
      <trkpt lat="45.93185" lon="4.72716">
        <ele>169</ele>
        <time>2018-06-09T08:59:51Z</time>
      </trkpt>
      <trkpt lat="45.9319" lon="4.7271">
        <ele>169</ele>
        <time>2018-06-09T08:59:52Z</time>
      </trkpt>
      <trkpt lat="45.93193" lon="4.72704">
        <ele>169</ele>
        <time>2018-06-09T08:59:53Z</time>
      </trkpt>
      <trkpt lat="45.93198" lon="4.72698">
        <ele>169</ele>
        <time>2018-06-09T08:59:54Z</time>
      </trkpt>
      <trkpt lat="45.93203" lon="4.72693">
        <ele>169</ele>
        <time>2018-06-09T08:59:55Z</time>
      </trkpt>
      <trkpt lat="45.93208" lon="4.72688">
        <ele>169</ele>
        <time>2018-06-09T08:59:56Z</time>
      </trkpt>
      <trkpt lat="45.93211" lon="4.72682">
        <ele>169</ele>
        <time>2018-06-09T08:59:57Z</time>
      </trkpt>
      <trkpt lat="45.93216" lon="4.72677">
        <ele>169</ele>
        <time>2018-06-09T08:59:58Z</time>
      </trkpt>
      <trkpt lat="45.9322" lon="4.72672">
        <ele>169</ele>
        <time>2018-06-09T08:59:59Z</time>
      </trkpt>
      <trkpt lat="45.93226" lon="4.72667">
        <ele>169</ele>
        <time>2018-06-09T09:00:00Z</time>
      </trkpt>
      <trkpt lat="45.9323" lon="4.72661">
        <ele>169</ele>
        <time>2018-06-09T09:00:01Z</time>
      </trkpt>
      <trkpt lat="45.93235" lon="4.72654">
        <ele>169</ele>
        <time>2018-06-09T09:00:02Z</time>
      </trkpt>
      <trkpt lat="45.93238" lon="4.72649">
        <ele>170</ele>
        <time>2018-06-09T09:00:03Z</time>
      </trkpt>
      <trkpt lat="45.93243" lon="4.72644">
        <ele>170</ele>
        <time>2018-06-09T09:00:04Z</time>
      </trkpt>
      <trkpt lat="45.93247" lon="4.72638">
        <ele>170</ele>
        <time>2018-06-09T09:00:05Z</time>
      </trkpt>
      <trkpt lat="45.93252" lon="4.72634">
        <ele>170</ele>
        <time>2018-06-09T09:00:06Z</time>
      </trkpt>
      <trkpt lat="45.93257" lon="4.72629">
        <ele>170</ele>
        <time>2018-06-09T09:00:07Z</time>
      </trkpt>
      <trkpt lat="45.93261" lon="4.72624">
        <ele>170</ele>
        <time>2018-06-09T09:00:08Z</time>
      </trkpt>
      <trkpt lat="45.93266" lon="4.72619">
        <ele>170</ele>
        <time>2018-06-09T09:00:09Z</time>
      </trkpt>
      <trkpt lat="45.93269" lon="4.72613">
        <ele>170</ele>
        <time>2018-06-09T09:00:10Z</time>
      </trkpt>
      <trkpt lat="45.93272" lon="4.72608">
        <ele>170</ele>
        <time>2018-06-09T09:00:11Z</time>
      </trkpt>
      <trkpt lat="45.93274" lon="4.72601">
        <ele>170</ele>
        <time>2018-06-09T09:00:12Z</time>
      </trkpt>
      <trkpt lat="45.93278" lon="4.72595">
        <ele>170</ele>
        <time>2018-06-09T09:00:13Z</time>
      </trkpt>
      <trkpt lat="45.93283" lon="4.72593">
        <ele>170</ele>
        <time>2018-06-09T09:00:14Z</time>
      </trkpt>
      <trkpt lat="45.93289" lon="4.7259">
        <ele>170</ele>
        <time>2018-06-09T09:00:15Z</time>
      </trkpt>
      <trkpt lat="45.93293" lon="4.72585">
        <ele>170</ele>
        <time>2018-06-09T09:00:16Z</time>
      </trkpt>
      <trkpt lat="45.93297" lon="4.7258">
        <ele>171</ele>
        <time>2018-06-09T09:00:17Z</time>
      </trkpt>
      <trkpt lat="45.93303" lon="4.72576">
        <ele>171</ele>
        <time>2018-06-09T09:00:18Z</time>
      </trkpt>
      <trkpt lat="45.93307" lon="4.72571">
        <ele>171</ele>
        <time>2018-06-09T09:00:19Z</time>
      </trkpt>
      <trkpt lat="45.93313" lon="4.72567">
        <ele>171</ele>
        <time>2018-06-09T09:00:20Z</time>
      </trkpt>
      <trkpt lat="45.93315" lon="4.72563">
        <ele>171</ele>
        <time>2018-06-09T09:00:21Z</time>
      </trkpt>
      <trkpt lat="45.9332" lon="4.72556">
        <ele>171</ele>
        <time>2018-06-09T09:00:22Z</time>
      </trkpt>
      <trkpt lat="45.93324" lon="4.72552">
        <ele>172</ele>
        <time>2018-06-09T09:00:23Z</time>
      </trkpt>
      <trkpt lat="45.93329" lon="4.72547">
        <ele>172</ele>
        <time>2018-06-09T09:00:24Z</time>
      </trkpt>
      <trkpt lat="45.93333" lon="4.72544">
        <ele>172</ele>
        <time>2018-06-09T09:00:25Z</time>
      </trkpt>
      <trkpt lat="45.93337" lon="4.72541">
        <ele>171</ele>
        <time>2018-06-09T09:00:26Z</time>
      </trkpt>
      <trkpt lat="45.93343" lon="4.72534">
        <ele>172</ele>
        <time>2018-06-09T09:00:27Z</time>
      </trkpt>
      <trkpt lat="45.93348" lon="4.72527">
        <ele>172</ele>
        <time>2018-06-09T09:00:28Z</time>
      </trkpt>
      <trkpt lat="45.93352" lon="4.72522">
        <ele>172</ele>
        <time>2018-06-09T09:00:29Z</time>
      </trkpt>
      <trkpt lat="45.93357" lon="4.72516">
        <ele>172</ele>
        <time>2018-06-09T09:00:30Z</time>
      </trkpt>
      <trkpt lat="45.9336" lon="4.72511">
        <ele>172</ele>
        <time>2018-06-09T09:00:31Z</time>
      </trkpt>
      <trkpt lat="45.93364" lon="4.72507">
        <ele>172</ele>
        <time>2018-06-09T09:00:32Z</time>
      </trkpt>
      <trkpt lat="45.93368" lon="4.72501">
        <ele>172</ele>
        <time>2018-06-09T09:00:33Z</time>
      </trkpt>
      <trkpt lat="45.93372" lon="4.72497">
        <ele>173</ele>
        <time>2018-06-09T09:00:34Z</time>
      </trkpt>
      <trkpt lat="45.93378" lon="4.72492">
        <ele>173</ele>
        <time>2018-06-09T09:00:35Z</time>
      </trkpt>
      <trkpt lat="45.93382" lon="4.72486">
        <ele>173</ele>
        <time>2018-06-09T09:00:36Z</time>
      </trkpt>
      <trkpt lat="45.93386" lon="4.7248">
        <ele>173</ele>
        <time>2018-06-09T09:00:37Z</time>
      </trkpt>
      <trkpt lat="45.93389" lon="4.72473">
        <ele>173</ele>
        <time>2018-06-09T09:00:38Z</time>
      </trkpt>
      <trkpt lat="45.93393" lon="4.72467">
        <ele>173</ele>
        <time>2018-06-09T09:00:39Z</time>
      </trkpt>
      <trkpt lat="45.93395" lon="4.72461">
        <ele>173</ele>
        <time>2018-06-09T09:00:40Z</time>
      </trkpt>
      <trkpt lat="45.93396" lon="4.72454">
        <ele>173</ele>
        <time>2018-06-09T09:00:41Z</time>
      </trkpt>
      <trkpt lat="45.93401" lon="4.72446">
        <ele>173</ele>
        <time>2018-06-09T09:00:42Z</time>
      </trkpt>
      <trkpt lat="45.93404" lon="4.72437">
        <ele>173</ele>
        <time>2018-06-09T09:00:43Z</time>
      </trkpt>
      <trkpt lat="45.93407" lon="4.72431">
        <ele>173</ele>
        <time>2018-06-09T09:00:44Z</time>
      </trkpt>
      <trkpt lat="45.93412" lon="4.72422">
        <ele>174</ele>
        <time>2018-06-09T09:00:45Z</time>
      </trkpt>
      <trkpt lat="45.93415" lon="4.72417">
        <ele>174</ele>
        <time>2018-06-09T09:00:46Z</time>
      </trkpt>
      <trkpt lat="45.9342" lon="4.72415">
        <ele>174</ele>
        <time>2018-06-09T09:00:47Z</time>
      </trkpt>
      <trkpt lat="45.93425" lon="4.72413">
        <ele>174</ele>
        <time>2018-06-09T09:00:48Z</time>
      </trkpt>
      <trkpt lat="45.93431" lon="4.7241">
        <ele>174</ele>
        <time>2018-06-09T09:00:49Z</time>
      </trkpt>
      <trkpt lat="45.93436" lon="4.72407">
        <ele>174</ele>
        <time>2018-06-09T09:00:50Z</time>
      </trkpt>
      <trkpt lat="45.93441" lon="4.72404">
        <ele>173</ele>
        <time>2018-06-09T09:00:51Z</time>
      </trkpt>
      <trkpt lat="45.93447" lon="4.724">
        <ele>173</ele>
        <time>2018-06-09T09:00:52Z</time>
      </trkpt>
      <trkpt lat="45.93453" lon="4.72397">
        <ele>173</ele>
        <time>2018-06-09T09:00:53Z</time>
      </trkpt>
      <trkpt lat="45.93458" lon="4.72391">
        <ele>173</ele>
        <time>2018-06-09T09:00:54Z</time>
      </trkpt>
      <trkpt lat="45.93464" lon="4.72386">
        <ele>173</ele>
        <time>2018-06-09T09:00:55Z</time>
      </trkpt>
      <trkpt lat="45.9347" lon="4.72378">
        <ele>173</ele>
        <time>2018-06-09T09:00:56Z</time>
      </trkpt>
      <trkpt lat="45.93474" lon="4.72371">
        <ele>173</ele>
        <time>2018-06-09T09:00:57Z</time>
      </trkpt>
      <trkpt lat="45.93479" lon="4.72363">
        <ele>173</ele>
        <time>2018-06-09T09:00:58Z</time>
      </trkpt>
      <trkpt lat="45.93485" lon="4.72357">
        <ele>173</ele>
        <time>2018-06-09T09:00:59Z</time>
      </trkpt>
      <trkpt lat="45.9349" lon="4.7235">
        <ele>173</ele>
        <time>2018-06-09T09:01:00Z</time>
      </trkpt>
      <trkpt lat="45.93494" lon="4.72343">
        <ele>173</ele>
        <time>2018-06-09T09:01:01Z</time>
      </trkpt>
      <trkpt lat="45.93499" lon="4.72335">
        <ele>173</ele>
        <time>2018-06-09T09:01:02Z</time>
      </trkpt>
      <trkpt lat="45.93504" lon="4.72328">
        <ele>173</ele>
        <time>2018-06-09T09:01:03Z</time>
      </trkpt>
      <trkpt lat="45.93508" lon="4.72322">
        <ele>173</ele>
        <time>2018-06-09T09:01:04Z</time>
      </trkpt>
      <trkpt lat="45.93514" lon="4.72314">
        <ele>173</ele>
        <time>2018-06-09T09:01:05Z</time>
      </trkpt>
      <trkpt lat="45.93519" lon="4.72306">
        <ele>173</ele>
        <time>2018-06-09T09:01:06Z</time>
      </trkpt>
      <trkpt lat="45.93523" lon="4.723">
        <ele>172</ele>
        <time>2018-06-09T09:01:07Z</time>
      </trkpt>
      <trkpt lat="45.93526" lon="4.72293">
        <ele>172</ele>
        <time>2018-06-09T09:01:08Z</time>
      </trkpt>
      <trkpt lat="45.93529" lon="4.72287">
        <ele>172</ele>
        <time>2018-06-09T09:01:09Z</time>
      </trkpt>
      <trkpt lat="45.93532" lon="4.7228">
        <ele>172</ele>
        <time>2018-06-09T09:01:10Z</time>
      </trkpt>
      <trkpt lat="45.93534" lon="4.72273">
        <ele>172</ele>
        <time>2018-06-09T09:01:11Z</time>
      </trkpt>
      <trkpt lat="45.93537" lon="4.72267">
        <ele>172</ele>
        <time>2018-06-09T09:01:12Z</time>
      </trkpt>
      <trkpt lat="45.9354" lon="4.7226">
        <ele>172</ele>
        <time>2018-06-09T09:01:13Z</time>
      </trkpt>
      <trkpt lat="45.93543" lon="4.72253">
        <ele>172</ele>
        <time>2018-06-09T09:01:14Z</time>
      </trkpt>
      <trkpt lat="45.93545" lon="4.72246">
        <ele>172</ele>
        <time>2018-06-09T09:01:15Z</time>
      </trkpt>
      <trkpt lat="45.93547" lon="4.72239">
        <ele>172</ele>
        <time>2018-06-09T09:01:16Z</time>
      </trkpt>
      <trkpt lat="45.93549" lon="4.72233">
        <ele>172</ele>
        <time>2018-06-09T09:01:17Z</time>
      </trkpt>
      <trkpt lat="45.93553" lon="4.72225">
        <ele>173</ele>
        <time>2018-06-09T09:01:18Z</time>
      </trkpt>
      <trkpt lat="45.93558" lon="4.72222">
        <ele>173</ele>
        <time>2018-06-09T09:01:19Z</time>
      </trkpt>
      <trkpt lat="45.93563" lon="4.72221">
        <ele>173</ele>
        <time>2018-06-09T09:01:20Z</time>
      </trkpt>
      <trkpt lat="45.93569" lon="4.7222">
        <ele>173</ele>
        <time>2018-06-09T09:01:21Z</time>
      </trkpt>
      <trkpt lat="45.93573" lon="4.72228">
        <ele>173</ele>
        <time>2018-06-09T09:01:22Z</time>
      </trkpt>
      <trkpt lat="45.93578" lon="4.72232">
        <ele>173</ele>
        <time>2018-06-09T09:01:23Z</time>
      </trkpt>
      <trkpt lat="45.93582" lon="4.72239">
        <ele>173</ele>
        <time>2018-06-09T09:01:24Z</time>
      </trkpt>
      <trkpt lat="45.93587" lon="4.72243">
        <ele>173</ele>
        <time>2018-06-09T09:01:25Z</time>
      </trkpt>
      <trkpt lat="45.93591" lon="4.72248">
        <ele>173</ele>
        <time>2018-06-09T09:01:26Z</time>
      </trkpt>
      <trkpt lat="45.93597" lon="4.72253">
        <ele>173</ele>
        <time>2018-06-09T09:01:27Z</time>
      </trkpt>
      <trkpt lat="45.93602" lon="4.72259">
        <ele>173</ele>
        <time>2018-06-09T09:01:28Z</time>
      </trkpt>
      <trkpt lat="45.93607" lon="4.72264">
        <ele>173</ele>
        <time>2018-06-09T09:01:29Z</time>
      </trkpt>
      <trkpt lat="45.93612" lon="4.7227">
        <ele>172</ele>
        <time>2018-06-09T09:01:30Z</time>
      </trkpt>
      <trkpt lat="45.93616" lon="4.72274">
        <ele>172</ele>
        <time>2018-06-09T09:01:31Z</time>
      </trkpt>
      <trkpt lat="45.93623" lon="4.72281">
        <ele>172</ele>
        <time>2018-06-09T09:01:32Z</time>
      </trkpt>
      <trkpt lat="45.93628" lon="4.72286">
        <ele>172</ele>
        <time>2018-06-09T09:01:33Z</time>
      </trkpt>
      <trkpt lat="45.93636" lon="4.72291">
        <ele>172</ele>
        <time>2018-06-09T09:01:34Z</time>
      </trkpt>
      <trkpt lat="45.9364" lon="4.72297">
        <ele>172</ele>
        <time>2018-06-09T09:01:35Z</time>
      </trkpt>
      <trkpt lat="45.93643" lon="4.72301">
        <ele>172</ele>
        <time>2018-06-09T09:01:36Z</time>
      </trkpt>
      <trkpt lat="45.93647" lon="4.7231">
        <ele>172</ele>
        <time>2018-06-09T09:01:38Z</time>
      </trkpt>
      <trkpt lat="45.9365" lon="4.72314">
        <ele>172</ele>
        <time>2018-06-09T09:01:39Z</time>
      </trkpt>
      <trkpt lat="45.93656" lon="4.72319">
        <ele>172</ele>
        <time>2018-06-09T09:01:40Z</time>
      </trkpt>
      <trkpt lat="45.93662" lon="4.72322">
        <ele>171</ele>
        <time>2018-06-09T09:01:41Z</time>
      </trkpt>
      <trkpt lat="45.93669" lon="4.72329">
        <ele>171</ele>
        <time>2018-06-09T09:01:43Z</time>
      </trkpt>
      <trkpt lat="45.93673" lon="4.72333">
        <ele>171</ele>
        <time>2018-06-09T09:01:44Z</time>
      </trkpt>
      <trkpt lat="45.93677" lon="4.72339">
        <ele>171</ele>
        <time>2018-06-09T09:01:45Z</time>
      </trkpt>
      <trkpt lat="45.93682" lon="4.72343">
        <ele>171</ele>
        <time>2018-06-09T09:01:46Z</time>
      </trkpt>
      <trkpt lat="45.93688" lon="4.72348">
        <ele>171</ele>
        <time>2018-06-09T09:01:47Z</time>
      </trkpt>
      <trkpt lat="45.93694" lon="4.72354">
        <ele>171</ele>
        <time>2018-06-09T09:01:48Z</time>
      </trkpt>
      <trkpt lat="45.93699" lon="4.72359">
        <ele>171</ele>
        <time>2018-06-09T09:01:49Z</time>
      </trkpt>
      <trkpt lat="45.93704" lon="4.72363">
        <ele>171</ele>
        <time>2018-06-09T09:01:50Z</time>
      </trkpt>
      <trkpt lat="45.9371" lon="4.7237">
        <ele>172</ele>
        <time>2018-06-09T09:01:53Z</time>
      </trkpt>
      <trkpt lat="45.93716" lon="4.72373">
        <ele>172</ele>
        <time>2018-06-09T09:01:54Z</time>
      </trkpt>
      <trkpt lat="45.93722" lon="4.7238">
        <ele>171</ele>
        <time>2018-06-09T09:01:55Z</time>
      </trkpt>
      <trkpt lat="45.93727" lon="4.72383">
        <ele>171</ele>
        <time>2018-06-09T09:01:56Z</time>
      </trkpt>
      <trkpt lat="45.93732" lon="4.72386">
        <ele>171</ele>
        <time>2018-06-09T09:01:57Z</time>
      </trkpt>
      <trkpt lat="45.93737" lon="4.72391">
        <ele>171</ele>
        <time>2018-06-09T09:01:58Z</time>
      </trkpt>
      <trkpt lat="45.93741" lon="4.72395">
        <ele>171</ele>
        <time>2018-06-09T09:01:59Z</time>
      </trkpt>
      <trkpt lat="45.93745" lon="4.72399">
        <ele>171</ele>
        <time>2018-06-09T09:02:00Z</time>
      </trkpt>
      <trkpt lat="45.9375" lon="4.72404">
        <ele>171</ele>
        <time>2018-06-09T09:02:01Z</time>
      </trkpt>
      <trkpt lat="45.93753" lon="4.72409">
        <ele>171</ele>
        <time>2018-06-09T09:02:02Z</time>
      </trkpt>
      <trkpt lat="45.93757" lon="4.72414">
        <ele>171</ele>
        <time>2018-06-09T09:02:03Z</time>
      </trkpt>
      <trkpt lat="45.93761" lon="4.72419">
        <ele>171</ele>
        <time>2018-06-09T09:02:04Z</time>
      </trkpt>
      <trkpt lat="45.93766" lon="4.72425">
        <ele>171</ele>
        <time>2018-06-09T09:02:05Z</time>
      </trkpt>
      <trkpt lat="45.9377" lon="4.72429">
        <ele>171</ele>
        <time>2018-06-09T09:02:06Z</time>
      </trkpt>
      <trkpt lat="45.93774" lon="4.72433">
        <ele>171</ele>
        <time>2018-06-09T09:02:07Z</time>
      </trkpt>
      <trkpt lat="45.93779" lon="4.72437">
        <ele>172</ele>
        <time>2018-06-09T09:02:08Z</time>
      </trkpt>
      <trkpt lat="45.93783" lon="4.72441">
        <ele>172</ele>
        <time>2018-06-09T09:02:09Z</time>
      </trkpt>
      <trkpt lat="45.93787" lon="4.72447">
        <ele>172</ele>
        <time>2018-06-09T09:02:10Z</time>
      </trkpt>
      <trkpt lat="45.93793" lon="4.72453">
        <ele>172</ele>
        <time>2018-06-09T09:02:11Z</time>
      </trkpt>
      <trkpt lat="45.93797" lon="4.72459">
        <ele>172</ele>
        <time>2018-06-09T09:02:12Z</time>
      </trkpt>
      <trkpt lat="45.93802" lon="4.72462">
        <ele>172</ele>
        <time>2018-06-09T09:02:13Z</time>
      </trkpt>
      <trkpt lat="45.93803" lon="4.72469">
        <ele>172</ele>
        <time>2018-06-09T09:02:14Z</time>
      </trkpt>
      <trkpt lat="45.93808" lon="4.72473">
        <ele>172</ele>
        <time>2018-06-09T09:02:15Z</time>
      </trkpt>
      <trkpt lat="45.93813" lon="4.72479">
        <ele>172</ele>
        <time>2018-06-09T09:02:16Z</time>
      </trkpt>
      <trkpt lat="45.93819" lon="4.72483">
        <ele>173</ele>
        <time>2018-06-09T09:02:17Z</time>
      </trkpt>
      <trkpt lat="45.93824" lon="4.72487">
        <ele>173</ele>
        <time>2018-06-09T09:02:18Z</time>
      </trkpt>
      <trkpt lat="45.93829" lon="4.72492">
        <ele>173</ele>
        <time>2018-06-09T09:02:19Z</time>
      </trkpt>
      <trkpt lat="45.93834" lon="4.72496">
        <ele>174</ele>
        <time>2018-06-09T09:02:20Z</time>
      </trkpt>
      <trkpt lat="45.93866" lon="4.72517">
        <ele>173</ele>
        <time>2018-06-09T09:02:26Z</time>
      </trkpt>
      <trkpt lat="45.93872" lon="4.72521">
        <ele>173</ele>
        <time>2018-06-09T09:02:27Z</time>
      </trkpt>
      <trkpt lat="45.93877" lon="4.72515">
        <ele>173</ele>
        <time>2018-06-09T09:02:28Z</time>
      </trkpt>
      <trkpt lat="45.93883" lon="4.7251">
        <ele>173</ele>
        <time>2018-06-09T09:02:29Z</time>
      </trkpt>
      <trkpt lat="45.93888" lon="4.72505">
        <ele>173</ele>
        <time>2018-06-09T09:02:30Z</time>
      </trkpt>
      <trkpt lat="45.93893" lon="4.72501">
        <ele>172</ele>
        <time>2018-06-09T09:02:31Z</time>
      </trkpt>
      <trkpt lat="45.93897" lon="4.72494">
        <ele>172</ele>
        <time>2018-06-09T09:02:32Z</time>
      </trkpt>
      <trkpt lat="45.93902" lon="4.72488">
        <ele>172</ele>
        <time>2018-06-09T09:02:33Z</time>
      </trkpt>
      <trkpt lat="45.93907" lon="4.72482">
        <ele>172</ele>
        <time>2018-06-09T09:02:34Z</time>
      </trkpt>
      <trkpt lat="45.9391" lon="4.72478">
        <ele>172</ele>
        <time>2018-06-09T09:02:35Z</time>
      </trkpt>
      <trkpt lat="45.93915" lon="4.72473">
        <ele>172</ele>
        <time>2018-06-09T09:02:36Z</time>
      </trkpt>
      <trkpt lat="45.9392" lon="4.72465">
        <ele>171</ele>
        <time>2018-06-09T09:02:37Z</time>
      </trkpt>
      <trkpt lat="45.93925" lon="4.72459">
        <ele>171</ele>
        <time>2018-06-09T09:02:38Z</time>
      </trkpt>
      <trkpt lat="45.93931" lon="4.72449">
        <ele>171</ele>
        <time>2018-06-09T09:02:39Z</time>
      </trkpt>
      <trkpt lat="45.93938" lon="4.72442">
        <ele>171</ele>
        <time>2018-06-09T09:02:41Z</time>
      </trkpt>
      <trkpt lat="45.93942" lon="4.72436">
        <ele>171</ele>
        <time>2018-06-09T09:02:42Z</time>
      </trkpt>
      <trkpt lat="45.9395" lon="4.72427">
        <ele>171</ele>
        <time>2018-06-09T09:02:43Z</time>
      </trkpt>
      <trkpt lat="45.93956" lon="4.72421">
        <ele>171</ele>
        <time>2018-06-09T09:02:44Z</time>
      </trkpt>
      <trkpt lat="45.93961" lon="4.72417">
        <ele>171</ele>
        <time>2018-06-09T09:02:45Z</time>
      </trkpt>
      <trkpt lat="45.93965" lon="4.72411">
        <ele>171</ele>
        <time>2018-06-09T09:02:46Z</time>
      </trkpt>
      <trkpt lat="45.93971" lon="4.72405">
        <ele>171</ele>
        <time>2018-06-09T09:02:47Z</time>
      </trkpt>
      <trkpt lat="45.93974" lon="4.72403">
        <ele>171</ele>
        <time>2018-06-09T09:02:48Z</time>
      </trkpt>
      <trkpt lat="45.9398" lon="4.72397">
        <ele>171</ele>
        <time>2018-06-09T09:02:49Z</time>
      </trkpt>
      <trkpt lat="45.93988" lon="4.72386">
        <ele>171</ele>
        <time>2018-06-09T09:02:50Z</time>
      </trkpt>
      <trkpt lat="45.93994" lon="4.72378">
        <ele>171</ele>
        <time>2018-06-09T09:02:51Z</time>
      </trkpt>
      <trkpt lat="45.93999" lon="4.72372">
        <ele>171</ele>
        <time>2018-06-09T09:02:52Z</time>
      </trkpt>
      <trkpt lat="45.94002" lon="4.72371">
        <ele>171</ele>
        <time>2018-06-09T09:02:54Z</time>
      </trkpt>
      <trkpt lat="45.94007" lon="4.72363">
        <ele>171</ele>
        <time>2018-06-09T09:02:55Z</time>
      </trkpt>
      <trkpt lat="45.94012" lon="4.72351">
        <ele>171</ele>
        <time>2018-06-09T09:02:56Z</time>
      </trkpt>
      <trkpt lat="45.94017" lon="4.72344">
        <ele>171</ele>
        <time>2018-06-09T09:02:57Z</time>
      </trkpt>
      <trkpt lat="45.94025" lon="4.72333">
        <ele>171</ele>
        <time>2018-06-09T09:02:58Z</time>
      </trkpt>
      <trkpt lat="45.94031" lon="4.72322">
        <ele>171</ele>
        <time>2018-06-09T09:02:59Z</time>
      </trkpt>
      <trkpt lat="45.94036" lon="4.72313">
        <ele>171</ele>
        <time>2018-06-09T09:03:00Z</time>
      </trkpt>
      <trkpt lat="45.94041" lon="4.72319">
        <ele>171</ele>
        <time>2018-06-09T09:03:01Z</time>
      </trkpt>
      <trkpt lat="45.94046" lon="4.72306">
        <ele>171</ele>
        <time>2018-06-09T09:03:02Z</time>
      </trkpt>
      <trkpt lat="45.94052" lon="4.72302">
        <ele>171</ele>
        <time>2018-06-09T09:03:05Z</time>
      </trkpt>
      <trkpt lat="45.94059" lon="4.72292">
        <ele>171</ele>
        <time>2018-06-09T09:03:06Z</time>
      </trkpt>
      <trkpt lat="45.94067" lon="4.72286">
        <ele>171</ele>
        <time>2018-06-09T09:03:08Z</time>
      </trkpt>
      <trkpt lat="45.94073" lon="4.72281">
        <ele>171</ele>
        <time>2018-06-09T09:03:09Z</time>
      </trkpt>
      <trkpt lat="45.94079" lon="4.72275">
        <ele>171</ele>
        <time>2018-06-09T09:03:10Z</time>
      </trkpt>
      <trkpt lat="45.94086" lon="4.7227">
        <ele>171</ele>
        <time>2018-06-09T09:03:11Z</time>
      </trkpt>
      <trkpt lat="45.94093" lon="4.72269">
        <ele>171</ele>
        <time>2018-06-09T09:03:12Z</time>
      </trkpt>
      <trkpt lat="45.94097" lon="4.72269">
        <ele>171</ele>
        <time>2018-06-09T09:03:13Z</time>
      </trkpt>
      <trkpt lat="45.94103" lon="4.7227">
        <ele>171</ele>
        <time>2018-06-09T09:03:14Z</time>
      </trkpt>
      <trkpt lat="45.94107" lon="4.72271">
        <ele>171</ele>
        <time>2018-06-09T09:03:15Z</time>
      </trkpt>
      <trkpt lat="45.94113" lon="4.72275">
        <ele>171</ele>
        <time>2018-06-09T09:03:16Z</time>
      </trkpt>
      <trkpt lat="45.9412" lon="4.72275">
        <ele>171</ele>
        <time>2018-06-09T09:03:17Z</time>
      </trkpt>
      <trkpt lat="45.94125" lon="4.72279">
        <ele>171</ele>
        <time>2018-06-09T09:03:18Z</time>
      </trkpt>
      <trkpt lat="45.94129" lon="4.72282">
        <ele>171</ele>
        <time>2018-06-09T09:03:19Z</time>
      </trkpt>
      <trkpt lat="45.94135" lon="4.72285">
        <ele>171</ele>
        <time>2018-06-09T09:03:20Z</time>
      </trkpt>
      <trkpt lat="45.9414" lon="4.72288">
        <ele>171</ele>
        <time>2018-06-09T09:03:21Z</time>
      </trkpt>
      <trkpt lat="45.94146" lon="4.7229">
        <ele>171</ele>
        <time>2018-06-09T09:03:22Z</time>
      </trkpt>
      <trkpt lat="45.94153" lon="4.72291">
        <ele>171</ele>
        <time>2018-06-09T09:03:23Z</time>
      </trkpt>
      <trkpt lat="45.94158" lon="4.72293">
        <ele>171</ele>
        <time>2018-06-09T09:03:24Z</time>
      </trkpt>
      <trkpt lat="45.94164" lon="4.72294">
        <ele>171</ele>
        <time>2018-06-09T09:03:25Z</time>
      </trkpt>
      <trkpt lat="45.9417" lon="4.72295">
        <ele>171</ele>
        <time>2018-06-09T09:03:26Z</time>
      </trkpt>
      <trkpt lat="45.94176" lon="4.72296">
        <ele>171</ele>
        <time>2018-06-09T09:03:27Z</time>
      </trkpt>
      <trkpt lat="45.94181" lon="4.72296">
        <ele>171</ele>
        <time>2018-06-09T09:03:28Z</time>
      </trkpt>
      <trkpt lat="45.94186" lon="4.72296">
        <ele>171</ele>
        <time>2018-06-09T09:03:29Z</time>
      </trkpt>
      <trkpt lat="45.94192" lon="4.72295">
        <ele>171</ele>
        <time>2018-06-09T09:03:30Z</time>
      </trkpt>
      <trkpt lat="45.94197" lon="4.72296">
        <ele>171</ele>
        <time>2018-06-09T09:03:31Z</time>
      </trkpt>
      <trkpt lat="45.94203" lon="4.72295">
        <ele>171</ele>
        <time>2018-06-09T09:03:32Z</time>
      </trkpt>
      <trkpt lat="45.94209" lon="4.72294">
        <ele>171</ele>
        <time>2018-06-09T09:03:33Z</time>
      </trkpt>
      <trkpt lat="45.94215" lon="4.72294">
        <ele>171</ele>
        <time>2018-06-09T09:03:34Z</time>
      </trkpt>
      <trkpt lat="45.9422" lon="4.72294">
        <ele>171</ele>
        <time>2018-06-09T09:03:35Z</time>
      </trkpt>
      <trkpt lat="45.94226" lon="4.72294">
        <ele>171</ele>
        <time>2018-06-09T09:03:36Z</time>
      </trkpt>
      <trkpt lat="45.94232" lon="4.72293">
        <ele>171</ele>
        <time>2018-06-09T09:03:37Z</time>
      </trkpt>
      <trkpt lat="45.94237" lon="4.72291">
        <ele>171</ele>
        <time>2018-06-09T09:03:38Z</time>
      </trkpt>
      <trkpt lat="45.94241" lon="4.7229">
        <ele>171</ele>
        <time>2018-06-09T09:03:39Z</time>
      </trkpt>
      <trkpt lat="45.94246" lon="4.72286">
        <ele>171</ele>
        <time>2018-06-09T09:03:40Z</time>
      </trkpt>
      <trkpt lat="45.94249" lon="4.72284">
        <ele>171</ele>
        <time>2018-06-09T09:03:41Z</time>
      </trkpt>
      <trkpt lat="45.94257" lon="4.72282">
        <ele>171</ele>
        <time>2018-06-09T09:03:43Z</time>
      </trkpt>
      <trkpt lat="45.94263" lon="4.72279">
        <ele>171</ele>
        <time>2018-06-09T09:03:44Z</time>
      </trkpt>
      <trkpt lat="45.94267" lon="4.72277">
        <ele>171</ele>
        <time>2018-06-09T09:03:45Z</time>
      </trkpt>
      <trkpt lat="45.94272" lon="4.72278">
        <ele>171</ele>
        <time>2018-06-09T09:03:46Z</time>
      </trkpt>
      <trkpt lat="45.94278" lon="4.72286">
        <ele>171</ele>
        <time>2018-06-09T09:03:48Z</time>
      </trkpt>
      <trkpt lat="45.94281" lon="4.72291">
        <ele>171</ele>
        <time>2018-06-09T09:03:49Z</time>
      </trkpt>
      <trkpt lat="45.94283" lon="4.72297">
        <ele>171</ele>
        <time>2018-06-09T09:03:50Z</time>
      </trkpt>
      <trkpt lat="45.94286" lon="4.72302">
        <ele>171</ele>
        <time>2018-06-09T09:03:51Z</time>
      </trkpt>
      <trkpt lat="45.9429" lon="4.72309">
        <ele>171</ele>
        <time>2018-06-09T09:03:52Z</time>
      </trkpt>
      <trkpt lat="45.94293" lon="4.72314">
        <ele>171</ele>
        <time>2018-06-09T09:03:53Z</time>
      </trkpt>
      <trkpt lat="45.94296" lon="4.72322">
        <ele>171</ele>
        <time>2018-06-09T09:03:54Z</time>
      </trkpt>
      <trkpt lat="45.94299" lon="4.72331">
        <ele>171</ele>
        <time>2018-06-09T09:03:55Z</time>
      </trkpt>
      <trkpt lat="45.94303" lon="4.72337">
        <ele>172</ele>
        <time>2018-06-09T09:03:56Z</time>
      </trkpt>
      <trkpt lat="45.94305" lon="4.72344">
        <ele>172</ele>
        <time>2018-06-09T09:03:57Z</time>
      </trkpt>
      <trkpt lat="45.94309" lon="4.7235">
        <ele>172</ele>
        <time>2018-06-09T09:03:58Z</time>
      </trkpt>
      <trkpt lat="45.94312" lon="4.72358">
        <ele>172</ele>
        <time>2018-06-09T09:03:59Z</time>
      </trkpt>
      <trkpt lat="45.94316" lon="4.72364">
        <ele>172</ele>
        <time>2018-06-09T09:04:00Z</time>
      </trkpt>
      <trkpt lat="45.9432" lon="4.72372">
        <ele>172</ele>
        <time>2018-06-09T09:04:01Z</time>
      </trkpt>
      <trkpt lat="45.94323" lon="4.7238">
        <ele>172</ele>
        <time>2018-06-09T09:04:02Z</time>
      </trkpt>
      <trkpt lat="45.94327" lon="4.72388">
        <ele>172</ele>
        <time>2018-06-09T09:04:03Z</time>
      </trkpt>
      <trkpt lat="45.94331" lon="4.72396">
        <ele>172</ele>
        <time>2018-06-09T09:04:04Z</time>
      </trkpt>
      <trkpt lat="45.94335" lon="4.72404">
        <ele>173</ele>
        <time>2018-06-09T09:04:05Z</time>
      </trkpt>
      <trkpt lat="45.94341" lon="4.72412">
        <ele>173</ele>
        <time>2018-06-09T09:04:06Z</time>
      </trkpt>
      <trkpt lat="45.94342" lon="4.7242">
        <ele>173</ele>
        <time>2018-06-09T09:04:07Z</time>
      </trkpt>
      <trkpt lat="45.94346" lon="4.72425">
        <ele>173</ele>
        <time>2018-06-09T09:04:08Z</time>
      </trkpt>
      <trkpt lat="45.94349" lon="4.72432">
        <ele>173</ele>
        <time>2018-06-09T09:04:09Z</time>
      </trkpt>
      <trkpt lat="45.94351" lon="4.72438">
        <ele>173</ele>
        <time>2018-06-09T09:04:10Z</time>
      </trkpt>
      <trkpt lat="45.94354" lon="4.72446">
        <ele>173</ele>
        <time>2018-06-09T09:04:11Z</time>
      </trkpt>
      <trkpt lat="45.94357" lon="4.72453">
        <ele>173</ele>
        <time>2018-06-09T09:04:12Z</time>
      </trkpt>
      <trkpt lat="45.94361" lon="4.7246">
        <ele>173</ele>
        <time>2018-06-09T09:04:13Z</time>
      </trkpt>
      <trkpt lat="45.94363" lon="4.72466">
        <ele>173</ele>
        <time>2018-06-09T09:04:14Z</time>
      </trkpt>
      <trkpt lat="45.94367" lon="4.72476">
        <ele>173</ele>
        <time>2018-06-09T09:04:15Z</time>
      </trkpt>
      <trkpt lat="45.9437" lon="4.72481">
        <ele>173</ele>
        <time>2018-06-09T09:04:16Z</time>
      </trkpt>
      <trkpt lat="45.94373" lon="4.72489">
        <ele>173</ele>
        <time>2018-06-09T09:04:17Z</time>
      </trkpt>
      <trkpt lat="45.94376" lon="4.72497">
        <ele>173</ele>
        <time>2018-06-09T09:04:18Z</time>
      </trkpt>
      <trkpt lat="45.94379" lon="4.72506">
        <ele>174</ele>
        <time>2018-06-09T09:04:19Z</time>
      </trkpt>
      <trkpt lat="45.9438" lon="4.72514">
        <ele>174</ele>
        <time>2018-06-09T09:04:20Z</time>
      </trkpt>
      <trkpt lat="45.94383" lon="4.72526">
        <ele>174</ele>
        <time>2018-06-09T09:04:21Z</time>
      </trkpt>
      <trkpt lat="45.94386" lon="4.72535">
        <ele>174</ele>
        <time>2018-06-09T09:04:22Z</time>
      </trkpt>
      <trkpt lat="45.9439" lon="4.72546">
        <ele>173</ele>
        <time>2018-06-09T09:04:23Z</time>
      </trkpt>
      <trkpt lat="45.94392" lon="4.72556">
        <ele>173</ele>
        <time>2018-06-09T09:04:24Z</time>
      </trkpt>
      <trkpt lat="45.94395" lon="4.72564">
        <ele>173</ele>
        <time>2018-06-09T09:04:25Z</time>
      </trkpt>
      <trkpt lat="45.94395" lon="4.72574">
        <ele>173</ele>
        <time>2018-06-09T09:04:26Z</time>
      </trkpt>
      <trkpt lat="45.94396" lon="4.72584">
        <ele>173</ele>
        <time>2018-06-09T09:04:27Z</time>
      </trkpt>
      <trkpt lat="45.94398" lon="4.72593">
        <ele>173</ele>
        <time>2018-06-09T09:04:28Z</time>
      </trkpt>
      <trkpt lat="45.944" lon="4.72602">
        <ele>173</ele>
        <time>2018-06-09T09:04:29Z</time>
      </trkpt>
      <trkpt lat="45.94401" lon="4.72611">
        <ele>173</ele>
        <time>2018-06-09T09:04:30Z</time>
      </trkpt>
      <trkpt lat="45.94404" lon="4.72621">
        <ele>173</ele>
        <time>2018-06-09T09:04:31Z</time>
      </trkpt>
      <trkpt lat="45.94406" lon="4.72632">
        <ele>174</ele>
        <time>2018-06-09T09:04:32Z</time>
      </trkpt>
      <trkpt lat="45.94406" lon="4.72641">
        <ele>174</ele>
        <time>2018-06-09T09:04:33Z</time>
      </trkpt>
      <trkpt lat="45.94407" lon="4.72651">
        <ele>174</ele>
        <time>2018-06-09T09:04:34Z</time>
      </trkpt>
      <trkpt lat="45.94408" lon="4.7266">
        <ele>174</ele>
        <time>2018-06-09T09:04:35Z</time>
      </trkpt>
      <trkpt lat="45.94408" lon="4.72669">
        <ele>173</ele>
        <time>2018-06-09T09:04:36Z</time>
      </trkpt>
      <trkpt lat="45.94409" lon="4.72678">
        <ele>173</ele>
        <time>2018-06-09T09:04:37Z</time>
      </trkpt>
      <trkpt lat="45.9441" lon="4.72686">
        <ele>173</ele>
        <time>2018-06-09T09:04:38Z</time>
      </trkpt>
      <trkpt lat="45.94412" lon="4.72694">
        <ele>173</ele>
        <time>2018-06-09T09:04:39Z</time>
      </trkpt>
      <trkpt lat="45.94412" lon="4.72702">
        <ele>172</ele>
        <time>2018-06-09T09:04:40Z</time>
      </trkpt>
      <trkpt lat="45.94413" lon="4.7271">
        <ele>172</ele>
        <time>2018-06-09T09:04:41Z</time>
      </trkpt>
      <trkpt lat="45.94414" lon="4.72718">
        <ele>172</ele>
        <time>2018-06-09T09:04:42Z</time>
      </trkpt>
      <trkpt lat="45.94415" lon="4.72725">
        <ele>172</ele>
        <time>2018-06-09T09:04:43Z</time>
      </trkpt>
      <trkpt lat="45.94416" lon="4.7273">
        <ele>172</ele>
        <time>2018-06-09T09:04:44Z</time>
      </trkpt>
      <trkpt lat="45.94419" lon="4.72737">
        <ele>171</ele>
        <time>2018-06-09T09:04:45Z</time>
      </trkpt>
      <trkpt lat="45.9442" lon="4.72744">
        <ele>171</ele>
        <time>2018-06-09T09:04:46Z</time>
      </trkpt>
      <trkpt lat="45.94421" lon="4.72753">
        <ele>170</ele>
        <time>2018-06-09T09:04:47Z</time>
      </trkpt>
      <trkpt lat="45.94422" lon="4.7276">
        <ele>170</ele>
        <time>2018-06-09T09:04:48Z</time>
      </trkpt>
      <trkpt lat="45.94423" lon="4.72769">
        <ele>169</ele>
        <time>2018-06-09T09:04:49Z</time>
      </trkpt>
      <trkpt lat="45.94425" lon="4.72777">
        <ele>168</ele>
        <time>2018-06-09T09:04:50Z</time>
      </trkpt>
      <trkpt lat="45.94425" lon="4.72785">
        <ele>168</ele>
        <time>2018-06-09T09:04:51Z</time>
      </trkpt>
      <trkpt lat="45.94426" lon="4.72793">
        <ele>168</ele>
        <time>2018-06-09T09:04:52Z</time>
      </trkpt>
      <trkpt lat="45.94427" lon="4.728">
        <ele>167</ele>
        <time>2018-06-09T09:04:53Z</time>
      </trkpt>
      <trkpt lat="45.94428" lon="4.72813">
        <ele>167</ele>
        <time>2018-06-09T09:04:55Z</time>
      </trkpt>
      <trkpt lat="45.94429" lon="4.72819">
        <ele>167</ele>
        <time>2018-06-09T09:04:56Z</time>
      </trkpt>
      <trkpt lat="45.9443" lon="4.72832">
        <ele>167</ele>
        <time>2018-06-09T09:04:58Z</time>
      </trkpt>
      <trkpt lat="45.94431" lon="4.72838">
        <ele>166</ele>
        <time>2018-06-09T09:04:59Z</time>
      </trkpt>
      <trkpt lat="45.94432" lon="4.72845">
        <ele>166</ele>
        <time>2018-06-09T09:05:00Z</time>
      </trkpt>
      <trkpt lat="45.94433" lon="4.72851">
        <ele>166</ele>
        <time>2018-06-09T09:05:01Z</time>
      </trkpt>
      <trkpt lat="45.94435" lon="4.72862">
        <ele>166</ele>
        <time>2018-06-09T09:05:03Z</time>
      </trkpt>
      <trkpt lat="45.94435" lon="4.72868">
        <ele>166</ele>
        <time>2018-06-09T09:05:04Z</time>
      </trkpt>
      <trkpt lat="45.94436" lon="4.72879">
        <ele>166</ele>
        <time>2018-06-09T09:05:06Z</time>
      </trkpt>
      <trkpt lat="45.94437" lon="4.72885">
        <ele>166</ele>
        <time>2018-06-09T09:05:07Z</time>
      </trkpt>
      <trkpt lat="45.94439" lon="4.72896">
        <ele>166</ele>
        <time>2018-06-09T09:05:09Z</time>
      </trkpt>
      <trkpt lat="45.9444" lon="4.72902">
        <ele>166</ele>
        <time>2018-06-09T09:05:10Z</time>
      </trkpt>
      <trkpt lat="45.9444" lon="4.72909">
        <ele>166</ele>
        <time>2018-06-09T09:05:11Z</time>
      </trkpt>
      <trkpt lat="45.94441" lon="4.72915">
        <ele>166</ele>
        <time>2018-06-09T09:05:12Z</time>
      </trkpt>
      <trkpt lat="45.94442" lon="4.72922">
        <ele>167</ele>
        <time>2018-06-09T09:05:13Z</time>
      </trkpt>
      <trkpt lat="45.94442" lon="4.72929">
        <ele>167</ele>
        <time>2018-06-09T09:05:14Z</time>
      </trkpt>
      <trkpt lat="45.94442" lon="4.72936">
        <ele>167</ele>
        <time>2018-06-09T09:05:15Z</time>
      </trkpt>
      <trkpt lat="45.94443" lon="4.72943">
        <ele>167</ele>
        <time>2018-06-09T09:05:16Z</time>
      </trkpt>
      <trkpt lat="45.94444" lon="4.72951">
        <ele>167</ele>
        <time>2018-06-09T09:05:17Z</time>
      </trkpt>
      <trkpt lat="45.94445" lon="4.72958">
        <ele>167</ele>
        <time>2018-06-09T09:05:18Z</time>
      </trkpt>
      <trkpt lat="45.94446" lon="4.72967">
        <ele>167</ele>
        <time>2018-06-09T09:05:19Z</time>
      </trkpt>
      <trkpt lat="45.94447" lon="4.72975">
        <ele>167</ele>
        <time>2018-06-09T09:05:20Z</time>
      </trkpt>
      <trkpt lat="45.94448" lon="4.72984">
        <ele>167</ele>
        <time>2018-06-09T09:05:21Z</time>
      </trkpt>
      <trkpt lat="45.9445" lon="4.72993">
        <ele>167</ele>
        <time>2018-06-09T09:05:22Z</time>
      </trkpt>
      <trkpt lat="45.9445" lon="4.73003">
        <ele>169</ele>
        <time>2018-06-09T09:05:23Z</time>
      </trkpt>
      <trkpt lat="45.94453" lon="4.73014">
        <ele>169</ele>
        <time>2018-06-09T09:05:24Z</time>
      </trkpt>
      <trkpt lat="45.94455" lon="4.73023">
        <ele>169</ele>
        <time>2018-06-09T09:05:25Z</time>
      </trkpt>
      <trkpt lat="45.94456" lon="4.73033">
        <ele>169</ele>
        <time>2018-06-09T09:05:26Z</time>
      </trkpt>
      <trkpt lat="45.94457" lon="4.73043">
        <ele>169</ele>
        <time>2018-06-09T09:05:27Z</time>
      </trkpt>
      <trkpt lat="45.94458" lon="4.73053">
        <ele>170</ele>
        <time>2018-06-09T09:05:28Z</time>
      </trkpt>
      <trkpt lat="45.94459" lon="4.73063">
        <ele>170</ele>
        <time>2018-06-09T09:05:29Z</time>
      </trkpt>
      <trkpt lat="45.94461" lon="4.73074">
        <ele>170</ele>
        <time>2018-06-09T09:05:30Z</time>
      </trkpt>
      <trkpt lat="45.94463" lon="4.73086">
        <ele>171</ele>
        <time>2018-06-09T09:05:31Z</time>
      </trkpt>
      <trkpt lat="45.94464" lon="4.73097">
        <ele>171</ele>
        <time>2018-06-09T09:05:32Z</time>
      </trkpt>
      <trkpt lat="45.94466" lon="4.73107">
        <ele>172</ele>
        <time>2018-06-09T09:05:33Z</time>
      </trkpt>
      <trkpt lat="45.94465" lon="4.73114">
        <ele>172</ele>
        <time>2018-06-09T09:05:34Z</time>
      </trkpt>
      <trkpt lat="45.94466" lon="4.73124">
        <ele>172</ele>
        <time>2018-06-09T09:05:35Z</time>
      </trkpt>
      <trkpt lat="45.94467" lon="4.73132">
        <ele>172</ele>
        <time>2018-06-09T09:05:36Z</time>
      </trkpt>
      <trkpt lat="45.94467" lon="4.73138">
        <ele>172</ele>
        <time>2018-06-09T09:05:37Z</time>
      </trkpt>
      <trkpt lat="45.94469" lon="4.73149">
        <ele>172</ele>
        <time>2018-06-09T09:05:38Z</time>
      </trkpt>
      <trkpt lat="45.94471" lon="4.73155">
        <ele>172</ele>
        <time>2018-06-09T09:05:39Z</time>
      </trkpt>
      <trkpt lat="45.94473" lon="4.73162">
        <ele>173</ele>
        <time>2018-06-09T09:05:40Z</time>
      </trkpt>
      <trkpt lat="45.94474" lon="4.73172">
        <ele>174</ele>
        <time>2018-06-09T09:05:41Z</time>
      </trkpt>
      <trkpt lat="45.94475" lon="4.7318">
        <ele>174</ele>
        <time>2018-06-09T09:05:42Z</time>
      </trkpt>
      <trkpt lat="45.94478" lon="4.73188">
        <ele>174</ele>
        <time>2018-06-09T09:05:43Z</time>
      </trkpt>
      <trkpt lat="45.94479" lon="4.73195">
        <ele>174</ele>
        <time>2018-06-09T09:05:44Z</time>
      </trkpt>
      <trkpt lat="45.9448" lon="4.73202">
        <ele>175</ele>
        <time>2018-06-09T09:05:45Z</time>
      </trkpt>
      <trkpt lat="45.94481" lon="4.7321">
        <ele>175</ele>
        <time>2018-06-09T09:05:46Z</time>
      </trkpt>
      <trkpt lat="45.94483" lon="4.73218">
        <ele>175</ele>
        <time>2018-06-09T09:05:47Z</time>
      </trkpt>
      <trkpt lat="45.94483" lon="4.73226">
        <ele>175</ele>
        <time>2018-06-09T09:05:48Z</time>
      </trkpt>
      <trkpt lat="45.94484" lon="4.73238">
        <ele>175</ele>
        <time>2018-06-09T09:05:50Z</time>
      </trkpt>
      <trkpt lat="45.94487" lon="4.73243">
        <ele>175</ele>
        <time>2018-06-09T09:05:51Z</time>
      </trkpt>
      <trkpt lat="45.94487" lon="4.73251">
        <ele>176</ele>
        <time>2018-06-09T09:05:52Z</time>
      </trkpt>
      <trkpt lat="45.94488" lon="4.73259">
        <ele>176</ele>
        <time>2018-06-09T09:05:53Z</time>
      </trkpt>
      <trkpt lat="45.94488" lon="4.7327">
        <ele>177</ele>
        <time>2018-06-09T09:05:55Z</time>
      </trkpt>
      <trkpt lat="45.94488" lon="4.73276">
        <ele>177</ele>
        <time>2018-06-09T09:05:56Z</time>
      </trkpt>
      <trkpt lat="45.9449" lon="4.73284">
        <ele>177</ele>
        <time>2018-06-09T09:05:57Z</time>
      </trkpt>
      <trkpt lat="45.9449" lon="4.7329">
        <ele>177</ele>
        <time>2018-06-09T09:05:58Z</time>
      </trkpt>
      <trkpt lat="45.94492" lon="4.73297">
        <ele>177</ele>
        <time>2018-06-09T09:05:59Z</time>
      </trkpt>
      <trkpt lat="45.94492" lon="4.73304">
        <ele>177</ele>
        <time>2018-06-09T09:06:00Z</time>
      </trkpt>
      <trkpt lat="45.94494" lon="4.73315">
        <ele>177</ele>
        <time>2018-06-09T09:06:02Z</time>
      </trkpt>
      <trkpt lat="45.94495" lon="4.73321">
        <ele>177</ele>
        <time>2018-06-09T09:06:03Z</time>
      </trkpt>
      <trkpt lat="45.94495" lon="4.73332">
        <ele>177</ele>
        <time>2018-06-09T09:06:05Z</time>
      </trkpt>
      <trkpt lat="45.94497" lon="4.73339">
        <ele>178</ele>
        <time>2018-06-09T09:06:06Z</time>
      </trkpt>
      <trkpt lat="45.94498" lon="4.7335">
        <ele>178</ele>
        <time>2018-06-09T09:06:08Z</time>
      </trkpt>
      <trkpt lat="45.94498" lon="4.73355">
        <ele>178</ele>
        <time>2018-06-09T09:06:09Z</time>
      </trkpt>
      <trkpt lat="45.94499" lon="4.73363">
        <ele>179</ele>
        <time>2018-06-09T09:06:10Z</time>
      </trkpt>
      <trkpt lat="45.94499" lon="4.73369">
        <ele>179</ele>
        <time>2018-06-09T09:06:11Z</time>
      </trkpt>
      <trkpt lat="45.94501" lon="4.73381">
        <ele>179</ele>
        <time>2018-06-09T09:06:13Z</time>
      </trkpt>
      <trkpt lat="45.94501" lon="4.73387">
        <ele>179</ele>
        <time>2018-06-09T09:06:14Z</time>
      </trkpt>
      <trkpt lat="45.94501" lon="4.73399">
        <ele>179</ele>
        <time>2018-06-09T09:06:16Z</time>
      </trkpt>
      <trkpt lat="45.94501" lon="4.73406">
        <ele>179</ele>
        <time>2018-06-09T09:06:17Z</time>
      </trkpt>
      <trkpt lat="45.94502" lon="4.73418">
        <ele>180</ele>
        <time>2018-06-09T09:06:19Z</time>
      </trkpt>
      <trkpt lat="45.94502" lon="4.73424">
        <ele>180</ele>
        <time>2018-06-09T09:06:20Z</time>
      </trkpt>
      <trkpt lat="45.94502" lon="4.73437">
        <ele>181</ele>
        <time>2018-06-09T09:06:22Z</time>
      </trkpt>
      <trkpt lat="45.94503" lon="4.73443">
        <ele>181</ele>
        <time>2018-06-09T09:06:23Z</time>
      </trkpt>
      <trkpt lat="45.94503" lon="4.73455">
        <ele>181</ele>
        <time>2018-06-09T09:06:25Z</time>
      </trkpt>
      <trkpt lat="45.94503" lon="4.73462">
        <ele>181</ele>
        <time>2018-06-09T09:06:26Z</time>
      </trkpt>
      <trkpt lat="45.94502" lon="4.73474">
        <ele>182</ele>
        <time>2018-06-09T09:06:28Z</time>
      </trkpt>
      <trkpt lat="45.94502" lon="4.73479">
        <ele>182</ele>
        <time>2018-06-09T09:06:29Z</time>
      </trkpt>
      <trkpt lat="45.94502" lon="4.73491">
        <ele>182</ele>
        <time>2018-06-09T09:06:31Z</time>
      </trkpt>
      <trkpt lat="45.94504" lon="4.73499">
        <ele>183</ele>
        <time>2018-06-09T09:06:32Z</time>
      </trkpt>
      <trkpt lat="45.94502" lon="4.7351">
        <ele>183</ele>
        <time>2018-06-09T09:06:34Z</time>
      </trkpt>
      <trkpt lat="45.94501" lon="4.73515">
        <ele>183</ele>
        <time>2018-06-09T09:06:35Z</time>
      </trkpt>
      <trkpt lat="45.94502" lon="4.73522">
        <ele>183</ele>
        <time>2018-06-09T09:06:36Z</time>
      </trkpt>
      <trkpt lat="45.94503" lon="4.73528">
        <ele>183</ele>
        <time>2018-06-09T09:06:37Z</time>
      </trkpt>
      <trkpt lat="45.94503" lon="4.73534">
        <ele>183</ele>
        <time>2018-06-09T09:06:38Z</time>
      </trkpt>
      <trkpt lat="45.94504" lon="4.73542">
        <ele>183</ele>
        <time>2018-06-09T09:06:39Z</time>
      </trkpt>
      <trkpt lat="45.94502" lon="4.73552">
        <ele>183</ele>
        <time>2018-06-09T09:06:41Z</time>
      </trkpt>
      <trkpt lat="45.94503" lon="4.73559">
        <ele>184</ele>
        <time>2018-06-09T09:06:42Z</time>
      </trkpt>
      <trkpt lat="45.94503" lon="4.73565">
        <ele>184</ele>
        <time>2018-06-09T09:06:43Z</time>
      </trkpt>
      <trkpt lat="45.94505" lon="4.73573">
        <ele>184</ele>
        <time>2018-06-09T09:06:44Z</time>
      </trkpt>
      <trkpt lat="45.94504" lon="4.73578">
        <ele>184</ele>
        <time>2018-06-09T09:06:45Z</time>
      </trkpt>
      <trkpt lat="45.94503" lon="4.73587">
        <ele>185</ele>
        <time>2018-06-09T09:06:46Z</time>
      </trkpt>
      <trkpt lat="45.94503" lon="4.73594">
        <ele>184</ele>
        <time>2018-06-09T09:06:47Z</time>
      </trkpt>
      <trkpt lat="45.94502" lon="4.73602">
        <ele>184</ele>
        <time>2018-06-09T09:06:48Z</time>
      </trkpt>
      <trkpt lat="45.94503" lon="4.73609">
        <ele>184</ele>
        <time>2018-06-09T09:06:49Z</time>
      </trkpt>
      <trkpt lat="45.94502" lon="4.73615">
        <ele>184</ele>
        <time>2018-06-09T09:06:50Z</time>
      </trkpt>
      <trkpt lat="45.94501" lon="4.73622">
        <ele>184</ele>
        <time>2018-06-09T09:06:51Z</time>
      </trkpt>
      <trkpt lat="45.94501" lon="4.73631">
        <ele>184</ele>
        <time>2018-06-09T09:06:52Z</time>
      </trkpt>
      <trkpt lat="45.945" lon="4.73638">
        <ele>186</ele>
        <time>2018-06-09T09:06:53Z</time>
      </trkpt>
      <trkpt lat="45.94497" lon="4.73644">
        <ele>186</ele>
        <time>2018-06-09T09:06:54Z</time>
      </trkpt>
      <trkpt lat="45.94496" lon="4.7365">
        <ele>185</ele>
        <time>2018-06-09T09:06:55Z</time>
      </trkpt>
      <trkpt lat="45.94494" lon="4.73657">
        <ele>185</ele>
        <time>2018-06-09T09:06:56Z</time>
      </trkpt>
      <trkpt lat="45.94491" lon="4.73664">
        <ele>185</ele>
        <time>2018-06-09T09:06:57Z</time>
      </trkpt>
      <trkpt lat="45.9449" lon="4.73671">
        <ele>185</ele>
        <time>2018-06-09T09:06:58Z</time>
      </trkpt>
      <trkpt lat="45.94489" lon="4.73679">
        <ele>186</ele>
        <time>2018-06-09T09:06:59Z</time>
      </trkpt>
      <trkpt lat="45.94487" lon="4.73687">
        <ele>186</ele>
        <time>2018-06-09T09:07:00Z</time>
      </trkpt>
      <trkpt lat="45.94486" lon="4.73695">
        <ele>186</ele>
        <time>2018-06-09T09:07:01Z</time>
      </trkpt>
      <trkpt lat="45.94487" lon="4.73703">
        <ele>186</ele>
        <time>2018-06-09T09:07:02Z</time>
      </trkpt>
      <trkpt lat="45.94485" lon="4.7371">
        <ele>186</ele>
        <time>2018-06-09T09:07:03Z</time>
      </trkpt>
      <trkpt lat="45.94484" lon="4.73717">
        <ele>186</ele>
        <time>2018-06-09T09:07:04Z</time>
      </trkpt>
      <trkpt lat="45.94482" lon="4.73724">
        <ele>186</ele>
        <time>2018-06-09T09:07:05Z</time>
      </trkpt>
      <trkpt lat="45.94482" lon="4.73732">
        <ele>186</ele>
        <time>2018-06-09T09:07:06Z</time>
      </trkpt>
      <trkpt lat="45.9448" lon="4.7374">
        <ele>186</ele>
        <time>2018-06-09T09:07:07Z</time>
      </trkpt>
      <trkpt lat="45.9448" lon="4.73747">
        <ele>186</ele>
        <time>2018-06-09T09:07:08Z</time>
      </trkpt>
      <trkpt lat="45.94478" lon="4.73759">
        <ele>186</ele>
        <time>2018-06-09T09:07:10Z</time>
      </trkpt>
      <trkpt lat="45.94479" lon="4.73766">
        <ele>186</ele>
        <time>2018-06-09T09:07:11Z</time>
      </trkpt>
      <trkpt lat="45.94481" lon="4.73773">
        <ele>186</ele>
        <time>2018-06-09T09:07:12Z</time>
      </trkpt>
      <trkpt lat="45.94484" lon="4.73777">
        <ele>186</ele>
        <time>2018-06-09T09:07:13Z</time>
      </trkpt>
      <trkpt lat="45.94489" lon="4.7378">
        <ele>186</ele>
        <time>2018-06-09T09:07:14Z</time>
      </trkpt>
      <trkpt lat="45.94493" lon="4.73784">
        <ele>186</ele>
        <time>2018-06-09T09:07:15Z</time>
      </trkpt>
      <trkpt lat="45.94497" lon="4.73788">
        <ele>186</ele>
        <time>2018-06-09T09:07:16Z</time>
      </trkpt>
      <trkpt lat="45.94501" lon="4.73791">
        <ele>186</ele>
        <time>2018-06-09T09:07:17Z</time>
      </trkpt>
      <trkpt lat="45.94508" lon="4.73798">
        <ele>186</ele>
        <time>2018-06-09T09:07:19Z</time>
      </trkpt>
      <trkpt lat="45.94513" lon="4.73801">
        <ele>186</ele>
        <time>2018-06-09T09:07:20Z</time>
      </trkpt>
      <trkpt lat="45.94517" lon="4.73805">
        <ele>186</ele>
        <time>2018-06-09T09:07:21Z</time>
      </trkpt>
      <trkpt lat="45.9452" lon="4.73809">
        <ele>186</ele>
        <time>2018-06-09T09:07:22Z</time>
      </trkpt>
      <trkpt lat="45.94524" lon="4.73813">
        <ele>186</ele>
        <time>2018-06-09T09:07:23Z</time>
      </trkpt>
      <trkpt lat="45.94528" lon="4.73816">
        <ele>186</ele>
        <time>2018-06-09T09:07:24Z</time>
      </trkpt>
      <trkpt lat="45.94532" lon="4.7382">
        <ele>186</ele>
        <time>2018-06-09T09:07:25Z</time>
      </trkpt>
      <trkpt lat="45.94536" lon="4.73824">
        <ele>186</ele>
        <time>2018-06-09T09:07:26Z</time>
      </trkpt>
      <trkpt lat="45.9454" lon="4.73827">
        <ele>186</ele>
        <time>2018-06-09T09:07:27Z</time>
      </trkpt>
      <trkpt lat="45.94544" lon="4.73832">
        <ele>186</ele>
        <time>2018-06-09T09:07:28Z</time>
      </trkpt>
      <trkpt lat="45.94548" lon="4.73834">
        <ele>186</ele>
        <time>2018-06-09T09:07:29Z</time>
      </trkpt>
      <trkpt lat="45.94552" lon="4.73838">
        <ele>186</ele>
        <time>2018-06-09T09:07:30Z</time>
      </trkpt>
      <trkpt lat="45.94557" lon="4.73843">
        <ele>186</ele>
        <time>2018-06-09T09:07:31Z</time>
      </trkpt>
      <trkpt lat="45.94561" lon="4.73847">
        <ele>186</ele>
        <time>2018-06-09T09:07:32Z</time>
      </trkpt>
      <trkpt lat="45.94564" lon="4.73852">
        <ele>186</ele>
        <time>2018-06-09T09:07:33Z</time>
      </trkpt>
      <trkpt lat="45.94568" lon="4.73857">
        <ele>186</ele>
        <time>2018-06-09T09:07:34Z</time>
      </trkpt>
      <trkpt lat="45.94573" lon="4.73861">
        <ele>186</ele>
        <time>2018-06-09T09:07:35Z</time>
      </trkpt>
      <trkpt lat="45.94577" lon="4.73866">
        <ele>186</ele>
        <time>2018-06-09T09:07:36Z</time>
      </trkpt>
      <trkpt lat="45.94581" lon="4.7387">
        <ele>186</ele>
        <time>2018-06-09T09:07:37Z</time>
      </trkpt>
      <trkpt lat="45.94585" lon="4.73874">
        <ele>187</ele>
        <time>2018-06-09T09:07:38Z</time>
      </trkpt>
      <trkpt lat="45.94591" lon="4.73883">
        <ele>187</ele>
        <time>2018-06-09T09:07:40Z</time>
      </trkpt>
      <trkpt lat="45.94594" lon="4.73887">
        <ele>187</ele>
        <time>2018-06-09T09:07:41Z</time>
      </trkpt>
      <trkpt lat="45.94597" lon="4.73892">
        <ele>187</ele>
        <time>2018-06-09T09:07:42Z</time>
      </trkpt>
      <trkpt lat="45.94601" lon="4.73897">
        <ele>187</ele>
        <time>2018-06-09T09:07:43Z</time>
      </trkpt>
      <trkpt lat="45.94603" lon="4.73899">
        <ele>187</ele>
        <time>2018-06-09T09:07:44Z</time>
      </trkpt>
      <trkpt lat="45.9461" lon="4.73905">
        <ele>187</ele>
        <time>2018-06-09T09:07:45Z</time>
      </trkpt>
      <trkpt lat="45.94613" lon="4.73911">
        <ele>187</ele>
        <time>2018-06-09T09:07:46Z</time>
      </trkpt>
      <trkpt lat="45.94617" lon="4.73914">
        <ele>187</ele>
        <time>2018-06-09T09:07:47Z</time>
      </trkpt>
      <trkpt lat="45.94622" lon="4.73923">
        <ele>187</ele>
        <time>2018-06-09T09:07:49Z</time>
      </trkpt>
      <trkpt lat="45.94626" lon="4.73927">
        <ele>187</ele>
        <time>2018-06-09T09:07:50Z</time>
      </trkpt>
      <trkpt lat="45.94633" lon="4.73936">
        <ele>187</ele>
        <time>2018-06-09T09:07:52Z</time>
      </trkpt>
      <trkpt lat="45.94637" lon="4.7394">
        <ele>187</ele>
        <time>2018-06-09T09:07:53Z</time>
      </trkpt>
      <trkpt lat="45.94643" lon="4.73948">
        <ele>187</ele>
        <time>2018-06-09T09:07:55Z</time>
      </trkpt>
      <trkpt lat="45.94647" lon="4.73953">
        <ele>187</ele>
        <time>2018-06-09T09:07:56Z</time>
      </trkpt>
      <trkpt lat="45.94651" lon="4.73957">
        <ele>187</ele>
        <time>2018-06-09T09:07:57Z</time>
      </trkpt>
      <trkpt lat="45.94655" lon="4.73961">
        <ele>187</ele>
        <time>2018-06-09T09:07:58Z</time>
      </trkpt>
      <trkpt lat="45.94658" lon="4.73966">
        <ele>187</ele>
        <time>2018-06-09T09:07:59Z</time>
      </trkpt>
      <trkpt lat="45.94662" lon="4.73971">
        <ele>187</ele>
        <time>2018-06-09T09:08:00Z</time>
      </trkpt>
      <trkpt lat="45.94666" lon="4.73975">
        <ele>187</ele>
        <time>2018-06-09T09:08:01Z</time>
      </trkpt>
      <trkpt lat="45.94668" lon="4.7398">
        <ele>187</ele>
        <time>2018-06-09T09:08:02Z</time>
      </trkpt>
      <trkpt lat="45.94672" lon="4.73984">
        <ele>187</ele>
        <time>2018-06-09T09:08:03Z</time>
      </trkpt>
      <trkpt lat="45.94675" lon="4.73989">
        <ele>187</ele>
        <time>2018-06-09T09:08:04Z</time>
      </trkpt>
      <trkpt lat="45.94678" lon="4.73994">
        <ele>187</ele>
        <time>2018-06-09T09:08:05Z</time>
      </trkpt>
      <trkpt lat="45.94682" lon="4.73998">
        <ele>187</ele>
        <time>2018-06-09T09:08:06Z</time>
      </trkpt>
      <trkpt lat="45.94686" lon="4.74003">
        <ele>187</ele>
        <time>2018-06-09T09:08:07Z</time>
      </trkpt>
      <trkpt lat="45.9469" lon="4.74008">
        <ele>187</ele>
        <time>2018-06-09T09:08:08Z</time>
      </trkpt>
      <trkpt lat="45.94696" lon="4.74016">
        <ele>187</ele>
        <time>2018-06-09T09:08:10Z</time>
      </trkpt>
      <trkpt lat="45.947" lon="4.7402">
        <ele>187</ele>
        <time>2018-06-09T09:08:11Z</time>
      </trkpt>
      <trkpt lat="45.94704" lon="4.74024">
        <ele>187</ele>
        <time>2018-06-09T09:08:12Z</time>
      </trkpt>
      <trkpt lat="45.94707" lon="4.74029">
        <ele>187</ele>
        <time>2018-06-09T09:08:13Z</time>
      </trkpt>
      <trkpt lat="45.9471" lon="4.74033">
        <ele>187</ele>
        <time>2018-06-09T09:08:14Z</time>
      </trkpt>
      <trkpt lat="45.94713" lon="4.74039">
        <ele>187</ele>
        <time>2018-06-09T09:08:15Z</time>
      </trkpt>
      <trkpt lat="45.94717" lon="4.74043">
        <ele>187</ele>
        <time>2018-06-09T09:08:16Z</time>
      </trkpt>
      <trkpt lat="45.9472" lon="4.74048">
        <ele>187</ele>
        <time>2018-06-09T09:08:17Z</time>
      </trkpt>
      <trkpt lat="45.94724" lon="4.74053">
        <ele>188</ele>
        <time>2018-06-09T09:08:18Z</time>
      </trkpt>
      <trkpt lat="45.94728" lon="4.74058">
        <ele>188</ele>
        <time>2018-06-09T09:08:19Z</time>
      </trkpt>
      <trkpt lat="45.9473" lon="4.74062">
        <ele>188</ele>
        <time>2018-06-09T09:08:20Z</time>
      </trkpt>
      <trkpt lat="45.94734" lon="4.74067">
        <ele>188</ele>
        <time>2018-06-09T09:08:21Z</time>
      </trkpt>
      <trkpt lat="45.94737" lon="4.74072">
        <ele>188</ele>
        <time>2018-06-09T09:08:22Z</time>
      </trkpt>
      <trkpt lat="45.94741" lon="4.74078">
        <ele>188</ele>
        <time>2018-06-09T09:08:23Z</time>
      </trkpt>
      <trkpt lat="45.94744" lon="4.74082">
        <ele>189</ele>
        <time>2018-06-09T09:08:24Z</time>
      </trkpt>
      <trkpt lat="45.94749" lon="4.74087">
        <ele>189</ele>
        <time>2018-06-09T09:08:25Z</time>
      </trkpt>
      <trkpt lat="45.94753" lon="4.74093">
        <ele>189</ele>
        <time>2018-06-09T09:08:26Z</time>
      </trkpt>
      <trkpt lat="45.94756" lon="4.74098">
        <ele>189</ele>
        <time>2018-06-09T09:08:27Z</time>
      </trkpt>
      <trkpt lat="45.9476" lon="4.74103">
        <ele>189</ele>
        <time>2018-06-09T09:08:28Z</time>
      </trkpt>
      <trkpt lat="45.94764" lon="4.74108">
        <ele>189</ele>
        <time>2018-06-09T09:08:29Z</time>
      </trkpt>
      <trkpt lat="45.9477" lon="4.74116">
        <ele>189</ele>
        <time>2018-06-09T09:08:31Z</time>
      </trkpt>
      <trkpt lat="45.94773" lon="4.7412">
        <ele>189</ele>
        <time>2018-06-09T09:08:32Z</time>
      </trkpt>
      <trkpt lat="45.9478" lon="4.74128">
        <ele>189</ele>
        <time>2018-06-09T09:08:34Z</time>
      </trkpt>
      <trkpt lat="45.94783" lon="4.74133">
        <ele>189</ele>
        <time>2018-06-09T09:08:35Z</time>
      </trkpt>
      <trkpt lat="45.94789" lon="4.74142">
        <ele>189</ele>
        <time>2018-06-09T09:08:37Z</time>
      </trkpt>
      <trkpt lat="45.94792" lon="4.74148">
        <ele>189</ele>
        <time>2018-06-09T09:08:38Z</time>
      </trkpt>
      <trkpt lat="45.94795" lon="4.74154">
        <ele>189</ele>
        <time>2018-06-09T09:08:39Z</time>
      </trkpt>
      <trkpt lat="45.94797" lon="4.74159">
        <ele>189</ele>
        <time>2018-06-09T09:08:40Z</time>
      </trkpt>
      <trkpt lat="45.94801" lon="4.74164">
        <ele>189</ele>
        <time>2018-06-09T09:08:41Z</time>
      </trkpt>
      <trkpt lat="45.94803" lon="4.74168">
        <ele>189</ele>
        <time>2018-06-09T09:08:42Z</time>
      </trkpt>
      <trkpt lat="45.94806" lon="4.74175">
        <ele>189</ele>
        <time>2018-06-09T09:08:43Z</time>
      </trkpt>
      <trkpt lat="45.94809" lon="4.7418">
        <ele>189</ele>
        <time>2018-06-09T09:08:44Z</time>
      </trkpt>
      <trkpt lat="45.94814" lon="4.74186">
        <ele>189</ele>
        <time>2018-06-09T09:08:45Z</time>
      </trkpt>
      <trkpt lat="45.94817" lon="4.74193">
        <ele>189</ele>
        <time>2018-06-09T09:08:46Z</time>
      </trkpt>
      <trkpt lat="45.94819" lon="4.74199">
        <ele>189</ele>
        <time>2018-06-09T09:08:47Z</time>
      </trkpt>
      <trkpt lat="45.94823" lon="4.74206">
        <ele>189</ele>
        <time>2018-06-09T09:08:48Z</time>
      </trkpt>
      <trkpt lat="45.94826" lon="4.74214">
        <ele>188</ele>
        <time>2018-06-09T09:08:49Z</time>
      </trkpt>
      <trkpt lat="45.94829" lon="4.7422">
        <ele>188</ele>
        <time>2018-06-09T09:08:50Z</time>
      </trkpt>
      <trkpt lat="45.94831" lon="4.74227">
        <ele>189</ele>
        <time>2018-06-09T09:08:51Z</time>
      </trkpt>
      <trkpt lat="45.94834" lon="4.74234">
        <ele>190</ele>
        <time>2018-06-09T09:08:52Z</time>
      </trkpt>
      <trkpt lat="45.94837" lon="4.7424">
        <ele>189</ele>
        <time>2018-06-09T09:08:53Z</time>
      </trkpt>
      <trkpt lat="45.94841" lon="4.74246">
        <ele>189</ele>
        <time>2018-06-09T09:08:54Z</time>
      </trkpt>
      <trkpt lat="45.94844" lon="4.74253">
        <ele>190</ele>
        <time>2018-06-09T09:08:55Z</time>
      </trkpt>
      <trkpt lat="45.94848" lon="4.74259">
        <ele>190</ele>
        <time>2018-06-09T09:08:56Z</time>
      </trkpt>
      <trkpt lat="45.94852" lon="4.74265">
        <ele>190</ele>
        <time>2018-06-09T09:08:57Z</time>
      </trkpt>
      <trkpt lat="45.94857" lon="4.74271">
        <ele>190</ele>
        <time>2018-06-09T09:08:58Z</time>
      </trkpt>
      <trkpt lat="45.94861" lon="4.74278">
        <ele>190</ele>
        <time>2018-06-09T09:08:59Z</time>
      </trkpt>
      <trkpt lat="45.94865" lon="4.74285">
        <ele>191</ele>
        <time>2018-06-09T09:09:00Z</time>
      </trkpt>
      <trkpt lat="45.94867" lon="4.74292">
        <ele>191</ele>
        <time>2018-06-09T09:09:01Z</time>
      </trkpt>
      <trkpt lat="45.9487" lon="4.74298">
        <ele>191</ele>
        <time>2018-06-09T09:09:02Z</time>
      </trkpt>
      <trkpt lat="45.94873" lon="4.74304">
        <ele>191</ele>
        <time>2018-06-09T09:09:03Z</time>
      </trkpt>
      <trkpt lat="45.94876" lon="4.7431">
        <ele>191</ele>
        <time>2018-06-09T09:09:04Z</time>
      </trkpt>
      <trkpt lat="45.94879" lon="4.74316">
        <ele>191</ele>
        <time>2018-06-09T09:09:05Z</time>
      </trkpt>
      <trkpt lat="45.94883" lon="4.74323">
        <ele>191</ele>
        <time>2018-06-09T09:09:06Z</time>
      </trkpt>
      <trkpt lat="45.94886" lon="4.74329">
        <ele>191</ele>
        <time>2018-06-09T09:09:07Z</time>
      </trkpt>
      <trkpt lat="45.94889" lon="4.74336">
        <ele>191</ele>
        <time>2018-06-09T09:09:08Z</time>
      </trkpt>
      <trkpt lat="45.94892" lon="4.74341">
        <ele>191</ele>
        <time>2018-06-09T09:09:09Z</time>
      </trkpt>
      <trkpt lat="45.94896" lon="4.74345">
        <ele>191</ele>
        <time>2018-06-09T09:09:10Z</time>
      </trkpt>
      <trkpt lat="45.94899" lon="4.74351">
        <ele>191</ele>
        <time>2018-06-09T09:09:11Z</time>
      </trkpt>
      <trkpt lat="45.94902" lon="4.74358">
        <ele>191</ele>
        <time>2018-06-09T09:09:12Z</time>
      </trkpt>
      <trkpt lat="45.94904" lon="4.74363">
        <ele>191</ele>
        <time>2018-06-09T09:09:13Z</time>
      </trkpt>
      <trkpt lat="45.94907" lon="4.74369">
        <ele>191</ele>
        <time>2018-06-09T09:09:14Z</time>
      </trkpt>
      <trkpt lat="45.9491" lon="4.74375">
        <ele>191</ele>
        <time>2018-06-09T09:09:15Z</time>
      </trkpt>
      <trkpt lat="45.94913" lon="4.74381">
        <ele>191</ele>
        <time>2018-06-09T09:09:16Z</time>
      </trkpt>
      <trkpt lat="45.94916" lon="4.74386">
        <ele>191</ele>
        <time>2018-06-09T09:09:17Z</time>
      </trkpt>
      <trkpt lat="45.9492" lon="4.74392">
        <ele>192</ele>
        <time>2018-06-09T09:09:18Z</time>
      </trkpt>
      <trkpt lat="45.94922" lon="4.74398">
        <ele>192</ele>
        <time>2018-06-09T09:09:19Z</time>
      </trkpt>
      <trkpt lat="45.94925" lon="4.74403">
        <ele>192</ele>
        <time>2018-06-09T09:09:20Z</time>
      </trkpt>
      <trkpt lat="45.94929" lon="4.7441">
        <ele>192</ele>
        <time>2018-06-09T09:09:21Z</time>
      </trkpt>
      <trkpt lat="45.94931" lon="4.74417">
        <ele>192</ele>
        <time>2018-06-09T09:09:22Z</time>
      </trkpt>
      <trkpt lat="45.94935" lon="4.74423">
        <ele>192</ele>
        <time>2018-06-09T09:09:23Z</time>
      </trkpt>
      <trkpt lat="45.9494" lon="4.7443">
        <ele>192</ele>
        <time>2018-06-09T09:09:24Z</time>
      </trkpt>
      <trkpt lat="45.94943" lon="4.74435">
        <ele>192</ele>
        <time>2018-06-09T09:09:25Z</time>
      </trkpt>
      <trkpt lat="45.94946" lon="4.74441">
        <ele>192</ele>
        <time>2018-06-09T09:09:26Z</time>
      </trkpt>
      <trkpt lat="45.94949" lon="4.74447">
        <ele>192</ele>
        <time>2018-06-09T09:09:27Z</time>
      </trkpt>
      <trkpt lat="45.94952" lon="4.74452">
        <ele>192</ele>
        <time>2018-06-09T09:09:28Z</time>
      </trkpt>
      <trkpt lat="45.94955" lon="4.74458">
        <ele>192</ele>
        <time>2018-06-09T09:09:29Z</time>
      </trkpt>
      <trkpt lat="45.94959" lon="4.74465">
        <ele>193</ele>
        <time>2018-06-09T09:09:30Z</time>
      </trkpt>
      <trkpt lat="45.94963" lon="4.74472">
        <ele>193</ele>
        <time>2018-06-09T09:09:31Z</time>
      </trkpt>
      <trkpt lat="45.94966" lon="4.74478">
        <ele>193</ele>
        <time>2018-06-09T09:09:32Z</time>
      </trkpt>
      <trkpt lat="45.94969" lon="4.74483">
        <ele>193</ele>
        <time>2018-06-09T09:09:33Z</time>
      </trkpt>
      <trkpt lat="45.94971" lon="4.74489">
        <ele>193</ele>
        <time>2018-06-09T09:09:34Z</time>
      </trkpt>
      <trkpt lat="45.94975" lon="4.74494">
        <ele>193</ele>
        <time>2018-06-09T09:09:35Z</time>
      </trkpt>
      <trkpt lat="45.94978" lon="4.74499">
        <ele>193</ele>
        <time>2018-06-09T09:09:36Z</time>
      </trkpt>
      <trkpt lat="45.94981" lon="4.74505">
        <ele>193</ele>
        <time>2018-06-09T09:09:37Z</time>
      </trkpt>
      <trkpt lat="45.94985" lon="4.74509">
        <ele>193</ele>
        <time>2018-06-09T09:09:38Z</time>
      </trkpt>
      <trkpt lat="45.94988" lon="4.74516">
        <ele>193</ele>
        <time>2018-06-09T09:09:39Z</time>
      </trkpt>
      <trkpt lat="45.94991" lon="4.74522">
        <ele>193</ele>
        <time>2018-06-09T09:09:40Z</time>
      </trkpt>
      <trkpt lat="45.94994" lon="4.74528">
        <ele>193</ele>
        <time>2018-06-09T09:09:41Z</time>
      </trkpt>
      <trkpt lat="45.94997" lon="4.74533">
        <ele>193</ele>
        <time>2018-06-09T09:09:42Z</time>
      </trkpt>
      <trkpt lat="45.95002" lon="4.74537">
        <ele>194</ele>
        <time>2018-06-09T09:09:43Z</time>
      </trkpt>
      <trkpt lat="45.95006" lon="4.74543">
        <ele>194</ele>
        <time>2018-06-09T09:09:44Z</time>
      </trkpt>
      <trkpt lat="45.95008" lon="4.7455">
        <ele>194</ele>
        <time>2018-06-09T09:09:45Z</time>
      </trkpt>
      <trkpt lat="45.95011" lon="4.74556">
        <ele>194</ele>
        <time>2018-06-09T09:09:46Z</time>
      </trkpt>
      <trkpt lat="45.95015" lon="4.74562">
        <ele>194</ele>
        <time>2018-06-09T09:09:47Z</time>
      </trkpt>
      <trkpt lat="45.95018" lon="4.74567">
        <ele>194</ele>
        <time>2018-06-09T09:09:48Z</time>
      </trkpt>
      <trkpt lat="45.95021" lon="4.74575">
        <ele>194</ele>
        <time>2018-06-09T09:09:49Z</time>
      </trkpt>
      <trkpt lat="45.95024" lon="4.7458">
        <ele>194</ele>
        <time>2018-06-09T09:09:50Z</time>
      </trkpt>
      <trkpt lat="45.95027" lon="4.74586">
        <ele>194</ele>
        <time>2018-06-09T09:09:51Z</time>
      </trkpt>
      <trkpt lat="45.95031" lon="4.74591">
        <ele>194</ele>
        <time>2018-06-09T09:09:52Z</time>
      </trkpt>
      <trkpt lat="45.95033" lon="4.74598">
        <ele>194</ele>
        <time>2018-06-09T09:09:53Z</time>
      </trkpt>
      <trkpt lat="45.95035" lon="4.74605">
        <ele>194</ele>
        <time>2018-06-09T09:09:54Z</time>
      </trkpt>
      <trkpt lat="45.95038" lon="4.74611">
        <ele>194</ele>
        <time>2018-06-09T09:09:55Z</time>
      </trkpt>
      <trkpt lat="45.95042" lon="4.74617">
        <ele>194</ele>
        <time>2018-06-09T09:09:56Z</time>
      </trkpt>
      <trkpt lat="45.95045" lon="4.74625">
        <ele>194</ele>
        <time>2018-06-09T09:09:57Z</time>
      </trkpt>
      <trkpt lat="45.95048" lon="4.74631">
        <ele>194</ele>
        <time>2018-06-09T09:09:58Z</time>
      </trkpt>
      <trkpt lat="45.95052" lon="4.74639">
        <ele>194</ele>
        <time>2018-06-09T09:09:59Z</time>
      </trkpt>
      <trkpt lat="45.95056" lon="4.74646">
        <ele>194</ele>
        <time>2018-06-09T09:10:00Z</time>
      </trkpt>
      <trkpt lat="45.9506" lon="4.74653">
        <ele>194</ele>
        <time>2018-06-09T09:10:01Z</time>
      </trkpt>
      <trkpt lat="45.95063" lon="4.74658">
        <ele>195</ele>
        <time>2018-06-09T09:10:02Z</time>
      </trkpt>
      <trkpt lat="45.95068" lon="4.74664">
        <ele>195</ele>
        <time>2018-06-09T09:10:03Z</time>
      </trkpt>
      <trkpt lat="45.95072" lon="4.7467">
        <ele>194</ele>
        <time>2018-06-09T09:10:04Z</time>
      </trkpt>
      <trkpt lat="45.95076" lon="4.74678">
        <ele>194</ele>
        <time>2018-06-09T09:10:05Z</time>
      </trkpt>
      <trkpt lat="45.9508" lon="4.74685">
        <ele>194</ele>
        <time>2018-06-09T09:10:06Z</time>
      </trkpt>
      <trkpt lat="45.95083" lon="4.74693">
        <ele>194</ele>
        <time>2018-06-09T09:10:07Z</time>
      </trkpt>
      <trkpt lat="45.95087" lon="4.747">
        <ele>194</ele>
        <time>2018-06-09T09:10:08Z</time>
      </trkpt>
      <trkpt lat="45.9509" lon="4.74708">
        <ele>194</ele>
        <time>2018-06-09T09:10:09Z</time>
      </trkpt>
      <trkpt lat="45.95094" lon="4.74715">
        <ele>194</ele>
        <time>2018-06-09T09:10:10Z</time>
      </trkpt>
      <trkpt lat="45.95098" lon="4.74723">
        <ele>194</ele>
        <time>2018-06-09T09:10:11Z</time>
      </trkpt>
      <trkpt lat="45.95102" lon="4.7473">
        <ele>194</ele>
        <time>2018-06-09T09:10:12Z</time>
      </trkpt>
      <trkpt lat="45.95107" lon="4.74737">
        <ele>194</ele>
        <time>2018-06-09T09:10:13Z</time>
      </trkpt>
      <trkpt lat="45.95112" lon="4.74742">
        <ele>194</ele>
        <time>2018-06-09T09:10:14Z</time>
      </trkpt>
      <trkpt lat="45.95117" lon="4.74749">
        <ele>194</ele>
        <time>2018-06-09T09:10:15Z</time>
      </trkpt>
      <trkpt lat="45.95122" lon="4.74756">
        <ele>194</ele>
        <time>2018-06-09T09:10:16Z</time>
      </trkpt>
      <trkpt lat="45.95125" lon="4.74762">
        <ele>194</ele>
        <time>2018-06-09T09:10:17Z</time>
      </trkpt>
      <trkpt lat="45.9513" lon="4.74767">
        <ele>194</ele>
        <time>2018-06-09T09:10:18Z</time>
      </trkpt>
      <trkpt lat="45.95134" lon="4.74773">
        <ele>194</ele>
        <time>2018-06-09T09:10:19Z</time>
      </trkpt>
      <trkpt lat="45.95136" lon="4.74778">
        <ele>194</ele>
        <time>2018-06-09T09:10:20Z</time>
      </trkpt>
      <trkpt lat="45.9514" lon="4.74785">
        <ele>194</ele>
        <time>2018-06-09T09:10:21Z</time>
      </trkpt>
      <trkpt lat="45.95143" lon="4.74791">
        <ele>194</ele>
        <time>2018-06-09T09:10:22Z</time>
      </trkpt>
      <trkpt lat="45.95148" lon="4.74797">
        <ele>194</ele>
        <time>2018-06-09T09:10:23Z</time>
      </trkpt>
      <trkpt lat="45.95151" lon="4.74803">
        <ele>194</ele>
        <time>2018-06-09T09:10:24Z</time>
      </trkpt>
      <trkpt lat="45.95155" lon="4.7481">
        <ele>194</ele>
        <time>2018-06-09T09:10:25Z</time>
      </trkpt>
      <trkpt lat="45.95159" lon="4.74817">
        <ele>194</ele>
        <time>2018-06-09T09:10:26Z</time>
      </trkpt>
      <trkpt lat="45.95163" lon="4.74823">
        <ele>194</ele>
        <time>2018-06-09T09:10:27Z</time>
      </trkpt>
      <trkpt lat="45.95166" lon="4.74828">
        <ele>194</ele>
        <time>2018-06-09T09:10:28Z</time>
      </trkpt>
      <trkpt lat="45.9517" lon="4.74835">
        <ele>194</ele>
        <time>2018-06-09T09:10:29Z</time>
      </trkpt>
      <trkpt lat="45.95174" lon="4.74841">
        <ele>194</ele>
        <time>2018-06-09T09:10:30Z</time>
      </trkpt>
      <trkpt lat="45.95177" lon="4.74847">
        <ele>194</ele>
        <time>2018-06-09T09:10:31Z</time>
      </trkpt>
      <trkpt lat="45.9518" lon="4.74853">
        <ele>194</ele>
        <time>2018-06-09T09:10:32Z</time>
      </trkpt>
      <trkpt lat="45.95185" lon="4.74859">
        <ele>194</ele>
        <time>2018-06-09T09:10:33Z</time>
      </trkpt>
      <trkpt lat="45.95188" lon="4.74864">
        <ele>194</ele>
        <time>2018-06-09T09:10:34Z</time>
      </trkpt>
      <trkpt lat="45.95191" lon="4.74871">
        <ele>194</ele>
        <time>2018-06-09T09:10:35Z</time>
      </trkpt>
      <trkpt lat="45.95195" lon="4.74876">
        <ele>194</ele>
        <time>2018-06-09T09:10:36Z</time>
      </trkpt>
      <trkpt lat="45.95199" lon="4.74882">
        <ele>194</ele>
        <time>2018-06-09T09:10:37Z</time>
      </trkpt>
      <trkpt lat="45.95201" lon="4.74888">
        <ele>194</ele>
        <time>2018-06-09T09:10:38Z</time>
      </trkpt>
      <trkpt lat="45.95203" lon="4.74893">
        <ele>194</ele>
        <time>2018-06-09T09:10:39Z</time>
      </trkpt>
      <trkpt lat="45.95207" lon="4.74899">
        <ele>194</ele>
        <time>2018-06-09T09:10:40Z</time>
      </trkpt>
      <trkpt lat="45.95212" lon="4.74906">
        <ele>193</ele>
        <time>2018-06-09T09:10:41Z</time>
      </trkpt>
      <trkpt lat="45.95214" lon="4.7491">
        <ele>193</ele>
        <time>2018-06-09T09:10:42Z</time>
      </trkpt>
      <trkpt lat="45.95217" lon="4.74915">
        <ele>193</ele>
        <time>2018-06-09T09:10:43Z</time>
      </trkpt>
      <trkpt lat="45.9522" lon="4.74921">
        <ele>192</ele>
        <time>2018-06-09T09:10:44Z</time>
      </trkpt>
      <trkpt lat="45.95224" lon="4.74926">
        <ele>192</ele>
        <time>2018-06-09T09:10:45Z</time>
      </trkpt>
      <trkpt lat="45.95227" lon="4.74932">
        <ele>192</ele>
        <time>2018-06-09T09:10:46Z</time>
      </trkpt>
      <trkpt lat="45.95231" lon="4.74938">
        <ele>192</ele>
        <time>2018-06-09T09:10:47Z</time>
      </trkpt>
      <trkpt lat="45.95234" lon="4.74943">
        <ele>192</ele>
        <time>2018-06-09T09:10:48Z</time>
      </trkpt>
      <trkpt lat="45.95238" lon="4.7495">
        <ele>192</ele>
        <time>2018-06-09T09:10:49Z</time>
      </trkpt>
      <trkpt lat="45.95244" lon="4.74954">
        <ele>192</ele>
        <time>2018-06-09T09:10:50Z</time>
      </trkpt>
      <trkpt lat="45.95247" lon="4.74961">
        <ele>191</ele>
        <time>2018-06-09T09:10:51Z</time>
      </trkpt>
      <trkpt lat="45.95252" lon="4.74966">
        <ele>192</ele>
        <time>2018-06-09T09:10:52Z</time>
      </trkpt>
      <trkpt lat="45.95258" lon="4.74973">
        <ele>192</ele>
        <time>2018-06-09T09:10:53Z</time>
      </trkpt>
      <trkpt lat="45.95261" lon="4.74978">
        <ele>192</ele>
        <time>2018-06-09T09:10:54Z</time>
      </trkpt>
      <trkpt lat="45.95265" lon="4.74984">
        <ele>192</ele>
        <time>2018-06-09T09:10:55Z</time>
      </trkpt>
      <trkpt lat="45.95267" lon="4.7499">
        <ele>192</ele>
        <time>2018-06-09T09:10:56Z</time>
      </trkpt>
      <trkpt lat="45.95272" lon="4.74995">
        <ele>192</ele>
        <time>2018-06-09T09:10:57Z</time>
      </trkpt>
      <trkpt lat="45.95274" lon="4.75001">
        <ele>191</ele>
        <time>2018-06-09T09:10:58Z</time>
      </trkpt>
      <trkpt lat="45.95278" lon="4.75008">
        <ele>191</ele>
        <time>2018-06-09T09:10:59Z</time>
      </trkpt>
      <trkpt lat="45.95282" lon="4.75015">
        <ele>191</ele>
        <time>2018-06-09T09:11:00Z</time>
      </trkpt>
      <trkpt lat="45.95285" lon="4.7502">
        <ele>191</ele>
        <time>2018-06-09T09:11:01Z</time>
      </trkpt>
      <trkpt lat="45.95289" lon="4.75026">
        <ele>191</ele>
        <time>2018-06-09T09:11:02Z</time>
      </trkpt>
      <trkpt lat="45.95292" lon="4.75032">
        <ele>191</ele>
        <time>2018-06-09T09:11:03Z</time>
      </trkpt>
      <trkpt lat="45.95296" lon="4.75037">
        <ele>191</ele>
        <time>2018-06-09T09:11:04Z</time>
      </trkpt>
      <trkpt lat="45.953" lon="4.75043">
        <ele>191</ele>
        <time>2018-06-09T09:11:05Z</time>
      </trkpt>
      <trkpt lat="45.95303" lon="4.75049">
        <ele>191</ele>
        <time>2018-06-09T09:11:06Z</time>
      </trkpt>
      <trkpt lat="45.95306" lon="4.75055">
        <ele>192</ele>
        <time>2018-06-09T09:11:07Z</time>
      </trkpt>
      <trkpt lat="45.9531" lon="4.75062">
        <ele>192</ele>
        <time>2018-06-09T09:11:08Z</time>
      </trkpt>
      <trkpt lat="45.95314" lon="4.75068">
        <ele>192</ele>
        <time>2018-06-09T09:11:09Z</time>
      </trkpt>
      <trkpt lat="45.95319" lon="4.75074">
        <ele>192</ele>
        <time>2018-06-09T09:11:10Z</time>
      </trkpt>
      <trkpt lat="45.95322" lon="4.7508">
        <ele>192</ele>
        <time>2018-06-09T09:11:11Z</time>
      </trkpt>
      <trkpt lat="45.95325" lon="4.75086">
        <ele>192</ele>
        <time>2018-06-09T09:11:12Z</time>
      </trkpt>
      <trkpt lat="45.95329" lon="4.75092">
        <ele>191</ele>
        <time>2018-06-09T09:11:13Z</time>
      </trkpt>
      <trkpt lat="45.95332" lon="4.75096">
        <ele>191</ele>
        <time>2018-06-09T09:11:14Z</time>
      </trkpt>
      <trkpt lat="45.95336" lon="4.75102">
        <ele>192</ele>
        <time>2018-06-09T09:11:15Z</time>
      </trkpt>
      <trkpt lat="45.95339" lon="4.75108">
        <ele>192</ele>
        <time>2018-06-09T09:11:16Z</time>
      </trkpt>
      <trkpt lat="45.95343" lon="4.75113">
        <ele>192</ele>
        <time>2018-06-09T09:11:17Z</time>
      </trkpt>
      <trkpt lat="45.95346" lon="4.75119">
        <ele>191</ele>
        <time>2018-06-09T09:11:18Z</time>
      </trkpt>
      <trkpt lat="45.9535" lon="4.75124">
        <ele>191</ele>
        <time>2018-06-09T09:11:19Z</time>
      </trkpt>
      <trkpt lat="45.95354" lon="4.75129">
        <ele>191</ele>
        <time>2018-06-09T09:11:20Z</time>
      </trkpt>
      <trkpt lat="45.95357" lon="4.75135">
        <ele>191</ele>
        <time>2018-06-09T09:11:21Z</time>
      </trkpt>
      <trkpt lat="45.95361" lon="4.7514">
        <ele>191</ele>
        <time>2018-06-09T09:11:22Z</time>
      </trkpt>
      <trkpt lat="45.95364" lon="4.75146">
        <ele>191</ele>
        <time>2018-06-09T09:11:23Z</time>
      </trkpt>
      <trkpt lat="45.95368" lon="4.75153">
        <ele>191</ele>
        <time>2018-06-09T09:11:24Z</time>
      </trkpt>
      <trkpt lat="45.95373" lon="4.7516">
        <ele>191</ele>
        <time>2018-06-09T09:11:25Z</time>
      </trkpt>
      <trkpt lat="45.95377" lon="4.75166">
        <ele>191</ele>
        <time>2018-06-09T09:11:26Z</time>
      </trkpt>
      <trkpt lat="45.95382" lon="4.75173">
        <ele>189</ele>
        <time>2018-06-09T09:11:27Z</time>
      </trkpt>
      <trkpt lat="45.95387" lon="4.75179">
        <ele>189</ele>
        <time>2018-06-09T09:11:28Z</time>
      </trkpt>
      <trkpt lat="45.95391" lon="4.75186">
        <ele>189</ele>
        <time>2018-06-09T09:11:29Z</time>
      </trkpt>
      <trkpt lat="45.95394" lon="4.75192">
        <ele>189</ele>
        <time>2018-06-09T09:11:30Z</time>
      </trkpt>
      <trkpt lat="45.95398" lon="4.75199">
        <ele>189</ele>
        <time>2018-06-09T09:11:31Z</time>
      </trkpt>
      <trkpt lat="45.95402" lon="4.75205">
        <ele>189</ele>
        <time>2018-06-09T09:11:32Z</time>
      </trkpt>
      <trkpt lat="45.95405" lon="4.75213">
        <ele>189</ele>
        <time>2018-06-09T09:11:33Z</time>
      </trkpt>
      <trkpt lat="45.95409" lon="4.7522">
        <ele>189</ele>
        <time>2018-06-09T09:11:34Z</time>
      </trkpt>
      <trkpt lat="45.95414" lon="4.75228">
        <ele>189</ele>
        <time>2018-06-09T09:11:35Z</time>
      </trkpt>
      <trkpt lat="45.95417" lon="4.75235">
        <ele>190</ele>
        <time>2018-06-09T09:11:36Z</time>
      </trkpt>
      <trkpt lat="45.95421" lon="4.75242">
        <ele>190</ele>
        <time>2018-06-09T09:11:37Z</time>
      </trkpt>
      <trkpt lat="45.95424" lon="4.75249">
        <ele>190</ele>
        <time>2018-06-09T09:11:38Z</time>
      </trkpt>
      <trkpt lat="45.95428" lon="4.75255">
        <ele>189</ele>
        <time>2018-06-09T09:11:39Z</time>
      </trkpt>
      <trkpt lat="45.95432" lon="4.75261">
        <ele>189</ele>
        <time>2018-06-09T09:11:40Z</time>
      </trkpt>
      <trkpt lat="45.95436" lon="4.75269">
        <ele>189</ele>
        <time>2018-06-09T09:11:41Z</time>
      </trkpt>
      <trkpt lat="45.95441" lon="4.75276">
        <ele>189</ele>
        <time>2018-06-09T09:11:42Z</time>
      </trkpt>
      <trkpt lat="45.95445" lon="4.75283">
        <ele>188</ele>
        <time>2018-06-09T09:11:43Z</time>
      </trkpt>
      <trkpt lat="45.95449" lon="4.7529">
        <ele>188</ele>
        <time>2018-06-09T09:11:44Z</time>
      </trkpt>
      <trkpt lat="45.95453" lon="4.75297">
        <ele>188</ele>
        <time>2018-06-09T09:11:45Z</time>
      </trkpt>
      <trkpt lat="45.95457" lon="4.75303">
        <ele>188</ele>
        <time>2018-06-09T09:11:46Z</time>
      </trkpt>
      <trkpt lat="45.95458" lon="4.75309">
        <ele>188</ele>
        <time>2018-06-09T09:11:47Z</time>
      </trkpt>
      <trkpt lat="45.95463" lon="4.75316">
        <ele>188</ele>
        <time>2018-06-09T09:11:48Z</time>
      </trkpt>
      <trkpt lat="45.95468" lon="4.75324">
        <ele>188</ele>
        <time>2018-06-09T09:11:49Z</time>
      </trkpt>
      <trkpt lat="45.9547" lon="4.7533">
        <ele>188</ele>
        <time>2018-06-09T09:11:50Z</time>
      </trkpt>
      <trkpt lat="45.95475" lon="4.75338">
        <ele>186</ele>
        <time>2018-06-09T09:11:51Z</time>
      </trkpt>
      <trkpt lat="45.9548" lon="4.75345">
        <ele>186</ele>
        <time>2018-06-09T09:11:52Z</time>
      </trkpt>
      <trkpt lat="45.95484" lon="4.75352">
        <ele>186</ele>
        <time>2018-06-09T09:11:53Z</time>
      </trkpt>
      <trkpt lat="45.95488" lon="4.7536">
        <ele>186</ele>
        <time>2018-06-09T09:11:54Z</time>
      </trkpt>
      <trkpt lat="45.95492" lon="4.75368">
        <ele>186</ele>
        <time>2018-06-09T09:11:55Z</time>
      </trkpt>
      <trkpt lat="45.95496" lon="4.75374">
        <ele>185</ele>
        <time>2018-06-09T09:11:56Z</time>
      </trkpt>
      <trkpt lat="45.95498" lon="4.75382">
        <ele>185</ele>
        <time>2018-06-09T09:11:57Z</time>
      </trkpt>
      <trkpt lat="45.955" lon="4.75389">
        <ele>185</ele>
        <time>2018-06-09T09:11:58Z</time>
      </trkpt>
      <trkpt lat="45.95504" lon="4.75396">
        <ele>188</ele>
        <time>2018-06-09T09:11:59Z</time>
      </trkpt>
      <trkpt lat="45.95506" lon="4.75403">
        <ele>187</ele>
        <time>2018-06-09T09:12:00Z</time>
      </trkpt>
      <trkpt lat="45.95507" lon="4.75411">
        <ele>186</ele>
        <time>2018-06-09T09:12:01Z</time>
      </trkpt>
      <trkpt lat="45.95509" lon="4.7542">
        <ele>186</ele>
        <time>2018-06-09T09:12:02Z</time>
      </trkpt>
      <trkpt lat="45.95513" lon="4.75428">
        <ele>186</ele>
        <time>2018-06-09T09:12:03Z</time>
      </trkpt>
      <trkpt lat="45.95515" lon="4.75437">
        <ele>187</ele>
        <time>2018-06-09T09:12:04Z</time>
      </trkpt>
      <trkpt lat="45.95514" lon="4.75447">
        <ele>187</ele>
        <time>2018-06-09T09:12:05Z</time>
      </trkpt>
      <trkpt lat="45.95514" lon="4.75457">
        <ele>187</ele>
        <time>2018-06-09T09:12:06Z</time>
      </trkpt>
      <trkpt lat="45.95514" lon="4.75468">
        <ele>186</ele>
        <time>2018-06-09T09:12:07Z</time>
      </trkpt>
      <trkpt lat="45.95515" lon="4.75478">
        <ele>186</ele>
        <time>2018-06-09T09:12:08Z</time>
      </trkpt>
      <trkpt lat="45.95519" lon="4.75485">
        <ele>186</ele>
        <time>2018-06-09T09:12:09Z</time>
      </trkpt>
      <trkpt lat="45.95522" lon="4.75491">
        <ele>186</ele>
        <time>2018-06-09T09:12:10Z</time>
      </trkpt>
      <trkpt lat="45.95527" lon="4.75496">
        <ele>186</ele>
        <time>2018-06-09T09:12:11Z</time>
      </trkpt>
      <trkpt lat="45.95534" lon="4.755">
        <ele>187</ele>
        <time>2018-06-09T09:12:12Z</time>
      </trkpt>
      <trkpt lat="45.9554" lon="4.75503">
        <ele>186</ele>
        <time>2018-06-09T09:12:13Z</time>
      </trkpt>
      <trkpt lat="45.95545" lon="4.75509">
        <ele>186</ele>
        <time>2018-06-09T09:12:14Z</time>
      </trkpt>
      <trkpt lat="45.9555" lon="4.75513">
        <ele>186</ele>
        <time>2018-06-09T09:12:15Z</time>
      </trkpt>
      <trkpt lat="45.95553" lon="4.75517">
        <ele>186</ele>
        <time>2018-06-09T09:12:16Z</time>
      </trkpt>
      <trkpt lat="45.95557" lon="4.75523">
        <ele>186</ele>
        <time>2018-06-09T09:12:17Z</time>
      </trkpt>
      <trkpt lat="45.95562" lon="4.75528">
        <ele>186</ele>
        <time>2018-06-09T09:12:18Z</time>
      </trkpt>
      <trkpt lat="45.95567" lon="4.75533">
        <ele>186</ele>
        <time>2018-06-09T09:12:19Z</time>
      </trkpt>
      <trkpt lat="45.95572" lon="4.75538">
        <ele>186</ele>
        <time>2018-06-09T09:12:20Z</time>
      </trkpt>
      <trkpt lat="45.95577" lon="4.75543">
        <ele>186</ele>
        <time>2018-06-09T09:12:21Z</time>
      </trkpt>
      <trkpt lat="45.95582" lon="4.7555">
        <ele>186</ele>
        <time>2018-06-09T09:12:22Z</time>
      </trkpt>
      <trkpt lat="45.95586" lon="4.75555">
        <ele>188</ele>
        <time>2018-06-09T09:12:23Z</time>
      </trkpt>
      <trkpt lat="45.9559" lon="4.75563">
        <ele>188</ele>
        <time>2018-06-09T09:12:24Z</time>
      </trkpt>
      <trkpt lat="45.95593" lon="4.75569">
        <ele>188</ele>
        <time>2018-06-09T09:12:25Z</time>
      </trkpt>
      <trkpt lat="45.95596" lon="4.75576">
        <ele>188</ele>
        <time>2018-06-09T09:12:26Z</time>
      </trkpt>
      <trkpt lat="45.95599" lon="4.75581">
        <ele>188</ele>
        <time>2018-06-09T09:12:27Z</time>
      </trkpt>
      <trkpt lat="45.95603" lon="4.75587">
        <ele>187</ele>
        <time>2018-06-09T09:12:28Z</time>
      </trkpt>
      <trkpt lat="45.95605" lon="4.75594">
        <ele>187</ele>
        <time>2018-06-09T09:12:29Z</time>
      </trkpt>
      <trkpt lat="45.95608" lon="4.75601">
        <ele>187</ele>
        <time>2018-06-09T09:12:30Z</time>
      </trkpt>
      <trkpt lat="45.95611" lon="4.75607">
        <ele>188</ele>
        <time>2018-06-09T09:12:31Z</time>
      </trkpt>
      <trkpt lat="45.95614" lon="4.75615">
        <ele>188</ele>
        <time>2018-06-09T09:12:32Z</time>
      </trkpt>
      <trkpt lat="45.95616" lon="4.75624">
        <ele>188</ele>
        <time>2018-06-09T09:12:33Z</time>
      </trkpt>
      <trkpt lat="45.95618" lon="4.75634">
        <ele>188</ele>
        <time>2018-06-09T09:12:34Z</time>
      </trkpt>
      <trkpt lat="45.95619" lon="4.75642">
        <ele>188</ele>
        <time>2018-06-09T09:12:35Z</time>
      </trkpt>
      <trkpt lat="45.95621" lon="4.75649">
        <ele>188</ele>
        <time>2018-06-09T09:12:36Z</time>
      </trkpt>
      <trkpt lat="45.95623" lon="4.75656">
        <ele>188</ele>
        <time>2018-06-09T09:12:37Z</time>
      </trkpt>
      <trkpt lat="45.95624" lon="4.75664">
        <ele>188</ele>
        <time>2018-06-09T09:12:38Z</time>
      </trkpt>
      <trkpt lat="45.95625" lon="4.75671">
        <ele>187</ele>
        <time>2018-06-09T09:12:39Z</time>
      </trkpt>
      <trkpt lat="45.95626" lon="4.7568">
        <ele>187</ele>
        <time>2018-06-09T09:12:40Z</time>
      </trkpt>
      <trkpt lat="45.95628" lon="4.75688">
        <ele>187</ele>
        <time>2018-06-09T09:12:41Z</time>
      </trkpt>
      <trkpt lat="45.95629" lon="4.75696">
        <ele>187</ele>
        <time>2018-06-09T09:12:42Z</time>
      </trkpt>
      <trkpt lat="45.9563" lon="4.75704">
        <ele>187</ele>
        <time>2018-06-09T09:12:43Z</time>
      </trkpt>
      <trkpt lat="45.95631" lon="4.75712">
        <ele>187</ele>
        <time>2018-06-09T09:12:44Z</time>
      </trkpt>
      <trkpt lat="45.95631" lon="4.75718">
        <ele>187</ele>
        <time>2018-06-09T09:12:45Z</time>
      </trkpt>
      <trkpt lat="45.95632" lon="4.75725">
        <ele>187</ele>
        <time>2018-06-09T09:12:46Z</time>
      </trkpt>
      <trkpt lat="45.95633" lon="4.75733">
        <ele>187</ele>
        <time>2018-06-09T09:12:47Z</time>
      </trkpt>
      <trkpt lat="45.95634" lon="4.75741">
        <ele>187</ele>
        <time>2018-06-09T09:12:48Z</time>
      </trkpt>
      <trkpt lat="45.95636" lon="4.75747">
        <ele>187</ele>
        <time>2018-06-09T09:12:49Z</time>
      </trkpt>
      <trkpt lat="45.95637" lon="4.75754">
        <ele>186</ele>
        <time>2018-06-09T09:12:50Z</time>
      </trkpt>
      <trkpt lat="45.95637" lon="4.75762">
        <ele>186</ele>
        <time>2018-06-09T09:12:51Z</time>
      </trkpt>
      <trkpt lat="45.95638" lon="4.75769">
        <ele>186</ele>
        <time>2018-06-09T09:12:52Z</time>
      </trkpt>
      <trkpt lat="45.95639" lon="4.75778">
        <ele>186</ele>
        <time>2018-06-09T09:12:53Z</time>
      </trkpt>
      <trkpt lat="45.9564" lon="4.75786">
        <ele>185</ele>
        <time>2018-06-09T09:12:54Z</time>
      </trkpt>
      <trkpt lat="45.95641" lon="4.75794">
        <ele>185</ele>
        <time>2018-06-09T09:12:55Z</time>
      </trkpt>
      <trkpt lat="45.95642" lon="4.75802">
        <ele>185</ele>
        <time>2018-06-09T09:12:56Z</time>
      </trkpt>
      <trkpt lat="45.95644" lon="4.7581">
        <ele>185</ele>
        <time>2018-06-09T09:12:57Z</time>
      </trkpt>
      <trkpt lat="45.95645" lon="4.75818">
        <ele>185</ele>
        <time>2018-06-09T09:12:58Z</time>
      </trkpt>
      <trkpt lat="45.95647" lon="4.75825">
        <ele>185</ele>
        <time>2018-06-09T09:12:59Z</time>
      </trkpt>
      <trkpt lat="45.95649" lon="4.75832">
        <ele>185</ele>
        <time>2018-06-09T09:13:00Z</time>
      </trkpt>
      <trkpt lat="45.95651" lon="4.75841">
        <ele>185</ele>
        <time>2018-06-09T09:13:01Z</time>
      </trkpt>
      <trkpt lat="45.95654" lon="4.75848">
        <ele>185</ele>
        <time>2018-06-09T09:13:02Z</time>
      </trkpt>
      <trkpt lat="45.95656" lon="4.75853">
        <ele>184</ele>
        <time>2018-06-09T09:13:03Z</time>
      </trkpt>
      <trkpt lat="45.95659" lon="4.75862">
        <ele>184</ele>
        <time>2018-06-09T09:13:04Z</time>
      </trkpt>
      <trkpt lat="45.95662" lon="4.75871">
        <ele>184</ele>
        <time>2018-06-09T09:13:05Z</time>
      </trkpt>
      <trkpt lat="45.95664" lon="4.75878">
        <ele>184</ele>
        <time>2018-06-09T09:13:06Z</time>
      </trkpt>
      <trkpt lat="45.95667" lon="4.75887">
        <ele>186</ele>
        <time>2018-06-09T09:13:07Z</time>
      </trkpt>
      <trkpt lat="45.95668" lon="4.75895">
        <ele>186</ele>
        <time>2018-06-09T09:13:08Z</time>
      </trkpt>
      <trkpt lat="45.95672" lon="4.75903">
        <ele>185</ele>
        <time>2018-06-09T09:13:09Z</time>
      </trkpt>
      <trkpt lat="45.95675" lon="4.75911">
        <ele>185</ele>
        <time>2018-06-09T09:13:10Z</time>
      </trkpt>
      <trkpt lat="45.95679" lon="4.7592">
        <ele>185</ele>
        <time>2018-06-09T09:13:11Z</time>
      </trkpt>
      <trkpt lat="45.95682" lon="4.75927">
        <ele>185</ele>
        <time>2018-06-09T09:13:12Z</time>
      </trkpt>
      <trkpt lat="45.95686" lon="4.75935">
        <ele>185</ele>
        <time>2018-06-09T09:13:13Z</time>
      </trkpt>
      <trkpt lat="45.95689" lon="4.75942">
        <ele>185</ele>
        <time>2018-06-09T09:13:14Z</time>
      </trkpt>
      <trkpt lat="45.95693" lon="4.75949">
        <ele>185</ele>
        <time>2018-06-09T09:13:15Z</time>
      </trkpt>
      <trkpt lat="45.95696" lon="4.75956">
        <ele>185</ele>
        <time>2018-06-09T09:13:16Z</time>
      </trkpt>
      <trkpt lat="45.95699" lon="4.75962">
        <ele>185</ele>
        <time>2018-06-09T09:13:17Z</time>
      </trkpt>
      <trkpt lat="45.95702" lon="4.75968">
        <ele>185</ele>
        <time>2018-06-09T09:13:18Z</time>
      </trkpt>
      <trkpt lat="45.95705" lon="4.75974">
        <ele>185</ele>
        <time>2018-06-09T09:13:19Z</time>
      </trkpt>
      <trkpt lat="45.95709" lon="4.75981">
        <ele>185</ele>
        <time>2018-06-09T09:13:20Z</time>
      </trkpt>
      <trkpt lat="45.95711" lon="4.75987">
        <ele>185</ele>
        <time>2018-06-09T09:13:21Z</time>
      </trkpt>
      <trkpt lat="45.95714" lon="4.75993">
        <ele>185</ele>
        <time>2018-06-09T09:13:22Z</time>
      </trkpt>
      <trkpt lat="45.95716" lon="4.75998">
        <ele>185</ele>
        <time>2018-06-09T09:13:23Z</time>
      </trkpt>
      <trkpt lat="45.9572" lon="4.76004">
        <ele>185</ele>
        <time>2018-06-09T09:13:24Z</time>
      </trkpt>
      <trkpt lat="45.95722" lon="4.7601">
        <ele>185</ele>
        <time>2018-06-09T09:13:25Z</time>
      </trkpt>
      <trkpt lat="45.95725" lon="4.76017">
        <ele>185</ele>
        <time>2018-06-09T09:13:26Z</time>
      </trkpt>
      <trkpt lat="45.95728" lon="4.76026">
        <ele>184</ele>
        <time>2018-06-09T09:13:27Z</time>
      </trkpt>
      <trkpt lat="45.95732" lon="4.76033">
        <ele>184</ele>
        <time>2018-06-09T09:13:28Z</time>
      </trkpt>
      <trkpt lat="45.95735" lon="4.76041">
        <ele>184</ele>
        <time>2018-06-09T09:13:29Z</time>
      </trkpt>
      <trkpt lat="45.95738" lon="4.76048">
        <ele>184</ele>
        <time>2018-06-09T09:13:30Z</time>
      </trkpt>
      <trkpt lat="45.95739" lon="4.76054">
        <ele>184</ele>
        <time>2018-06-09T09:13:31Z</time>
      </trkpt>
      <trkpt lat="45.95742" lon="4.7606">
        <ele>184</ele>
        <time>2018-06-09T09:13:32Z</time>
      </trkpt>
      <trkpt lat="45.95745" lon="4.76067">
        <ele>185</ele>
        <time>2018-06-09T09:13:33Z</time>
      </trkpt>
      <trkpt lat="45.95748" lon="4.76075">
        <ele>185</ele>
        <time>2018-06-09T09:13:34Z</time>
      </trkpt>
      <trkpt lat="45.95751" lon="4.76082">
        <ele>185</ele>
        <time>2018-06-09T09:13:35Z</time>
      </trkpt>
      <trkpt lat="45.95753" lon="4.7609">
        <ele>185</ele>
        <time>2018-06-09T09:13:36Z</time>
      </trkpt>
      <trkpt lat="45.95756" lon="4.76098">
        <ele>186</ele>
        <time>2018-06-09T09:13:37Z</time>
      </trkpt>
      <trkpt lat="45.95757" lon="4.76106">
        <ele>186</ele>
        <time>2018-06-09T09:13:38Z</time>
      </trkpt>
      <trkpt lat="45.95759" lon="4.76114">
        <ele>186</ele>
        <time>2018-06-09T09:13:39Z</time>
      </trkpt>
      <trkpt lat="45.9576" lon="4.76123">
        <ele>186</ele>
        <time>2018-06-09T09:13:40Z</time>
      </trkpt>
      <trkpt lat="45.95762" lon="4.76131">
        <ele>186</ele>
        <time>2018-06-09T09:13:41Z</time>
      </trkpt>
      <trkpt lat="45.95762" lon="4.76139">
        <ele>186</ele>
        <time>2018-06-09T09:13:42Z</time>
      </trkpt>
      <trkpt lat="45.95762" lon="4.76149">
        <ele>186</ele>
        <time>2018-06-09T09:13:43Z</time>
      </trkpt>
      <trkpt lat="45.95763" lon="4.76158">
        <ele>186</ele>
        <time>2018-06-09T09:13:44Z</time>
      </trkpt>
      <trkpt lat="45.95764" lon="4.76166">
        <ele>186</ele>
        <time>2018-06-09T09:13:45Z</time>
      </trkpt>
      <trkpt lat="45.95765" lon="4.76175">
        <ele>186</ele>
        <time>2018-06-09T09:13:46Z</time>
      </trkpt>
      <trkpt lat="45.95767" lon="4.76184">
        <ele>186</ele>
        <time>2018-06-09T09:13:47Z</time>
      </trkpt>
      <trkpt lat="45.95768" lon="4.76191">
        <ele>186</ele>
        <time>2018-06-09T09:13:48Z</time>
      </trkpt>
      <trkpt lat="45.95768" lon="4.76197">
        <ele>186</ele>
        <time>2018-06-09T09:13:49Z</time>
      </trkpt>
      <trkpt lat="45.95768" lon="4.76205">
        <ele>186</ele>
        <time>2018-06-09T09:13:50Z</time>
      </trkpt>
      <trkpt lat="45.95769" lon="4.76212">
        <ele>186</ele>
        <time>2018-06-09T09:13:51Z</time>
      </trkpt>
      <trkpt lat="45.95769" lon="4.7622">
        <ele>186</ele>
        <time>2018-06-09T09:13:52Z</time>
      </trkpt>
      <trkpt lat="45.95768" lon="4.7623">
        <ele>186</ele>
        <time>2018-06-09T09:13:53Z</time>
      </trkpt>
      <trkpt lat="45.95769" lon="4.76238">
        <ele>186</ele>
        <time>2018-06-09T09:13:54Z</time>
      </trkpt>
      <trkpt lat="45.95769" lon="4.76246">
        <ele>186</ele>
        <time>2018-06-09T09:13:55Z</time>
      </trkpt>
      <trkpt lat="45.95769" lon="4.76254">
        <ele>185</ele>
        <time>2018-06-09T09:13:56Z</time>
      </trkpt>
      <trkpt lat="45.9577" lon="4.76263">
        <ele>186</ele>
        <time>2018-06-09T09:13:57Z</time>
      </trkpt>
      <trkpt lat="45.9577" lon="4.76272">
        <ele>186</ele>
        <time>2018-06-09T09:13:58Z</time>
      </trkpt>
      <trkpt lat="45.95771" lon="4.7628">
        <ele>186</ele>
        <time>2018-06-09T09:13:59Z</time>
      </trkpt>
      <trkpt lat="45.9577" lon="4.76289">
        <ele>186</ele>
        <time>2018-06-09T09:14:00Z</time>
      </trkpt>
      <trkpt lat="45.95771" lon="4.76298">
        <ele>186</ele>
        <time>2018-06-09T09:14:01Z</time>
      </trkpt>
      <trkpt lat="45.95772" lon="4.76305">
        <ele>186</ele>
        <time>2018-06-09T09:14:02Z</time>
      </trkpt>
      <trkpt lat="45.95773" lon="4.76313">
        <ele>186</ele>
        <time>2018-06-09T09:14:03Z</time>
      </trkpt>
      <trkpt lat="45.95774" lon="4.7632">
        <ele>185</ele>
        <time>2018-06-09T09:14:04Z</time>
      </trkpt>
      <trkpt lat="45.95773" lon="4.76327">
        <ele>185</ele>
        <time>2018-06-09T09:14:05Z</time>
      </trkpt>
      <trkpt lat="45.95773" lon="4.76334">
        <ele>186</ele>
        <time>2018-06-09T09:14:06Z</time>
      </trkpt>
      <trkpt lat="45.95772" lon="4.76343">
        <ele>186</ele>
        <time>2018-06-09T09:14:07Z</time>
      </trkpt>
      <trkpt lat="45.95773" lon="4.7635">
        <ele>186</ele>
        <time>2018-06-09T09:14:08Z</time>
      </trkpt>
      <trkpt lat="45.95773" lon="4.76358">
        <ele>186</ele>
        <time>2018-06-09T09:14:09Z</time>
      </trkpt>
      <trkpt lat="45.95775" lon="4.76368">
        <ele>186</ele>
        <time>2018-06-09T09:14:10Z</time>
      </trkpt>
      <trkpt lat="45.95775" lon="4.76376">
        <ele>186</ele>
        <time>2018-06-09T09:14:11Z</time>
      </trkpt>
      <trkpt lat="45.95775" lon="4.76383">
        <ele>186</ele>
        <time>2018-06-09T09:14:12Z</time>
      </trkpt>
      <trkpt lat="45.95775" lon="4.76389">
        <ele>186</ele>
        <time>2018-06-09T09:14:13Z</time>
      </trkpt>
      <trkpt lat="45.95776" lon="4.76397">
        <ele>186</ele>
        <time>2018-06-09T09:14:14Z</time>
      </trkpt>
      <trkpt lat="45.95777" lon="4.76404">
        <ele>186</ele>
        <time>2018-06-09T09:14:15Z</time>
      </trkpt>
      <trkpt lat="45.95779" lon="4.76411">
        <ele>186</ele>
        <time>2018-06-09T09:14:16Z</time>
      </trkpt>
      <trkpt lat="45.9578" lon="4.76419">
        <ele>186</ele>
        <time>2018-06-09T09:14:17Z</time>
      </trkpt>
      <trkpt lat="45.9578" lon="4.76426">
        <ele>186</ele>
        <time>2018-06-09T09:14:18Z</time>
      </trkpt>
      <trkpt lat="45.95781" lon="4.76434">
        <ele>186</ele>
        <time>2018-06-09T09:14:19Z</time>
      </trkpt>
      <trkpt lat="45.95782" lon="4.76442">
        <ele>186</ele>
        <time>2018-06-09T09:14:20Z</time>
      </trkpt>
      <trkpt lat="45.95784" lon="4.76449">
        <ele>186</ele>
        <time>2018-06-09T09:14:21Z</time>
      </trkpt>
      <trkpt lat="45.95785" lon="4.76457">
        <ele>186</ele>
        <time>2018-06-09T09:14:22Z</time>
      </trkpt>
      <trkpt lat="45.95786" lon="4.76466">
        <ele>186</ele>
        <time>2018-06-09T09:14:23Z</time>
      </trkpt>
      <trkpt lat="45.95787" lon="4.76474">
        <ele>186</ele>
        <time>2018-06-09T09:14:24Z</time>
      </trkpt>
      <trkpt lat="45.95788" lon="4.76481">
        <ele>186</ele>
        <time>2018-06-09T09:14:25Z</time>
      </trkpt>
      <trkpt lat="45.95788" lon="4.76489">
        <ele>186</ele>
        <time>2018-06-09T09:14:26Z</time>
      </trkpt>
      <trkpt lat="45.9579" lon="4.76497">
        <ele>186</ele>
        <time>2018-06-09T09:14:27Z</time>
      </trkpt>
      <trkpt lat="45.95791" lon="4.76503">
        <ele>187</ele>
        <time>2018-06-09T09:14:28Z</time>
      </trkpt>
      <trkpt lat="45.95792" lon="4.76511">
        <ele>187</ele>
        <time>2018-06-09T09:14:29Z</time>
      </trkpt>
      <trkpt lat="45.95793" lon="4.76518">
        <ele>187</ele>
        <time>2018-06-09T09:14:30Z</time>
      </trkpt>
      <trkpt lat="45.95794" lon="4.76526">
        <ele>187</ele>
        <time>2018-06-09T09:14:31Z</time>
      </trkpt>
      <trkpt lat="45.95795" lon="4.76532">
        <ele>187</ele>
        <time>2018-06-09T09:14:32Z</time>
      </trkpt>
      <trkpt lat="45.95795" lon="4.76541">
        <ele>187</ele>
        <time>2018-06-09T09:14:33Z</time>
      </trkpt>
      <trkpt lat="45.95797" lon="4.76549">
        <ele>187</ele>
        <time>2018-06-09T09:14:34Z</time>
      </trkpt>
      <trkpt lat="45.95798" lon="4.76555">
        <ele>187</ele>
        <time>2018-06-09T09:14:35Z</time>
      </trkpt>
      <trkpt lat="45.95798" lon="4.76562">
        <ele>187</ele>
        <time>2018-06-09T09:14:36Z</time>
      </trkpt>
      <trkpt lat="45.958" lon="4.7657">
        <ele>187</ele>
        <time>2018-06-09T09:14:37Z</time>
      </trkpt>
      <trkpt lat="45.95801" lon="4.76577">
        <ele>187</ele>
        <time>2018-06-09T09:14:38Z</time>
      </trkpt>
      <trkpt lat="45.95803" lon="4.76585">
        <ele>187</ele>
        <time>2018-06-09T09:14:39Z</time>
      </trkpt>
      <trkpt lat="45.95804" lon="4.76594">
        <ele>188</ele>
        <time>2018-06-09T09:14:40Z</time>
      </trkpt>
      <trkpt lat="45.95805" lon="4.76602">
        <ele>188</ele>
        <time>2018-06-09T09:14:41Z</time>
      </trkpt>
      <trkpt lat="45.95806" lon="4.7661">
        <ele>188</ele>
        <time>2018-06-09T09:14:42Z</time>
      </trkpt>
      <trkpt lat="45.95807" lon="4.76618">
        <ele>188</ele>
        <time>2018-06-09T09:14:43Z</time>
      </trkpt>
      <trkpt lat="45.95808" lon="4.76626">
        <ele>188</ele>
        <time>2018-06-09T09:14:44Z</time>
      </trkpt>
      <trkpt lat="45.95809" lon="4.76634">
        <ele>188</ele>
        <time>2018-06-09T09:14:45Z</time>
      </trkpt>
      <trkpt lat="45.95811" lon="4.76642">
        <ele>188</ele>
        <time>2018-06-09T09:14:46Z</time>
      </trkpt>
      <trkpt lat="45.95811" lon="4.76651">
        <ele>188</ele>
        <time>2018-06-09T09:14:47Z</time>
      </trkpt>
      <trkpt lat="45.95813" lon="4.76658">
        <ele>188</ele>
        <time>2018-06-09T09:14:48Z</time>
      </trkpt>
      <trkpt lat="45.95814" lon="4.76667">
        <ele>188</ele>
        <time>2018-06-09T09:14:49Z</time>
      </trkpt>
      <trkpt lat="45.95816" lon="4.76676">
        <ele>189</ele>
        <time>2018-06-09T09:14:50Z</time>
      </trkpt>
      <trkpt lat="45.95819" lon="4.76683">
        <ele>189</ele>
        <time>2018-06-09T09:14:51Z</time>
      </trkpt>
      <trkpt lat="45.9582" lon="4.76691">
        <ele>189</ele>
        <time>2018-06-09T09:14:52Z</time>
      </trkpt>
      <trkpt lat="45.95821" lon="4.76699">
        <ele>189</ele>
        <time>2018-06-09T09:14:53Z</time>
      </trkpt>
      <trkpt lat="45.9582" lon="4.76705">
        <ele>189</ele>
        <time>2018-06-09T09:14:54Z</time>
      </trkpt>
      <trkpt lat="45.95821" lon="4.76713">
        <ele>189</ele>
        <time>2018-06-09T09:14:55Z</time>
      </trkpt>
      <trkpt lat="45.95821" lon="4.76718">
        <ele>189</ele>
        <time>2018-06-09T09:14:56Z</time>
      </trkpt>
      <trkpt lat="45.95823" lon="4.76726">
        <ele>190</ele>
        <time>2018-06-09T09:14:57Z</time>
      </trkpt>
      <trkpt lat="45.95823" lon="4.76732">
        <ele>190</ele>
        <time>2018-06-09T09:14:58Z</time>
      </trkpt>
      <trkpt lat="45.95824" lon="4.7674">
        <ele>190</ele>
        <time>2018-06-09T09:14:59Z</time>
      </trkpt>
      <trkpt lat="45.95825" lon="4.76749">
        <ele>190</ele>
        <time>2018-06-09T09:15:00Z</time>
      </trkpt>
      <trkpt lat="45.95827" lon="4.76756">
        <ele>191</ele>
        <time>2018-06-09T09:15:01Z</time>
      </trkpt>
      <trkpt lat="45.9583" lon="4.76763">
        <ele>190</ele>
        <time>2018-06-09T09:15:02Z</time>
      </trkpt>
      <trkpt lat="45.95832" lon="4.76769">
        <ele>190</ele>
        <time>2018-06-09T09:15:03Z</time>
      </trkpt>
      <trkpt lat="45.95833" lon="4.76777">
        <ele>190</ele>
        <time>2018-06-09T09:15:04Z</time>
      </trkpt>
      <trkpt lat="45.95834" lon="4.76784">
        <ele>191</ele>
        <time>2018-06-09T09:15:05Z</time>
      </trkpt>
      <trkpt lat="45.95834" lon="4.76792">
        <ele>191</ele>
        <time>2018-06-09T09:15:06Z</time>
      </trkpt>
      <trkpt lat="45.95834" lon="4.76799">
        <ele>191</ele>
        <time>2018-06-09T09:15:07Z</time>
      </trkpt>
      <trkpt lat="45.95834" lon="4.76808">
        <ele>190</ele>
        <time>2018-06-09T09:15:08Z</time>
      </trkpt>
      <trkpt lat="45.95833" lon="4.76817">
        <ele>190</ele>
        <time>2018-06-09T09:15:09Z</time>
      </trkpt>
      <trkpt lat="45.95833" lon="4.76824">
        <ele>190</ele>
        <time>2018-06-09T09:15:10Z</time>
      </trkpt>
      <trkpt lat="45.95833" lon="4.76833">
        <ele>190</ele>
        <time>2018-06-09T09:15:11Z</time>
      </trkpt>
      <trkpt lat="45.95831" lon="4.76842">
        <ele>190</ele>
        <time>2018-06-09T09:15:12Z</time>
      </trkpt>
      <trkpt lat="45.95831" lon="4.76851">
        <ele>190</ele>
        <time>2018-06-09T09:15:13Z</time>
      </trkpt>
      <trkpt lat="45.95829" lon="4.7686">
        <ele>189</ele>
        <time>2018-06-09T09:15:14Z</time>
      </trkpt>
      <trkpt lat="45.95827" lon="4.76868">
        <ele>189</ele>
        <time>2018-06-09T09:15:15Z</time>
      </trkpt>
      <trkpt lat="45.95826" lon="4.76876">
        <ele>189</ele>
        <time>2018-06-09T09:15:16Z</time>
      </trkpt>
      <trkpt lat="45.95824" lon="4.76883">
        <ele>189</ele>
        <time>2018-06-09T09:15:17Z</time>
      </trkpt>
      <trkpt lat="45.95823" lon="4.7689">
        <ele>189</ele>
        <time>2018-06-09T09:15:18Z</time>
      </trkpt>
      <trkpt lat="45.95821" lon="4.76897">
        <ele>189</ele>
        <time>2018-06-09T09:15:19Z</time>
      </trkpt>
      <trkpt lat="45.9582" lon="4.76907">
        <ele>189</ele>
        <time>2018-06-09T09:15:20Z</time>
      </trkpt>
      <trkpt lat="45.95818" lon="4.76914">
        <ele>189</ele>
        <time>2018-06-09T09:15:21Z</time>
      </trkpt>
      <trkpt lat="45.95817" lon="4.76922">
        <ele>189</ele>
        <time>2018-06-09T09:15:22Z</time>
      </trkpt>
      <trkpt lat="45.95815" lon="4.76929">
        <ele>189</ele>
        <time>2018-06-09T09:15:23Z</time>
      </trkpt>
      <trkpt lat="45.95814" lon="4.76937">
        <ele>189</ele>
        <time>2018-06-09T09:15:24Z</time>
      </trkpt>
      <trkpt lat="45.95812" lon="4.76944">
        <ele>189</ele>
        <time>2018-06-09T09:15:25Z</time>
      </trkpt>
      <trkpt lat="45.9581" lon="4.76951">
        <ele>189</ele>
        <time>2018-06-09T09:15:26Z</time>
      </trkpt>
      <trkpt lat="45.95809" lon="4.76959">
        <ele>189</ele>
        <time>2018-06-09T09:15:27Z</time>
      </trkpt>
      <trkpt lat="45.95807" lon="4.76963">
        <ele>189</ele>
        <time>2018-06-09T09:15:28Z</time>
      </trkpt>
      <trkpt lat="45.95806" lon="4.76971">
        <ele>189</ele>
        <time>2018-06-09T09:15:29Z</time>
      </trkpt>
      <trkpt lat="45.95805" lon="4.76978">
        <ele>189</ele>
        <time>2018-06-09T09:15:30Z</time>
      </trkpt>
      <trkpt lat="45.95805" lon="4.76986">
        <ele>189</ele>
        <time>2018-06-09T09:15:31Z</time>
      </trkpt>
      <trkpt lat="45.95804" lon="4.76992">
        <ele>190</ele>
        <time>2018-06-09T09:15:32Z</time>
      </trkpt>
      <trkpt lat="45.95804" lon="4.76999">
        <ele>190</ele>
        <time>2018-06-09T09:15:33Z</time>
      </trkpt>
      <trkpt lat="45.95805" lon="4.77007">
        <ele>190</ele>
        <time>2018-06-09T09:15:34Z</time>
      </trkpt>
      <trkpt lat="45.95806" lon="4.77014">
        <ele>190</ele>
        <time>2018-06-09T09:15:35Z</time>
      </trkpt>
      <trkpt lat="45.95807" lon="4.77019">
        <ele>190</ele>
        <time>2018-06-09T09:15:36Z</time>
      </trkpt>
      <trkpt lat="45.95808" lon="4.77026">
        <ele>190</ele>
        <time>2018-06-09T09:15:37Z</time>
      </trkpt>
      <trkpt lat="45.95809" lon="4.77032">
        <ele>190</ele>
        <time>2018-06-09T09:15:38Z</time>
      </trkpt>
      <trkpt lat="45.95812" lon="4.77039">
        <ele>190</ele>
        <time>2018-06-09T09:15:39Z</time>
      </trkpt>
      <trkpt lat="45.95815" lon="4.77046">
        <ele>190</ele>
        <time>2018-06-09T09:15:40Z</time>
      </trkpt>
      <trkpt lat="45.95817" lon="4.77051">
        <ele>190</ele>
        <time>2018-06-09T09:15:41Z</time>
      </trkpt>
      <trkpt lat="45.9582" lon="4.77058">
        <ele>190</ele>
        <time>2018-06-09T09:15:42Z</time>
      </trkpt>
      <trkpt lat="45.95823" lon="4.77065">
        <ele>191</ele>
        <time>2018-06-09T09:15:43Z</time>
      </trkpt>
      <trkpt lat="45.95826" lon="4.77073">
        <ele>191</ele>
        <time>2018-06-09T09:15:44Z</time>
      </trkpt>
      <trkpt lat="45.95829" lon="4.7708">
        <ele>192</ele>
        <time>2018-06-09T09:15:45Z</time>
      </trkpt>
      <trkpt lat="45.95832" lon="4.77088">
        <ele>191</ele>
        <time>2018-06-09T09:15:46Z</time>
      </trkpt>
      <trkpt lat="45.95835" lon="4.77095">
        <ele>193</ele>
        <time>2018-06-09T09:15:47Z</time>
      </trkpt>
      <trkpt lat="45.95838" lon="4.77103">
        <ele>193</ele>
        <time>2018-06-09T09:15:48Z</time>
      </trkpt>
      <trkpt lat="45.95843" lon="4.7711">
        <ele>193</ele>
        <time>2018-06-09T09:15:49Z</time>
      </trkpt>
      <trkpt lat="45.95845" lon="4.77117">
        <ele>193</ele>
        <time>2018-06-09T09:15:50Z</time>
      </trkpt>
      <trkpt lat="45.95848" lon="4.77125">
        <ele>193</ele>
        <time>2018-06-09T09:15:51Z</time>
      </trkpt>
      <trkpt lat="45.95849" lon="4.77133">
        <ele>193</ele>
        <time>2018-06-09T09:15:52Z</time>
      </trkpt>
      <trkpt lat="45.95851" lon="4.7714">
        <ele>193</ele>
        <time>2018-06-09T09:15:53Z</time>
      </trkpt>
      <trkpt lat="45.95853" lon="4.77147">
        <ele>193</ele>
        <time>2018-06-09T09:15:54Z</time>
      </trkpt>
      <trkpt lat="45.95854" lon="4.77155">
        <ele>192</ele>
        <time>2018-06-09T09:15:55Z</time>
      </trkpt>
      <trkpt lat="45.95856" lon="4.77163">
        <ele>192</ele>
        <time>2018-06-09T09:15:56Z</time>
      </trkpt>
      <trkpt lat="45.95858" lon="4.7717">
        <ele>192</ele>
        <time>2018-06-09T09:15:57Z</time>
      </trkpt>
      <trkpt lat="45.95859" lon="4.77177">
        <ele>192</ele>
        <time>2018-06-09T09:15:58Z</time>
      </trkpt>
      <trkpt lat="45.95861" lon="4.77184">
        <ele>192</ele>
        <time>2018-06-09T09:15:59Z</time>
      </trkpt>
      <trkpt lat="45.95865" lon="4.77189">
        <ele>193</ele>
        <time>2018-06-09T09:16:00Z</time>
      </trkpt>
      <trkpt lat="45.95867" lon="4.77197">
        <ele>193</ele>
        <time>2018-06-09T09:16:01Z</time>
      </trkpt>
      <trkpt lat="45.95868" lon="4.77204">
        <ele>193</ele>
        <time>2018-06-09T09:16:02Z</time>
      </trkpt>
      <trkpt lat="45.9587" lon="4.77217">
        <ele>193</ele>
        <time>2018-06-09T09:16:04Z</time>
      </trkpt>
      <trkpt lat="45.95872" lon="4.77223">
        <ele>193</ele>
        <time>2018-06-09T09:16:05Z</time>
      </trkpt>
      <trkpt lat="45.95872" lon="4.77232">
        <ele>193</ele>
        <time>2018-06-09T09:16:06Z</time>
      </trkpt>
      <trkpt lat="45.95874" lon="4.77239">
        <ele>193</ele>
        <time>2018-06-09T09:16:07Z</time>
      </trkpt>
      <trkpt lat="45.95878" lon="4.7725">
        <ele>193</ele>
        <time>2018-06-09T09:16:09Z</time>
      </trkpt>
      <trkpt lat="45.95879" lon="4.77258">
        <ele>193</ele>
        <time>2018-06-09T09:16:10Z</time>
      </trkpt>
      <trkpt lat="45.95881" lon="4.77265">
        <ele>193</ele>
        <time>2018-06-09T09:16:11Z</time>
      </trkpt>
      <trkpt lat="45.95883" lon="4.77273">
        <ele>193</ele>
        <time>2018-06-09T09:16:12Z</time>
      </trkpt>
      <trkpt lat="45.95884" lon="4.7728">
        <ele>193</ele>
        <time>2018-06-09T09:16:13Z</time>
      </trkpt>
      <trkpt lat="45.95885" lon="4.77287">
        <ele>193</ele>
        <time>2018-06-09T09:16:14Z</time>
      </trkpt>
      <trkpt lat="45.95887" lon="4.77295">
        <ele>193</ele>
        <time>2018-06-09T09:16:15Z</time>
      </trkpt>
      <trkpt lat="45.95889" lon="4.77302">
        <ele>193</ele>
        <time>2018-06-09T09:16:16Z</time>
      </trkpt>
      <trkpt lat="45.95891" lon="4.7731">
        <ele>193</ele>
        <time>2018-06-09T09:16:17Z</time>
      </trkpt>
      <trkpt lat="45.95893" lon="4.77317">
        <ele>193</ele>
        <time>2018-06-09T09:16:18Z</time>
      </trkpt>
      <trkpt lat="45.95896" lon="4.77327">
        <ele>193</ele>
        <time>2018-06-09T09:16:20Z</time>
      </trkpt>
      <trkpt lat="45.95899" lon="4.77333">
        <ele>193</ele>
        <time>2018-06-09T09:16:21Z</time>
      </trkpt>
      <trkpt lat="45.95902" lon="4.77345">
        <ele>193</ele>
        <time>2018-06-09T09:16:23Z</time>
      </trkpt>
      <trkpt lat="45.95904" lon="4.77349">
        <ele>193</ele>
        <time>2018-06-09T09:16:24Z</time>
      </trkpt>
      <trkpt lat="45.95909" lon="4.77359">
        <ele>193</ele>
        <time>2018-06-09T09:16:26Z</time>
      </trkpt>
      <trkpt lat="45.95911" lon="4.77365">
        <ele>193</ele>
        <time>2018-06-09T09:16:27Z</time>
      </trkpt>
      <trkpt lat="45.95913" lon="4.77371">
        <ele>193</ele>
        <time>2018-06-09T09:16:28Z</time>
      </trkpt>
      <trkpt lat="45.95914" lon="4.77378">
        <ele>193</ele>
        <time>2018-06-09T09:16:29Z</time>
      </trkpt>
      <trkpt lat="45.95917" lon="4.77384">
        <ele>196</ele>
        <time>2018-06-09T09:16:30Z</time>
      </trkpt>
      <trkpt lat="45.95919" lon="4.77392">
        <ele>196</ele>
        <time>2018-06-09T09:16:31Z</time>
      </trkpt>
      <trkpt lat="45.95922" lon="4.77399">
        <ele>196</ele>
        <time>2018-06-09T09:16:32Z</time>
      </trkpt>
      <trkpt lat="45.95923" lon="4.77405">
        <ele>195</ele>
        <time>2018-06-09T09:16:33Z</time>
      </trkpt>
      <trkpt lat="45.95925" lon="4.77412">
        <ele>195</ele>
        <time>2018-06-09T09:16:34Z</time>
      </trkpt>
      <trkpt lat="45.95928" lon="4.77418">
        <ele>195</ele>
        <time>2018-06-09T09:16:35Z</time>
      </trkpt>
      <trkpt lat="45.95931" lon="4.77428">
        <ele>195</ele>
        <time>2018-06-09T09:16:37Z</time>
      </trkpt>
      <trkpt lat="45.95933" lon="4.77434">
        <ele>195</ele>
        <time>2018-06-09T09:16:38Z</time>
      </trkpt>
      <trkpt lat="45.95936" lon="4.77446">
        <ele>195</ele>
        <time>2018-06-09T09:16:40Z</time>
      </trkpt>
      <trkpt lat="45.95938" lon="4.77451">
        <ele>196</ele>
        <time>2018-06-09T09:16:41Z</time>
      </trkpt>
      <trkpt lat="45.95942" lon="4.7746">
        <ele>196</ele>
        <time>2018-06-09T09:16:43Z</time>
      </trkpt>
      <trkpt lat="45.95944" lon="4.77466">
        <ele>195</ele>
        <time>2018-06-09T09:16:44Z</time>
      </trkpt>
      <trkpt lat="45.95948" lon="4.77478">
        <ele>195</ele>
        <time>2018-06-09T09:16:46Z</time>
      </trkpt>
      <trkpt lat="45.95949" lon="4.77483">
        <ele>195</ele>
        <time>2018-06-09T09:16:47Z</time>
      </trkpt>
      <trkpt lat="45.95953" lon="4.77494">
        <ele>196</ele>
        <time>2018-06-09T09:16:49Z</time>
      </trkpt>
      <trkpt lat="45.95956" lon="4.77499">
        <ele>196</ele>
        <time>2018-06-09T09:16:50Z</time>
      </trkpt>
      <trkpt lat="45.95958" lon="4.77504">
        <ele>195</ele>
        <time>2018-06-09T09:16:51Z</time>
      </trkpt>
      <trkpt lat="45.95961" lon="4.77509">
        <ele>195</ele>
        <time>2018-06-09T09:16:52Z</time>
      </trkpt>
      <trkpt lat="45.95963" lon="4.77515">
        <ele>195</ele>
        <time>2018-06-09T09:16:53Z</time>
      </trkpt>
      <trkpt lat="45.95965" lon="4.77522">
        <ele>195</ele>
        <time>2018-06-09T09:16:54Z</time>
      </trkpt>
      <trkpt lat="45.9597" lon="4.77532">
        <ele>195</ele>
        <time>2018-06-09T09:16:56Z</time>
      </trkpt>
      <trkpt lat="45.95972" lon="4.77537">
        <ele>195</ele>
        <time>2018-06-09T09:16:57Z</time>
      </trkpt>
      <trkpt lat="45.95975" lon="4.77543">
        <ele>195</ele>
        <time>2018-06-09T09:16:59Z</time>
      </trkpt>
      <trkpt lat="45.95978" lon="4.7755">
        <ele>195</ele>
        <time>2018-06-09T09:17:00Z</time>
      </trkpt>
      <trkpt lat="45.9598" lon="4.77556">
        <ele>196</ele>
        <time>2018-06-09T09:17:01Z</time>
      </trkpt>
      <trkpt lat="45.95983" lon="4.77561">
        <ele>196</ele>
        <time>2018-06-09T09:17:02Z</time>
      </trkpt>
      <trkpt lat="45.95985" lon="4.77567">
        <ele>196</ele>
        <time>2018-06-09T09:17:03Z</time>
      </trkpt>
      <trkpt lat="45.95989" lon="4.77574">
        <ele>196</ele>
        <time>2018-06-09T09:17:04Z</time>
      </trkpt>
      <trkpt lat="45.95993" lon="4.77585">
        <ele>196</ele>
        <time>2018-06-09T09:17:06Z</time>
      </trkpt>
      <trkpt lat="45.95996" lon="4.77591">
        <ele>196</ele>
        <time>2018-06-09T09:17:07Z</time>
      </trkpt>
      <trkpt lat="45.96001" lon="4.77596">
        <ele>198</ele>
        <time>2018-06-09T09:17:08Z</time>
      </trkpt>
      <trkpt lat="45.96005" lon="4.776">
        <ele>198</ele>
        <time>2018-06-09T09:17:09Z</time>
      </trkpt>
      <trkpt lat="45.9601" lon="4.77606">
        <ele>199</ele>
        <time>2018-06-09T09:17:10Z</time>
      </trkpt>
      <trkpt lat="45.96014" lon="4.77613">
        <ele>199</ele>
        <time>2018-06-09T09:17:11Z</time>
      </trkpt>
      <trkpt lat="45.9602" lon="4.7762">
        <ele>199</ele>
        <time>2018-06-09T09:17:13Z</time>
      </trkpt>
      <trkpt lat="45.96024" lon="4.77625">
        <ele>199</ele>
        <time>2018-06-09T09:17:14Z</time>
      </trkpt>
      <trkpt lat="45.96027" lon="4.77629">
        <ele>199</ele>
        <time>2018-06-09T09:17:15Z</time>
      </trkpt>
      <trkpt lat="45.96031" lon="4.77634">
        <ele>199</ele>
        <time>2018-06-09T09:17:16Z</time>
      </trkpt>
      <trkpt lat="45.96039" lon="4.77641">
        <ele>199</ele>
        <time>2018-06-09T09:17:18Z</time>
      </trkpt>
      <trkpt lat="45.96042" lon="4.77647">
        <ele>199</ele>
        <time>2018-06-09T09:17:19Z</time>
      </trkpt>
      <trkpt lat="45.96048" lon="4.77654">
        <ele>200</ele>
        <time>2018-06-09T09:17:21Z</time>
      </trkpt>
      <trkpt lat="45.96052" lon="4.77659">
        <ele>200</ele>
        <time>2018-06-09T09:17:22Z</time>
      </trkpt>
      <trkpt lat="45.96055" lon="4.77663">
        <ele>200</ele>
        <time>2018-06-09T09:17:23Z</time>
      </trkpt>
      <trkpt lat="45.96059" lon="4.77668">
        <ele>198</ele>
        <time>2018-06-09T09:17:24Z</time>
      </trkpt>
      <trkpt lat="45.96064" lon="4.77676">
        <ele>198</ele>
        <time>2018-06-09T09:17:26Z</time>
      </trkpt>
      <trkpt lat="45.96067" lon="4.7768">
        <ele>198</ele>
        <time>2018-06-09T09:17:27Z</time>
      </trkpt>
      <trkpt lat="45.9607" lon="4.77685">
        <ele>198</ele>
        <time>2018-06-09T09:17:28Z</time>
      </trkpt>
      <trkpt lat="45.96074" lon="4.7769">
        <ele>198</ele>
        <time>2018-06-09T09:17:29Z</time>
      </trkpt>
      <trkpt lat="45.96078" lon="4.77696">
        <ele>197</ele>
        <time>2018-06-09T09:17:30Z</time>
      </trkpt>
      <trkpt lat="45.9608" lon="4.77703">
        <ele>197</ele>
        <time>2018-06-09T09:17:31Z</time>
      </trkpt>
      <trkpt lat="45.96084" lon="4.77708">
        <ele>200</ele>
        <time>2018-06-09T09:17:32Z</time>
      </trkpt>
      <trkpt lat="45.96088" lon="4.77713">
        <ele>200</ele>
        <time>2018-06-09T09:17:33Z</time>
      </trkpt>
      <trkpt lat="45.96091" lon="4.77719">
        <ele>199</ele>
        <time>2018-06-09T09:17:34Z</time>
      </trkpt>
      <trkpt lat="45.96094" lon="4.77724">
        <ele>199</ele>
        <time>2018-06-09T09:17:35Z</time>
      </trkpt>
      <trkpt lat="45.96097" lon="4.7773">
        <ele>199</ele>
        <time>2018-06-09T09:17:36Z</time>
      </trkpt>
      <trkpt lat="45.96099" lon="4.77735">
        <ele>198</ele>
        <time>2018-06-09T09:17:37Z</time>
      </trkpt>
      <trkpt lat="45.96102" lon="4.7774">
        <ele>198</ele>
        <time>2018-06-09T09:17:38Z</time>
      </trkpt>
      <trkpt lat="45.96105" lon="4.77747">
        <ele>198</ele>
        <time>2018-06-09T09:17:39Z</time>
      </trkpt>
      <trkpt lat="45.96109" lon="4.77752">
        <ele>197</ele>
        <time>2018-06-09T09:17:40Z</time>
      </trkpt>
      <trkpt lat="45.96113" lon="4.77757">
        <ele>197</ele>
        <time>2018-06-09T09:17:41Z</time>
      </trkpt>
      <trkpt lat="45.96117" lon="4.77763">
        <ele>197</ele>
        <time>2018-06-09T09:17:42Z</time>
      </trkpt>
      <trkpt lat="45.96121" lon="4.77769">
        <ele>197</ele>
        <time>2018-06-09T09:17:43Z</time>
      </trkpt>
      <trkpt lat="45.96125" lon="4.77774">
        <ele>198</ele>
        <time>2018-06-09T09:17:44Z</time>
      </trkpt>
      <trkpt lat="45.96131" lon="4.77779">
        <ele>198</ele>
        <time>2018-06-09T09:17:45Z</time>
      </trkpt>
      <trkpt lat="45.96137" lon="4.77788">
        <ele>198</ele>
        <time>2018-06-09T09:17:47Z</time>
      </trkpt>
      <trkpt lat="45.96138" lon="4.77794">
        <ele>198</ele>
        <time>2018-06-09T09:17:48Z</time>
      </trkpt>
      <trkpt lat="45.96143" lon="4.77799">
        <ele>198</ele>
        <time>2018-06-09T09:17:49Z</time>
      </trkpt>
      <trkpt lat="45.96145" lon="4.77806">
        <ele>198</ele>
        <time>2018-06-09T09:17:50Z</time>
      </trkpt>
      <trkpt lat="45.96149" lon="4.7781">
        <ele>198</ele>
        <time>2018-06-09T09:17:51Z</time>
      </trkpt>
      <trkpt lat="45.96152" lon="4.77815">
        <ele>198</ele>
        <time>2018-06-09T09:17:52Z</time>
      </trkpt>
      <trkpt lat="45.96156" lon="4.77821">
        <ele>198</ele>
        <time>2018-06-09T09:17:53Z</time>
      </trkpt>
      <trkpt lat="45.9616" lon="4.77828">
        <ele>198</ele>
        <time>2018-06-09T09:17:54Z</time>
      </trkpt>
      <trkpt lat="45.96163" lon="4.77833">
        <ele>199</ele>
        <time>2018-06-09T09:17:55Z</time>
      </trkpt>
      <trkpt lat="45.96166" lon="4.77838">
        <ele>198</ele>
        <time>2018-06-09T09:17:56Z</time>
      </trkpt>
      <trkpt lat="45.96168" lon="4.77842">
        <ele>200</ele>
        <time>2018-06-09T09:17:57Z</time>
      </trkpt>
      <trkpt lat="45.96172" lon="4.77849">
        <ele>201</ele>
        <time>2018-06-09T09:17:58Z</time>
      </trkpt>
      <trkpt lat="45.96176" lon="4.77856">
        <ele>201</ele>
        <time>2018-06-09T09:17:59Z</time>
      </trkpt>
      <trkpt lat="45.96179" lon="4.77863">
        <ele>201</ele>
        <time>2018-06-09T09:18:00Z</time>
      </trkpt>
      <trkpt lat="45.96184" lon="4.77869">
        <ele>201</ele>
        <time>2018-06-09T09:18:01Z</time>
      </trkpt>
      <trkpt lat="45.96186" lon="4.77873">
        <ele>201</ele>
        <time>2018-06-09T09:18:02Z</time>
      </trkpt>
      <trkpt lat="45.96189" lon="4.77879">
        <ele>201</ele>
        <time>2018-06-09T09:18:03Z</time>
      </trkpt>
      <trkpt lat="45.96192" lon="4.77885">
        <ele>201</ele>
        <time>2018-06-09T09:18:04Z</time>
      </trkpt>
      <trkpt lat="45.96195" lon="4.77891">
        <ele>201</ele>
        <time>2018-06-09T09:18:05Z</time>
      </trkpt>
      <trkpt lat="45.96197" lon="4.77896">
        <ele>201</ele>
        <time>2018-06-09T09:18:06Z</time>
      </trkpt>
      <trkpt lat="45.962" lon="4.77901">
        <ele>202</ele>
        <time>2018-06-09T09:18:07Z</time>
      </trkpt>
      <trkpt lat="45.96205" lon="4.77906">
        <ele>202</ele>
        <time>2018-06-09T09:18:08Z</time>
      </trkpt>
      <trkpt lat="45.96208" lon="4.77912">
        <ele>202</ele>
        <time>2018-06-09T09:18:09Z</time>
      </trkpt>
      <trkpt lat="45.96212" lon="4.77919">
        <ele>199</ele>
        <time>2018-06-09T09:18:10Z</time>
      </trkpt>
      <trkpt lat="45.96216" lon="4.77926">
        <ele>200</ele>
        <time>2018-06-09T09:18:11Z</time>
      </trkpt>
      <trkpt lat="45.96222" lon="4.77935">
        <ele>200</ele>
        <time>2018-06-09T09:18:12Z</time>
      </trkpt>
      <trkpt lat="45.96224" lon="4.7794">
        <ele>200</ele>
        <time>2018-06-09T09:18:13Z</time>
      </trkpt>
      <trkpt lat="45.9623" lon="4.77943">
        <ele>200</ele>
        <time>2018-06-09T09:18:14Z</time>
      </trkpt>
      <trkpt lat="45.96234" lon="4.77948">
        <ele>200</ele>
        <time>2018-06-09T09:18:15Z</time>
      </trkpt>
      <trkpt lat="45.96239" lon="4.77952">
        <ele>200</ele>
        <time>2018-06-09T09:18:16Z</time>
      </trkpt>
      <trkpt lat="45.96243" lon="4.77957">
        <ele>199</ele>
        <time>2018-06-09T09:18:17Z</time>
      </trkpt>
      <trkpt lat="45.96248" lon="4.77962">
        <ele>199</ele>
        <time>2018-06-09T09:18:18Z</time>
      </trkpt>
      <trkpt lat="45.96251" lon="4.77961">
        <ele>204</ele>
        <time>2018-06-09T09:18:19Z</time>
      </trkpt>
      <trkpt lat="45.96257" lon="4.77969">
        <ele>204</ele>
        <time>2018-06-09T09:18:20Z</time>
      </trkpt>
      <trkpt lat="45.96263" lon="4.77974">
        <ele>203</ele>
        <time>2018-06-09T09:18:21Z</time>
      </trkpt>
      <trkpt lat="45.96269" lon="4.77982">
        <ele>203</ele>
        <time>2018-06-09T09:18:22Z</time>
      </trkpt>
      <trkpt lat="45.96276" lon="4.77989">
        <ele>203</ele>
        <time>2018-06-09T09:18:24Z</time>
      </trkpt>
      <trkpt lat="45.9628" lon="4.77993">
        <ele>203</ele>
        <time>2018-06-09T09:18:25Z</time>
      </trkpt>
      <trkpt lat="45.96286" lon="4.78002">
        <ele>199</ele>
        <time>2018-06-09T09:18:26Z</time>
      </trkpt>
      <trkpt lat="45.96292" lon="4.78007">
        <ele>199</ele>
        <time>2018-06-09T09:18:27Z</time>
      </trkpt>
      <trkpt lat="45.96297" lon="4.78014">
        <ele>199</ele>
        <time>2018-06-09T09:18:28Z</time>
      </trkpt>
      <trkpt lat="45.96303" lon="4.78016">
        <ele>200</ele>
        <time>2018-06-09T09:18:29Z</time>
      </trkpt>
      <trkpt lat="45.96306" lon="4.78021">
        <ele>200</ele>
        <time>2018-06-09T09:18:30Z</time>
      </trkpt>
      <trkpt lat="45.96311" lon="4.78024">
        <ele>200</ele>
        <time>2018-06-09T09:18:31Z</time>
      </trkpt>
      <trkpt lat="45.96313" lon="4.78027">
        <ele>200</ele>
        <time>2018-06-09T09:18:32Z</time>
      </trkpt>
      <trkpt lat="45.9632" lon="4.78035">
        <ele>200</ele>
        <time>2018-06-09T09:18:33Z</time>
      </trkpt>
      <trkpt lat="45.96328" lon="4.78039">
        <ele>200</ele>
        <time>2018-06-09T09:18:35Z</time>
      </trkpt>
      <trkpt lat="45.9633" lon="4.78042">
        <ele>199</ele>
        <time>2018-06-09T09:18:36Z</time>
      </trkpt>
      <trkpt lat="45.96332" lon="4.78046">
        <ele>199</ele>
        <time>2018-06-09T09:18:38Z</time>
      </trkpt>
      <trkpt lat="45.96337" lon="4.78055">
        <ele>202</ele>
        <time>2018-06-09T09:18:39Z</time>
      </trkpt>
      <trkpt lat="45.96341" lon="4.78059">
        <ele>202</ele>
        <time>2018-06-09T09:18:40Z</time>
      </trkpt>
      <trkpt lat="45.96346" lon="4.78062">
        <ele>202</ele>
        <time>2018-06-09T09:18:41Z</time>
      </trkpt>
      <trkpt lat="45.9635" lon="4.78067">
        <ele>202</ele>
        <time>2018-06-09T09:18:42Z</time>
      </trkpt>
      <trkpt lat="45.96353" lon="4.78073">
        <ele>202</ele>
        <time>2018-06-09T09:18:43Z</time>
      </trkpt>
      <trkpt lat="45.96358" lon="4.7808">
        <ele>202</ele>
        <time>2018-06-09T09:18:44Z</time>
      </trkpt>
      <trkpt lat="45.96363" lon="4.78086">
        <ele>199</ele>
        <time>2018-06-09T09:18:45Z</time>
      </trkpt>
      <trkpt lat="45.96367" lon="4.78091">
        <ele>199</ele>
        <time>2018-06-09T09:18:46Z</time>
      </trkpt>
      <trkpt lat="45.96371" lon="4.78095">
        <ele>199</ele>
        <time>2018-06-09T09:18:47Z</time>
      </trkpt>
      <trkpt lat="45.96375" lon="4.78099">
        <ele>200</ele>
        <time>2018-06-09T09:18:48Z</time>
      </trkpt>
      <trkpt lat="45.96379" lon="4.78102">
        <ele>200</ele>
        <time>2018-06-09T09:18:49Z</time>
      </trkpt>
      <trkpt lat="45.96385" lon="4.78106">
        <ele>200</ele>
        <time>2018-06-09T09:18:50Z</time>
      </trkpt>
      <trkpt lat="45.96388" lon="4.7811">
        <ele>200</ele>
        <time>2018-06-09T09:18:51Z</time>
      </trkpt>
      <trkpt lat="45.96392" lon="4.78115">
        <ele>200</ele>
        <time>2018-06-09T09:18:52Z</time>
      </trkpt>
      <trkpt lat="45.96397" lon="4.78119">
        <ele>200</ele>
        <time>2018-06-09T09:18:53Z</time>
      </trkpt>
      <trkpt lat="45.96401" lon="4.78125">
        <ele>200</ele>
        <time>2018-06-09T09:18:54Z</time>
      </trkpt>
      <trkpt lat="45.96407" lon="4.78131">
        <ele>199</ele>
        <time>2018-06-09T09:18:55Z</time>
      </trkpt>
      <trkpt lat="45.96411" lon="4.78137">
        <ele>199</ele>
        <time>2018-06-09T09:18:56Z</time>
      </trkpt>
      <trkpt lat="45.96416" lon="4.78139">
        <ele>199</ele>
        <time>2018-06-09T09:18:57Z</time>
      </trkpt>
      <trkpt lat="45.9642" lon="4.78144">
        <ele>202</ele>
        <time>2018-06-09T09:18:58Z</time>
      </trkpt>
      <trkpt lat="45.96427" lon="4.78149">
        <ele>202</ele>
        <time>2018-06-09T09:18:59Z</time>
      </trkpt>
      <trkpt lat="45.96433" lon="4.78154">
        <ele>202</ele>
        <time>2018-06-09T09:19:00Z</time>
      </trkpt>
      <trkpt lat="45.96439" lon="4.78159">
        <ele>203</ele>
        <time>2018-06-09T09:19:01Z</time>
      </trkpt>
      <trkpt lat="45.96445" lon="4.78162">
        <ele>203</ele>
        <time>2018-06-09T09:19:02Z</time>
      </trkpt>
      <trkpt lat="45.96449" lon="4.78165">
        <ele>203</ele>
        <time>2018-06-09T09:19:03Z</time>
      </trkpt>
      <trkpt lat="45.96456" lon="4.7817">
        <ele>200</ele>
        <time>2018-06-09T09:19:04Z</time>
      </trkpt>
      <trkpt lat="45.9646" lon="4.78174">
        <ele>200</ele>
        <time>2018-06-09T09:19:05Z</time>
      </trkpt>
      <trkpt lat="45.96465" lon="4.78178">
        <ele>200</ele>
        <time>2018-06-09T09:19:06Z</time>
      </trkpt>
      <trkpt lat="45.96469" lon="4.78182">
        <ele>200</ele>
        <time>2018-06-09T09:19:07Z</time>
      </trkpt>
      <trkpt lat="45.96475" lon="4.78185">
        <ele>201</ele>
        <time>2018-06-09T09:19:08Z</time>
      </trkpt>
      <trkpt lat="45.9648" lon="4.78187">
        <ele>201</ele>
        <time>2018-06-09T09:19:09Z</time>
      </trkpt>
      <trkpt lat="45.96485" lon="4.7819">
        <ele>201</ele>
        <time>2018-06-09T09:19:10Z</time>
      </trkpt>
      <trkpt lat="45.9649" lon="4.78192">
        <ele>201</ele>
        <time>2018-06-09T09:19:11Z</time>
      </trkpt>
      <trkpt lat="45.96494" lon="4.78196">
        <ele>201</ele>
        <time>2018-06-09T09:19:12Z</time>
      </trkpt>
      <trkpt lat="45.96498" lon="4.782">
        <ele>200</ele>
        <time>2018-06-09T09:19:13Z</time>
      </trkpt>
      <trkpt lat="45.96502" lon="4.78204">
        <ele>205</ele>
        <time>2018-06-09T09:19:14Z</time>
      </trkpt>
      <trkpt lat="45.96507" lon="4.78209">
        <ele>205</ele>
        <time>2018-06-09T09:19:15Z</time>
      </trkpt>
      <trkpt lat="45.9651" lon="4.78214">
        <ele>205</ele>
        <time>2018-06-09T09:19:16Z</time>
      </trkpt>
      <trkpt lat="45.96513" lon="4.7822">
        <ele>204</ele>
        <time>2018-06-09T09:19:17Z</time>
      </trkpt>
      <trkpt lat="45.96516" lon="4.78224">
        <ele>204</ele>
        <time>2018-06-09T09:19:18Z</time>
      </trkpt>
      <trkpt lat="45.9652" lon="4.78229">
        <ele>204</ele>
        <time>2018-06-09T09:19:19Z</time>
      </trkpt>
      <trkpt lat="45.96525" lon="4.78235">
        <ele>204</ele>
        <time>2018-06-09T09:19:20Z</time>
      </trkpt>
      <trkpt lat="45.96527" lon="4.78241">
        <ele>204</ele>
        <time>2018-06-09T09:19:21Z</time>
      </trkpt>
      <trkpt lat="45.9653" lon="4.78247">
        <ele>204</ele>
        <time>2018-06-09T09:19:22Z</time>
      </trkpt>
      <trkpt lat="45.96533" lon="4.78252">
        <ele>200</ele>
        <time>2018-06-09T09:19:23Z</time>
      </trkpt>
      <trkpt lat="45.96536" lon="4.78256">
        <ele>200</ele>
        <time>2018-06-09T09:19:24Z</time>
      </trkpt>
      <trkpt lat="45.96539" lon="4.78263">
        <ele>200</ele>
        <time>2018-06-09T09:19:25Z</time>
      </trkpt>
      <trkpt lat="45.96542" lon="4.78269">
        <ele>200</ele>
        <time>2018-06-09T09:19:26Z</time>
      </trkpt>
      <trkpt lat="45.96547" lon="4.78275">
        <ele>200</ele>
        <time>2018-06-09T09:19:27Z</time>
      </trkpt>
      <trkpt lat="45.9655" lon="4.7828">
        <ele>200</ele>
        <time>2018-06-09T09:19:28Z</time>
      </trkpt>
      <trkpt lat="45.96554" lon="4.78289">
        <ele>200</ele>
        <time>2018-06-09T09:19:29Z</time>
      </trkpt>
      <trkpt lat="45.96559" lon="4.78295">
        <ele>200</ele>
        <time>2018-06-09T09:19:30Z</time>
      </trkpt>
      <trkpt lat="45.96563" lon="4.78302">
        <ele>200</ele>
        <time>2018-06-09T09:19:31Z</time>
      </trkpt>
      <trkpt lat="45.96568" lon="4.78307">
        <ele>200</ele>
        <time>2018-06-09T09:19:32Z</time>
      </trkpt>
      <trkpt lat="45.96572" lon="4.78313">
        <ele>199</ele>
        <time>2018-06-09T09:19:33Z</time>
      </trkpt>
      <trkpt lat="45.96578" lon="4.78316">
        <ele>199</ele>
        <time>2018-06-09T09:19:34Z</time>
      </trkpt>
      <trkpt lat="45.96582" lon="4.7832">
        <ele>199</ele>
        <time>2018-06-09T09:19:35Z</time>
      </trkpt>
      <trkpt lat="45.96586" lon="4.78322">
        <ele>201</ele>
        <time>2018-06-09T09:19:36Z</time>
      </trkpt>
      <trkpt lat="45.96591" lon="4.78328">
        <ele>201</ele>
        <time>2018-06-09T09:19:37Z</time>
      </trkpt>
      <trkpt lat="45.96596" lon="4.78333">
        <ele>201</ele>
        <time>2018-06-09T09:19:38Z</time>
      </trkpt>
      <trkpt lat="45.96602" lon="4.78338">
        <ele>200</ele>
        <time>2018-06-09T09:19:39Z</time>
      </trkpt>
      <trkpt lat="45.96607" lon="4.78342">
        <ele>200</ele>
        <time>2018-06-09T09:19:40Z</time>
      </trkpt>
      <trkpt lat="45.96612" lon="4.78346">
        <ele>200</ele>
        <time>2018-06-09T09:19:41Z</time>
      </trkpt>
      <trkpt lat="45.96617" lon="4.7835">
        <ele>201</ele>
        <time>2018-06-09T09:19:42Z</time>
      </trkpt>
      <trkpt lat="45.96622" lon="4.78356">
        <ele>201</ele>
        <time>2018-06-09T09:19:43Z</time>
      </trkpt>
      <trkpt lat="45.96627" lon="4.78361">
        <ele>201</ele>
        <time>2018-06-09T09:19:44Z</time>
      </trkpt>
      <trkpt lat="45.96632" lon="4.78366">
        <ele>201</ele>
        <time>2018-06-09T09:19:45Z</time>
      </trkpt>
      <trkpt lat="45.96637" lon="4.78369">
        <ele>201</ele>
        <time>2018-06-09T09:19:46Z</time>
      </trkpt>
      <trkpt lat="45.96642" lon="4.78372">
        <ele>201</ele>
        <time>2018-06-09T09:19:47Z</time>
      </trkpt>
      <trkpt lat="45.96647" lon="4.78376">
        <ele>201</ele>
        <time>2018-06-09T09:19:48Z</time>
      </trkpt>
      <trkpt lat="45.96652" lon="4.78381">
        <ele>201</ele>
        <time>2018-06-09T09:19:49Z</time>
      </trkpt>
      <trkpt lat="45.96656" lon="4.78385">
        <ele>201</ele>
        <time>2018-06-09T09:19:50Z</time>
      </trkpt>
      <trkpt lat="45.9666" lon="4.7839">
        <ele>201</ele>
        <time>2018-06-09T09:19:51Z</time>
      </trkpt>
      <trkpt lat="45.96664" lon="4.78395">
        <ele>201</ele>
        <time>2018-06-09T09:19:52Z</time>
      </trkpt>
      <trkpt lat="45.96669" lon="4.78399">
        <ele>204</ele>
        <time>2018-06-09T09:19:53Z</time>
      </trkpt>
      <trkpt lat="45.96673" lon="4.78403">
        <ele>204</ele>
        <time>2018-06-09T09:19:54Z</time>
      </trkpt>
      <trkpt lat="45.96677" lon="4.78407">
        <ele>203</ele>
        <time>2018-06-09T09:19:55Z</time>
      </trkpt>
      <trkpt lat="45.96682" lon="4.7841">
        <ele>204</ele>
        <time>2018-06-09T09:19:56Z</time>
      </trkpt>
      <trkpt lat="45.96687" lon="4.78413">
        <ele>204</ele>
        <time>2018-06-09T09:19:57Z</time>
      </trkpt>
      <trkpt lat="45.9669" lon="4.78418">
        <ele>202</ele>
        <time>2018-06-09T09:19:58Z</time>
      </trkpt>
      <trkpt lat="45.96693" lon="4.78422">
        <ele>202</ele>
        <time>2018-06-09T09:19:59Z</time>
      </trkpt>
      <trkpt lat="45.96699" lon="4.78431">
        <ele>203</ele>
        <time>2018-06-09T09:20:01Z</time>
      </trkpt>
      <trkpt lat="45.96703" lon="4.78434">
        <ele>203</ele>
        <time>2018-06-09T09:20:02Z</time>
      </trkpt>
      <trkpt lat="45.96708" lon="4.78443">
        <ele>203</ele>
        <time>2018-06-09T09:20:04Z</time>
      </trkpt>
      <trkpt lat="45.96713" lon="4.78449">
        <ele>203</ele>
        <time>2018-06-09T09:20:05Z</time>
      </trkpt>
      <trkpt lat="45.96719" lon="4.78452">
        <ele>203</ele>
        <time>2018-06-09T09:20:06Z</time>
      </trkpt>
      <trkpt lat="45.96722" lon="4.78455">
        <ele>203</ele>
        <time>2018-06-09T09:20:07Z</time>
      </trkpt>
      <trkpt lat="45.96727" lon="4.78461">
        <ele>203</ele>
        <time>2018-06-09T09:20:08Z</time>
      </trkpt>
      <trkpt lat="45.96733" lon="4.78466">
        <ele>203</ele>
        <time>2018-06-09T09:20:09Z</time>
      </trkpt>
      <trkpt lat="45.96738" lon="4.7847">
        <ele>203</ele>
        <time>2018-06-09T09:20:10Z</time>
      </trkpt>
      <trkpt lat="45.96744" lon="4.78476">
        <ele>203</ele>
        <time>2018-06-09T09:20:11Z</time>
      </trkpt>
      <trkpt lat="45.96749" lon="4.7848">
        <ele>203</ele>
        <time>2018-06-09T09:20:12Z</time>
      </trkpt>
      <trkpt lat="45.96753" lon="4.78483">
        <ele>205</ele>
        <time>2018-06-09T09:20:13Z</time>
      </trkpt>
      <trkpt lat="45.96757" lon="4.78489">
        <ele>204</ele>
        <time>2018-06-09T09:20:14Z</time>
      </trkpt>
      <trkpt lat="45.96761" lon="4.78493">
        <ele>204</ele>
        <time>2018-06-09T09:20:15Z</time>
      </trkpt>
      <trkpt lat="45.96764" lon="4.78498">
        <ele>204</ele>
        <time>2018-06-09T09:20:16Z</time>
      </trkpt>
      <trkpt lat="45.96767" lon="4.78503">
        <ele>203</ele>
        <time>2018-06-09T09:20:17Z</time>
      </trkpt>
      <trkpt lat="45.96772" lon="4.78508">
        <ele>203</ele>
        <time>2018-06-09T09:20:18Z</time>
      </trkpt>
      <trkpt lat="45.96775" lon="4.78513">
        <ele>203</ele>
        <time>2018-06-09T09:20:19Z</time>
      </trkpt>
      <trkpt lat="45.96778" lon="4.7852">
        <ele>203</ele>
        <time>2018-06-09T09:20:20Z</time>
      </trkpt>
      <trkpt lat="45.96782" lon="4.78525">
        <ele>203</ele>
        <time>2018-06-09T09:20:21Z</time>
      </trkpt>
      <trkpt lat="45.96786" lon="4.7853">
        <ele>203</ele>
        <time>2018-06-09T09:20:22Z</time>
      </trkpt>
      <trkpt lat="45.96789" lon="4.78537">
        <ele>203</ele>
        <time>2018-06-09T09:20:23Z</time>
      </trkpt>
      <trkpt lat="45.96793" lon="4.7854">
        <ele>203</ele>
        <time>2018-06-09T09:20:24Z</time>
      </trkpt>
      <trkpt lat="45.968" lon="4.78544">
        <ele>203</ele>
        <time>2018-06-09T09:20:25Z</time>
      </trkpt>
      <trkpt lat="45.96806" lon="4.78552">
        <ele>203</ele>
        <time>2018-06-09T09:20:26Z</time>
      </trkpt>
      <trkpt lat="45.96807" lon="4.78558">
        <ele>203</ele>
        <time>2018-06-09T09:20:27Z</time>
      </trkpt>
      <trkpt lat="45.96809" lon="4.78564">
        <ele>203</ele>
        <time>2018-06-09T09:20:28Z</time>
      </trkpt>
      <trkpt lat="45.96812" lon="4.78569">
        <ele>203</ele>
        <time>2018-06-09T09:20:29Z</time>
      </trkpt>
      <trkpt lat="45.96816" lon="4.78573">
        <ele>203</ele>
        <time>2018-06-09T09:20:30Z</time>
      </trkpt>
      <trkpt lat="45.96819" lon="4.78579">
        <ele>203</ele>
        <time>2018-06-09T09:20:31Z</time>
      </trkpt>
      <trkpt lat="45.96825" lon="4.78588">
        <ele>202</ele>
        <time>2018-06-09T09:20:33Z</time>
      </trkpt>
      <trkpt lat="45.96828" lon="4.78594">
        <ele>202</ele>
        <time>2018-06-09T09:20:34Z</time>
      </trkpt>
      <trkpt lat="45.9683" lon="4.78603">
        <ele>202</ele>
        <time>2018-06-09T09:20:35Z</time>
      </trkpt>
      <trkpt lat="45.96833" lon="4.7861">
        <ele>202</ele>
        <time>2018-06-09T09:20:36Z</time>
      </trkpt>
      <trkpt lat="45.96835" lon="4.78618">
        <ele>203</ele>
        <time>2018-06-09T09:20:37Z</time>
      </trkpt>
      <trkpt lat="45.96837" lon="4.78625">
        <ele>203</ele>
        <time>2018-06-09T09:20:38Z</time>
      </trkpt>
      <trkpt lat="45.96839" lon="4.78632">
        <ele>203</ele>
        <time>2018-06-09T09:20:39Z</time>
      </trkpt>
      <trkpt lat="45.9684" lon="4.78637">
        <ele>203</ele>
        <time>2018-06-09T09:20:40Z</time>
      </trkpt>
      <trkpt lat="45.96843" lon="4.78643">
        <ele>203</ele>
        <time>2018-06-09T09:20:41Z</time>
      </trkpt>
      <trkpt lat="45.96846" lon="4.78649">
        <ele>203</ele>
        <time>2018-06-09T09:20:42Z</time>
      </trkpt>
      <trkpt lat="45.96849" lon="4.78655">
        <ele>203</ele>
        <time>2018-06-09T09:20:43Z</time>
      </trkpt>
      <trkpt lat="45.96851" lon="4.78661">
        <ele>202</ele>
        <time>2018-06-09T09:20:44Z</time>
      </trkpt>
      <trkpt lat="45.96854" lon="4.78667">
        <ele>202</ele>
        <time>2018-06-09T09:20:45Z</time>
      </trkpt>
      <trkpt lat="45.96857" lon="4.78673">
        <ele>202</ele>
        <time>2018-06-09T09:20:46Z</time>
      </trkpt>
      <trkpt lat="45.96861" lon="4.78681">
        <ele>202</ele>
        <time>2018-06-09T09:20:47Z</time>
      </trkpt>
      <trkpt lat="45.96864" lon="4.78688">
        <ele>202</ele>
        <time>2018-06-09T09:20:48Z</time>
      </trkpt>
      <trkpt lat="45.96867" lon="4.78694">
        <ele>202</ele>
        <time>2018-06-09T09:20:49Z</time>
      </trkpt>
      <trkpt lat="45.96869" lon="4.78699">
        <ele>202</ele>
        <time>2018-06-09T09:20:50Z</time>
      </trkpt>
      <trkpt lat="45.96873" lon="4.78704">
        <ele>202</ele>
        <time>2018-06-09T09:20:51Z</time>
      </trkpt>
      <trkpt lat="45.96876" lon="4.78711">
        <ele>202</ele>
        <time>2018-06-09T09:20:52Z</time>
      </trkpt>
      <trkpt lat="45.9688" lon="4.78718">
        <ele>202</ele>
        <time>2018-06-09T09:20:53Z</time>
      </trkpt>
      <trkpt lat="45.96882" lon="4.78724">
        <ele>202</ele>
        <time>2018-06-09T09:20:54Z</time>
      </trkpt>
      <trkpt lat="45.96884" lon="4.7873">
        <ele>202</ele>
        <time>2018-06-09T09:20:55Z</time>
      </trkpt>
      <trkpt lat="45.96886" lon="4.78737">
        <ele>202</ele>
        <time>2018-06-09T09:20:56Z</time>
      </trkpt>
      <trkpt lat="45.96889" lon="4.78744">
        <ele>202</ele>
        <time>2018-06-09T09:20:57Z</time>
      </trkpt>
      <trkpt lat="45.96892" lon="4.78749">
        <ele>202</ele>
        <time>2018-06-09T09:20:58Z</time>
      </trkpt>
      <trkpt lat="45.96896" lon="4.78757">
        <ele>201</ele>
        <time>2018-06-09T09:20:59Z</time>
      </trkpt>
      <trkpt lat="45.96899" lon="4.78763">
        <ele>201</ele>
        <time>2018-06-09T09:21:00Z</time>
      </trkpt>
      <trkpt lat="45.96903" lon="4.78769">
        <ele>201</ele>
        <time>2018-06-09T09:21:01Z</time>
      </trkpt>
      <trkpt lat="45.96905" lon="4.78776">
        <ele>201</ele>
        <time>2018-06-09T09:21:02Z</time>
      </trkpt>
      <trkpt lat="45.96908" lon="4.78782">
        <ele>201</ele>
        <time>2018-06-09T09:21:03Z</time>
      </trkpt>
      <trkpt lat="45.9691" lon="4.78788">
        <ele>201</ele>
        <time>2018-06-09T09:21:04Z</time>
      </trkpt>
      <trkpt lat="45.96913" lon="4.78793">
        <ele>201</ele>
        <time>2018-06-09T09:21:05Z</time>
      </trkpt>
      <trkpt lat="45.96916" lon="4.78799">
        <ele>201</ele>
        <time>2018-06-09T09:21:06Z</time>
      </trkpt>
      <trkpt lat="45.96919" lon="4.78805">
        <ele>203</ele>
        <time>2018-06-09T09:21:07Z</time>
      </trkpt>
      <trkpt lat="45.96922" lon="4.7881">
        <ele>202</ele>
        <time>2018-06-09T09:21:08Z</time>
      </trkpt>
      <trkpt lat="45.96925" lon="4.78816">
        <ele>202</ele>
        <time>2018-06-09T09:21:09Z</time>
      </trkpt>
      <trkpt lat="45.96929" lon="4.78822">
        <ele>202</ele>
        <time>2018-06-09T09:21:10Z</time>
      </trkpt>
      <trkpt lat="45.96933" lon="4.78827">
        <ele>202</ele>
        <time>2018-06-09T09:21:11Z</time>
      </trkpt>
      <trkpt lat="45.96937" lon="4.78831">
        <ele>202</ele>
        <time>2018-06-09T09:21:12Z</time>
      </trkpt>
      <trkpt lat="45.96942" lon="4.78838">
        <ele>202</ele>
        <time>2018-06-09T09:21:13Z</time>
      </trkpt>
      <trkpt lat="45.96945" lon="4.78842">
        <ele>202</ele>
        <time>2018-06-09T09:21:14Z</time>
      </trkpt>
      <trkpt lat="45.96949" lon="4.78846">
        <ele>202</ele>
        <time>2018-06-09T09:21:15Z</time>
      </trkpt>
      <trkpt lat="45.96953" lon="4.78851">
        <ele>203</ele>
        <time>2018-06-09T09:21:16Z</time>
      </trkpt>
      <trkpt lat="45.96957" lon="4.78855">
        <ele>203</ele>
        <time>2018-06-09T09:21:17Z</time>
      </trkpt>
      <trkpt lat="45.96961" lon="4.7886">
        <ele>203</ele>
        <time>2018-06-09T09:21:18Z</time>
      </trkpt>
      <trkpt lat="45.96964" lon="4.78864">
        <ele>203</ele>
        <time>2018-06-09T09:21:19Z</time>
      </trkpt>
      <trkpt lat="45.96968" lon="4.78868">
        <ele>203</ele>
        <time>2018-06-09T09:21:20Z</time>
      </trkpt>
      <trkpt lat="45.96972" lon="4.78873">
        <ele>203</ele>
        <time>2018-06-09T09:21:21Z</time>
      </trkpt>
      <trkpt lat="45.96975" lon="4.78878">
        <ele>203</ele>
        <time>2018-06-09T09:21:22Z</time>
      </trkpt>
      <trkpt lat="45.96979" lon="4.78883">
        <ele>203</ele>
        <time>2018-06-09T09:21:23Z</time>
      </trkpt>
      <trkpt lat="45.96983" lon="4.78888">
        <ele>203</ele>
        <time>2018-06-09T09:21:24Z</time>
      </trkpt>
      <trkpt lat="45.96987" lon="4.78891">
        <ele>203</ele>
        <time>2018-06-09T09:21:25Z</time>
      </trkpt>
      <trkpt lat="45.9699" lon="4.78896">
        <ele>203</ele>
        <time>2018-06-09T09:21:26Z</time>
      </trkpt>
      <trkpt lat="45.96994" lon="4.789">
        <ele>204</ele>
        <time>2018-06-09T09:21:27Z</time>
      </trkpt>
      <trkpt lat="45.96998" lon="4.78906">
        <ele>204</ele>
        <time>2018-06-09T09:21:28Z</time>
      </trkpt>
      <trkpt lat="45.97002" lon="4.78912">
        <ele>205</ele>
        <time>2018-06-09T09:21:29Z</time>
      </trkpt>
      <trkpt lat="45.97006" lon="4.78916">
        <ele>205</ele>
        <time>2018-06-09T09:21:30Z</time>
      </trkpt>
      <trkpt lat="45.97009" lon="4.78921">
        <ele>204</ele>
        <time>2018-06-09T09:21:31Z</time>
      </trkpt>
      <trkpt lat="45.97013" lon="4.78925">
        <ele>205</ele>
        <time>2018-06-09T09:21:32Z</time>
      </trkpt>
      <trkpt lat="45.97016" lon="4.78931">
        <ele>205</ele>
        <time>2018-06-09T09:21:33Z</time>
      </trkpt>
      <trkpt lat="45.97019" lon="4.78936">
        <ele>205</ele>
        <time>2018-06-09T09:21:34Z</time>
      </trkpt>
      <trkpt lat="45.97022" lon="4.78941">
        <ele>205</ele>
        <time>2018-06-09T09:21:35Z</time>
      </trkpt>
      <trkpt lat="45.97025" lon="4.78945">
        <ele>205</ele>
        <time>2018-06-09T09:21:36Z</time>
      </trkpt>
      <trkpt lat="45.97033" lon="4.78952">
        <ele>205</ele>
        <time>2018-06-09T09:21:38Z</time>
      </trkpt>
      <trkpt lat="45.97036" lon="4.78957">
        <ele>205</ele>
        <time>2018-06-09T09:21:39Z</time>
      </trkpt>
      <trkpt lat="45.97039" lon="4.78961">
        <ele>205</ele>
        <time>2018-06-09T09:21:40Z</time>
      </trkpt>
      <trkpt lat="45.97043" lon="4.78966">
        <ele>205</ele>
        <time>2018-06-09T09:21:41Z</time>
      </trkpt>
      <trkpt lat="45.97047" lon="4.78976">
        <ele>205</ele>
        <time>2018-06-09T09:21:43Z</time>
      </trkpt>
      <trkpt lat="45.97049" lon="4.78981">
        <ele>205</ele>
        <time>2018-06-09T09:21:44Z</time>
      </trkpt>
      <trkpt lat="45.97048" lon="4.78988">
        <ele>205</ele>
        <time>2018-06-09T09:21:45Z</time>
      </trkpt>
      <trkpt lat="45.97051" lon="4.78994">
        <ele>205</ele>
        <time>2018-06-09T09:21:46Z</time>
      </trkpt>
      <trkpt lat="45.97054" lon="4.79006">
        <ele>203</ele>
        <time>2018-06-09T09:21:48Z</time>
      </trkpt>
      <trkpt lat="45.97058" lon="4.79011">
        <ele>204</ele>
        <time>2018-06-09T09:21:49Z</time>
      </trkpt>
      <trkpt lat="45.97061" lon="4.79018">
        <ele>204</ele>
        <time>2018-06-09T09:21:50Z</time>
      </trkpt>
      <trkpt lat="45.97062" lon="4.79024">
        <ele>203</ele>
        <time>2018-06-09T09:21:51Z</time>
      </trkpt>
      <trkpt lat="45.97063" lon="4.79031">
        <ele>203</ele>
        <time>2018-06-09T09:21:52Z</time>
      </trkpt>
      <trkpt lat="45.97064" lon="4.79038">
        <ele>203</ele>
        <time>2018-06-09T09:21:53Z</time>
      </trkpt>
      <trkpt lat="45.97067" lon="4.79045">
        <ele>203</ele>
        <time>2018-06-09T09:21:54Z</time>
      </trkpt>
      <trkpt lat="45.9707" lon="4.79054">
        <ele>203</ele>
        <time>2018-06-09T09:21:55Z</time>
      </trkpt>
      <trkpt lat="45.97071" lon="4.7906">
        <ele>203</ele>
        <time>2018-06-09T09:21:56Z</time>
      </trkpt>
      <trkpt lat="45.97072" lon="4.79067">
        <ele>204</ele>
        <time>2018-06-09T09:21:57Z</time>
      </trkpt>
      <trkpt lat="45.97076" lon="4.79073">
        <ele>204</ele>
        <time>2018-06-09T09:21:58Z</time>
      </trkpt>
      <trkpt lat="45.97079" lon="4.7908">
        <ele>204</ele>
        <time>2018-06-09T09:21:59Z</time>
      </trkpt>
      <trkpt lat="45.9708" lon="4.79088">
        <ele>204</ele>
        <time>2018-06-09T09:22:00Z</time>
      </trkpt>
      <trkpt lat="45.97082" lon="4.79096">
        <ele>204</ele>
        <time>2018-06-09T09:22:01Z</time>
      </trkpt>
      <trkpt lat="45.97084" lon="4.79103">
        <ele>206</ele>
        <time>2018-06-09T09:22:02Z</time>
      </trkpt>
      <trkpt lat="45.97086" lon="4.79109">
        <ele>206</ele>
        <time>2018-06-09T09:22:03Z</time>
      </trkpt>
      <trkpt lat="45.97089" lon="4.79114">
        <ele>206</ele>
        <time>2018-06-09T09:22:04Z</time>
      </trkpt>
      <trkpt lat="45.97091" lon="4.7912">
        <ele>206</ele>
        <time>2018-06-09T09:22:05Z</time>
      </trkpt>
      <trkpt lat="45.97094" lon="4.79126">
        <ele>206</ele>
        <time>2018-06-09T09:22:06Z</time>
      </trkpt>
      <trkpt lat="45.97099" lon="4.79135">
        <ele>206</ele>
        <time>2018-06-09T09:22:07Z</time>
      </trkpt>
      <trkpt lat="45.97102" lon="4.79141">
        <ele>206</ele>
        <time>2018-06-09T09:22:08Z</time>
      </trkpt>
      <trkpt lat="45.97104" lon="4.79146">
        <ele>206</ele>
        <time>2018-06-09T09:22:09Z</time>
      </trkpt>
      <trkpt lat="45.97107" lon="4.79152">
        <ele>206</ele>
        <time>2018-06-09T09:22:10Z</time>
      </trkpt>
      <trkpt lat="45.9711" lon="4.79158">
        <ele>206</ele>
        <time>2018-06-09T09:22:11Z</time>
      </trkpt>
      <trkpt lat="45.97115" lon="4.79164">
        <ele>207</ele>
        <time>2018-06-09T09:22:12Z</time>
      </trkpt>
      <trkpt lat="45.97119" lon="4.79171">
        <ele>206</ele>
        <time>2018-06-09T09:22:13Z</time>
      </trkpt>
      <trkpt lat="45.97123" lon="4.79177">
        <ele>206</ele>
        <time>2018-06-09T09:22:14Z</time>
      </trkpt>
      <trkpt lat="45.97126" lon="4.79186">
        <ele>206</ele>
        <time>2018-06-09T09:22:15Z</time>
      </trkpt>
      <trkpt lat="45.97128" lon="4.79193">
        <ele>206</ele>
        <time>2018-06-09T09:22:16Z</time>
      </trkpt>
      <trkpt lat="45.97129" lon="4.792">
        <ele>206</ele>
        <time>2018-06-09T09:22:17Z</time>
      </trkpt>
      <trkpt lat="45.97132" lon="4.79209">
        <ele>206</ele>
        <time>2018-06-09T09:22:18Z</time>
      </trkpt>
      <trkpt lat="45.97135" lon="4.79215">
        <ele>206</ele>
        <time>2018-06-09T09:22:19Z</time>
      </trkpt>
      <trkpt lat="45.97138" lon="4.79223">
        <ele>205</ele>
        <time>2018-06-09T09:22:20Z</time>
      </trkpt>
      <trkpt lat="45.9714" lon="4.7923">
        <ele>205</ele>
        <time>2018-06-09T09:22:21Z</time>
      </trkpt>
      <trkpt lat="45.97143" lon="4.79237">
        <ele>205</ele>
        <time>2018-06-09T09:22:22Z</time>
      </trkpt>
      <trkpt lat="45.97146" lon="4.79241">
        <ele>205</ele>
        <time>2018-06-09T09:22:23Z</time>
      </trkpt>
      <trkpt lat="45.97148" lon="4.79248">
        <ele>205</ele>
        <time>2018-06-09T09:22:24Z</time>
      </trkpt>
      <trkpt lat="45.97151" lon="4.79254">
        <ele>205</ele>
        <time>2018-06-09T09:22:25Z</time>
      </trkpt>
      <trkpt lat="45.97153" lon="4.7926">
        <ele>205</ele>
        <time>2018-06-09T09:22:26Z</time>
      </trkpt>
      <trkpt lat="45.97155" lon="4.79268">
        <ele>204</ele>
        <time>2018-06-09T09:22:27Z</time>
      </trkpt>
      <trkpt lat="45.97158" lon="4.79274">
        <ele>204</ele>
        <time>2018-06-09T09:22:28Z</time>
      </trkpt>
      <trkpt lat="45.9716" lon="4.79281">
        <ele>204</ele>
        <time>2018-06-09T09:22:29Z</time>
      </trkpt>
      <trkpt lat="45.97163" lon="4.79288">
        <ele>204</ele>
        <time>2018-06-09T09:22:30Z</time>
      </trkpt>
      <trkpt lat="45.97166" lon="4.79295">
        <ele>204</ele>
        <time>2018-06-09T09:22:31Z</time>
      </trkpt>
      <trkpt lat="45.97168" lon="4.79303">
        <ele>207</ele>
        <time>2018-06-09T09:22:32Z</time>
      </trkpt>
      <trkpt lat="45.97171" lon="4.79308">
        <ele>207</ele>
        <time>2018-06-09T09:22:33Z</time>
      </trkpt>
      <trkpt lat="45.97173" lon="4.79315">
        <ele>207</ele>
        <time>2018-06-09T09:22:34Z</time>
      </trkpt>
      <trkpt lat="45.97176" lon="4.7932">
        <ele>207</ele>
        <time>2018-06-09T09:22:35Z</time>
      </trkpt>
      <trkpt lat="45.97179" lon="4.79326">
        <ele>207</ele>
        <time>2018-06-09T09:22:36Z</time>
      </trkpt>
      <trkpt lat="45.97183" lon="4.79332">
        <ele>207</ele>
        <time>2018-06-09T09:22:37Z</time>
      </trkpt>
      <trkpt lat="45.97186" lon="4.79337">
        <ele>207</ele>
        <time>2018-06-09T09:22:38Z</time>
      </trkpt>
      <trkpt lat="45.97188" lon="4.79344">
        <ele>207</ele>
        <time>2018-06-09T09:22:39Z</time>
      </trkpt>
      <trkpt lat="45.97191" lon="4.7935">
        <ele>207</ele>
        <time>2018-06-09T09:22:40Z</time>
      </trkpt>
      <trkpt lat="45.97194" lon="4.79357">
        <ele>207</ele>
        <time>2018-06-09T09:22:41Z</time>
      </trkpt>
      <trkpt lat="45.97197" lon="4.79363">
        <ele>207</ele>
        <time>2018-06-09T09:22:42Z</time>
      </trkpt>
      <trkpt lat="45.97198" lon="4.79369">
        <ele>207</ele>
        <time>2018-06-09T09:22:43Z</time>
      </trkpt>
      <trkpt lat="45.97201" lon="4.79377">
        <ele>208</ele>
        <time>2018-06-09T09:22:44Z</time>
      </trkpt>
      <trkpt lat="45.97203" lon="4.79383">
        <ele>208</ele>
        <time>2018-06-09T09:22:45Z</time>
      </trkpt>
      <trkpt lat="45.97206" lon="4.7939">
        <ele>208</ele>
        <time>2018-06-09T09:22:46Z</time>
      </trkpt>
      <trkpt lat="45.97209" lon="4.79398">
        <ele>208</ele>
        <time>2018-06-09T09:22:47Z</time>
      </trkpt>
      <trkpt lat="45.97212" lon="4.79404">
        <ele>208</ele>
        <time>2018-06-09T09:22:48Z</time>
      </trkpt>
      <trkpt lat="45.97214" lon="4.79411">
        <ele>208</ele>
        <time>2018-06-09T09:22:49Z</time>
      </trkpt>
      <trkpt lat="45.97216" lon="4.79418">
        <ele>208</ele>
        <time>2018-06-09T09:22:50Z</time>
      </trkpt>
      <trkpt lat="45.97219" lon="4.79424">
        <ele>208</ele>
        <time>2018-06-09T09:22:51Z</time>
      </trkpt>
      <trkpt lat="45.97222" lon="4.79429">
        <ele>209</ele>
        <time>2018-06-09T09:22:52Z</time>
      </trkpt>
      <trkpt lat="45.97225" lon="4.79435">
        <ele>209</ele>
        <time>2018-06-09T09:22:53Z</time>
      </trkpt>
      <trkpt lat="45.97226" lon="4.79442">
        <ele>209</ele>
        <time>2018-06-09T09:22:54Z</time>
      </trkpt>
      <trkpt lat="45.97229" lon="4.79448">
        <ele>209</ele>
        <time>2018-06-09T09:22:55Z</time>
      </trkpt>
      <trkpt lat="45.97232" lon="4.79454">
        <ele>209</ele>
        <time>2018-06-09T09:22:56Z</time>
      </trkpt>
      <trkpt lat="45.97236" lon="4.7946">
        <ele>209</ele>
        <time>2018-06-09T09:22:57Z</time>
      </trkpt>
      <trkpt lat="45.97239" lon="4.79471">
        <ele>209</ele>
        <time>2018-06-09T09:22:59Z</time>
      </trkpt>
      <trkpt lat="45.97241" lon="4.79478">
        <ele>209</ele>
        <time>2018-06-09T09:23:00Z</time>
      </trkpt>
      <trkpt lat="45.97243" lon="4.79484">
        <ele>210</ele>
        <time>2018-06-09T09:23:01Z</time>
      </trkpt>
      <trkpt lat="45.97245" lon="4.79491">
        <ele>210</ele>
        <time>2018-06-09T09:23:02Z</time>
      </trkpt>
      <trkpt lat="45.97247" lon="4.79497">
        <ele>211</ele>
        <time>2018-06-09T09:23:03Z</time>
      </trkpt>
      <trkpt lat="45.97248" lon="4.79503">
        <ele>211</ele>
        <time>2018-06-09T09:23:04Z</time>
      </trkpt>
      <trkpt lat="45.97251" lon="4.79515">
        <ele>213</ele>
        <time>2018-06-09T09:23:06Z</time>
      </trkpt>
      <trkpt lat="45.97253" lon="4.79521">
        <ele>213</ele>
        <time>2018-06-09T09:23:07Z</time>
      </trkpt>
      <trkpt lat="45.97254" lon="4.79528">
        <ele>214</ele>
        <time>2018-06-09T09:23:08Z</time>
      </trkpt>
      <trkpt lat="45.97255" lon="4.79535">
        <ele>214</ele>
        <time>2018-06-09T09:23:09Z</time>
      </trkpt>
      <trkpt lat="45.97256" lon="4.79542">
        <ele>214</ele>
        <time>2018-06-09T09:23:10Z</time>
      </trkpt>
      <trkpt lat="45.97257" lon="4.79548">
        <ele>214</ele>
        <time>2018-06-09T09:23:11Z</time>
      </trkpt>
      <trkpt lat="45.97257" lon="4.79555">
        <ele>214</ele>
        <time>2018-06-09T09:23:12Z</time>
      </trkpt>
      <trkpt lat="45.97259" lon="4.79562">
        <ele>213</ele>
        <time>2018-06-09T09:23:13Z</time>
      </trkpt>
      <trkpt lat="45.97259" lon="4.79569">
        <ele>213</ele>
        <time>2018-06-09T09:23:14Z</time>
      </trkpt>
      <trkpt lat="45.9726" lon="4.79576">
        <ele>212</ele>
        <time>2018-06-09T09:23:15Z</time>
      </trkpt>
      <trkpt lat="45.97261" lon="4.79584">
        <ele>212</ele>
        <time>2018-06-09T09:23:16Z</time>
      </trkpt>
      <trkpt lat="45.97262" lon="4.79592">
        <ele>212</ele>
        <time>2018-06-09T09:23:17Z</time>
      </trkpt>
      <trkpt lat="45.9726" lon="4.79599">
        <ele>212</ele>
        <time>2018-06-09T09:23:18Z</time>
      </trkpt>
      <trkpt lat="45.97259" lon="4.79607">
        <ele>213</ele>
        <time>2018-06-09T09:23:19Z</time>
      </trkpt>
      <trkpt lat="45.97259" lon="4.79614">
        <ele>213</ele>
        <time>2018-06-09T09:23:20Z</time>
      </trkpt>
      <trkpt lat="45.97258" lon="4.79621">
        <ele>213</ele>
        <time>2018-06-09T09:23:21Z</time>
      </trkpt>
      <trkpt lat="45.97258" lon="4.79627">
        <ele>213</ele>
        <time>2018-06-09T09:23:22Z</time>
      </trkpt>
      <trkpt lat="45.97258" lon="4.79635">
        <ele>213</ele>
        <time>2018-06-09T09:23:23Z</time>
      </trkpt>
      <trkpt lat="45.97259" lon="4.79643">
        <ele>212</ele>
        <time>2018-06-09T09:23:24Z</time>
      </trkpt>
      <trkpt lat="45.97259" lon="4.7965">
        <ele>212</ele>
        <time>2018-06-09T09:23:25Z</time>
      </trkpt>
      <trkpt lat="45.97259" lon="4.79659">
        <ele>211</ele>
        <time>2018-06-09T09:23:26Z</time>
      </trkpt>
      <trkpt lat="45.97258" lon="4.79665">
        <ele>210</ele>
        <time>2018-06-09T09:23:27Z</time>
      </trkpt>
      <trkpt lat="45.97257" lon="4.79674">
        <ele>210</ele>
        <time>2018-06-09T09:23:28Z</time>
      </trkpt>
      <trkpt lat="45.97255" lon="4.79681">
        <ele>211</ele>
        <time>2018-06-09T09:23:29Z</time>
      </trkpt>
      <trkpt lat="45.97253" lon="4.79687">
        <ele>211</ele>
        <time>2018-06-09T09:23:30Z</time>
      </trkpt>
      <trkpt lat="45.97252" lon="4.79694">
        <ele>212</ele>
        <time>2018-06-09T09:23:31Z</time>
      </trkpt>
      <trkpt lat="45.97252" lon="4.79701">
        <ele>212</ele>
        <time>2018-06-09T09:23:32Z</time>
      </trkpt>
      <trkpt lat="45.97252" lon="4.79709">
        <ele>212</ele>
        <time>2018-06-09T09:23:33Z</time>
      </trkpt>
      <trkpt lat="45.97249" lon="4.79718">
        <ele>209</ele>
        <time>2018-06-09T09:23:35Z</time>
      </trkpt>
      <trkpt lat="45.97248" lon="4.79725">
        <ele>209</ele>
        <time>2018-06-09T09:23:36Z</time>
      </trkpt>
      <trkpt lat="45.97247" lon="4.79732">
        <ele>209</ele>
        <time>2018-06-09T09:23:37Z</time>
      </trkpt>
      <trkpt lat="45.97246" lon="4.79738">
        <ele>209</ele>
        <time>2018-06-09T09:23:38Z</time>
      </trkpt>
      <trkpt lat="45.97245" lon="4.79745">
        <ele>209</ele>
        <time>2018-06-09T09:23:39Z</time>
      </trkpt>
      <trkpt lat="45.97244" lon="4.79752">
        <ele>209</ele>
        <time>2018-06-09T09:23:40Z</time>
      </trkpt>
      <trkpt lat="45.97243" lon="4.79758">
        <ele>209</ele>
        <time>2018-06-09T09:23:41Z</time>
      </trkpt>
      <trkpt lat="45.97242" lon="4.79766">
        <ele>209</ele>
        <time>2018-06-09T09:23:42Z</time>
      </trkpt>
      <trkpt lat="45.97242" lon="4.79773">
        <ele>210</ele>
        <time>2018-06-09T09:23:43Z</time>
      </trkpt>
      <trkpt lat="45.97242" lon="4.7978">
        <ele>210</ele>
        <time>2018-06-09T09:23:44Z</time>
      </trkpt>
      <trkpt lat="45.97243" lon="4.79787">
        <ele>210</ele>
        <time>2018-06-09T09:23:45Z</time>
      </trkpt>
      <trkpt lat="45.97242" lon="4.79795">
        <ele>210</ele>
        <time>2018-06-09T09:23:46Z</time>
      </trkpt>
      <trkpt lat="45.97242" lon="4.79801">
        <ele>210</ele>
        <time>2018-06-09T09:23:47Z</time>
      </trkpt>
      <trkpt lat="45.97242" lon="4.79808">
        <ele>210</ele>
        <time>2018-06-09T09:23:48Z</time>
      </trkpt>
      <trkpt lat="45.97242" lon="4.7982">
        <ele>211</ele>
        <time>2018-06-09T09:23:50Z</time>
      </trkpt>
      <trkpt lat="45.97243" lon="4.79828">
        <ele>211</ele>
        <time>2018-06-09T09:23:51Z</time>
      </trkpt>
      <trkpt lat="45.97243" lon="4.7984">
        <ele>212</ele>
        <time>2018-06-09T09:23:53Z</time>
      </trkpt>
      <trkpt lat="45.97243" lon="4.79846">
        <ele>211</ele>
        <time>2018-06-09T09:23:54Z</time>
      </trkpt>
      <trkpt lat="45.97244" lon="4.79856">
        <ele>211</ele>
        <time>2018-06-09T09:23:56Z</time>
      </trkpt>
      <trkpt lat="45.97246" lon="4.79862">
        <ele>211</ele>
        <time>2018-06-09T09:23:57Z</time>
      </trkpt>
      <trkpt lat="45.97249" lon="4.79872">
        <ele>211</ele>
        <time>2018-06-09T09:24:00Z</time>
      </trkpt>
      <trkpt lat="45.97252" lon="4.79882">
        <ele>213</ele>
        <time>2018-06-09T09:24:01Z</time>
      </trkpt>
      <trkpt lat="45.97254" lon="4.79892">
        <ele>213</ele>
        <time>2018-06-09T09:24:05Z</time>
      </trkpt>
      <trkpt lat="45.97255" lon="4.79895">
        <ele>213</ele>
        <time>2018-06-09T09:24:06Z</time>
      </trkpt>
      <trkpt lat="45.97257" lon="4.79905">
        <ele>213</ele>
        <time>2018-06-09T09:24:10Z</time>
      </trkpt>
      <trkpt lat="45.97258" lon="4.79908">
        <ele>213</ele>
        <time>2018-06-09T09:24:11Z</time>
      </trkpt>
      <trkpt lat="45.97262" lon="4.79915">
        <ele>213</ele>
        <time>2018-06-09T09:24:14Z</time>
      </trkpt>
      <trkpt lat="45.97265" lon="4.79917">
        <ele>212</ele>
        <time>2018-06-09T09:24:15Z</time>
      </trkpt>
      <trkpt lat="45.97274" lon="4.7992">
        <ele>212</ele>
        <time>2018-06-09T09:24:16Z</time>
      </trkpt>
      <trkpt lat="45.97282" lon="4.79918">
        <ele>212</ele>
        <time>2018-06-09T09:24:18Z</time>
      </trkpt>
      <trkpt lat="45.97286" lon="4.79917">
        <ele>213</ele>
        <time>2018-06-09T09:24:19Z</time>
      </trkpt>
      <trkpt lat="45.97295" lon="4.79915">
        <ele>213</ele>
        <time>2018-06-09T09:24:21Z</time>
      </trkpt>
      <trkpt lat="45.97299" lon="4.79914">
        <ele>213</ele>
        <time>2018-06-09T09:24:22Z</time>
      </trkpt>
      <trkpt lat="45.97306" lon="4.79913">
        <ele>213</ele>
        <time>2018-06-09T09:24:24Z</time>
      </trkpt>
      <trkpt lat="45.9731" lon="4.79913">
        <ele>213</ele>
        <time>2018-06-09T09:24:25Z</time>
      </trkpt>
      <trkpt lat="45.97318" lon="4.79912">
        <ele>213</ele>
        <time>2018-06-09T09:24:27Z</time>
      </trkpt>
      <trkpt lat="45.97322" lon="4.79911">
        <ele>213</ele>
        <time>2018-06-09T09:24:28Z</time>
      </trkpt>
      <trkpt lat="45.9733" lon="4.79909">
        <ele>213</ele>
        <time>2018-06-09T09:24:30Z</time>
      </trkpt>
      <trkpt lat="45.97335" lon="4.79908">
        <ele>214</ele>
        <time>2018-06-09T09:24:31Z</time>
      </trkpt>
      <trkpt lat="45.97343" lon="4.79906">
        <ele>215</ele>
        <time>2018-06-09T09:24:33Z</time>
      </trkpt>
      <trkpt lat="45.97347" lon="4.79904">
        <ele>215</ele>
        <time>2018-06-09T09:24:34Z</time>
      </trkpt>
      <trkpt lat="45.97355" lon="4.79903">
        <ele>216</ele>
        <time>2018-06-09T09:24:36Z</time>
      </trkpt>
      <trkpt lat="45.97359" lon="4.79902">
        <ele>216</ele>
        <time>2018-06-09T09:24:37Z</time>
      </trkpt>
      <trkpt lat="45.97365" lon="4.79901">
        <ele>216</ele>
        <time>2018-06-09T09:24:39Z</time>
      </trkpt>
      <trkpt lat="45.97371" lon="4.799">
        <ele>217</ele>
        <time>2018-06-09T09:24:40Z</time>
      </trkpt>
      <trkpt lat="45.97377" lon="4.799">
        <ele>217</ele>
        <time>2018-06-09T09:24:42Z</time>
      </trkpt>
      <trkpt lat="45.97382" lon="4.79899">
        <ele>217</ele>
        <time>2018-06-09T09:24:43Z</time>
      </trkpt>
      <trkpt lat="45.97387" lon="4.79899">
        <ele>217</ele>
        <time>2018-06-09T09:24:45Z</time>
      </trkpt>
      <trkpt lat="45.97392" lon="4.799">
        <ele>217</ele>
        <time>2018-06-09T09:24:46Z</time>
      </trkpt>
      <trkpt lat="45.97399" lon="4.79901">
        <ele>217</ele>
        <time>2018-06-09T09:24:48Z</time>
      </trkpt>
      <trkpt lat="45.97401" lon="4.79901">
        <ele>217</ele>
        <time>2018-06-09T09:24:49Z</time>
      </trkpt>
      <trkpt lat="45.97406" lon="4.799">
        <ele>217</ele>
        <time>2018-06-09T09:24:51Z</time>
      </trkpt>
      <trkpt lat="45.97414" lon="4.799">
        <ele>217</ele>
        <time>2018-06-09T09:24:52Z</time>
      </trkpt>
      <trkpt lat="45.97421" lon="4.79899">
        <ele>219</ele>
        <time>2018-06-09T09:24:54Z</time>
      </trkpt>
      <trkpt lat="45.97426" lon="4.79898">
        <ele>219</ele>
        <time>2018-06-09T09:24:55Z</time>
      </trkpt>
      <trkpt lat="45.97433" lon="4.79897">
        <ele>219</ele>
        <time>2018-06-09T09:24:57Z</time>
      </trkpt>
      <trkpt lat="45.97437" lon="4.79896">
        <ele>220</ele>
        <time>2018-06-09T09:24:58Z</time>
      </trkpt>
      <trkpt lat="45.97444" lon="4.79896">
        <ele>220</ele>
        <time>2018-06-09T09:25:00Z</time>
      </trkpt>
      <trkpt lat="45.97448" lon="4.79896">
        <ele>220</ele>
        <time>2018-06-09T09:25:01Z</time>
      </trkpt>
      <trkpt lat="45.97455" lon="4.79896">
        <ele>220</ele>
        <time>2018-06-09T09:25:03Z</time>
      </trkpt>
      <trkpt lat="45.9746" lon="4.79895">
        <ele>220</ele>
        <time>2018-06-09T09:25:04Z</time>
      </trkpt>
      <trkpt lat="45.97468" lon="4.79893">
        <ele>221</ele>
        <time>2018-06-09T09:25:06Z</time>
      </trkpt>
      <trkpt lat="45.97472" lon="4.79893">
        <ele>221</ele>
        <time>2018-06-09T09:25:07Z</time>
      </trkpt>
      <trkpt lat="45.9748" lon="4.79891">
        <ele>221</ele>
        <time>2018-06-09T09:25:09Z</time>
      </trkpt>
      <trkpt lat="45.97484" lon="4.79891">
        <ele>221</ele>
        <time>2018-06-09T09:25:10Z</time>
      </trkpt>
      <trkpt lat="45.97491" lon="4.79891">
        <ele>221</ele>
        <time>2018-06-09T09:25:12Z</time>
      </trkpt>
      <trkpt lat="45.97495" lon="4.79891">
        <ele>221</ele>
        <time>2018-06-09T09:25:13Z</time>
      </trkpt>
      <trkpt lat="45.97503" lon="4.79891">
        <ele>221</ele>
        <time>2018-06-09T09:25:16Z</time>
      </trkpt>
      <trkpt lat="45.97505" lon="4.79891">
        <ele>221</ele>
        <time>2018-06-09T09:25:17Z</time>
      </trkpt>
      <trkpt lat="45.97513" lon="4.79891">
        <ele>221</ele>
        <time>2018-06-09T09:25:20Z</time>
      </trkpt>
      <trkpt lat="45.97515" lon="4.79891">
        <ele>221</ele>
        <time>2018-06-09T09:25:21Z</time>
      </trkpt>
      <trkpt lat="45.97524" lon="4.79891">
        <ele>221</ele>
        <time>2018-06-09T09:25:24Z</time>
      </trkpt>
      <trkpt lat="45.97527" lon="4.7989">
        <ele>221</ele>
        <time>2018-06-09T09:25:25Z</time>
      </trkpt>
      <trkpt lat="45.97533" lon="4.79889">
        <ele>221</ele>
        <time>2018-06-09T09:25:27Z</time>
      </trkpt>
      <trkpt lat="45.97536" lon="4.79889">
        <ele>221</ele>
        <time>2018-06-09T09:25:28Z</time>
      </trkpt>
      <trkpt lat="45.97543" lon="4.79888">
        <ele>221</ele>
        <time>2018-06-09T09:25:30Z</time>
      </trkpt>
      <trkpt lat="45.97546" lon="4.79887">
        <ele>221</ele>
        <time>2018-06-09T09:25:31Z</time>
      </trkpt>
      <trkpt lat="45.97549" lon="4.79886">
        <ele>221</ele>
        <time>2018-06-09T09:25:32Z</time>
      </trkpt>
      <trkpt lat="45.97559" lon="4.79884">
        <ele>221</ele>
        <time>2018-06-09T09:25:33Z</time>
      </trkpt>
      <trkpt lat="45.97565" lon="4.79882">
        <ele>221</ele>
        <time>2018-06-09T09:25:35Z</time>
      </trkpt>
      <trkpt lat="45.97568" lon="4.79881">
        <ele>221</ele>
        <time>2018-06-09T09:25:36Z</time>
      </trkpt>
      <trkpt lat="45.97575" lon="4.79879">
        <ele>221</ele>
        <time>2018-06-09T09:25:38Z</time>
      </trkpt>
      <trkpt lat="45.97578" lon="4.79878">
        <ele>221</ele>
        <time>2018-06-09T09:25:39Z</time>
      </trkpt>
      <trkpt lat="45.97586" lon="4.79875">
        <ele>221</ele>
        <time>2018-06-09T09:25:41Z</time>
      </trkpt>
      <trkpt lat="45.9759" lon="4.79873">
        <ele>221</ele>
        <time>2018-06-09T09:25:42Z</time>
      </trkpt>
      <trkpt lat="45.97597" lon="4.79871">
        <ele>221</ele>
        <time>2018-06-09T09:25:45Z</time>
      </trkpt>
      <trkpt lat="45.97604" lon="4.79869">
        <ele>221</ele>
        <time>2018-06-09T09:25:46Z</time>
      </trkpt>
      <trkpt lat="45.97611" lon="4.79866">
        <ele>221</ele>
        <time>2018-06-09T09:25:48Z</time>
      </trkpt>
      <trkpt lat="45.97615" lon="4.79864">
        <ele>221</ele>
        <time>2018-06-09T09:25:49Z</time>
      </trkpt>
      <trkpt lat="45.97622" lon="4.79861">
        <ele>221</ele>
        <time>2018-06-09T09:25:51Z</time>
      </trkpt>
      <trkpt lat="45.97626" lon="4.7986">
        <ele>221</ele>
        <time>2018-06-09T09:25:52Z</time>
      </trkpt>
      <trkpt lat="45.97635" lon="4.79858">
        <ele>221</ele>
        <time>2018-06-09T09:25:54Z</time>
      </trkpt>
      <trkpt lat="45.97639" lon="4.79857">
        <ele>221</ele>
        <time>2018-06-09T09:25:55Z</time>
      </trkpt>
      <trkpt lat="45.97644" lon="4.79855">
        <ele>221</ele>
        <time>2018-06-09T09:25:56Z</time>
      </trkpt>
      <trkpt lat="45.97648" lon="4.79852">
        <ele>221</ele>
        <time>2018-06-09T09:25:57Z</time>
      </trkpt>
      <trkpt lat="45.97657" lon="4.79849">
        <ele>221</ele>
        <time>2018-06-09T09:25:59Z</time>
      </trkpt>
      <trkpt lat="45.97661" lon="4.79848">
        <ele>221</ele>
        <time>2018-06-09T09:26:00Z</time>
      </trkpt>
      <trkpt lat="45.97665" lon="4.79846">
        <ele>221</ele>
        <time>2018-06-09T09:26:01Z</time>
      </trkpt>
      <trkpt lat="45.9767" lon="4.79845">
        <ele>221</ele>
        <time>2018-06-09T09:26:02Z</time>
      </trkpt>
      <trkpt lat="45.97678" lon="4.79845">
        <ele>221</ele>
        <time>2018-06-09T09:26:04Z</time>
      </trkpt>
      <trkpt lat="45.97683" lon="4.79843">
        <ele>221</ele>
        <time>2018-06-09T09:26:05Z</time>
      </trkpt>
      <trkpt lat="45.97691" lon="4.79839">
        <ele>220</ele>
        <time>2018-06-09T09:26:07Z</time>
      </trkpt>
      <trkpt lat="45.97695" lon="4.79839">
        <ele>220</ele>
        <time>2018-06-09T09:26:08Z</time>
      </trkpt>
      <trkpt lat="45.97699" lon="4.79838">
        <ele>220</ele>
        <time>2018-06-09T09:26:09Z</time>
      </trkpt>
      <trkpt lat="45.97705" lon="4.79837">
        <ele>220</ele>
        <time>2018-06-09T09:26:10Z</time>
      </trkpt>
      <trkpt lat="45.9771" lon="4.79837">
        <ele>220</ele>
        <time>2018-06-09T09:26:11Z</time>
      </trkpt>
      <trkpt lat="45.97715" lon="4.79836">
        <ele>220</ele>
        <time>2018-06-09T09:26:12Z</time>
      </trkpt>
      <trkpt lat="45.97724" lon="4.79835">
        <ele>220</ele>
        <time>2018-06-09T09:26:14Z</time>
      </trkpt>
      <trkpt lat="45.97729" lon="4.79833">
        <ele>221</ele>
        <time>2018-06-09T09:26:15Z</time>
      </trkpt>
      <trkpt lat="45.97734" lon="4.79832">
        <ele>223</ele>
        <time>2018-06-09T09:26:16Z</time>
      </trkpt>
      <trkpt lat="45.9774" lon="4.79831">
        <ele>222</ele>
        <time>2018-06-09T09:26:17Z</time>
      </trkpt>
      <trkpt lat="45.97744" lon="4.79829">
        <ele>222</ele>
        <time>2018-06-09T09:26:18Z</time>
      </trkpt>
      <trkpt lat="45.97749" lon="4.79829">
        <ele>222</ele>
        <time>2018-06-09T09:26:19Z</time>
      </trkpt>
      <trkpt lat="45.97753" lon="4.79828">
        <ele>222</ele>
        <time>2018-06-09T09:26:20Z</time>
      </trkpt>
      <trkpt lat="45.97758" lon="4.79828">
        <ele>222</ele>
        <time>2018-06-09T09:26:21Z</time>
      </trkpt>
      <trkpt lat="45.97762" lon="4.79826">
        <ele>223</ele>
        <time>2018-06-09T09:26:22Z</time>
      </trkpt>
      <trkpt lat="45.97768" lon="4.79826">
        <ele>223</ele>
        <time>2018-06-09T09:26:23Z</time>
      </trkpt>
      <trkpt lat="45.97773" lon="4.79824">
        <ele>223</ele>
        <time>2018-06-09T09:26:24Z</time>
      </trkpt>
      <trkpt lat="45.97778" lon="4.79822">
        <ele>223</ele>
        <time>2018-06-09T09:26:25Z</time>
      </trkpt>
      <trkpt lat="45.97784" lon="4.79821">
        <ele>223</ele>
        <time>2018-06-09T09:26:26Z</time>
      </trkpt>
      <trkpt lat="45.9779" lon="4.7982">
        <ele>223</ele>
        <time>2018-06-09T09:26:27Z</time>
      </trkpt>
      <trkpt lat="45.97795" lon="4.7982">
        <ele>223</ele>
        <time>2018-06-09T09:26:28Z</time>
      </trkpt>
      <trkpt lat="45.978" lon="4.7982">
        <ele>223</ele>
        <time>2018-06-09T09:26:29Z</time>
      </trkpt>
      <trkpt lat="45.97805" lon="4.79817">
        <ele>223</ele>
        <time>2018-06-09T09:26:30Z</time>
      </trkpt>
      <trkpt lat="45.97811" lon="4.79816">
        <ele>223</ele>
        <time>2018-06-09T09:26:31Z</time>
      </trkpt>
      <trkpt lat="45.97816" lon="4.79814">
        <ele>223</ele>
        <time>2018-06-09T09:26:32Z</time>
      </trkpt>
      <trkpt lat="45.9782" lon="4.79813">
        <ele>223</ele>
        <time>2018-06-09T09:26:33Z</time>
      </trkpt>
      <trkpt lat="45.97827" lon="4.79813">
        <ele>223</ele>
        <time>2018-06-09T09:26:34Z</time>
      </trkpt>
      <trkpt lat="45.97831" lon="4.79812">
        <ele>223</ele>
        <time>2018-06-09T09:26:35Z</time>
      </trkpt>
      <trkpt lat="45.97839" lon="4.79813">
        <ele>224</ele>
        <time>2018-06-09T09:26:37Z</time>
      </trkpt>
      <trkpt lat="45.97844" lon="4.79812">
        <ele>224</ele>
        <time>2018-06-09T09:26:38Z</time>
      </trkpt>
      <trkpt lat="45.9785" lon="4.79809">
        <ele>224</ele>
        <time>2018-06-09T09:26:39Z</time>
      </trkpt>
      <trkpt lat="45.97855" lon="4.79809">
        <ele>224</ele>
        <time>2018-06-09T09:26:40Z</time>
      </trkpt>
      <trkpt lat="45.9786" lon="4.79808">
        <ele>224</ele>
        <time>2018-06-09T09:26:41Z</time>
      </trkpt>
      <trkpt lat="45.97864" lon="4.79808">
        <ele>224</ele>
        <time>2018-06-09T09:26:42Z</time>
      </trkpt>
      <trkpt lat="45.9787" lon="4.79807">
        <ele>224</ele>
        <time>2018-06-09T09:26:43Z</time>
      </trkpt>
      <trkpt lat="45.97875" lon="4.79806">
        <ele>224</ele>
        <time>2018-06-09T09:26:44Z</time>
      </trkpt>
      <trkpt lat="45.9788" lon="4.79805">
        <ele>224</ele>
        <time>2018-06-09T09:26:45Z</time>
      </trkpt>
      <trkpt lat="45.97885" lon="4.79804">
        <ele>224</ele>
        <time>2018-06-09T09:26:46Z</time>
      </trkpt>
      <trkpt lat="45.9789" lon="4.79804">
        <ele>224</ele>
        <time>2018-06-09T09:26:47Z</time>
      </trkpt>
      <trkpt lat="45.97896" lon="4.79802">
        <ele>224</ele>
        <time>2018-06-09T09:26:48Z</time>
      </trkpt>
      <trkpt lat="45.979" lon="4.798">
        <ele>224</ele>
        <time>2018-06-09T09:26:49Z</time>
      </trkpt>
      <trkpt lat="45.97905" lon="4.79798">
        <ele>224</ele>
        <time>2018-06-09T09:26:50Z</time>
      </trkpt>
      <trkpt lat="45.9791" lon="4.79798">
        <ele>224</ele>
        <time>2018-06-09T09:26:51Z</time>
      </trkpt>
      <trkpt lat="45.97916" lon="4.79795">
        <ele>224</ele>
        <time>2018-06-09T09:26:52Z</time>
      </trkpt>
      <trkpt lat="45.97922" lon="4.79794">
        <ele>224</ele>
        <time>2018-06-09T09:26:53Z</time>
      </trkpt>
      <trkpt lat="45.97927" lon="4.79791">
        <ele>224</ele>
        <time>2018-06-09T09:26:54Z</time>
      </trkpt>
      <trkpt lat="45.97932" lon="4.7979">
        <ele>224</ele>
        <time>2018-06-09T09:26:55Z</time>
      </trkpt>
      <trkpt lat="45.97939" lon="4.7979">
        <ele>224</ele>
        <time>2018-06-09T09:26:56Z</time>
      </trkpt>
      <trkpt lat="45.97944" lon="4.79789">
        <ele>224</ele>
        <time>2018-06-09T09:26:57Z</time>
      </trkpt>
      <trkpt lat="45.97949" lon="4.79789">
        <ele>224</ele>
        <time>2018-06-09T09:26:58Z</time>
      </trkpt>
      <trkpt lat="45.97956" lon="4.79788">
        <ele>224</ele>
        <time>2018-06-09T09:26:59Z</time>
      </trkpt>
      <trkpt lat="45.9796" lon="4.79787">
        <ele>224</ele>
        <time>2018-06-09T09:27:00Z</time>
      </trkpt>
      <trkpt lat="45.97966" lon="4.79787">
        <ele>224</ele>
        <time>2018-06-09T09:27:01Z</time>
      </trkpt>
      <trkpt lat="45.97972" lon="4.79788">
        <ele>224</ele>
        <time>2018-06-09T09:27:02Z</time>
      </trkpt>
      <trkpt lat="45.97978" lon="4.79788">
        <ele>224</ele>
        <time>2018-06-09T09:27:03Z</time>
      </trkpt>
      <trkpt lat="45.97984" lon="4.79786">
        <ele>224</ele>
        <time>2018-06-09T09:27:04Z</time>
      </trkpt>
      <trkpt lat="45.9799" lon="4.79785">
        <ele>224</ele>
        <time>2018-06-09T09:27:05Z</time>
      </trkpt>
      <trkpt lat="45.97995" lon="4.79785">
        <ele>224</ele>
        <time>2018-06-09T09:27:06Z</time>
      </trkpt>
      <trkpt lat="45.98002" lon="4.79781">
        <ele>223</ele>
        <time>2018-06-09T09:27:07Z</time>
      </trkpt>
      <trkpt lat="45.98008" lon="4.79779">
        <ele>223</ele>
        <time>2018-06-09T09:27:08Z</time>
      </trkpt>
      <trkpt lat="45.98014" lon="4.79779">
        <ele>223</ele>
        <time>2018-06-09T09:27:09Z</time>
      </trkpt>
      <trkpt lat="45.98021" lon="4.79779">
        <ele>223</ele>
        <time>2018-06-09T09:27:10Z</time>
      </trkpt>
      <trkpt lat="45.98026" lon="4.79778">
        <ele>223</ele>
        <time>2018-06-09T09:27:11Z</time>
      </trkpt>
      <trkpt lat="45.98032" lon="4.79776">
        <ele>223</ele>
        <time>2018-06-09T09:27:12Z</time>
      </trkpt>
      <trkpt lat="45.98039" lon="4.79776">
        <ele>223</ele>
        <time>2018-06-09T09:27:13Z</time>
      </trkpt>
      <trkpt lat="45.98045" lon="4.79776">
        <ele>223</ele>
        <time>2018-06-09T09:27:14Z</time>
      </trkpt>
      <trkpt lat="45.98051" lon="4.79775">
        <ele>223</ele>
        <time>2018-06-09T09:27:15Z</time>
      </trkpt>
      <trkpt lat="45.98055" lon="4.79774">
        <ele>223</ele>
        <time>2018-06-09T09:27:16Z</time>
      </trkpt>
      <trkpt lat="45.98061" lon="4.79772">
        <ele>223</ele>
        <time>2018-06-09T09:27:17Z</time>
      </trkpt>
      <trkpt lat="45.98067" lon="4.79771">
        <ele>223</ele>
        <time>2018-06-09T09:27:18Z</time>
      </trkpt>
      <trkpt lat="45.98072" lon="4.79771">
        <ele>223</ele>
        <time>2018-06-09T09:27:19Z</time>
      </trkpt>
      <trkpt lat="45.98077" lon="4.7977">
        <ele>223</ele>
        <time>2018-06-09T09:27:20Z</time>
      </trkpt>
      <trkpt lat="45.98083" lon="4.7977">
        <ele>223</ele>
        <time>2018-06-09T09:27:21Z</time>
      </trkpt>
      <trkpt lat="45.98089" lon="4.79769">
        <ele>223</ele>
        <time>2018-06-09T09:27:22Z</time>
      </trkpt>
      <trkpt lat="45.98093" lon="4.79767">
        <ele>223</ele>
        <time>2018-06-09T09:27:23Z</time>
      </trkpt>
      <trkpt lat="45.98099" lon="4.79767">
        <ele>223</ele>
        <time>2018-06-09T09:27:24Z</time>
      </trkpt>
      <trkpt lat="45.98105" lon="4.79766">
        <ele>224</ele>
        <time>2018-06-09T09:27:25Z</time>
      </trkpt>
      <trkpt lat="45.9811" lon="4.79767">
        <ele>224</ele>
        <time>2018-06-09T09:27:26Z</time>
      </trkpt>
      <trkpt lat="45.98114" lon="4.79767">
        <ele>224</ele>
        <time>2018-06-09T09:27:27Z</time>
      </trkpt>
      <trkpt lat="45.9812" lon="4.79766">
        <ele>224</ele>
        <time>2018-06-09T09:27:28Z</time>
      </trkpt>
      <trkpt lat="45.98124" lon="4.79765">
        <ele>224</ele>
        <time>2018-06-09T09:27:29Z</time>
      </trkpt>
      <trkpt lat="45.98129" lon="4.79764">
        <ele>224</ele>
        <time>2018-06-09T09:27:30Z</time>
      </trkpt>
      <trkpt lat="45.98138" lon="4.79764">
        <ele>224</ele>
        <time>2018-06-09T09:27:32Z</time>
      </trkpt>
      <trkpt lat="45.98142" lon="4.79764">
        <ele>224</ele>
        <time>2018-06-09T09:27:33Z</time>
      </trkpt>
      <trkpt lat="45.98148" lon="4.79763">
        <ele>225</ele>
        <time>2018-06-09T09:27:34Z</time>
      </trkpt>
      <trkpt lat="45.98152" lon="4.79759">
        <ele>225</ele>
        <time>2018-06-09T09:27:35Z</time>
      </trkpt>
      <trkpt lat="45.98159" lon="4.7976">
        <ele>225</ele>
        <time>2018-06-09T09:27:37Z</time>
      </trkpt>
      <trkpt lat="45.98162" lon="4.79761">
        <ele>225</ele>
        <time>2018-06-09T09:27:38Z</time>
      </trkpt>
      <trkpt lat="45.98166" lon="4.79764">
        <ele>225</ele>
        <time>2018-06-09T09:27:39Z</time>
      </trkpt>
      <trkpt lat="45.9817" lon="4.79768">
        <ele>226</ele>
        <time>2018-06-09T09:27:40Z</time>
      </trkpt>
      <trkpt lat="45.98175" lon="4.79775">
        <ele>226</ele>
        <time>2018-06-09T09:27:42Z</time>
      </trkpt>
      <trkpt lat="45.98178" lon="4.79781">
        <ele>226</ele>
        <time>2018-06-09T09:27:43Z</time>
      </trkpt>
      <trkpt lat="45.9818" lon="4.79788">
        <ele>226</ele>
        <time>2018-06-09T09:27:44Z</time>
      </trkpt>
      <trkpt lat="45.98182" lon="4.79796">
        <ele>226</ele>
        <time>2018-06-09T09:27:45Z</time>
      </trkpt>
      <trkpt lat="45.98184" lon="4.79804">
        <ele>226</ele>
        <time>2018-06-09T09:27:46Z</time>
      </trkpt>
      <trkpt lat="45.98186" lon="4.79811">
        <ele>225</ele>
        <time>2018-06-09T09:27:47Z</time>
      </trkpt>
      <trkpt lat="45.98189" lon="4.79818">
        <ele>225</ele>
        <time>2018-06-09T09:27:48Z</time>
      </trkpt>
      <trkpt lat="45.98192" lon="4.79827">
        <ele>225</ele>
        <time>2018-06-09T09:27:49Z</time>
      </trkpt>
      <trkpt lat="45.98194" lon="4.79835">
        <ele>225</ele>
        <time>2018-06-09T09:27:50Z</time>
      </trkpt>
      <trkpt lat="45.98197" lon="4.79843">
        <ele>225</ele>
        <time>2018-06-09T09:27:51Z</time>
      </trkpt>
      <trkpt lat="45.98201" lon="4.79853">
        <ele>225</ele>
        <time>2018-06-09T09:27:52Z</time>
      </trkpt>
      <trkpt lat="45.98203" lon="4.79862">
        <ele>225</ele>
        <time>2018-06-09T09:27:53Z</time>
      </trkpt>
      <trkpt lat="45.98209" lon="4.79869">
        <ele>225</ele>
        <time>2018-06-09T09:27:54Z</time>
      </trkpt>
      <trkpt lat="45.98212" lon="4.79878">
        <ele>225</ele>
        <time>2018-06-09T09:27:55Z</time>
      </trkpt>
      <trkpt lat="45.98214" lon="4.79888">
        <ele>225</ele>
        <time>2018-06-09T09:27:56Z</time>
      </trkpt>
      <trkpt lat="45.98218" lon="4.79896">
        <ele>225</ele>
        <time>2018-06-09T09:27:57Z</time>
      </trkpt>
      <trkpt lat="45.98221" lon="4.79904">
        <ele>225</ele>
        <time>2018-06-09T09:27:58Z</time>
      </trkpt>
      <trkpt lat="45.98224" lon="4.79912">
        <ele>225</ele>
        <time>2018-06-09T09:27:59Z</time>
      </trkpt>
      <trkpt lat="45.98227" lon="4.79921">
        <ele>225</ele>
        <time>2018-06-09T09:28:00Z</time>
      </trkpt>
      <trkpt lat="45.98229" lon="4.79929">
        <ele>225</ele>
        <time>2018-06-09T09:28:01Z</time>
      </trkpt>
      <trkpt lat="45.9823" lon="4.79938">
        <ele>225</ele>
        <time>2018-06-09T09:28:02Z</time>
      </trkpt>
      <trkpt lat="45.9823" lon="4.79947">
        <ele>225</ele>
        <time>2018-06-09T09:28:03Z</time>
      </trkpt>
      <trkpt lat="45.98234" lon="4.79955">
        <ele>225</ele>
        <time>2018-06-09T09:28:04Z</time>
      </trkpt>
      <trkpt lat="45.98237" lon="4.79962">
        <ele>225</ele>
        <time>2018-06-09T09:28:05Z</time>
      </trkpt>
      <trkpt lat="45.9824" lon="4.7997">
        <ele>225</ele>
        <time>2018-06-09T09:28:06Z</time>
      </trkpt>
      <trkpt lat="45.98242" lon="4.79979">
        <ele>225</ele>
        <time>2018-06-09T09:28:07Z</time>
      </trkpt>
      <trkpt lat="45.98246" lon="4.79983">
        <ele>225</ele>
        <time>2018-06-09T09:28:08Z</time>
      </trkpt>
      <trkpt lat="45.98248" lon="4.79991">
        <ele>226</ele>
        <time>2018-06-09T09:28:09Z</time>
      </trkpt>
      <trkpt lat="45.9825" lon="4.79997">
        <ele>226</ele>
        <time>2018-06-09T09:28:10Z</time>
      </trkpt>
      <trkpt lat="45.98252" lon="4.80004">
        <ele>227</ele>
        <time>2018-06-09T09:28:11Z</time>
      </trkpt>
      <trkpt lat="45.98254" lon="4.80011">
        <ele>227</ele>
        <time>2018-06-09T09:28:12Z</time>
      </trkpt>
      <trkpt lat="45.98256" lon="4.80018">
        <ele>228</ele>
        <time>2018-06-09T09:28:13Z</time>
      </trkpt>
      <trkpt lat="45.98259" lon="4.80024">
        <ele>228</ele>
        <time>2018-06-09T09:28:14Z</time>
      </trkpt>
      <trkpt lat="45.98264" lon="4.80032">
        <ele>228</ele>
        <time>2018-06-09T09:28:15Z</time>
      </trkpt>
      <trkpt lat="45.98266" lon="4.80039">
        <ele>229</ele>
        <time>2018-06-09T09:28:16Z</time>
      </trkpt>
      <trkpt lat="45.98269" lon="4.80046">
        <ele>229</ele>
        <time>2018-06-09T09:28:17Z</time>
      </trkpt>
      <trkpt lat="45.98271" lon="4.80053">
        <ele>229</ele>
        <time>2018-06-09T09:28:18Z</time>
      </trkpt>
      <trkpt lat="45.98274" lon="4.80059">
        <ele>229</ele>
        <time>2018-06-09T09:28:19Z</time>
      </trkpt>
      <trkpt lat="45.98277" lon="4.80066">
        <ele>229</ele>
        <time>2018-06-09T09:28:20Z</time>
      </trkpt>
      <trkpt lat="45.98279" lon="4.80072">
        <ele>229</ele>
        <time>2018-06-09T09:28:21Z</time>
      </trkpt>
      <trkpt lat="45.98281" lon="4.80077">
        <ele>229</ele>
        <time>2018-06-09T09:28:22Z</time>
      </trkpt>
      <trkpt lat="45.98283" lon="4.80084">
        <ele>228</ele>
        <time>2018-06-09T09:28:23Z</time>
      </trkpt>
      <trkpt lat="45.98286" lon="4.8009">
        <ele>228</ele>
        <time>2018-06-09T09:28:24Z</time>
      </trkpt>
      <trkpt lat="45.98289" lon="4.80097">
        <ele>228</ele>
        <time>2018-06-09T09:28:25Z</time>
      </trkpt>
      <trkpt lat="45.98292" lon="4.80104">
        <ele>228</ele>
        <time>2018-06-09T09:28:26Z</time>
      </trkpt>
      <trkpt lat="45.98295" lon="4.80112">
        <ele>228</ele>
        <time>2018-06-09T09:28:27Z</time>
      </trkpt>
      <trkpt lat="45.98297" lon="4.80119">
        <ele>228</ele>
        <time>2018-06-09T09:28:28Z</time>
      </trkpt>
      <trkpt lat="45.98301" lon="4.80124">
        <ele>228</ele>
        <time>2018-06-09T09:28:29Z</time>
      </trkpt>
      <trkpt lat="45.98303" lon="4.80129">
        <ele>228</ele>
        <time>2018-06-09T09:28:30Z</time>
      </trkpt>
      <trkpt lat="45.98305" lon="4.80136">
        <ele>228</ele>
        <time>2018-06-09T09:28:31Z</time>
      </trkpt>
      <trkpt lat="45.98308" lon="4.80142">
        <ele>228</ele>
        <time>2018-06-09T09:28:32Z</time>
      </trkpt>
      <trkpt lat="45.9831" lon="4.80148">
        <ele>228</ele>
        <time>2018-06-09T09:28:33Z</time>
      </trkpt>
      <trkpt lat="45.98313" lon="4.80155">
        <ele>228</ele>
        <time>2018-06-09T09:28:34Z</time>
      </trkpt>
      <trkpt lat="45.98315" lon="4.80161">
        <ele>228</ele>
        <time>2018-06-09T09:28:35Z</time>
      </trkpt>
      <trkpt lat="45.98318" lon="4.80168">
        <ele>227</ele>
        <time>2018-06-09T09:28:36Z</time>
      </trkpt>
      <trkpt lat="45.9832" lon="4.80175">
        <ele>227</ele>
        <time>2018-06-09T09:28:37Z</time>
      </trkpt>
      <trkpt lat="45.98322" lon="4.80182">
        <ele>227</ele>
        <time>2018-06-09T09:28:38Z</time>
      </trkpt>
      <trkpt lat="45.98325" lon="4.80189">
        <ele>227</ele>
        <time>2018-06-09T09:28:39Z</time>
      </trkpt>
      <trkpt lat="45.98327" lon="4.80195">
        <ele>227</ele>
        <time>2018-06-09T09:28:40Z</time>
      </trkpt>
      <trkpt lat="45.9833" lon="4.80201">
        <ele>227</ele>
        <time>2018-06-09T09:28:41Z</time>
      </trkpt>
      <trkpt lat="45.98332" lon="4.80207">
        <ele>227</ele>
        <time>2018-06-09T09:28:42Z</time>
      </trkpt>
      <trkpt lat="45.98333" lon="4.80214">
        <ele>227</ele>
        <time>2018-06-09T09:28:43Z</time>
      </trkpt>
      <trkpt lat="45.98335" lon="4.8022">
        <ele>230</ele>
        <time>2018-06-09T09:28:44Z</time>
      </trkpt>
      <trkpt lat="45.98333" lon="4.80227">
        <ele>228</ele>
        <time>2018-06-09T09:28:45Z</time>
      </trkpt>
      <trkpt lat="45.98332" lon="4.80233">
        <ele>228</ele>
        <time>2018-06-09T09:28:46Z</time>
      </trkpt>
      <trkpt lat="45.9833" lon="4.8024">
        <ele>229</ele>
        <time>2018-06-09T09:28:47Z</time>
      </trkpt>
      <trkpt lat="45.98329" lon="4.80247">
        <ele>229</ele>
        <time>2018-06-09T09:28:48Z</time>
      </trkpt>
      <trkpt lat="45.98327" lon="4.80254">
        <ele>229</ele>
        <time>2018-06-09T09:28:49Z</time>
      </trkpt>
      <trkpt lat="45.98326" lon="4.80262">
        <ele>228</ele>
        <time>2018-06-09T09:28:50Z</time>
      </trkpt>
      <trkpt lat="45.98323" lon="4.8027">
        <ele>227</ele>
        <time>2018-06-09T09:28:51Z</time>
      </trkpt>
      <trkpt lat="45.98321" lon="4.80278">
        <ele>227</ele>
        <time>2018-06-09T09:28:52Z</time>
      </trkpt>
      <trkpt lat="45.98321" lon="4.80284">
        <ele>227</ele>
        <time>2018-06-09T09:28:53Z</time>
      </trkpt>
      <trkpt lat="45.98319" lon="4.80293">
        <ele>226</ele>
        <time>2018-06-09T09:28:54Z</time>
      </trkpt>
      <trkpt lat="45.98317" lon="4.80301">
        <ele>226</ele>
        <time>2018-06-09T09:28:55Z</time>
      </trkpt>
      <trkpt lat="45.98316" lon="4.8031">
        <ele>227</ele>
        <time>2018-06-09T09:28:56Z</time>
      </trkpt>
      <trkpt lat="45.98316" lon="4.8032">
        <ele>227</ele>
        <time>2018-06-09T09:28:57Z</time>
      </trkpt>
      <trkpt lat="45.98314" lon="4.8033">
        <ele>227</ele>
        <time>2018-06-09T09:28:58Z</time>
      </trkpt>
      <trkpt lat="45.98312" lon="4.80339">
        <ele>226</ele>
        <time>2018-06-09T09:28:59Z</time>
      </trkpt>
      <trkpt lat="45.98309" lon="4.80348">
        <ele>226</ele>
        <time>2018-06-09T09:29:00Z</time>
      </trkpt>
      <trkpt lat="45.98307" lon="4.80359">
        <ele>225</ele>
        <time>2018-06-09T09:29:01Z</time>
      </trkpt>
      <trkpt lat="45.98303" lon="4.80369">
        <ele>225</ele>
        <time>2018-06-09T09:29:02Z</time>
      </trkpt>
      <trkpt lat="45.98301" lon="4.80378">
        <ele>225</ele>
        <time>2018-06-09T09:29:03Z</time>
      </trkpt>
      <trkpt lat="45.98298" lon="4.8039">
        <ele>225</ele>
        <time>2018-06-09T09:29:04Z</time>
      </trkpt>
      <trkpt lat="45.98298" lon="4.80396">
        <ele>225</ele>
        <time>2018-06-09T09:29:05Z</time>
      </trkpt>
      <trkpt lat="45.98296" lon="4.8041">
        <ele>224</ele>
        <time>2018-06-09T09:29:06Z</time>
      </trkpt>
      <trkpt lat="45.98289" lon="4.80418">
        <ele>224</ele>
        <time>2018-06-09T09:29:07Z</time>
      </trkpt>
      <trkpt lat="45.9829" lon="4.80432">
        <ele>224</ele>
        <time>2018-06-09T09:29:08Z</time>
      </trkpt>
      <trkpt lat="45.98285" lon="4.80441">
        <ele>223</ele>
        <time>2018-06-09T09:29:09Z</time>
      </trkpt>
      <trkpt lat="45.98286" lon="4.80446">
        <ele>224</ele>
        <time>2018-06-09T09:29:10Z</time>
      </trkpt>
      <trkpt lat="45.98288" lon="4.80457">
        <ele>224</ele>
        <time>2018-06-09T09:29:11Z</time>
      </trkpt>
      <trkpt lat="45.98286" lon="4.80468">
        <ele>224</ele>
        <time>2018-06-09T09:29:12Z</time>
      </trkpt>
      <trkpt lat="45.9828" lon="4.80479">
        <ele>223</ele>
        <time>2018-06-09T09:29:13Z</time>
      </trkpt>
      <trkpt lat="45.98274" lon="4.80491">
        <ele>223</ele>
        <time>2018-06-09T09:29:14Z</time>
      </trkpt>
      <trkpt lat="45.98274" lon="4.80495">
        <ele>223</ele>
        <time>2018-06-09T09:29:15Z</time>
      </trkpt>
      <trkpt lat="45.98275" lon="4.80506">
        <ele>223</ele>
        <time>2018-06-09T09:29:16Z</time>
      </trkpt>
      <trkpt lat="45.98272" lon="4.80517">
        <ele>224</ele>
        <time>2018-06-09T09:29:17Z</time>
      </trkpt>
      <trkpt lat="45.98269" lon="4.80526">
        <ele>224</ele>
        <time>2018-06-09T09:29:18Z</time>
      </trkpt>
      <trkpt lat="45.98269" lon="4.80532">
        <ele>224</ele>
        <time>2018-06-09T09:29:19Z</time>
      </trkpt>
      <trkpt lat="45.98267" lon="4.80542">
        <ele>224</ele>
        <time>2018-06-09T09:29:20Z</time>
      </trkpt>
      <trkpt lat="45.98264" lon="4.8055">
        <ele>224</ele>
        <time>2018-06-09T09:29:21Z</time>
      </trkpt>
      <trkpt lat="45.9826" lon="4.80554">
        <ele>224</ele>
        <time>2018-06-09T09:29:22Z</time>
      </trkpt>
      <trkpt lat="45.98255" lon="4.8056">
        <ele>224</ele>
        <time>2018-06-09T09:29:23Z</time>
      </trkpt>
      <trkpt lat="45.98253" lon="4.80567">
        <ele>224</ele>
        <time>2018-06-09T09:29:24Z</time>
      </trkpt>
      <trkpt lat="45.98251" lon="4.80573">
        <ele>224</ele>
        <time>2018-06-09T09:29:25Z</time>
      </trkpt>
      <trkpt lat="45.98249" lon="4.80581">
        <ele>224</ele>
        <time>2018-06-09T09:29:26Z</time>
      </trkpt>
      <trkpt lat="45.98247" lon="4.80589">
        <ele>224</ele>
        <time>2018-06-09T09:29:27Z</time>
      </trkpt>
      <trkpt lat="45.98246" lon="4.80596">
        <ele>224</ele>
        <time>2018-06-09T09:29:28Z</time>
      </trkpt>
      <trkpt lat="45.98243" lon="4.80603">
        <ele>224</ele>
        <time>2018-06-09T09:29:29Z</time>
      </trkpt>
      <trkpt lat="45.98242" lon="4.80611">
        <ele>224</ele>
        <time>2018-06-09T09:29:30Z</time>
      </trkpt>
      <trkpt lat="45.9824" lon="4.80617">
        <ele>224</ele>
        <time>2018-06-09T09:29:31Z</time>
      </trkpt>
      <trkpt lat="45.98237" lon="4.80624">
        <ele>224</ele>
        <time>2018-06-09T09:29:32Z</time>
      </trkpt>
      <trkpt lat="45.98236" lon="4.80631">
        <ele>224</ele>
        <time>2018-06-09T09:29:33Z</time>
      </trkpt>
      <trkpt lat="45.98233" lon="4.80638">
        <ele>224</ele>
        <time>2018-06-09T09:29:34Z</time>
      </trkpt>
      <trkpt lat="45.98232" lon="4.80647">
        <ele>223</ele>
        <time>2018-06-09T09:29:35Z</time>
      </trkpt>
      <trkpt lat="45.98231" lon="4.80661">
        <ele>223</ele>
        <time>2018-06-09T09:29:36Z</time>
      </trkpt>
      <trkpt lat="45.98226" lon="4.80666">
        <ele>223</ele>
        <time>2018-06-09T09:29:38Z</time>
      </trkpt>
      <trkpt lat="45.98224" lon="4.80671">
        <ele>224</ele>
        <time>2018-06-09T09:29:39Z</time>
      </trkpt>
      <trkpt lat="45.98219" lon="4.80675">
        <ele>224</ele>
        <time>2018-06-09T09:29:41Z</time>
      </trkpt>
      <trkpt lat="45.98214" lon="4.80678">
        <ele>224</ele>
        <time>2018-06-09T09:29:42Z</time>
      </trkpt>
      <trkpt lat="45.98207" lon="4.8068">
        <ele>224</ele>
        <time>2018-06-09T09:29:44Z</time>
      </trkpt>
      <trkpt lat="45.98201" lon="4.80682">
        <ele>225</ele>
        <time>2018-06-09T09:29:45Z</time>
      </trkpt>
      <trkpt lat="45.98194" lon="4.80682">
        <ele>225</ele>
        <time>2018-06-09T09:29:47Z</time>
      </trkpt>
      <trkpt lat="45.98185" lon="4.80685">
        <ele>225</ele>
        <time>2018-06-09T09:29:48Z</time>
      </trkpt>
      <trkpt lat="45.98178" lon="4.80685">
        <ele>225</ele>
        <time>2018-06-09T09:29:50Z</time>
      </trkpt>
      <trkpt lat="45.98174" lon="4.80685">
        <ele>225</ele>
        <time>2018-06-09T09:29:51Z</time>
      </trkpt>
      <trkpt lat="45.98169" lon="4.80686">
        <ele>225</ele>
        <time>2018-06-09T09:29:52Z</time>
      </trkpt>
      <trkpt lat="45.98164" lon="4.80687">
        <ele>227</ele>
        <time>2018-06-09T09:29:53Z</time>
      </trkpt>
      <trkpt lat="45.98159" lon="4.80688">
        <ele>227</ele>
        <time>2018-06-09T09:29:54Z</time>
      </trkpt>
      <trkpt lat="45.98155" lon="4.80687">
        <ele>227</ele>
        <time>2018-06-09T09:29:55Z</time>
      </trkpt>
      <trkpt lat="45.98146" lon="4.80688">
        <ele>228</ele>
        <time>2018-06-09T09:29:57Z</time>
      </trkpt>
      <trkpt lat="45.98142" lon="4.80689">
        <ele>228</ele>
        <time>2018-06-09T09:29:58Z</time>
      </trkpt>
      <trkpt lat="45.98137" lon="4.80689">
        <ele>228</ele>
        <time>2018-06-09T09:29:59Z</time>
      </trkpt>
      <trkpt lat="45.98133" lon="4.80689">
        <ele>228</ele>
        <time>2018-06-09T09:30:00Z</time>
      </trkpt>
      <trkpt lat="45.98126" lon="4.80688">
        <ele>228</ele>
        <time>2018-06-09T09:30:02Z</time>
      </trkpt>
      <trkpt lat="45.9812" lon="4.80688">
        <ele>228</ele>
        <time>2018-06-09T09:30:03Z</time>
      </trkpt>
      <trkpt lat="45.98112" lon="4.80688">
        <ele>228</ele>
        <time>2018-06-09T09:30:05Z</time>
      </trkpt>
      <trkpt lat="45.98108" lon="4.80688">
        <ele>228</ele>
        <time>2018-06-09T09:30:06Z</time>
      </trkpt>
      <trkpt lat="45.98099" lon="4.80687">
        <ele>228</ele>
        <time>2018-06-09T09:30:08Z</time>
      </trkpt>
      <trkpt lat="45.98096" lon="4.80687">
        <ele>228</ele>
        <time>2018-06-09T09:30:09Z</time>
      </trkpt>
      <trkpt lat="45.9809" lon="4.80686">
        <ele>228</ele>
        <time>2018-06-09T09:30:11Z</time>
      </trkpt>
      <trkpt lat="45.98085" lon="4.80687">
        <ele>228</ele>
        <time>2018-06-09T09:30:12Z</time>
      </trkpt>
      <trkpt lat="45.98078" lon="4.80688">
        <ele>229</ele>
        <time>2018-06-09T09:30:15Z</time>
      </trkpt>
      <trkpt lat="45.98076" lon="4.80688">
        <ele>230</ele>
        <time>2018-06-09T09:30:16Z</time>
      </trkpt>
      <trkpt lat="45.98068" lon="4.8069">
        <ele>230</ele>
        <time>2018-06-09T09:30:19Z</time>
      </trkpt>
      <trkpt lat="45.98065" lon="4.80691">
        <ele>230</ele>
        <time>2018-06-09T09:30:20Z</time>
      </trkpt>
      <trkpt lat="45.98055" lon="4.80693">
        <ele>230</ele>
        <time>2018-06-09T09:30:21Z</time>
      </trkpt>
      <trkpt lat="45.98047" lon="4.80696">
        <ele>230</ele>
        <time>2018-06-09T09:30:25Z</time>
      </trkpt>
      <trkpt lat="45.98044" lon="4.80696">
        <ele>230</ele>
        <time>2018-06-09T09:30:26Z</time>
      </trkpt>
      <trkpt lat="45.98036" lon="4.807">
        <ele>230</ele>
        <time>2018-06-09T09:30:29Z</time>
      </trkpt>
      <trkpt lat="45.98034" lon="4.80703">
        <ele>230</ele>
        <time>2018-06-09T09:30:30Z</time>
      </trkpt>
      <trkpt lat="45.98031" lon="4.80713">
        <ele>231</ele>
        <time>2018-06-09T09:30:33Z</time>
      </trkpt>
      <trkpt lat="45.98031" lon="4.80716">
        <ele>231</ele>
        <time>2018-06-09T09:30:34Z</time>
      </trkpt>
      <trkpt lat="45.98035" lon="4.80725">
        <ele>231</ele>
        <time>2018-06-09T09:30:37Z</time>
      </trkpt>
      <trkpt lat="45.98037" lon="4.80729">
        <ele>231</ele>
        <time>2018-06-09T09:30:38Z</time>
      </trkpt>
      <trkpt lat="45.9804" lon="4.80738">
        <ele>231</ele>
        <time>2018-06-09T09:30:41Z</time>
      </trkpt>
      <trkpt lat="45.98042" lon="4.80741">
        <ele>231</ele>
        <time>2018-06-09T09:30:42Z</time>
      </trkpt>
      <trkpt lat="45.98044" lon="4.80751">
        <ele>233</ele>
        <time>2018-06-09T09:30:45Z</time>
      </trkpt>
      <trkpt lat="45.98045" lon="4.80755">
        <ele>233</ele>
        <time>2018-06-09T09:30:46Z</time>
      </trkpt>
      <trkpt lat="45.98047" lon="4.80766">
        <ele>233</ele>
        <time>2018-06-09T09:30:49Z</time>
      </trkpt>
      <trkpt lat="45.98048" lon="4.8077">
        <ele>233</ele>
        <time>2018-06-09T09:30:50Z</time>
      </trkpt>
      <trkpt lat="45.98049" lon="4.80778">
        <ele>233</ele>
        <time>2018-06-09T09:30:52Z</time>
      </trkpt>
      <trkpt lat="45.9805" lon="4.80782">
        <ele>233</ele>
        <time>2018-06-09T09:30:53Z</time>
      </trkpt>
      <trkpt lat="45.98051" lon="4.80791">
        <ele>233</ele>
        <time>2018-06-09T09:30:55Z</time>
      </trkpt>
      <trkpt lat="45.98052" lon="4.80796">
        <ele>233</ele>
        <time>2018-06-09T09:30:56Z</time>
      </trkpt>
      <trkpt lat="45.98054" lon="4.80804">
        <ele>234</ele>
        <time>2018-06-09T09:30:58Z</time>
      </trkpt>
      <trkpt lat="45.98055" lon="4.80808">
        <ele>234</ele>
        <time>2018-06-09T09:30:59Z</time>
      </trkpt>
      <trkpt lat="45.98057" lon="4.8082">
        <ele>234</ele>
        <time>2018-06-09T09:31:02Z</time>
      </trkpt>
      <trkpt lat="45.98058" lon="4.80824">
        <ele>234</ele>
        <time>2018-06-09T09:31:03Z</time>
      </trkpt>
      <trkpt lat="45.98061" lon="4.80835">
        <ele>236</ele>
        <time>2018-06-09T09:31:06Z</time>
      </trkpt>
      <trkpt lat="45.98062" lon="4.80839">
        <ele>236</ele>
        <time>2018-06-09T09:31:07Z</time>
      </trkpt>
      <trkpt lat="45.98065" lon="4.80851">
        <ele>236</ele>
        <time>2018-06-09T09:31:10Z</time>
      </trkpt>
      <trkpt lat="45.98066" lon="4.80854">
        <ele>236</ele>
        <time>2018-06-09T09:31:11Z</time>
      </trkpt>
      <trkpt lat="45.98071" lon="4.80864">
        <ele>237</ele>
        <time>2018-06-09T09:31:14Z</time>
      </trkpt>
      <trkpt lat="45.98072" lon="4.80867">
        <ele>237</ele>
        <time>2018-06-09T09:31:15Z</time>
      </trkpt>
      <trkpt lat="45.98075" lon="4.80877">
        <ele>237</ele>
        <time>2018-06-09T09:31:18Z</time>
      </trkpt>
      <trkpt lat="45.98075" lon="4.80881">
        <ele>237</ele>
        <time>2018-06-09T09:31:19Z</time>
      </trkpt>
      <trkpt lat="45.98078" lon="4.80893">
        <ele>238</ele>
        <time>2018-06-09T09:31:23Z</time>
      </trkpt>
      <trkpt lat="45.98079" lon="4.80896">
        <ele>238</ele>
        <time>2018-06-09T09:31:24Z</time>
      </trkpt>
      <trkpt lat="45.98082" lon="4.80905">
        <ele>238</ele>
        <time>2018-06-09T09:31:27Z</time>
      </trkpt>
      <trkpt lat="45.98083" lon="4.80909">
        <ele>238</ele>
        <time>2018-06-09T09:31:28Z</time>
      </trkpt>
      <trkpt lat="45.98084" lon="4.80919">
        <ele>239</ele>
        <time>2018-06-09T09:31:31Z</time>
      </trkpt>
      <trkpt lat="45.98085" lon="4.80922">
        <ele>239</ele>
        <time>2018-06-09T09:31:32Z</time>
      </trkpt>
      <trkpt lat="45.98087" lon="4.80933">
        <ele>238</ele>
        <time>2018-06-09T09:31:35Z</time>
      </trkpt>
      <trkpt lat="45.98088" lon="4.80937">
        <ele>238</ele>
        <time>2018-06-09T09:31:36Z</time>
      </trkpt>
      <trkpt lat="45.9809" lon="4.80947">
        <ele>238</ele>
        <time>2018-06-09T09:31:39Z</time>
      </trkpt>
      <trkpt lat="45.98091" lon="4.8095">
        <ele>238</ele>
        <time>2018-06-09T09:31:40Z</time>
      </trkpt>
      <trkpt lat="45.98094" lon="4.80962">
        <ele>239</ele>
        <time>2018-06-09T09:31:44Z</time>
      </trkpt>
      <trkpt lat="45.98094" lon="4.80965">
        <ele>239</ele>
        <time>2018-06-09T09:31:45Z</time>
      </trkpt>
      <trkpt lat="45.98097" lon="4.80974">
        <ele>239</ele>
        <time>2018-06-09T09:31:48Z</time>
      </trkpt>
      <trkpt lat="45.98098" lon="4.80977">
        <ele>239</ele>
        <time>2018-06-09T09:31:49Z</time>
      </trkpt>
      <trkpt lat="45.98102" lon="4.80988">
        <ele>239</ele>
        <time>2018-06-09T09:31:53Z</time>
      </trkpt>
      <trkpt lat="45.98105" lon="4.80999">
        <ele>240</ele>
        <time>2018-06-09T09:31:54Z</time>
      </trkpt>
      <trkpt lat="45.98108" lon="4.8101">
        <ele>242</ele>
        <time>2018-06-09T09:31:56Z</time>
      </trkpt>
      <trkpt lat="45.98111" lon="4.81016">
        <ele>242</ele>
        <time>2018-06-09T09:31:57Z</time>
      </trkpt>
      <trkpt lat="45.98115" lon="4.81027">
        <ele>242</ele>
        <time>2018-06-09T09:31:59Z</time>
      </trkpt>
      <trkpt lat="45.98116" lon="4.81033">
        <ele>242</ele>
        <time>2018-06-09T09:32:00Z</time>
      </trkpt>
      <trkpt lat="45.98121" lon="4.81044">
        <ele>242</ele>
        <time>2018-06-09T09:32:02Z</time>
      </trkpt>
      <trkpt lat="45.98123" lon="4.81049">
        <ele>242</ele>
        <time>2018-06-09T09:32:03Z</time>
      </trkpt>
      <trkpt lat="45.98126" lon="4.81059">
        <ele>243</ele>
        <time>2018-06-09T09:32:05Z</time>
      </trkpt>
      <trkpt lat="45.98127" lon="4.81064">
        <ele>243</ele>
        <time>2018-06-09T09:32:06Z</time>
      </trkpt>
      <trkpt lat="45.98129" lon="4.8107">
        <ele>243</ele>
        <time>2018-06-09T09:32:07Z</time>
      </trkpt>
      <trkpt lat="45.98132" lon="4.81076">
        <ele>243</ele>
        <time>2018-06-09T09:32:08Z</time>
      </trkpt>
      <trkpt lat="45.98134" lon="4.81082">
        <ele>243</ele>
        <time>2018-06-09T09:32:09Z</time>
      </trkpt>
      <trkpt lat="45.98136" lon="4.81088">
        <ele>245</ele>
        <time>2018-06-09T09:32:10Z</time>
      </trkpt>
      <trkpt lat="45.9814" lon="4.81099">
        <ele>245</ele>
        <time>2018-06-09T09:32:12Z</time>
      </trkpt>
      <trkpt lat="45.98142" lon="4.81104">
        <ele>245</ele>
        <time>2018-06-09T09:32:13Z</time>
      </trkpt>
      <trkpt lat="45.98146" lon="4.81113">
        <ele>245</ele>
        <time>2018-06-09T09:32:15Z</time>
      </trkpt>
      <trkpt lat="45.98149" lon="4.81119">
        <ele>245</ele>
        <time>2018-06-09T09:32:16Z</time>
      </trkpt>
      <trkpt lat="45.98153" lon="4.81129">
        <ele>245</ele>
        <time>2018-06-09T09:32:18Z</time>
      </trkpt>
      <trkpt lat="45.98155" lon="4.81134">
        <ele>245</ele>
        <time>2018-06-09T09:32:19Z</time>
      </trkpt>
      <trkpt lat="45.98159" lon="4.81144">
        <ele>245</ele>
        <time>2018-06-09T09:32:21Z</time>
      </trkpt>
      <trkpt lat="45.98161" lon="4.81149">
        <ele>245</ele>
        <time>2018-06-09T09:32:22Z</time>
      </trkpt>
      <trkpt lat="45.98165" lon="4.81158">
        <ele>245</ele>
        <time>2018-06-09T09:32:24Z</time>
      </trkpt>
      <trkpt lat="45.98167" lon="4.81164">
        <ele>245</ele>
        <time>2018-06-09T09:32:25Z</time>
      </trkpt>
      <trkpt lat="45.9817" lon="4.81173">
        <ele>245</ele>
        <time>2018-06-09T09:32:27Z</time>
      </trkpt>
      <trkpt lat="45.98171" lon="4.81178">
        <ele>245</ele>
        <time>2018-06-09T09:32:28Z</time>
      </trkpt>
      <trkpt lat="45.98173" lon="4.81189">
        <ele>245</ele>
        <time>2018-06-09T09:32:31Z</time>
      </trkpt>
      <trkpt lat="45.98173" lon="4.81192">
        <ele>245</ele>
        <time>2018-06-09T09:32:32Z</time>
      </trkpt>
      <trkpt lat="45.98174" lon="4.81203">
        <ele>245</ele>
        <time>2018-06-09T09:32:33Z</time>
      </trkpt>
      <trkpt lat="45.98175" lon="4.81208">
        <ele>246</ele>
        <time>2018-06-09T09:32:34Z</time>
      </trkpt>
      <trkpt lat="45.98177" lon="4.8122">
        <ele>246</ele>
        <time>2018-06-09T09:32:36Z</time>
      </trkpt>
      <trkpt lat="45.98177" lon="4.81226">
        <ele>246</ele>
        <time>2018-06-09T09:32:37Z</time>
      </trkpt>
      <trkpt lat="45.98177" lon="4.81235">
        <ele>246</ele>
        <time>2018-06-09T09:32:39Z</time>
      </trkpt>
      <trkpt lat="45.98177" lon="4.81243">
        <ele>247</ele>
        <time>2018-06-09T09:32:40Z</time>
      </trkpt>
      <trkpt lat="45.9818" lon="4.81254">
        <ele>247</ele>
        <time>2018-06-09T09:32:42Z</time>
      </trkpt>
      <trkpt lat="45.98181" lon="4.8126">
        <ele>247</ele>
        <time>2018-06-09T09:32:43Z</time>
      </trkpt>
      <trkpt lat="45.98183" lon="4.81269">
        <ele>247</ele>
        <time>2018-06-09T09:32:45Z</time>
      </trkpt>
      <trkpt lat="45.98185" lon="4.81277">
        <ele>247</ele>
        <time>2018-06-09T09:32:46Z</time>
      </trkpt>
      <trkpt lat="45.98185" lon="4.81283">
        <ele>247</ele>
        <time>2018-06-09T09:32:47Z</time>
      </trkpt>
      <trkpt lat="45.98186" lon="4.81289">
        <ele>247</ele>
        <time>2018-06-09T09:32:48Z</time>
      </trkpt>
      <trkpt lat="45.98188" lon="4.81302">
        <ele>247</ele>
        <time>2018-06-09T09:32:50Z</time>
      </trkpt>
      <trkpt lat="45.98189" lon="4.81308">
        <ele>247</ele>
        <time>2018-06-09T09:32:51Z</time>
      </trkpt>
      <trkpt lat="45.98193" lon="4.81319">
        <ele>247</ele>
        <time>2018-06-09T09:32:53Z</time>
      </trkpt>
      <trkpt lat="45.98194" lon="4.81325">
        <ele>247</ele>
        <time>2018-06-09T09:32:54Z</time>
      </trkpt>
      <trkpt lat="45.98197" lon="4.81337">
        <ele>248</ele>
        <time>2018-06-09T09:32:56Z</time>
      </trkpt>
      <trkpt lat="45.98198" lon="4.81343">
        <ele>248</ele>
        <time>2018-06-09T09:32:57Z</time>
      </trkpt>
      <trkpt lat="45.98201" lon="4.81354">
        <ele>248</ele>
        <time>2018-06-09T09:32:59Z</time>
      </trkpt>
      <trkpt lat="45.98202" lon="4.81359">
        <ele>248</ele>
        <time>2018-06-09T09:33:00Z</time>
      </trkpt>
      <trkpt lat="45.98205" lon="4.81371">
        <ele>248</ele>
        <time>2018-06-09T09:33:02Z</time>
      </trkpt>
      <trkpt lat="45.98205" lon="4.81373">
        <ele>248</ele>
        <time>2018-06-09T09:33:03Z</time>
      </trkpt>
      <trkpt lat="45.98208" lon="4.81384">
        <ele>248</ele>
        <time>2018-06-09T09:33:06Z</time>
      </trkpt>
      <trkpt lat="45.98209" lon="4.81387">
        <ele>248</ele>
        <time>2018-06-09T09:33:07Z</time>
      </trkpt>
      <trkpt lat="45.9821" lon="4.81391">
        <ele>248</ele>
        <time>2018-06-09T09:33:08Z</time>
      </trkpt>
      <trkpt lat="45.98213" lon="4.81404">
        <ele>248</ele>
        <time>2018-06-09T09:33:09Z</time>
      </trkpt>
      <trkpt lat="45.98215" lon="4.81412">
        <ele>248</ele>
        <time>2018-06-09T09:33:11Z</time>
      </trkpt>
      <trkpt lat="45.98218" lon="4.81419">
        <ele>249</ele>
        <time>2018-06-09T09:33:12Z</time>
      </trkpt>
      <trkpt lat="45.9822" lon="4.81428">
        <ele>249</ele>
        <time>2018-06-09T09:33:14Z</time>
      </trkpt>
      <trkpt lat="45.98222" lon="4.81432">
        <ele>249</ele>
        <time>2018-06-09T09:33:15Z</time>
      </trkpt>
      <trkpt lat="45.98226" lon="4.81442">
        <ele>249</ele>
        <time>2018-06-09T09:33:17Z</time>
      </trkpt>
      <trkpt lat="45.98228" lon="4.81447">
        <ele>249</ele>
        <time>2018-06-09T09:33:18Z</time>
      </trkpt>
      <trkpt lat="45.98233" lon="4.81458">
        <ele>249</ele>
        <time>2018-06-09T09:33:20Z</time>
      </trkpt>
      <trkpt lat="45.98234" lon="4.81464">
        <ele>249</ele>
        <time>2018-06-09T09:33:21Z</time>
      </trkpt>
      <trkpt lat="45.98237" lon="4.81475">
        <ele>249</ele>
        <time>2018-06-09T09:33:23Z</time>
      </trkpt>
      <trkpt lat="45.98239" lon="4.81481">
        <ele>249</ele>
        <time>2018-06-09T09:33:24Z</time>
      </trkpt>
      <trkpt lat="45.98243" lon="4.81492">
        <ele>249</ele>
        <time>2018-06-09T09:33:26Z</time>
      </trkpt>
      <trkpt lat="45.98244" lon="4.81498">
        <ele>249</ele>
        <time>2018-06-09T09:33:27Z</time>
      </trkpt>
      <trkpt lat="45.98246" lon="4.81505">
        <ele>249</ele>
        <time>2018-06-09T09:33:28Z</time>
      </trkpt>
      <trkpt lat="45.98248" lon="4.81511">
        <ele>249</ele>
        <time>2018-06-09T09:33:29Z</time>
      </trkpt>
      <trkpt lat="45.98252" lon="4.81518">
        <ele>247</ele>
        <time>2018-06-09T09:33:30Z</time>
      </trkpt>
      <trkpt lat="45.98253" lon="4.81525">
        <ele>247</ele>
        <time>2018-06-09T09:33:31Z</time>
      </trkpt>
      <trkpt lat="45.98256" lon="4.81531">
        <ele>247</ele>
        <time>2018-06-09T09:33:32Z</time>
      </trkpt>
      <trkpt lat="45.98258" lon="4.8154">
        <ele>247</ele>
        <time>2018-06-09T09:33:33Z</time>
      </trkpt>
      <trkpt lat="45.98261" lon="4.81546">
        <ele>247</ele>
        <time>2018-06-09T09:33:34Z</time>
      </trkpt>
      <trkpt lat="45.98263" lon="4.81553">
        <ele>247</ele>
        <time>2018-06-09T09:33:35Z</time>
      </trkpt>
      <trkpt lat="45.98266" lon="4.81559">
        <ele>247</ele>
        <time>2018-06-09T09:33:36Z</time>
      </trkpt>
      <trkpt lat="45.98268" lon="4.81566">
        <ele>247</ele>
        <time>2018-06-09T09:33:37Z</time>
      </trkpt>
      <trkpt lat="45.9827" lon="4.81571">
        <ele>247</ele>
        <time>2018-06-09T09:33:38Z</time>
      </trkpt>
      <trkpt lat="45.98272" lon="4.81578">
        <ele>247</ele>
        <time>2018-06-09T09:33:39Z</time>
      </trkpt>
      <trkpt lat="45.98275" lon="4.81584">
        <ele>247</ele>
        <time>2018-06-09T09:33:40Z</time>
      </trkpt>
      <trkpt lat="45.98276" lon="4.8159">
        <ele>247</ele>
        <time>2018-06-09T09:33:41Z</time>
      </trkpt>
      <trkpt lat="45.98281" lon="4.816">
        <ele>247</ele>
        <time>2018-06-09T09:33:43Z</time>
      </trkpt>
      <trkpt lat="45.98283" lon="4.81606">
        <ele>247</ele>
        <time>2018-06-09T09:33:44Z</time>
      </trkpt>
      <trkpt lat="45.98285" lon="4.81612">
        <ele>247</ele>
        <time>2018-06-09T09:33:45Z</time>
      </trkpt>
      <trkpt lat="45.98289" lon="4.81618">
        <ele>246</ele>
        <time>2018-06-09T09:33:46Z</time>
      </trkpt>
      <trkpt lat="45.98292" lon="4.81622">
        <ele>246</ele>
        <time>2018-06-09T09:33:47Z</time>
      </trkpt>
      <trkpt lat="45.98296" lon="4.81627">
        <ele>246</ele>
        <time>2018-06-09T09:33:48Z</time>
      </trkpt>
      <trkpt lat="45.983" lon="4.81631">
        <ele>246</ele>
        <time>2018-06-09T09:33:49Z</time>
      </trkpt>
      <trkpt lat="45.98304" lon="4.81636">
        <ele>246</ele>
        <time>2018-06-09T09:33:50Z</time>
      </trkpt>
      <trkpt lat="45.98308" lon="4.8164">
        <ele>246</ele>
        <time>2018-06-09T09:33:51Z</time>
      </trkpt>
      <trkpt lat="45.98312" lon="4.81643">
        <ele>246</ele>
        <time>2018-06-09T09:33:52Z</time>
      </trkpt>
      <trkpt lat="45.98317" lon="4.81648">
        <ele>246</ele>
        <time>2018-06-09T09:33:53Z</time>
      </trkpt>
      <trkpt lat="45.98321" lon="4.81653">
        <ele>246</ele>
        <time>2018-06-09T09:33:54Z</time>
      </trkpt>
      <trkpt lat="45.98325" lon="4.81657">
        <ele>246</ele>
        <time>2018-06-09T09:33:55Z</time>
      </trkpt>
      <trkpt lat="45.98329" lon="4.8166">
        <ele>246</ele>
        <time>2018-06-09T09:33:56Z</time>
      </trkpt>
      <trkpt lat="45.98333" lon="4.81664">
        <ele>246</ele>
        <time>2018-06-09T09:33:57Z</time>
      </trkpt>
      <trkpt lat="45.98338" lon="4.81667">
        <ele>246</ele>
        <time>2018-06-09T09:33:58Z</time>
      </trkpt>
      <trkpt lat="45.98342" lon="4.8167">
        <ele>245</ele>
        <time>2018-06-09T09:33:59Z</time>
      </trkpt>
      <trkpt lat="45.98348" lon="4.81672">
        <ele>245</ele>
        <time>2018-06-09T09:34:00Z</time>
      </trkpt>
      <trkpt lat="45.98353" lon="4.81672">
        <ele>245</ele>
        <time>2018-06-09T09:34:01Z</time>
      </trkpt>
      <trkpt lat="45.98359" lon="4.81674">
        <ele>244</ele>
        <time>2018-06-09T09:34:02Z</time>
      </trkpt>
      <trkpt lat="45.98365" lon="4.81674">
        <ele>244</ele>
        <time>2018-06-09T09:34:03Z</time>
      </trkpt>
      <trkpt lat="45.9837" lon="4.81674">
        <ele>244</ele>
        <time>2018-06-09T09:34:04Z</time>
      </trkpt>
      <trkpt lat="45.98376" lon="4.81673">
        <ele>244</ele>
        <time>2018-06-09T09:34:05Z</time>
      </trkpt>
      <trkpt lat="45.98381" lon="4.81672">
        <ele>244</ele>
        <time>2018-06-09T09:34:06Z</time>
      </trkpt>
      <trkpt lat="45.98386" lon="4.81671">
        <ele>243</ele>
        <time>2018-06-09T09:34:07Z</time>
      </trkpt>
      <trkpt lat="45.98392" lon="4.8167">
        <ele>243</ele>
        <time>2018-06-09T09:34:08Z</time>
      </trkpt>
      <trkpt lat="45.98397" lon="4.8167">
        <ele>243</ele>
        <time>2018-06-09T09:34:09Z</time>
      </trkpt>
      <trkpt lat="45.98402" lon="4.81668">
        <ele>242</ele>
        <time>2018-06-09T09:34:10Z</time>
      </trkpt>
      <trkpt lat="45.98407" lon="4.81666">
        <ele>241</ele>
        <time>2018-06-09T09:34:11Z</time>
      </trkpt>
      <trkpt lat="45.98412" lon="4.81666">
        <ele>241</ele>
        <time>2018-06-09T09:34:12Z</time>
      </trkpt>
      <trkpt lat="45.9842" lon="4.81666">
        <ele>240</ele>
        <time>2018-06-09T09:34:14Z</time>
      </trkpt>
      <trkpt lat="45.98425" lon="4.81667">
        <ele>240</ele>
        <time>2018-06-09T09:34:15Z</time>
      </trkpt>
      <trkpt lat="45.9843" lon="4.81667">
        <ele>240</ele>
        <time>2018-06-09T09:34:16Z</time>
      </trkpt>
      <trkpt lat="45.98435" lon="4.81669">
        <ele>240</ele>
        <time>2018-06-09T09:34:17Z</time>
      </trkpt>
      <trkpt lat="45.98442" lon="4.81669">
        <ele>239</ele>
        <time>2018-06-09T09:34:18Z</time>
      </trkpt>
      <trkpt lat="45.98446" lon="4.81675">
        <ele>239</ele>
        <time>2018-06-09T09:34:19Z</time>
      </trkpt>
      <trkpt lat="45.9845" lon="4.81681">
        <ele>239</ele>
        <time>2018-06-09T09:34:20Z</time>
      </trkpt>
      <trkpt lat="45.98455" lon="4.81688">
        <ele>239</ele>
        <time>2018-06-09T09:34:21Z</time>
      </trkpt>
      <trkpt lat="45.98458" lon="4.81694">
        <ele>239</ele>
        <time>2018-06-09T09:34:22Z</time>
      </trkpt>
      <trkpt lat="45.98461" lon="4.81699">
        <ele>239</ele>
        <time>2018-06-09T09:34:23Z</time>
      </trkpt>
      <trkpt lat="45.98466" lon="4.81705">
        <ele>239</ele>
        <time>2018-06-09T09:34:24Z</time>
      </trkpt>
      <trkpt lat="45.9847" lon="4.81712">
        <ele>239</ele>
        <time>2018-06-09T09:34:25Z</time>
      </trkpt>
      <trkpt lat="45.98475" lon="4.81719">
        <ele>239</ele>
        <time>2018-06-09T09:34:26Z</time>
      </trkpt>
      <trkpt lat="45.98481" lon="4.81725">
        <ele>238</ele>
        <time>2018-06-09T09:34:27Z</time>
      </trkpt>
      <trkpt lat="45.98488" lon="4.81732">
        <ele>238</ele>
        <time>2018-06-09T09:34:28Z</time>
      </trkpt>
      <trkpt lat="45.98494" lon="4.81739">
        <ele>238</ele>
        <time>2018-06-09T09:34:29Z</time>
      </trkpt>
      <trkpt lat="45.98501" lon="4.81746">
        <ele>237</ele>
        <time>2018-06-09T09:34:30Z</time>
      </trkpt>
      <trkpt lat="45.98508" lon="4.81751">
        <ele>237</ele>
        <time>2018-06-09T09:34:31Z</time>
      </trkpt>
      <trkpt lat="45.98514" lon="4.81759">
        <ele>237</ele>
        <time>2018-06-09T09:34:32Z</time>
      </trkpt>
      <trkpt lat="45.98519" lon="4.81766">
        <ele>237</ele>
        <time>2018-06-09T09:34:33Z</time>
      </trkpt>
      <trkpt lat="45.98524" lon="4.81775">
        <ele>238</ele>
        <time>2018-06-09T09:34:34Z</time>
      </trkpt>
      <trkpt lat="45.9853" lon="4.81784">
        <ele>238</ele>
        <time>2018-06-09T09:34:35Z</time>
      </trkpt>
      <trkpt lat="45.98536" lon="4.81792">
        <ele>238</ele>
        <time>2018-06-09T09:34:36Z</time>
      </trkpt>
      <trkpt lat="45.98541" lon="4.81799">
        <ele>238</ele>
        <time>2018-06-09T09:34:37Z</time>
      </trkpt>
      <trkpt lat="45.98546" lon="4.81803">
        <ele>238</ele>
        <time>2018-06-09T09:34:38Z</time>
      </trkpt>
      <trkpt lat="45.98553" lon="4.81806">
        <ele>238</ele>
        <time>2018-06-09T09:34:39Z</time>
      </trkpt>
      <trkpt lat="45.98558" lon="4.81805">
        <ele>238</ele>
        <time>2018-06-09T09:34:40Z</time>
      </trkpt>
      <trkpt lat="45.98564" lon="4.81802">
        <ele>238</ele>
        <time>2018-06-09T09:34:41Z</time>
      </trkpt>
      <trkpt lat="45.98568" lon="4.81798">
        <ele>238</ele>
        <time>2018-06-09T09:34:42Z</time>
      </trkpt>
      <trkpt lat="45.98573" lon="4.81792">
        <ele>238</ele>
        <time>2018-06-09T09:34:43Z</time>
      </trkpt>
      <trkpt lat="45.98577" lon="4.81785">
        <ele>238</ele>
        <time>2018-06-09T09:34:44Z</time>
      </trkpt>
      <trkpt lat="45.98579" lon="4.8178">
        <ele>238</ele>
        <time>2018-06-09T09:34:45Z</time>
      </trkpt>
      <trkpt lat="45.98584" lon="4.81774">
        <ele>238</ele>
        <time>2018-06-09T09:34:46Z</time>
      </trkpt>
      <trkpt lat="45.98587" lon="4.81772">
        <ele>238</ele>
        <time>2018-06-09T09:34:47Z</time>
      </trkpt>
      <trkpt lat="45.98592" lon="4.81769">
        <ele>238</ele>
        <time>2018-06-09T09:34:48Z</time>
      </trkpt>
      <trkpt lat="45.98597" lon="4.81763">
        <ele>238</ele>
        <time>2018-06-09T09:34:49Z</time>
      </trkpt>
      <trkpt lat="45.98601" lon="4.81762">
        <ele>238</ele>
        <time>2018-06-09T09:34:50Z</time>
      </trkpt>
      <trkpt lat="45.98608" lon="4.81755">
        <ele>238</ele>
        <time>2018-06-09T09:34:52Z</time>
      </trkpt>
      <trkpt lat="45.98613" lon="4.81755">
        <ele>238</ele>
        <time>2018-06-09T09:34:53Z</time>
      </trkpt>
      <trkpt lat="45.98617" lon="4.81754">
        <ele>238</ele>
        <time>2018-06-09T09:34:54Z</time>
      </trkpt>
      <trkpt lat="45.98622" lon="4.81753">
        <ele>238</ele>
        <time>2018-06-09T09:34:55Z</time>
      </trkpt>
      <trkpt lat="45.9863" lon="4.81749">
        <ele>237</ele>
        <time>2018-06-09T09:34:57Z</time>
      </trkpt>
      <trkpt lat="45.98634" lon="4.81747">
        <ele>237</ele>
        <time>2018-06-09T09:34:58Z</time>
      </trkpt>
      <trkpt lat="45.9864" lon="4.81742">
        <ele>237</ele>
        <time>2018-06-09T09:35:00Z</time>
      </trkpt>
      <trkpt lat="45.98647" lon="4.8174">
        <ele>237</ele>
        <time>2018-06-09T09:35:01Z</time>
      </trkpt>
      <trkpt lat="45.98652" lon="4.8174">
        <ele>237</ele>
        <time>2018-06-09T09:35:02Z</time>
      </trkpt>
      <trkpt lat="45.98658" lon="4.81742">
        <ele>237</ele>
        <time>2018-06-09T09:35:03Z</time>
      </trkpt>
      <trkpt lat="45.98667" lon="4.81741">
        <ele>238</ele>
        <time>2018-06-09T09:35:05Z</time>
      </trkpt>
      <trkpt lat="45.98672" lon="4.8174">
        <ele>238</ele>
        <time>2018-06-09T09:35:06Z</time>
      </trkpt>
      <trkpt lat="45.98678" lon="4.8174">
        <ele>238</ele>
        <time>2018-06-09T09:35:07Z</time>
      </trkpt>
      <trkpt lat="45.98684" lon="4.81741">
        <ele>238</ele>
        <time>2018-06-09T09:35:08Z</time>
      </trkpt>
      <trkpt lat="45.98689" lon="4.81738">
        <ele>238</ele>
        <time>2018-06-09T09:35:09Z</time>
      </trkpt>
      <trkpt lat="45.98693" lon="4.8174">
        <ele>238</ele>
        <time>2018-06-09T09:35:10Z</time>
      </trkpt>
      <trkpt lat="45.98698" lon="4.8174">
        <ele>239</ele>
        <time>2018-06-09T09:35:11Z</time>
      </trkpt>
      <trkpt lat="45.98704" lon="4.81739">
        <ele>239</ele>
        <time>2018-06-09T09:35:12Z</time>
      </trkpt>
      <trkpt lat="45.98708" lon="4.81738">
        <ele>239</ele>
        <time>2018-06-09T09:35:13Z</time>
      </trkpt>
      <trkpt lat="45.98714" lon="4.81736">
        <ele>239</ele>
        <time>2018-06-09T09:35:14Z</time>
      </trkpt>
      <trkpt lat="45.98719" lon="4.81735">
        <ele>239</ele>
        <time>2018-06-09T09:35:15Z</time>
      </trkpt>
      <trkpt lat="45.98724" lon="4.81738">
        <ele>239</ele>
        <time>2018-06-09T09:35:16Z</time>
      </trkpt>
      <trkpt lat="45.9873" lon="4.8174">
        <ele>240</ele>
        <time>2018-06-09T09:35:17Z</time>
      </trkpt>
      <trkpt lat="45.98735" lon="4.81739">
        <ele>240</ele>
        <time>2018-06-09T09:35:18Z</time>
      </trkpt>
      <trkpt lat="45.98738" lon="4.81745">
        <ele>240</ele>
        <time>2018-06-09T09:35:19Z</time>
      </trkpt>
      <trkpt lat="45.98741" lon="4.8175">
        <ele>240</ele>
        <time>2018-06-09T09:35:20Z</time>
      </trkpt>
      <trkpt lat="45.98742" lon="4.81756">
        <ele>240</ele>
        <time>2018-06-09T09:35:21Z</time>
      </trkpt>
      <trkpt lat="45.98746" lon="4.81761">
        <ele>240</ele>
        <time>2018-06-09T09:35:22Z</time>
      </trkpt>
      <trkpt lat="45.98749" lon="4.81767">
        <ele>240</ele>
        <time>2018-06-09T09:35:23Z</time>
      </trkpt>
      <trkpt lat="45.98751" lon="4.81772">
        <ele>241</ele>
        <time>2018-06-09T09:35:24Z</time>
      </trkpt>
      <trkpt lat="45.98754" lon="4.81777">
        <ele>241</ele>
        <time>2018-06-09T09:35:25Z</time>
      </trkpt>
      <trkpt lat="45.98757" lon="4.81783">
        <ele>241</ele>
        <time>2018-06-09T09:35:26Z</time>
      </trkpt>
      <trkpt lat="45.98761" lon="4.81787">
        <ele>241</ele>
        <time>2018-06-09T09:35:27Z</time>
      </trkpt>
      <trkpt lat="45.98763" lon="4.81794">
        <ele>240</ele>
        <time>2018-06-09T09:35:28Z</time>
      </trkpt>
      <trkpt lat="45.98767" lon="4.81801">
        <ele>240</ele>
        <time>2018-06-09T09:35:29Z</time>
      </trkpt>
      <trkpt lat="45.9877" lon="4.81809">
        <ele>240</ele>
        <time>2018-06-09T09:35:30Z</time>
      </trkpt>
      <trkpt lat="45.98773" lon="4.81817">
        <ele>240</ele>
        <time>2018-06-09T09:35:31Z</time>
      </trkpt>
      <trkpt lat="45.98776" lon="4.81822">
        <ele>240</ele>
        <time>2018-06-09T09:35:32Z</time>
      </trkpt>
      <trkpt lat="45.9878" lon="4.81829">
        <ele>240</ele>
        <time>2018-06-09T09:35:33Z</time>
      </trkpt>
      <trkpt lat="45.98783" lon="4.81836">
        <ele>239</ele>
        <time>2018-06-09T09:35:34Z</time>
      </trkpt>
      <trkpt lat="45.98787" lon="4.81844">
        <ele>239</ele>
        <time>2018-06-09T09:35:35Z</time>
      </trkpt>
      <trkpt lat="45.98789" lon="4.81852">
        <ele>239</ele>
        <time>2018-06-09T09:35:36Z</time>
      </trkpt>
      <trkpt lat="45.98792" lon="4.8186">
        <ele>239</ele>
        <time>2018-06-09T09:35:37Z</time>
      </trkpt>
      <trkpt lat="45.98795" lon="4.81868">
        <ele>239</ele>
        <time>2018-06-09T09:35:38Z</time>
      </trkpt>
      <trkpt lat="45.98798" lon="4.81877">
        <ele>239</ele>
        <time>2018-06-09T09:35:39Z</time>
      </trkpt>
      <trkpt lat="45.988" lon="4.81884">
        <ele>239</ele>
        <time>2018-06-09T09:35:40Z</time>
      </trkpt>
      <trkpt lat="45.98802" lon="4.81892">
        <ele>239</ele>
        <time>2018-06-09T09:35:41Z</time>
      </trkpt>
      <trkpt lat="45.98804" lon="4.819">
        <ele>239</ele>
        <time>2018-06-09T09:35:42Z</time>
      </trkpt>
      <trkpt lat="45.98805" lon="4.81909">
        <ele>239</ele>
        <time>2018-06-09T09:35:43Z</time>
      </trkpt>
      <trkpt lat="45.98806" lon="4.81917">
        <ele>239</ele>
        <time>2018-06-09T09:35:44Z</time>
      </trkpt>
      <trkpt lat="45.98806" lon="4.81926">
        <ele>239</ele>
        <time>2018-06-09T09:35:45Z</time>
      </trkpt>
      <trkpt lat="45.98807" lon="4.81934">
        <ele>239</ele>
        <time>2018-06-09T09:35:46Z</time>
      </trkpt>
      <trkpt lat="45.98809" lon="4.81944">
        <ele>239</ele>
        <time>2018-06-09T09:35:47Z</time>
      </trkpt>
      <trkpt lat="45.9881" lon="4.81951">
        <ele>239</ele>
        <time>2018-06-09T09:35:48Z</time>
      </trkpt>
      <trkpt lat="45.98813" lon="4.81957">
        <ele>239</ele>
        <time>2018-06-09T09:35:49Z</time>
      </trkpt>
      <trkpt lat="45.98813" lon="4.81963">
        <ele>239</ele>
        <time>2018-06-09T09:35:50Z</time>
      </trkpt>
      <trkpt lat="45.98814" lon="4.8197">
        <ele>239</ele>
        <time>2018-06-09T09:35:51Z</time>
      </trkpt>
      <trkpt lat="45.98816" lon="4.81977">
        <ele>239</ele>
        <time>2018-06-09T09:35:52Z</time>
      </trkpt>
      <trkpt lat="45.98818" lon="4.81988">
        <ele>238</ele>
        <time>2018-06-09T09:35:54Z</time>
      </trkpt>
      <trkpt lat="45.98819" lon="4.81994">
        <ele>238</ele>
        <time>2018-06-09T09:35:55Z</time>
      </trkpt>
      <trkpt lat="45.9882" lon="4.82001">
        <ele>238</ele>
        <time>2018-06-09T09:35:56Z</time>
      </trkpt>
      <trkpt lat="45.98822" lon="4.82007">
        <ele>238</ele>
        <time>2018-06-09T09:35:57Z</time>
      </trkpt>
      <trkpt lat="45.98824" lon="4.82013">
        <ele>238</ele>
        <time>2018-06-09T09:35:58Z</time>
      </trkpt>
      <trkpt lat="45.98825" lon="4.82021">
        <ele>238</ele>
        <time>2018-06-09T09:35:59Z</time>
      </trkpt>
      <trkpt lat="45.98826" lon="4.82028">
        <ele>238</ele>
        <time>2018-06-09T09:36:00Z</time>
      </trkpt>
      <trkpt lat="45.98825" lon="4.82035">
        <ele>238</ele>
        <time>2018-06-09T09:36:01Z</time>
      </trkpt>
      <trkpt lat="45.98828" lon="4.82043">
        <ele>238</ele>
        <time>2018-06-09T09:36:02Z</time>
      </trkpt>
      <trkpt lat="45.98829" lon="4.8205">
        <ele>237</ele>
        <time>2018-06-09T09:36:03Z</time>
      </trkpt>
      <trkpt lat="45.98831" lon="4.82057">
        <ele>237</ele>
        <time>2018-06-09T09:36:04Z</time>
      </trkpt>
      <trkpt lat="45.98832" lon="4.82064">
        <ele>237</ele>
        <time>2018-06-09T09:36:05Z</time>
      </trkpt>
      <trkpt lat="45.98833" lon="4.82076">
        <ele>236</ele>
        <time>2018-06-09T09:36:07Z</time>
      </trkpt>
      <trkpt lat="45.98834" lon="4.82083">
        <ele>236</ele>
        <time>2018-06-09T09:36:08Z</time>
      </trkpt>
      <trkpt lat="45.98835" lon="4.82092">
        <ele>236</ele>
        <time>2018-06-09T09:36:09Z</time>
      </trkpt>
      <trkpt lat="45.98837" lon="4.82099">
        <ele>236</ele>
        <time>2018-06-09T09:36:10Z</time>
      </trkpt>
      <trkpt lat="45.98839" lon="4.82107">
        <ele>235</ele>
        <time>2018-06-09T09:36:11Z</time>
      </trkpt>
      <trkpt lat="45.98841" lon="4.82115">
        <ele>235</ele>
        <time>2018-06-09T09:36:12Z</time>
      </trkpt>
      <trkpt lat="45.98841" lon="4.82123">
        <ele>236</ele>
        <time>2018-06-09T09:36:13Z</time>
      </trkpt>
      <trkpt lat="45.98842" lon="4.82132">
        <ele>236</ele>
        <time>2018-06-09T09:36:14Z</time>
      </trkpt>
      <trkpt lat="45.98844" lon="4.82143">
        <ele>236</ele>
        <time>2018-06-09T09:36:15Z</time>
      </trkpt>
      <trkpt lat="45.98848" lon="4.82151">
        <ele>236</ele>
        <time>2018-06-09T09:36:16Z</time>
      </trkpt>
      <trkpt lat="45.9885" lon="4.8216">
        <ele>236</ele>
        <time>2018-06-09T09:36:17Z</time>
      </trkpt>
      <trkpt lat="45.98851" lon="4.82168">
        <ele>236</ele>
        <time>2018-06-09T09:36:18Z</time>
      </trkpt>
      <trkpt lat="45.98853" lon="4.82175">
        <ele>236</ele>
        <time>2018-06-09T09:36:19Z</time>
      </trkpt>
      <trkpt lat="45.98856" lon="4.82183">
        <ele>236</ele>
        <time>2018-06-09T09:36:20Z</time>
      </trkpt>
      <trkpt lat="45.98859" lon="4.8219">
        <ele>236</ele>
        <time>2018-06-09T09:36:21Z</time>
      </trkpt>
      <trkpt lat="45.9886" lon="4.82197">
        <ele>236</ele>
        <time>2018-06-09T09:36:22Z</time>
      </trkpt>
      <trkpt lat="45.98863" lon="4.82203">
        <ele>236</ele>
        <time>2018-06-09T09:36:23Z</time>
      </trkpt>
      <trkpt lat="45.98867" lon="4.82209">
        <ele>236</ele>
        <time>2018-06-09T09:36:24Z</time>
      </trkpt>
      <trkpt lat="45.9887" lon="4.82216">
        <ele>236</ele>
        <time>2018-06-09T09:36:25Z</time>
      </trkpt>
      <trkpt lat="45.98872" lon="4.82221">
        <ele>236</ele>
        <time>2018-06-09T09:36:26Z</time>
      </trkpt>
      <trkpt lat="45.98875" lon="4.82227">
        <ele>236</ele>
        <time>2018-06-09T09:36:27Z</time>
      </trkpt>
      <trkpt lat="45.98878" lon="4.82234">
        <ele>236</ele>
        <time>2018-06-09T09:36:28Z</time>
      </trkpt>
      <trkpt lat="45.98879" lon="4.8224">
        <ele>236</ele>
        <time>2018-06-09T09:36:29Z</time>
      </trkpt>
      <trkpt lat="45.98882" lon="4.82246">
        <ele>236</ele>
        <time>2018-06-09T09:36:30Z</time>
      </trkpt>
      <trkpt lat="45.98885" lon="4.82251">
        <ele>236</ele>
        <time>2018-06-09T09:36:31Z</time>
      </trkpt>
      <trkpt lat="45.98887" lon="4.82258">
        <ele>236</ele>
        <time>2018-06-09T09:36:32Z</time>
      </trkpt>
      <trkpt lat="45.9889" lon="4.82264">
        <ele>236</ele>
        <time>2018-06-09T09:36:33Z</time>
      </trkpt>
      <trkpt lat="45.98894" lon="4.82271">
        <ele>236</ele>
        <time>2018-06-09T09:36:34Z</time>
      </trkpt>
      <trkpt lat="45.98896" lon="4.82276">
        <ele>236</ele>
        <time>2018-06-09T09:36:35Z</time>
      </trkpt>
      <trkpt lat="45.989" lon="4.82281">
        <ele>236</ele>
        <time>2018-06-09T09:36:36Z</time>
      </trkpt>
      <trkpt lat="45.98905" lon="4.82285">
        <ele>236</ele>
        <time>2018-06-09T09:36:37Z</time>
      </trkpt>
      <trkpt lat="45.9891" lon="4.8229">
        <ele>236</ele>
        <time>2018-06-09T09:36:38Z</time>
      </trkpt>
      <trkpt lat="45.98914" lon="4.82294">
        <ele>236</ele>
        <time>2018-06-09T09:36:39Z</time>
      </trkpt>
      <trkpt lat="45.98919" lon="4.823">
        <ele>234</ele>
        <time>2018-06-09T09:36:40Z</time>
      </trkpt>
      <trkpt lat="45.98923" lon="4.82304">
        <ele>234</ele>
        <time>2018-06-09T09:36:41Z</time>
      </trkpt>
      <trkpt lat="45.98928" lon="4.82308">
        <ele>234</ele>
        <time>2018-06-09T09:36:42Z</time>
      </trkpt>
      <trkpt lat="45.98932" lon="4.82313">
        <ele>234</ele>
        <time>2018-06-09T09:36:43Z</time>
      </trkpt>
      <trkpt lat="45.98936" lon="4.82317">
        <ele>234</ele>
        <time>2018-06-09T09:36:44Z</time>
      </trkpt>
      <trkpt lat="45.98941" lon="4.82322">
        <ele>234</ele>
        <time>2018-06-09T09:36:45Z</time>
      </trkpt>
      <trkpt lat="45.98944" lon="4.82327">
        <ele>234</ele>
        <time>2018-06-09T09:36:46Z</time>
      </trkpt>
      <trkpt lat="45.98948" lon="4.82333">
        <ele>234</ele>
        <time>2018-06-09T09:36:47Z</time>
      </trkpt>
      <trkpt lat="45.98951" lon="4.82338">
        <ele>235</ele>
        <time>2018-06-09T09:36:48Z</time>
      </trkpt>
      <trkpt lat="45.98954" lon="4.82345">
        <ele>235</ele>
        <time>2018-06-09T09:36:49Z</time>
      </trkpt>
      <trkpt lat="45.98957" lon="4.82351">
        <ele>235</ele>
        <time>2018-06-09T09:36:50Z</time>
      </trkpt>
      <trkpt lat="45.98959" lon="4.82357">
        <ele>235</ele>
        <time>2018-06-09T09:36:51Z</time>
      </trkpt>
      <trkpt lat="45.98961" lon="4.82364">
        <ele>235</ele>
        <time>2018-06-09T09:36:52Z</time>
      </trkpt>
      <trkpt lat="45.98963" lon="4.82371">
        <ele>235</ele>
        <time>2018-06-09T09:36:53Z</time>
      </trkpt>
      <trkpt lat="45.98965" lon="4.8238">
        <ele>235</ele>
        <time>2018-06-09T09:36:54Z</time>
      </trkpt>
      <trkpt lat="45.98967" lon="4.82385">
        <ele>235</ele>
        <time>2018-06-09T09:36:55Z</time>
      </trkpt>
      <trkpt lat="45.98969" lon="4.82392">
        <ele>235</ele>
        <time>2018-06-09T09:36:56Z</time>
      </trkpt>
      <trkpt lat="45.9897" lon="4.82402">
        <ele>235</ele>
        <time>2018-06-09T09:36:57Z</time>
      </trkpt>
      <trkpt lat="45.98973" lon="4.82407">
        <ele>235</ele>
        <time>2018-06-09T09:36:58Z</time>
      </trkpt>
      <trkpt lat="45.98975" lon="4.82414">
        <ele>235</ele>
        <time>2018-06-09T09:36:59Z</time>
      </trkpt>
      <trkpt lat="45.98976" lon="4.82421">
        <ele>236</ele>
        <time>2018-06-09T09:37:00Z</time>
      </trkpt>
      <trkpt lat="45.98978" lon="4.82428">
        <ele>236</ele>
        <time>2018-06-09T09:37:01Z</time>
      </trkpt>
      <trkpt lat="45.9898" lon="4.82435">
        <ele>236</ele>
        <time>2018-06-09T09:37:02Z</time>
      </trkpt>
      <trkpt lat="45.98982" lon="4.82442">
        <ele>236</ele>
        <time>2018-06-09T09:37:03Z</time>
      </trkpt>
      <trkpt lat="45.98985" lon="4.82449">
        <ele>236</ele>
        <time>2018-06-09T09:37:04Z</time>
      </trkpt>
      <trkpt lat="45.98987" lon="4.82456">
        <ele>236</ele>
        <time>2018-06-09T09:37:05Z</time>
      </trkpt>
      <trkpt lat="45.98988" lon="4.82464">
        <ele>236</ele>
        <time>2018-06-09T09:37:06Z</time>
      </trkpt>
      <trkpt lat="45.9899" lon="4.8247">
        <ele>236</ele>
        <time>2018-06-09T09:37:07Z</time>
      </trkpt>
      <trkpt lat="45.98992" lon="4.82475">
        <ele>236</ele>
        <time>2018-06-09T09:37:08Z</time>
      </trkpt>
      <trkpt lat="45.98994" lon="4.82483">
        <ele>236</ele>
        <time>2018-06-09T09:37:09Z</time>
      </trkpt>
      <trkpt lat="45.98997" lon="4.82488">
        <ele>236</ele>
        <time>2018-06-09T09:37:10Z</time>
      </trkpt>
      <trkpt lat="45.98999" lon="4.82495">
        <ele>235</ele>
        <time>2018-06-09T09:37:11Z</time>
      </trkpt>
      <trkpt lat="45.99002" lon="4.82502">
        <ele>235</ele>
        <time>2018-06-09T09:37:12Z</time>
      </trkpt>
      <trkpt lat="45.99005" lon="4.82509">
        <ele>235</ele>
        <time>2018-06-09T09:37:13Z</time>
      </trkpt>
      <trkpt lat="45.99008" lon="4.82516">
        <ele>235</ele>
        <time>2018-06-09T09:37:14Z</time>
      </trkpt>
      <trkpt lat="45.99012" lon="4.82523">
        <ele>235</ele>
        <time>2018-06-09T09:37:15Z</time>
      </trkpt>
      <trkpt lat="45.99015" lon="4.82529">
        <ele>235</ele>
        <time>2018-06-09T09:37:16Z</time>
      </trkpt>
      <trkpt lat="45.9902" lon="4.82534">
        <ele>235</ele>
        <time>2018-06-09T09:37:17Z</time>
      </trkpt>
      <trkpt lat="45.99023" lon="4.82539">
        <ele>235</ele>
        <time>2018-06-09T09:37:18Z</time>
      </trkpt>
      <trkpt lat="45.99028" lon="4.82544">
        <ele>235</ele>
        <time>2018-06-09T09:37:19Z</time>
      </trkpt>
      <trkpt lat="45.99033" lon="4.82548">
        <ele>235</ele>
        <time>2018-06-09T09:37:20Z</time>
      </trkpt>
      <trkpt lat="45.99038" lon="4.82553">
        <ele>235</ele>
        <time>2018-06-09T09:37:21Z</time>
      </trkpt>
      <trkpt lat="45.99042" lon="4.82559">
        <ele>235</ele>
        <time>2018-06-09T09:37:22Z</time>
      </trkpt>
      <trkpt lat="45.99047" lon="4.82562">
        <ele>235</ele>
        <time>2018-06-09T09:37:23Z</time>
      </trkpt>
      <trkpt lat="45.99051" lon="4.82564">
        <ele>235</ele>
        <time>2018-06-09T09:37:24Z</time>
      </trkpt>
      <trkpt lat="45.99056" lon="4.82565">
        <ele>235</ele>
        <time>2018-06-09T09:37:25Z</time>
      </trkpt>
      <trkpt lat="45.99062" lon="4.82568">
        <ele>235</ele>
        <time>2018-06-09T09:37:26Z</time>
      </trkpt>
      <trkpt lat="45.99066" lon="4.8257">
        <ele>235</ele>
        <time>2018-06-09T09:37:27Z</time>
      </trkpt>
      <trkpt lat="45.99071" lon="4.82571">
        <ele>235</ele>
        <time>2018-06-09T09:37:28Z</time>
      </trkpt>
      <trkpt lat="45.99077" lon="4.82579">
        <ele>235</ele>
        <time>2018-06-09T09:37:31Z</time>
      </trkpt>
      <trkpt lat="45.99078" lon="4.82582">
        <ele>235</ele>
        <time>2018-06-09T09:37:32Z</time>
      </trkpt>
      <trkpt lat="45.99075" lon="4.82594">
        <ele>235</ele>
        <time>2018-06-09T09:37:34Z</time>
      </trkpt>
      <trkpt lat="45.99074" lon="4.82597">
        <ele>235</ele>
        <time>2018-06-09T09:37:35Z</time>
      </trkpt>
      <trkpt lat="45.9907" lon="4.82603">
        <ele>236</ele>
        <time>2018-06-09T09:37:36Z</time>
      </trkpt>
      <trkpt lat="45.99067" lon="4.82608">
        <ele>236</ele>
        <time>2018-06-09T09:37:37Z</time>
      </trkpt>
      <trkpt lat="45.99064" lon="4.82618">
        <ele>236</ele>
        <time>2018-06-09T09:37:39Z</time>
      </trkpt>
      <trkpt lat="45.99062" lon="4.82623">
        <ele>236</ele>
        <time>2018-06-09T09:37:40Z</time>
      </trkpt>
      <trkpt lat="45.99058" lon="4.82633">
        <ele>236</ele>
        <time>2018-06-09T09:37:42Z</time>
      </trkpt>
      <trkpt lat="45.99056" lon="4.82638">
        <ele>236</ele>
        <time>2018-06-09T09:37:43Z</time>
      </trkpt>
      <trkpt lat="45.99052" lon="4.82647">
        <ele>236</ele>
        <time>2018-06-09T09:37:45Z</time>
      </trkpt>
      <trkpt lat="45.9905" lon="4.82651">
        <ele>236</ele>
        <time>2018-06-09T09:37:46Z</time>
      </trkpt>
      <trkpt lat="45.99046" lon="4.82661">
        <ele>236</ele>
        <time>2018-06-09T09:37:49Z</time>
      </trkpt>
      <trkpt lat="45.99045" lon="4.82665">
        <ele>236</ele>
        <time>2018-06-09T09:37:50Z</time>
      </trkpt>
      <trkpt lat="45.99041" lon="4.82674">
        <ele>238</ele>
        <time>2018-06-09T09:37:53Z</time>
      </trkpt>
      <trkpt lat="45.99039" lon="4.82678">
        <ele>238</ele>
        <time>2018-06-09T09:37:54Z</time>
      </trkpt>
      <trkpt lat="45.99035" lon="4.82689">
        <ele>238</ele>
        <time>2018-06-09T09:37:57Z</time>
      </trkpt>
      <trkpt lat="45.99033" lon="4.82693">
        <ele>238</ele>
        <time>2018-06-09T09:37:58Z</time>
      </trkpt>
      <trkpt lat="45.99028" lon="4.82703">
        <ele>238</ele>
        <time>2018-06-09T09:38:01Z</time>
      </trkpt>
      <trkpt lat="45.99026" lon="4.82707">
        <ele>238</ele>
        <time>2018-06-09T09:38:02Z</time>
      </trkpt>
      <trkpt lat="45.99023" lon="4.82714">
        <ele>239</ele>
        <time>2018-06-09T09:38:04Z</time>
      </trkpt>
      <trkpt lat="45.99021" lon="4.82718">
        <ele>239</ele>
        <time>2018-06-09T09:38:05Z</time>
      </trkpt>
      <trkpt lat="45.99017" lon="4.82727">
        <ele>239</ele>
        <time>2018-06-09T09:38:08Z</time>
      </trkpt>
      <trkpt lat="45.99016" lon="4.8273">
        <ele>239</ele>
        <time>2018-06-09T09:38:09Z</time>
      </trkpt>
      <trkpt lat="45.99012" lon="4.8274">
        <ele>240</ele>
        <time>2018-06-09T09:38:12Z</time>
      </trkpt>
      <trkpt lat="45.9901" lon="4.82743">
        <ele>240</ele>
        <time>2018-06-09T09:38:13Z</time>
      </trkpt>
      <trkpt lat="45.99006" lon="4.82753">
        <ele>241</ele>
        <time>2018-06-09T09:38:16Z</time>
      </trkpt>
      <trkpt lat="45.99005" lon="4.82757">
        <ele>241</ele>
        <time>2018-06-09T09:38:17Z</time>
      </trkpt>
      <trkpt lat="45.99001" lon="4.82767">
        <ele>241</ele>
        <time>2018-06-09T09:38:20Z</time>
      </trkpt>
      <trkpt lat="45.98999" lon="4.8277">
        <ele>245</ele>
        <time>2018-06-09T09:38:21Z</time>
      </trkpt>
      <trkpt lat="45.98995" lon="4.82779">
        <ele>246</ele>
        <time>2018-06-09T09:38:24Z</time>
      </trkpt>
      <trkpt lat="45.98994" lon="4.82782">
        <ele>246</ele>
        <time>2018-06-09T09:38:25Z</time>
      </trkpt>
      <trkpt lat="45.9899" lon="4.8279">
        <ele>247</ele>
        <time>2018-06-09T09:38:28Z</time>
      </trkpt>
      <trkpt lat="45.98989" lon="4.82793">
        <ele>247</ele>
        <time>2018-06-09T09:38:29Z</time>
      </trkpt>
      <trkpt lat="45.98986" lon="4.82804">
        <ele>248</ele>
        <time>2018-06-09T09:38:32Z</time>
      </trkpt>
      <trkpt lat="45.98985" lon="4.82808">
        <ele>248</ele>
        <time>2018-06-09T09:38:33Z</time>
      </trkpt>
      <trkpt lat="45.98982" lon="4.82819">
        <ele>248</ele>
        <time>2018-06-09T09:38:36Z</time>
      </trkpt>
      <trkpt lat="45.98981" lon="4.82823">
        <ele>248</ele>
        <time>2018-06-09T09:38:37Z</time>
      </trkpt>
      <trkpt lat="45.98977" lon="4.82833">
        <ele>249</ele>
        <time>2018-06-09T09:38:40Z</time>
      </trkpt>
      <trkpt lat="45.98976" lon="4.82836">
        <ele>251</ele>
        <time>2018-06-09T09:38:41Z</time>
      </trkpt>
      <trkpt lat="45.98973" lon="4.82846">
        <ele>251</ele>
        <time>2018-06-09T09:38:44Z</time>
      </trkpt>
      <trkpt lat="45.98971" lon="4.82849">
        <ele>251</ele>
        <time>2018-06-09T09:38:45Z</time>
      </trkpt>
      <trkpt lat="45.98967" lon="4.82858">
        <ele>252</ele>
        <time>2018-06-09T09:38:49Z</time>
      </trkpt>
      <trkpt lat="45.98965" lon="4.82861">
        <ele>252</ele>
        <time>2018-06-09T09:38:50Z</time>
      </trkpt>
      <trkpt lat="45.9896" lon="4.8287">
        <ele>252</ele>
        <time>2018-06-09T09:38:54Z</time>
      </trkpt>
      <trkpt lat="45.98958" lon="4.82873">
        <ele>252</ele>
        <time>2018-06-09T09:38:55Z</time>
      </trkpt>
      <trkpt lat="45.98953" lon="4.82883">
        <ele>253</ele>
        <time>2018-06-09T09:38:59Z</time>
      </trkpt>
      <trkpt lat="45.98951" lon="4.82885">
        <ele>253</ele>
        <time>2018-06-09T09:39:00Z</time>
      </trkpt>
      <trkpt lat="45.98947" lon="4.82892">
        <ele>253</ele>
        <time>2018-06-09T09:39:03Z</time>
      </trkpt>
      <trkpt lat="45.98945" lon="4.82894">
        <ele>253</ele>
        <time>2018-06-09T09:39:04Z</time>
      </trkpt>
      <trkpt lat="45.9894" lon="4.82904">
        <ele>253</ele>
        <time>2018-06-09T09:39:08Z</time>
      </trkpt>
      <trkpt lat="45.98938" lon="4.82907">
        <ele>254</ele>
        <time>2018-06-09T09:39:09Z</time>
      </trkpt>
      <trkpt lat="45.98934" lon="4.82918">
        <ele>255</ele>
        <time>2018-06-09T09:39:13Z</time>
      </trkpt>
      <trkpt lat="45.98933" lon="4.82921">
        <ele>255</ele>
        <time>2018-06-09T09:39:14Z</time>
      </trkpt>
      <trkpt lat="45.9893" lon="4.8293">
        <ele>255</ele>
        <time>2018-06-09T09:39:17Z</time>
      </trkpt>
      <trkpt lat="45.98928" lon="4.82932">
        <ele>255</ele>
        <time>2018-06-09T09:39:18Z</time>
      </trkpt>
      <trkpt lat="45.98924" lon="4.82942">
        <ele>255</ele>
        <time>2018-06-09T09:39:22Z</time>
      </trkpt>
      <trkpt lat="45.98923" lon="4.82944">
        <ele>255</ele>
        <time>2018-06-09T09:39:23Z</time>
      </trkpt>
      <trkpt lat="45.98918" lon="4.82955">
        <ele>255</ele>
        <time>2018-06-09T09:39:27Z</time>
      </trkpt>
      <trkpt lat="45.98917" lon="4.82958">
        <ele>255</ele>
        <time>2018-06-09T09:39:28Z</time>
      </trkpt>
      <trkpt lat="45.98912" lon="4.82968">
        <ele>258</ele>
        <time>2018-06-09T09:39:32Z</time>
      </trkpt>
      <trkpt lat="45.98912" lon="4.8297">
        <ele>258</ele>
        <time>2018-06-09T09:39:33Z</time>
      </trkpt>
      <trkpt lat="45.98907" lon="4.82978">
        <ele>258</ele>
        <time>2018-06-09T09:39:36Z</time>
      </trkpt>
      <trkpt lat="45.98905" lon="4.82981">
        <ele>258</ele>
        <time>2018-06-09T09:39:37Z</time>
      </trkpt>
      <trkpt lat="45.989" lon="4.82987">
        <ele>259</ele>
        <time>2018-06-09T09:39:40Z</time>
      </trkpt>
      <trkpt lat="45.98898" lon="4.82989">
        <ele>259</ele>
        <time>2018-06-09T09:39:41Z</time>
      </trkpt>
      <trkpt lat="45.98892" lon="4.82994">
        <ele>259</ele>
        <time>2018-06-09T09:39:44Z</time>
      </trkpt>
      <trkpt lat="45.9889" lon="4.82996">
        <ele>259</ele>
        <time>2018-06-09T09:39:45Z</time>
      </trkpt>
      <trkpt lat="45.98883" lon="4.83">
        <ele>259</ele>
        <time>2018-06-09T09:39:48Z</time>
      </trkpt>
      <trkpt lat="45.98881" lon="4.83001">
        <ele>259</ele>
        <time>2018-06-09T09:39:49Z</time>
      </trkpt>
      <trkpt lat="45.98874" lon="4.83005">
        <ele>260</ele>
        <time>2018-06-09T09:39:52Z</time>
      </trkpt>
      <trkpt lat="45.98872" lon="4.83006">
        <ele>260</ele>
        <time>2018-06-09T09:39:53Z</time>
      </trkpt>
      <trkpt lat="45.98864" lon="4.83011">
        <ele>260</ele>
        <time>2018-06-09T09:39:57Z</time>
      </trkpt>
      <trkpt lat="45.98862" lon="4.83012">
        <ele>260</ele>
        <time>2018-06-09T09:39:58Z</time>
      </trkpt>
      <trkpt lat="45.98856" lon="4.83015">
        <ele>261</ele>
        <time>2018-06-09T09:40:01Z</time>
      </trkpt>
      <trkpt lat="45.98853" lon="4.83016">
        <ele>261</ele>
        <time>2018-06-09T09:40:02Z</time>
      </trkpt>
      <trkpt lat="45.98847" lon="4.8302">
        <ele>261</ele>
        <time>2018-06-09T09:40:05Z</time>
      </trkpt>
      <trkpt lat="45.98845" lon="4.83021">
        <ele>261</ele>
        <time>2018-06-09T09:40:06Z</time>
      </trkpt>
      <trkpt lat="45.98839" lon="4.83026">
        <ele>261</ele>
        <time>2018-06-09T09:40:09Z</time>
      </trkpt>
      <trkpt lat="45.98831" lon="4.83031">
        <ele>264</ele>
        <time>2018-06-09T09:40:10Z</time>
      </trkpt>
      <trkpt lat="45.98825" lon="4.83038">
        <ele>264</ele>
        <time>2018-06-09T09:40:14Z</time>
      </trkpt>
      <trkpt lat="45.98823" lon="4.83039">
        <ele>264</ele>
        <time>2018-06-09T09:40:15Z</time>
      </trkpt>
      <trkpt lat="45.98816" lon="4.83044">
        <ele>264</ele>
        <time>2018-06-09T09:40:18Z</time>
      </trkpt>
      <trkpt lat="45.98814" lon="4.83045">
        <ele>264</ele>
        <time>2018-06-09T09:40:19Z</time>
      </trkpt>
      <trkpt lat="45.98807" lon="4.8305">
        <ele>264</ele>
        <time>2018-06-09T09:40:22Z</time>
      </trkpt>
      <trkpt lat="45.98805" lon="4.83052">
        <ele>264</ele>
        <time>2018-06-09T09:40:23Z</time>
      </trkpt>
      <trkpt lat="45.98798" lon="4.83057">
        <ele>264</ele>
        <time>2018-06-09T09:40:26Z</time>
      </trkpt>
      <trkpt lat="45.98796" lon="4.8306">
        <ele>264</ele>
        <time>2018-06-09T09:40:27Z</time>
      </trkpt>
      <trkpt lat="45.98788" lon="4.83066">
        <ele>265</ele>
        <time>2018-06-09T09:40:30Z</time>
      </trkpt>
      <trkpt lat="45.98786" lon="4.83067">
        <ele>265</ele>
        <time>2018-06-09T09:40:31Z</time>
      </trkpt>
      <trkpt lat="45.98778" lon="4.83073">
        <ele>265</ele>
        <time>2018-06-09T09:40:34Z</time>
      </trkpt>
      <trkpt lat="45.98776" lon="4.83075">
        <ele>265</ele>
        <time>2018-06-09T09:40:35Z</time>
      </trkpt>
      <trkpt lat="45.98769" lon="4.83081">
        <ele>266</ele>
        <time>2018-06-09T09:40:38Z</time>
      </trkpt>
      <trkpt lat="45.98767" lon="4.83083">
        <ele>266</ele>
        <time>2018-06-09T09:40:39Z</time>
      </trkpt>
      <trkpt lat="45.98759" lon="4.83088">
        <ele>266</ele>
        <time>2018-06-09T09:40:42Z</time>
      </trkpt>
      <trkpt lat="45.98757" lon="4.83089">
        <ele>266</ele>
        <time>2018-06-09T09:40:43Z</time>
      </trkpt>
      <trkpt lat="45.98749" lon="4.83095">
        <ele>267</ele>
        <time>2018-06-09T09:40:46Z</time>
      </trkpt>
      <trkpt lat="45.98746" lon="4.83097">
        <ele>267</ele>
        <time>2018-06-09T09:40:47Z</time>
      </trkpt>
      <trkpt lat="45.98741" lon="4.83102">
        <ele>267</ele>
        <time>2018-06-09T09:40:49Z</time>
      </trkpt>
      <trkpt lat="45.98738" lon="4.83104">
        <ele>267</ele>
        <time>2018-06-09T09:40:50Z</time>
      </trkpt>
      <trkpt lat="45.98729" lon="4.83112">
        <ele>267</ele>
        <time>2018-06-09T09:40:51Z</time>
      </trkpt>
      <trkpt lat="45.98723" lon="4.83118">
        <ele>267</ele>
        <time>2018-06-09T09:40:53Z</time>
      </trkpt>
      <trkpt lat="45.9872" lon="4.83121">
        <ele>266</ele>
        <time>2018-06-09T09:40:54Z</time>
      </trkpt>
      <trkpt lat="45.98713" lon="4.83127">
        <ele>266</ele>
        <time>2018-06-09T09:40:56Z</time>
      </trkpt>
      <trkpt lat="45.9871" lon="4.83131">
        <ele>266</ele>
        <time>2018-06-09T09:40:57Z</time>
      </trkpt>
      <trkpt lat="45.98704" lon="4.83137">
        <ele>266</ele>
        <time>2018-06-09T09:41:00Z</time>
      </trkpt>
      <trkpt lat="45.98701" lon="4.83139">
        <ele>266</ele>
        <time>2018-06-09T09:41:01Z</time>
      </trkpt>
      <trkpt lat="45.98694" lon="4.83145">
        <ele>266</ele>
        <time>2018-06-09T09:41:04Z</time>
      </trkpt>
      <trkpt lat="45.98691" lon="4.83147">
        <ele>266</ele>
        <time>2018-06-09T09:41:05Z</time>
      </trkpt>
      <trkpt lat="45.98688" lon="4.83149">
        <ele>266</ele>
        <time>2018-06-09T09:41:06Z</time>
      </trkpt>
      <trkpt lat="45.9868" lon="4.83156">
        <ele>266</ele>
        <time>2018-06-09T09:41:07Z</time>
      </trkpt>
      <trkpt lat="45.98674" lon="4.83161">
        <ele>266</ele>
        <time>2018-06-09T09:41:09Z</time>
      </trkpt>
      <trkpt lat="45.9867" lon="4.83163">
        <ele>266</ele>
        <time>2018-06-09T09:41:10Z</time>
      </trkpt>
      <trkpt lat="45.98664" lon="4.83166">
        <ele>266</ele>
        <time>2018-06-09T09:41:13Z</time>
      </trkpt>
      <trkpt lat="45.98658" lon="4.8317">
        <ele>266</ele>
        <time>2018-06-09T09:41:14Z</time>
      </trkpt>
      <trkpt lat="45.98653" lon="4.83173">
        <ele>267</ele>
        <time>2018-06-09T09:41:16Z</time>
      </trkpt>
      <trkpt lat="45.98648" lon="4.83177">
        <ele>267</ele>
        <time>2018-06-09T09:41:17Z</time>
      </trkpt>
      <trkpt lat="45.98642" lon="4.83183">
        <ele>267</ele>
        <time>2018-06-09T09:41:19Z</time>
      </trkpt>
      <trkpt lat="45.98639" lon="4.83186">
        <ele>267</ele>
        <time>2018-06-09T09:41:20Z</time>
      </trkpt>
      <trkpt lat="45.98633" lon="4.83191">
        <ele>267</ele>
        <time>2018-06-09T09:41:22Z</time>
      </trkpt>
      <trkpt lat="45.9863" lon="4.83194">
        <ele>267</ele>
        <time>2018-06-09T09:41:23Z</time>
      </trkpt>
      <trkpt lat="45.98625" lon="4.83203">
        <ele>267</ele>
        <time>2018-06-09T09:41:25Z</time>
      </trkpt>
      <trkpt lat="45.98622" lon="4.83208">
        <ele>267</ele>
        <time>2018-06-09T09:41:26Z</time>
      </trkpt>
      <trkpt lat="45.98617" lon="4.83217">
        <ele>267</ele>
        <time>2018-06-09T09:41:28Z</time>
      </trkpt>
      <trkpt lat="45.98614" lon="4.8322">
        <ele>267</ele>
        <time>2018-06-09T09:41:29Z</time>
      </trkpt>
      <trkpt lat="45.98609" lon="4.83229">
        <ele>267</ele>
        <time>2018-06-09T09:41:31Z</time>
      </trkpt>
      <trkpt lat="45.98606" lon="4.83233">
        <ele>268</ele>
        <time>2018-06-09T09:41:32Z</time>
      </trkpt>
      <trkpt lat="45.98601" lon="4.83242">
        <ele>268</ele>
        <time>2018-06-09T09:41:34Z</time>
      </trkpt>
      <trkpt lat="45.98597" lon="4.83246">
        <ele>268</ele>
        <time>2018-06-09T09:41:35Z</time>
      </trkpt>
      <trkpt lat="45.98591" lon="4.83254">
        <ele>268</ele>
        <time>2018-06-09T09:41:37Z</time>
      </trkpt>
      <trkpt lat="45.98588" lon="4.83258">
        <ele>268</ele>
        <time>2018-06-09T09:41:38Z</time>
      </trkpt>
      <trkpt lat="45.98581" lon="4.83266">
        <ele>269</ele>
        <time>2018-06-09T09:41:40Z</time>
      </trkpt>
      <trkpt lat="45.98578" lon="4.83269">
        <ele>269</ele>
        <time>2018-06-09T09:41:41Z</time>
      </trkpt>
      <trkpt lat="45.98572" lon="4.83277">
        <ele>269</ele>
        <time>2018-06-09T09:41:43Z</time>
      </trkpt>
      <trkpt lat="45.98569" lon="4.83281">
        <ele>269</ele>
        <time>2018-06-09T09:41:44Z</time>
      </trkpt>
      <trkpt lat="45.98562" lon="4.83289">
        <ele>269</ele>
        <time>2018-06-09T09:41:46Z</time>
      </trkpt>
      <trkpt lat="45.98559" lon="4.83294">
        <ele>269</ele>
        <time>2018-06-09T09:41:47Z</time>
      </trkpt>
      <trkpt lat="45.98556" lon="4.83297">
        <ele>269</ele>
        <time>2018-06-09T09:41:48Z</time>
      </trkpt>
      <trkpt lat="45.98552" lon="4.83302">
        <ele>269</ele>
        <time>2018-06-09T09:41:49Z</time>
      </trkpt>
      <trkpt lat="45.98548" lon="4.83308">
        <ele>269</ele>
        <time>2018-06-09T09:41:50Z</time>
      </trkpt>
      <trkpt lat="45.98546" lon="4.83314">
        <ele>269</ele>
        <time>2018-06-09T09:41:51Z</time>
      </trkpt>
      <trkpt lat="45.98543" lon="4.83318">
        <ele>269</ele>
        <time>2018-06-09T09:41:52Z</time>
      </trkpt>
      <trkpt lat="45.98539" lon="4.83322">
        <ele>269</ele>
        <time>2018-06-09T09:41:53Z</time>
      </trkpt>
      <trkpt lat="45.98536" lon="4.83327">
        <ele>269</ele>
        <time>2018-06-09T09:41:54Z</time>
      </trkpt>
      <trkpt lat="45.98533" lon="4.83335">
        <ele>269</ele>
        <time>2018-06-09T09:41:55Z</time>
      </trkpt>
      <trkpt lat="45.98529" lon="4.83345">
        <ele>269</ele>
        <time>2018-06-09T09:41:57Z</time>
      </trkpt>
      <trkpt lat="45.98525" lon="4.83351">
        <ele>269</ele>
        <time>2018-06-09T09:41:58Z</time>
      </trkpt>
      <trkpt lat="45.98522" lon="4.83355">
        <ele>269</ele>
        <time>2018-06-09T09:41:59Z</time>
      </trkpt>
      <trkpt lat="45.98518" lon="4.83359">
        <ele>269</ele>
        <time>2018-06-09T09:42:00Z</time>
      </trkpt>
      <trkpt lat="45.98511" lon="4.83365">
        <ele>269</ele>
        <time>2018-06-09T09:42:02Z</time>
      </trkpt>
      <trkpt lat="45.98507" lon="4.83371">
        <ele>269</ele>
        <time>2018-06-09T09:42:03Z</time>
      </trkpt>
      <trkpt lat="45.98503" lon="4.83377">
        <ele>269</ele>
        <time>2018-06-09T09:42:04Z</time>
      </trkpt>
      <trkpt lat="45.985" lon="4.83382">
        <ele>269</ele>
        <time>2018-06-09T09:42:05Z</time>
      </trkpt>
      <trkpt lat="45.98497" lon="4.83388">
        <ele>269</ele>
        <time>2018-06-09T09:42:06Z</time>
      </trkpt>
      <trkpt lat="45.98493" lon="4.83393">
        <ele>269</ele>
        <time>2018-06-09T09:42:07Z</time>
      </trkpt>
      <trkpt lat="45.9849" lon="4.83396">
        <ele>269</ele>
        <time>2018-06-09T09:42:08Z</time>
      </trkpt>
      <trkpt lat="45.98485" lon="4.834">
        <ele>269</ele>
        <time>2018-06-09T09:42:09Z</time>
      </trkpt>
      <trkpt lat="45.98481" lon="4.83404">
        <ele>269</ele>
        <time>2018-06-09T09:42:10Z</time>
      </trkpt>
      <trkpt lat="45.98477" lon="4.83408">
        <ele>269</ele>
        <time>2018-06-09T09:42:11Z</time>
      </trkpt>
      <trkpt lat="45.98473" lon="4.83413">
        <ele>269</ele>
        <time>2018-06-09T09:42:12Z</time>
      </trkpt>
      <trkpt lat="45.9847" lon="4.83417">
        <ele>269</ele>
        <time>2018-06-09T09:42:13Z</time>
      </trkpt>
      <trkpt lat="45.98466" lon="4.83423">
        <ele>269</ele>
        <time>2018-06-09T09:42:14Z</time>
      </trkpt>
      <trkpt lat="45.98462" lon="4.83428">
        <ele>268</ele>
        <time>2018-06-09T09:42:15Z</time>
      </trkpt>
      <trkpt lat="45.98458" lon="4.83434">
        <ele>268</ele>
        <time>2018-06-09T09:42:16Z</time>
      </trkpt>
      <trkpt lat="45.98455" lon="4.83438">
        <ele>268</ele>
        <time>2018-06-09T09:42:17Z</time>
      </trkpt>
      <trkpt lat="45.98449" lon="4.83446">
        <ele>268</ele>
        <time>2018-06-09T09:42:19Z</time>
      </trkpt>
      <trkpt lat="45.98445" lon="4.83451">
        <ele>268</ele>
        <time>2018-06-09T09:42:20Z</time>
      </trkpt>
      <trkpt lat="45.98441" lon="4.83456">
        <ele>268</ele>
        <time>2018-06-09T09:42:21Z</time>
      </trkpt>
      <trkpt lat="45.98438" lon="4.83461">
        <ele>268</ele>
        <time>2018-06-09T09:42:22Z</time>
      </trkpt>
      <trkpt lat="45.98436" lon="4.83467">
        <ele>268</ele>
        <time>2018-06-09T09:42:23Z</time>
      </trkpt>
      <trkpt lat="45.98431" lon="4.83472">
        <ele>268</ele>
        <time>2018-06-09T09:42:24Z</time>
      </trkpt>
      <trkpt lat="45.98426" lon="4.83476">
        <ele>268</ele>
        <time>2018-06-09T09:42:25Z</time>
      </trkpt>
      <trkpt lat="45.98423" lon="4.83484">
        <ele>268</ele>
        <time>2018-06-09T09:42:26Z</time>
      </trkpt>
      <trkpt lat="45.98418" lon="4.83489">
        <ele>268</ele>
        <time>2018-06-09T09:42:27Z</time>
      </trkpt>
      <trkpt lat="45.98414" lon="4.8349">
        <ele>268</ele>
        <time>2018-06-09T09:42:28Z</time>
      </trkpt>
      <trkpt lat="45.98409" lon="4.83493">
        <ele>268</ele>
        <time>2018-06-09T09:42:29Z</time>
      </trkpt>
      <trkpt lat="45.98405" lon="4.83497">
        <ele>269</ele>
        <time>2018-06-09T09:42:30Z</time>
      </trkpt>
      <trkpt lat="45.98401" lon="4.83503">
        <ele>268</ele>
        <time>2018-06-09T09:42:31Z</time>
      </trkpt>
      <trkpt lat="45.98396" lon="4.83507">
        <ele>269</ele>
        <time>2018-06-09T09:42:32Z</time>
      </trkpt>
      <trkpt lat="45.98392" lon="4.83511">
        <ele>269</ele>
        <time>2018-06-09T09:42:33Z</time>
      </trkpt>
      <trkpt lat="45.9839" lon="4.83518">
        <ele>269</ele>
        <time>2018-06-09T09:42:34Z</time>
      </trkpt>
      <trkpt lat="45.98386" lon="4.83525">
        <ele>269</ele>
        <time>2018-06-09T09:42:35Z</time>
      </trkpt>
      <trkpt lat="45.98382" lon="4.8353">
        <ele>269</ele>
        <time>2018-06-09T09:42:36Z</time>
      </trkpt>
      <trkpt lat="45.98379" lon="4.83535">
        <ele>269</ele>
        <time>2018-06-09T09:42:37Z</time>
      </trkpt>
      <trkpt lat="45.98375" lon="4.83539">
        <ele>269</ele>
        <time>2018-06-09T09:42:38Z</time>
      </trkpt>
      <trkpt lat="45.98368" lon="4.83548">
        <ele>269</ele>
        <time>2018-06-09T09:42:40Z</time>
      </trkpt>
      <trkpt lat="45.98365" lon="4.83553">
        <ele>269</ele>
        <time>2018-06-09T09:42:41Z</time>
      </trkpt>
      <trkpt lat="45.98358" lon="4.8356">
        <ele>269</ele>
        <time>2018-06-09T09:42:43Z</time>
      </trkpt>
      <trkpt lat="45.98356" lon="4.83567">
        <ele>269</ele>
        <time>2018-06-09T09:42:44Z</time>
      </trkpt>
      <trkpt lat="45.98348" lon="4.83573">
        <ele>269</ele>
        <time>2018-06-09T09:42:46Z</time>
      </trkpt>
      <trkpt lat="45.98346" lon="4.8358">
        <ele>270</ele>
        <time>2018-06-09T09:42:47Z</time>
      </trkpt>
      <trkpt lat="45.98342" lon="4.83585">
        <ele>270</ele>
        <time>2018-06-09T09:42:48Z</time>
      </trkpt>
      <trkpt lat="45.98338" lon="4.83594">
        <ele>270</ele>
        <time>2018-06-09T09:42:49Z</time>
      </trkpt>
      <trkpt lat="45.98331" lon="4.836">
        <ele>271</ele>
        <time>2018-06-09T09:42:51Z</time>
      </trkpt>
      <trkpt lat="45.98328" lon="4.83604">
        <ele>271</ele>
        <time>2018-06-09T09:42:52Z</time>
      </trkpt>
      <trkpt lat="45.98327" lon="4.8361">
        <ele>271</ele>
        <time>2018-06-09T09:42:53Z</time>
      </trkpt>
      <trkpt lat="45.98324" lon="4.83615">
        <ele>271</ele>
        <time>2018-06-09T09:42:54Z</time>
      </trkpt>
      <trkpt lat="45.98318" lon="4.83625">
        <ele>271</ele>
        <time>2018-06-09T09:42:56Z</time>
      </trkpt>
      <trkpt lat="45.98316" lon="4.83631">
        <ele>271</ele>
        <time>2018-06-09T09:42:57Z</time>
      </trkpt>
      <trkpt lat="45.9831" lon="4.83638">
        <ele>271</ele>
        <time>2018-06-09T09:42:59Z</time>
      </trkpt>
      <trkpt lat="45.98307" lon="4.83643">
        <ele>271</ele>
        <time>2018-06-09T09:43:00Z</time>
      </trkpt>
      <trkpt lat="45.98302" lon="4.83654">
        <ele>271</ele>
        <time>2018-06-09T09:43:02Z</time>
      </trkpt>
      <trkpt lat="45.98301" lon="4.83661">
        <ele>271</ele>
        <time>2018-06-09T09:43:03Z</time>
      </trkpt>
      <trkpt lat="45.98297" lon="4.83671">
        <ele>272</ele>
        <time>2018-06-09T09:43:05Z</time>
      </trkpt>
      <trkpt lat="45.98294" lon="4.83676">
        <ele>272</ele>
        <time>2018-06-09T09:43:06Z</time>
      </trkpt>
      <trkpt lat="45.9829" lon="4.83687">
        <ele>272</ele>
        <time>2018-06-09T09:43:08Z</time>
      </trkpt>
      <trkpt lat="45.98287" lon="4.83691">
        <ele>272</ele>
        <time>2018-06-09T09:43:09Z</time>
      </trkpt>
      <trkpt lat="45.98285" lon="4.83696">
        <ele>272</ele>
        <time>2018-06-09T09:43:10Z</time>
      </trkpt>
      <trkpt lat="45.98283" lon="4.83703">
        <ele>272</ele>
        <time>2018-06-09T09:43:11Z</time>
      </trkpt>
      <trkpt lat="45.9828" lon="4.83714">
        <ele>272</ele>
        <time>2018-06-09T09:43:13Z</time>
      </trkpt>
      <trkpt lat="45.98278" lon="4.83718">
        <ele>272</ele>
        <time>2018-06-09T09:43:14Z</time>
      </trkpt>
      <trkpt lat="45.98277" lon="4.83725">
        <ele>272</ele>
        <time>2018-06-09T09:43:15Z</time>
      </trkpt>
      <trkpt lat="45.98275" lon="4.8373">
        <ele>272</ele>
        <time>2018-06-09T09:43:16Z</time>
      </trkpt>
      <trkpt lat="45.98271" lon="4.83741">
        <ele>272</ele>
        <time>2018-06-09T09:43:18Z</time>
      </trkpt>
      <trkpt lat="45.98269" lon="4.83746">
        <ele>272</ele>
        <time>2018-06-09T09:43:19Z</time>
      </trkpt>
      <trkpt lat="45.98265" lon="4.83757">
        <ele>272</ele>
        <time>2018-06-09T09:43:21Z</time>
      </trkpt>
      <trkpt lat="45.98263" lon="4.83763">
        <ele>272</ele>
        <time>2018-06-09T09:43:22Z</time>
      </trkpt>
      <trkpt lat="45.98261" lon="4.83769">
        <ele>272</ele>
        <time>2018-06-09T09:43:23Z</time>
      </trkpt>
      <trkpt lat="45.98259" lon="4.83774">
        <ele>272</ele>
        <time>2018-06-09T09:43:24Z</time>
      </trkpt>
      <trkpt lat="45.98256" lon="4.83786">
        <ele>272</ele>
        <time>2018-06-09T09:43:26Z</time>
      </trkpt>
      <trkpt lat="45.98253" lon="4.83791">
        <ele>272</ele>
        <time>2018-06-09T09:43:27Z</time>
      </trkpt>
      <trkpt lat="45.98252" lon="4.83796">
        <ele>272</ele>
        <time>2018-06-09T09:43:28Z</time>
      </trkpt>
      <trkpt lat="45.98249" lon="4.83803">
        <ele>272</ele>
        <time>2018-06-09T09:43:29Z</time>
      </trkpt>
      <trkpt lat="45.98247" lon="4.83809">
        <ele>272</ele>
        <time>2018-06-09T09:43:30Z</time>
      </trkpt>
      <trkpt lat="45.98244" lon="4.83813">
        <ele>272</ele>
        <time>2018-06-09T09:43:31Z</time>
      </trkpt>
      <trkpt lat="45.98242" lon="4.8382">
        <ele>272</ele>
        <time>2018-06-09T09:43:32Z</time>
      </trkpt>
      <trkpt lat="45.9824" lon="4.83826">
        <ele>272</ele>
        <time>2018-06-09T09:43:33Z</time>
      </trkpt>
      <trkpt lat="45.98237" lon="4.83832">
        <ele>272</ele>
        <time>2018-06-09T09:43:34Z</time>
      </trkpt>
      <trkpt lat="45.98234" lon="4.83838">
        <ele>272</ele>
        <time>2018-06-09T09:43:35Z</time>
      </trkpt>
      <trkpt lat="45.98233" lon="4.83846">
        <ele>272</ele>
        <time>2018-06-09T09:43:36Z</time>
      </trkpt>
      <trkpt lat="45.98231" lon="4.83853">
        <ele>272</ele>
        <time>2018-06-09T09:43:37Z</time>
      </trkpt>
      <trkpt lat="45.98228" lon="4.8386">
        <ele>272</ele>
        <time>2018-06-09T09:43:38Z</time>
      </trkpt>
      <trkpt lat="45.98226" lon="4.83866">
        <ele>272</ele>
        <time>2018-06-09T09:43:39Z</time>
      </trkpt>
      <trkpt lat="45.98223" lon="4.83873">
        <ele>272</ele>
        <time>2018-06-09T09:43:40Z</time>
      </trkpt>
      <trkpt lat="45.98221" lon="4.83879">
        <ele>272</ele>
        <time>2018-06-09T09:43:41Z</time>
      </trkpt>
      <trkpt lat="45.98219" lon="4.83885">
        <ele>272</ele>
        <time>2018-06-09T09:43:42Z</time>
      </trkpt>
      <trkpt lat="45.98216" lon="4.83892">
        <ele>273</ele>
        <time>2018-06-09T09:43:43Z</time>
      </trkpt>
      <trkpt lat="45.98213" lon="4.83898">
        <ele>273</ele>
        <time>2018-06-09T09:43:44Z</time>
      </trkpt>
      <trkpt lat="45.98211" lon="4.83904">
        <ele>273</ele>
        <time>2018-06-09T09:43:45Z</time>
      </trkpt>
      <trkpt lat="45.98209" lon="4.83911">
        <ele>273</ele>
        <time>2018-06-09T09:43:46Z</time>
      </trkpt>
      <trkpt lat="45.98207" lon="4.83917">
        <ele>273</ele>
        <time>2018-06-09T09:43:47Z</time>
      </trkpt>
      <trkpt lat="45.98205" lon="4.83923">
        <ele>273</ele>
        <time>2018-06-09T09:43:48Z</time>
      </trkpt>
      <trkpt lat="45.98202" lon="4.83929">
        <ele>273</ele>
        <time>2018-06-09T09:43:49Z</time>
      </trkpt>
      <trkpt lat="45.982" lon="4.83936">
        <ele>273</ele>
        <time>2018-06-09T09:43:50Z</time>
      </trkpt>
      <trkpt lat="45.98199" lon="4.83942">
        <ele>273</ele>
        <time>2018-06-09T09:43:51Z</time>
      </trkpt>
      <trkpt lat="45.98197" lon="4.83948">
        <ele>273</ele>
        <time>2018-06-09T09:43:52Z</time>
      </trkpt>
      <trkpt lat="45.98195" lon="4.83956">
        <ele>273</ele>
        <time>2018-06-09T09:43:53Z</time>
      </trkpt>
      <trkpt lat="45.98193" lon="4.83963">
        <ele>273</ele>
        <time>2018-06-09T09:43:54Z</time>
      </trkpt>
      <trkpt lat="45.9819" lon="4.8397">
        <ele>273</ele>
        <time>2018-06-09T09:43:55Z</time>
      </trkpt>
      <trkpt lat="45.98187" lon="4.83976">
        <ele>273</ele>
        <time>2018-06-09T09:43:56Z</time>
      </trkpt>
      <trkpt lat="45.98184" lon="4.83983">
        <ele>273</ele>
        <time>2018-06-09T09:43:57Z</time>
      </trkpt>
      <trkpt lat="45.98182" lon="4.83988">
        <ele>273</ele>
        <time>2018-06-09T09:43:58Z</time>
      </trkpt>
      <trkpt lat="45.98179" lon="4.83995">
        <ele>273</ele>
        <time>2018-06-09T09:43:59Z</time>
      </trkpt>
      <trkpt lat="45.98177" lon="4.84">
        <ele>273</ele>
        <time>2018-06-09T09:44:00Z</time>
      </trkpt>
      <trkpt lat="45.98174" lon="4.84007">
        <ele>273</ele>
        <time>2018-06-09T09:44:01Z</time>
      </trkpt>
      <trkpt lat="45.98171" lon="4.84013">
        <ele>273</ele>
        <time>2018-06-09T09:44:02Z</time>
      </trkpt>
      <trkpt lat="45.98168" lon="4.84018">
        <ele>273</ele>
        <time>2018-06-09T09:44:03Z</time>
      </trkpt>
      <trkpt lat="45.98161" lon="4.84027">
        <ele>273</ele>
        <time>2018-06-09T09:44:05Z</time>
      </trkpt>
      <trkpt lat="45.98158" lon="4.84032">
        <ele>273</ele>
        <time>2018-06-09T09:44:06Z</time>
      </trkpt>
      <trkpt lat="45.98154" lon="4.84038">
        <ele>273</ele>
        <time>2018-06-09T09:44:07Z</time>
      </trkpt>
      <trkpt lat="45.98151" lon="4.84043">
        <ele>273</ele>
        <time>2018-06-09T09:44:08Z</time>
      </trkpt>
      <trkpt lat="45.98148" lon="4.84048">
        <ele>273</ele>
        <time>2018-06-09T09:44:09Z</time>
      </trkpt>
      <trkpt lat="45.98144" lon="4.84052">
        <ele>273</ele>
        <time>2018-06-09T09:44:10Z</time>
      </trkpt>
      <trkpt lat="45.9814" lon="4.84057">
        <ele>273</ele>
        <time>2018-06-09T09:44:11Z</time>
      </trkpt>
      <trkpt lat="45.98136" lon="4.84062">
        <ele>273</ele>
        <time>2018-06-09T09:44:12Z</time>
      </trkpt>
      <trkpt lat="45.98134" lon="4.84069">
        <ele>273</ele>
        <time>2018-06-09T09:44:13Z</time>
      </trkpt>
      <trkpt lat="45.9813" lon="4.84074">
        <ele>273</ele>
        <time>2018-06-09T09:44:14Z</time>
      </trkpt>
      <trkpt lat="45.98122" lon="4.84078">
        <ele>273</ele>
        <time>2018-06-09T09:44:16Z</time>
      </trkpt>
      <trkpt lat="45.98118" lon="4.84081">
        <ele>273</ele>
        <time>2018-06-09T09:44:17Z</time>
      </trkpt>
      <trkpt lat="45.98111" lon="4.8409">
        <ele>273</ele>
        <time>2018-06-09T09:44:19Z</time>
      </trkpt>
      <trkpt lat="45.98108" lon="4.84093">
        <ele>273</ele>
        <time>2018-06-09T09:44:20Z</time>
      </trkpt>
      <trkpt lat="45.98102" lon="4.84101">
        <ele>273</ele>
        <time>2018-06-09T09:44:22Z</time>
      </trkpt>
      <trkpt lat="45.98099" lon="4.84104">
        <ele>273</ele>
        <time>2018-06-09T09:44:23Z</time>
      </trkpt>
      <trkpt lat="45.98095" lon="4.84108">
        <ele>273</ele>
        <time>2018-06-09T09:44:24Z</time>
      </trkpt>
      <trkpt lat="45.98091" lon="4.84112">
        <ele>273</ele>
        <time>2018-06-09T09:44:25Z</time>
      </trkpt>
      <trkpt lat="45.98087" lon="4.84117">
        <ele>273</ele>
        <time>2018-06-09T09:44:26Z</time>
      </trkpt>
      <trkpt lat="45.98084" lon="4.84122">
        <ele>273</ele>
        <time>2018-06-09T09:44:27Z</time>
      </trkpt>
      <trkpt lat="45.98079" lon="4.84127">
        <ele>273</ele>
        <time>2018-06-09T09:44:28Z</time>
      </trkpt>
      <trkpt lat="45.98076" lon="4.84132">
        <ele>273</ele>
        <time>2018-06-09T09:44:29Z</time>
      </trkpt>
      <trkpt lat="45.98068" lon="4.84138">
        <ele>273</ele>
        <time>2018-06-09T09:44:31Z</time>
      </trkpt>
      <trkpt lat="45.98064" lon="4.8414">
        <ele>273</ele>
        <time>2018-06-09T09:44:32Z</time>
      </trkpt>
      <trkpt lat="45.98057" lon="4.84147">
        <ele>273</ele>
        <time>2018-06-09T09:44:34Z</time>
      </trkpt>
      <trkpt lat="45.98053" lon="4.84151">
        <ele>273</ele>
        <time>2018-06-09T09:44:35Z</time>
      </trkpt>
      <trkpt lat="45.98045" lon="4.84157">
        <ele>273</ele>
        <time>2018-06-09T09:44:37Z</time>
      </trkpt>
      <trkpt lat="45.98041" lon="4.84161">
        <ele>273</ele>
        <time>2018-06-09T09:44:38Z</time>
      </trkpt>
      <trkpt lat="45.98038" lon="4.84166">
        <ele>273</ele>
        <time>2018-06-09T09:44:39Z</time>
      </trkpt>
      <trkpt lat="45.98033" lon="4.84173">
        <ele>273</ele>
        <time>2018-06-09T09:44:40Z</time>
      </trkpt>
      <trkpt lat="45.9803" lon="4.8418">
        <ele>274</ele>
        <time>2018-06-09T09:44:41Z</time>
      </trkpt>
      <trkpt lat="45.98027" lon="4.84185">
        <ele>274</ele>
        <time>2018-06-09T09:44:42Z</time>
      </trkpt>
      <trkpt lat="45.98023" lon="4.84188">
        <ele>274</ele>
        <time>2018-06-09T09:44:43Z</time>
      </trkpt>
      <trkpt lat="45.98019" lon="4.84192">
        <ele>274</ele>
        <time>2018-06-09T09:44:44Z</time>
      </trkpt>
      <trkpt lat="45.98011" lon="4.84196">
        <ele>274</ele>
        <time>2018-06-09T09:44:46Z</time>
      </trkpt>
      <trkpt lat="45.98008" lon="4.84201">
        <ele>274</ele>
        <time>2018-06-09T09:44:47Z</time>
      </trkpt>
      <trkpt lat="45.98004" lon="4.84205">
        <ele>274</ele>
        <time>2018-06-09T09:44:48Z</time>
      </trkpt>
      <trkpt lat="45.97999" lon="4.84209">
        <ele>274</ele>
        <time>2018-06-09T09:44:49Z</time>
      </trkpt>
      <trkpt lat="45.97995" lon="4.84213">
        <ele>274</ele>
        <time>2018-06-09T09:44:50Z</time>
      </trkpt>
      <trkpt lat="45.9799" lon="4.84217">
        <ele>274</ele>
        <time>2018-06-09T09:44:51Z</time>
      </trkpt>
      <trkpt lat="45.97986" lon="4.84222">
        <ele>274</ele>
        <time>2018-06-09T09:44:52Z</time>
      </trkpt>
      <trkpt lat="45.97981" lon="4.84225">
        <ele>274</ele>
        <time>2018-06-09T09:44:53Z</time>
      </trkpt>
      <trkpt lat="45.97977" lon="4.84228">
        <ele>274</ele>
        <time>2018-06-09T09:44:54Z</time>
      </trkpt>
      <trkpt lat="45.97974" lon="4.84232">
        <ele>274</ele>
        <time>2018-06-09T09:44:55Z</time>
      </trkpt>
      <trkpt lat="45.97967" lon="4.84239">
        <ele>274</ele>
        <time>2018-06-09T09:44:57Z</time>
      </trkpt>
      <trkpt lat="45.97963" lon="4.84243">
        <ele>274</ele>
        <time>2018-06-09T09:44:58Z</time>
      </trkpt>
      <trkpt lat="45.97958" lon="4.84246">
        <ele>274</ele>
        <time>2018-06-09T09:44:59Z</time>
      </trkpt>
      <trkpt lat="45.97954" lon="4.8425">
        <ele>275</ele>
        <time>2018-06-09T09:45:00Z</time>
      </trkpt>
      <trkpt lat="45.97951" lon="4.84255">
        <ele>275</ele>
        <time>2018-06-09T09:45:01Z</time>
      </trkpt>
      <trkpt lat="45.97947" lon="4.84259">
        <ele>275</ele>
        <time>2018-06-09T09:45:02Z</time>
      </trkpt>
      <trkpt lat="45.97943" lon="4.84263">
        <ele>275</ele>
        <time>2018-06-09T09:45:03Z</time>
      </trkpt>
      <trkpt lat="45.97939" lon="4.84266">
        <ele>275</ele>
        <time>2018-06-09T09:45:04Z</time>
      </trkpt>
      <trkpt lat="45.97934" lon="4.84268">
        <ele>275</ele>
        <time>2018-06-09T09:45:05Z</time>
      </trkpt>
      <trkpt lat="45.9793" lon="4.84273">
        <ele>275</ele>
        <time>2018-06-09T09:45:06Z</time>
      </trkpt>
      <trkpt lat="45.97927" lon="4.84278">
        <ele>275</ele>
        <time>2018-06-09T09:45:07Z</time>
      </trkpt>
      <trkpt lat="45.97926" lon="4.84285">
        <ele>275</ele>
        <time>2018-06-09T09:45:08Z</time>
      </trkpt>
      <trkpt lat="45.97926" lon="4.84296">
        <ele>275</ele>
        <time>2018-06-09T09:45:10Z</time>
      </trkpt>
      <trkpt lat="45.97927" lon="4.84303">
        <ele>275</ele>
        <time>2018-06-09T09:45:11Z</time>
      </trkpt>
      <trkpt lat="45.97927" lon="4.84313">
        <ele>275</ele>
        <time>2018-06-09T09:45:13Z</time>
      </trkpt>
      <trkpt lat="45.97928" lon="4.84319">
        <ele>275</ele>
        <time>2018-06-09T09:45:14Z</time>
      </trkpt>
      <trkpt lat="45.97928" lon="4.84326">
        <ele>275</ele>
        <time>2018-06-09T09:45:15Z</time>
      </trkpt>
      <trkpt lat="45.97929" lon="4.84333">
        <ele>275</ele>
        <time>2018-06-09T09:45:16Z</time>
      </trkpt>
      <trkpt lat="45.97931" lon="4.84339">
        <ele>275</ele>
        <time>2018-06-09T09:45:17Z</time>
      </trkpt>
      <trkpt lat="45.97933" lon="4.84346">
        <ele>275</ele>
        <time>2018-06-09T09:45:18Z</time>
      </trkpt>
      <trkpt lat="45.97935" lon="4.84354">
        <ele>275</ele>
        <time>2018-06-09T09:45:19Z</time>
      </trkpt>
      <trkpt lat="45.97937" lon="4.84361">
        <ele>275</ele>
        <time>2018-06-09T09:45:20Z</time>
      </trkpt>
      <trkpt lat="45.97939" lon="4.84367">
        <ele>275</ele>
        <time>2018-06-09T09:45:21Z</time>
      </trkpt>
      <trkpt lat="45.97941" lon="4.84374">
        <ele>275</ele>
        <time>2018-06-09T09:45:22Z</time>
      </trkpt>
      <trkpt lat="45.97942" lon="4.8438">
        <ele>275</ele>
        <time>2018-06-09T09:45:23Z</time>
      </trkpt>
      <trkpt lat="45.97943" lon="4.84388">
        <ele>275</ele>
        <time>2018-06-09T09:45:24Z</time>
      </trkpt>
      <trkpt lat="45.97945" lon="4.844">
        <ele>275</ele>
        <time>2018-06-09T09:45:26Z</time>
      </trkpt>
      <trkpt lat="45.97946" lon="4.84407">
        <ele>275</ele>
        <time>2018-06-09T09:45:27Z</time>
      </trkpt>
      <trkpt lat="45.97948" lon="4.84418">
        <ele>275</ele>
        <time>2018-06-09T09:45:29Z</time>
      </trkpt>
      <trkpt lat="45.97949" lon="4.84425">
        <ele>275</ele>
        <time>2018-06-09T09:45:30Z</time>
      </trkpt>
      <trkpt lat="45.97951" lon="4.84436">
        <ele>275</ele>
        <time>2018-06-09T09:45:32Z</time>
      </trkpt>
      <trkpt lat="45.97951" lon="4.84442">
        <ele>275</ele>
        <time>2018-06-09T09:45:33Z</time>
      </trkpt>
      <trkpt lat="45.97953" lon="4.84454">
        <ele>275</ele>
        <time>2018-06-09T09:45:35Z</time>
      </trkpt>
      <trkpt lat="45.97953" lon="4.8446">
        <ele>275</ele>
        <time>2018-06-09T09:45:36Z</time>
      </trkpt>
      <trkpt lat="45.97955" lon="4.84465">
        <ele>275</ele>
        <time>2018-06-09T09:45:37Z</time>
      </trkpt>
      <trkpt lat="45.97958" lon="4.84473">
        <ele>275</ele>
        <time>2018-06-09T09:45:38Z</time>
      </trkpt>
      <trkpt lat="45.97959" lon="4.84479">
        <ele>275</ele>
        <time>2018-06-09T09:45:39Z</time>
      </trkpt>
      <trkpt lat="45.97959" lon="4.84486">
        <ele>275</ele>
        <time>2018-06-09T09:45:40Z</time>
      </trkpt>
      <trkpt lat="45.9796" lon="4.84492">
        <ele>275</ele>
        <time>2018-06-09T09:45:41Z</time>
      </trkpt>
      <trkpt lat="45.97961" lon="4.84499">
        <ele>275</ele>
        <time>2018-06-09T09:45:42Z</time>
      </trkpt>
      <trkpt lat="45.97963" lon="4.84507">
        <ele>275</ele>
        <time>2018-06-09T09:45:43Z</time>
      </trkpt>
      <trkpt lat="45.97965" lon="4.84515">
        <ele>275</ele>
        <time>2018-06-09T09:45:44Z</time>
      </trkpt>
      <trkpt lat="45.97966" lon="4.84522">
        <ele>275</ele>
        <time>2018-06-09T09:45:45Z</time>
      </trkpt>
      <trkpt lat="45.97967" lon="4.84528">
        <ele>275</ele>
        <time>2018-06-09T09:45:46Z</time>
      </trkpt>
      <trkpt lat="45.97969" lon="4.84536">
        <ele>275</ele>
        <time>2018-06-09T09:45:47Z</time>
      </trkpt>
      <trkpt lat="45.9797" lon="4.84544">
        <ele>275</ele>
        <time>2018-06-09T09:45:48Z</time>
      </trkpt>
      <trkpt lat="45.97971" lon="4.8455">
        <ele>275</ele>
        <time>2018-06-09T09:45:49Z</time>
      </trkpt>
      <trkpt lat="45.97972" lon="4.84558">
        <ele>275</ele>
        <time>2018-06-09T09:45:50Z</time>
      </trkpt>
      <trkpt lat="45.97974" lon="4.84567">
        <ele>275</ele>
        <time>2018-06-09T09:45:51Z</time>
      </trkpt>
      <trkpt lat="45.97975" lon="4.84573">
        <ele>275</ele>
        <time>2018-06-09T09:45:52Z</time>
      </trkpt>
      <trkpt lat="45.97976" lon="4.8458">
        <ele>275</ele>
        <time>2018-06-09T09:45:53Z</time>
      </trkpt>
      <trkpt lat="45.97977" lon="4.84586">
        <ele>274</ele>
        <time>2018-06-09T09:45:54Z</time>
      </trkpt>
      <trkpt lat="45.97978" lon="4.84593">
        <ele>274</ele>
        <time>2018-06-09T09:45:55Z</time>
      </trkpt>
      <trkpt lat="45.97978" lon="4.846">
        <ele>274</ele>
        <time>2018-06-09T09:45:56Z</time>
      </trkpt>
      <trkpt lat="45.97979" lon="4.84608">
        <ele>275</ele>
        <time>2018-06-09T09:45:57Z</time>
      </trkpt>
      <trkpt lat="45.9798" lon="4.84616">
        <ele>275</ele>
        <time>2018-06-09T09:45:58Z</time>
      </trkpt>
      <trkpt lat="45.97981" lon="4.84624">
        <ele>275</ele>
        <time>2018-06-09T09:45:59Z</time>
      </trkpt>
      <trkpt lat="45.97982" lon="4.84631">
        <ele>275</ele>
        <time>2018-06-09T09:46:00Z</time>
      </trkpt>
      <trkpt lat="45.97984" lon="4.84638">
        <ele>275</ele>
        <time>2018-06-09T09:46:01Z</time>
      </trkpt>
      <trkpt lat="45.97985" lon="4.84645">
        <ele>274</ele>
        <time>2018-06-09T09:46:02Z</time>
      </trkpt>
      <trkpt lat="45.97987" lon="4.84651">
        <ele>274</ele>
        <time>2018-06-09T09:46:03Z</time>
      </trkpt>
      <trkpt lat="45.97987" lon="4.84657">
        <ele>274</ele>
        <time>2018-06-09T09:46:04Z</time>
      </trkpt>
      <trkpt lat="45.97988" lon="4.84664">
        <ele>274</ele>
        <time>2018-06-09T09:46:05Z</time>
      </trkpt>
      <trkpt lat="45.97989" lon="4.8467">
        <ele>274</ele>
        <time>2018-06-09T09:46:06Z</time>
      </trkpt>
      <trkpt lat="45.9799" lon="4.84676">
        <ele>275</ele>
        <time>2018-06-09T09:46:07Z</time>
      </trkpt>
      <trkpt lat="45.9799" lon="4.84683">
        <ele>275</ele>
        <time>2018-06-09T09:46:08Z</time>
      </trkpt>
      <trkpt lat="45.97991" lon="4.8469">
        <ele>275</ele>
        <time>2018-06-09T09:46:09Z</time>
      </trkpt>
      <trkpt lat="45.97991" lon="4.84697">
        <ele>275</ele>
        <time>2018-06-09T09:46:10Z</time>
      </trkpt>
      <trkpt lat="45.97992" lon="4.84705">
        <ele>275</ele>
        <time>2018-06-09T09:46:11Z</time>
      </trkpt>
      <trkpt lat="45.97993" lon="4.84711">
        <ele>275</ele>
        <time>2018-06-09T09:46:12Z</time>
      </trkpt>
      <trkpt lat="45.97995" lon="4.84719">
        <ele>275</ele>
        <time>2018-06-09T09:46:13Z</time>
      </trkpt>
      <trkpt lat="45.97996" lon="4.84726">
        <ele>275</ele>
        <time>2018-06-09T09:46:14Z</time>
      </trkpt>
      <trkpt lat="45.97997" lon="4.84734">
        <ele>275</ele>
        <time>2018-06-09T09:46:15Z</time>
      </trkpt>
      <trkpt lat="45.97995" lon="4.84741">
        <ele>275</ele>
        <time>2018-06-09T09:46:16Z</time>
      </trkpt>
      <trkpt lat="45.97996" lon="4.84748">
        <ele>275</ele>
        <time>2018-06-09T09:46:17Z</time>
      </trkpt>
      <trkpt lat="45.97996" lon="4.84755">
        <ele>275</ele>
        <time>2018-06-09T09:46:18Z</time>
      </trkpt>
      <trkpt lat="45.97997" lon="4.84765">
        <ele>275</ele>
        <time>2018-06-09T09:46:20Z</time>
      </trkpt>
      <trkpt lat="45.97998" lon="4.84772">
        <ele>274</ele>
        <time>2018-06-09T09:46:21Z</time>
      </trkpt>
      <trkpt lat="45.97999" lon="4.84779">
        <ele>274</ele>
        <time>2018-06-09T09:46:22Z</time>
      </trkpt>
      <trkpt lat="45.98001" lon="4.84789">
        <ele>273</ele>
        <time>2018-06-09T09:46:23Z</time>
      </trkpt>
      <trkpt lat="45.98003" lon="4.84799">
        <ele>273</ele>
        <time>2018-06-09T09:46:24Z</time>
      </trkpt>
      <trkpt lat="45.98004" lon="4.84806">
        <ele>273</ele>
        <time>2018-06-09T09:46:25Z</time>
      </trkpt>
      <trkpt lat="45.98005" lon="4.84817">
        <ele>272</ele>
        <time>2018-06-09T09:46:26Z</time>
      </trkpt>
      <trkpt lat="45.98006" lon="4.84826">
        <ele>272</ele>
        <time>2018-06-09T09:46:27Z</time>
      </trkpt>
      <trkpt lat="45.98006" lon="4.84838">
        <ele>272</ele>
        <time>2018-06-09T09:46:29Z</time>
      </trkpt>
      <trkpt lat="45.98006" lon="4.84845">
        <ele>272</ele>
        <time>2018-06-09T09:46:30Z</time>
      </trkpt>
      <trkpt lat="45.98007" lon="4.84853">
        <ele>272</ele>
        <time>2018-06-09T09:46:31Z</time>
      </trkpt>
      <trkpt lat="45.98007" lon="4.84861">
        <ele>272</ele>
        <time>2018-06-09T09:46:32Z</time>
      </trkpt>
      <trkpt lat="45.98008" lon="4.84873">
        <ele>272</ele>
        <time>2018-06-09T09:46:34Z</time>
      </trkpt>
      <trkpt lat="45.98007" lon="4.84879">
        <ele>272</ele>
        <time>2018-06-09T09:46:35Z</time>
      </trkpt>
      <trkpt lat="45.98008" lon="4.84886">
        <ele>272</ele>
        <time>2018-06-09T09:46:36Z</time>
      </trkpt>
      <trkpt lat="45.98009" lon="4.84893">
        <ele>272</ele>
        <time>2018-06-09T09:46:37Z</time>
      </trkpt>
      <trkpt lat="45.98011" lon="4.84901">
        <ele>272</ele>
        <time>2018-06-09T09:46:38Z</time>
      </trkpt>
      <trkpt lat="45.98014" lon="4.84909">
        <ele>272</ele>
        <time>2018-06-09T09:46:39Z</time>
      </trkpt>
      <trkpt lat="45.98015" lon="4.84916">
        <ele>272</ele>
        <time>2018-06-09T09:46:40Z</time>
      </trkpt>
      <trkpt lat="45.98014" lon="4.84922">
        <ele>272</ele>
        <time>2018-06-09T09:46:41Z</time>
      </trkpt>
      <trkpt lat="45.98016" lon="4.84928">
        <ele>272</ele>
        <time>2018-06-09T09:46:42Z</time>
      </trkpt>
      <trkpt lat="45.98016" lon="4.84935">
        <ele>272</ele>
        <time>2018-06-09T09:46:43Z</time>
      </trkpt>
      <trkpt lat="45.98016" lon="4.84943">
        <ele>272</ele>
        <time>2018-06-09T09:46:44Z</time>
      </trkpt>
      <trkpt lat="45.98016" lon="4.84949">
        <ele>272</ele>
        <time>2018-06-09T09:46:45Z</time>
      </trkpt>
      <trkpt lat="45.98017" lon="4.84957">
        <ele>272</ele>
        <time>2018-06-09T09:46:46Z</time>
      </trkpt>
      <trkpt lat="45.98018" lon="4.84963">
        <ele>272</ele>
        <time>2018-06-09T09:46:47Z</time>
      </trkpt>
      <trkpt lat="45.98019" lon="4.8497">
        <ele>272</ele>
        <time>2018-06-09T09:46:48Z</time>
      </trkpt>
      <trkpt lat="45.98022" lon="4.84979">
        <ele>272</ele>
        <time>2018-06-09T09:46:49Z</time>
      </trkpt>
      <trkpt lat="45.98024" lon="4.84991">
        <ele>272</ele>
        <time>2018-06-09T09:46:51Z</time>
      </trkpt>
      <trkpt lat="45.98024" lon="4.84998">
        <ele>272</ele>
        <time>2018-06-09T09:46:52Z</time>
      </trkpt>
      <trkpt lat="45.98025" lon="4.85005">
        <ele>273</ele>
        <time>2018-06-09T09:46:53Z</time>
      </trkpt>
      <trkpt lat="45.98026" lon="4.85012">
        <ele>273</ele>
        <time>2018-06-09T09:46:54Z</time>
      </trkpt>
      <trkpt lat="45.98027" lon="4.8502">
        <ele>273</ele>
        <time>2018-06-09T09:46:55Z</time>
      </trkpt>
      <trkpt lat="45.98027" lon="4.85027">
        <ele>273</ele>
        <time>2018-06-09T09:46:56Z</time>
      </trkpt>
      <trkpt lat="45.98027" lon="4.85035">
        <ele>273</ele>
        <time>2018-06-09T09:46:57Z</time>
      </trkpt>
      <trkpt lat="45.98027" lon="4.85043">
        <ele>273</ele>
        <time>2018-06-09T09:46:58Z</time>
      </trkpt>
      <trkpt lat="45.98027" lon="4.85051">
        <ele>273</ele>
        <time>2018-06-09T09:46:59Z</time>
      </trkpt>
      <trkpt lat="45.98027" lon="4.85058">
        <ele>273</ele>
        <time>2018-06-09T09:47:00Z</time>
      </trkpt>
      <trkpt lat="45.98027" lon="4.85065">
        <ele>273</ele>
        <time>2018-06-09T09:47:01Z</time>
      </trkpt>
      <trkpt lat="45.98027" lon="4.85073">
        <ele>273</ele>
        <time>2018-06-09T09:47:02Z</time>
      </trkpt>
      <trkpt lat="45.98027" lon="4.85082">
        <ele>273</ele>
        <time>2018-06-09T09:47:03Z</time>
      </trkpt>
      <trkpt lat="45.98027" lon="4.85089">
        <ele>274</ele>
        <time>2018-06-09T09:47:04Z</time>
      </trkpt>
      <trkpt lat="45.98029" lon="4.85096">
        <ele>274</ele>
        <time>2018-06-09T09:47:05Z</time>
      </trkpt>
      <trkpt lat="45.98029" lon="4.85103">
        <ele>274</ele>
        <time>2018-06-09T09:47:06Z</time>
      </trkpt>
      <trkpt lat="45.98031" lon="4.8511">
        <ele>274</ele>
        <time>2018-06-09T09:47:07Z</time>
      </trkpt>
      <trkpt lat="45.98033" lon="4.85118">
        <ele>274</ele>
        <time>2018-06-09T09:47:08Z</time>
      </trkpt>
      <trkpt lat="45.98035" lon="4.8513">
        <ele>275</ele>
        <time>2018-06-09T09:47:10Z</time>
      </trkpt>
      <trkpt lat="45.98037" lon="4.85136">
        <ele>275</ele>
        <time>2018-06-09T09:47:11Z</time>
      </trkpt>
      <trkpt lat="45.98037" lon="4.85144">
        <ele>275</ele>
        <time>2018-06-09T09:47:12Z</time>
      </trkpt>
      <trkpt lat="45.98038" lon="4.85149">
        <ele>275</ele>
        <time>2018-06-09T09:47:13Z</time>
      </trkpt>
      <trkpt lat="45.98041" lon="4.85161">
        <ele>275</ele>
        <time>2018-06-09T09:47:15Z</time>
      </trkpt>
      <trkpt lat="45.98044" lon="4.85167">
        <ele>275</ele>
        <time>2018-06-09T09:47:16Z</time>
      </trkpt>
      <trkpt lat="45.98046" lon="4.85173">
        <ele>275</ele>
        <time>2018-06-09T09:47:17Z</time>
      </trkpt>
      <trkpt lat="45.98048" lon="4.85179">
        <ele>276</ele>
        <time>2018-06-09T09:47:18Z</time>
      </trkpt>
      <trkpt lat="45.9805" lon="4.85186">
        <ele>276</ele>
        <time>2018-06-09T09:47:19Z</time>
      </trkpt>
      <trkpt lat="45.98052" lon="4.85192">
        <ele>276</ele>
        <time>2018-06-09T09:47:20Z</time>
      </trkpt>
      <trkpt lat="45.98056" lon="4.85203">
        <ele>276</ele>
        <time>2018-06-09T09:47:22Z</time>
      </trkpt>
      <trkpt lat="45.98058" lon="4.85209">
        <ele>276</ele>
        <time>2018-06-09T09:47:23Z</time>
      </trkpt>
      <trkpt lat="45.9806" lon="4.85216">
        <ele>276</ele>
        <time>2018-06-09T09:47:24Z</time>
      </trkpt>
      <trkpt lat="45.98062" lon="4.85222">
        <ele>276</ele>
        <time>2018-06-09T09:47:25Z</time>
      </trkpt>
      <trkpt lat="45.98066" lon="4.85232">
        <ele>276</ele>
        <time>2018-06-09T09:47:27Z</time>
      </trkpt>
      <trkpt lat="45.98069" lon="4.85238">
        <ele>276</ele>
        <time>2018-06-09T09:47:28Z</time>
      </trkpt>
      <trkpt lat="45.98073" lon="4.85249">
        <ele>276</ele>
        <time>2018-06-09T09:47:30Z</time>
      </trkpt>
      <trkpt lat="45.98076" lon="4.85255">
        <ele>276</ele>
        <time>2018-06-09T09:47:31Z</time>
      </trkpt>
      <trkpt lat="45.9808" lon="4.85261">
        <ele>276</ele>
        <time>2018-06-09T09:47:32Z</time>
      </trkpt>
      <trkpt lat="45.98084" lon="4.85267">
        <ele>276</ele>
        <time>2018-06-09T09:47:33Z</time>
      </trkpt>
      <trkpt lat="45.98086" lon="4.85273">
        <ele>276</ele>
        <time>2018-06-09T09:47:34Z</time>
      </trkpt>
      <trkpt lat="45.98089" lon="4.85279">
        <ele>276</ele>
        <time>2018-06-09T09:47:35Z</time>
      </trkpt>
      <trkpt lat="45.98091" lon="4.85285">
        <ele>276</ele>
        <time>2018-06-09T09:47:36Z</time>
      </trkpt>
      <trkpt lat="45.98095" lon="4.85291">
        <ele>276</ele>
        <time>2018-06-09T09:47:37Z</time>
      </trkpt>
      <trkpt lat="45.98098" lon="4.85297">
        <ele>276</ele>
        <time>2018-06-09T09:47:38Z</time>
      </trkpt>
      <trkpt lat="45.98101" lon="4.85304">
        <ele>276</ele>
        <time>2018-06-09T09:47:39Z</time>
      </trkpt>
      <trkpt lat="45.98104" lon="4.85313">
        <ele>276</ele>
        <time>2018-06-09T09:47:40Z</time>
      </trkpt>
      <trkpt lat="45.98107" lon="4.8532">
        <ele>276</ele>
        <time>2018-06-09T09:47:41Z</time>
      </trkpt>
      <trkpt lat="45.9811" lon="4.85327">
        <ele>276</ele>
        <time>2018-06-09T09:47:42Z</time>
      </trkpt>
      <trkpt lat="45.98112" lon="4.85333">
        <ele>276</ele>
        <time>2018-06-09T09:47:43Z</time>
      </trkpt>
      <trkpt lat="45.98115" lon="4.8534">
        <ele>276</ele>
        <time>2018-06-09T09:47:44Z</time>
      </trkpt>
      <trkpt lat="45.98119" lon="4.85345">
        <ele>276</ele>
        <time>2018-06-09T09:47:45Z</time>
      </trkpt>
      <trkpt lat="45.98122" lon="4.85351">
        <ele>276</ele>
        <time>2018-06-09T09:47:46Z</time>
      </trkpt>
      <trkpt lat="45.98124" lon="4.85358">
        <ele>276</ele>
        <time>2018-06-09T09:47:47Z</time>
      </trkpt>
      <trkpt lat="45.98126" lon="4.85364">
        <ele>276</ele>
        <time>2018-06-09T09:47:48Z</time>
      </trkpt>
      <trkpt lat="45.98128" lon="4.85372">
        <ele>276</ele>
        <time>2018-06-09T09:47:49Z</time>
      </trkpt>
      <trkpt lat="45.98132" lon="4.85377">
        <ele>276</ele>
        <time>2018-06-09T09:47:50Z</time>
      </trkpt>
      <trkpt lat="45.98134" lon="4.85384">
        <ele>276</ele>
        <time>2018-06-09T09:47:51Z</time>
      </trkpt>
      <trkpt lat="45.98138" lon="4.85391">
        <ele>276</ele>
        <time>2018-06-09T09:47:52Z</time>
      </trkpt>
      <trkpt lat="45.98139" lon="4.854">
        <ele>276</ele>
        <time>2018-06-09T09:47:53Z</time>
      </trkpt>
      <trkpt lat="45.98143" lon="4.85407">
        <ele>276</ele>
        <time>2018-06-09T09:47:54Z</time>
      </trkpt>
      <trkpt lat="45.98146" lon="4.85414">
        <ele>276</ele>
        <time>2018-06-09T09:47:55Z</time>
      </trkpt>
      <trkpt lat="45.98147" lon="4.85421">
        <ele>276</ele>
        <time>2018-06-09T09:47:56Z</time>
      </trkpt>
      <trkpt lat="45.9815" lon="4.85428">
        <ele>276</ele>
        <time>2018-06-09T09:47:57Z</time>
      </trkpt>
      <trkpt lat="45.98153" lon="4.85434">
        <ele>276</ele>
        <time>2018-06-09T09:47:58Z</time>
      </trkpt>
      <trkpt lat="45.98156" lon="4.85442">
        <ele>276</ele>
        <time>2018-06-09T09:47:59Z</time>
      </trkpt>
      <trkpt lat="45.98158" lon="4.85448">
        <ele>276</ele>
        <time>2018-06-09T09:48:00Z</time>
      </trkpt>
      <trkpt lat="45.9816" lon="4.85454">
        <ele>276</ele>
        <time>2018-06-09T09:48:01Z</time>
      </trkpt>
      <trkpt lat="45.98163" lon="4.85461">
        <ele>275</ele>
        <time>2018-06-09T09:48:02Z</time>
      </trkpt>
      <trkpt lat="45.98166" lon="4.85467">
        <ele>275</ele>
        <time>2018-06-09T09:48:03Z</time>
      </trkpt>
      <trkpt lat="45.98169" lon="4.85473">
        <ele>275</ele>
        <time>2018-06-09T09:48:04Z</time>
      </trkpt>
      <trkpt lat="45.98172" lon="4.85479">
        <ele>275</ele>
        <time>2018-06-09T09:48:05Z</time>
      </trkpt>
      <trkpt lat="45.98175" lon="4.85486">
        <ele>275</ele>
        <time>2018-06-09T09:48:06Z</time>
      </trkpt>
      <trkpt lat="45.98178" lon="4.85492">
        <ele>275</ele>
        <time>2018-06-09T09:48:07Z</time>
      </trkpt>
      <trkpt lat="45.98182" lon="4.85499">
        <ele>275</ele>
        <time>2018-06-09T09:48:08Z</time>
      </trkpt>
      <trkpt lat="45.98184" lon="4.85503">
        <ele>275</ele>
        <time>2018-06-09T09:48:09Z</time>
      </trkpt>
      <trkpt lat="45.98187" lon="4.85508">
        <ele>275</ele>
        <time>2018-06-09T09:48:10Z</time>
      </trkpt>
      <trkpt lat="45.9819" lon="4.85514">
        <ele>275</ele>
        <time>2018-06-09T09:48:11Z</time>
      </trkpt>
      <trkpt lat="45.98194" lon="4.85524">
        <ele>276</ele>
        <time>2018-06-09T09:48:13Z</time>
      </trkpt>
      <trkpt lat="45.98196" lon="4.85529">
        <ele>276</ele>
        <time>2018-06-09T09:48:14Z</time>
      </trkpt>
      <trkpt lat="45.98199" lon="4.85535">
        <ele>276</ele>
        <time>2018-06-09T09:48:15Z</time>
      </trkpt>
      <trkpt lat="45.98201" lon="4.85542">
        <ele>276</ele>
        <time>2018-06-09T09:48:16Z</time>
      </trkpt>
      <trkpt lat="45.98203" lon="4.85549">
        <ele>276</ele>
        <time>2018-06-09T09:48:17Z</time>
      </trkpt>
      <trkpt lat="45.98206" lon="4.85555">
        <ele>276</ele>
        <time>2018-06-09T09:48:18Z</time>
      </trkpt>
      <trkpt lat="45.98209" lon="4.85561">
        <ele>276</ele>
        <time>2018-06-09T09:48:19Z</time>
      </trkpt>
      <trkpt lat="45.98211" lon="4.85567">
        <ele>276</ele>
        <time>2018-06-09T09:48:20Z</time>
      </trkpt>
      <trkpt lat="45.98213" lon="4.85573">
        <ele>276</ele>
        <time>2018-06-09T09:48:21Z</time>
      </trkpt>
      <trkpt lat="45.98216" lon="4.85579">
        <ele>276</ele>
        <time>2018-06-09T09:48:22Z</time>
      </trkpt>
      <trkpt lat="45.98218" lon="4.85587">
        <ele>277</ele>
        <time>2018-06-09T09:48:23Z</time>
      </trkpt>
      <trkpt lat="45.9822" lon="4.85593">
        <ele>277</ele>
        <time>2018-06-09T09:48:24Z</time>
      </trkpt>
      <trkpt lat="45.98222" lon="4.85599">
        <ele>277</ele>
        <time>2018-06-09T09:48:25Z</time>
      </trkpt>
      <trkpt lat="45.98225" lon="4.85605">
        <ele>277</ele>
        <time>2018-06-09T09:48:26Z</time>
      </trkpt>
      <trkpt lat="45.98226" lon="4.8561">
        <ele>277</ele>
        <time>2018-06-09T09:48:27Z</time>
      </trkpt>
      <trkpt lat="45.9823" lon="4.85616">
        <ele>277</ele>
        <time>2018-06-09T09:48:28Z</time>
      </trkpt>
      <trkpt lat="45.98233" lon="4.85622">
        <ele>277</ele>
        <time>2018-06-09T09:48:29Z</time>
      </trkpt>
      <trkpt lat="45.98235" lon="4.85627">
        <ele>277</ele>
        <time>2018-06-09T09:48:30Z</time>
      </trkpt>
      <trkpt lat="45.98238" lon="4.85634">
        <ele>277</ele>
        <time>2018-06-09T09:48:31Z</time>
      </trkpt>
      <trkpt lat="45.9824" lon="4.85639">
        <ele>277</ele>
        <time>2018-06-09T09:48:32Z</time>
      </trkpt>
      <trkpt lat="45.98243" lon="4.85646">
        <ele>276</ele>
        <time>2018-06-09T09:48:33Z</time>
      </trkpt>
      <trkpt lat="45.98245" lon="4.85652">
        <ele>276</ele>
        <time>2018-06-09T09:48:34Z</time>
      </trkpt>
      <trkpt lat="45.98249" lon="4.85663">
        <ele>276</ele>
        <time>2018-06-09T09:48:36Z</time>
      </trkpt>
      <trkpt lat="45.98251" lon="4.85669">
        <ele>276</ele>
        <time>2018-06-09T09:48:37Z</time>
      </trkpt>
      <trkpt lat="45.98253" lon="4.85675">
        <ele>275</ele>
        <time>2018-06-09T09:48:38Z</time>
      </trkpt>
      <trkpt lat="45.98256" lon="4.85681">
        <ele>275</ele>
        <time>2018-06-09T09:48:39Z</time>
      </trkpt>
      <trkpt lat="45.98258" lon="4.85687">
        <ele>275</ele>
        <time>2018-06-09T09:48:40Z</time>
      </trkpt>
      <trkpt lat="45.98261" lon="4.85693">
        <ele>275</ele>
        <time>2018-06-09T09:48:41Z</time>
      </trkpt>
      <trkpt lat="45.98263" lon="4.85699">
        <ele>275</ele>
        <time>2018-06-09T09:48:42Z</time>
      </trkpt>
      <trkpt lat="45.98266" lon="4.85705">
        <ele>275</ele>
        <time>2018-06-09T09:48:43Z</time>
      </trkpt>
      <trkpt lat="45.9827" lon="4.8571">
        <ele>275</ele>
        <time>2018-06-09T09:48:44Z</time>
      </trkpt>
      <trkpt lat="45.98272" lon="4.85716">
        <ele>274</ele>
        <time>2018-06-09T09:48:45Z</time>
      </trkpt>
      <trkpt lat="45.98275" lon="4.85723">
        <ele>274</ele>
        <time>2018-06-09T09:48:46Z</time>
      </trkpt>
      <trkpt lat="45.98276" lon="4.8573">
        <ele>274</ele>
        <time>2018-06-09T09:48:47Z</time>
      </trkpt>
      <trkpt lat="45.9828" lon="4.85736">
        <ele>274</ele>
        <time>2018-06-09T09:48:48Z</time>
      </trkpt>
      <trkpt lat="45.98283" lon="4.85743">
        <ele>274</ele>
        <time>2018-06-09T09:48:49Z</time>
      </trkpt>
      <trkpt lat="45.98285" lon="4.85751">
        <ele>275</ele>
        <time>2018-06-09T09:48:50Z</time>
      </trkpt>
      <trkpt lat="45.98287" lon="4.85757">
        <ele>275</ele>
        <time>2018-06-09T09:48:51Z</time>
      </trkpt>
      <trkpt lat="45.9829" lon="4.85764">
        <ele>275</ele>
        <time>2018-06-09T09:48:52Z</time>
      </trkpt>
      <trkpt lat="45.98294" lon="4.85769">
        <ele>275</ele>
        <time>2018-06-09T09:48:53Z</time>
      </trkpt>
      <trkpt lat="45.98296" lon="4.85776">
        <ele>275</ele>
        <time>2018-06-09T09:48:54Z</time>
      </trkpt>
      <trkpt lat="45.98298" lon="4.85782">
        <ele>275</ele>
        <time>2018-06-09T09:48:55Z</time>
      </trkpt>
      <trkpt lat="45.98299" lon="4.85788">
        <ele>275</ele>
        <time>2018-06-09T09:48:56Z</time>
      </trkpt>
      <trkpt lat="45.98301" lon="4.85795">
        <ele>275</ele>
        <time>2018-06-09T09:48:57Z</time>
      </trkpt>
      <trkpt lat="45.98304" lon="4.85802">
        <ele>275</ele>
        <time>2018-06-09T09:48:58Z</time>
      </trkpt>
      <trkpt lat="45.98307" lon="4.85809">
        <ele>275</ele>
        <time>2018-06-09T09:48:59Z</time>
      </trkpt>
      <trkpt lat="45.98309" lon="4.85815">
        <ele>275</ele>
        <time>2018-06-09T09:49:00Z</time>
      </trkpt>
      <trkpt lat="45.98312" lon="4.85822">
        <ele>275</ele>
        <time>2018-06-09T09:49:01Z</time>
      </trkpt>
      <trkpt lat="45.98315" lon="4.85829">
        <ele>275</ele>
        <time>2018-06-09T09:49:02Z</time>
      </trkpt>
      <trkpt lat="45.98318" lon="4.85836">
        <ele>276</ele>
        <time>2018-06-09T09:49:03Z</time>
      </trkpt>
      <trkpt lat="45.98319" lon="4.85842">
        <ele>276</ele>
        <time>2018-06-09T09:49:04Z</time>
      </trkpt>
      <trkpt lat="45.98322" lon="4.85849">
        <ele>276</ele>
        <time>2018-06-09T09:49:05Z</time>
      </trkpt>
      <trkpt lat="45.98325" lon="4.85856">
        <ele>276</ele>
        <time>2018-06-09T09:49:06Z</time>
      </trkpt>
      <trkpt lat="45.98327" lon="4.85862">
        <ele>276</ele>
        <time>2018-06-09T09:49:07Z</time>
      </trkpt>
      <trkpt lat="45.98326" lon="4.85869">
        <ele>276</ele>
        <time>2018-06-09T09:49:08Z</time>
      </trkpt>
      <trkpt lat="45.98329" lon="4.85875">
        <ele>276</ele>
        <time>2018-06-09T09:49:09Z</time>
      </trkpt>
      <trkpt lat="45.98332" lon="4.85881">
        <ele>276</ele>
        <time>2018-06-09T09:49:10Z</time>
      </trkpt>
      <trkpt lat="45.98335" lon="4.85886">
        <ele>276</ele>
        <time>2018-06-09T09:49:11Z</time>
      </trkpt>
      <trkpt lat="45.98337" lon="4.85893">
        <ele>276</ele>
        <time>2018-06-09T09:49:12Z</time>
      </trkpt>
      <trkpt lat="45.98339" lon="4.85898">
        <ele>276</ele>
        <time>2018-06-09T09:49:13Z</time>
      </trkpt>
      <trkpt lat="45.98341" lon="4.85904">
        <ele>276</ele>
        <time>2018-06-09T09:49:14Z</time>
      </trkpt>
      <trkpt lat="45.98345" lon="4.85911">
        <ele>276</ele>
        <time>2018-06-09T09:49:15Z</time>
      </trkpt>
      <trkpt lat="45.98347" lon="4.85917">
        <ele>276</ele>
        <time>2018-06-09T09:49:16Z</time>
      </trkpt>
      <trkpt lat="45.9835" lon="4.85924">
        <ele>276</ele>
        <time>2018-06-09T09:49:17Z</time>
      </trkpt>
      <trkpt lat="45.98352" lon="4.85931">
        <ele>276</ele>
        <time>2018-06-09T09:49:18Z</time>
      </trkpt>
      <trkpt lat="45.98355" lon="4.85937">
        <ele>276</ele>
        <time>2018-06-09T09:49:19Z</time>
      </trkpt>
      <trkpt lat="45.98357" lon="4.85943">
        <ele>276</ele>
        <time>2018-06-09T09:49:20Z</time>
      </trkpt>
      <trkpt lat="45.98361" lon="4.8595">
        <ele>276</ele>
        <time>2018-06-09T09:49:21Z</time>
      </trkpt>
      <trkpt lat="45.98365" lon="4.85956">
        <ele>276</ele>
        <time>2018-06-09T09:49:22Z</time>
      </trkpt>
      <trkpt lat="45.98365" lon="4.85965">
        <ele>276</ele>
        <time>2018-06-09T09:49:23Z</time>
      </trkpt>
      <trkpt lat="45.98369" lon="4.85971">
        <ele>276</ele>
        <time>2018-06-09T09:49:24Z</time>
      </trkpt>
      <trkpt lat="45.98369" lon="4.85979">
        <ele>276</ele>
        <time>2018-06-09T09:49:25Z</time>
      </trkpt>
      <trkpt lat="45.98375" lon="4.85983">
        <ele>276</ele>
        <time>2018-06-09T09:49:26Z</time>
      </trkpt>
      <trkpt lat="45.98378" lon="4.85991">
        <ele>276</ele>
        <time>2018-06-09T09:49:27Z</time>
      </trkpt>
      <trkpt lat="45.9838" lon="4.85996">
        <ele>277</ele>
        <time>2018-06-09T09:49:28Z</time>
      </trkpt>
      <trkpt lat="45.98382" lon="4.86002">
        <ele>277</ele>
        <time>2018-06-09T09:49:29Z</time>
      </trkpt>
      <trkpt lat="45.98384" lon="4.86008">
        <ele>277</ele>
        <time>2018-06-09T09:49:30Z</time>
      </trkpt>
      <trkpt lat="45.98385" lon="4.86015">
        <ele>277</ele>
        <time>2018-06-09T09:49:31Z</time>
      </trkpt>
      <trkpt lat="45.98387" lon="4.86022">
        <ele>277</ele>
        <time>2018-06-09T09:49:32Z</time>
      </trkpt>
      <trkpt lat="45.9839" lon="4.8603">
        <ele>277</ele>
        <time>2018-06-09T09:49:33Z</time>
      </trkpt>
      <trkpt lat="45.98393" lon="4.86036">
        <ele>277</ele>
        <time>2018-06-09T09:49:34Z</time>
      </trkpt>
      <trkpt lat="45.98395" lon="4.86041">
        <ele>277</ele>
        <time>2018-06-09T09:49:35Z</time>
      </trkpt>
      <trkpt lat="45.98396" lon="4.86047">
        <ele>277</ele>
        <time>2018-06-09T09:49:36Z</time>
      </trkpt>
      <trkpt lat="45.984" lon="4.86052">
        <ele>277</ele>
        <time>2018-06-09T09:49:37Z</time>
      </trkpt>
      <trkpt lat="45.98402" lon="4.86059">
        <ele>277</ele>
        <time>2018-06-09T09:49:38Z</time>
      </trkpt>
      <trkpt lat="45.98404" lon="4.86065">
        <ele>277</ele>
        <time>2018-06-09T09:49:39Z</time>
      </trkpt>
      <trkpt lat="45.98406" lon="4.86077">
        <ele>277</ele>
        <time>2018-06-09T09:49:41Z</time>
      </trkpt>
      <trkpt lat="45.98408" lon="4.86082">
        <ele>277</ele>
        <time>2018-06-09T09:49:42Z</time>
      </trkpt>
      <trkpt lat="45.98411" lon="4.86093">
        <ele>277</ele>
        <time>2018-06-09T09:49:44Z</time>
      </trkpt>
      <trkpt lat="45.98412" lon="4.86095">
        <ele>277</ele>
        <time>2018-06-09T09:49:45Z</time>
      </trkpt>
      <trkpt lat="45.98414" lon="4.86105">
        <ele>277</ele>
        <time>2018-06-09T09:49:48Z</time>
      </trkpt>
      <trkpt lat="45.98415" lon="4.86109">
        <ele>277</ele>
        <time>2018-06-09T09:49:49Z</time>
      </trkpt>
      <trkpt lat="45.98416" lon="4.86121">
        <ele>277</ele>
        <time>2018-06-09T09:49:52Z</time>
      </trkpt>
      <trkpt lat="45.98417" lon="4.86126">
        <ele>276</ele>
        <time>2018-06-09T09:49:53Z</time>
      </trkpt>
      <trkpt lat="45.98419" lon="4.86136">
        <ele>276</ele>
        <time>2018-06-09T09:49:55Z</time>
      </trkpt>
      <trkpt lat="45.9842" lon="4.86141">
        <ele>276</ele>
        <time>2018-06-09T09:49:56Z</time>
      </trkpt>
      <trkpt lat="45.98421" lon="4.86146">
        <ele>276</ele>
        <time>2018-06-09T09:49:57Z</time>
      </trkpt>
      <trkpt lat="45.98424" lon="4.8616">
        <ele>276</ele>
        <time>2018-06-09T09:49:58Z</time>
      </trkpt>
      <trkpt lat="45.98426" lon="4.86171">
        <ele>276</ele>
        <time>2018-06-09T09:50:00Z</time>
      </trkpt>
      <trkpt lat="45.98426" lon="4.86177">
        <ele>275</ele>
        <time>2018-06-09T09:50:01Z</time>
      </trkpt>
      <trkpt lat="45.98428" lon="4.86188">
        <ele>275</ele>
        <time>2018-06-09T09:50:03Z</time>
      </trkpt>
      <trkpt lat="45.98429" lon="4.86194">
        <ele>275</ele>
        <time>2018-06-09T09:50:04Z</time>
      </trkpt>
      <trkpt lat="45.9843" lon="4.86206">
        <ele>275</ele>
        <time>2018-06-09T09:50:06Z</time>
      </trkpt>
      <trkpt lat="45.98431" lon="4.86211">
        <ele>275</ele>
        <time>2018-06-09T09:50:07Z</time>
      </trkpt>
      <trkpt lat="45.98432" lon="4.86218">
        <ele>275</ele>
        <time>2018-06-09T09:50:08Z</time>
      </trkpt>
      <trkpt lat="45.98433" lon="4.86225">
        <ele>275</ele>
        <time>2018-06-09T09:50:09Z</time>
      </trkpt>
      <trkpt lat="45.98434" lon="4.86231">
        <ele>275</ele>
        <time>2018-06-09T09:50:10Z</time>
      </trkpt>
      <trkpt lat="45.98435" lon="4.86239">
        <ele>275</ele>
        <time>2018-06-09T09:50:11Z</time>
      </trkpt>
      <trkpt lat="45.98437" lon="4.86247">
        <ele>275</ele>
        <time>2018-06-09T09:50:12Z</time>
      </trkpt>
      <trkpt lat="45.98438" lon="4.86255">
        <ele>275</ele>
        <time>2018-06-09T09:50:13Z</time>
      </trkpt>
      <trkpt lat="45.98439" lon="4.86263">
        <ele>275</ele>
        <time>2018-06-09T09:50:14Z</time>
      </trkpt>
      <trkpt lat="45.9844" lon="4.86271">
        <ele>276</ele>
        <time>2018-06-09T09:50:15Z</time>
      </trkpt>
      <trkpt lat="45.98441" lon="4.8628">
        <ele>276</ele>
        <time>2018-06-09T09:50:16Z</time>
      </trkpt>
      <trkpt lat="45.98443" lon="4.86291">
        <ele>276</ele>
        <time>2018-06-09T09:50:17Z</time>
      </trkpt>
      <trkpt lat="45.98446" lon="4.86301">
        <ele>276</ele>
        <time>2018-06-09T09:50:18Z</time>
      </trkpt>
      <trkpt lat="45.98449" lon="4.86313">
        <ele>276</ele>
        <time>2018-06-09T09:50:19Z</time>
      </trkpt>
      <trkpt lat="45.98453" lon="4.86323">
        <ele>276</ele>
        <time>2018-06-09T09:50:20Z</time>
      </trkpt>
      <trkpt lat="45.98455" lon="4.86332">
        <ele>276</ele>
        <time>2018-06-09T09:50:21Z</time>
      </trkpt>
      <trkpt lat="45.98458" lon="4.86343">
        <ele>277</ele>
        <time>2018-06-09T09:50:22Z</time>
      </trkpt>
      <trkpt lat="45.98461" lon="4.86351">
        <ele>277</ele>
        <time>2018-06-09T09:50:23Z</time>
      </trkpt>
      <trkpt lat="45.98464" lon="4.8636">
        <ele>277</ele>
        <time>2018-06-09T09:50:24Z</time>
      </trkpt>
      <trkpt lat="45.98466" lon="4.86369">
        <ele>277</ele>
        <time>2018-06-09T09:50:25Z</time>
      </trkpt>
      <trkpt lat="45.98469" lon="4.86377">
        <ele>277</ele>
        <time>2018-06-09T09:50:26Z</time>
      </trkpt>
      <trkpt lat="45.98472" lon="4.86385">
        <ele>277</ele>
        <time>2018-06-09T09:50:27Z</time>
      </trkpt>
      <trkpt lat="45.98475" lon="4.86394">
        <ele>277</ele>
        <time>2018-06-09T09:50:28Z</time>
      </trkpt>
      <trkpt lat="45.98479" lon="4.86401">
        <ele>277</ele>
        <time>2018-06-09T09:50:29Z</time>
      </trkpt>
      <trkpt lat="45.98483" lon="4.8641">
        <ele>277</ele>
        <time>2018-06-09T09:50:30Z</time>
      </trkpt>
      <trkpt lat="45.98485" lon="4.86417">
        <ele>278</ele>
        <time>2018-06-09T09:50:31Z</time>
      </trkpt>
      <trkpt lat="45.98488" lon="4.86424">
        <ele>278</ele>
        <time>2018-06-09T09:50:32Z</time>
      </trkpt>
      <trkpt lat="45.98491" lon="4.8643">
        <ele>278</ele>
        <time>2018-06-09T09:50:33Z</time>
      </trkpt>
      <trkpt lat="45.98494" lon="4.86437">
        <ele>278</ele>
        <time>2018-06-09T09:50:34Z</time>
      </trkpt>
      <trkpt lat="45.98497" lon="4.86444">
        <ele>278</ele>
        <time>2018-06-09T09:50:35Z</time>
      </trkpt>
      <trkpt lat="45.98497" lon="4.86452">
        <ele>278</ele>
        <time>2018-06-09T09:50:36Z</time>
      </trkpt>
      <trkpt lat="45.98501" lon="4.86458">
        <ele>278</ele>
        <time>2018-06-09T09:50:37Z</time>
      </trkpt>
      <trkpt lat="45.98504" lon="4.86463">
        <ele>278</ele>
        <time>2018-06-09T09:50:38Z</time>
      </trkpt>
      <trkpt lat="45.98507" lon="4.86469">
        <ele>278</ele>
        <time>2018-06-09T09:50:39Z</time>
      </trkpt>
      <trkpt lat="45.98509" lon="4.86478">
        <ele>278</ele>
        <time>2018-06-09T09:50:40Z</time>
      </trkpt>
      <trkpt lat="45.98514" lon="4.86485">
        <ele>278</ele>
        <time>2018-06-09T09:50:41Z</time>
      </trkpt>
      <trkpt lat="45.98518" lon="4.86491">
        <ele>278</ele>
        <time>2018-06-09T09:50:42Z</time>
      </trkpt>
      <trkpt lat="45.9852" lon="4.86499">
        <ele>278</ele>
        <time>2018-06-09T09:50:43Z</time>
      </trkpt>
      <trkpt lat="45.98524" lon="4.86504">
        <ele>279</ele>
        <time>2018-06-09T09:50:44Z</time>
      </trkpt>
      <trkpt lat="45.98526" lon="4.86512">
        <ele>279</ele>
        <time>2018-06-09T09:50:45Z</time>
      </trkpt>
      <trkpt lat="45.9853" lon="4.86518">
        <ele>278</ele>
        <time>2018-06-09T09:50:46Z</time>
      </trkpt>
      <trkpt lat="45.98533" lon="4.86524">
        <ele>278</ele>
        <time>2018-06-09T09:50:47Z</time>
      </trkpt>
      <trkpt lat="45.98537" lon="4.86531">
        <ele>278</ele>
        <time>2018-06-09T09:50:48Z</time>
      </trkpt>
      <trkpt lat="45.98541" lon="4.86536">
        <ele>278</ele>
        <time>2018-06-09T09:50:49Z</time>
      </trkpt>
      <trkpt lat="45.98544" lon="4.86542">
        <ele>278</ele>
        <time>2018-06-09T09:50:50Z</time>
      </trkpt>
      <trkpt lat="45.98546" lon="4.8655">
        <ele>278</ele>
        <time>2018-06-09T09:50:51Z</time>
      </trkpt>
      <trkpt lat="45.98547" lon="4.86558">
        <ele>278</ele>
        <time>2018-06-09T09:50:52Z</time>
      </trkpt>
      <trkpt lat="45.98551" lon="4.86563">
        <ele>278</ele>
        <time>2018-06-09T09:50:53Z</time>
      </trkpt>
      <trkpt lat="45.98553" lon="4.8657">
        <ele>278</ele>
        <time>2018-06-09T09:50:54Z</time>
      </trkpt>
      <trkpt lat="45.98557" lon="4.86579">
        <ele>278</ele>
        <time>2018-06-09T09:50:55Z</time>
      </trkpt>
      <trkpt lat="45.98559" lon="4.86586">
        <ele>278</ele>
        <time>2018-06-09T09:50:56Z</time>
      </trkpt>
      <trkpt lat="45.9856" lon="4.86594">
        <ele>278</ele>
        <time>2018-06-09T09:50:57Z</time>
      </trkpt>
      <trkpt lat="45.98562" lon="4.86602">
        <ele>278</ele>
        <time>2018-06-09T09:50:58Z</time>
      </trkpt>
      <trkpt lat="45.98563" lon="4.86608">
        <ele>278</ele>
        <time>2018-06-09T09:50:59Z</time>
      </trkpt>
      <trkpt lat="45.98565" lon="4.86616">
        <ele>278</ele>
        <time>2018-06-09T09:51:00Z</time>
      </trkpt>
      <trkpt lat="45.98568" lon="4.86625">
        <ele>277</ele>
        <time>2018-06-09T09:51:01Z</time>
      </trkpt>
      <trkpt lat="45.98569" lon="4.86632">
        <ele>277</ele>
        <time>2018-06-09T09:51:02Z</time>
      </trkpt>
      <trkpt lat="45.9857" lon="4.86639">
        <ele>277</ele>
        <time>2018-06-09T09:51:03Z</time>
      </trkpt>
      <trkpt lat="45.98572" lon="4.86649">
        <ele>277</ele>
        <time>2018-06-09T09:51:04Z</time>
      </trkpt>
      <trkpt lat="45.98572" lon="4.8666">
        <ele>276</ele>
        <time>2018-06-09T09:51:05Z</time>
      </trkpt>
      <trkpt lat="45.98573" lon="4.86669">
        <ele>276</ele>
        <time>2018-06-09T09:51:06Z</time>
      </trkpt>
      <trkpt lat="45.98573" lon="4.86678">
        <ele>276</ele>
        <time>2018-06-09T09:51:07Z</time>
      </trkpt>
      <trkpt lat="45.98573" lon="4.86686">
        <ele>276</ele>
        <time>2018-06-09T09:51:08Z</time>
      </trkpt>
      <trkpt lat="45.98574" lon="4.86694">
        <ele>277</ele>
        <time>2018-06-09T09:51:09Z</time>
      </trkpt>
      <trkpt lat="45.98575" lon="4.86702">
        <ele>277</ele>
        <time>2018-06-09T09:51:10Z</time>
      </trkpt>
      <trkpt lat="45.98577" lon="4.8671">
        <ele>277</ele>
        <time>2018-06-09T09:51:11Z</time>
      </trkpt>
      <trkpt lat="45.98576" lon="4.86718">
        <ele>277</ele>
        <time>2018-06-09T09:51:12Z</time>
      </trkpt>
      <trkpt lat="45.98576" lon="4.86726">
        <ele>277</ele>
        <time>2018-06-09T09:51:13Z</time>
      </trkpt>
      <trkpt lat="45.98576" lon="4.86735">
        <ele>277</ele>
        <time>2018-06-09T09:51:14Z</time>
      </trkpt>
      <trkpt lat="45.98575" lon="4.86741">
        <ele>277</ele>
        <time>2018-06-09T09:51:15Z</time>
      </trkpt>
      <trkpt lat="45.98577" lon="4.86748">
        <ele>276</ele>
        <time>2018-06-09T09:51:16Z</time>
      </trkpt>
      <trkpt lat="45.98578" lon="4.86755">
        <ele>276</ele>
        <time>2018-06-09T09:51:17Z</time>
      </trkpt>
      <trkpt lat="45.98579" lon="4.86761">
        <ele>277</ele>
        <time>2018-06-09T09:51:18Z</time>
      </trkpt>
      <trkpt lat="45.9858" lon="4.86768">
        <ele>277</ele>
        <time>2018-06-09T09:51:19Z</time>
      </trkpt>
      <trkpt lat="45.98581" lon="4.86775">
        <ele>277</ele>
        <time>2018-06-09T09:51:20Z</time>
      </trkpt>
      <trkpt lat="45.98583" lon="4.86782">
        <ele>277</ele>
        <time>2018-06-09T09:51:21Z</time>
      </trkpt>
      <trkpt lat="45.98585" lon="4.86788">
        <ele>276</ele>
        <time>2018-06-09T09:51:22Z</time>
      </trkpt>
      <trkpt lat="45.98587" lon="4.86796">
        <ele>276</ele>
        <time>2018-06-09T09:51:23Z</time>
      </trkpt>
      <trkpt lat="45.98586" lon="4.86806">
        <ele>276</ele>
        <time>2018-06-09T09:51:24Z</time>
      </trkpt>
      <trkpt lat="45.98587" lon="4.86816">
        <ele>276</ele>
        <time>2018-06-09T09:51:25Z</time>
      </trkpt>
      <trkpt lat="45.98589" lon="4.86826">
        <ele>277</ele>
        <time>2018-06-09T09:51:26Z</time>
      </trkpt>
      <trkpt lat="45.9859" lon="4.86834">
        <ele>277</ele>
        <time>2018-06-09T09:51:27Z</time>
      </trkpt>
      <trkpt lat="45.98592" lon="4.8684">
        <ele>277</ele>
        <time>2018-06-09T09:51:28Z</time>
      </trkpt>
      <trkpt lat="45.98592" lon="4.86848">
        <ele>277</ele>
        <time>2018-06-09T09:51:29Z</time>
      </trkpt>
      <trkpt lat="45.98592" lon="4.86856">
        <ele>277</ele>
        <time>2018-06-09T09:51:30Z</time>
      </trkpt>
      <trkpt lat="45.98592" lon="4.86863">
        <ele>277</ele>
        <time>2018-06-09T09:51:31Z</time>
      </trkpt>
      <trkpt lat="45.98591" lon="4.86871">
        <ele>277</ele>
        <time>2018-06-09T09:51:32Z</time>
      </trkpt>
      <trkpt lat="45.9859" lon="4.8688">
        <ele>277</ele>
        <time>2018-06-09T09:51:33Z</time>
      </trkpt>
      <trkpt lat="45.9859" lon="4.86888">
        <ele>278</ele>
        <time>2018-06-09T09:51:34Z</time>
      </trkpt>
      <trkpt lat="45.98589" lon="4.869">
        <ele>278</ele>
        <time>2018-06-09T09:51:35Z</time>
      </trkpt>
      <trkpt lat="45.98587" lon="4.86908">
        <ele>278</ele>
        <time>2018-06-09T09:51:36Z</time>
      </trkpt>
      <trkpt lat="45.98586" lon="4.86914">
        <ele>279</ele>
        <time>2018-06-09T09:51:37Z</time>
      </trkpt>
      <trkpt lat="45.98586" lon="4.86921">
        <ele>279</ele>
        <time>2018-06-09T09:51:38Z</time>
      </trkpt>
      <trkpt lat="45.98586" lon="4.86928">
        <ele>279</ele>
        <time>2018-06-09T09:51:39Z</time>
      </trkpt>
      <trkpt lat="45.98586" lon="4.86936">
        <ele>279</ele>
        <time>2018-06-09T09:51:40Z</time>
      </trkpt>
      <trkpt lat="45.98585" lon="4.86945">
        <ele>279</ele>
        <time>2018-06-09T09:51:41Z</time>
      </trkpt>
      <trkpt lat="45.98586" lon="4.86954">
        <ele>279</ele>
        <time>2018-06-09T09:51:42Z</time>
      </trkpt>
      <trkpt lat="45.98586" lon="4.86961">
        <ele>279</ele>
        <time>2018-06-09T09:51:43Z</time>
      </trkpt>
      <trkpt lat="45.98587" lon="4.86969">
        <ele>279</ele>
        <time>2018-06-09T09:51:44Z</time>
      </trkpt>
      <trkpt lat="45.98587" lon="4.86979">
        <ele>279</ele>
        <time>2018-06-09T09:51:45Z</time>
      </trkpt>
      <trkpt lat="45.98589" lon="4.86988">
        <ele>279</ele>
        <time>2018-06-09T09:51:46Z</time>
      </trkpt>
      <trkpt lat="45.9859" lon="4.86996">
        <ele>279</ele>
        <time>2018-06-09T09:51:47Z</time>
      </trkpt>
      <trkpt lat="45.98591" lon="4.87007">
        <ele>279</ele>
        <time>2018-06-09T09:51:48Z</time>
      </trkpt>
      <trkpt lat="45.98592" lon="4.87017">
        <ele>279</ele>
        <time>2018-06-09T09:51:49Z</time>
      </trkpt>
      <trkpt lat="45.98594" lon="4.87028">
        <ele>279</ele>
        <time>2018-06-09T09:51:50Z</time>
      </trkpt>
      <trkpt lat="45.98595" lon="4.87037">
        <ele>279</ele>
        <time>2018-06-09T09:51:51Z</time>
      </trkpt>
      <trkpt lat="45.98596" lon="4.87045">
        <ele>279</ele>
        <time>2018-06-09T09:51:52Z</time>
      </trkpt>
      <trkpt lat="45.98598" lon="4.87054">
        <ele>279</ele>
        <time>2018-06-09T09:51:53Z</time>
      </trkpt>
      <trkpt lat="45.986" lon="4.87064">
        <ele>279</ele>
        <time>2018-06-09T09:51:54Z</time>
      </trkpt>
      <trkpt lat="45.98602" lon="4.87072">
        <ele>279</ele>
        <time>2018-06-09T09:51:55Z</time>
      </trkpt>
      <trkpt lat="45.98603" lon="4.87081">
        <ele>279</ele>
        <time>2018-06-09T09:51:56Z</time>
      </trkpt>
      <trkpt lat="45.98606" lon="4.87089">
        <ele>279</ele>
        <time>2018-06-09T09:51:57Z</time>
      </trkpt>
      <trkpt lat="45.98606" lon="4.87097">
        <ele>279</ele>
        <time>2018-06-09T09:51:58Z</time>
      </trkpt>
      <trkpt lat="45.98608" lon="4.87107">
        <ele>279</ele>
        <time>2018-06-09T09:51:59Z</time>
      </trkpt>
      <trkpt lat="45.98609" lon="4.87116">
        <ele>279</ele>
        <time>2018-06-09T09:52:00Z</time>
      </trkpt>
      <trkpt lat="45.98612" lon="4.87123">
        <ele>279</ele>
        <time>2018-06-09T09:52:01Z</time>
      </trkpt>
      <trkpt lat="45.98613" lon="4.87131">
        <ele>279</ele>
        <time>2018-06-09T09:52:02Z</time>
      </trkpt>
      <trkpt lat="45.98614" lon="4.87139">
        <ele>279</ele>
        <time>2018-06-09T09:52:03Z</time>
      </trkpt>
      <trkpt lat="45.98614" lon="4.87148">
        <ele>278</ele>
        <time>2018-06-09T09:52:04Z</time>
      </trkpt>
      <trkpt lat="45.98615" lon="4.87158">
        <ele>278</ele>
        <time>2018-06-09T09:52:05Z</time>
      </trkpt>
      <trkpt lat="45.98615" lon="4.87168">
        <ele>278</ele>
        <time>2018-06-09T09:52:07Z</time>
      </trkpt>
      <trkpt lat="45.98614" lon="4.87176">
        <ele>278</ele>
        <time>2018-06-09T09:52:08Z</time>
      </trkpt>
      <trkpt lat="45.98613" lon="4.87185">
        <ele>278</ele>
        <time>2018-06-09T09:52:09Z</time>
      </trkpt>
      <trkpt lat="45.9861" lon="4.87193">
        <ele>277</ele>
        <time>2018-06-09T09:52:10Z</time>
      </trkpt>
      <trkpt lat="45.98607" lon="4.872">
        <ele>277</ele>
        <time>2018-06-09T09:52:11Z</time>
      </trkpt>
      <trkpt lat="45.98605" lon="4.87205">
        <ele>277</ele>
        <time>2018-06-09T09:52:12Z</time>
      </trkpt>
      <trkpt lat="45.98604" lon="4.87211">
        <ele>277</ele>
        <time>2018-06-09T09:52:13Z</time>
      </trkpt>
      <trkpt lat="45.9861" lon="4.87224">
        <ele>277</ele>
        <time>2018-06-09T09:52:14Z</time>
      </trkpt>
      <trkpt lat="45.98607" lon="4.87231">
        <ele>277</ele>
        <time>2018-06-09T09:52:15Z</time>
      </trkpt>
      <trkpt lat="45.98604" lon="4.8724">
        <ele>277</ele>
        <time>2018-06-09T09:52:16Z</time>
      </trkpt>
      <trkpt lat="45.98604" lon="4.87249">
        <ele>277</ele>
        <time>2018-06-09T09:52:17Z</time>
      </trkpt>
      <trkpt lat="45.98602" lon="4.87255">
        <ele>275</ele>
        <time>2018-06-09T09:52:18Z</time>
      </trkpt>
      <trkpt lat="45.98604" lon="4.87265">
        <ele>275</ele>
        <time>2018-06-09T09:52:19Z</time>
      </trkpt>
      <trkpt lat="45.98601" lon="4.87277">
        <ele>275</ele>
        <time>2018-06-09T09:52:20Z</time>
      </trkpt>
      <trkpt lat="45.98605" lon="4.87288">
        <ele>275</ele>
        <time>2018-06-09T09:52:21Z</time>
      </trkpt>
      <trkpt lat="45.98603" lon="4.87297">
        <ele>275</ele>
        <time>2018-06-09T09:52:22Z</time>
      </trkpt>
      <trkpt lat="45.98601" lon="4.87304">
        <ele>274</ele>
        <time>2018-06-09T09:52:23Z</time>
      </trkpt>
      <trkpt lat="45.98602" lon="4.87314">
        <ele>274</ele>
        <time>2018-06-09T09:52:24Z</time>
      </trkpt>
      <trkpt lat="45.98603" lon="4.87323">
        <ele>274</ele>
        <time>2018-06-09T09:52:25Z</time>
      </trkpt>
      <trkpt lat="45.98603" lon="4.87331">
        <ele>274</ele>
        <time>2018-06-09T09:52:26Z</time>
      </trkpt>
      <trkpt lat="45.98605" lon="4.8734">
        <ele>272</ele>
        <time>2018-06-09T09:52:27Z</time>
      </trkpt>
      <trkpt lat="45.98606" lon="4.87347">
        <ele>272</ele>
        <time>2018-06-09T09:52:28Z</time>
      </trkpt>
      <trkpt lat="45.98609" lon="4.87358">
        <ele>272</ele>
        <time>2018-06-09T09:52:29Z</time>
      </trkpt>
      <trkpt lat="45.98609" lon="4.87367">
        <ele>272</ele>
        <time>2018-06-09T09:52:30Z</time>
      </trkpt>
      <trkpt lat="45.98612" lon="4.87378">
        <ele>271</ele>
        <time>2018-06-09T09:52:31Z</time>
      </trkpt>
      <trkpt lat="45.98614" lon="4.87388">
        <ele>271</ele>
        <time>2018-06-09T09:52:32Z</time>
      </trkpt>
      <trkpt lat="45.98616" lon="4.874">
        <ele>271</ele>
        <time>2018-06-09T09:52:33Z</time>
      </trkpt>
      <trkpt lat="45.98618" lon="4.87409">
        <ele>271</ele>
        <time>2018-06-09T09:52:34Z</time>
      </trkpt>
      <trkpt lat="45.98622" lon="4.87422">
        <ele>269</ele>
        <time>2018-06-09T09:52:35Z</time>
      </trkpt>
      <trkpt lat="45.98623" lon="4.87432">
        <ele>269</ele>
        <time>2018-06-09T09:52:36Z</time>
      </trkpt>
      <trkpt lat="45.98626" lon="4.87442">
        <ele>268</ele>
        <time>2018-06-09T09:52:37Z</time>
      </trkpt>
      <trkpt lat="45.98628" lon="4.87452">
        <ele>268</ele>
        <time>2018-06-09T09:52:38Z</time>
      </trkpt>
      <trkpt lat="45.9863" lon="4.87462">
        <ele>268</ele>
        <time>2018-06-09T09:52:39Z</time>
      </trkpt>
      <trkpt lat="45.98631" lon="4.87472">
        <ele>268</ele>
        <time>2018-06-09T09:52:40Z</time>
      </trkpt>
      <trkpt lat="45.98634" lon="4.87484">
        <ele>268</ele>
        <time>2018-06-09T09:52:41Z</time>
      </trkpt>
      <trkpt lat="45.98636" lon="4.87493">
        <ele>267</ele>
        <time>2018-06-09T09:52:42Z</time>
      </trkpt>
      <trkpt lat="45.98638" lon="4.87505">
        <ele>267</ele>
        <time>2018-06-09T09:52:43Z</time>
      </trkpt>
      <trkpt lat="45.9864" lon="4.87515">
        <ele>267</ele>
        <time>2018-06-09T09:52:44Z</time>
      </trkpt>
      <trkpt lat="45.98642" lon="4.87525">
        <ele>267</ele>
        <time>2018-06-09T09:52:45Z</time>
      </trkpt>
      <trkpt lat="45.98644" lon="4.87534">
        <ele>267</ele>
        <time>2018-06-09T09:52:46Z</time>
      </trkpt>
      <trkpt lat="45.98646" lon="4.87543">
        <ele>267</ele>
        <time>2018-06-09T09:52:47Z</time>
      </trkpt>
      <trkpt lat="45.98649" lon="4.87552">
        <ele>267</ele>
        <time>2018-06-09T09:52:48Z</time>
      </trkpt>
      <trkpt lat="45.98653" lon="4.8756">
        <ele>267</ele>
        <time>2018-06-09T09:52:49Z</time>
      </trkpt>
      <trkpt lat="45.98659" lon="4.87566">
        <ele>267</ele>
        <time>2018-06-09T09:52:50Z</time>
      </trkpt>
      <trkpt lat="45.98664" lon="4.87573">
        <ele>267</ele>
        <time>2018-06-09T09:52:51Z</time>
      </trkpt>
      <trkpt lat="45.98671" lon="4.87571">
        <ele>267</ele>
        <time>2018-06-09T09:52:52Z</time>
      </trkpt>
      <trkpt lat="45.98677" lon="4.87571">
        <ele>267</ele>
        <time>2018-06-09T09:52:53Z</time>
      </trkpt>
      <trkpt lat="45.98683" lon="4.87569">
        <ele>267</ele>
        <time>2018-06-09T09:52:54Z</time>
      </trkpt>
      <trkpt lat="45.98687" lon="4.87569">
        <ele>267</ele>
        <time>2018-06-09T09:52:55Z</time>
      </trkpt>
      <trkpt lat="45.98692" lon="4.87569">
        <ele>267</ele>
        <time>2018-06-09T09:52:56Z</time>
      </trkpt>
      <trkpt lat="45.98697" lon="4.87568">
        <ele>267</ele>
        <time>2018-06-09T09:52:57Z</time>
      </trkpt>
      <trkpt lat="45.98704" lon="4.87564">
        <ele>267</ele>
        <time>2018-06-09T09:52:58Z</time>
      </trkpt>
      <trkpt lat="45.98707" lon="4.87563">
        <ele>267</ele>
        <time>2018-06-09T09:52:59Z</time>
      </trkpt>
      <trkpt lat="45.98714" lon="4.87564">
        <ele>267</ele>
        <time>2018-06-09T09:53:01Z</time>
      </trkpt>
      <trkpt lat="45.98718" lon="4.87563">
        <ele>267</ele>
        <time>2018-06-09T09:53:02Z</time>
      </trkpt>
      <trkpt lat="45.9872" lon="4.87563">
        <ele>267</ele>
        <time>2018-06-09T09:53:03Z</time>
      </trkpt>
      <trkpt lat="45.98727" lon="4.87563">
        <ele>267</ele>
        <time>2018-06-09T09:53:04Z</time>
      </trkpt>
      <trkpt lat="45.98729" lon="4.87562">
        <ele>267</ele>
        <time>2018-06-09T09:53:05Z</time>
      </trkpt>
      <trkpt lat="45.98738" lon="4.87561">
        <ele>267</ele>
        <time>2018-06-09T09:53:06Z</time>
      </trkpt>
      <trkpt lat="45.98743" lon="4.8756">
        <ele>267</ele>
        <time>2018-06-09T09:53:07Z</time>
      </trkpt>
      <trkpt lat="45.98749" lon="4.87562">
        <ele>267</ele>
        <time>2018-06-09T09:53:08Z</time>
      </trkpt>
      <trkpt lat="45.98754" lon="4.87566">
        <ele>269</ele>
        <time>2018-06-09T09:53:09Z</time>
      </trkpt>
      <trkpt lat="45.98759" lon="4.87568">
        <ele>269</ele>
        <time>2018-06-09T09:53:10Z</time>
      </trkpt>
      <trkpt lat="45.98763" lon="4.87572">
        <ele>269</ele>
        <time>2018-06-09T09:53:11Z</time>
      </trkpt>
      <trkpt lat="45.98767" lon="4.87574">
        <ele>269</ele>
        <time>2018-06-09T09:53:12Z</time>
      </trkpt>
      <trkpt lat="45.98775" lon="4.87581">
        <ele>269</ele>
        <time>2018-06-09T09:53:14Z</time>
      </trkpt>
      <trkpt lat="45.98778" lon="4.87584">
        <ele>270</ele>
        <time>2018-06-09T09:53:15Z</time>
      </trkpt>
      <trkpt lat="45.98785" lon="4.87586">
        <ele>271</ele>
        <time>2018-06-09T09:53:16Z</time>
      </trkpt>
      <trkpt lat="45.9879" lon="4.87589">
        <ele>271</ele>
        <time>2018-06-09T09:53:17Z</time>
      </trkpt>
      <trkpt lat="45.98796" lon="4.87599">
        <ele>271</ele>
        <time>2018-06-09T09:53:19Z</time>
      </trkpt>
      <trkpt lat="45.988" lon="4.87604">
        <ele>271</ele>
        <time>2018-06-09T09:53:20Z</time>
      </trkpt>
      <trkpt lat="45.98804" lon="4.87612">
        <ele>271</ele>
        <time>2018-06-09T09:53:22Z</time>
      </trkpt>
      <trkpt lat="45.98808" lon="4.8762">
        <ele>271</ele>
        <time>2018-06-09T09:53:23Z</time>
      </trkpt>
      <trkpt lat="45.98812" lon="4.87627">
        <ele>271</ele>
        <time>2018-06-09T09:53:25Z</time>
      </trkpt>
      <trkpt lat="45.98815" lon="4.87636">
        <ele>272</ele>
        <time>2018-06-09T09:53:26Z</time>
      </trkpt>
      <trkpt lat="45.98815" lon="4.87638">
        <ele>272</ele>
        <time>2018-06-09T09:53:27Z</time>
      </trkpt>
      <trkpt lat="45.98817" lon="4.87649">
        <ele>272</ele>
        <time>2018-06-09T09:53:28Z</time>
      </trkpt>
      <trkpt lat="45.98819" lon="4.87658">
        <ele>272</ele>
        <time>2018-06-09T09:53:29Z</time>
      </trkpt>
      <trkpt lat="45.98821" lon="4.87662">
        <ele>272</ele>
        <time>2018-06-09T09:53:30Z</time>
      </trkpt>
      <trkpt lat="45.98823" lon="4.87667">
        <ele>273</ele>
        <time>2018-06-09T09:53:31Z</time>
      </trkpt>
      <trkpt lat="45.98824" lon="4.87674">
        <ele>273</ele>
        <time>2018-06-09T09:53:32Z</time>
      </trkpt>
      <trkpt lat="45.98828" lon="4.87683">
        <ele>273</ele>
        <time>2018-06-09T09:53:34Z</time>
      </trkpt>
      <trkpt lat="45.98829" lon="4.87694">
        <ele>273</ele>
        <time>2018-06-09T09:53:35Z</time>
      </trkpt>
      <trkpt lat="45.9883" lon="4.87701">
        <ele>273</ele>
        <time>2018-06-09T09:53:36Z</time>
      </trkpt>
      <trkpt lat="45.98832" lon="4.8771">
        <ele>273</ele>
        <time>2018-06-09T09:53:37Z</time>
      </trkpt>
      <trkpt lat="45.98834" lon="4.87717">
        <ele>273</ele>
        <time>2018-06-09T09:53:38Z</time>
      </trkpt>
      <trkpt lat="45.98834" lon="4.87724">
        <ele>273</ele>
        <time>2018-06-09T09:53:39Z</time>
      </trkpt>
      <trkpt lat="45.98836" lon="4.8773">
        <ele>273</ele>
        <time>2018-06-09T09:53:40Z</time>
      </trkpt>
      <trkpt lat="45.9884" lon="4.87738">
        <ele>273</ele>
        <time>2018-06-09T09:53:41Z</time>
      </trkpt>
      <trkpt lat="45.98841" lon="4.87745">
        <ele>273</ele>
        <time>2018-06-09T09:53:42Z</time>
      </trkpt>
      <trkpt lat="45.98843" lon="4.8775">
        <ele>273</ele>
        <time>2018-06-09T09:53:43Z</time>
      </trkpt>
      <trkpt lat="45.98845" lon="4.87762">
        <ele>273</ele>
        <time>2018-06-09T09:53:45Z</time>
      </trkpt>
      <trkpt lat="45.98846" lon="4.87769">
        <ele>273</ele>
        <time>2018-06-09T09:53:46Z</time>
      </trkpt>
      <trkpt lat="45.98847" lon="4.87775">
        <ele>273</ele>
        <time>2018-06-09T09:53:47Z</time>
      </trkpt>
      <trkpt lat="45.9885" lon="4.87783">
        <ele>273</ele>
        <time>2018-06-09T09:53:48Z</time>
      </trkpt>
      <trkpt lat="45.98852" lon="4.8779">
        <ele>273</ele>
        <time>2018-06-09T09:53:49Z</time>
      </trkpt>
      <trkpt lat="45.98853" lon="4.87795">
        <ele>273</ele>
        <time>2018-06-09T09:53:50Z</time>
      </trkpt>
      <trkpt lat="45.98856" lon="4.87801">
        <ele>273</ele>
        <time>2018-06-09T09:53:51Z</time>
      </trkpt>
      <trkpt lat="45.98858" lon="4.87807">
        <ele>273</ele>
        <time>2018-06-09T09:53:52Z</time>
      </trkpt>
      <trkpt lat="45.98859" lon="4.87809">
        <ele>273</ele>
        <time>2018-06-09T09:53:53Z</time>
      </trkpt>
      <trkpt lat="45.98863" lon="4.87818">
        <ele>273</ele>
        <time>2018-06-09T09:53:54Z</time>
      </trkpt>
      <trkpt lat="45.98865" lon="4.87823">
        <ele>273</ele>
        <time>2018-06-09T09:53:55Z</time>
      </trkpt>
      <trkpt lat="45.98868" lon="4.8783">
        <ele>273</ele>
        <time>2018-06-09T09:53:56Z</time>
      </trkpt>
      <trkpt lat="45.9887" lon="4.87836">
        <ele>273</ele>
        <time>2018-06-09T09:53:57Z</time>
      </trkpt>
      <trkpt lat="45.98873" lon="4.87842">
        <ele>273</ele>
        <time>2018-06-09T09:53:58Z</time>
      </trkpt>
      <trkpt lat="45.98875" lon="4.87849">
        <ele>273</ele>
        <time>2018-06-09T09:53:59Z</time>
      </trkpt>
      <trkpt lat="45.98877" lon="4.87854">
        <ele>272</ele>
        <time>2018-06-09T09:54:00Z</time>
      </trkpt>
      <trkpt lat="45.98881" lon="4.87859">
        <ele>272</ele>
        <time>2018-06-09T09:54:01Z</time>
      </trkpt>
      <trkpt lat="45.98883" lon="4.87864">
        <ele>272</ele>
        <time>2018-06-09T09:54:02Z</time>
      </trkpt>
      <trkpt lat="45.98885" lon="4.87873">
        <ele>272</ele>
        <time>2018-06-09T09:54:03Z</time>
      </trkpt>
      <trkpt lat="45.98888" lon="4.87876">
        <ele>272</ele>
        <time>2018-06-09T09:54:04Z</time>
      </trkpt>
      <trkpt lat="45.98895" lon="4.87884">
        <ele>272</ele>
        <time>2018-06-09T09:54:06Z</time>
      </trkpt>
      <trkpt lat="45.98898" lon="4.87887">
        <ele>272</ele>
        <time>2018-06-09T09:54:07Z</time>
      </trkpt>
      <trkpt lat="45.98902" lon="4.87892">
        <ele>272</ele>
        <time>2018-06-09T09:54:08Z</time>
      </trkpt>
      <trkpt lat="45.98906" lon="4.87896">
        <ele>272</ele>
        <time>2018-06-09T09:54:09Z</time>
      </trkpt>
      <trkpt lat="45.98913" lon="4.87904">
        <ele>272</ele>
        <time>2018-06-09T09:54:11Z</time>
      </trkpt>
      <trkpt lat="45.98916" lon="4.87907">
        <ele>272</ele>
        <time>2018-06-09T09:54:12Z</time>
      </trkpt>
      <trkpt lat="45.98921" lon="4.87911">
        <ele>272</ele>
        <time>2018-06-09T09:54:14Z</time>
      </trkpt>
      <trkpt lat="45.98924" lon="4.87913">
        <ele>272</ele>
        <time>2018-06-09T09:54:15Z</time>
      </trkpt>
      <trkpt lat="45.98931" lon="4.87916">
        <ele>273</ele>
        <time>2018-06-09T09:54:16Z</time>
      </trkpt>
      <trkpt lat="45.98935" lon="4.87918">
        <ele>272</ele>
        <time>2018-06-09T09:54:17Z</time>
      </trkpt>
      <trkpt lat="45.98942" lon="4.87924">
        <ele>273</ele>
        <time>2018-06-09T09:54:20Z</time>
      </trkpt>
      <trkpt lat="45.98944" lon="4.87925">
        <ele>273</ele>
        <time>2018-06-09T09:54:21Z</time>
      </trkpt>
      <trkpt lat="45.9895" lon="4.87928">
        <ele>273</ele>
        <time>2018-06-09T09:54:24Z</time>
      </trkpt>
      <trkpt lat="45.98953" lon="4.8793">
        <ele>273</ele>
        <time>2018-06-09T09:54:25Z</time>
      </trkpt>
      <trkpt lat="45.98961" lon="4.87934">
        <ele>273</ele>
        <time>2018-06-09T09:54:28Z</time>
      </trkpt>
      <trkpt lat="45.98963" lon="4.87936">
        <ele>273</ele>
        <time>2018-06-09T09:54:29Z</time>
      </trkpt>
      <trkpt lat="45.9897" lon="4.87939">
        <ele>274</ele>
        <time>2018-06-09T09:54:31Z</time>
      </trkpt>
      <trkpt lat="45.98973" lon="4.8794">
        <ele>274</ele>
        <time>2018-06-09T09:54:32Z</time>
      </trkpt>
      <trkpt lat="45.98979" lon="4.87943">
        <ele>274</ele>
        <time>2018-06-09T09:54:34Z</time>
      </trkpt>
      <trkpt lat="45.98982" lon="4.87945">
        <ele>274</ele>
        <time>2018-06-09T09:54:35Z</time>
      </trkpt>
      <trkpt lat="45.98988" lon="4.87949">
        <ele>274</ele>
        <time>2018-06-09T09:54:37Z</time>
      </trkpt>
      <trkpt lat="45.98991" lon="4.8795">
        <ele>274</ele>
        <time>2018-06-09T09:54:38Z</time>
      </trkpt>
      <trkpt lat="45.98997" lon="4.87953">
        <ele>274</ele>
        <time>2018-06-09T09:54:40Z</time>
      </trkpt>
      <trkpt lat="45.99" lon="4.87955">
        <ele>276</ele>
        <time>2018-06-09T09:54:41Z</time>
      </trkpt>
      <trkpt lat="45.99006" lon="4.87958">
        <ele>276</ele>
        <time>2018-06-09T09:54:43Z</time>
      </trkpt>
      <trkpt lat="45.99009" lon="4.87959">
        <ele>276</ele>
        <time>2018-06-09T09:54:44Z</time>
      </trkpt>
      <trkpt lat="45.99012" lon="4.87961">
        <ele>276</ele>
        <time>2018-06-09T09:54:45Z</time>
      </trkpt>
      <trkpt lat="45.99021" lon="4.87965">
        <ele>276</ele>
        <time>2018-06-09T09:54:46Z</time>
      </trkpt>
      <trkpt lat="45.99026" lon="4.8797">
        <ele>276</ele>
        <time>2018-06-09T09:54:49Z</time>
      </trkpt>
      <trkpt lat="45.99032" lon="4.87975">
        <ele>276</ele>
        <time>2018-06-09T09:54:50Z</time>
      </trkpt>
      <trkpt lat="45.9904" lon="4.8798">
        <ele>276</ele>
        <time>2018-06-09T09:54:54Z</time>
      </trkpt>
      <trkpt lat="45.99043" lon="4.87982">
        <ele>277</ele>
        <time>2018-06-09T09:54:55Z</time>
      </trkpt>
      <trkpt lat="45.99048" lon="4.87985">
        <ele>277</ele>
        <time>2018-06-09T09:54:57Z</time>
      </trkpt>
      <trkpt lat="45.99051" lon="4.87987">
        <ele>277</ele>
        <time>2018-06-09T09:54:58Z</time>
      </trkpt>
      <trkpt lat="45.9906" lon="4.87993">
        <ele>277</ele>
        <time>2018-06-09T09:54:59Z</time>
      </trkpt>
      <trkpt lat="45.99065" lon="4.87996">
        <ele>277</ele>
        <time>2018-06-09T09:55:01Z</time>
      </trkpt>
      <trkpt lat="45.9907" lon="4.87999">
        <ele>277</ele>
        <time>2018-06-09T09:55:02Z</time>
      </trkpt>
      <trkpt lat="45.99074" lon="4.88001">
        <ele>278</ele>
        <time>2018-06-09T09:55:04Z</time>
      </trkpt>
      <trkpt lat="45.9908" lon="4.88005">
        <ele>278</ele>
        <time>2018-06-09T09:55:05Z</time>
      </trkpt>
      <trkpt lat="45.99087" lon="4.88009">
        <ele>278</ele>
        <time>2018-06-09T09:55:07Z</time>
      </trkpt>
      <trkpt lat="45.9909" lon="4.88011">
        <ele>278</ele>
        <time>2018-06-09T09:55:08Z</time>
      </trkpt>
      <trkpt lat="45.99095" lon="4.88015">
        <ele>278</ele>
        <time>2018-06-09T09:55:10Z</time>
      </trkpt>
      <trkpt lat="45.991" lon="4.88019">
        <ele>278</ele>
        <time>2018-06-09T09:55:11Z</time>
      </trkpt>
      <trkpt lat="45.99107" lon="4.88024">
        <ele>278</ele>
        <time>2018-06-09T09:55:13Z</time>
      </trkpt>
      <trkpt lat="45.99111" lon="4.88025">
        <ele>278</ele>
        <time>2018-06-09T09:55:14Z</time>
      </trkpt>
      <trkpt lat="45.99119" lon="4.88028">
        <ele>278</ele>
        <time>2018-06-09T09:55:16Z</time>
      </trkpt>
      <trkpt lat="45.99122" lon="4.88029">
        <ele>278</ele>
        <time>2018-06-09T09:55:17Z</time>
      </trkpt>
      <trkpt lat="45.9913" lon="4.88033">
        <ele>279</ele>
        <time>2018-06-09T09:55:19Z</time>
      </trkpt>
      <trkpt lat="45.99134" lon="4.88035">
        <ele>279</ele>
        <time>2018-06-09T09:55:20Z</time>
      </trkpt>
      <trkpt lat="45.99141" lon="4.88039">
        <ele>279</ele>
        <time>2018-06-09T09:55:22Z</time>
      </trkpt>
      <trkpt lat="45.99145" lon="4.88042">
        <ele>279</ele>
        <time>2018-06-09T09:55:23Z</time>
      </trkpt>
      <trkpt lat="45.99152" lon="4.88047">
        <ele>279</ele>
        <time>2018-06-09T09:55:25Z</time>
      </trkpt>
      <trkpt lat="45.99156" lon="4.88049">
        <ele>279</ele>
        <time>2018-06-09T09:55:26Z</time>
      </trkpt>
      <trkpt lat="45.99163" lon="4.88055">
        <ele>279</ele>
        <time>2018-06-09T09:55:28Z</time>
      </trkpt>
      <trkpt lat="45.99167" lon="4.88058">
        <ele>279</ele>
        <time>2018-06-09T09:55:29Z</time>
      </trkpt>
      <trkpt lat="45.99175" lon="4.88064">
        <ele>279</ele>
        <time>2018-06-09T09:55:31Z</time>
      </trkpt>
      <trkpt lat="45.99179" lon="4.88066">
        <ele>279</ele>
        <time>2018-06-09T09:55:32Z</time>
      </trkpt>
      <trkpt lat="45.99186" lon="4.88072">
        <ele>279</ele>
        <time>2018-06-09T09:55:34Z</time>
      </trkpt>
      <trkpt lat="45.9919" lon="4.88075">
        <ele>280</ele>
        <time>2018-06-09T09:55:35Z</time>
      </trkpt>
      <trkpt lat="45.99198" lon="4.88081">
        <ele>280</ele>
        <time>2018-06-09T09:55:37Z</time>
      </trkpt>
      <trkpt lat="45.99202" lon="4.88084">
        <ele>280</ele>
        <time>2018-06-09T09:55:38Z</time>
      </trkpt>
      <trkpt lat="45.99206" lon="4.88088">
        <ele>280</ele>
        <time>2018-06-09T09:55:39Z</time>
      </trkpt>
      <trkpt lat="45.9921" lon="4.88092">
        <ele>280</ele>
        <time>2018-06-09T09:55:40Z</time>
      </trkpt>
      <trkpt lat="45.99213" lon="4.88096">
        <ele>280</ele>
        <time>2018-06-09T09:55:41Z</time>
      </trkpt>
      <trkpt lat="45.99217" lon="4.88099">
        <ele>280</ele>
        <time>2018-06-09T09:55:42Z</time>
      </trkpt>
      <trkpt lat="45.99221" lon="4.88102">
        <ele>280</ele>
        <time>2018-06-09T09:55:43Z</time>
      </trkpt>
      <trkpt lat="45.99225" lon="4.88105">
        <ele>280</ele>
        <time>2018-06-09T09:55:44Z</time>
      </trkpt>
      <trkpt lat="45.9923" lon="4.88107">
        <ele>280</ele>
        <time>2018-06-09T09:55:45Z</time>
      </trkpt>
      <trkpt lat="45.99233" lon="4.88111">
        <ele>280</ele>
        <time>2018-06-09T09:55:46Z</time>
      </trkpt>
      <trkpt lat="45.99237" lon="4.88115">
        <ele>280</ele>
        <time>2018-06-09T09:55:47Z</time>
      </trkpt>
      <trkpt lat="45.99241" lon="4.88118">
        <ele>280</ele>
        <time>2018-06-09T09:55:48Z</time>
      </trkpt>
      <trkpt lat="45.99245" lon="4.88122">
        <ele>280</ele>
        <time>2018-06-09T09:55:49Z</time>
      </trkpt>
      <trkpt lat="45.99249" lon="4.88127">
        <ele>280</ele>
        <time>2018-06-09T09:55:50Z</time>
      </trkpt>
      <trkpt lat="45.99254" lon="4.8813">
        <ele>283</ele>
        <time>2018-06-09T09:55:51Z</time>
      </trkpt>
      <trkpt lat="45.99257" lon="4.88133">
        <ele>283</ele>
        <time>2018-06-09T09:55:52Z</time>
      </trkpt>
      <trkpt lat="45.99261" lon="4.88136">
        <ele>283</ele>
        <time>2018-06-09T09:55:53Z</time>
      </trkpt>
      <trkpt lat="45.99265" lon="4.88139">
        <ele>283</ele>
        <time>2018-06-09T09:55:54Z</time>
      </trkpt>
      <trkpt lat="45.99273" lon="4.88145">
        <ele>283</ele>
        <time>2018-06-09T09:55:56Z</time>
      </trkpt>
      <trkpt lat="45.99277" lon="4.88148">
        <ele>283</ele>
        <time>2018-06-09T09:55:57Z</time>
      </trkpt>
      <trkpt lat="45.99281" lon="4.88153">
        <ele>284</ele>
        <time>2018-06-09T09:55:58Z</time>
      </trkpt>
      <trkpt lat="45.99285" lon="4.88157">
        <ele>284</ele>
        <time>2018-06-09T09:55:59Z</time>
      </trkpt>
      <trkpt lat="45.99291" lon="4.88164">
        <ele>284</ele>
        <time>2018-06-09T09:56:01Z</time>
      </trkpt>
      <trkpt lat="45.99295" lon="4.88165">
        <ele>284</ele>
        <time>2018-06-09T09:56:02Z</time>
      </trkpt>
      <trkpt lat="45.99303" lon="4.88171">
        <ele>285</ele>
        <time>2018-06-09T09:56:04Z</time>
      </trkpt>
      <trkpt lat="45.99307" lon="4.88175">
        <ele>285</ele>
        <time>2018-06-09T09:56:05Z</time>
      </trkpt>
      <trkpt lat="45.99313" lon="4.88182">
        <ele>285</ele>
        <time>2018-06-09T09:56:07Z</time>
      </trkpt>
      <trkpt lat="45.99317" lon="4.88186">
        <ele>285</ele>
        <time>2018-06-09T09:56:08Z</time>
      </trkpt>
      <trkpt lat="45.99324" lon="4.88192">
        <ele>285</ele>
        <time>2018-06-09T09:56:10Z</time>
      </trkpt>
      <trkpt lat="45.99328" lon="4.88195">
        <ele>285</ele>
        <time>2018-06-09T09:56:11Z</time>
      </trkpt>
      <trkpt lat="45.99335" lon="4.88201">
        <ele>288</ele>
        <time>2018-06-09T09:56:13Z</time>
      </trkpt>
      <trkpt lat="45.99339" lon="4.88204">
        <ele>288</ele>
        <time>2018-06-09T09:56:14Z</time>
      </trkpt>
      <trkpt lat="45.99345" lon="4.88209">
        <ele>288</ele>
        <time>2018-06-09T09:56:16Z</time>
      </trkpt>
      <trkpt lat="45.99348" lon="4.88211">
        <ele>287</ele>
        <time>2018-06-09T09:56:17Z</time>
      </trkpt>
      <trkpt lat="45.99355" lon="4.88215">
        <ele>287</ele>
        <time>2018-06-09T09:56:19Z</time>
      </trkpt>
      <trkpt lat="45.99358" lon="4.88218">
        <ele>287</ele>
        <time>2018-06-09T09:56:20Z</time>
      </trkpt>
      <trkpt lat="45.99364" lon="4.88223">
        <ele>287</ele>
        <time>2018-06-09T09:56:22Z</time>
      </trkpt>
      <trkpt lat="45.99368" lon="4.88229">
        <ele>287</ele>
        <time>2018-06-09T09:56:23Z</time>
      </trkpt>
      <trkpt lat="45.99372" lon="4.88235">
        <ele>287</ele>
        <time>2018-06-09T09:56:24Z</time>
      </trkpt>
      <trkpt lat="45.99374" lon="4.8824">
        <ele>287</ele>
        <time>2018-06-09T09:56:25Z</time>
      </trkpt>
      <trkpt lat="45.99378" lon="4.88247">
        <ele>287</ele>
        <time>2018-06-09T09:56:26Z</time>
      </trkpt>
      <trkpt lat="45.99382" lon="4.88254">
        <ele>285</ele>
        <time>2018-06-09T09:56:27Z</time>
      </trkpt>
      <trkpt lat="45.99385" lon="4.88261">
        <ele>285</ele>
        <time>2018-06-09T09:56:28Z</time>
      </trkpt>
      <trkpt lat="45.99388" lon="4.88266">
        <ele>285</ele>
        <time>2018-06-09T09:56:29Z</time>
      </trkpt>
      <trkpt lat="45.99393" lon="4.88276">
        <ele>284</ele>
        <time>2018-06-09T09:56:31Z</time>
      </trkpt>
      <trkpt lat="45.99396" lon="4.88281">
        <ele>284</ele>
        <time>2018-06-09T09:56:32Z</time>
      </trkpt>
      <trkpt lat="45.99398" lon="4.88286">
        <ele>284</ele>
        <time>2018-06-09T09:56:33Z</time>
      </trkpt>
      <trkpt lat="45.99401" lon="4.88292">
        <ele>284</ele>
        <time>2018-06-09T09:56:34Z</time>
      </trkpt>
      <trkpt lat="45.99403" lon="4.88304">
        <ele>284</ele>
        <time>2018-06-09T09:56:36Z</time>
      </trkpt>
      <trkpt lat="45.99406" lon="4.88309">
        <ele>283</ele>
        <time>2018-06-09T09:56:37Z</time>
      </trkpt>
      <trkpt lat="45.99408" lon="4.88316">
        <ele>283</ele>
        <time>2018-06-09T09:56:38Z</time>
      </trkpt>
      <trkpt lat="45.99411" lon="4.88323">
        <ele>283</ele>
        <time>2018-06-09T09:56:39Z</time>
      </trkpt>
      <trkpt lat="45.99415" lon="4.88328">
        <ele>282</ele>
        <time>2018-06-09T09:56:40Z</time>
      </trkpt>
      <trkpt lat="45.99417" lon="4.88333">
        <ele>282</ele>
        <time>2018-06-09T09:56:41Z</time>
      </trkpt>
      <trkpt lat="45.99419" lon="4.88339">
        <ele>282</ele>
        <time>2018-06-09T09:56:42Z</time>
      </trkpt>
      <trkpt lat="45.99421" lon="4.88345">
        <ele>282</ele>
        <time>2018-06-09T09:56:43Z</time>
      </trkpt>
      <trkpt lat="45.99424" lon="4.88351">
        <ele>283</ele>
        <time>2018-06-09T09:56:44Z</time>
      </trkpt>
      <trkpt lat="45.99426" lon="4.88356">
        <ele>283</ele>
        <time>2018-06-09T09:56:45Z</time>
      </trkpt>
      <trkpt lat="45.9943" lon="4.88367">
        <ele>283</ele>
        <time>2018-06-09T09:56:47Z</time>
      </trkpt>
      <trkpt lat="45.99433" lon="4.88372">
        <ele>283</ele>
        <time>2018-06-09T09:56:48Z</time>
      </trkpt>
      <trkpt lat="45.99435" lon="4.88378">
        <ele>283</ele>
        <time>2018-06-09T09:56:49Z</time>
      </trkpt>
      <trkpt lat="45.99438" lon="4.88385">
        <ele>283</ele>
        <time>2018-06-09T09:56:50Z</time>
      </trkpt>
      <trkpt lat="45.99442" lon="4.8839">
        <ele>283</ele>
        <time>2018-06-09T09:56:51Z</time>
      </trkpt>
      <trkpt lat="45.99444" lon="4.88396">
        <ele>283</ele>
        <time>2018-06-09T09:56:52Z</time>
      </trkpt>
      <trkpt lat="45.99449" lon="4.88399">
        <ele>283</ele>
        <time>2018-06-09T09:56:53Z</time>
      </trkpt>
      <trkpt lat="45.99453" lon="4.88403">
        <ele>283</ele>
        <time>2018-06-09T09:56:54Z</time>
      </trkpt>
      <trkpt lat="45.99457" lon="4.88407">
        <ele>283</ele>
        <time>2018-06-09T09:56:55Z</time>
      </trkpt>
      <trkpt lat="45.9946" lon="4.88413">
        <ele>283</ele>
        <time>2018-06-09T09:56:56Z</time>
      </trkpt>
      <trkpt lat="45.99464" lon="4.88418">
        <ele>284</ele>
        <time>2018-06-09T09:56:57Z</time>
      </trkpt>
      <trkpt lat="45.99468" lon="4.88421">
        <ele>284</ele>
        <time>2018-06-09T09:56:58Z</time>
      </trkpt>
      <trkpt lat="45.99472" lon="4.88425">
        <ele>284</ele>
        <time>2018-06-09T09:56:59Z</time>
      </trkpt>
      <trkpt lat="45.99476" lon="4.88429">
        <ele>284</ele>
        <time>2018-06-09T09:57:00Z</time>
      </trkpt>
      <trkpt lat="45.9948" lon="4.88435">
        <ele>284</ele>
        <time>2018-06-09T09:57:01Z</time>
      </trkpt>
      <trkpt lat="45.99484" lon="4.8844">
        <ele>284</ele>
        <time>2018-06-09T09:57:02Z</time>
      </trkpt>
      <trkpt lat="45.99488" lon="4.88446">
        <ele>284</ele>
        <time>2018-06-09T09:57:03Z</time>
      </trkpt>
      <trkpt lat="45.99491" lon="4.88452">
        <ele>284</ele>
        <time>2018-06-09T09:57:04Z</time>
      </trkpt>
      <trkpt lat="45.99494" lon="4.88457">
        <ele>284</ele>
        <time>2018-06-09T09:57:05Z</time>
      </trkpt>
      <trkpt lat="45.99497" lon="4.88463">
        <ele>284</ele>
        <time>2018-06-09T09:57:06Z</time>
      </trkpt>
      <trkpt lat="45.99501" lon="4.88469">
        <ele>284</ele>
        <time>2018-06-09T09:57:07Z</time>
      </trkpt>
      <trkpt lat="45.99503" lon="4.88475">
        <ele>284</ele>
        <time>2018-06-09T09:57:08Z</time>
      </trkpt>
      <trkpt lat="45.99506" lon="4.88482">
        <ele>284</ele>
        <time>2018-06-09T09:57:09Z</time>
      </trkpt>
      <trkpt lat="45.99509" lon="4.88489">
        <ele>284</ele>
        <time>2018-06-09T09:57:10Z</time>
      </trkpt>
      <trkpt lat="45.99512" lon="4.88495">
        <ele>284</ele>
        <time>2018-06-09T09:57:11Z</time>
      </trkpt>
      <trkpt lat="45.99514" lon="4.88503">
        <ele>285</ele>
        <time>2018-06-09T09:57:12Z</time>
      </trkpt>
      <trkpt lat="45.99518" lon="4.88509">
        <ele>285</ele>
        <time>2018-06-09T09:57:13Z</time>
      </trkpt>
      <trkpt lat="45.99521" lon="4.88514">
        <ele>285</ele>
        <time>2018-06-09T09:57:14Z</time>
      </trkpt>
      <trkpt lat="45.99524" lon="4.88521">
        <ele>285</ele>
        <time>2018-06-09T09:57:15Z</time>
      </trkpt>
      <trkpt lat="45.99528" lon="4.88526">
        <ele>285</ele>
        <time>2018-06-09T09:57:16Z</time>
      </trkpt>
      <trkpt lat="45.99531" lon="4.88533">
        <ele>285</ele>
        <time>2018-06-09T09:57:17Z</time>
      </trkpt>
      <trkpt lat="45.99535" lon="4.88539">
        <ele>285</ele>
        <time>2018-06-09T09:57:18Z</time>
      </trkpt>
      <trkpt lat="45.99538" lon="4.88546">
        <ele>285</ele>
        <time>2018-06-09T09:57:19Z</time>
      </trkpt>
      <trkpt lat="45.9954" lon="4.88552">
        <ele>285</ele>
        <time>2018-06-09T09:57:20Z</time>
      </trkpt>
      <trkpt lat="45.99544" lon="4.88559">
        <ele>285</ele>
        <time>2018-06-09T09:57:21Z</time>
      </trkpt>
      <trkpt lat="45.99546" lon="4.88566">
        <ele>286</ele>
        <time>2018-06-09T09:57:22Z</time>
      </trkpt>
      <trkpt lat="45.99548" lon="4.88573">
        <ele>286</ele>
        <time>2018-06-09T09:57:23Z</time>
      </trkpt>
      <trkpt lat="45.9955" lon="4.88579">
        <ele>286</ele>
        <time>2018-06-09T09:57:24Z</time>
      </trkpt>
      <trkpt lat="45.99553" lon="4.88585">
        <ele>286</ele>
        <time>2018-06-09T09:57:25Z</time>
      </trkpt>
      <trkpt lat="45.99555" lon="4.88592">
        <ele>286</ele>
        <time>2018-06-09T09:57:26Z</time>
      </trkpt>
      <trkpt lat="45.99556" lon="4.88599">
        <ele>286</ele>
        <time>2018-06-09T09:57:27Z</time>
      </trkpt>
      <trkpt lat="45.99556" lon="4.88606">
        <ele>286</ele>
        <time>2018-06-09T09:57:28Z</time>
      </trkpt>
      <trkpt lat="45.99556" lon="4.88613">
        <ele>286</ele>
        <time>2018-06-09T09:57:29Z</time>
      </trkpt>
      <trkpt lat="45.99557" lon="4.8862">
        <ele>286</ele>
        <time>2018-06-09T09:57:30Z</time>
      </trkpt>
      <trkpt lat="45.99559" lon="4.88627">
        <ele>286</ele>
        <time>2018-06-09T09:57:31Z</time>
      </trkpt>
      <trkpt lat="45.99559" lon="4.88634">
        <ele>286</ele>
        <time>2018-06-09T09:57:32Z</time>
      </trkpt>
      <trkpt lat="45.9956" lon="4.88641">
        <ele>286</ele>
        <time>2018-06-09T09:57:33Z</time>
      </trkpt>
      <trkpt lat="45.9956" lon="4.88649">
        <ele>286</ele>
        <time>2018-06-09T09:57:34Z</time>
      </trkpt>
      <trkpt lat="45.99561" lon="4.88657">
        <ele>286</ele>
        <time>2018-06-09T09:57:35Z</time>
      </trkpt>
      <trkpt lat="45.99561" lon="4.88664">
        <ele>286</ele>
        <time>2018-06-09T09:57:36Z</time>
      </trkpt>
      <trkpt lat="45.99562" lon="4.88672">
        <ele>286</ele>
        <time>2018-06-09T09:57:37Z</time>
      </trkpt>
      <trkpt lat="45.99562" lon="4.8868">
        <ele>286</ele>
        <time>2018-06-09T09:57:38Z</time>
      </trkpt>
      <trkpt lat="45.99563" lon="4.88687">
        <ele>286</ele>
        <time>2018-06-09T09:57:39Z</time>
      </trkpt>
      <trkpt lat="45.99563" lon="4.88694">
        <ele>286</ele>
        <time>2018-06-09T09:57:40Z</time>
      </trkpt>
      <trkpt lat="45.99563" lon="4.88703">
        <ele>286</ele>
        <time>2018-06-09T09:57:41Z</time>
      </trkpt>
      <trkpt lat="45.99563" lon="4.88711">
        <ele>286</ele>
        <time>2018-06-09T09:57:42Z</time>
      </trkpt>
      <trkpt lat="45.99565" lon="4.8872">
        <ele>286</ele>
        <time>2018-06-09T09:57:43Z</time>
      </trkpt>
      <trkpt lat="45.99565" lon="4.88727">
        <ele>287</ele>
        <time>2018-06-09T09:57:44Z</time>
      </trkpt>
      <trkpt lat="45.99567" lon="4.88738">
        <ele>287</ele>
        <time>2018-06-09T09:57:46Z</time>
      </trkpt>
      <trkpt lat="45.99569" lon="4.88747">
        <ele>287</ele>
        <time>2018-06-09T09:57:47Z</time>
      </trkpt>
      <trkpt lat="45.99569" lon="4.88754">
        <ele>287</ele>
        <time>2018-06-09T09:57:48Z</time>
      </trkpt>
      <trkpt lat="45.9957" lon="4.88761">
        <ele>287</ele>
        <time>2018-06-09T09:57:49Z</time>
      </trkpt>
      <trkpt lat="45.99571" lon="4.88769">
        <ele>287</ele>
        <time>2018-06-09T09:57:50Z</time>
      </trkpt>
      <trkpt lat="45.99572" lon="4.88775">
        <ele>287</ele>
        <time>2018-06-09T09:57:51Z</time>
      </trkpt>
      <trkpt lat="45.99572" lon="4.88782">
        <ele>287</ele>
        <time>2018-06-09T09:57:52Z</time>
      </trkpt>
      <trkpt lat="45.99573" lon="4.88792">
        <ele>287</ele>
        <time>2018-06-09T09:57:53Z</time>
      </trkpt>
      <trkpt lat="45.99574" lon="4.88799">
        <ele>287</ele>
        <time>2018-06-09T09:57:54Z</time>
      </trkpt>
      <trkpt lat="45.99575" lon="4.88806">
        <ele>287</ele>
        <time>2018-06-09T09:57:55Z</time>
      </trkpt>
      <trkpt lat="45.99575" lon="4.88812">
        <ele>287</ele>
        <time>2018-06-09T09:57:56Z</time>
      </trkpt>
      <trkpt lat="45.99576" lon="4.88819">
        <ele>287</ele>
        <time>2018-06-09T09:57:57Z</time>
      </trkpt>
      <trkpt lat="45.99577" lon="4.88831">
        <ele>287</ele>
        <time>2018-06-09T09:57:59Z</time>
      </trkpt>
      <trkpt lat="45.99578" lon="4.88839">
        <ele>287</ele>
        <time>2018-06-09T09:58:00Z</time>
      </trkpt>
      <trkpt lat="45.99578" lon="4.88847">
        <ele>287</ele>
        <time>2018-06-09T09:58:01Z</time>
      </trkpt>
      <trkpt lat="45.99579" lon="4.88855">
        <ele>287</ele>
        <time>2018-06-09T09:58:02Z</time>
      </trkpt>
      <trkpt lat="45.9958" lon="4.88862">
        <ele>287</ele>
        <time>2018-06-09T09:58:03Z</time>
      </trkpt>
      <trkpt lat="45.9958" lon="4.88872">
        <ele>287</ele>
        <time>2018-06-09T09:58:04Z</time>
      </trkpt>
      <trkpt lat="45.9958" lon="4.88879">
        <ele>287</ele>
        <time>2018-06-09T09:58:05Z</time>
      </trkpt>
      <trkpt lat="45.99582" lon="4.88887">
        <ele>287</ele>
        <time>2018-06-09T09:58:06Z</time>
      </trkpt>
      <trkpt lat="45.99583" lon="4.88894">
        <ele>287</ele>
        <time>2018-06-09T09:58:07Z</time>
      </trkpt>
      <trkpt lat="45.99584" lon="4.88902">
        <ele>287</ele>
        <time>2018-06-09T09:58:08Z</time>
      </trkpt>
      <trkpt lat="45.99584" lon="4.88909">
        <ele>287</ele>
        <time>2018-06-09T09:58:09Z</time>
      </trkpt>
      <trkpt lat="45.99586" lon="4.88916">
        <ele>287</ele>
        <time>2018-06-09T09:58:10Z</time>
      </trkpt>
      <trkpt lat="45.99586" lon="4.88924">
        <ele>287</ele>
        <time>2018-06-09T09:58:11Z</time>
      </trkpt>
      <trkpt lat="45.99587" lon="4.88931">
        <ele>287</ele>
        <time>2018-06-09T09:58:12Z</time>
      </trkpt>
      <trkpt lat="45.99588" lon="4.88938">
        <ele>287</ele>
        <time>2018-06-09T09:58:13Z</time>
      </trkpt>
      <trkpt lat="45.99588" lon="4.88945">
        <ele>287</ele>
        <time>2018-06-09T09:58:14Z</time>
      </trkpt>
      <trkpt lat="45.99589" lon="4.88952">
        <ele>287</ele>
        <time>2018-06-09T09:58:15Z</time>
      </trkpt>
      <trkpt lat="45.99588" lon="4.88958">
        <ele>287</ele>
        <time>2018-06-09T09:58:16Z</time>
      </trkpt>
      <trkpt lat="45.99588" lon="4.88966">
        <ele>288</ele>
        <time>2018-06-09T09:58:17Z</time>
      </trkpt>
      <trkpt lat="45.99589" lon="4.88974">
        <ele>288</ele>
        <time>2018-06-09T09:58:18Z</time>
      </trkpt>
      <trkpt lat="45.99589" lon="4.8898">
        <ele>288</ele>
        <time>2018-06-09T09:58:19Z</time>
      </trkpt>
      <trkpt lat="45.9959" lon="4.88986">
        <ele>288</ele>
        <time>2018-06-09T09:58:20Z</time>
      </trkpt>
      <trkpt lat="45.99591" lon="4.88993">
        <ele>288</ele>
        <time>2018-06-09T09:58:21Z</time>
      </trkpt>
      <trkpt lat="45.99589" lon="4.89">
        <ele>288</ele>
        <time>2018-06-09T09:58:22Z</time>
      </trkpt>
      <trkpt lat="45.99589" lon="4.89006">
        <ele>288</ele>
        <time>2018-06-09T09:58:23Z</time>
      </trkpt>
      <trkpt lat="45.9959" lon="4.89015">
        <ele>288</ele>
        <time>2018-06-09T09:58:24Z</time>
      </trkpt>
      <trkpt lat="45.99588" lon="4.89027">
        <ele>288</ele>
        <time>2018-06-09T09:58:26Z</time>
      </trkpt>
      <trkpt lat="45.99587" lon="4.89034">
        <ele>289</ele>
        <time>2018-06-09T09:58:27Z</time>
      </trkpt>
      <trkpt lat="45.99587" lon="4.89041">
        <ele>289</ele>
        <time>2018-06-09T09:58:28Z</time>
      </trkpt>
      <trkpt lat="45.99586" lon="4.89048">
        <ele>289</ele>
        <time>2018-06-09T09:58:29Z</time>
      </trkpt>
      <trkpt lat="45.99584" lon="4.89056">
        <ele>289</ele>
        <time>2018-06-09T09:58:30Z</time>
      </trkpt>
      <trkpt lat="45.99584" lon="4.89064">
        <ele>289</ele>
        <time>2018-06-09T09:58:31Z</time>
      </trkpt>
      <trkpt lat="45.99584" lon="4.8907">
        <ele>289</ele>
        <time>2018-06-09T09:58:32Z</time>
      </trkpt>
      <trkpt lat="45.99583" lon="4.89078">
        <ele>289</ele>
        <time>2018-06-09T09:58:33Z</time>
      </trkpt>
      <trkpt lat="45.99582" lon="4.89085">
        <ele>289</ele>
        <time>2018-06-09T09:58:34Z</time>
      </trkpt>
      <trkpt lat="45.99582" lon="4.89093">
        <ele>289</ele>
        <time>2018-06-09T09:58:35Z</time>
      </trkpt>
      <trkpt lat="45.99582" lon="4.891">
        <ele>289</ele>
        <time>2018-06-09T09:58:36Z</time>
      </trkpt>
      <trkpt lat="45.99581" lon="4.89106">
        <ele>289</ele>
        <time>2018-06-09T09:58:37Z</time>
      </trkpt>
      <trkpt lat="45.99582" lon="4.89115">
        <ele>289</ele>
        <time>2018-06-09T09:58:38Z</time>
      </trkpt>
      <trkpt lat="45.99582" lon="4.89121">
        <ele>289</ele>
        <time>2018-06-09T09:58:39Z</time>
      </trkpt>
      <trkpt lat="45.99582" lon="4.89128">
        <ele>289</ele>
        <time>2018-06-09T09:58:40Z</time>
      </trkpt>
      <trkpt lat="45.99584" lon="4.89136">
        <ele>289</ele>
        <time>2018-06-09T09:58:41Z</time>
      </trkpt>
      <trkpt lat="45.99584" lon="4.89144">
        <ele>289</ele>
        <time>2018-06-09T09:58:42Z</time>
      </trkpt>
      <trkpt lat="45.99583" lon="4.89149">
        <ele>289</ele>
        <time>2018-06-09T09:58:43Z</time>
      </trkpt>
      <trkpt lat="45.99584" lon="4.89162">
        <ele>288</ele>
        <time>2018-06-09T09:58:45Z</time>
      </trkpt>
      <trkpt lat="45.99584" lon="4.89168">
        <ele>288</ele>
        <time>2018-06-09T09:58:46Z</time>
      </trkpt>
      <trkpt lat="45.99584" lon="4.89179">
        <ele>288</ele>
        <time>2018-06-09T09:58:48Z</time>
      </trkpt>
      <trkpt lat="45.99586" lon="4.89187">
        <ele>288</ele>
        <time>2018-06-09T09:58:49Z</time>
      </trkpt>
      <trkpt lat="45.99586" lon="4.89195">
        <ele>288</ele>
        <time>2018-06-09T09:58:50Z</time>
      </trkpt>
      <trkpt lat="45.99586" lon="4.89203">
        <ele>288</ele>
        <time>2018-06-09T09:58:51Z</time>
      </trkpt>
      <trkpt lat="45.99585" lon="4.89214">
        <ele>288</ele>
        <time>2018-06-09T09:58:53Z</time>
      </trkpt>
      <trkpt lat="45.99586" lon="4.89221">
        <ele>288</ele>
        <time>2018-06-09T09:58:54Z</time>
      </trkpt>
      <trkpt lat="45.99587" lon="4.89227">
        <ele>288</ele>
        <time>2018-06-09T09:58:55Z</time>
      </trkpt>
      <trkpt lat="45.99587" lon="4.89234">
        <ele>288</ele>
        <time>2018-06-09T09:58:56Z</time>
      </trkpt>
      <trkpt lat="45.99587" lon="4.89241">
        <ele>288</ele>
        <time>2018-06-09T09:58:57Z</time>
      </trkpt>
      <trkpt lat="45.99588" lon="4.89248">
        <ele>288</ele>
        <time>2018-06-09T09:58:58Z</time>
      </trkpt>
      <trkpt lat="45.99588" lon="4.89255">
        <ele>288</ele>
        <time>2018-06-09T09:58:59Z</time>
      </trkpt>
      <trkpt lat="45.99587" lon="4.89262">
        <ele>288</ele>
        <time>2018-06-09T09:59:00Z</time>
      </trkpt>
      <trkpt lat="45.99588" lon="4.8927">
        <ele>288</ele>
        <time>2018-06-09T09:59:01Z</time>
      </trkpt>
      <trkpt lat="45.99589" lon="4.89277">
        <ele>289</ele>
        <time>2018-06-09T09:59:02Z</time>
      </trkpt>
      <trkpt lat="45.99589" lon="4.89285">
        <ele>289</ele>
        <time>2018-06-09T09:59:03Z</time>
      </trkpt>
      <trkpt lat="45.99589" lon="4.89292">
        <ele>289</ele>
        <time>2018-06-09T09:59:04Z</time>
      </trkpt>
      <trkpt lat="45.9959" lon="4.89298">
        <ele>289</ele>
        <time>2018-06-09T09:59:05Z</time>
      </trkpt>
      <trkpt lat="45.99591" lon="4.89305">
        <ele>289</ele>
        <time>2018-06-09T09:59:06Z</time>
      </trkpt>
      <trkpt lat="45.9959" lon="4.89311">
        <ele>289</ele>
        <time>2018-06-09T09:59:07Z</time>
      </trkpt>
      <trkpt lat="45.99591" lon="4.89319">
        <ele>289</ele>
        <time>2018-06-09T09:59:08Z</time>
      </trkpt>
      <trkpt lat="45.99592" lon="4.89327">
        <ele>289</ele>
        <time>2018-06-09T09:59:09Z</time>
      </trkpt>
      <trkpt lat="45.99594" lon="4.89335">
        <ele>289</ele>
        <time>2018-06-09T09:59:10Z</time>
      </trkpt>
      <trkpt lat="45.99594" lon="4.89342">
        <ele>289</ele>
        <time>2018-06-09T09:59:11Z</time>
      </trkpt>
      <trkpt lat="45.99594" lon="4.89348">
        <ele>289</ele>
        <time>2018-06-09T09:59:12Z</time>
      </trkpt>
      <trkpt lat="45.99594" lon="4.89355">
        <ele>289</ele>
        <time>2018-06-09T09:59:13Z</time>
      </trkpt>
      <trkpt lat="45.99595" lon="4.89362">
        <ele>289</ele>
        <time>2018-06-09T09:59:14Z</time>
      </trkpt>
      <trkpt lat="45.99595" lon="4.8937">
        <ele>289</ele>
        <time>2018-06-09T09:59:15Z</time>
      </trkpt>
      <trkpt lat="45.99596" lon="4.89376">
        <ele>290</ele>
        <time>2018-06-09T09:59:16Z</time>
      </trkpt>
      <trkpt lat="45.99597" lon="4.89385">
        <ele>290</ele>
        <time>2018-06-09T09:59:17Z</time>
      </trkpt>
      <trkpt lat="45.99597" lon="4.89392">
        <ele>290</ele>
        <time>2018-06-09T09:59:18Z</time>
      </trkpt>
      <trkpt lat="45.99598" lon="4.89399">
        <ele>290</ele>
        <time>2018-06-09T09:59:19Z</time>
      </trkpt>
      <trkpt lat="45.99598" lon="4.89406">
        <ele>290</ele>
        <time>2018-06-09T09:59:20Z</time>
      </trkpt>
      <trkpt lat="45.99599" lon="4.89413">
        <ele>290</ele>
        <time>2018-06-09T09:59:21Z</time>
      </trkpt>
      <trkpt lat="45.99599" lon="4.8942">
        <ele>290</ele>
        <time>2018-06-09T09:59:22Z</time>
      </trkpt>
      <trkpt lat="45.99599" lon="4.89427">
        <ele>290</ele>
        <time>2018-06-09T09:59:23Z</time>
      </trkpt>
      <trkpt lat="45.99599" lon="4.89435">
        <ele>290</ele>
        <time>2018-06-09T09:59:24Z</time>
      </trkpt>
      <trkpt lat="45.99599" lon="4.89448">
        <ele>290</ele>
        <time>2018-06-09T09:59:26Z</time>
      </trkpt>
      <trkpt lat="45.996" lon="4.89455">
        <ele>290</ele>
        <time>2018-06-09T09:59:27Z</time>
      </trkpt>
      <trkpt lat="45.99601" lon="4.89465">
        <ele>290</ele>
        <time>2018-06-09T09:59:28Z</time>
      </trkpt>
      <trkpt lat="45.99602" lon="4.89472">
        <ele>290</ele>
        <time>2018-06-09T09:59:29Z</time>
      </trkpt>
      <trkpt lat="45.99603" lon="4.8948">
        <ele>290</ele>
        <time>2018-06-09T09:59:30Z</time>
      </trkpt>
      <trkpt lat="45.99603" lon="4.89488">
        <ele>290</ele>
        <time>2018-06-09T09:59:31Z</time>
      </trkpt>
      <trkpt lat="45.99603" lon="4.89493">
        <ele>290</ele>
        <time>2018-06-09T09:59:32Z</time>
      </trkpt>
      <trkpt lat="45.99604" lon="4.89501">
        <ele>290</ele>
        <time>2018-06-09T09:59:33Z</time>
      </trkpt>
      <trkpt lat="45.99605" lon="4.89509">
        <ele>290</ele>
        <time>2018-06-09T09:59:34Z</time>
      </trkpt>
      <trkpt lat="45.99605" lon="4.89517">
        <ele>291</ele>
        <time>2018-06-09T09:59:35Z</time>
      </trkpt>
      <trkpt lat="45.99607" lon="4.89524">
        <ele>291</ele>
        <time>2018-06-09T09:59:36Z</time>
      </trkpt>
      <trkpt lat="45.99608" lon="4.89532">
        <ele>291</ele>
        <time>2018-06-09T09:59:37Z</time>
      </trkpt>
      <trkpt lat="45.99607" lon="4.89539">
        <ele>291</ele>
        <time>2018-06-09T09:59:38Z</time>
      </trkpt>
      <trkpt lat="45.99608" lon="4.89548">
        <ele>291</ele>
        <time>2018-06-09T09:59:39Z</time>
      </trkpt>
      <trkpt lat="45.99608" lon="4.89557">
        <ele>291</ele>
        <time>2018-06-09T09:59:40Z</time>
      </trkpt>
      <trkpt lat="45.99609" lon="4.89565">
        <ele>291</ele>
        <time>2018-06-09T09:59:41Z</time>
      </trkpt>
      <trkpt lat="45.99609" lon="4.89572">
        <ele>291</ele>
        <time>2018-06-09T09:59:42Z</time>
      </trkpt>
      <trkpt lat="45.99609" lon="4.89581">
        <ele>291</ele>
        <time>2018-06-09T09:59:43Z</time>
      </trkpt>
      <trkpt lat="45.9961" lon="4.89586">
        <ele>292</ele>
        <time>2018-06-09T09:59:44Z</time>
      </trkpt>
      <trkpt lat="45.99612" lon="4.89596">
        <ele>291</ele>
        <time>2018-06-09T09:59:45Z</time>
      </trkpt>
      <trkpt lat="45.99613" lon="4.89603">
        <ele>291</ele>
        <time>2018-06-09T09:59:46Z</time>
      </trkpt>
      <trkpt lat="45.99613" lon="4.8961">
        <ele>291</ele>
        <time>2018-06-09T09:59:47Z</time>
      </trkpt>
      <trkpt lat="45.99613" lon="4.89619">
        <ele>291</ele>
        <time>2018-06-09T09:59:48Z</time>
      </trkpt>
      <trkpt lat="45.99613" lon="4.89626">
        <ele>291</ele>
        <time>2018-06-09T09:59:49Z</time>
      </trkpt>
      <trkpt lat="45.99613" lon="4.89634">
        <ele>291</ele>
        <time>2018-06-09T09:59:50Z</time>
      </trkpt>
      <trkpt lat="45.99613" lon="4.89641">
        <ele>291</ele>
        <time>2018-06-09T09:59:51Z</time>
      </trkpt>
      <trkpt lat="45.99613" lon="4.89649">
        <ele>291</ele>
        <time>2018-06-09T09:59:52Z</time>
      </trkpt>
      <trkpt lat="45.99612" lon="4.89657">
        <ele>291</ele>
        <time>2018-06-09T09:59:53Z</time>
      </trkpt>
      <trkpt lat="45.99612" lon="4.89664">
        <ele>291</ele>
        <time>2018-06-09T09:59:54Z</time>
      </trkpt>
      <trkpt lat="45.99613" lon="4.89672">
        <ele>291</ele>
        <time>2018-06-09T09:59:55Z</time>
      </trkpt>
      <trkpt lat="45.99614" lon="4.89681">
        <ele>291</ele>
        <time>2018-06-09T09:59:56Z</time>
      </trkpt>
      <trkpt lat="45.99613" lon="4.89687">
        <ele>291</ele>
        <time>2018-06-09T09:59:57Z</time>
      </trkpt>
      <trkpt lat="45.99614" lon="4.89694">
        <ele>291</ele>
        <time>2018-06-09T09:59:58Z</time>
      </trkpt>
      <trkpt lat="45.99615" lon="4.89701">
        <ele>291</ele>
        <time>2018-06-09T09:59:59Z</time>
      </trkpt>
      <trkpt lat="45.99615" lon="4.89708">
        <ele>291</ele>
        <time>2018-06-09T10:00:00Z</time>
      </trkpt>
      <trkpt lat="45.99614" lon="4.89715">
        <ele>291</ele>
        <time>2018-06-09T10:00:01Z</time>
      </trkpt>
      <trkpt lat="45.99613" lon="4.89722">
        <ele>292</ele>
        <time>2018-06-09T10:00:02Z</time>
      </trkpt>
      <trkpt lat="45.99612" lon="4.89729">
        <ele>292</ele>
        <time>2018-06-09T10:00:03Z</time>
      </trkpt>
      <trkpt lat="45.99611" lon="4.89735">
        <ele>292</ele>
        <time>2018-06-09T10:00:04Z</time>
      </trkpt>
      <trkpt lat="45.99612" lon="4.89744">
        <ele>292</ele>
        <time>2018-06-09T10:00:05Z</time>
      </trkpt>
      <trkpt lat="45.99611" lon="4.89751">
        <ele>292</ele>
        <time>2018-06-09T10:00:06Z</time>
      </trkpt>
      <trkpt lat="45.99611" lon="4.89757">
        <ele>292</ele>
        <time>2018-06-09T10:00:07Z</time>
      </trkpt>
      <trkpt lat="45.99611" lon="4.89764">
        <ele>292</ele>
        <time>2018-06-09T10:00:08Z</time>
      </trkpt>
      <trkpt lat="45.99611" lon="4.89772">
        <ele>292</ele>
        <time>2018-06-09T10:00:09Z</time>
      </trkpt>
      <trkpt lat="45.99611" lon="4.8978">
        <ele>292</ele>
        <time>2018-06-09T10:00:10Z</time>
      </trkpt>
      <trkpt lat="45.99611" lon="4.89787">
        <ele>292</ele>
        <time>2018-06-09T10:00:11Z</time>
      </trkpt>
      <trkpt lat="45.9961" lon="4.89796">
        <ele>292</ele>
        <time>2018-06-09T10:00:12Z</time>
      </trkpt>
      <trkpt lat="45.99609" lon="4.89804">
        <ele>292</ele>
        <time>2018-06-09T10:00:13Z</time>
      </trkpt>
      <trkpt lat="45.99609" lon="4.89812">
        <ele>292</ele>
        <time>2018-06-09T10:00:14Z</time>
      </trkpt>
      <trkpt lat="45.99609" lon="4.89818">
        <ele>292</ele>
        <time>2018-06-09T10:00:15Z</time>
      </trkpt>
      <trkpt lat="45.99607" lon="4.89827">
        <ele>292</ele>
        <time>2018-06-09T10:00:16Z</time>
      </trkpt>
      <trkpt lat="45.99607" lon="4.89833">
        <ele>292</ele>
        <time>2018-06-09T10:00:17Z</time>
      </trkpt>
      <trkpt lat="45.99607" lon="4.8984">
        <ele>293</ele>
        <time>2018-06-09T10:00:18Z</time>
      </trkpt>
      <trkpt lat="45.99606" lon="4.89847">
        <ele>293</ele>
        <time>2018-06-09T10:00:19Z</time>
      </trkpt>
      <trkpt lat="45.99606" lon="4.89858">
        <ele>293</ele>
        <time>2018-06-09T10:00:20Z</time>
      </trkpt>
      <trkpt lat="45.99605" lon="4.89861">
        <ele>293</ele>
        <time>2018-06-09T10:00:21Z</time>
      </trkpt>
      <trkpt lat="45.99605" lon="4.89869">
        <ele>293</ele>
        <time>2018-06-09T10:00:22Z</time>
      </trkpt>
      <trkpt lat="45.99605" lon="4.89877">
        <ele>292</ele>
        <time>2018-06-09T10:00:23Z</time>
      </trkpt>
      <trkpt lat="45.99604" lon="4.89883">
        <ele>292</ele>
        <time>2018-06-09T10:00:24Z</time>
      </trkpt>
      <trkpt lat="45.99604" lon="4.8989">
        <ele>292</ele>
        <time>2018-06-09T10:00:25Z</time>
      </trkpt>
      <trkpt lat="45.99604" lon="4.89899">
        <ele>292</ele>
        <time>2018-06-09T10:00:26Z</time>
      </trkpt>
      <trkpt lat="45.99603" lon="4.89906">
        <ele>292</ele>
        <time>2018-06-09T10:00:27Z</time>
      </trkpt>
      <trkpt lat="45.99603" lon="4.89914">
        <ele>292</ele>
        <time>2018-06-09T10:00:28Z</time>
      </trkpt>
      <trkpt lat="45.99603" lon="4.89919">
        <ele>293</ele>
        <time>2018-06-09T10:00:29Z</time>
      </trkpt>
      <trkpt lat="45.99603" lon="4.89925">
        <ele>293</ele>
        <time>2018-06-09T10:00:30Z</time>
      </trkpt>
      <trkpt lat="45.99604" lon="4.89933">
        <ele>293</ele>
        <time>2018-06-09T10:00:31Z</time>
      </trkpt>
      <trkpt lat="45.99605" lon="4.89941">
        <ele>293</ele>
        <time>2018-06-09T10:00:32Z</time>
      </trkpt>
      <trkpt lat="45.99606" lon="4.89946">
        <ele>294</ele>
        <time>2018-06-09T10:00:33Z</time>
      </trkpt>
      <trkpt lat="45.99605" lon="4.89952">
        <ele>294</ele>
        <time>2018-06-09T10:00:34Z</time>
      </trkpt>
      <trkpt lat="45.99605" lon="4.89959">
        <ele>294</ele>
        <time>2018-06-09T10:00:35Z</time>
      </trkpt>
      <trkpt lat="45.99607" lon="4.89971">
        <ele>294</ele>
        <time>2018-06-09T10:00:37Z</time>
      </trkpt>
      <trkpt lat="45.99608" lon="4.89978">
        <ele>294</ele>
        <time>2018-06-09T10:00:38Z</time>
      </trkpt>
      <trkpt lat="45.99609" lon="4.89985">
        <ele>294</ele>
        <time>2018-06-09T10:00:39Z</time>
      </trkpt>
      <trkpt lat="45.9961" lon="4.89991">
        <ele>294</ele>
        <time>2018-06-09T10:00:40Z</time>
      </trkpt>
      <trkpt lat="45.99614" lon="4.90002">
        <ele>296</ele>
        <time>2018-06-09T10:00:42Z</time>
      </trkpt>
      <trkpt lat="45.99616" lon="4.90008">
        <ele>296</ele>
        <time>2018-06-09T10:00:43Z</time>
      </trkpt>
      <trkpt lat="45.99618" lon="4.9002">
        <ele>296</ele>
        <time>2018-06-09T10:00:45Z</time>
      </trkpt>
      <trkpt lat="45.9962" lon="4.90026">
        <ele>296</ele>
        <time>2018-06-09T10:00:46Z</time>
      </trkpt>
      <trkpt lat="45.99624" lon="4.90037">
        <ele>296</ele>
        <time>2018-06-09T10:00:48Z</time>
      </trkpt>
      <trkpt lat="45.99626" lon="4.90043">
        <ele>297</ele>
        <time>2018-06-09T10:00:49Z</time>
      </trkpt>
      <trkpt lat="45.99628" lon="4.90049">
        <ele>297</ele>
        <time>2018-06-09T10:00:50Z</time>
      </trkpt>
      <trkpt lat="45.99629" lon="4.90055">
        <ele>297</ele>
        <time>2018-06-09T10:00:51Z</time>
      </trkpt>
      <trkpt lat="45.99632" lon="4.90067">
        <ele>297</ele>
        <time>2018-06-09T10:00:53Z</time>
      </trkpt>
      <trkpt lat="45.99635" lon="4.90072">
        <ele>297</ele>
        <time>2018-06-09T10:00:54Z</time>
      </trkpt>
      <trkpt lat="45.99637" lon="4.90083">
        <ele>298</ele>
        <time>2018-06-09T10:00:56Z</time>
      </trkpt>
      <trkpt lat="45.99639" lon="4.90089">
        <ele>299</ele>
        <time>2018-06-09T10:00:57Z</time>
      </trkpt>
      <trkpt lat="45.99641" lon="4.90098">
        <ele>299</ele>
        <time>2018-06-09T10:00:59Z</time>
      </trkpt>
      <trkpt lat="45.99641" lon="4.90104">
        <ele>299</ele>
        <time>2018-06-09T10:01:00Z</time>
      </trkpt>
      <trkpt lat="45.99644" lon="4.90115">
        <ele>299</ele>
        <time>2018-06-09T10:01:02Z</time>
      </trkpt>
      <trkpt lat="45.99646" lon="4.90119">
        <ele>299</ele>
        <time>2018-06-09T10:01:03Z</time>
      </trkpt>
      <trkpt lat="45.99648" lon="4.90128">
        <ele>299</ele>
        <time>2018-06-09T10:01:06Z</time>
      </trkpt>
      <trkpt lat="45.99649" lon="4.90132">
        <ele>299</ele>
        <time>2018-06-09T10:01:07Z</time>
      </trkpt>
      <trkpt lat="45.99652" lon="4.90143">
        <ele>300</ele>
        <time>2018-06-09T10:01:10Z</time>
      </trkpt>
      <trkpt lat="45.99653" lon="4.90147">
        <ele>300</ele>
        <time>2018-06-09T10:01:11Z</time>
      </trkpt>
      <trkpt lat="45.99656" lon="4.90158">
        <ele>300</ele>
        <time>2018-06-09T10:01:14Z</time>
      </trkpt>
      <trkpt lat="45.99657" lon="4.90162">
        <ele>300</ele>
        <time>2018-06-09T10:01:15Z</time>
      </trkpt>
      <trkpt lat="45.99659" lon="4.90174">
        <ele>301</ele>
        <time>2018-06-09T10:01:18Z</time>
      </trkpt>
      <trkpt lat="45.9966" lon="4.90178">
        <ele>301</ele>
        <time>2018-06-09T10:01:19Z</time>
      </trkpt>
      <trkpt lat="45.99664" lon="4.9019">
        <ele>301</ele>
        <time>2018-06-09T10:01:22Z</time>
      </trkpt>
      <trkpt lat="45.99665" lon="4.90193">
        <ele>301</ele>
        <time>2018-06-09T10:01:23Z</time>
      </trkpt>
      <trkpt lat="45.99668" lon="4.90203">
        <ele>303</ele>
        <time>2018-06-09T10:01:26Z</time>
      </trkpt>
      <trkpt lat="45.99669" lon="4.90206">
        <ele>303</ele>
        <time>2018-06-09T10:01:27Z</time>
      </trkpt>
      <trkpt lat="45.99672" lon="4.90217">
        <ele>303</ele>
        <time>2018-06-09T10:01:30Z</time>
      </trkpt>
      <trkpt lat="45.99673" lon="4.9022">
        <ele>303</ele>
        <time>2018-06-09T10:01:31Z</time>
      </trkpt>
      <trkpt lat="45.99675" lon="4.90228">
        <ele>304</ele>
        <time>2018-06-09T10:01:33Z</time>
      </trkpt>
      <trkpt lat="45.99677" lon="4.90233">
        <ele>304</ele>
        <time>2018-06-09T10:01:34Z</time>
      </trkpt>
      <trkpt lat="45.99679" lon="4.90241">
        <ele>304</ele>
        <time>2018-06-09T10:01:36Z</time>
      </trkpt>
      <trkpt lat="45.9968" lon="4.90246">
        <ele>304</ele>
        <time>2018-06-09T10:01:37Z</time>
      </trkpt>
      <trkpt lat="45.99682" lon="4.90256">
        <ele>304</ele>
        <time>2018-06-09T10:01:39Z</time>
      </trkpt>
      <trkpt lat="45.99682" lon="4.90261">
        <ele>305</ele>
        <time>2018-06-09T10:01:40Z</time>
      </trkpt>
      <trkpt lat="45.99682" lon="4.90274">
        <ele>305</ele>
        <time>2018-06-09T10:01:41Z</time>
      </trkpt>
      <trkpt lat="45.9968" lon="4.90284">
        <ele>304</ele>
        <time>2018-06-09T10:01:43Z</time>
      </trkpt>
      <trkpt lat="45.99679" lon="4.9029">
        <ele>304</ele>
        <time>2018-06-09T10:01:44Z</time>
      </trkpt>
      <trkpt lat="45.99677" lon="4.90302">
        <ele>304</ele>
        <time>2018-06-09T10:01:46Z</time>
      </trkpt>
      <trkpt lat="45.99676" lon="4.90308">
        <ele>304</ele>
        <time>2018-06-09T10:01:47Z</time>
      </trkpt>
      <trkpt lat="45.99675" lon="4.90318">
        <ele>304</ele>
        <time>2018-06-09T10:01:50Z</time>
      </trkpt>
      <trkpt lat="45.99675" lon="4.90321">
        <ele>303</ele>
        <time>2018-06-09T10:01:51Z</time>
      </trkpt>
      <trkpt lat="45.99674" lon="4.90325">
        <ele>303</ele>
        <time>2018-06-09T10:01:52Z</time>
      </trkpt>
      <trkpt lat="45.99671" lon="4.90333">
        <ele>302</ele>
        <time>2018-06-09T10:01:53Z</time>
      </trkpt>
      <trkpt lat="45.99666" lon="4.90334">
        <ele>302</ele>
        <time>2018-06-09T10:01:54Z</time>
      </trkpt>
      <trkpt lat="45.99661" lon="4.90332">
        <ele>302</ele>
        <time>2018-06-09T10:01:55Z</time>
      </trkpt>
      <trkpt lat="45.99652" lon="4.90324">
        <ele>302</ele>
        <time>2018-06-09T10:01:56Z</time>
      </trkpt>
      <trkpt lat="45.99647" lon="4.90323">
        <ele>302</ele>
        <time>2018-06-09T10:01:57Z</time>
      </trkpt>
      <trkpt lat="45.99643" lon="4.90323">
        <ele>302</ele>
        <time>2018-06-09T10:01:58Z</time>
      </trkpt>
      <trkpt lat="45.99634" lon="4.90319">
        <ele>302</ele>
        <time>2018-06-09T10:01:59Z</time>
      </trkpt>
      <trkpt lat="45.99628" lon="4.90318">
        <ele>302</ele>
        <time>2018-06-09T10:02:00Z</time>
      </trkpt>
      <trkpt lat="45.99624" lon="4.90317">
        <ele>302</ele>
        <time>2018-06-09T10:02:01Z</time>
      </trkpt>
      <trkpt lat="45.99619" lon="4.90317">
        <ele>302</ele>
        <time>2018-06-09T10:02:02Z</time>
      </trkpt>
      <trkpt lat="45.99614" lon="4.90316">
        <ele>302</ele>
        <time>2018-06-09T10:02:03Z</time>
      </trkpt>
      <trkpt lat="45.99608" lon="4.90315">
        <ele>301</ele>
        <time>2018-06-09T10:02:04Z</time>
      </trkpt>
      <trkpt lat="45.99603" lon="4.90315">
        <ele>301</ele>
        <time>2018-06-09T10:02:05Z</time>
      </trkpt>
      <trkpt lat="45.99598" lon="4.90315">
        <ele>301</ele>
        <time>2018-06-09T10:02:06Z</time>
      </trkpt>
      <trkpt lat="45.99592" lon="4.90314">
        <ele>301</ele>
        <time>2018-06-09T10:02:07Z</time>
      </trkpt>
      <trkpt lat="45.99585" lon="4.90313">
        <ele>301</ele>
        <time>2018-06-09T10:02:08Z</time>
      </trkpt>
      <trkpt lat="45.9958" lon="4.90312">
        <ele>301</ele>
        <time>2018-06-09T10:02:09Z</time>
      </trkpt>
      <trkpt lat="45.99574" lon="4.90313">
        <ele>301</ele>
        <time>2018-06-09T10:02:10Z</time>
      </trkpt>
      <trkpt lat="45.99569" lon="4.90311">
        <ele>301</ele>
        <time>2018-06-09T10:02:11Z</time>
      </trkpt>
      <trkpt lat="45.99563" lon="4.90311">
        <ele>300</ele>
        <time>2018-06-09T10:02:12Z</time>
      </trkpt>
      <trkpt lat="45.99557" lon="4.90311">
        <ele>300</ele>
        <time>2018-06-09T10:02:13Z</time>
      </trkpt>
      <trkpt lat="45.99551" lon="4.9031">
        <ele>300</ele>
        <time>2018-06-09T10:02:14Z</time>
      </trkpt>
      <trkpt lat="45.99545" lon="4.90309">
        <ele>300</ele>
        <time>2018-06-09T10:02:15Z</time>
      </trkpt>
      <trkpt lat="45.99539" lon="4.9031">
        <ele>300</ele>
        <time>2018-06-09T10:02:16Z</time>
      </trkpt>
      <trkpt lat="45.99533" lon="4.90308">
        <ele>300</ele>
        <time>2018-06-09T10:02:17Z</time>
      </trkpt>
      <trkpt lat="45.99528" lon="4.90308">
        <ele>300</ele>
        <time>2018-06-09T10:02:18Z</time>
      </trkpt>
      <trkpt lat="45.99522" lon="4.90307">
        <ele>300</ele>
        <time>2018-06-09T10:02:19Z</time>
      </trkpt>
      <trkpt lat="45.99517" lon="4.90307">
        <ele>300</ele>
        <time>2018-06-09T10:02:20Z</time>
      </trkpt>
      <trkpt lat="45.99512" lon="4.90307">
        <ele>300</ele>
        <time>2018-06-09T10:02:21Z</time>
      </trkpt>
      <trkpt lat="45.99507" lon="4.90306">
        <ele>300</ele>
        <time>2018-06-09T10:02:22Z</time>
      </trkpt>
      <trkpt lat="45.995" lon="4.90308">
        <ele>300</ele>
        <time>2018-06-09T10:02:23Z</time>
      </trkpt>
      <trkpt lat="45.99494" lon="4.90309">
        <ele>300</ele>
        <time>2018-06-09T10:02:24Z</time>
      </trkpt>
      <trkpt lat="45.99488" lon="4.90307">
        <ele>300</ele>
        <time>2018-06-09T10:02:25Z</time>
      </trkpt>
      <trkpt lat="45.99483" lon="4.90306">
        <ele>300</ele>
        <time>2018-06-09T10:02:26Z</time>
      </trkpt>
      <trkpt lat="45.99476" lon="4.90306">
        <ele>300</ele>
        <time>2018-06-09T10:02:27Z</time>
      </trkpt>
      <trkpt lat="45.99472" lon="4.90305">
        <ele>300</ele>
        <time>2018-06-09T10:02:28Z</time>
      </trkpt>
      <trkpt lat="45.99466" lon="4.90304">
        <ele>300</ele>
        <time>2018-06-09T10:02:29Z</time>
      </trkpt>
      <trkpt lat="45.99461" lon="4.90304">
        <ele>300</ele>
        <time>2018-06-09T10:02:30Z</time>
      </trkpt>
      <trkpt lat="45.99456" lon="4.90303">
        <ele>300</ele>
        <time>2018-06-09T10:02:31Z</time>
      </trkpt>
      <trkpt lat="45.99451" lon="4.90301">
        <ele>300</ele>
        <time>2018-06-09T10:02:32Z</time>
      </trkpt>
      <trkpt lat="45.99445" lon="4.90301">
        <ele>300</ele>
        <time>2018-06-09T10:02:33Z</time>
      </trkpt>
      <trkpt lat="45.9944" lon="4.90299">
        <ele>300</ele>
        <time>2018-06-09T10:02:34Z</time>
      </trkpt>
      <trkpt lat="45.99435" lon="4.90299">
        <ele>300</ele>
        <time>2018-06-09T10:02:35Z</time>
      </trkpt>
      <trkpt lat="45.99428" lon="4.90298">
        <ele>300</ele>
        <time>2018-06-09T10:02:36Z</time>
      </trkpt>
      <trkpt lat="45.99423" lon="4.90299">
        <ele>300</ele>
        <time>2018-06-09T10:02:37Z</time>
      </trkpt>
      <trkpt lat="45.99417" lon="4.90298">
        <ele>300</ele>
        <time>2018-06-09T10:02:38Z</time>
      </trkpt>
      <trkpt lat="45.99411" lon="4.90296">
        <ele>300</ele>
        <time>2018-06-09T10:02:39Z</time>
      </trkpt>
      <trkpt lat="45.99405" lon="4.90295">
        <ele>300</ele>
        <time>2018-06-09T10:02:40Z</time>
      </trkpt>
      <trkpt lat="45.994" lon="4.90295">
        <ele>300</ele>
        <time>2018-06-09T10:02:41Z</time>
      </trkpt>
      <trkpt lat="45.99394" lon="4.90295">
        <ele>300</ele>
        <time>2018-06-09T10:02:42Z</time>
      </trkpt>
      <trkpt lat="45.99389" lon="4.90294">
        <ele>300</ele>
        <time>2018-06-09T10:02:43Z</time>
      </trkpt>
      <trkpt lat="45.99384" lon="4.90292">
        <ele>300</ele>
        <time>2018-06-09T10:02:44Z</time>
      </trkpt>
      <trkpt lat="45.9938" lon="4.90291">
        <ele>299</ele>
        <time>2018-06-09T10:02:45Z</time>
      </trkpt>
      <trkpt lat="45.99371" lon="4.9029">
        <ele>299</ele>
        <time>2018-06-09T10:02:47Z</time>
      </trkpt>
      <trkpt lat="45.99366" lon="4.9029">
        <ele>299</ele>
        <time>2018-06-09T10:02:48Z</time>
      </trkpt>
      <trkpt lat="45.9936" lon="4.90289">
        <ele>299</ele>
        <time>2018-06-09T10:02:49Z</time>
      </trkpt>
      <trkpt lat="45.99354" lon="4.90288">
        <ele>299</ele>
        <time>2018-06-09T10:02:50Z</time>
      </trkpt>
      <trkpt lat="45.99348" lon="4.90289">
        <ele>299</ele>
        <time>2018-06-09T10:02:51Z</time>
      </trkpt>
      <trkpt lat="45.99343" lon="4.90288">
        <ele>299</ele>
        <time>2018-06-09T10:02:52Z</time>
      </trkpt>
      <trkpt lat="45.99337" lon="4.90287">
        <ele>299</ele>
        <time>2018-06-09T10:02:53Z</time>
      </trkpt>
      <trkpt lat="45.99333" lon="4.90287">
        <ele>299</ele>
        <time>2018-06-09T10:02:54Z</time>
      </trkpt>
      <trkpt lat="45.99329" lon="4.90286">
        <ele>299</ele>
        <time>2018-06-09T10:02:55Z</time>
      </trkpt>
      <trkpt lat="45.99325" lon="4.90282">
        <ele>299</ele>
        <time>2018-06-09T10:02:56Z</time>
      </trkpt>
      <trkpt lat="45.99321" lon="4.90276">
        <ele>299</ele>
        <time>2018-06-09T10:02:57Z</time>
      </trkpt>
      <trkpt lat="45.99317" lon="4.9027">
        <ele>299</ele>
        <time>2018-06-09T10:02:58Z</time>
      </trkpt>
      <trkpt lat="45.99315" lon="4.90264">
        <ele>299</ele>
        <time>2018-06-09T10:02:59Z</time>
      </trkpt>
      <trkpt lat="45.99312" lon="4.90258">
        <ele>299</ele>
        <time>2018-06-09T10:03:00Z</time>
      </trkpt>
      <trkpt lat="45.99309" lon="4.90252">
        <ele>299</ele>
        <time>2018-06-09T10:03:01Z</time>
      </trkpt>
      <trkpt lat="45.99304" lon="4.90247">
        <ele>298</ele>
        <time>2018-06-09T10:03:02Z</time>
      </trkpt>
      <trkpt lat="45.99301" lon="4.90241">
        <ele>298</ele>
        <time>2018-06-09T10:03:03Z</time>
      </trkpt>
      <trkpt lat="45.99297" lon="4.90237">
        <ele>298</ele>
        <time>2018-06-09T10:03:04Z</time>
      </trkpt>
      <trkpt lat="45.99293" lon="4.90231">
        <ele>298</ele>
        <time>2018-06-09T10:03:05Z</time>
      </trkpt>
      <trkpt lat="45.9929" lon="4.90224">
        <ele>298</ele>
        <time>2018-06-09T10:03:06Z</time>
      </trkpt>
      <trkpt lat="45.99286" lon="4.90217">
        <ele>298</ele>
        <time>2018-06-09T10:03:07Z</time>
      </trkpt>
      <trkpt lat="45.99282" lon="4.90211">
        <ele>298</ele>
        <time>2018-06-09T10:03:08Z</time>
      </trkpt>
      <trkpt lat="45.99278" lon="4.90205">
        <ele>298</ele>
        <time>2018-06-09T10:03:09Z</time>
      </trkpt>
      <trkpt lat="45.99273" lon="4.90201">
        <ele>298</ele>
        <time>2018-06-09T10:03:10Z</time>
      </trkpt>
      <trkpt lat="45.99269" lon="4.90196">
        <ele>298</ele>
        <time>2018-06-09T10:03:11Z</time>
      </trkpt>
      <trkpt lat="45.99266" lon="4.9019">
        <ele>298</ele>
        <time>2018-06-09T10:03:12Z</time>
      </trkpt>
      <trkpt lat="45.99262" lon="4.90186">
        <ele>298</ele>
        <time>2018-06-09T10:03:13Z</time>
      </trkpt>
      <trkpt lat="45.99258" lon="4.90181">
        <ele>297</ele>
        <time>2018-06-09T10:03:14Z</time>
      </trkpt>
      <trkpt lat="45.99255" lon="4.90175">
        <ele>297</ele>
        <time>2018-06-09T10:03:15Z</time>
      </trkpt>
      <trkpt lat="45.99253" lon="4.9017">
        <ele>297</ele>
        <time>2018-06-09T10:03:16Z</time>
      </trkpt>
      <trkpt lat="45.99248" lon="4.90165">
        <ele>297</ele>
        <time>2018-06-09T10:03:17Z</time>
      </trkpt>
      <trkpt lat="45.99245" lon="4.90161">
        <ele>297</ele>
        <time>2018-06-09T10:03:18Z</time>
      </trkpt>
      <trkpt lat="45.99239" lon="4.90152">
        <ele>297</ele>
        <time>2018-06-09T10:03:20Z</time>
      </trkpt>
      <trkpt lat="45.99235" lon="4.90148">
        <ele>297</ele>
        <time>2018-06-09T10:03:21Z</time>
      </trkpt>
      <trkpt lat="45.9923" lon="4.9014">
        <ele>297</ele>
        <time>2018-06-09T10:03:23Z</time>
      </trkpt>
      <trkpt lat="45.99226" lon="4.90134">
        <ele>297</ele>
        <time>2018-06-09T10:03:24Z</time>
      </trkpt>
      <trkpt lat="45.99223" lon="4.90129">
        <ele>297</ele>
        <time>2018-06-09T10:03:25Z</time>
      </trkpt>
      <trkpt lat="45.99219" lon="4.90127">
        <ele>297</ele>
        <time>2018-06-09T10:03:26Z</time>
      </trkpt>
      <trkpt lat="45.99212" lon="4.9012">
        <ele>297</ele>
        <time>2018-06-09T10:03:28Z</time>
      </trkpt>
      <trkpt lat="45.99208" lon="4.90116">
        <ele>297</ele>
        <time>2018-06-09T10:03:29Z</time>
      </trkpt>
      <trkpt lat="45.99202" lon="4.90109">
        <ele>297</ele>
        <time>2018-06-09T10:03:31Z</time>
      </trkpt>
      <trkpt lat="45.99198" lon="4.90104">
        <ele>297</ele>
        <time>2018-06-09T10:03:32Z</time>
      </trkpt>
      <trkpt lat="45.99194" lon="4.90098">
        <ele>297</ele>
        <time>2018-06-09T10:03:33Z</time>
      </trkpt>
      <trkpt lat="45.99191" lon="4.90092">
        <ele>297</ele>
        <time>2018-06-09T10:03:34Z</time>
      </trkpt>
      <trkpt lat="45.99186" lon="4.90082">
        <ele>297</ele>
        <time>2018-06-09T10:03:36Z</time>
      </trkpt>
      <trkpt lat="45.99183" lon="4.90077">
        <ele>297</ele>
        <time>2018-06-09T10:03:37Z</time>
      </trkpt>
      <trkpt lat="45.99178" lon="4.9007">
        <ele>297</ele>
        <time>2018-06-09T10:03:38Z</time>
      </trkpt>
      <trkpt lat="45.99173" lon="4.90066">
        <ele>297</ele>
        <time>2018-06-09T10:03:39Z</time>
      </trkpt>
      <trkpt lat="45.9917" lon="4.90061">
        <ele>297</ele>
        <time>2018-06-09T10:03:40Z</time>
      </trkpt>
      <trkpt lat="45.99165" lon="4.90056">
        <ele>297</ele>
        <time>2018-06-09T10:03:41Z</time>
      </trkpt>
      <trkpt lat="45.99157" lon="4.90049">
        <ele>297</ele>
        <time>2018-06-09T10:03:43Z</time>
      </trkpt>
      <trkpt lat="45.99154" lon="4.90044">
        <ele>297</ele>
        <time>2018-06-09T10:03:44Z</time>
      </trkpt>
      <trkpt lat="45.9915" lon="4.90039">
        <ele>297</ele>
        <time>2018-06-09T10:03:45Z</time>
      </trkpt>
      <trkpt lat="45.99147" lon="4.90034">
        <ele>297</ele>
        <time>2018-06-09T10:03:46Z</time>
      </trkpt>
      <trkpt lat="45.99143" lon="4.90027">
        <ele>297</ele>
        <time>2018-06-09T10:03:48Z</time>
      </trkpt>
      <trkpt lat="45.9914" lon="4.90022">
        <ele>297</ele>
        <time>2018-06-09T10:03:49Z</time>
      </trkpt>
      <trkpt lat="45.99136" lon="4.90017">
        <ele>297</ele>
        <time>2018-06-09T10:03:50Z</time>
      </trkpt>
      <trkpt lat="45.99132" lon="4.90012">
        <ele>296</ele>
        <time>2018-06-09T10:03:51Z</time>
      </trkpt>
      <trkpt lat="45.99127" lon="4.90007">
        <ele>296</ele>
        <time>2018-06-09T10:03:52Z</time>
      </trkpt>
      <trkpt lat="45.99122" lon="4.90003">
        <ele>296</ele>
        <time>2018-06-09T10:03:53Z</time>
      </trkpt>
      <trkpt lat="45.99118" lon="4.89997">
        <ele>295</ele>
        <time>2018-06-09T10:03:54Z</time>
      </trkpt>
      <trkpt lat="45.99113" lon="4.89991">
        <ele>295</ele>
        <time>2018-06-09T10:03:55Z</time>
      </trkpt>
      <trkpt lat="45.99109" lon="4.89986">
        <ele>295</ele>
        <time>2018-06-09T10:03:56Z</time>
      </trkpt>
      <trkpt lat="45.99105" lon="4.8998">
        <ele>295</ele>
        <time>2018-06-09T10:03:57Z</time>
      </trkpt>
      <trkpt lat="45.991" lon="4.89975">
        <ele>295</ele>
        <time>2018-06-09T10:03:58Z</time>
      </trkpt>
      <trkpt lat="45.99096" lon="4.89969">
        <ele>295</ele>
        <time>2018-06-09T10:03:59Z</time>
      </trkpt>
      <trkpt lat="45.99092" lon="4.89962">
        <ele>295</ele>
        <time>2018-06-09T10:04:00Z</time>
      </trkpt>
      <trkpt lat="45.99087" lon="4.89957">
        <ele>295</ele>
        <time>2018-06-09T10:04:01Z</time>
      </trkpt>
      <trkpt lat="45.99083" lon="4.89951">
        <ele>294</ele>
        <time>2018-06-09T10:04:02Z</time>
      </trkpt>
      <trkpt lat="45.99079" lon="4.89946">
        <ele>294</ele>
        <time>2018-06-09T10:04:03Z</time>
      </trkpt>
      <trkpt lat="45.99075" lon="4.8994">
        <ele>294</ele>
        <time>2018-06-09T10:04:04Z</time>
      </trkpt>
      <trkpt lat="45.9907" lon="4.89934">
        <ele>294</ele>
        <time>2018-06-09T10:04:05Z</time>
      </trkpt>
      <trkpt lat="45.99067" lon="4.89928">
        <ele>294</ele>
        <time>2018-06-09T10:04:06Z</time>
      </trkpt>
      <trkpt lat="45.99062" lon="4.89924">
        <ele>294</ele>
        <time>2018-06-09T10:04:07Z</time>
      </trkpt>
      <trkpt lat="45.99058" lon="4.89917">
        <ele>294</ele>
        <time>2018-06-09T10:04:08Z</time>
      </trkpt>
      <trkpt lat="45.99053" lon="4.89911">
        <ele>293</ele>
        <time>2018-06-09T10:04:09Z</time>
      </trkpt>
      <trkpt lat="45.99049" lon="4.89906">
        <ele>293</ele>
        <time>2018-06-09T10:04:10Z</time>
      </trkpt>
      <trkpt lat="45.99046" lon="4.89901">
        <ele>293</ele>
        <time>2018-06-09T10:04:11Z</time>
      </trkpt>
      <trkpt lat="45.99042" lon="4.89896">
        <ele>293</ele>
        <time>2018-06-09T10:04:12Z</time>
      </trkpt>
      <trkpt lat="45.99039" lon="4.89889">
        <ele>293</ele>
        <time>2018-06-09T10:04:13Z</time>
      </trkpt>
      <trkpt lat="45.99035" lon="4.89883">
        <ele>293</ele>
        <time>2018-06-09T10:04:14Z</time>
      </trkpt>
      <trkpt lat="45.9903" lon="4.89878">
        <ele>293</ele>
        <time>2018-06-09T10:04:15Z</time>
      </trkpt>
      <trkpt lat="45.99026" lon="4.89873">
        <ele>293</ele>
        <time>2018-06-09T10:04:16Z</time>
      </trkpt>
      <trkpt lat="45.99023" lon="4.89868">
        <ele>293</ele>
        <time>2018-06-09T10:04:17Z</time>
      </trkpt>
      <trkpt lat="45.99019" lon="4.89862">
        <ele>293</ele>
        <time>2018-06-09T10:04:18Z</time>
      </trkpt>
      <trkpt lat="45.99014" lon="4.89856">
        <ele>293</ele>
        <time>2018-06-09T10:04:19Z</time>
      </trkpt>
      <trkpt lat="45.9901" lon="4.89851">
        <ele>293</ele>
        <time>2018-06-09T10:04:20Z</time>
      </trkpt>
      <trkpt lat="45.99005" lon="4.89844">
        <ele>293</ele>
        <time>2018-06-09T10:04:21Z</time>
      </trkpt>
      <trkpt lat="45.99001" lon="4.89838">
        <ele>293</ele>
        <time>2018-06-09T10:04:22Z</time>
      </trkpt>
      <trkpt lat="45.98995" lon="4.89832">
        <ele>293</ele>
        <time>2018-06-09T10:04:23Z</time>
      </trkpt>
      <trkpt lat="45.98991" lon="4.89826">
        <ele>293</ele>
        <time>2018-06-09T10:04:24Z</time>
      </trkpt>
      <trkpt lat="45.98987" lon="4.89821">
        <ele>293</ele>
        <time>2018-06-09T10:04:25Z</time>
      </trkpt>
      <trkpt lat="45.98982" lon="4.89815">
        <ele>293</ele>
        <time>2018-06-09T10:04:26Z</time>
      </trkpt>
      <trkpt lat="45.98977" lon="4.8981">
        <ele>293</ele>
        <time>2018-06-09T10:04:27Z</time>
      </trkpt>
      <trkpt lat="45.98973" lon="4.89805">
        <ele>293</ele>
        <time>2018-06-09T10:04:28Z</time>
      </trkpt>
      <trkpt lat="45.98968" lon="4.89799">
        <ele>293</ele>
        <time>2018-06-09T10:04:29Z</time>
      </trkpt>
      <trkpt lat="45.98963" lon="4.89795">
        <ele>293</ele>
        <time>2018-06-09T10:04:30Z</time>
      </trkpt>
      <trkpt lat="45.98958" lon="4.89791">
        <ele>293</ele>
        <time>2018-06-09T10:04:31Z</time>
      </trkpt>
      <trkpt lat="45.98953" lon="4.89787">
        <ele>293</ele>
        <time>2018-06-09T10:04:32Z</time>
      </trkpt>
      <trkpt lat="45.98949" lon="4.89783">
        <ele>293</ele>
        <time>2018-06-09T10:04:33Z</time>
      </trkpt>
      <trkpt lat="45.98944" lon="4.89777">
        <ele>293</ele>
        <time>2018-06-09T10:04:34Z</time>
      </trkpt>
      <trkpt lat="45.98938" lon="4.89773">
        <ele>293</ele>
        <time>2018-06-09T10:04:35Z</time>
      </trkpt>
      <trkpt lat="45.98933" lon="4.89773">
        <ele>293</ele>
        <time>2018-06-09T10:04:36Z</time>
      </trkpt>
      <trkpt lat="45.98928" lon="4.89769">
        <ele>293</ele>
        <time>2018-06-09T10:04:37Z</time>
      </trkpt>
      <trkpt lat="45.98924" lon="4.89765">
        <ele>293</ele>
        <time>2018-06-09T10:04:38Z</time>
      </trkpt>
      <trkpt lat="45.98919" lon="4.89761">
        <ele>293</ele>
        <time>2018-06-09T10:04:39Z</time>
      </trkpt>
      <trkpt lat="45.98915" lon="4.89759">
        <ele>293</ele>
        <time>2018-06-09T10:04:40Z</time>
      </trkpt>
      <trkpt lat="45.9891" lon="4.89756">
        <ele>293</ele>
        <time>2018-06-09T10:04:41Z</time>
      </trkpt>
      <trkpt lat="45.98905" lon="4.89752">
        <ele>293</ele>
        <time>2018-06-09T10:04:42Z</time>
      </trkpt>
      <trkpt lat="45.98899" lon="4.89749">
        <ele>293</ele>
        <time>2018-06-09T10:04:43Z</time>
      </trkpt>
      <trkpt lat="45.98895" lon="4.89746">
        <ele>293</ele>
        <time>2018-06-09T10:04:44Z</time>
      </trkpt>
      <trkpt lat="45.9889" lon="4.89742">
        <ele>293</ele>
        <time>2018-06-09T10:04:45Z</time>
      </trkpt>
      <trkpt lat="45.98885" lon="4.89738">
        <ele>293</ele>
        <time>2018-06-09T10:04:46Z</time>
      </trkpt>
      <trkpt lat="45.9888" lon="4.89734">
        <ele>293</ele>
        <time>2018-06-09T10:04:47Z</time>
      </trkpt>
      <trkpt lat="45.98875" lon="4.8973">
        <ele>293</ele>
        <time>2018-06-09T10:04:48Z</time>
      </trkpt>
      <trkpt lat="45.9887" lon="4.89727">
        <ele>293</ele>
        <time>2018-06-09T10:04:49Z</time>
      </trkpt>
      <trkpt lat="45.98863" lon="4.89725">
        <ele>293</ele>
        <time>2018-06-09T10:04:50Z</time>
      </trkpt>
      <trkpt lat="45.98858" lon="4.89721">
        <ele>293</ele>
        <time>2018-06-09T10:04:51Z</time>
      </trkpt>
      <trkpt lat="45.98853" lon="4.89718">
        <ele>293</ele>
        <time>2018-06-09T10:04:52Z</time>
      </trkpt>
      <trkpt lat="45.98848" lon="4.89713">
        <ele>293</ele>
        <time>2018-06-09T10:04:53Z</time>
      </trkpt>
      <trkpt lat="45.98842" lon="4.89707">
        <ele>292</ele>
        <time>2018-06-09T10:04:54Z</time>
      </trkpt>
      <trkpt lat="45.98837" lon="4.89701">
        <ele>292</ele>
        <time>2018-06-09T10:04:55Z</time>
      </trkpt>
      <trkpt lat="45.98831" lon="4.89696">
        <ele>292</ele>
        <time>2018-06-09T10:04:56Z</time>
      </trkpt>
      <trkpt lat="45.98825" lon="4.8969">
        <ele>292</ele>
        <time>2018-06-09T10:04:57Z</time>
      </trkpt>
      <trkpt lat="45.9882" lon="4.89685">
        <ele>292</ele>
        <time>2018-06-09T10:04:58Z</time>
      </trkpt>
      <trkpt lat="45.98815" lon="4.8968">
        <ele>292</ele>
        <time>2018-06-09T10:04:59Z</time>
      </trkpt>
      <trkpt lat="45.98809" lon="4.89674">
        <ele>292</ele>
        <time>2018-06-09T10:05:00Z</time>
      </trkpt>
      <trkpt lat="45.98804" lon="4.89666">
        <ele>291</ele>
        <time>2018-06-09T10:05:01Z</time>
      </trkpt>
      <trkpt lat="45.98799" lon="4.8966">
        <ele>291</ele>
        <time>2018-06-09T10:05:02Z</time>
      </trkpt>
      <trkpt lat="45.98794" lon="4.89653">
        <ele>291</ele>
        <time>2018-06-09T10:05:03Z</time>
      </trkpt>
      <trkpt lat="45.9879" lon="4.89646">
        <ele>291</ele>
        <time>2018-06-09T10:05:04Z</time>
      </trkpt>
      <trkpt lat="45.98785" lon="4.89639">
        <ele>291</ele>
        <time>2018-06-09T10:05:05Z</time>
      </trkpt>
      <trkpt lat="45.98781" lon="4.89632">
        <ele>291</ele>
        <time>2018-06-09T10:05:06Z</time>
      </trkpt>
      <trkpt lat="45.98776" lon="4.89625">
        <ele>291</ele>
        <time>2018-06-09T10:05:07Z</time>
      </trkpt>
      <trkpt lat="45.98771" lon="4.89618">
        <ele>291</ele>
        <time>2018-06-09T10:05:08Z</time>
      </trkpt>
      <trkpt lat="45.98766" lon="4.89612">
        <ele>291</ele>
        <time>2018-06-09T10:05:09Z</time>
      </trkpt>
      <trkpt lat="45.98762" lon="4.89604">
        <ele>291</ele>
        <time>2018-06-09T10:05:10Z</time>
      </trkpt>
      <trkpt lat="45.98757" lon="4.89597">
        <ele>291</ele>
        <time>2018-06-09T10:05:11Z</time>
      </trkpt>
      <trkpt lat="45.98752" lon="4.8959">
        <ele>291</ele>
        <time>2018-06-09T10:05:12Z</time>
      </trkpt>
      <trkpt lat="45.98747" lon="4.89584">
        <ele>291</ele>
        <time>2018-06-09T10:05:13Z</time>
      </trkpt>
      <trkpt lat="45.98741" lon="4.89578">
        <ele>290</ele>
        <time>2018-06-09T10:05:14Z</time>
      </trkpt>
      <trkpt lat="45.98737" lon="4.8957">
        <ele>290</ele>
        <time>2018-06-09T10:05:15Z</time>
      </trkpt>
      <trkpt lat="45.98731" lon="4.89563">
        <ele>290</ele>
        <time>2018-06-09T10:05:16Z</time>
      </trkpt>
      <trkpt lat="45.98726" lon="4.89556">
        <ele>290</ele>
        <time>2018-06-09T10:05:17Z</time>
      </trkpt>
      <trkpt lat="45.98721" lon="4.89549">
        <ele>290</ele>
        <time>2018-06-09T10:05:18Z</time>
      </trkpt>
      <trkpt lat="45.98717" lon="4.89542">
        <ele>290</ele>
        <time>2018-06-09T10:05:19Z</time>
      </trkpt>
      <trkpt lat="45.98713" lon="4.89536">
        <ele>289</ele>
        <time>2018-06-09T10:05:20Z</time>
      </trkpt>
      <trkpt lat="45.98709" lon="4.89529">
        <ele>289</ele>
        <time>2018-06-09T10:05:21Z</time>
      </trkpt>
      <trkpt lat="45.98705" lon="4.89523">
        <ele>289</ele>
        <time>2018-06-09T10:05:22Z</time>
      </trkpt>
      <trkpt lat="45.987" lon="4.89516">
        <ele>289</ele>
        <time>2018-06-09T10:05:23Z</time>
      </trkpt>
      <trkpt lat="45.98695" lon="4.8951">
        <ele>289</ele>
        <time>2018-06-09T10:05:24Z</time>
      </trkpt>
      <trkpt lat="45.9869" lon="4.89504">
        <ele>289</ele>
        <time>2018-06-09T10:05:25Z</time>
      </trkpt>
      <trkpt lat="45.98687" lon="4.89499">
        <ele>289</ele>
        <time>2018-06-09T10:05:26Z</time>
      </trkpt>
      <trkpt lat="45.98682" lon="4.89493">
        <ele>289</ele>
        <time>2018-06-09T10:05:27Z</time>
      </trkpt>
      <trkpt lat="45.98678" lon="4.89489">
        <ele>289</ele>
        <time>2018-06-09T10:05:28Z</time>
      </trkpt>
      <trkpt lat="45.98674" lon="4.89483">
        <ele>289</ele>
        <time>2018-06-09T10:05:29Z</time>
      </trkpt>
      <trkpt lat="45.98669" lon="4.89477">
        <ele>289</ele>
        <time>2018-06-09T10:05:30Z</time>
      </trkpt>
      <trkpt lat="45.98664" lon="4.89471">
        <ele>290</ele>
        <time>2018-06-09T10:05:31Z</time>
      </trkpt>
      <trkpt lat="45.98659" lon="4.89464">
        <ele>290</ele>
        <time>2018-06-09T10:05:32Z</time>
      </trkpt>
      <trkpt lat="45.98653" lon="4.89458">
        <ele>290</ele>
        <time>2018-06-09T10:05:33Z</time>
      </trkpt>
      <trkpt lat="45.98648" lon="4.89452">
        <ele>290</ele>
        <time>2018-06-09T10:05:34Z</time>
      </trkpt>
      <trkpt lat="45.98642" lon="4.89446">
        <ele>291</ele>
        <time>2018-06-09T10:05:35Z</time>
      </trkpt>
      <trkpt lat="45.98637" lon="4.8944">
        <ele>291</ele>
        <time>2018-06-09T10:05:36Z</time>
      </trkpt>
      <trkpt lat="45.98632" lon="4.89435">
        <ele>291</ele>
        <time>2018-06-09T10:05:37Z</time>
      </trkpt>
      <trkpt lat="45.98627" lon="4.89429">
        <ele>291</ele>
        <time>2018-06-09T10:05:38Z</time>
      </trkpt>
      <trkpt lat="45.98621" lon="4.89424">
        <ele>291</ele>
        <time>2018-06-09T10:05:39Z</time>
      </trkpt>
      <trkpt lat="45.98616" lon="4.89417">
        <ele>292</ele>
        <time>2018-06-09T10:05:40Z</time>
      </trkpt>
      <trkpt lat="45.98612" lon="4.89412">
        <ele>291</ele>
        <time>2018-06-09T10:05:41Z</time>
      </trkpt>
      <trkpt lat="45.98607" lon="4.89407">
        <ele>291</ele>
        <time>2018-06-09T10:05:42Z</time>
      </trkpt>
      <trkpt lat="45.98603" lon="4.89402">
        <ele>292</ele>
        <time>2018-06-09T10:05:43Z</time>
      </trkpt>
      <trkpt lat="45.98598" lon="4.89396">
        <ele>292</ele>
        <time>2018-06-09T10:05:44Z</time>
      </trkpt>
      <trkpt lat="45.98594" lon="4.89392">
        <ele>292</ele>
        <time>2018-06-09T10:05:45Z</time>
      </trkpt>
      <trkpt lat="45.98589" lon="4.89388">
        <ele>292</ele>
        <time>2018-06-09T10:05:46Z</time>
      </trkpt>
      <trkpt lat="45.98585" lon="4.89384">
        <ele>291</ele>
        <time>2018-06-09T10:05:47Z</time>
      </trkpt>
      <trkpt lat="45.98581" lon="4.8938">
        <ele>295</ele>
        <time>2018-06-09T10:05:48Z</time>
      </trkpt>
      <trkpt lat="45.98577" lon="4.89375">
        <ele>295</ele>
        <time>2018-06-09T10:05:49Z</time>
      </trkpt>
      <trkpt lat="45.98573" lon="4.8937">
        <ele>295</ele>
        <time>2018-06-09T10:05:50Z</time>
      </trkpt>
      <trkpt lat="45.98569" lon="4.89367">
        <ele>295</ele>
        <time>2018-06-09T10:05:51Z</time>
      </trkpt>
      <trkpt lat="45.9856" lon="4.89363">
        <ele>295</ele>
        <time>2018-06-09T10:05:53Z</time>
      </trkpt>
      <trkpt lat="45.98558" lon="4.89359">
        <ele>295</ele>
        <time>2018-06-09T10:05:54Z</time>
      </trkpt>
      <trkpt lat="45.98554" lon="4.89354">
        <ele>295</ele>
        <time>2018-06-09T10:05:55Z</time>
      </trkpt>
      <trkpt lat="45.9855" lon="4.89349">
        <ele>295</ele>
        <time>2018-06-09T10:05:56Z</time>
      </trkpt>
      <trkpt lat="45.98546" lon="4.89343">
        <ele>295</ele>
        <time>2018-06-09T10:05:57Z</time>
      </trkpt>
      <trkpt lat="45.98543" lon="4.89338">
        <ele>295</ele>
        <time>2018-06-09T10:05:58Z</time>
      </trkpt>
      <trkpt lat="45.98539" lon="4.89334">
        <ele>295</ele>
        <time>2018-06-09T10:05:59Z</time>
      </trkpt>
      <trkpt lat="45.98534" lon="4.89328">
        <ele>293</ele>
        <time>2018-06-09T10:06:00Z</time>
      </trkpt>
      <trkpt lat="45.98531" lon="4.89322">
        <ele>293</ele>
        <time>2018-06-09T10:06:01Z</time>
      </trkpt>
      <trkpt lat="45.98525" lon="4.89316">
        <ele>293</ele>
        <time>2018-06-09T10:06:02Z</time>
      </trkpt>
      <trkpt lat="45.9852" lon="4.8931">
        <ele>293</ele>
        <time>2018-06-09T10:06:03Z</time>
      </trkpt>
      <trkpt lat="45.98517" lon="4.89304">
        <ele>293</ele>
        <time>2018-06-09T10:06:04Z</time>
      </trkpt>
      <trkpt lat="45.98514" lon="4.89295">
        <ele>292</ele>
        <time>2018-06-09T10:06:05Z</time>
      </trkpt>
      <trkpt lat="45.98509" lon="4.89289">
        <ele>292</ele>
        <time>2018-06-09T10:06:06Z</time>
      </trkpt>
      <trkpt lat="45.98504" lon="4.89283">
        <ele>292</ele>
        <time>2018-06-09T10:06:07Z</time>
      </trkpt>
      <trkpt lat="45.985" lon="4.89277">
        <ele>292</ele>
        <time>2018-06-09T10:06:08Z</time>
      </trkpt>
      <trkpt lat="45.98497" lon="4.8927">
        <ele>291</ele>
        <time>2018-06-09T10:06:09Z</time>
      </trkpt>
      <trkpt lat="45.98492" lon="4.89263">
        <ele>291</ele>
        <time>2018-06-09T10:06:10Z</time>
      </trkpt>
      <trkpt lat="45.98487" lon="4.89256">
        <ele>291</ele>
        <time>2018-06-09T10:06:11Z</time>
      </trkpt>
      <trkpt lat="45.98485" lon="4.89248">
        <ele>289</ele>
        <time>2018-06-09T10:06:12Z</time>
      </trkpt>
      <trkpt lat="45.98483" lon="4.89239">
        <ele>289</ele>
        <time>2018-06-09T10:06:13Z</time>
      </trkpt>
      <trkpt lat="45.98481" lon="4.8923">
        <ele>289</ele>
        <time>2018-06-09T10:06:14Z</time>
      </trkpt>
      <trkpt lat="45.98476" lon="4.89223">
        <ele>289</ele>
        <time>2018-06-09T10:06:15Z</time>
      </trkpt>
      <trkpt lat="45.98472" lon="4.89217">
        <ele>289</ele>
        <time>2018-06-09T10:06:16Z</time>
      </trkpt>
      <trkpt lat="45.98467" lon="4.89209">
        <ele>289</ele>
        <time>2018-06-09T10:06:17Z</time>
      </trkpt>
      <trkpt lat="45.9846" lon="4.892">
        <ele>289</ele>
        <time>2018-06-09T10:06:18Z</time>
      </trkpt>
      <trkpt lat="45.98454" lon="4.89194">
        <ele>289</ele>
        <time>2018-06-09T10:06:19Z</time>
      </trkpt>
      <trkpt lat="45.98449" lon="4.89186">
        <ele>288</ele>
        <time>2018-06-09T10:06:20Z</time>
      </trkpt>
      <trkpt lat="45.98444" lon="4.89177">
        <ele>288</ele>
        <time>2018-06-09T10:06:21Z</time>
      </trkpt>
      <trkpt lat="45.9844" lon="4.89167">
        <ele>288</ele>
        <time>2018-06-09T10:06:22Z</time>
      </trkpt>
      <trkpt lat="45.98436" lon="4.89158">
        <ele>288</ele>
        <time>2018-06-09T10:06:23Z</time>
      </trkpt>
      <trkpt lat="45.98431" lon="4.8915">
        <ele>288</ele>
        <time>2018-06-09T10:06:24Z</time>
      </trkpt>
      <trkpt lat="45.98429" lon="4.89141">
        <ele>288</ele>
        <time>2018-06-09T10:06:25Z</time>
      </trkpt>
      <trkpt lat="45.98425" lon="4.89134">
        <ele>288</ele>
        <time>2018-06-09T10:06:26Z</time>
      </trkpt>
      <trkpt lat="45.98422" lon="4.89123">
        <ele>288</ele>
        <time>2018-06-09T10:06:27Z</time>
      </trkpt>
      <trkpt lat="45.98417" lon="4.89115">
        <ele>286</ele>
        <time>2018-06-09T10:06:28Z</time>
      </trkpt>
      <trkpt lat="45.98412" lon="4.89107">
        <ele>286</ele>
        <time>2018-06-09T10:06:29Z</time>
      </trkpt>
      <trkpt lat="45.98406" lon="4.89097">
        <ele>286</ele>
        <time>2018-06-09T10:06:30Z</time>
      </trkpt>
      <trkpt lat="45.98402" lon="4.89089">
        <ele>286</ele>
        <time>2018-06-09T10:06:31Z</time>
      </trkpt>
      <trkpt lat="45.98397" lon="4.89081">
        <ele>286</ele>
        <time>2018-06-09T10:06:32Z</time>
      </trkpt>
      <trkpt lat="45.98393" lon="4.89073">
        <ele>285</ele>
        <time>2018-06-09T10:06:33Z</time>
      </trkpt>
      <trkpt lat="45.9839" lon="4.89066">
        <ele>285</ele>
        <time>2018-06-09T10:06:34Z</time>
      </trkpt>
      <trkpt lat="45.98387" lon="4.89057">
        <ele>285</ele>
        <time>2018-06-09T10:06:35Z</time>
      </trkpt>
      <trkpt lat="45.98384" lon="4.89046">
        <ele>284</ele>
        <time>2018-06-09T10:06:36Z</time>
      </trkpt>
      <trkpt lat="45.98381" lon="4.89036">
        <ele>284</ele>
        <time>2018-06-09T10:06:37Z</time>
      </trkpt>
      <trkpt lat="45.98379" lon="4.89025">
        <ele>284</ele>
        <time>2018-06-09T10:06:38Z</time>
      </trkpt>
      <trkpt lat="45.98375" lon="4.89015">
        <ele>284</ele>
        <time>2018-06-09T10:06:39Z</time>
      </trkpt>
      <trkpt lat="45.98371" lon="4.89005">
        <ele>284</ele>
        <time>2018-06-09T10:06:40Z</time>
      </trkpt>
      <trkpt lat="45.98369" lon="4.88994">
        <ele>283</ele>
        <time>2018-06-09T10:06:41Z</time>
      </trkpt>
      <trkpt lat="45.98367" lon="4.88983">
        <ele>283</ele>
        <time>2018-06-09T10:06:42Z</time>
      </trkpt>
      <trkpt lat="45.98364" lon="4.88971">
        <ele>282</ele>
        <time>2018-06-09T10:06:43Z</time>
      </trkpt>
      <trkpt lat="45.98361" lon="4.8896">
        <ele>282</ele>
        <time>2018-06-09T10:06:44Z</time>
      </trkpt>
      <trkpt lat="45.98359" lon="4.88949">
        <ele>282</ele>
        <time>2018-06-09T10:06:45Z</time>
      </trkpt>
      <trkpt lat="45.98356" lon="4.8894">
        <ele>282</ele>
        <time>2018-06-09T10:06:46Z</time>
      </trkpt>
      <trkpt lat="45.98353" lon="4.8893">
        <ele>281</ele>
        <time>2018-06-09T10:06:47Z</time>
      </trkpt>
      <trkpt lat="45.98352" lon="4.88921">
        <ele>281</ele>
        <time>2018-06-09T10:06:48Z</time>
      </trkpt>
      <trkpt lat="45.98349" lon="4.8891">
        <ele>280</ele>
        <time>2018-06-09T10:06:49Z</time>
      </trkpt>
      <trkpt lat="45.98347" lon="4.889">
        <ele>280</ele>
        <time>2018-06-09T10:06:50Z</time>
      </trkpt>
      <trkpt lat="45.98344" lon="4.8889">
        <ele>280</ele>
        <time>2018-06-09T10:06:51Z</time>
      </trkpt>
      <trkpt lat="45.98343" lon="4.88879">
        <ele>280</ele>
        <time>2018-06-09T10:06:52Z</time>
      </trkpt>
      <trkpt lat="45.98341" lon="4.88869">
        <ele>280</ele>
        <time>2018-06-09T10:06:53Z</time>
      </trkpt>
      <trkpt lat="45.98339" lon="4.88859">
        <ele>280</ele>
        <time>2018-06-09T10:06:54Z</time>
      </trkpt>
      <trkpt lat="45.98336" lon="4.8885">
        <ele>279</ele>
        <time>2018-06-09T10:06:55Z</time>
      </trkpt>
      <trkpt lat="45.98334" lon="4.8884">
        <ele>279</ele>
        <time>2018-06-09T10:06:56Z</time>
      </trkpt>
      <trkpt lat="45.98332" lon="4.88832">
        <ele>278</ele>
        <time>2018-06-09T10:06:57Z</time>
      </trkpt>
      <trkpt lat="45.98328" lon="4.88824">
        <ele>278</ele>
        <time>2018-06-09T10:06:58Z</time>
      </trkpt>
      <trkpt lat="45.98327" lon="4.88815">
        <ele>277</ele>
        <time>2018-06-09T10:06:59Z</time>
      </trkpt>
      <trkpt lat="45.98324" lon="4.88807">
        <ele>277</ele>
        <time>2018-06-09T10:07:00Z</time>
      </trkpt>
      <trkpt lat="45.98322" lon="4.88798">
        <ele>277</ele>
        <time>2018-06-09T10:07:01Z</time>
      </trkpt>
      <trkpt lat="45.9832" lon="4.88791">
        <ele>277</ele>
        <time>2018-06-09T10:07:02Z</time>
      </trkpt>
      <trkpt lat="45.98318" lon="4.88783">
        <ele>277</ele>
        <time>2018-06-09T10:07:03Z</time>
      </trkpt>
      <trkpt lat="45.98315" lon="4.88776">
        <ele>277</ele>
        <time>2018-06-09T10:07:04Z</time>
      </trkpt>
      <trkpt lat="45.98313" lon="4.88767">
        <ele>277</ele>
        <time>2018-06-09T10:07:05Z</time>
      </trkpt>
      <trkpt lat="45.98311" lon="4.88759">
        <ele>276</ele>
        <time>2018-06-09T10:07:06Z</time>
      </trkpt>
      <trkpt lat="45.9831" lon="4.88749">
        <ele>276</ele>
        <time>2018-06-09T10:07:07Z</time>
      </trkpt>
      <trkpt lat="45.98306" lon="4.88739">
        <ele>276</ele>
        <time>2018-06-09T10:07:08Z</time>
      </trkpt>
      <trkpt lat="45.98304" lon="4.8873">
        <ele>276</ele>
        <time>2018-06-09T10:07:09Z</time>
      </trkpt>
      <trkpt lat="45.98302" lon="4.88719">
        <ele>276</ele>
        <time>2018-06-09T10:07:10Z</time>
      </trkpt>
      <trkpt lat="45.98299" lon="4.8871">
        <ele>276</ele>
        <time>2018-06-09T10:07:11Z</time>
      </trkpt>
      <trkpt lat="45.98297" lon="4.88701">
        <ele>276</ele>
        <time>2018-06-09T10:07:12Z</time>
      </trkpt>
      <trkpt lat="45.98294" lon="4.88692">
        <ele>276</ele>
        <time>2018-06-09T10:07:13Z</time>
      </trkpt>
      <trkpt lat="45.98292" lon="4.88682">
        <ele>276</ele>
        <time>2018-06-09T10:07:14Z</time>
      </trkpt>
      <trkpt lat="45.9829" lon="4.88673">
        <ele>276</ele>
        <time>2018-06-09T10:07:15Z</time>
      </trkpt>
      <trkpt lat="45.98288" lon="4.88664">
        <ele>276</ele>
        <time>2018-06-09T10:07:16Z</time>
      </trkpt>
      <trkpt lat="45.98284" lon="4.88656">
        <ele>276</ele>
        <time>2018-06-09T10:07:17Z</time>
      </trkpt>
      <trkpt lat="45.98282" lon="4.88647">
        <ele>276</ele>
        <time>2018-06-09T10:07:18Z</time>
      </trkpt>
      <trkpt lat="45.9828" lon="4.8864">
        <ele>276</ele>
        <time>2018-06-09T10:07:19Z</time>
      </trkpt>
      <trkpt lat="45.98278" lon="4.8863">
        <ele>276</ele>
        <time>2018-06-09T10:07:20Z</time>
      </trkpt>
      <trkpt lat="45.98276" lon="4.88621">
        <ele>276</ele>
        <time>2018-06-09T10:07:21Z</time>
      </trkpt>
      <trkpt lat="45.98274" lon="4.88613">
        <ele>276</ele>
        <time>2018-06-09T10:07:22Z</time>
      </trkpt>
      <trkpt lat="45.98273" lon="4.88603">
        <ele>276</ele>
        <time>2018-06-09T10:07:23Z</time>
      </trkpt>
      <trkpt lat="45.9827" lon="4.88593">
        <ele>275</ele>
        <time>2018-06-09T10:07:24Z</time>
      </trkpt>
      <trkpt lat="45.98268" lon="4.88584">
        <ele>275</ele>
        <time>2018-06-09T10:07:25Z</time>
      </trkpt>
      <trkpt lat="45.98265" lon="4.88576">
        <ele>276</ele>
        <time>2018-06-09T10:07:26Z</time>
      </trkpt>
      <trkpt lat="45.98263" lon="4.88567">
        <ele>276</ele>
        <time>2018-06-09T10:07:27Z</time>
      </trkpt>
      <trkpt lat="45.9826" lon="4.88559">
        <ele>276</ele>
        <time>2018-06-09T10:07:28Z</time>
      </trkpt>
      <trkpt lat="45.98258" lon="4.88551">
        <ele>276</ele>
        <time>2018-06-09T10:07:29Z</time>
      </trkpt>
      <trkpt lat="45.98259" lon="4.88543">
        <ele>276</ele>
        <time>2018-06-09T10:07:30Z</time>
      </trkpt>
      <trkpt lat="45.98259" lon="4.88535">
        <ele>276</ele>
        <time>2018-06-09T10:07:31Z</time>
      </trkpt>
      <trkpt lat="45.98257" lon="4.88527">
        <ele>277</ele>
        <time>2018-06-09T10:07:32Z</time>
      </trkpt>
      <trkpt lat="45.98253" lon="4.88518">
        <ele>277</ele>
        <time>2018-06-09T10:07:33Z</time>
      </trkpt>
      <trkpt lat="45.98252" lon="4.8851">
        <ele>277</ele>
        <time>2018-06-09T10:07:34Z</time>
      </trkpt>
      <trkpt lat="45.9825" lon="4.88502">
        <ele>277</ele>
        <time>2018-06-09T10:07:35Z</time>
      </trkpt>
      <trkpt lat="45.98249" lon="4.88494">
        <ele>277</ele>
        <time>2018-06-09T10:07:36Z</time>
      </trkpt>
      <trkpt lat="45.98247" lon="4.88486">
        <ele>276</ele>
        <time>2018-06-09T10:07:37Z</time>
      </trkpt>
      <trkpt lat="45.98243" lon="4.88477">
        <ele>276</ele>
        <time>2018-06-09T10:07:38Z</time>
      </trkpt>
      <trkpt lat="45.98241" lon="4.8847">
        <ele>276</ele>
        <time>2018-06-09T10:07:39Z</time>
      </trkpt>
      <trkpt lat="45.98238" lon="4.88461">
        <ele>276</ele>
        <time>2018-06-09T10:07:40Z</time>
      </trkpt>
      <trkpt lat="45.98237" lon="4.88453">
        <ele>276</ele>
        <time>2018-06-09T10:07:41Z</time>
      </trkpt>
      <trkpt lat="45.98233" lon="4.88444">
        <ele>276</ele>
        <time>2018-06-09T10:07:42Z</time>
      </trkpt>
      <trkpt lat="45.98231" lon="4.88435">
        <ele>276</ele>
        <time>2018-06-09T10:07:43Z</time>
      </trkpt>
      <trkpt lat="45.98228" lon="4.88426">
        <ele>276</ele>
        <time>2018-06-09T10:07:44Z</time>
      </trkpt>
      <trkpt lat="45.98227" lon="4.88417">
        <ele>276</ele>
        <time>2018-06-09T10:07:45Z</time>
      </trkpt>
      <trkpt lat="45.98224" lon="4.88408">
        <ele>275</ele>
        <time>2018-06-09T10:07:46Z</time>
      </trkpt>
      <trkpt lat="45.98219" lon="4.88397">
        <ele>275</ele>
        <time>2018-06-09T10:07:47Z</time>
      </trkpt>
      <trkpt lat="45.98216" lon="4.88387">
        <ele>275</ele>
        <time>2018-06-09T10:07:48Z</time>
      </trkpt>
      <trkpt lat="45.98215" lon="4.88378">
        <ele>275</ele>
        <time>2018-06-09T10:07:49Z</time>
      </trkpt>
      <trkpt lat="45.98215" lon="4.88369">
        <ele>275</ele>
        <time>2018-06-09T10:07:50Z</time>
      </trkpt>
      <trkpt lat="45.98214" lon="4.88359">
        <ele>275</ele>
        <time>2018-06-09T10:07:51Z</time>
      </trkpt>
      <trkpt lat="45.98213" lon="4.8835">
        <ele>275</ele>
        <time>2018-06-09T10:07:52Z</time>
      </trkpt>
      <trkpt lat="45.98212" lon="4.88341">
        <ele>275</ele>
        <time>2018-06-09T10:07:53Z</time>
      </trkpt>
      <trkpt lat="45.98213" lon="4.88331">
        <ele>274</ele>
        <time>2018-06-09T10:07:54Z</time>
      </trkpt>
      <trkpt lat="45.98213" lon="4.88322">
        <ele>274</ele>
        <time>2018-06-09T10:07:55Z</time>
      </trkpt>
      <trkpt lat="45.98212" lon="4.88312">
        <ele>274</ele>
        <time>2018-06-09T10:07:56Z</time>
      </trkpt>
      <trkpt lat="45.98213" lon="4.88304">
        <ele>274</ele>
        <time>2018-06-09T10:07:57Z</time>
      </trkpt>
      <trkpt lat="45.98211" lon="4.88294">
        <ele>274</ele>
        <time>2018-06-09T10:07:58Z</time>
      </trkpt>
      <trkpt lat="45.98209" lon="4.88285">
        <ele>274</ele>
        <time>2018-06-09T10:07:59Z</time>
      </trkpt>
      <trkpt lat="45.98207" lon="4.88276">
        <ele>274</ele>
        <time>2018-06-09T10:08:00Z</time>
      </trkpt>
      <trkpt lat="45.98205" lon="4.88266">
        <ele>274</ele>
        <time>2018-06-09T10:08:01Z</time>
      </trkpt>
      <trkpt lat="45.98202" lon="4.88257">
        <ele>274</ele>
        <time>2018-06-09T10:08:02Z</time>
      </trkpt>
      <trkpt lat="45.98199" lon="4.88247">
        <ele>273</ele>
        <time>2018-06-09T10:08:03Z</time>
      </trkpt>
      <trkpt lat="45.98196" lon="4.88238">
        <ele>273</ele>
        <time>2018-06-09T10:08:04Z</time>
      </trkpt>
      <trkpt lat="45.98194" lon="4.88229">
        <ele>273</ele>
        <time>2018-06-09T10:08:05Z</time>
      </trkpt>
      <trkpt lat="45.98192" lon="4.8822">
        <ele>273</ele>
        <time>2018-06-09T10:08:06Z</time>
      </trkpt>
      <trkpt lat="45.9819" lon="4.88212">
        <ele>273</ele>
        <time>2018-06-09T10:08:07Z</time>
      </trkpt>
      <trkpt lat="45.98186" lon="4.88204">
        <ele>273</ele>
        <time>2018-06-09T10:08:08Z</time>
      </trkpt>
      <trkpt lat="45.98184" lon="4.88197">
        <ele>273</ele>
        <time>2018-06-09T10:08:09Z</time>
      </trkpt>
      <trkpt lat="45.98182" lon="4.88189">
        <ele>273</ele>
        <time>2018-06-09T10:08:10Z</time>
      </trkpt>
      <trkpt lat="45.9818" lon="4.88183">
        <ele>273</ele>
        <time>2018-06-09T10:08:11Z</time>
      </trkpt>
      <trkpt lat="45.98177" lon="4.88174">
        <ele>273</ele>
        <time>2018-06-09T10:08:12Z</time>
      </trkpt>
      <trkpt lat="45.98174" lon="4.88166">
        <ele>273</ele>
        <time>2018-06-09T10:08:13Z</time>
      </trkpt>
      <trkpt lat="45.98173" lon="4.8816">
        <ele>273</ele>
        <time>2018-06-09T10:08:14Z</time>
      </trkpt>
      <trkpt lat="45.98171" lon="4.88153">
        <ele>273</ele>
        <time>2018-06-09T10:08:15Z</time>
      </trkpt>
      <trkpt lat="45.9817" lon="4.88145">
        <ele>273</ele>
        <time>2018-06-09T10:08:16Z</time>
      </trkpt>
      <trkpt lat="45.98167" lon="4.8814">
        <ele>273</ele>
        <time>2018-06-09T10:08:17Z</time>
      </trkpt>
      <trkpt lat="45.98165" lon="4.88132">
        <ele>274</ele>
        <time>2018-06-09T10:08:18Z</time>
      </trkpt>
      <trkpt lat="45.98162" lon="4.88124">
        <ele>274</ele>
        <time>2018-06-09T10:08:19Z</time>
      </trkpt>
      <trkpt lat="45.98159" lon="4.88117">
        <ele>274</ele>
        <time>2018-06-09T10:08:20Z</time>
      </trkpt>
      <trkpt lat="45.98159" lon="4.8811">
        <ele>274</ele>
        <time>2018-06-09T10:08:21Z</time>
      </trkpt>
      <trkpt lat="45.98157" lon="4.88102">
        <ele>274</ele>
        <time>2018-06-09T10:08:22Z</time>
      </trkpt>
      <trkpt lat="45.98155" lon="4.88095">
        <ele>274</ele>
        <time>2018-06-09T10:08:23Z</time>
      </trkpt>
      <trkpt lat="45.98151" lon="4.88088">
        <ele>274</ele>
        <time>2018-06-09T10:08:24Z</time>
      </trkpt>
      <trkpt lat="45.9815" lon="4.88082">
        <ele>274</ele>
        <time>2018-06-09T10:08:25Z</time>
      </trkpt>
      <trkpt lat="45.98149" lon="4.88075">
        <ele>275</ele>
        <time>2018-06-09T10:08:26Z</time>
      </trkpt>
      <trkpt lat="45.98147" lon="4.88069">
        <ele>275</ele>
        <time>2018-06-09T10:08:27Z</time>
      </trkpt>
      <trkpt lat="45.98145" lon="4.88062">
        <ele>275</ele>
        <time>2018-06-09T10:08:28Z</time>
      </trkpt>
      <trkpt lat="45.98141" lon="4.88057">
        <ele>275</ele>
        <time>2018-06-09T10:08:29Z</time>
      </trkpt>
      <trkpt lat="45.98139" lon="4.8805">
        <ele>275</ele>
        <time>2018-06-09T10:08:30Z</time>
      </trkpt>
      <trkpt lat="45.98136" lon="4.88038">
        <ele>276</ele>
        <time>2018-06-09T10:08:32Z</time>
      </trkpt>
      <trkpt lat="45.98133" lon="4.88031">
        <ele>276</ele>
        <time>2018-06-09T10:08:33Z</time>
      </trkpt>
      <trkpt lat="45.9813" lon="4.88024">
        <ele>276</ele>
        <time>2018-06-09T10:08:34Z</time>
      </trkpt>
      <trkpt lat="45.98129" lon="4.88018">
        <ele>276</ele>
        <time>2018-06-09T10:08:35Z</time>
      </trkpt>
      <trkpt lat="45.98126" lon="4.88006">
        <ele>276</ele>
        <time>2018-06-09T10:08:37Z</time>
      </trkpt>
      <trkpt lat="45.98126" lon="4.88">
        <ele>276</ele>
        <time>2018-06-09T10:08:38Z</time>
      </trkpt>
      <trkpt lat="45.98124" lon="4.87994">
        <ele>277</ele>
        <time>2018-06-09T10:08:39Z</time>
      </trkpt>
      <trkpt lat="45.98122" lon="4.87987">
        <ele>277</ele>
        <time>2018-06-09T10:08:40Z</time>
      </trkpt>
      <trkpt lat="45.98119" lon="4.87981">
        <ele>277</ele>
        <time>2018-06-09T10:08:41Z</time>
      </trkpt>
      <trkpt lat="45.98116" lon="4.87975">
        <ele>277</ele>
        <time>2018-06-09T10:08:42Z</time>
      </trkpt>
      <trkpt lat="45.98113" lon="4.87969">
        <ele>277</ele>
        <time>2018-06-09T10:08:43Z</time>
      </trkpt>
      <trkpt lat="45.98111" lon="4.87963">
        <ele>277</ele>
        <time>2018-06-09T10:08:44Z</time>
      </trkpt>
      <trkpt lat="45.98108" lon="4.87951">
        <ele>277</ele>
        <time>2018-06-09T10:08:46Z</time>
      </trkpt>
      <trkpt lat="45.98106" lon="4.87945">
        <ele>277</ele>
        <time>2018-06-09T10:08:47Z</time>
      </trkpt>
      <trkpt lat="45.98104" lon="4.87934">
        <ele>277</ele>
        <time>2018-06-09T10:08:49Z</time>
      </trkpt>
      <trkpt lat="45.98101" lon="4.87927">
        <ele>277</ele>
        <time>2018-06-09T10:08:50Z</time>
      </trkpt>
      <trkpt lat="45.98098" lon="4.87918">
        <ele>278</ele>
        <time>2018-06-09T10:08:52Z</time>
      </trkpt>
      <trkpt lat="45.98097" lon="4.87913">
        <ele>278</ele>
        <time>2018-06-09T10:08:53Z</time>
      </trkpt>
      <trkpt lat="45.98094" lon="4.87906">
        <ele>278</ele>
        <time>2018-06-09T10:08:54Z</time>
      </trkpt>
      <trkpt lat="45.98092" lon="4.879">
        <ele>278</ele>
        <time>2018-06-09T10:08:55Z</time>
      </trkpt>
      <trkpt lat="45.9809" lon="4.87893">
        <ele>278</ele>
        <time>2018-06-09T10:08:56Z</time>
      </trkpt>
      <trkpt lat="45.98089" lon="4.87887">
        <ele>278</ele>
        <time>2018-06-09T10:08:57Z</time>
      </trkpt>
      <trkpt lat="45.98087" lon="4.87881">
        <ele>278</ele>
        <time>2018-06-09T10:08:58Z</time>
      </trkpt>
      <trkpt lat="45.98085" lon="4.87875">
        <ele>278</ele>
        <time>2018-06-09T10:08:59Z</time>
      </trkpt>
      <trkpt lat="45.98082" lon="4.87863">
        <ele>280</ele>
        <time>2018-06-09T10:09:01Z</time>
      </trkpt>
      <trkpt lat="45.9808" lon="4.87856">
        <ele>280</ele>
        <time>2018-06-09T10:09:02Z</time>
      </trkpt>
      <trkpt lat="45.98075" lon="4.87846">
        <ele>279</ele>
        <time>2018-06-09T10:09:04Z</time>
      </trkpt>
      <trkpt lat="45.98074" lon="4.87841">
        <ele>279</ele>
        <time>2018-06-09T10:09:05Z</time>
      </trkpt>
      <trkpt lat="45.98073" lon="4.87829">
        <ele>279</ele>
        <time>2018-06-09T10:09:07Z</time>
      </trkpt>
      <trkpt lat="45.9807" lon="4.87822">
        <ele>279</ele>
        <time>2018-06-09T10:09:08Z</time>
      </trkpt>
      <trkpt lat="45.98068" lon="4.87816">
        <ele>280</ele>
        <time>2018-06-09T10:09:09Z</time>
      </trkpt>
      <trkpt lat="45.98066" lon="4.8781">
        <ele>280</ele>
        <time>2018-06-09T10:09:10Z</time>
      </trkpt>
      <trkpt lat="45.98061" lon="4.878">
        <ele>280</ele>
        <time>2018-06-09T10:09:12Z</time>
      </trkpt>
      <trkpt lat="45.98059" lon="4.87794">
        <ele>280</ele>
        <time>2018-06-09T10:09:13Z</time>
      </trkpt>
      <trkpt lat="45.9806" lon="4.87787">
        <ele>280</ele>
        <time>2018-06-09T10:09:14Z</time>
      </trkpt>
      <trkpt lat="45.98057" lon="4.8778">
        <ele>280</ele>
        <time>2018-06-09T10:09:15Z</time>
      </trkpt>
      <trkpt lat="45.98055" lon="4.87769">
        <ele>280</ele>
        <time>2018-06-09T10:09:17Z</time>
      </trkpt>
      <trkpt lat="45.98054" lon="4.87763">
        <ele>280</ele>
        <time>2018-06-09T10:09:18Z</time>
      </trkpt>
      <trkpt lat="45.98051" lon="4.87751">
        <ele>280</ele>
        <time>2018-06-09T10:09:20Z</time>
      </trkpt>
      <trkpt lat="45.98049" lon="4.87745">
        <ele>280</ele>
        <time>2018-06-09T10:09:21Z</time>
      </trkpt>
      <trkpt lat="45.98048" lon="4.87738">
        <ele>280</ele>
        <time>2018-06-09T10:09:22Z</time>
      </trkpt>
      <trkpt lat="45.98046" lon="4.87732">
        <ele>280</ele>
        <time>2018-06-09T10:09:23Z</time>
      </trkpt>
      <trkpt lat="45.98043" lon="4.87725">
        <ele>280</ele>
        <time>2018-06-09T10:09:24Z</time>
      </trkpt>
      <trkpt lat="45.98041" lon="4.87719">
        <ele>279</ele>
        <time>2018-06-09T10:09:25Z</time>
      </trkpt>
      <trkpt lat="45.9804" lon="4.87713">
        <ele>279</ele>
        <time>2018-06-09T10:09:26Z</time>
      </trkpt>
      <trkpt lat="45.98037" lon="4.87706">
        <ele>280</ele>
        <time>2018-06-09T10:09:27Z</time>
      </trkpt>
      <trkpt lat="45.98036" lon="4.877">
        <ele>280</ele>
        <time>2018-06-09T10:09:28Z</time>
      </trkpt>
      <trkpt lat="45.98034" lon="4.87694">
        <ele>280</ele>
        <time>2018-06-09T10:09:29Z</time>
      </trkpt>
      <trkpt lat="45.98032" lon="4.87682">
        <ele>280</ele>
        <time>2018-06-09T10:09:31Z</time>
      </trkpt>
      <trkpt lat="45.9803" lon="4.87676">
        <ele>280</ele>
        <time>2018-06-09T10:09:32Z</time>
      </trkpt>
      <trkpt lat="45.98028" lon="4.8767">
        <ele>280</ele>
        <time>2018-06-09T10:09:33Z</time>
      </trkpt>
      <trkpt lat="45.98025" lon="4.87663">
        <ele>280</ele>
        <time>2018-06-09T10:09:34Z</time>
      </trkpt>
      <trkpt lat="45.98023" lon="4.87657">
        <ele>280</ele>
        <time>2018-06-09T10:09:35Z</time>
      </trkpt>
      <trkpt lat="45.98019" lon="4.8765">
        <ele>280</ele>
        <time>2018-06-09T10:09:36Z</time>
      </trkpt>
      <trkpt lat="45.98018" lon="4.87643">
        <ele>280</ele>
        <time>2018-06-09T10:09:37Z</time>
      </trkpt>
      <trkpt lat="45.98015" lon="4.87636">
        <ele>280</ele>
        <time>2018-06-09T10:09:38Z</time>
      </trkpt>
      <trkpt lat="45.98013" lon="4.8763">
        <ele>280</ele>
        <time>2018-06-09T10:09:39Z</time>
      </trkpt>
      <trkpt lat="45.98012" lon="4.87622">
        <ele>280</ele>
        <time>2018-06-09T10:09:40Z</time>
      </trkpt>
      <trkpt lat="45.9801" lon="4.87615">
        <ele>280</ele>
        <time>2018-06-09T10:09:41Z</time>
      </trkpt>
      <trkpt lat="45.98008" lon="4.87608">
        <ele>280</ele>
        <time>2018-06-09T10:09:42Z</time>
      </trkpt>
      <trkpt lat="45.98005" lon="4.876">
        <ele>280</ele>
        <time>2018-06-09T10:09:43Z</time>
      </trkpt>
      <trkpt lat="45.98004" lon="4.87594">
        <ele>280</ele>
        <time>2018-06-09T10:09:44Z</time>
      </trkpt>
      <trkpt lat="45.98001" lon="4.87587">
        <ele>280</ele>
        <time>2018-06-09T10:09:45Z</time>
      </trkpt>
      <trkpt lat="45.97997" lon="4.87581">
        <ele>280</ele>
        <time>2018-06-09T10:09:46Z</time>
      </trkpt>
      <trkpt lat="45.97991" lon="4.87575">
        <ele>280</ele>
        <time>2018-06-09T10:09:47Z</time>
      </trkpt>
      <trkpt lat="45.97987" lon="4.87569">
        <ele>280</ele>
        <time>2018-06-09T10:09:48Z</time>
      </trkpt>
      <trkpt lat="45.97984" lon="4.87564">
        <ele>279</ele>
        <time>2018-06-09T10:09:49Z</time>
      </trkpt>
      <trkpt lat="45.9798" lon="4.87559">
        <ele>279</ele>
        <time>2018-06-09T10:09:50Z</time>
      </trkpt>
      <trkpt lat="45.97975" lon="4.87554">
        <ele>279</ele>
        <time>2018-06-09T10:09:51Z</time>
      </trkpt>
      <trkpt lat="45.97969" lon="4.8755">
        <ele>279</ele>
        <time>2018-06-09T10:09:52Z</time>
      </trkpt>
      <trkpt lat="45.97964" lon="4.87546">
        <ele>279</ele>
        <time>2018-06-09T10:09:53Z</time>
      </trkpt>
      <trkpt lat="45.97959" lon="4.87541">
        <ele>279</ele>
        <time>2018-06-09T10:09:54Z</time>
      </trkpt>
      <trkpt lat="45.97955" lon="4.87539">
        <ele>279</ele>
        <time>2018-06-09T10:09:55Z</time>
      </trkpt>
      <trkpt lat="45.97949" lon="4.87536">
        <ele>279</ele>
        <time>2018-06-09T10:09:56Z</time>
      </trkpt>
      <trkpt lat="45.97942" lon="4.87534">
        <ele>279</ele>
        <time>2018-06-09T10:09:57Z</time>
      </trkpt>
      <trkpt lat="45.97936" lon="4.87533">
        <ele>279</ele>
        <time>2018-06-09T10:09:58Z</time>
      </trkpt>
      <trkpt lat="45.97932" lon="4.8753">
        <ele>279</ele>
        <time>2018-06-09T10:09:59Z</time>
      </trkpt>
      <trkpt lat="45.97927" lon="4.87527">
        <ele>279</ele>
        <time>2018-06-09T10:10:00Z</time>
      </trkpt>
      <trkpt lat="45.97921" lon="4.87525">
        <ele>279</ele>
        <time>2018-06-09T10:10:01Z</time>
      </trkpt>
      <trkpt lat="45.97916" lon="4.87522">
        <ele>280</ele>
        <time>2018-06-09T10:10:02Z</time>
      </trkpt>
      <trkpt lat="45.97911" lon="4.87523">
        <ele>280</ele>
        <time>2018-06-09T10:10:03Z</time>
      </trkpt>
      <trkpt lat="45.97907" lon="4.8752">
        <ele>280</ele>
        <time>2018-06-09T10:10:04Z</time>
      </trkpt>
      <trkpt lat="45.97902" lon="4.87518">
        <ele>280</ele>
        <time>2018-06-09T10:10:05Z</time>
      </trkpt>
      <trkpt lat="45.97897" lon="4.87515">
        <ele>280</ele>
        <time>2018-06-09T10:10:06Z</time>
      </trkpt>
      <trkpt lat="45.97892" lon="4.87513">
        <ele>280</ele>
        <time>2018-06-09T10:10:07Z</time>
      </trkpt>
      <trkpt lat="45.97886" lon="4.8751">
        <ele>281</ele>
        <time>2018-06-09T10:10:08Z</time>
      </trkpt>
      <trkpt lat="45.9788" lon="4.87507">
        <ele>281</ele>
        <time>2018-06-09T10:10:09Z</time>
      </trkpt>
      <trkpt lat="45.97875" lon="4.87504">
        <ele>281</ele>
        <time>2018-06-09T10:10:10Z</time>
      </trkpt>
      <trkpt lat="45.97872" lon="4.87499">
        <ele>280</ele>
        <time>2018-06-09T10:10:11Z</time>
      </trkpt>
      <trkpt lat="45.97867" lon="4.87496">
        <ele>280</ele>
        <time>2018-06-09T10:10:12Z</time>
      </trkpt>
      <trkpt lat="45.97862" lon="4.87493">
        <ele>280</ele>
        <time>2018-06-09T10:10:13Z</time>
      </trkpt>
      <trkpt lat="45.97857" lon="4.87489">
        <ele>281</ele>
        <time>2018-06-09T10:10:14Z</time>
      </trkpt>
      <trkpt lat="45.97851" lon="4.87485">
        <ele>281</ele>
        <time>2018-06-09T10:10:15Z</time>
      </trkpt>
      <trkpt lat="45.97847" lon="4.87481">
        <ele>281</ele>
        <time>2018-06-09T10:10:16Z</time>
      </trkpt>
      <trkpt lat="45.97844" lon="4.87475">
        <ele>281</ele>
        <time>2018-06-09T10:10:17Z</time>
      </trkpt>
      <trkpt lat="45.97839" lon="4.8747">
        <ele>281</ele>
        <time>2018-06-09T10:10:18Z</time>
      </trkpt>
      <trkpt lat="45.97834" lon="4.87465">
        <ele>281</ele>
        <time>2018-06-09T10:10:19Z</time>
      </trkpt>
      <trkpt lat="45.97832" lon="4.87461">
        <ele>282</ele>
        <time>2018-06-09T10:10:20Z</time>
      </trkpt>
      <trkpt lat="45.97825" lon="4.87455">
        <ele>282</ele>
        <time>2018-06-09T10:10:22Z</time>
      </trkpt>
      <trkpt lat="45.97822" lon="4.8745">
        <ele>282</ele>
        <time>2018-06-09T10:10:23Z</time>
      </trkpt>
      <trkpt lat="45.97815" lon="4.87443">
        <ele>282</ele>
        <time>2018-06-09T10:10:25Z</time>
      </trkpt>
      <trkpt lat="45.97812" lon="4.87439">
        <ele>282</ele>
        <time>2018-06-09T10:10:26Z</time>
      </trkpt>
      <trkpt lat="45.97808" lon="4.87434">
        <ele>282</ele>
        <time>2018-06-09T10:10:27Z</time>
      </trkpt>
      <trkpt lat="45.97803" lon="4.8743">
        <ele>283</ele>
        <time>2018-06-09T10:10:28Z</time>
      </trkpt>
      <trkpt lat="45.97796" lon="4.87422">
        <ele>283</ele>
        <time>2018-06-09T10:10:30Z</time>
      </trkpt>
      <trkpt lat="45.97793" lon="4.87418">
        <ele>283</ele>
        <time>2018-06-09T10:10:31Z</time>
      </trkpt>
      <trkpt lat="45.97786" lon="4.87411">
        <ele>284</ele>
        <time>2018-06-09T10:10:33Z</time>
      </trkpt>
      <trkpt lat="45.97783" lon="4.87407">
        <ele>284</ele>
        <time>2018-06-09T10:10:34Z</time>
      </trkpt>
      <trkpt lat="45.97778" lon="4.87403">
        <ele>284</ele>
        <time>2018-06-09T10:10:35Z</time>
      </trkpt>
      <trkpt lat="45.97775" lon="4.87398">
        <ele>284</ele>
        <time>2018-06-09T10:10:36Z</time>
      </trkpt>
      <trkpt lat="45.97772" lon="4.87393">
        <ele>284</ele>
        <time>2018-06-09T10:10:37Z</time>
      </trkpt>
      <trkpt lat="45.97767" lon="4.87389">
        <ele>284</ele>
        <time>2018-06-09T10:10:38Z</time>
      </trkpt>
      <trkpt lat="45.97763" lon="4.87384">
        <ele>284</ele>
        <time>2018-06-09T10:10:39Z</time>
      </trkpt>
      <trkpt lat="45.97759" lon="4.87379">
        <ele>284</ele>
        <time>2018-06-09T10:10:40Z</time>
      </trkpt>
      <trkpt lat="45.97756" lon="4.87375">
        <ele>285</ele>
        <time>2018-06-09T10:10:41Z</time>
      </trkpt>
      <trkpt lat="45.97752" lon="4.87371">
        <ele>285</ele>
        <time>2018-06-09T10:10:42Z</time>
      </trkpt>
      <trkpt lat="45.97749" lon="4.87365">
        <ele>285</ele>
        <time>2018-06-09T10:10:43Z</time>
      </trkpt>
      <trkpt lat="45.97746" lon="4.8736">
        <ele>285</ele>
        <time>2018-06-09T10:10:44Z</time>
      </trkpt>
      <trkpt lat="45.97742" lon="4.87356">
        <ele>286</ele>
        <time>2018-06-09T10:10:45Z</time>
      </trkpt>
      <trkpt lat="45.97738" lon="4.87352">
        <ele>286</ele>
        <time>2018-06-09T10:10:46Z</time>
      </trkpt>
      <trkpt lat="45.97731" lon="4.87344">
        <ele>286</ele>
        <time>2018-06-09T10:10:48Z</time>
      </trkpt>
      <trkpt lat="45.97728" lon="4.87339">
        <ele>286</ele>
        <time>2018-06-09T10:10:49Z</time>
      </trkpt>
      <trkpt lat="45.97725" lon="4.87333">
        <ele>286</ele>
        <time>2018-06-09T10:10:50Z</time>
      </trkpt>
      <trkpt lat="45.97722" lon="4.87328">
        <ele>286</ele>
        <time>2018-06-09T10:10:51Z</time>
      </trkpt>
      <trkpt lat="45.9772" lon="4.87323">
        <ele>286</ele>
        <time>2018-06-09T10:10:52Z</time>
      </trkpt>
      <trkpt lat="45.97717" lon="4.87317">
        <ele>286</ele>
        <time>2018-06-09T10:10:53Z</time>
      </trkpt>
      <trkpt lat="45.97712" lon="4.87314">
        <ele>286</ele>
        <time>2018-06-09T10:10:54Z</time>
      </trkpt>
      <trkpt lat="45.97708" lon="4.87306">
        <ele>286</ele>
        <time>2018-06-09T10:10:55Z</time>
      </trkpt>
      <trkpt lat="45.97705" lon="4.87302">
        <ele>286</ele>
        <time>2018-06-09T10:10:56Z</time>
      </trkpt>
      <trkpt lat="45.977" lon="4.87299">
        <ele>286</ele>
        <time>2018-06-09T10:10:57Z</time>
      </trkpt>
      <trkpt lat="45.97696" lon="4.87296">
        <ele>286</ele>
        <time>2018-06-09T10:10:58Z</time>
      </trkpt>
      <trkpt lat="45.97693" lon="4.87288">
        <ele>286</ele>
        <time>2018-06-09T10:10:59Z</time>
      </trkpt>
      <trkpt lat="45.97687" lon="4.87285">
        <ele>286</ele>
        <time>2018-06-09T10:11:00Z</time>
      </trkpt>
      <trkpt lat="45.97683" lon="4.87281">
        <ele>286</ele>
        <time>2018-06-09T10:11:01Z</time>
      </trkpt>
      <trkpt lat="45.97679" lon="4.87277">
        <ele>286</ele>
        <time>2018-06-09T10:11:02Z</time>
      </trkpt>
      <trkpt lat="45.97675" lon="4.87272">
        <ele>286</ele>
        <time>2018-06-09T10:11:03Z</time>
      </trkpt>
      <trkpt lat="45.97671" lon="4.87267">
        <ele>286</ele>
        <time>2018-06-09T10:11:04Z</time>
      </trkpt>
      <trkpt lat="45.97668" lon="4.87263">
        <ele>286</ele>
        <time>2018-06-09T10:11:05Z</time>
      </trkpt>
      <trkpt lat="45.97663" lon="4.8726">
        <ele>286</ele>
        <time>2018-06-09T10:11:06Z</time>
      </trkpt>
      <trkpt lat="45.97659" lon="4.87257">
        <ele>286</ele>
        <time>2018-06-09T10:11:07Z</time>
      </trkpt>
      <trkpt lat="45.97655" lon="4.87256">
        <ele>285</ele>
        <time>2018-06-09T10:11:08Z</time>
      </trkpt>
      <trkpt lat="45.97651" lon="4.87251">
        <ele>285</ele>
        <time>2018-06-09T10:11:09Z</time>
      </trkpt>
      <trkpt lat="45.97647" lon="4.87249">
        <ele>285</ele>
        <time>2018-06-09T10:11:10Z</time>
      </trkpt>
      <trkpt lat="45.97642" lon="4.87245">
        <ele>285</ele>
        <time>2018-06-09T10:11:11Z</time>
      </trkpt>
      <trkpt lat="45.97638" lon="4.87243">
        <ele>284</ele>
        <time>2018-06-09T10:11:12Z</time>
      </trkpt>
      <trkpt lat="45.97635" lon="4.87238">
        <ele>284</ele>
        <time>2018-06-09T10:11:13Z</time>
      </trkpt>
      <trkpt lat="45.97631" lon="4.87235">
        <ele>284</ele>
        <time>2018-06-09T10:11:14Z</time>
      </trkpt>
      <trkpt lat="45.97627" lon="4.87229">
        <ele>284</ele>
        <time>2018-06-09T10:11:15Z</time>
      </trkpt>
      <trkpt lat="45.97623" lon="4.87225">
        <ele>284</ele>
        <time>2018-06-09T10:11:16Z</time>
      </trkpt>
      <trkpt lat="45.97619" lon="4.87221">
        <ele>284</ele>
        <time>2018-06-09T10:11:17Z</time>
      </trkpt>
      <trkpt lat="45.97615" lon="4.87216">
        <ele>284</ele>
        <time>2018-06-09T10:11:18Z</time>
      </trkpt>
      <trkpt lat="45.9761" lon="4.87211">
        <ele>284</ele>
        <time>2018-06-09T10:11:19Z</time>
      </trkpt>
      <trkpt lat="45.97606" lon="4.87209">
        <ele>284</ele>
        <time>2018-06-09T10:11:20Z</time>
      </trkpt>
      <trkpt lat="45.97601" lon="4.87205">
        <ele>284</ele>
        <time>2018-06-09T10:11:21Z</time>
      </trkpt>
      <trkpt lat="45.97596" lon="4.87201">
        <ele>283</ele>
        <time>2018-06-09T10:11:22Z</time>
      </trkpt>
      <trkpt lat="45.97591" lon="4.87197">
        <ele>283</ele>
        <time>2018-06-09T10:11:23Z</time>
      </trkpt>
      <trkpt lat="45.97587" lon="4.87191">
        <ele>283</ele>
        <time>2018-06-09T10:11:24Z</time>
      </trkpt>
      <trkpt lat="45.97583" lon="4.87187">
        <ele>283</ele>
        <time>2018-06-09T10:11:25Z</time>
      </trkpt>
      <trkpt lat="45.97578" lon="4.87182">
        <ele>283</ele>
        <time>2018-06-09T10:11:26Z</time>
      </trkpt>
      <trkpt lat="45.97573" lon="4.87178">
        <ele>283</ele>
        <time>2018-06-09T10:11:27Z</time>
      </trkpt>
      <trkpt lat="45.97569" lon="4.87174">
        <ele>283</ele>
        <time>2018-06-09T10:11:28Z</time>
      </trkpt>
      <trkpt lat="45.97566" lon="4.8717">
        <ele>283</ele>
        <time>2018-06-09T10:11:29Z</time>
      </trkpt>
      <trkpt lat="45.97562" lon="4.87166">
        <ele>283</ele>
        <time>2018-06-09T10:11:30Z</time>
      </trkpt>
      <trkpt lat="45.97557" lon="4.87163">
        <ele>283</ele>
        <time>2018-06-09T10:11:31Z</time>
      </trkpt>
      <trkpt lat="45.97554" lon="4.87158">
        <ele>283</ele>
        <time>2018-06-09T10:11:32Z</time>
      </trkpt>
      <trkpt lat="45.9755" lon="4.87154">
        <ele>283</ele>
        <time>2018-06-09T10:11:33Z</time>
      </trkpt>
      <trkpt lat="45.97546" lon="4.87149">
        <ele>283</ele>
        <time>2018-06-09T10:11:34Z</time>
      </trkpt>
      <trkpt lat="45.97542" lon="4.87147">
        <ele>283</ele>
        <time>2018-06-09T10:11:35Z</time>
      </trkpt>
      <trkpt lat="45.97538" lon="4.87143">
        <ele>283</ele>
        <time>2018-06-09T10:11:36Z</time>
      </trkpt>
      <trkpt lat="45.97533" lon="4.87139">
        <ele>283</ele>
        <time>2018-06-09T10:11:37Z</time>
      </trkpt>
      <trkpt lat="45.97529" lon="4.87135">
        <ele>283</ele>
        <time>2018-06-09T10:11:38Z</time>
      </trkpt>
      <trkpt lat="45.97524" lon="4.87131">
        <ele>283</ele>
        <time>2018-06-09T10:11:39Z</time>
      </trkpt>
      <trkpt lat="45.9752" lon="4.87129">
        <ele>283</ele>
        <time>2018-06-09T10:11:40Z</time>
      </trkpt>
      <trkpt lat="45.97515" lon="4.87123">
        <ele>283</ele>
        <time>2018-06-09T10:11:41Z</time>
      </trkpt>
      <trkpt lat="45.97511" lon="4.87118">
        <ele>283</ele>
        <time>2018-06-09T10:11:42Z</time>
      </trkpt>
      <trkpt lat="45.97506" lon="4.87114">
        <ele>283</ele>
        <time>2018-06-09T10:11:43Z</time>
      </trkpt>
      <trkpt lat="45.97501" lon="4.87109">
        <ele>283</ele>
        <time>2018-06-09T10:11:44Z</time>
      </trkpt>
      <trkpt lat="45.97497" lon="4.87105">
        <ele>283</ele>
        <time>2018-06-09T10:11:45Z</time>
      </trkpt>
      <trkpt lat="45.97494" lon="4.871">
        <ele>283</ele>
        <time>2018-06-09T10:11:46Z</time>
      </trkpt>
      <trkpt lat="45.9749" lon="4.87096">
        <ele>283</ele>
        <time>2018-06-09T10:11:47Z</time>
      </trkpt>
      <trkpt lat="45.97486" lon="4.87092">
        <ele>283</ele>
        <time>2018-06-09T10:11:48Z</time>
      </trkpt>
      <trkpt lat="45.97481" lon="4.87088">
        <ele>283</ele>
        <time>2018-06-09T10:11:49Z</time>
      </trkpt>
      <trkpt lat="45.97477" lon="4.87083">
        <ele>284</ele>
        <time>2018-06-09T10:11:50Z</time>
      </trkpt>
      <trkpt lat="45.97472" lon="4.87078">
        <ele>284</ele>
        <time>2018-06-09T10:11:51Z</time>
      </trkpt>
      <trkpt lat="45.97468" lon="4.87074">
        <ele>284</ele>
        <time>2018-06-09T10:11:52Z</time>
      </trkpt>
      <trkpt lat="45.97465" lon="4.87069">
        <ele>284</ele>
        <time>2018-06-09T10:11:53Z</time>
      </trkpt>
      <trkpt lat="45.9746" lon="4.87064">
        <ele>284</ele>
        <time>2018-06-09T10:11:54Z</time>
      </trkpt>
      <trkpt lat="45.97456" lon="4.87059">
        <ele>284</ele>
        <time>2018-06-09T10:11:55Z</time>
      </trkpt>
      <trkpt lat="45.97452" lon="4.87054">
        <ele>284</ele>
        <time>2018-06-09T10:11:56Z</time>
      </trkpt>
      <trkpt lat="45.97448" lon="4.87049">
        <ele>284</ele>
        <time>2018-06-09T10:11:57Z</time>
      </trkpt>
      <trkpt lat="45.97442" lon="4.87045">
        <ele>284</ele>
        <time>2018-06-09T10:11:58Z</time>
      </trkpt>
      <trkpt lat="45.97438" lon="4.87041">
        <ele>284</ele>
        <time>2018-06-09T10:11:59Z</time>
      </trkpt>
      <trkpt lat="45.97433" lon="4.87036">
        <ele>284</ele>
        <time>2018-06-09T10:12:00Z</time>
      </trkpt>
      <trkpt lat="45.9743" lon="4.87034">
        <ele>284</ele>
        <time>2018-06-09T10:12:01Z</time>
      </trkpt>
      <trkpt lat="45.97426" lon="4.87029">
        <ele>284</ele>
        <time>2018-06-09T10:12:02Z</time>
      </trkpt>
      <trkpt lat="45.97421" lon="4.87027">
        <ele>284</ele>
        <time>2018-06-09T10:12:03Z</time>
      </trkpt>
      <trkpt lat="45.97416" lon="4.87023">
        <ele>285</ele>
        <time>2018-06-09T10:12:04Z</time>
      </trkpt>
      <trkpt lat="45.97413" lon="4.87019">
        <ele>285</ele>
        <time>2018-06-09T10:12:05Z</time>
      </trkpt>
      <trkpt lat="45.97408" lon="4.87014">
        <ele>285</ele>
        <time>2018-06-09T10:12:06Z</time>
      </trkpt>
      <trkpt lat="45.97404" lon="4.8701">
        <ele>285</ele>
        <time>2018-06-09T10:12:07Z</time>
      </trkpt>
      <trkpt lat="45.974" lon="4.87005">
        <ele>285</ele>
        <time>2018-06-09T10:12:08Z</time>
      </trkpt>
      <trkpt lat="45.97396" lon="4.87">
        <ele>285</ele>
        <time>2018-06-09T10:12:09Z</time>
      </trkpt>
      <trkpt lat="45.97389" lon="4.86993">
        <ele>285</ele>
        <time>2018-06-09T10:12:11Z</time>
      </trkpt>
      <trkpt lat="45.97384" lon="4.86989">
        <ele>285</ele>
        <time>2018-06-09T10:12:12Z</time>
      </trkpt>
      <trkpt lat="45.97381" lon="4.86985">
        <ele>285</ele>
        <time>2018-06-09T10:12:13Z</time>
      </trkpt>
      <trkpt lat="45.97377" lon="4.86981">
        <ele>285</ele>
        <time>2018-06-09T10:12:14Z</time>
      </trkpt>
      <trkpt lat="45.97373" lon="4.86977">
        <ele>285</ele>
        <time>2018-06-09T10:12:15Z</time>
      </trkpt>
      <trkpt lat="45.97368" lon="4.86974">
        <ele>285</ele>
        <time>2018-06-09T10:12:16Z</time>
      </trkpt>
      <trkpt lat="45.97365" lon="4.86969">
        <ele>285</ele>
        <time>2018-06-09T10:12:17Z</time>
      </trkpt>
      <trkpt lat="45.97362" lon="4.86963">
        <ele>285</ele>
        <time>2018-06-09T10:12:18Z</time>
      </trkpt>
      <trkpt lat="45.97357" lon="4.86958">
        <ele>284</ele>
        <time>2018-06-09T10:12:19Z</time>
      </trkpt>
      <trkpt lat="45.97354" lon="4.86953">
        <ele>284</ele>
        <time>2018-06-09T10:12:20Z</time>
      </trkpt>
      <trkpt lat="45.97351" lon="4.86948">
        <ele>284</ele>
        <time>2018-06-09T10:12:21Z</time>
      </trkpt>
      <trkpt lat="45.97345" lon="4.86944">
        <ele>284</ele>
        <time>2018-06-09T10:12:22Z</time>
      </trkpt>
      <trkpt lat="45.97342" lon="4.8694">
        <ele>284</ele>
        <time>2018-06-09T10:12:23Z</time>
      </trkpt>
      <trkpt lat="45.97339" lon="4.86936">
        <ele>284</ele>
        <time>2018-06-09T10:12:24Z</time>
      </trkpt>
      <trkpt lat="45.97335" lon="4.8693">
        <ele>284</ele>
        <time>2018-06-09T10:12:25Z</time>
      </trkpt>
      <trkpt lat="45.97331" lon="4.86925">
        <ele>284</ele>
        <time>2018-06-09T10:12:26Z</time>
      </trkpt>
      <trkpt lat="45.97328" lon="4.8692">
        <ele>284</ele>
        <time>2018-06-09T10:12:27Z</time>
      </trkpt>
      <trkpt lat="45.97326" lon="4.86914">
        <ele>284</ele>
        <time>2018-06-09T10:12:28Z</time>
      </trkpt>
      <trkpt lat="45.97322" lon="4.86908">
        <ele>284</ele>
        <time>2018-06-09T10:12:29Z</time>
      </trkpt>
      <trkpt lat="45.97318" lon="4.86904">
        <ele>284</ele>
        <time>2018-06-09T10:12:30Z</time>
      </trkpt>
      <trkpt lat="45.97313" lon="4.86899">
        <ele>284</ele>
        <time>2018-06-09T10:12:31Z</time>
      </trkpt>
      <trkpt lat="45.9731" lon="4.86895">
        <ele>284</ele>
        <time>2018-06-09T10:12:32Z</time>
      </trkpt>
      <trkpt lat="45.97305" lon="4.8689">
        <ele>284</ele>
        <time>2018-06-09T10:12:33Z</time>
      </trkpt>
      <trkpt lat="45.97301" lon="4.86884">
        <ele>284</ele>
        <time>2018-06-09T10:12:34Z</time>
      </trkpt>
      <trkpt lat="45.97298" lon="4.86879">
        <ele>284</ele>
        <time>2018-06-09T10:12:35Z</time>
      </trkpt>
      <trkpt lat="45.97294" lon="4.86873">
        <ele>284</ele>
        <time>2018-06-09T10:12:36Z</time>
      </trkpt>
      <trkpt lat="45.9729" lon="4.86868">
        <ele>285</ele>
        <time>2018-06-09T10:12:37Z</time>
      </trkpt>
      <trkpt lat="45.97286" lon="4.86863">
        <ele>285</ele>
        <time>2018-06-09T10:12:38Z</time>
      </trkpt>
      <trkpt lat="45.97282" lon="4.86857">
        <ele>285</ele>
        <time>2018-06-09T10:12:39Z</time>
      </trkpt>
      <trkpt lat="45.97279" lon="4.8685">
        <ele>285</ele>
        <time>2018-06-09T10:12:40Z</time>
      </trkpt>
      <trkpt lat="45.97275" lon="4.86845">
        <ele>285</ele>
        <time>2018-06-09T10:12:41Z</time>
      </trkpt>
      <trkpt lat="45.97272" lon="4.86839">
        <ele>285</ele>
        <time>2018-06-09T10:12:42Z</time>
      </trkpt>
      <trkpt lat="45.97269" lon="4.86833">
        <ele>285</ele>
        <time>2018-06-09T10:12:43Z</time>
      </trkpt>
      <trkpt lat="45.97266" lon="4.86828">
        <ele>285</ele>
        <time>2018-06-09T10:12:44Z</time>
      </trkpt>
      <trkpt lat="45.97263" lon="4.86822">
        <ele>285</ele>
        <time>2018-06-09T10:12:45Z</time>
      </trkpt>
      <trkpt lat="45.9726" lon="4.86817">
        <ele>285</ele>
        <time>2018-06-09T10:12:46Z</time>
      </trkpt>
      <trkpt lat="45.97256" lon="4.86808">
        <ele>285</ele>
        <time>2018-06-09T10:12:48Z</time>
      </trkpt>
      <trkpt lat="45.97251" lon="4.86803">
        <ele>285</ele>
        <time>2018-06-09T10:12:49Z</time>
      </trkpt>
      <trkpt lat="45.97246" lon="4.86799">
        <ele>284</ele>
        <time>2018-06-09T10:12:50Z</time>
      </trkpt>
      <trkpt lat="45.97242" lon="4.86794">
        <ele>284</ele>
        <time>2018-06-09T10:12:51Z</time>
      </trkpt>
      <trkpt lat="45.97237" lon="4.86791">
        <ele>284</ele>
        <time>2018-06-09T10:12:52Z</time>
      </trkpt>
      <trkpt lat="45.97232" lon="4.86789">
        <ele>284</ele>
        <time>2018-06-09T10:12:53Z</time>
      </trkpt>
      <trkpt lat="45.97227" lon="4.86789">
        <ele>284</ele>
        <time>2018-06-09T10:12:54Z</time>
      </trkpt>
      <trkpt lat="45.97222" lon="4.86788">
        <ele>284</ele>
        <time>2018-06-09T10:12:55Z</time>
      </trkpt>
      <trkpt lat="45.97216" lon="4.86789">
        <ele>284</ele>
        <time>2018-06-09T10:12:56Z</time>
      </trkpt>
      <trkpt lat="45.97211" lon="4.86789">
        <ele>284</ele>
        <time>2018-06-09T10:12:57Z</time>
      </trkpt>
      <trkpt lat="45.97206" lon="4.8679">
        <ele>284</ele>
        <time>2018-06-09T10:12:58Z</time>
      </trkpt>
      <trkpt lat="45.97201" lon="4.86793">
        <ele>284</ele>
        <time>2018-06-09T10:12:59Z</time>
      </trkpt>
      <trkpt lat="45.97194" lon="4.86796">
        <ele>284</ele>
        <time>2018-06-09T10:13:00Z</time>
      </trkpt>
      <trkpt lat="45.97189" lon="4.86798">
        <ele>284</ele>
        <time>2018-06-09T10:13:01Z</time>
      </trkpt>
      <trkpt lat="45.97183" lon="4.868">
        <ele>284</ele>
        <time>2018-06-09T10:13:02Z</time>
      </trkpt>
      <trkpt lat="45.97177" lon="4.86802">
        <ele>283</ele>
        <time>2018-06-09T10:13:03Z</time>
      </trkpt>
      <trkpt lat="45.97171" lon="4.86804">
        <ele>283</ele>
        <time>2018-06-09T10:13:04Z</time>
      </trkpt>
      <trkpt lat="45.97165" lon="4.86805">
        <ele>283</ele>
        <time>2018-06-09T10:13:05Z</time>
      </trkpt>
      <trkpt lat="45.97161" lon="4.86806">
        <ele>283</ele>
        <time>2018-06-09T10:13:06Z</time>
      </trkpt>
      <trkpt lat="45.97156" lon="4.86808">
        <ele>283</ele>
        <time>2018-06-09T10:13:07Z</time>
      </trkpt>
      <trkpt lat="45.97152" lon="4.8681">
        <ele>283</ele>
        <time>2018-06-09T10:13:08Z</time>
      </trkpt>
      <trkpt lat="45.97147" lon="4.86812">
        <ele>283</ele>
        <time>2018-06-09T10:13:09Z</time>
      </trkpt>
      <trkpt lat="45.97142" lon="4.86813">
        <ele>283</ele>
        <time>2018-06-09T10:13:10Z</time>
      </trkpt>
      <trkpt lat="45.97138" lon="4.86817">
        <ele>283</ele>
        <time>2018-06-09T10:13:11Z</time>
      </trkpt>
      <trkpt lat="45.97133" lon="4.86819">
        <ele>283</ele>
        <time>2018-06-09T10:13:12Z</time>
      </trkpt>
      <trkpt lat="45.97126" lon="4.86821">
        <ele>283</ele>
        <time>2018-06-09T10:13:13Z</time>
      </trkpt>
      <trkpt lat="45.97121" lon="4.86823">
        <ele>283</ele>
        <time>2018-06-09T10:13:14Z</time>
      </trkpt>
      <trkpt lat="45.97116" lon="4.86827">
        <ele>283</ele>
        <time>2018-06-09T10:13:15Z</time>
      </trkpt>
      <trkpt lat="45.97111" lon="4.86829">
        <ele>283</ele>
        <time>2018-06-09T10:13:16Z</time>
      </trkpt>
      <trkpt lat="45.97106" lon="4.86832">
        <ele>284</ele>
        <time>2018-06-09T10:13:17Z</time>
      </trkpt>
      <trkpt lat="45.97097" lon="4.86833">
        <ele>284</ele>
        <time>2018-06-09T10:13:19Z</time>
      </trkpt>
      <trkpt lat="45.97093" lon="4.86835">
        <ele>284</ele>
        <time>2018-06-09T10:13:20Z</time>
      </trkpt>
      <trkpt lat="45.97084" lon="4.86835">
        <ele>284</ele>
        <time>2018-06-09T10:13:22Z</time>
      </trkpt>
      <trkpt lat="45.97079" lon="4.86835">
        <ele>284</ele>
        <time>2018-06-09T10:13:23Z</time>
      </trkpt>
      <trkpt lat="45.97074" lon="4.86835">
        <ele>284</ele>
        <time>2018-06-09T10:13:24Z</time>
      </trkpt>
      <trkpt lat="45.97069" lon="4.86836">
        <ele>284</ele>
        <time>2018-06-09T10:13:25Z</time>
      </trkpt>
      <trkpt lat="45.97064" lon="4.86837">
        <ele>284</ele>
        <time>2018-06-09T10:13:26Z</time>
      </trkpt>
      <trkpt lat="45.97059" lon="4.86838">
        <ele>284</ele>
        <time>2018-06-09T10:13:27Z</time>
      </trkpt>
      <trkpt lat="45.97053" lon="4.86839">
        <ele>285</ele>
        <time>2018-06-09T10:13:28Z</time>
      </trkpt>
      <trkpt lat="45.97049" lon="4.86842">
        <ele>285</ele>
        <time>2018-06-09T10:13:29Z</time>
      </trkpt>
      <trkpt lat="45.97041" lon="4.86844">
        <ele>285</ele>
        <time>2018-06-09T10:13:31Z</time>
      </trkpt>
      <trkpt lat="45.97037" lon="4.86844">
        <ele>285</ele>
        <time>2018-06-09T10:13:32Z</time>
      </trkpt>
      <trkpt lat="45.97032" lon="4.86845">
        <ele>285</ele>
        <time>2018-06-09T10:13:33Z</time>
      </trkpt>
      <trkpt lat="45.97027" lon="4.86846">
        <ele>285</ele>
        <time>2018-06-09T10:13:34Z</time>
      </trkpt>
      <trkpt lat="45.97022" lon="4.86846">
        <ele>285</ele>
        <time>2018-06-09T10:13:35Z</time>
      </trkpt>
      <trkpt lat="45.97018" lon="4.86846">
        <ele>285</ele>
        <time>2018-06-09T10:13:36Z</time>
      </trkpt>
      <trkpt lat="45.97013" lon="4.86847">
        <ele>285</ele>
        <time>2018-06-09T10:13:37Z</time>
      </trkpt>
      <trkpt lat="45.97007" lon="4.86846">
        <ele>285</ele>
        <time>2018-06-09T10:13:38Z</time>
      </trkpt>
      <trkpt lat="45.97003" lon="4.86845">
        <ele>285</ele>
        <time>2018-06-09T10:13:39Z</time>
      </trkpt>
      <trkpt lat="45.96998" lon="4.86844">
        <ele>286</ele>
        <time>2018-06-09T10:13:40Z</time>
      </trkpt>
      <trkpt lat="45.96993" lon="4.86844">
        <ele>286</ele>
        <time>2018-06-09T10:13:41Z</time>
      </trkpt>
      <trkpt lat="45.96989" lon="4.86843">
        <ele>286</ele>
        <time>2018-06-09T10:13:42Z</time>
      </trkpt>
      <trkpt lat="45.9698" lon="4.86843">
        <ele>286</ele>
        <time>2018-06-09T10:13:44Z</time>
      </trkpt>
      <trkpt lat="45.96977" lon="4.8684">
        <ele>286</ele>
        <time>2018-06-09T10:13:45Z</time>
      </trkpt>
      <trkpt lat="45.96968" lon="4.86836">
        <ele>286</ele>
        <time>2018-06-09T10:13:47Z</time>
      </trkpt>
      <trkpt lat="45.96964" lon="4.86834">
        <ele>286</ele>
        <time>2018-06-09T10:13:48Z</time>
      </trkpt>
      <trkpt lat="45.9696" lon="4.86831">
        <ele>286</ele>
        <time>2018-06-09T10:13:49Z</time>
      </trkpt>
      <trkpt lat="45.96956" lon="4.86829">
        <ele>286</ele>
        <time>2018-06-09T10:13:50Z</time>
      </trkpt>
      <trkpt lat="45.96948" lon="4.86823">
        <ele>287</ele>
        <time>2018-06-09T10:13:52Z</time>
      </trkpt>
      <trkpt lat="45.96944" lon="4.86822">
        <ele>287</ele>
        <time>2018-06-09T10:13:53Z</time>
      </trkpt>
      <trkpt lat="45.96936" lon="4.86817">
        <ele>287</ele>
        <time>2018-06-09T10:13:55Z</time>
      </trkpt>
      <trkpt lat="45.96933" lon="4.86814">
        <ele>287</ele>
        <time>2018-06-09T10:13:56Z</time>
      </trkpt>
      <trkpt lat="45.96925" lon="4.86809">
        <ele>287</ele>
        <time>2018-06-09T10:13:58Z</time>
      </trkpt>
      <trkpt lat="45.96921" lon="4.86807">
        <ele>287</ele>
        <time>2018-06-09T10:13:59Z</time>
      </trkpt>
      <trkpt lat="45.96912" lon="4.86804">
        <ele>288</ele>
        <time>2018-06-09T10:14:01Z</time>
      </trkpt>
      <trkpt lat="45.96908" lon="4.86805">
        <ele>288</ele>
        <time>2018-06-09T10:14:02Z</time>
      </trkpt>
      <trkpt lat="45.96905" lon="4.86808">
        <ele>288</ele>
        <time>2018-06-09T10:14:03Z</time>
      </trkpt>
      <trkpt lat="45.96906" lon="4.86819">
        <ele>288</ele>
        <time>2018-06-09T10:14:04Z</time>
      </trkpt>
      <trkpt lat="45.96904" lon="4.86825">
        <ele>288</ele>
        <time>2018-06-09T10:14:05Z</time>
      </trkpt>
      <trkpt lat="45.96902" lon="4.86832">
        <ele>288</ele>
        <time>2018-06-09T10:14:06Z</time>
      </trkpt>
      <trkpt lat="45.96899" lon="4.86844">
        <ele>288</ele>
        <time>2018-06-09T10:14:08Z</time>
      </trkpt>
      <trkpt lat="45.96897" lon="4.8685">
        <ele>289</ele>
        <time>2018-06-09T10:14:09Z</time>
      </trkpt>
      <trkpt lat="45.96895" lon="4.86858">
        <ele>289</ele>
        <time>2018-06-09T10:14:10Z</time>
      </trkpt>
      <trkpt lat="45.96894" lon="4.86864">
        <ele>289</ele>
        <time>2018-06-09T10:14:11Z</time>
      </trkpt>
      <trkpt lat="45.9689" lon="4.86875">
        <ele>289</ele>
        <time>2018-06-09T10:14:13Z</time>
      </trkpt>
      <trkpt lat="45.96888" lon="4.86881">
        <ele>289</ele>
        <time>2018-06-09T10:14:14Z</time>
      </trkpt>
      <trkpt lat="45.96884" lon="4.86891">
        <ele>289</ele>
        <time>2018-06-09T10:14:16Z</time>
      </trkpt>
      <trkpt lat="45.96881" lon="4.86894">
        <ele>289</ele>
        <time>2018-06-09T10:14:17Z</time>
      </trkpt>
      <trkpt lat="45.96878" lon="4.86905">
        <ele>289</ele>
        <time>2018-06-09T10:14:19Z</time>
      </trkpt>
      <trkpt lat="45.96875" lon="4.8691">
        <ele>289</ele>
        <time>2018-06-09T10:14:20Z</time>
      </trkpt>
      <trkpt lat="45.96874" lon="4.86916">
        <ele>289</ele>
        <time>2018-06-09T10:14:21Z</time>
      </trkpt>
      <trkpt lat="45.96873" lon="4.86926">
        <ele>288</ele>
        <time>2018-06-09T10:14:22Z</time>
      </trkpt>
      <trkpt lat="45.9687" lon="4.86932">
        <ele>288</ele>
        <time>2018-06-09T10:14:23Z</time>
      </trkpt>
      <trkpt lat="45.96868" lon="4.86937">
        <ele>288</ele>
        <time>2018-06-09T10:14:24Z</time>
      </trkpt>
      <trkpt lat="45.96866" lon="4.86944">
        <ele>288</ele>
        <time>2018-06-09T10:14:25Z</time>
      </trkpt>
      <trkpt lat="45.96864" lon="4.8695">
        <ele>288</ele>
        <time>2018-06-09T10:14:26Z</time>
      </trkpt>
      <trkpt lat="45.9686" lon="4.86961">
        <ele>288</ele>
        <time>2018-06-09T10:14:28Z</time>
      </trkpt>
      <trkpt lat="45.96858" lon="4.86966">
        <ele>288</ele>
        <time>2018-06-09T10:14:29Z</time>
      </trkpt>
      <trkpt lat="45.96855" lon="4.86971">
        <ele>288</ele>
        <time>2018-06-09T10:14:30Z</time>
      </trkpt>
      <trkpt lat="45.96853" lon="4.86976">
        <ele>288</ele>
        <time>2018-06-09T10:14:31Z</time>
      </trkpt>
      <trkpt lat="45.96851" lon="4.86982">
        <ele>288</ele>
        <time>2018-06-09T10:14:32Z</time>
      </trkpt>
      <trkpt lat="45.96849" lon="4.86988">
        <ele>288</ele>
        <time>2018-06-09T10:14:33Z</time>
      </trkpt>
      <trkpt lat="45.96846" lon="4.86994">
        <ele>288</ele>
        <time>2018-06-09T10:14:34Z</time>
      </trkpt>
      <trkpt lat="45.96844" lon="4.87001">
        <ele>288</ele>
        <time>2018-06-09T10:14:35Z</time>
      </trkpt>
      <trkpt lat="45.96842" lon="4.87008">
        <ele>288</ele>
        <time>2018-06-09T10:14:36Z</time>
      </trkpt>
      <trkpt lat="45.96839" lon="4.87015">
        <ele>288</ele>
        <time>2018-06-09T10:14:37Z</time>
      </trkpt>
      <trkpt lat="45.96837" lon="4.87022">
        <ele>287</ele>
        <time>2018-06-09T10:14:38Z</time>
      </trkpt>
      <trkpt lat="45.96835" lon="4.8703">
        <ele>287</ele>
        <time>2018-06-09T10:14:39Z</time>
      </trkpt>
      <trkpt lat="45.96833" lon="4.87038">
        <ele>288</ele>
        <time>2018-06-09T10:14:40Z</time>
      </trkpt>
      <trkpt lat="45.9683" lon="4.87044">
        <ele>287</ele>
        <time>2018-06-09T10:14:41Z</time>
      </trkpt>
      <trkpt lat="45.96827" lon="4.87049">
        <ele>287</ele>
        <time>2018-06-09T10:14:42Z</time>
      </trkpt>
      <trkpt lat="45.96825" lon="4.87055">
        <ele>287</ele>
        <time>2018-06-09T10:14:43Z</time>
      </trkpt>
      <trkpt lat="45.96822" lon="4.87061">
        <ele>287</ele>
        <time>2018-06-09T10:14:44Z</time>
      </trkpt>
      <trkpt lat="45.9682" lon="4.87069">
        <ele>287</ele>
        <time>2018-06-09T10:14:45Z</time>
      </trkpt>
      <trkpt lat="45.96818" lon="4.87076">
        <ele>287</ele>
        <time>2018-06-09T10:14:46Z</time>
      </trkpt>
      <trkpt lat="45.96815" lon="4.87082">
        <ele>287</ele>
        <time>2018-06-09T10:14:47Z</time>
      </trkpt>
      <trkpt lat="45.96814" lon="4.8709">
        <ele>287</ele>
        <time>2018-06-09T10:14:48Z</time>
      </trkpt>
      <trkpt lat="45.96812" lon="4.87096">
        <ele>287</ele>
        <time>2018-06-09T10:14:49Z</time>
      </trkpt>
      <trkpt lat="45.9681" lon="4.87104">
        <ele>286</ele>
        <time>2018-06-09T10:14:50Z</time>
      </trkpt>
      <trkpt lat="45.96807" lon="4.87109">
        <ele>286</ele>
        <time>2018-06-09T10:14:51Z</time>
      </trkpt>
      <trkpt lat="45.96805" lon="4.87115">
        <ele>286</ele>
        <time>2018-06-09T10:14:52Z</time>
      </trkpt>
      <trkpt lat="45.96804" lon="4.87122">
        <ele>286</ele>
        <time>2018-06-09T10:14:53Z</time>
      </trkpt>
      <trkpt lat="45.96802" lon="4.87129">
        <ele>286</ele>
        <time>2018-06-09T10:14:54Z</time>
      </trkpt>
      <trkpt lat="45.96799" lon="4.87136">
        <ele>286</ele>
        <time>2018-06-09T10:14:55Z</time>
      </trkpt>
      <trkpt lat="45.96794" lon="4.87138">
        <ele>286</ele>
        <time>2018-06-09T10:14:56Z</time>
      </trkpt>
      <trkpt lat="45.96789" lon="4.87139">
        <ele>286</ele>
        <time>2018-06-09T10:14:57Z</time>
      </trkpt>
      <trkpt lat="45.96784" lon="4.87133">
        <ele>286</ele>
        <time>2018-06-09T10:15:00Z</time>
      </trkpt>
      <trkpt lat="45.96781" lon="4.8713">
        <ele>286</ele>
        <time>2018-06-09T10:15:01Z</time>
      </trkpt>
      <trkpt lat="45.96777" lon="4.8712">
        <ele>286</ele>
        <time>2018-06-09T10:15:03Z</time>
      </trkpt>
      <trkpt lat="45.96773" lon="4.87115">
        <ele>286</ele>
        <time>2018-06-09T10:15:04Z</time>
      </trkpt>
      <trkpt lat="45.96767" lon="4.87106">
        <ele>286</ele>
        <time>2018-06-09T10:15:06Z</time>
      </trkpt>
      <trkpt lat="45.96765" lon="4.87102">
        <ele>287</ele>
        <time>2018-06-09T10:15:07Z</time>
      </trkpt>
      <trkpt lat="45.96761" lon="4.87097">
        <ele>287</ele>
        <time>2018-06-09T10:15:08Z</time>
      </trkpt>
      <trkpt lat="45.96759" lon="4.87091">
        <ele>287</ele>
        <time>2018-06-09T10:15:09Z</time>
      </trkpt>
      <trkpt lat="45.96756" lon="4.87087">
        <ele>287</ele>
        <time>2018-06-09T10:15:10Z</time>
      </trkpt>
      <trkpt lat="45.96752" lon="4.87081">
        <ele>287</ele>
        <time>2018-06-09T10:15:11Z</time>
      </trkpt>
      <trkpt lat="45.96748" lon="4.87076">
        <ele>287</ele>
        <time>2018-06-09T10:15:12Z</time>
      </trkpt>
      <trkpt lat="45.96744" lon="4.87072">
        <ele>287</ele>
        <time>2018-06-09T10:15:13Z</time>
      </trkpt>
      <trkpt lat="45.96739" lon="4.87068">
        <ele>287</ele>
        <time>2018-06-09T10:15:14Z</time>
      </trkpt>
      <trkpt lat="45.96734" lon="4.87065">
        <ele>287</ele>
        <time>2018-06-09T10:15:15Z</time>
      </trkpt>
      <trkpt lat="45.96729" lon="4.87062">
        <ele>287</ele>
        <time>2018-06-09T10:15:16Z</time>
      </trkpt>
      <trkpt lat="45.96724" lon="4.87059">
        <ele>287</ele>
        <time>2018-06-09T10:15:17Z</time>
      </trkpt>
      <trkpt lat="45.9672" lon="4.87057">
        <ele>287</ele>
        <time>2018-06-09T10:15:18Z</time>
      </trkpt>
      <trkpt lat="45.96716" lon="4.87054">
        <ele>287</ele>
        <time>2018-06-09T10:15:19Z</time>
      </trkpt>
      <trkpt lat="45.96711" lon="4.87051">
        <ele>287</ele>
        <time>2018-06-09T10:15:20Z</time>
      </trkpt>
      <trkpt lat="45.96706" lon="4.87047">
        <ele>287</ele>
        <time>2018-06-09T10:15:21Z</time>
      </trkpt>
      <trkpt lat="45.96701" lon="4.87045">
        <ele>287</ele>
        <time>2018-06-09T10:15:22Z</time>
      </trkpt>
      <trkpt lat="45.96696" lon="4.8704">
        <ele>287</ele>
        <time>2018-06-09T10:15:23Z</time>
      </trkpt>
      <trkpt lat="45.96691" lon="4.87036">
        <ele>287</ele>
        <time>2018-06-09T10:15:24Z</time>
      </trkpt>
      <trkpt lat="45.96687" lon="4.87032">
        <ele>287</ele>
        <time>2018-06-09T10:15:25Z</time>
      </trkpt>
      <trkpt lat="45.96682" lon="4.87028">
        <ele>287</ele>
        <time>2018-06-09T10:15:26Z</time>
      </trkpt>
      <trkpt lat="45.96678" lon="4.87024">
        <ele>287</ele>
        <time>2018-06-09T10:15:27Z</time>
      </trkpt>
      <trkpt lat="45.96673" lon="4.87019">
        <ele>287</ele>
        <time>2018-06-09T10:15:28Z</time>
      </trkpt>
      <trkpt lat="45.9667" lon="4.87012">
        <ele>287</ele>
        <time>2018-06-09T10:15:29Z</time>
      </trkpt>
      <trkpt lat="45.96666" lon="4.87005">
        <ele>287</ele>
        <time>2018-06-09T10:15:30Z</time>
      </trkpt>
      <trkpt lat="45.96663" lon="4.86998">
        <ele>287</ele>
        <time>2018-06-09T10:15:31Z</time>
      </trkpt>
      <trkpt lat="45.96659" lon="4.86991">
        <ele>287</ele>
        <time>2018-06-09T10:15:32Z</time>
      </trkpt>
      <trkpt lat="45.96656" lon="4.86985">
        <ele>287</ele>
        <time>2018-06-09T10:15:33Z</time>
      </trkpt>
      <trkpt lat="45.96651" lon="4.8698">
        <ele>287</ele>
        <time>2018-06-09T10:15:34Z</time>
      </trkpt>
      <trkpt lat="45.96642" lon="4.8698">
        <ele>286</ele>
        <time>2018-06-09T10:15:35Z</time>
      </trkpt>
      <trkpt lat="45.96638" lon="4.86978">
        <ele>286</ele>
        <time>2018-06-09T10:15:36Z</time>
      </trkpt>
      <trkpt lat="45.96631" lon="4.86981">
        <ele>286</ele>
        <time>2018-06-09T10:15:37Z</time>
      </trkpt>
      <trkpt lat="45.96624" lon="4.86981">
        <ele>286</ele>
        <time>2018-06-09T10:15:38Z</time>
      </trkpt>
      <trkpt lat="45.96617" lon="4.86985">
        <ele>286</ele>
        <time>2018-06-09T10:15:39Z</time>
      </trkpt>
      <trkpt lat="45.96609" lon="4.86985">
        <ele>286</ele>
        <time>2018-06-09T10:15:40Z</time>
      </trkpt>
      <trkpt lat="45.966" lon="4.86988">
        <ele>286</ele>
        <time>2018-06-09T10:15:41Z</time>
      </trkpt>
      <trkpt lat="45.96592" lon="4.86988">
        <ele>286</ele>
        <time>2018-06-09T10:15:42Z</time>
      </trkpt>
      <trkpt lat="45.96586" lon="4.86989">
        <ele>285</ele>
        <time>2018-06-09T10:15:43Z</time>
      </trkpt>
      <trkpt lat="45.96579" lon="4.86988">
        <ele>284</ele>
        <time>2018-06-09T10:15:44Z</time>
      </trkpt>
      <trkpt lat="45.96576" lon="4.86988">
        <ele>284</ele>
        <time>2018-06-09T10:15:45Z</time>
      </trkpt>
      <trkpt lat="45.96571" lon="4.86988">
        <ele>284</ele>
        <time>2018-06-09T10:15:46Z</time>
      </trkpt>
      <trkpt lat="45.96565" lon="4.86989">
        <ele>284</ele>
        <time>2018-06-09T10:15:47Z</time>
      </trkpt>
      <trkpt lat="45.96558" lon="4.86988">
        <ele>284</ele>
        <time>2018-06-09T10:15:49Z</time>
      </trkpt>
      <trkpt lat="45.96555" lon="4.86988">
        <ele>283</ele>
        <time>2018-06-09T10:15:50Z</time>
      </trkpt>
      <trkpt lat="45.96552" lon="4.86988">
        <ele>283</ele>
        <time>2018-06-09T10:15:51Z</time>
      </trkpt>
      <trkpt lat="45.96546" lon="4.86989">
        <ele>283</ele>
        <time>2018-06-09T10:15:52Z</time>
      </trkpt>
      <trkpt lat="45.96539" lon="4.86995">
        <ele>283</ele>
        <time>2018-06-09T10:15:56Z</time>
      </trkpt>
      <trkpt lat="45.96537" lon="4.86996">
        <ele>283</ele>
        <time>2018-06-09T10:15:57Z</time>
      </trkpt>
      <trkpt lat="45.96531" lon="4.87004">
        <ele>283</ele>
        <time>2018-06-09T10:16:01Z</time>
      </trkpt>
      <trkpt lat="45.9653" lon="4.87006">
        <ele>283</ele>
        <time>2018-06-09T10:16:02Z</time>
      </trkpt>
      <trkpt lat="45.9653" lon="4.87018">
        <ele>283</ele>
        <time>2018-06-09T10:16:07Z</time>
      </trkpt>
      <trkpt lat="45.9653" lon="4.87019">
        <ele>283</ele>
        <time>2018-06-09T10:16:08Z</time>
      </trkpt>
      <trkpt lat="45.96529" lon="4.87028">
        <ele>283</ele>
        <time>2018-06-09T10:21:36Z</time>
      </trkpt>
      <trkpt lat="45.96529" lon="4.87028">
        <ele>283</ele>
        <time>2018-06-09T10:21:37Z</time>
      </trkpt>
      <trkpt lat="45.96529" lon="4.87028">
        <ele>283</ele>
        <time>2018-06-09T10:21:38Z</time>
      </trkpt>
      <trkpt lat="45.96534" lon="4.87039">
        <ele>283</ele>
        <time>2018-06-09T10:23:34Z</time>
      </trkpt>
      <trkpt lat="45.96535" lon="4.87041">
        <ele>283</ele>
        <time>2018-06-09T10:23:35Z</time>
      </trkpt>
      <trkpt lat="45.96538" lon="4.87051">
        <ele>283</ele>
        <time>2018-06-09T10:23:39Z</time>
      </trkpt>
      <trkpt lat="45.96538" lon="4.87054">
        <ele>283</ele>
        <time>2018-06-09T10:23:40Z</time>
      </trkpt>
      <trkpt lat="45.96539" lon="4.87064">
        <ele>283</ele>
        <time>2018-06-09T10:23:43Z</time>
      </trkpt>
      <trkpt lat="45.9654" lon="4.87067">
        <ele>283</ele>
        <time>2018-06-09T10:23:44Z</time>
      </trkpt>
      <trkpt lat="45.96547" lon="4.87071">
        <ele>283</ele>
        <time>2018-06-09T10:23:48Z</time>
      </trkpt>
      <trkpt lat="45.9655" lon="4.87071">
        <ele>283</ele>
        <time>2018-06-09T10:23:49Z</time>
      </trkpt>
      <trkpt lat="45.96559" lon="4.87069">
        <ele>283</ele>
        <time>2018-06-09T10:23:52Z</time>
      </trkpt>
      <trkpt lat="45.96561" lon="4.87066">
        <ele>283</ele>
        <time>2018-06-09T10:23:53Z</time>
      </trkpt>
      <trkpt lat="45.96564" lon="4.87057">
        <ele>283</ele>
        <time>2018-06-09T10:23:56Z</time>
      </trkpt>
      <trkpt lat="45.96564" lon="4.87053">
        <ele>283</ele>
        <time>2018-06-09T10:23:57Z</time>
      </trkpt>
      <trkpt lat="45.96565" lon="4.87049">
        <ele>283</ele>
        <time>2018-06-09T10:23:58Z</time>
      </trkpt>
      <trkpt lat="45.96564" lon="4.87036">
        <ele>283</ele>
        <time>2018-06-09T10:23:59Z</time>
      </trkpt>
      <trkpt lat="45.96562" lon="4.8703">
        <ele>283</ele>
        <time>2018-06-09T10:24:00Z</time>
      </trkpt>
      <trkpt lat="45.96558" lon="4.87025">
        <ele>283</ele>
        <time>2018-06-09T10:24:01Z</time>
      </trkpt>
      <trkpt lat="45.96554" lon="4.87021">
        <ele>283</ele>
        <time>2018-06-09T10:24:02Z</time>
      </trkpt>
      <trkpt lat="45.9655" lon="4.87016">
        <ele>283</ele>
        <time>2018-06-09T10:24:03Z</time>
      </trkpt>
      <trkpt lat="45.96547" lon="4.8701">
        <ele>283</ele>
        <time>2018-06-09T10:24:04Z</time>
      </trkpt>
      <trkpt lat="45.96545" lon="4.87005">
        <ele>283</ele>
        <time>2018-06-09T10:24:05Z</time>
      </trkpt>
      <trkpt lat="45.96544" lon="4.86992">
        <ele>283</ele>
        <time>2018-06-09T10:24:07Z</time>
      </trkpt>
      <trkpt lat="45.96545" lon="4.86986">
        <ele>283</ele>
        <time>2018-06-09T10:24:08Z</time>
      </trkpt>
      <trkpt lat="45.96548" lon="4.86977">
        <ele>283</ele>
        <time>2018-06-09T10:24:10Z</time>
      </trkpt>
      <trkpt lat="45.96551" lon="4.86973">
        <ele>283</ele>
        <time>2018-06-09T10:24:11Z</time>
      </trkpt>
      <trkpt lat="45.96556" lon="4.86968">
        <ele>283</ele>
        <time>2018-06-09T10:24:13Z</time>
      </trkpt>
      <trkpt lat="45.9656" lon="4.86963">
        <ele>283</ele>
        <time>2018-06-09T10:24:14Z</time>
      </trkpt>
      <trkpt lat="45.96566" lon="4.86956">
        <ele>284</ele>
        <time>2018-06-09T10:24:16Z</time>
      </trkpt>
      <trkpt lat="45.96568" lon="4.86952">
        <ele>284</ele>
        <time>2018-06-09T10:24:17Z</time>
      </trkpt>
      <trkpt lat="45.96574" lon="4.86945">
        <ele>284</ele>
        <time>2018-06-09T10:24:19Z</time>
      </trkpt>
      <trkpt lat="45.96576" lon="4.86941">
        <ele>284</ele>
        <time>2018-06-09T10:24:20Z</time>
      </trkpt>
      <trkpt lat="45.96581" lon="4.86932">
        <ele>284</ele>
        <time>2018-06-09T10:24:22Z</time>
      </trkpt>
      <trkpt lat="45.96583" lon="4.86928">
        <ele>284</ele>
        <time>2018-06-09T10:24:23Z</time>
      </trkpt>
      <trkpt lat="45.96588" lon="4.86919">
        <ele>285</ele>
        <time>2018-06-09T10:24:25Z</time>
      </trkpt>
      <trkpt lat="45.96589" lon="4.86917">
        <ele>285</ele>
        <time>2018-06-09T10:24:26Z</time>
      </trkpt>
      <trkpt lat="45.96595" lon="4.86907">
        <ele>286</ele>
        <time>2018-06-09T10:24:28Z</time>
      </trkpt>
      <trkpt lat="45.96598" lon="4.86903">
        <ele>286</ele>
        <time>2018-06-09T10:24:29Z</time>
      </trkpt>
      <trkpt lat="45.96601" lon="4.86897">
        <ele>286</ele>
        <time>2018-06-09T10:24:30Z</time>
      </trkpt>
      <trkpt lat="45.96603" lon="4.86892">
        <ele>286</ele>
        <time>2018-06-09T10:24:31Z</time>
      </trkpt>
      <trkpt lat="45.96607" lon="4.86886">
        <ele>287</ele>
        <time>2018-06-09T10:24:34Z</time>
      </trkpt>
      <trkpt lat="45.96612" lon="4.86878">
        <ele>287</ele>
        <time>2018-06-09T10:24:35Z</time>
      </trkpt>
      <trkpt lat="45.96615" lon="4.86874">
        <ele>287</ele>
        <time>2018-06-09T10:24:36Z</time>
      </trkpt>
      <trkpt lat="45.96618" lon="4.86862">
        <ele>287</ele>
        <time>2018-06-09T10:24:37Z</time>
      </trkpt>
      <trkpt lat="45.96624" lon="4.86856">
        <ele>287</ele>
        <time>2018-06-09T10:24:39Z</time>
      </trkpt>
      <trkpt lat="45.96626" lon="4.86853">
        <ele>287</ele>
        <time>2018-06-09T10:24:40Z</time>
      </trkpt>
      <trkpt lat="45.96631" lon="4.86845">
        <ele>287</ele>
        <time>2018-06-09T10:24:42Z</time>
      </trkpt>
      <trkpt lat="45.96632" lon="4.86844">
        <ele>287</ele>
        <time>2018-06-09T10:24:43Z</time>
      </trkpt>
      <trkpt lat="45.96637" lon="4.86836">
        <ele>287</ele>
        <time>2018-06-09T10:24:46Z</time>
      </trkpt>
      <trkpt lat="45.96642" lon="4.86827">
        <ele>288</ele>
        <time>2018-06-09T10:24:47Z</time>
      </trkpt>
      <trkpt lat="45.96645" lon="4.86821">
        <ele>288</ele>
        <time>2018-06-09T10:24:48Z</time>
      </trkpt>
      <trkpt lat="45.96647" lon="4.86815">
        <ele>288</ele>
        <time>2018-06-09T10:24:49Z</time>
      </trkpt>
      <trkpt lat="45.9665" lon="4.86809">
        <ele>288</ele>
        <time>2018-06-09T10:24:50Z</time>
      </trkpt>
      <trkpt lat="45.96653" lon="4.86805">
        <ele>288</ele>
        <time>2018-06-09T10:24:51Z</time>
      </trkpt>
      <trkpt lat="45.9666" lon="4.86798">
        <ele>288</ele>
        <time>2018-06-09T10:24:53Z</time>
      </trkpt>
      <trkpt lat="45.96663" lon="4.86791">
        <ele>288</ele>
        <time>2018-06-09T10:24:54Z</time>
      </trkpt>
      <trkpt lat="45.96669" lon="4.86786">
        <ele>289</ele>
        <time>2018-06-09T10:24:55Z</time>
      </trkpt>
      <trkpt lat="45.96672" lon="4.86782">
        <ele>289</ele>
        <time>2018-06-09T10:24:56Z</time>
      </trkpt>
      <trkpt lat="45.96677" lon="4.86774">
        <ele>289</ele>
        <time>2018-06-09T10:24:58Z</time>
      </trkpt>
      <trkpt lat="45.96679" lon="4.8677">
        <ele>289</ele>
        <time>2018-06-09T10:24:59Z</time>
      </trkpt>
      <trkpt lat="45.96683" lon="4.86763">
        <ele>289</ele>
        <time>2018-06-09T10:25:00Z</time>
      </trkpt>
      <trkpt lat="45.96687" lon="4.86758">
        <ele>289</ele>
        <time>2018-06-09T10:25:01Z</time>
      </trkpt>
      <trkpt lat="45.9669" lon="4.86754">
        <ele>289</ele>
        <time>2018-06-09T10:25:02Z</time>
      </trkpt>
      <trkpt lat="45.96694" lon="4.86748">
        <ele>289</ele>
        <time>2018-06-09T10:25:03Z</time>
      </trkpt>
      <trkpt lat="45.96697" lon="4.86742">
        <ele>289</ele>
        <time>2018-06-09T10:25:04Z</time>
      </trkpt>
      <trkpt lat="45.967" lon="4.86736">
        <ele>289</ele>
        <time>2018-06-09T10:25:05Z</time>
      </trkpt>
      <trkpt lat="45.96702" lon="4.86729">
        <ele>289</ele>
        <time>2018-06-09T10:25:06Z</time>
      </trkpt>
      <trkpt lat="45.96705" lon="4.86725">
        <ele>289</ele>
        <time>2018-06-09T10:25:07Z</time>
      </trkpt>
      <trkpt lat="45.96707" lon="4.86719">
        <ele>289</ele>
        <time>2018-06-09T10:25:08Z</time>
      </trkpt>
      <trkpt lat="45.9671" lon="4.86713">
        <ele>289</ele>
        <time>2018-06-09T10:25:09Z</time>
      </trkpt>
      <trkpt lat="45.96716" lon="4.86704">
        <ele>289</ele>
        <time>2018-06-09T10:25:11Z</time>
      </trkpt>
      <trkpt lat="45.96718" lon="4.867">
        <ele>289</ele>
        <time>2018-06-09T10:25:12Z</time>
      </trkpt>
      <trkpt lat="45.96723" lon="4.8669">
        <ele>289</ele>
        <time>2018-06-09T10:25:14Z</time>
      </trkpt>
      <trkpt lat="45.96725" lon="4.86686">
        <ele>289</ele>
        <time>2018-06-09T10:25:15Z</time>
      </trkpt>
      <trkpt lat="45.96727" lon="4.86682">
        <ele>289</ele>
        <time>2018-06-09T10:25:16Z</time>
      </trkpt>
      <trkpt lat="45.96731" lon="4.86674">
        <ele>290</ele>
        <time>2018-06-09T10:25:17Z</time>
      </trkpt>
      <trkpt lat="45.96735" lon="4.86668">
        <ele>290</ele>
        <time>2018-06-09T10:25:19Z</time>
      </trkpt>
      <trkpt lat="45.96738" lon="4.86664">
        <ele>290</ele>
        <time>2018-06-09T10:25:20Z</time>
      </trkpt>
      <trkpt lat="45.96742" lon="4.86657">
        <ele>290</ele>
        <time>2018-06-09T10:25:22Z</time>
      </trkpt>
      <trkpt lat="45.96746" lon="4.86651">
        <ele>290</ele>
        <time>2018-06-09T10:25:23Z</time>
      </trkpt>
      <trkpt lat="45.96748" lon="4.86644">
        <ele>290</ele>
        <time>2018-06-09T10:25:24Z</time>
      </trkpt>
      <trkpt lat="45.96749" lon="4.86639">
        <ele>290</ele>
        <time>2018-06-09T10:25:25Z</time>
      </trkpt>
      <trkpt lat="45.9675" lon="4.86632">
        <ele>290</ele>
        <time>2018-06-09T10:25:26Z</time>
      </trkpt>
      <trkpt lat="45.96747" lon="4.86625">
        <ele>290</ele>
        <time>2018-06-09T10:25:27Z</time>
      </trkpt>
      <trkpt lat="45.9674" lon="4.8662">
        <ele>290</ele>
        <time>2018-06-09T10:25:29Z</time>
      </trkpt>
      <trkpt lat="45.96736" lon="4.8662">
        <ele>290</ele>
        <time>2018-06-09T10:25:30Z</time>
      </trkpt>
      <trkpt lat="45.96731" lon="4.8662">
        <ele>290</ele>
        <time>2018-06-09T10:25:31Z</time>
      </trkpt>
      <trkpt lat="45.96726" lon="4.8662">
        <ele>290</ele>
        <time>2018-06-09T10:25:32Z</time>
      </trkpt>
      <trkpt lat="45.96719" lon="4.86617">
        <ele>290</ele>
        <time>2018-06-09T10:25:34Z</time>
      </trkpt>
      <trkpt lat="45.96715" lon="4.86618">
        <ele>290</ele>
        <time>2018-06-09T10:25:35Z</time>
      </trkpt>
      <trkpt lat="45.96707" lon="4.86615">
        <ele>290</ele>
        <time>2018-06-09T10:25:37Z</time>
      </trkpt>
      <trkpt lat="45.96703" lon="4.86611">
        <ele>290</ele>
        <time>2018-06-09T10:25:38Z</time>
      </trkpt>
      <trkpt lat="45.96696" lon="4.86604">
        <ele>290</ele>
        <time>2018-06-09T10:25:40Z</time>
      </trkpt>
      <trkpt lat="45.96693" lon="4.86602">
        <ele>290</ele>
        <time>2018-06-09T10:25:41Z</time>
      </trkpt>
      <trkpt lat="45.96686" lon="4.86596">
        <ele>290</ele>
        <time>2018-06-09T10:25:43Z</time>
      </trkpt>
      <trkpt lat="45.96683" lon="4.86592">
        <ele>290</ele>
        <time>2018-06-09T10:25:44Z</time>
      </trkpt>
      <trkpt lat="45.96676" lon="4.86585">
        <ele>290</ele>
        <time>2018-06-09T10:25:46Z</time>
      </trkpt>
      <trkpt lat="45.96673" lon="4.86582">
        <ele>290</ele>
        <time>2018-06-09T10:25:47Z</time>
      </trkpt>
      <trkpt lat="45.96667" lon="4.86576">
        <ele>290</ele>
        <time>2018-06-09T10:25:49Z</time>
      </trkpt>
      <trkpt lat="45.96663" lon="4.86573">
        <ele>290</ele>
        <time>2018-06-09T10:25:50Z</time>
      </trkpt>
      <trkpt lat="45.96657" lon="4.86566">
        <ele>290</ele>
        <time>2018-06-09T10:25:52Z</time>
      </trkpt>
      <trkpt lat="45.96654" lon="4.86563">
        <ele>290</ele>
        <time>2018-06-09T10:25:53Z</time>
      </trkpt>
      <trkpt lat="45.96647" lon="4.86557">
        <ele>291</ele>
        <time>2018-06-09T10:25:55Z</time>
      </trkpt>
      <trkpt lat="45.96644" lon="4.86553">
        <ele>291</ele>
        <time>2018-06-09T10:25:56Z</time>
      </trkpt>
      <trkpt lat="45.96637" lon="4.86547">
        <ele>291</ele>
        <time>2018-06-09T10:25:58Z</time>
      </trkpt>
      <trkpt lat="45.96633" lon="4.86544">
        <ele>291</ele>
        <time>2018-06-09T10:25:59Z</time>
      </trkpt>
      <trkpt lat="45.96629" lon="4.8654">
        <ele>291</ele>
        <time>2018-06-09T10:26:00Z</time>
      </trkpt>
      <trkpt lat="45.96625" lon="4.86537">
        <ele>291</ele>
        <time>2018-06-09T10:26:01Z</time>
      </trkpt>
      <trkpt lat="45.96618" lon="4.86529">
        <ele>291</ele>
        <time>2018-06-09T10:26:03Z</time>
      </trkpt>
      <trkpt lat="45.96614" lon="4.86526">
        <ele>291</ele>
        <time>2018-06-09T10:26:04Z</time>
      </trkpt>
      <trkpt lat="45.9661" lon="4.86522">
        <ele>291</ele>
        <time>2018-06-09T10:26:05Z</time>
      </trkpt>
      <trkpt lat="45.96606" lon="4.86518">
        <ele>291</ele>
        <time>2018-06-09T10:26:06Z</time>
      </trkpt>
      <trkpt lat="45.96603" lon="4.86513">
        <ele>291</ele>
        <time>2018-06-09T10:26:07Z</time>
      </trkpt>
      <trkpt lat="45.96599" lon="4.86509">
        <ele>291</ele>
        <time>2018-06-09T10:26:08Z</time>
      </trkpt>
      <trkpt lat="45.96595" lon="4.86505">
        <ele>291</ele>
        <time>2018-06-09T10:26:09Z</time>
      </trkpt>
      <trkpt lat="45.96592" lon="4.86498">
        <ele>292</ele>
        <time>2018-06-09T10:26:10Z</time>
      </trkpt>
      <trkpt lat="45.96589" lon="4.86492">
        <ele>292</ele>
        <time>2018-06-09T10:26:11Z</time>
      </trkpt>
      <trkpt lat="45.96586" lon="4.86486">
        <ele>292</ele>
        <time>2018-06-09T10:26:12Z</time>
      </trkpt>
      <trkpt lat="45.96582" lon="4.8648">
        <ele>290</ele>
        <time>2018-06-09T10:26:13Z</time>
      </trkpt>
      <trkpt lat="45.96581" lon="4.86473">
        <ele>290</ele>
        <time>2018-06-09T10:26:14Z</time>
      </trkpt>
      <trkpt lat="45.96579" lon="4.86466">
        <ele>289</ele>
        <time>2018-06-09T10:26:15Z</time>
      </trkpt>
      <trkpt lat="45.96577" lon="4.86457">
        <ele>289</ele>
        <time>2018-06-09T10:26:16Z</time>
      </trkpt>
      <trkpt lat="45.96576" lon="4.8645">
        <ele>289</ele>
        <time>2018-06-09T10:26:17Z</time>
      </trkpt>
      <trkpt lat="45.96575" lon="4.86442">
        <ele>289</ele>
        <time>2018-06-09T10:26:18Z</time>
      </trkpt>
      <trkpt lat="45.96575" lon="4.86433">
        <ele>289</ele>
        <time>2018-06-09T10:26:19Z</time>
      </trkpt>
      <trkpt lat="45.96575" lon="4.86426">
        <ele>289</ele>
        <time>2018-06-09T10:26:20Z</time>
      </trkpt>
      <trkpt lat="45.96576" lon="4.86416">
        <ele>289</ele>
        <time>2018-06-09T10:26:21Z</time>
      </trkpt>
      <trkpt lat="45.96575" lon="4.86407">
        <ele>288</ele>
        <time>2018-06-09T10:26:22Z</time>
      </trkpt>
      <trkpt lat="45.96574" lon="4.86397">
        <ele>287</ele>
        <time>2018-06-09T10:26:23Z</time>
      </trkpt>
      <trkpt lat="45.96574" lon="4.86388">
        <ele>287</ele>
        <time>2018-06-09T10:26:24Z</time>
      </trkpt>
      <trkpt lat="45.96576" lon="4.8638">
        <ele>286</ele>
        <time>2018-06-09T10:26:25Z</time>
      </trkpt>
      <trkpt lat="45.96573" lon="4.86371">
        <ele>286</ele>
        <time>2018-06-09T10:26:26Z</time>
      </trkpt>
      <trkpt lat="45.96573" lon="4.86362">
        <ele>286</ele>
        <time>2018-06-09T10:26:27Z</time>
      </trkpt>
      <trkpt lat="45.96574" lon="4.86355">
        <ele>285</ele>
        <time>2018-06-09T10:26:28Z</time>
      </trkpt>
      <trkpt lat="45.96574" lon="4.86344">
        <ele>285</ele>
        <time>2018-06-09T10:26:29Z</time>
      </trkpt>
      <trkpt lat="45.96574" lon="4.86335">
        <ele>285</ele>
        <time>2018-06-09T10:26:30Z</time>
      </trkpt>
      <trkpt lat="45.96575" lon="4.86325">
        <ele>284</ele>
        <time>2018-06-09T10:26:31Z</time>
      </trkpt>
      <trkpt lat="45.96576" lon="4.86316">
        <ele>283</ele>
        <time>2018-06-09T10:26:32Z</time>
      </trkpt>
      <trkpt lat="45.96577" lon="4.86306">
        <ele>283</ele>
        <time>2018-06-09T10:26:33Z</time>
      </trkpt>
      <trkpt lat="45.96577" lon="4.86296">
        <ele>282</ele>
        <time>2018-06-09T10:26:34Z</time>
      </trkpt>
      <trkpt lat="45.96578" lon="4.86286">
        <ele>282</ele>
        <time>2018-06-09T10:26:35Z</time>
      </trkpt>
      <trkpt lat="45.96578" lon="4.86275">
        <ele>282</ele>
        <time>2018-06-09T10:26:36Z</time>
      </trkpt>
      <trkpt lat="45.96578" lon="4.86264">
        <ele>281</ele>
        <time>2018-06-09T10:26:37Z</time>
      </trkpt>
      <trkpt lat="45.9658" lon="4.86254">
        <ele>281</ele>
        <time>2018-06-09T10:26:38Z</time>
      </trkpt>
      <trkpt lat="45.9658" lon="4.86243">
        <ele>280</ele>
        <time>2018-06-09T10:26:39Z</time>
      </trkpt>
      <trkpt lat="45.96583" lon="4.86231">
        <ele>282</ele>
        <time>2018-06-09T10:26:40Z</time>
      </trkpt>
      <trkpt lat="45.96585" lon="4.86218">
        <ele>282</ele>
        <time>2018-06-09T10:26:41Z</time>
      </trkpt>
      <trkpt lat="45.96587" lon="4.86206">
        <ele>282</ele>
        <time>2018-06-09T10:26:42Z</time>
      </trkpt>
      <trkpt lat="45.96587" lon="4.86193">
        <ele>282</ele>
        <time>2018-06-09T10:26:43Z</time>
      </trkpt>
      <trkpt lat="45.96589" lon="4.86181">
        <ele>281</ele>
        <time>2018-06-09T10:26:44Z</time>
      </trkpt>
      <trkpt lat="45.96589" lon="4.86167">
        <ele>281</ele>
        <time>2018-06-09T10:26:45Z</time>
      </trkpt>
      <trkpt lat="45.9659" lon="4.86154">
        <ele>281</ele>
        <time>2018-06-09T10:26:46Z</time>
      </trkpt>
      <trkpt lat="45.96591" lon="4.86141">
        <ele>281</ele>
        <time>2018-06-09T10:26:47Z</time>
      </trkpt>
      <trkpt lat="45.96594" lon="4.86129">
        <ele>281</ele>
        <time>2018-06-09T10:26:48Z</time>
      </trkpt>
      <trkpt lat="45.96593" lon="4.86115">
        <ele>281</ele>
        <time>2018-06-09T10:26:49Z</time>
      </trkpt>
      <trkpt lat="45.96592" lon="4.86103">
        <ele>280</ele>
        <time>2018-06-09T10:26:50Z</time>
      </trkpt>
      <trkpt lat="45.96591" lon="4.8609">
        <ele>279</ele>
        <time>2018-06-09T10:26:51Z</time>
      </trkpt>
      <trkpt lat="45.96589" lon="4.86078">
        <ele>279</ele>
        <time>2018-06-09T10:26:52Z</time>
      </trkpt>
      <trkpt lat="45.96583" lon="4.86068">
        <ele>277</ele>
        <time>2018-06-09T10:26:53Z</time>
      </trkpt>
      <trkpt lat="45.9658" lon="4.86055">
        <ele>277</ele>
        <time>2018-06-09T10:26:54Z</time>
      </trkpt>
      <trkpt lat="45.96574" lon="4.86041">
        <ele>276</ele>
        <time>2018-06-09T10:26:55Z</time>
      </trkpt>
      <trkpt lat="45.9657" lon="4.86033">
        <ele>276</ele>
        <time>2018-06-09T10:26:56Z</time>
      </trkpt>
      <trkpt lat="45.96564" lon="4.86023">
        <ele>276</ele>
        <time>2018-06-09T10:26:57Z</time>
      </trkpt>
      <trkpt lat="45.96559" lon="4.86013">
        <ele>276</ele>
        <time>2018-06-09T10:26:58Z</time>
      </trkpt>
      <trkpt lat="45.96553" lon="4.86002">
        <ele>276</ele>
        <time>2018-06-09T10:26:59Z</time>
      </trkpt>
      <trkpt lat="45.96548" lon="4.85993">
        <ele>275</ele>
        <time>2018-06-09T10:27:00Z</time>
      </trkpt>
      <trkpt lat="45.96543" lon="4.85982">
        <ele>275</ele>
        <time>2018-06-09T10:27:01Z</time>
      </trkpt>
      <trkpt lat="45.96538" lon="4.85972">
        <ele>275</ele>
        <time>2018-06-09T10:27:02Z</time>
      </trkpt>
      <trkpt lat="45.96533" lon="4.85962">
        <ele>275</ele>
        <time>2018-06-09T10:27:03Z</time>
      </trkpt>
      <trkpt lat="45.96528" lon="4.85952">
        <ele>275</ele>
        <time>2018-06-09T10:27:04Z</time>
      </trkpt>
      <trkpt lat="45.96523" lon="4.85942">
        <ele>275</ele>
        <time>2018-06-09T10:27:05Z</time>
      </trkpt>
      <trkpt lat="45.96521" lon="4.85932">
        <ele>275</ele>
        <time>2018-06-09T10:27:06Z</time>
      </trkpt>
      <trkpt lat="45.96517" lon="4.85921">
        <ele>275</ele>
        <time>2018-06-09T10:27:07Z</time>
      </trkpt>
      <trkpt lat="45.96514" lon="4.85911">
        <ele>275</ele>
        <time>2018-06-09T10:27:08Z</time>
      </trkpt>
      <trkpt lat="45.96511" lon="4.85902">
        <ele>275</ele>
        <time>2018-06-09T10:27:09Z</time>
      </trkpt>
      <trkpt lat="45.96508" lon="4.85892">
        <ele>275</ele>
        <time>2018-06-09T10:27:10Z</time>
      </trkpt>
      <trkpt lat="45.96507" lon="4.85881">
        <ele>275</ele>
        <time>2018-06-09T10:27:11Z</time>
      </trkpt>
      <trkpt lat="45.96504" lon="4.8587">
        <ele>275</ele>
        <time>2018-06-09T10:27:12Z</time>
      </trkpt>
      <trkpt lat="45.96503" lon="4.8586">
        <ele>275</ele>
        <time>2018-06-09T10:27:13Z</time>
      </trkpt>
      <trkpt lat="45.965" lon="4.8585">
        <ele>275</ele>
        <time>2018-06-09T10:27:14Z</time>
      </trkpt>
      <trkpt lat="45.96499" lon="4.8584">
        <ele>275</ele>
        <time>2018-06-09T10:27:15Z</time>
      </trkpt>
      <trkpt lat="45.96498" lon="4.85829">
        <ele>275</ele>
        <time>2018-06-09T10:27:16Z</time>
      </trkpt>
      <trkpt lat="45.96496" lon="4.85818">
        <ele>274</ele>
        <time>2018-06-09T10:27:17Z</time>
      </trkpt>
      <trkpt lat="45.96492" lon="4.85807">
        <ele>274</ele>
        <time>2018-06-09T10:27:18Z</time>
      </trkpt>
      <trkpt lat="45.9649" lon="4.85798">
        <ele>274</ele>
        <time>2018-06-09T10:27:19Z</time>
      </trkpt>
      <trkpt lat="45.96489" lon="4.85788">
        <ele>274</ele>
        <time>2018-06-09T10:27:20Z</time>
      </trkpt>
      <trkpt lat="45.96487" lon="4.85777">
        <ele>274</ele>
        <time>2018-06-09T10:27:21Z</time>
      </trkpt>
      <trkpt lat="45.96487" lon="4.85767">
        <ele>274</ele>
        <time>2018-06-09T10:27:22Z</time>
      </trkpt>
      <trkpt lat="45.96486" lon="4.85758">
        <ele>274</ele>
        <time>2018-06-09T10:27:23Z</time>
      </trkpt>
      <trkpt lat="45.96485" lon="4.85749">
        <ele>273</ele>
        <time>2018-06-09T10:27:24Z</time>
      </trkpt>
      <trkpt lat="45.96483" lon="4.85742">
        <ele>273</ele>
        <time>2018-06-09T10:27:25Z</time>
      </trkpt>
      <trkpt lat="45.96481" lon="4.85733">
        <ele>273</ele>
        <time>2018-06-09T10:27:26Z</time>
      </trkpt>
      <trkpt lat="45.96479" lon="4.85724">
        <ele>272</ele>
        <time>2018-06-09T10:27:27Z</time>
      </trkpt>
      <trkpt lat="45.96478" lon="4.85716">
        <ele>272</ele>
        <time>2018-06-09T10:27:28Z</time>
      </trkpt>
      <trkpt lat="45.96478" lon="4.85709">
        <ele>272</ele>
        <time>2018-06-09T10:27:29Z</time>
      </trkpt>
      <trkpt lat="45.96476" lon="4.85699">
        <ele>272</ele>
        <time>2018-06-09T10:27:30Z</time>
      </trkpt>
      <trkpt lat="45.96476" lon="4.85691">
        <ele>272</ele>
        <time>2018-06-09T10:27:31Z</time>
      </trkpt>
      <trkpt lat="45.96476" lon="4.85682">
        <ele>272</ele>
        <time>2018-06-09T10:27:32Z</time>
      </trkpt>
      <trkpt lat="45.96475" lon="4.85673">
        <ele>272</ele>
        <time>2018-06-09T10:27:33Z</time>
      </trkpt>
      <trkpt lat="45.96474" lon="4.85665">
        <ele>271</ele>
        <time>2018-06-09T10:27:34Z</time>
      </trkpt>
      <trkpt lat="45.96473" lon="4.85657">
        <ele>271</ele>
        <time>2018-06-09T10:27:35Z</time>
      </trkpt>
      <trkpt lat="45.96471" lon="4.85647">
        <ele>271</ele>
        <time>2018-06-09T10:27:36Z</time>
      </trkpt>
      <trkpt lat="45.96472" lon="4.85639">
        <ele>271</ele>
        <time>2018-06-09T10:27:37Z</time>
      </trkpt>
      <trkpt lat="45.96472" lon="4.85632">
        <ele>271</ele>
        <time>2018-06-09T10:27:38Z</time>
      </trkpt>
      <trkpt lat="45.96471" lon="4.85623">
        <ele>271</ele>
        <time>2018-06-09T10:27:39Z</time>
      </trkpt>
      <trkpt lat="45.96466" lon="4.85614">
        <ele>271</ele>
        <time>2018-06-09T10:27:40Z</time>
      </trkpt>
      <trkpt lat="45.96465" lon="4.85606">
        <ele>271</ele>
        <time>2018-06-09T10:27:41Z</time>
      </trkpt>
      <trkpt lat="45.96464" lon="4.85598">
        <ele>271</ele>
        <time>2018-06-09T10:27:42Z</time>
      </trkpt>
      <trkpt lat="45.96463" lon="4.85588">
        <ele>271</ele>
        <time>2018-06-09T10:27:43Z</time>
      </trkpt>
      <trkpt lat="45.96462" lon="4.85579">
        <ele>271</ele>
        <time>2018-06-09T10:27:44Z</time>
      </trkpt>
      <trkpt lat="45.96462" lon="4.8557">
        <ele>271</ele>
        <time>2018-06-09T10:27:45Z</time>
      </trkpt>
      <trkpt lat="45.96461" lon="4.85561">
        <ele>271</ele>
        <time>2018-06-09T10:27:46Z</time>
      </trkpt>
      <trkpt lat="45.96462" lon="4.85554">
        <ele>271</ele>
        <time>2018-06-09T10:27:47Z</time>
      </trkpt>
      <trkpt lat="45.96462" lon="4.85545">
        <ele>272</ele>
        <time>2018-06-09T10:27:48Z</time>
      </trkpt>
      <trkpt lat="45.96463" lon="4.85536">
        <ele>272</ele>
        <time>2018-06-09T10:27:49Z</time>
      </trkpt>
      <trkpt lat="45.96464" lon="4.85526">
        <ele>272</ele>
        <time>2018-06-09T10:27:50Z</time>
      </trkpt>
      <trkpt lat="45.96464" lon="4.85517">
        <ele>272</ele>
        <time>2018-06-09T10:27:51Z</time>
      </trkpt>
      <trkpt lat="45.96464" lon="4.85509">
        <ele>272</ele>
        <time>2018-06-09T10:27:52Z</time>
      </trkpt>
      <trkpt lat="45.96463" lon="4.85499">
        <ele>272</ele>
        <time>2018-06-09T10:27:53Z</time>
      </trkpt>
      <trkpt lat="45.96463" lon="4.8549">
        <ele>272</ele>
        <time>2018-06-09T10:27:54Z</time>
      </trkpt>
      <trkpt lat="45.96462" lon="4.8548">
        <ele>272</ele>
        <time>2018-06-09T10:27:55Z</time>
      </trkpt>
      <trkpt lat="45.96458" lon="4.85471">
        <ele>272</ele>
        <time>2018-06-09T10:27:56Z</time>
      </trkpt>
      <trkpt lat="45.9646" lon="4.85463">
        <ele>272</ele>
        <time>2018-06-09T10:27:57Z</time>
      </trkpt>
      <trkpt lat="45.96461" lon="4.85457">
        <ele>272</ele>
        <time>2018-06-09T10:27:58Z</time>
      </trkpt>
      <trkpt lat="45.96461" lon="4.85449">
        <ele>272</ele>
        <time>2018-06-09T10:27:59Z</time>
      </trkpt>
      <trkpt lat="45.96463" lon="4.85442">
        <ele>272</ele>
        <time>2018-06-09T10:28:00Z</time>
      </trkpt>
      <trkpt lat="45.96463" lon="4.85433">
        <ele>272</ele>
        <time>2018-06-09T10:28:01Z</time>
      </trkpt>
      <trkpt lat="45.96462" lon="4.85423">
        <ele>272</ele>
        <time>2018-06-09T10:28:02Z</time>
      </trkpt>
      <trkpt lat="45.96461" lon="4.85415">
        <ele>272</ele>
        <time>2018-06-09T10:28:03Z</time>
      </trkpt>
      <trkpt lat="45.9646" lon="4.85406">
        <ele>272</ele>
        <time>2018-06-09T10:28:04Z</time>
      </trkpt>
      <trkpt lat="45.96459" lon="4.85398">
        <ele>272</ele>
        <time>2018-06-09T10:28:05Z</time>
      </trkpt>
      <trkpt lat="45.96457" lon="4.85387">
        <ele>272</ele>
        <time>2018-06-09T10:28:06Z</time>
      </trkpt>
      <trkpt lat="45.96457" lon="4.85377">
        <ele>272</ele>
        <time>2018-06-09T10:28:07Z</time>
      </trkpt>
      <trkpt lat="45.96456" lon="4.85369">
        <ele>272</ele>
        <time>2018-06-09T10:28:08Z</time>
      </trkpt>
      <trkpt lat="45.96456" lon="4.85359">
        <ele>272</ele>
        <time>2018-06-09T10:28:09Z</time>
      </trkpt>
      <trkpt lat="45.96455" lon="4.85351">
        <ele>272</ele>
        <time>2018-06-09T10:28:10Z</time>
      </trkpt>
      <trkpt lat="45.96454" lon="4.85342">
        <ele>272</ele>
        <time>2018-06-09T10:28:11Z</time>
      </trkpt>
      <trkpt lat="45.96453" lon="4.85334">
        <ele>272</ele>
        <time>2018-06-09T10:28:12Z</time>
      </trkpt>
      <trkpt lat="45.96451" lon="4.85325">
        <ele>271</ele>
        <time>2018-06-09T10:28:13Z</time>
      </trkpt>
      <trkpt lat="45.9645" lon="4.85317">
        <ele>271</ele>
        <time>2018-06-09T10:28:14Z</time>
      </trkpt>
      <trkpt lat="45.96449" lon="4.85308">
        <ele>271</ele>
        <time>2018-06-09T10:28:15Z</time>
      </trkpt>
      <trkpt lat="45.96447" lon="4.853">
        <ele>270</ele>
        <time>2018-06-09T10:28:16Z</time>
      </trkpt>
      <trkpt lat="45.96447" lon="4.85289">
        <ele>270</ele>
        <time>2018-06-09T10:28:17Z</time>
      </trkpt>
      <trkpt lat="45.96447" lon="4.8528">
        <ele>270</ele>
        <time>2018-06-09T10:28:18Z</time>
      </trkpt>
      <trkpt lat="45.96448" lon="4.85271">
        <ele>270</ele>
        <time>2018-06-09T10:28:19Z</time>
      </trkpt>
      <trkpt lat="45.96448" lon="4.85261">
        <ele>270</ele>
        <time>2018-06-09T10:28:20Z</time>
      </trkpt>
      <trkpt lat="45.96449" lon="4.85251">
        <ele>270</ele>
        <time>2018-06-09T10:28:21Z</time>
      </trkpt>
      <trkpt lat="45.96448" lon="4.85242">
        <ele>269</ele>
        <time>2018-06-09T10:28:22Z</time>
      </trkpt>
      <trkpt lat="45.96448" lon="4.85232">
        <ele>269</ele>
        <time>2018-06-09T10:28:23Z</time>
      </trkpt>
      <trkpt lat="45.96449" lon="4.85222">
        <ele>269</ele>
        <time>2018-06-09T10:28:24Z</time>
      </trkpt>
      <trkpt lat="45.96448" lon="4.85213">
        <ele>269</ele>
        <time>2018-06-09T10:28:25Z</time>
      </trkpt>
      <trkpt lat="45.96449" lon="4.85202">
        <ele>269</ele>
        <time>2018-06-09T10:28:26Z</time>
      </trkpt>
      <trkpt lat="45.9645" lon="4.85191">
        <ele>269</ele>
        <time>2018-06-09T10:28:27Z</time>
      </trkpt>
      <trkpt lat="45.96452" lon="4.85181">
        <ele>269</ele>
        <time>2018-06-09T10:28:28Z</time>
      </trkpt>
      <trkpt lat="45.96453" lon="4.85171">
        <ele>269</ele>
        <time>2018-06-09T10:28:29Z</time>
      </trkpt>
      <trkpt lat="45.96453" lon="4.8516">
        <ele>268</ele>
        <time>2018-06-09T10:28:30Z</time>
      </trkpt>
      <trkpt lat="45.96456" lon="4.85149">
        <ele>268</ele>
        <time>2018-06-09T10:28:31Z</time>
      </trkpt>
      <trkpt lat="45.96458" lon="4.85134">
        <ele>268</ele>
        <time>2018-06-09T10:28:32Z</time>
      </trkpt>
      <trkpt lat="45.96463" lon="4.85126">
        <ele>268</ele>
        <time>2018-06-09T10:28:33Z</time>
      </trkpt>
      <trkpt lat="45.96469" lon="4.85121">
        <ele>268</ele>
        <time>2018-06-09T10:28:34Z</time>
      </trkpt>
      <trkpt lat="45.96472" lon="4.85111">
        <ele>268</ele>
        <time>2018-06-09T10:28:35Z</time>
      </trkpt>
      <trkpt lat="45.96472" lon="4.85097">
        <ele>268</ele>
        <time>2018-06-09T10:28:36Z</time>
      </trkpt>
      <trkpt lat="45.96473" lon="4.85085">
        <ele>268</ele>
        <time>2018-06-09T10:28:37Z</time>
      </trkpt>
      <trkpt lat="45.96473" lon="4.85072">
        <ele>267</ele>
        <time>2018-06-09T10:28:38Z</time>
      </trkpt>
      <trkpt lat="45.96474" lon="4.85059">
        <ele>266</ele>
        <time>2018-06-09T10:28:39Z</time>
      </trkpt>
      <trkpt lat="45.96476" lon="4.85046">
        <ele>266</ele>
        <time>2018-06-09T10:28:40Z</time>
      </trkpt>
      <trkpt lat="45.96474" lon="4.85035">
        <ele>266</ele>
        <time>2018-06-09T10:28:41Z</time>
      </trkpt>
      <trkpt lat="45.96475" lon="4.85022">
        <ele>266</ele>
        <time>2018-06-09T10:28:42Z</time>
      </trkpt>
      <trkpt lat="45.96476" lon="4.85006">
        <ele>266</ele>
        <time>2018-06-09T10:28:43Z</time>
      </trkpt>
      <trkpt lat="45.96478" lon="4.84993">
        <ele>263</ele>
        <time>2018-06-09T10:28:44Z</time>
      </trkpt>
      <trkpt lat="45.96482" lon="4.84983">
        <ele>262</ele>
        <time>2018-06-09T10:28:45Z</time>
      </trkpt>
      <trkpt lat="45.96488" lon="4.8497">
        <ele>262</ele>
        <time>2018-06-09T10:28:46Z</time>
      </trkpt>
      <trkpt lat="45.96487" lon="4.84955">
        <ele>261</ele>
        <time>2018-06-09T10:28:47Z</time>
      </trkpt>
      <trkpt lat="45.96493" lon="4.84938">
        <ele>259</ele>
        <time>2018-06-09T10:28:48Z</time>
      </trkpt>
      <trkpt lat="45.96496" lon="4.84925">
        <ele>258</ele>
        <time>2018-06-09T10:28:49Z</time>
      </trkpt>
      <trkpt lat="45.96497" lon="4.84908">
        <ele>256</ele>
        <time>2018-06-09T10:28:50Z</time>
      </trkpt>
      <trkpt lat="45.96499" lon="4.84891">
        <ele>256</ele>
        <time>2018-06-09T10:28:51Z</time>
      </trkpt>
      <trkpt lat="45.965" lon="4.84876">
        <ele>257</ele>
        <time>2018-06-09T10:28:52Z</time>
      </trkpt>
      <trkpt lat="45.96507" lon="4.84871">
        <ele>257</ele>
        <time>2018-06-09T10:28:53Z</time>
      </trkpt>
      <trkpt lat="45.96508" lon="4.8485">
        <ele>256</ele>
        <time>2018-06-09T10:28:54Z</time>
      </trkpt>
      <trkpt lat="45.96509" lon="4.84836">
        <ele>255</ele>
        <time>2018-06-09T10:28:55Z</time>
      </trkpt>
      <trkpt lat="45.96514" lon="4.84824">
        <ele>254</ele>
        <time>2018-06-09T10:28:56Z</time>
      </trkpt>
      <trkpt lat="45.96518" lon="4.84808">
        <ele>254</ele>
        <time>2018-06-09T10:28:57Z</time>
      </trkpt>
      <trkpt lat="45.96521" lon="4.84793">
        <ele>254</ele>
        <time>2018-06-09T10:28:58Z</time>
      </trkpt>
      <trkpt lat="45.96524" lon="4.84777">
        <ele>254</ele>
        <time>2018-06-09T10:28:59Z</time>
      </trkpt>
      <trkpt lat="45.96527" lon="4.8476">
        <ele>253</ele>
        <time>2018-06-09T10:29:00Z</time>
      </trkpt>
      <trkpt lat="45.9653" lon="4.84746">
        <ele>253</ele>
        <time>2018-06-09T10:29:01Z</time>
      </trkpt>
      <trkpt lat="45.96532" lon="4.8473">
        <ele>253</ele>
        <time>2018-06-09T10:29:02Z</time>
      </trkpt>
      <trkpt lat="45.96533" lon="4.84716">
        <ele>253</ele>
        <time>2018-06-09T10:29:03Z</time>
      </trkpt>
      <trkpt lat="45.96531" lon="4.84702">
        <ele>253</ele>
        <time>2018-06-09T10:29:04Z</time>
      </trkpt>
      <trkpt lat="45.96529" lon="4.84688">
        <ele>253</ele>
        <time>2018-06-09T10:29:05Z</time>
      </trkpt>
      <trkpt lat="45.96527" lon="4.84675">
        <ele>252</ele>
        <time>2018-06-09T10:29:06Z</time>
      </trkpt>
      <trkpt lat="45.96524" lon="4.84662">
        <ele>252</ele>
        <time>2018-06-09T10:29:07Z</time>
      </trkpt>
      <trkpt lat="45.96518" lon="4.84647">
        <ele>252</ele>
        <time>2018-06-09T10:29:08Z</time>
      </trkpt>
      <trkpt lat="45.96517" lon="4.84636">
        <ele>252</ele>
        <time>2018-06-09T10:29:09Z</time>
      </trkpt>
      <trkpt lat="45.96518" lon="4.84623">
        <ele>252</ele>
        <time>2018-06-09T10:29:10Z</time>
      </trkpt>
      <trkpt lat="45.96518" lon="4.8461">
        <ele>252</ele>
        <time>2018-06-09T10:29:11Z</time>
      </trkpt>
      <trkpt lat="45.96515" lon="4.84599">
        <ele>252</ele>
        <time>2018-06-09T10:29:12Z</time>
      </trkpt>
      <trkpt lat="45.96515" lon="4.84587">
        <ele>252</ele>
        <time>2018-06-09T10:29:13Z</time>
      </trkpt>
      <trkpt lat="45.96515" lon="4.84576">
        <ele>252</ele>
        <time>2018-06-09T10:29:14Z</time>
      </trkpt>
      <trkpt lat="45.96516" lon="4.84564">
        <ele>253</ele>
        <time>2018-06-09T10:29:15Z</time>
      </trkpt>
      <trkpt lat="45.96513" lon="4.84551">
        <ele>253</ele>
        <time>2018-06-09T10:29:16Z</time>
      </trkpt>
      <trkpt lat="45.96514" lon="4.8454">
        <ele>253</ele>
        <time>2018-06-09T10:29:17Z</time>
      </trkpt>
      <trkpt lat="45.96516" lon="4.84531">
        <ele>253</ele>
        <time>2018-06-09T10:29:18Z</time>
      </trkpt>
      <trkpt lat="45.96517" lon="4.84519">
        <ele>253</ele>
        <time>2018-06-09T10:29:19Z</time>
      </trkpt>
      <trkpt lat="45.96518" lon="4.8451">
        <ele>253</ele>
        <time>2018-06-09T10:29:20Z</time>
      </trkpt>
      <trkpt lat="45.96523" lon="4.84499">
        <ele>253</ele>
        <time>2018-06-09T10:29:21Z</time>
      </trkpt>
      <trkpt lat="45.96523" lon="4.8449">
        <ele>253</ele>
        <time>2018-06-09T10:29:22Z</time>
      </trkpt>
      <trkpt lat="45.96523" lon="4.84481">
        <ele>253</ele>
        <time>2018-06-09T10:29:23Z</time>
      </trkpt>
      <trkpt lat="45.96525" lon="4.84472">
        <ele>253</ele>
        <time>2018-06-09T10:29:24Z</time>
      </trkpt>
      <trkpt lat="45.96526" lon="4.84463">
        <ele>253</ele>
        <time>2018-06-09T10:29:25Z</time>
      </trkpt>
      <trkpt lat="45.96527" lon="4.84454">
        <ele>253</ele>
        <time>2018-06-09T10:29:26Z</time>
      </trkpt>
      <trkpt lat="45.96528" lon="4.84445">
        <ele>253</ele>
        <time>2018-06-09T10:29:27Z</time>
      </trkpt>
      <trkpt lat="45.96529" lon="4.84437">
        <ele>253</ele>
        <time>2018-06-09T10:29:28Z</time>
      </trkpt>
      <trkpt lat="45.96532" lon="4.84429">
        <ele>253</ele>
        <time>2018-06-09T10:29:29Z</time>
      </trkpt>
      <trkpt lat="45.96533" lon="4.8442">
        <ele>253</ele>
        <time>2018-06-09T10:29:30Z</time>
      </trkpt>
      <trkpt lat="45.96536" lon="4.84413">
        <ele>252</ele>
        <time>2018-06-09T10:29:31Z</time>
      </trkpt>
      <trkpt lat="45.96538" lon="4.84403">
        <ele>252</ele>
        <time>2018-06-09T10:29:32Z</time>
      </trkpt>
      <trkpt lat="45.9654" lon="4.84394">
        <ele>252</ele>
        <time>2018-06-09T10:29:33Z</time>
      </trkpt>
      <trkpt lat="45.96536" lon="4.84385">
        <ele>252</ele>
        <time>2018-06-09T10:29:34Z</time>
      </trkpt>
      <trkpt lat="45.96535" lon="4.84376">
        <ele>251</ele>
        <time>2018-06-09T10:29:35Z</time>
      </trkpt>
      <trkpt lat="45.96531" lon="4.84366">
        <ele>251</ele>
        <time>2018-06-09T10:29:36Z</time>
      </trkpt>
      <trkpt lat="45.96529" lon="4.84357">
        <ele>251</ele>
        <time>2018-06-09T10:29:37Z</time>
      </trkpt>
      <trkpt lat="45.96527" lon="4.84347">
        <ele>251</ele>
        <time>2018-06-09T10:29:38Z</time>
      </trkpt>
      <trkpt lat="45.96525" lon="4.84338">
        <ele>251</ele>
        <time>2018-06-09T10:29:39Z</time>
      </trkpt>
      <trkpt lat="45.96523" lon="4.84329">
        <ele>250</ele>
        <time>2018-06-09T10:29:40Z</time>
      </trkpt>
      <trkpt lat="45.96521" lon="4.8432">
        <ele>250</ele>
        <time>2018-06-09T10:29:41Z</time>
      </trkpt>
      <trkpt lat="45.96519" lon="4.84312">
        <ele>250</ele>
        <time>2018-06-09T10:29:42Z</time>
      </trkpt>
      <trkpt lat="45.96512" lon="4.84304">
        <ele>250</ele>
        <time>2018-06-09T10:29:43Z</time>
      </trkpt>
      <trkpt lat="45.96512" lon="4.84296">
        <ele>250</ele>
        <time>2018-06-09T10:29:44Z</time>
      </trkpt>
      <trkpt lat="45.96512" lon="4.84289">
        <ele>250</ele>
        <time>2018-06-09T10:29:45Z</time>
      </trkpt>
      <trkpt lat="45.96509" lon="4.84282">
        <ele>250</ele>
        <time>2018-06-09T10:29:46Z</time>
      </trkpt>
      <trkpt lat="45.96508" lon="4.84275">
        <ele>250</ele>
        <time>2018-06-09T10:29:47Z</time>
      </trkpt>
      <trkpt lat="45.96506" lon="4.84267">
        <ele>250</ele>
        <time>2018-06-09T10:29:48Z</time>
      </trkpt>
      <trkpt lat="45.96506" lon="4.8426">
        <ele>251</ele>
        <time>2018-06-09T10:29:49Z</time>
      </trkpt>
      <trkpt lat="45.96506" lon="4.84252">
        <ele>251</ele>
        <time>2018-06-09T10:29:50Z</time>
      </trkpt>
      <trkpt lat="45.96504" lon="4.84245">
        <ele>250</ele>
        <time>2018-06-09T10:29:51Z</time>
      </trkpt>
      <trkpt lat="45.965" lon="4.84237">
        <ele>250</ele>
        <time>2018-06-09T10:29:52Z</time>
      </trkpt>
      <trkpt lat="45.96499" lon="4.8423">
        <ele>251</ele>
        <time>2018-06-09T10:29:53Z</time>
      </trkpt>
      <trkpt lat="45.96498" lon="4.84224">
        <ele>252</ele>
        <time>2018-06-09T10:29:54Z</time>
      </trkpt>
      <trkpt lat="45.96497" lon="4.84217">
        <ele>252</ele>
        <time>2018-06-09T10:29:55Z</time>
      </trkpt>
      <trkpt lat="45.96494" lon="4.84211">
        <ele>251</ele>
        <time>2018-06-09T10:29:56Z</time>
      </trkpt>
      <trkpt lat="45.96492" lon="4.84204">
        <ele>251</ele>
        <time>2018-06-09T10:29:57Z</time>
      </trkpt>
      <trkpt lat="45.96492" lon="4.84198">
        <ele>251</ele>
        <time>2018-06-09T10:29:58Z</time>
      </trkpt>
      <trkpt lat="45.96489" lon="4.8419">
        <ele>251</ele>
        <time>2018-06-09T10:29:59Z</time>
      </trkpt>
      <trkpt lat="45.96487" lon="4.84183">
        <ele>251</ele>
        <time>2018-06-09T10:30:00Z</time>
      </trkpt>
      <trkpt lat="45.96484" lon="4.84175">
        <ele>251</ele>
        <time>2018-06-09T10:30:01Z</time>
      </trkpt>
      <trkpt lat="45.96482" lon="4.84168">
        <ele>251</ele>
        <time>2018-06-09T10:30:02Z</time>
      </trkpt>
      <trkpt lat="45.96481" lon="4.8416">
        <ele>251</ele>
        <time>2018-06-09T10:30:03Z</time>
      </trkpt>
      <trkpt lat="45.9648" lon="4.84152">
        <ele>251</ele>
        <time>2018-06-09T10:30:04Z</time>
      </trkpt>
      <trkpt lat="45.96478" lon="4.84146">
        <ele>251</ele>
        <time>2018-06-09T10:30:05Z</time>
      </trkpt>
      <trkpt lat="45.96478" lon="4.84138">
        <ele>251</ele>
        <time>2018-06-09T10:30:06Z</time>
      </trkpt>
      <trkpt lat="45.96477" lon="4.8413">
        <ele>251</ele>
        <time>2018-06-09T10:30:07Z</time>
      </trkpt>
      <trkpt lat="45.96472" lon="4.84122">
        <ele>251</ele>
        <time>2018-06-09T10:30:08Z</time>
      </trkpt>
      <trkpt lat="45.96468" lon="4.84113">
        <ele>251</ele>
        <time>2018-06-09T10:30:09Z</time>
      </trkpt>
      <trkpt lat="45.96465" lon="4.84105">
        <ele>251</ele>
        <time>2018-06-09T10:30:10Z</time>
      </trkpt>
      <trkpt lat="45.96462" lon="4.84097">
        <ele>251</ele>
        <time>2018-06-09T10:30:11Z</time>
      </trkpt>
      <trkpt lat="45.96461" lon="4.8409">
        <ele>252</ele>
        <time>2018-06-09T10:30:12Z</time>
      </trkpt>
      <trkpt lat="45.96458" lon="4.84081">
        <ele>251</ele>
        <time>2018-06-09T10:30:13Z</time>
      </trkpt>
      <trkpt lat="45.96456" lon="4.84074">
        <ele>251</ele>
        <time>2018-06-09T10:30:14Z</time>
      </trkpt>
      <trkpt lat="45.96453" lon="4.84066">
        <ele>251</ele>
        <time>2018-06-09T10:30:15Z</time>
      </trkpt>
      <trkpt lat="45.96451" lon="4.84056">
        <ele>251</ele>
        <time>2018-06-09T10:30:16Z</time>
      </trkpt>
      <trkpt lat="45.96444" lon="4.84047">
        <ele>251</ele>
        <time>2018-06-09T10:30:17Z</time>
      </trkpt>
      <trkpt lat="45.96441" lon="4.84039">
        <ele>251</ele>
        <time>2018-06-09T10:30:18Z</time>
      </trkpt>
      <trkpt lat="45.96439" lon="4.84031">
        <ele>251</ele>
        <time>2018-06-09T10:30:19Z</time>
      </trkpt>
      <trkpt lat="45.96436" lon="4.84022">
        <ele>251</ele>
        <time>2018-06-09T10:30:20Z</time>
      </trkpt>
      <trkpt lat="45.96433" lon="4.84013">
        <ele>252</ele>
        <time>2018-06-09T10:30:21Z</time>
      </trkpt>
      <trkpt lat="45.96429" lon="4.84004">
        <ele>252</ele>
        <time>2018-06-09T10:30:22Z</time>
      </trkpt>
      <trkpt lat="45.96426" lon="4.83994">
        <ele>251</ele>
        <time>2018-06-09T10:30:23Z</time>
      </trkpt>
      <trkpt lat="45.96422" lon="4.83985">
        <ele>251</ele>
        <time>2018-06-09T10:30:24Z</time>
      </trkpt>
      <trkpt lat="45.96418" lon="4.83976">
        <ele>250</ele>
        <time>2018-06-09T10:30:25Z</time>
      </trkpt>
      <trkpt lat="45.96414" lon="4.83968">
        <ele>253</ele>
        <time>2018-06-09T10:30:26Z</time>
      </trkpt>
      <trkpt lat="45.96411" lon="4.83959">
        <ele>252</ele>
        <time>2018-06-09T10:30:27Z</time>
      </trkpt>
      <trkpt lat="45.96407" lon="4.83951">
        <ele>252</ele>
        <time>2018-06-09T10:30:28Z</time>
      </trkpt>
      <trkpt lat="45.96404" lon="4.83942">
        <ele>251</ele>
        <time>2018-06-09T10:30:29Z</time>
      </trkpt>
      <trkpt lat="45.964" lon="4.83932">
        <ele>251</ele>
        <time>2018-06-09T10:30:30Z</time>
      </trkpt>
      <trkpt lat="45.96397" lon="4.83923">
        <ele>250</ele>
        <time>2018-06-09T10:30:31Z</time>
      </trkpt>
      <trkpt lat="45.96393" lon="4.83915">
        <ele>248</ele>
        <time>2018-06-09T10:30:32Z</time>
      </trkpt>
      <trkpt lat="45.96388" lon="4.83906">
        <ele>248</ele>
        <time>2018-06-09T10:30:33Z</time>
      </trkpt>
      <trkpt lat="45.96384" lon="4.83896">
        <ele>248</ele>
        <time>2018-06-09T10:30:34Z</time>
      </trkpt>
      <trkpt lat="45.96379" lon="4.83887">
        <ele>248</ele>
        <time>2018-06-09T10:30:35Z</time>
      </trkpt>
      <trkpt lat="45.96373" lon="4.83877">
        <ele>247</ele>
        <time>2018-06-09T10:30:36Z</time>
      </trkpt>
      <trkpt lat="45.96369" lon="4.83868">
        <ele>247</ele>
        <time>2018-06-09T10:30:37Z</time>
      </trkpt>
      <trkpt lat="45.96365" lon="4.83858">
        <ele>247</ele>
        <time>2018-06-09T10:30:38Z</time>
      </trkpt>
      <trkpt lat="45.9636" lon="4.83851">
        <ele>246</ele>
        <time>2018-06-09T10:30:39Z</time>
      </trkpt>
      <trkpt lat="45.96355" lon="4.83843">
        <ele>246</ele>
        <time>2018-06-09T10:30:40Z</time>
      </trkpt>
      <trkpt lat="45.9635" lon="4.83836">
        <ele>245</ele>
        <time>2018-06-09T10:30:41Z</time>
      </trkpt>
      <trkpt lat="45.96346" lon="4.8383">
        <ele>245</ele>
        <time>2018-06-09T10:30:42Z</time>
      </trkpt>
      <trkpt lat="45.9634" lon="4.83824">
        <ele>245</ele>
        <time>2018-06-09T10:30:43Z</time>
      </trkpt>
      <trkpt lat="45.96335" lon="4.83818">
        <ele>245</ele>
        <time>2018-06-09T10:30:44Z</time>
      </trkpt>
      <trkpt lat="45.96329" lon="4.83812">
        <ele>244</ele>
        <time>2018-06-09T10:30:45Z</time>
      </trkpt>
      <trkpt lat="45.96323" lon="4.83807">
        <ele>245</ele>
        <time>2018-06-09T10:30:46Z</time>
      </trkpt>
      <trkpt lat="45.96317" lon="4.83803">
        <ele>245</ele>
        <time>2018-06-09T10:30:47Z</time>
      </trkpt>
      <trkpt lat="45.96311" lon="4.83798">
        <ele>245</ele>
        <time>2018-06-09T10:30:48Z</time>
      </trkpt>
      <trkpt lat="45.96306" lon="4.83794">
        <ele>245</ele>
        <time>2018-06-09T10:30:49Z</time>
      </trkpt>
      <trkpt lat="45.96301" lon="4.8379">
        <ele>245</ele>
        <time>2018-06-09T10:30:50Z</time>
      </trkpt>
      <trkpt lat="45.96296" lon="4.83785">
        <ele>245</ele>
        <time>2018-06-09T10:30:51Z</time>
      </trkpt>
      <trkpt lat="45.96293" lon="4.83782">
        <ele>245</ele>
        <time>2018-06-09T10:30:52Z</time>
      </trkpt>
      <trkpt lat="45.96288" lon="4.83777">
        <ele>245</ele>
        <time>2018-06-09T10:30:53Z</time>
      </trkpt>
      <trkpt lat="45.96282" lon="4.83773">
        <ele>245</ele>
        <time>2018-06-09T10:30:54Z</time>
      </trkpt>
      <trkpt lat="45.96277" lon="4.83767">
        <ele>245</ele>
        <time>2018-06-09T10:30:55Z</time>
      </trkpt>
      <trkpt lat="45.96272" lon="4.83762">
        <ele>245</ele>
        <time>2018-06-09T10:30:56Z</time>
      </trkpt>
      <trkpt lat="45.96267" lon="4.83757">
        <ele>245</ele>
        <time>2018-06-09T10:30:57Z</time>
      </trkpt>
      <trkpt lat="45.96262" lon="4.83752">
        <ele>244</ele>
        <time>2018-06-09T10:30:58Z</time>
      </trkpt>
      <trkpt lat="45.96257" lon="4.83746">
        <ele>245</ele>
        <time>2018-06-09T10:30:59Z</time>
      </trkpt>
      <trkpt lat="45.96252" lon="4.8374">
        <ele>245</ele>
        <time>2018-06-09T10:31:00Z</time>
      </trkpt>
      <trkpt lat="45.96246" lon="4.83735">
        <ele>244</ele>
        <time>2018-06-09T10:31:01Z</time>
      </trkpt>
      <trkpt lat="45.96241" lon="4.83729">
        <ele>244</ele>
        <time>2018-06-09T10:31:02Z</time>
      </trkpt>
      <trkpt lat="45.96234" lon="4.83723">
        <ele>244</ele>
        <time>2018-06-09T10:31:03Z</time>
      </trkpt>
      <trkpt lat="45.96227" lon="4.83717">
        <ele>244</ele>
        <time>2018-06-09T10:31:04Z</time>
      </trkpt>
      <trkpt lat="45.96222" lon="4.83712">
        <ele>244</ele>
        <time>2018-06-09T10:31:05Z</time>
      </trkpt>
      <trkpt lat="45.96217" lon="4.83706">
        <ele>244</ele>
        <time>2018-06-09T10:31:06Z</time>
      </trkpt>
      <trkpt lat="45.96212" lon="4.83701">
        <ele>243</ele>
        <time>2018-06-09T10:31:07Z</time>
      </trkpt>
      <trkpt lat="45.96206" lon="4.83695">
        <ele>243</ele>
        <time>2018-06-09T10:31:08Z</time>
      </trkpt>
      <trkpt lat="45.96201" lon="4.83689">
        <ele>243</ele>
        <time>2018-06-09T10:31:09Z</time>
      </trkpt>
      <trkpt lat="45.96197" lon="4.83683">
        <ele>243</ele>
        <time>2018-06-09T10:31:10Z</time>
      </trkpt>
      <trkpt lat="45.96193" lon="4.83677">
        <ele>243</ele>
        <time>2018-06-09T10:31:11Z</time>
      </trkpt>
      <trkpt lat="45.96189" lon="4.83673">
        <ele>243</ele>
        <time>2018-06-09T10:31:12Z</time>
      </trkpt>
      <trkpt lat="45.96184" lon="4.83668">
        <ele>243</ele>
        <time>2018-06-09T10:31:13Z</time>
      </trkpt>
      <trkpt lat="45.9618" lon="4.83664">
        <ele>242</ele>
        <time>2018-06-09T10:31:14Z</time>
      </trkpt>
      <trkpt lat="45.96176" lon="4.83658">
        <ele>242</ele>
        <time>2018-06-09T10:31:15Z</time>
      </trkpt>
      <trkpt lat="45.96171" lon="4.83651">
        <ele>242</ele>
        <time>2018-06-09T10:31:16Z</time>
      </trkpt>
      <trkpt lat="45.96168" lon="4.83644">
        <ele>242</ele>
        <time>2018-06-09T10:31:17Z</time>
      </trkpt>
      <trkpt lat="45.96165" lon="4.83637">
        <ele>243</ele>
        <time>2018-06-09T10:31:18Z</time>
      </trkpt>
      <trkpt lat="45.96162" lon="4.8363">
        <ele>243</ele>
        <time>2018-06-09T10:31:19Z</time>
      </trkpt>
      <trkpt lat="45.96159" lon="4.83622">
        <ele>242</ele>
        <time>2018-06-09T10:31:20Z</time>
      </trkpt>
      <trkpt lat="45.96158" lon="4.83613">
        <ele>242</ele>
        <time>2018-06-09T10:31:21Z</time>
      </trkpt>
      <trkpt lat="45.96156" lon="4.83605">
        <ele>242</ele>
        <time>2018-06-09T10:31:22Z</time>
      </trkpt>
      <trkpt lat="45.96154" lon="4.83596">
        <ele>242</ele>
        <time>2018-06-09T10:31:23Z</time>
      </trkpt>
      <trkpt lat="45.96152" lon="4.83587">
        <ele>242</ele>
        <time>2018-06-09T10:31:24Z</time>
      </trkpt>
      <trkpt lat="45.96151" lon="4.83579">
        <ele>241</ele>
        <time>2018-06-09T10:31:25Z</time>
      </trkpt>
      <trkpt lat="45.96148" lon="4.83571">
        <ele>241</ele>
        <time>2018-06-09T10:31:26Z</time>
      </trkpt>
      <trkpt lat="45.96147" lon="4.83562">
        <ele>241</ele>
        <time>2018-06-09T10:31:27Z</time>
      </trkpt>
      <trkpt lat="45.96145" lon="4.83554">
        <ele>242</ele>
        <time>2018-06-09T10:31:28Z</time>
      </trkpt>
      <trkpt lat="45.96144" lon="4.83547">
        <ele>242</ele>
        <time>2018-06-09T10:31:29Z</time>
      </trkpt>
      <trkpt lat="45.96143" lon="4.8354">
        <ele>242</ele>
        <time>2018-06-09T10:31:30Z</time>
      </trkpt>
      <trkpt lat="45.96141" lon="4.83533">
        <ele>242</ele>
        <time>2018-06-09T10:31:31Z</time>
      </trkpt>
      <trkpt lat="45.96139" lon="4.83525">
        <ele>242</ele>
        <time>2018-06-09T10:31:32Z</time>
      </trkpt>
      <trkpt lat="45.96137" lon="4.83517">
        <ele>242</ele>
        <time>2018-06-09T10:31:33Z</time>
      </trkpt>
      <trkpt lat="45.96135" lon="4.83509">
        <ele>242</ele>
        <time>2018-06-09T10:31:34Z</time>
      </trkpt>
      <trkpt lat="45.96133" lon="4.83501">
        <ele>242</ele>
        <time>2018-06-09T10:31:35Z</time>
      </trkpt>
      <trkpt lat="45.96131" lon="4.83491">
        <ele>242</ele>
        <time>2018-06-09T10:31:36Z</time>
      </trkpt>
      <trkpt lat="45.96129" lon="4.83483">
        <ele>242</ele>
        <time>2018-06-09T10:31:37Z</time>
      </trkpt>
      <trkpt lat="45.96128" lon="4.83474">
        <ele>242</ele>
        <time>2018-06-09T10:31:38Z</time>
      </trkpt>
      <trkpt lat="45.96127" lon="4.83465">
        <ele>242</ele>
        <time>2018-06-09T10:31:39Z</time>
      </trkpt>
      <trkpt lat="45.96125" lon="4.83456">
        <ele>242</ele>
        <time>2018-06-09T10:31:40Z</time>
      </trkpt>
      <trkpt lat="45.96123" lon="4.83446">
        <ele>242</ele>
        <time>2018-06-09T10:31:41Z</time>
      </trkpt>
      <trkpt lat="45.96122" lon="4.83436">
        <ele>242</ele>
        <time>2018-06-09T10:31:42Z</time>
      </trkpt>
      <trkpt lat="45.9612" lon="4.83425">
        <ele>243</ele>
        <time>2018-06-09T10:31:43Z</time>
      </trkpt>
      <trkpt lat="45.96119" lon="4.83416">
        <ele>243</ele>
        <time>2018-06-09T10:31:44Z</time>
      </trkpt>
      <trkpt lat="45.96118" lon="4.83408">
        <ele>243</ele>
        <time>2018-06-09T10:31:45Z</time>
      </trkpt>
      <trkpt lat="45.96116" lon="4.83399">
        <ele>243</ele>
        <time>2018-06-09T10:31:46Z</time>
      </trkpt>
      <trkpt lat="45.96116" lon="4.83389">
        <ele>243</ele>
        <time>2018-06-09T10:31:47Z</time>
      </trkpt>
      <trkpt lat="45.96115" lon="4.8338">
        <ele>242</ele>
        <time>2018-06-09T10:31:48Z</time>
      </trkpt>
      <trkpt lat="45.96112" lon="4.83372">
        <ele>242</ele>
        <time>2018-06-09T10:31:49Z</time>
      </trkpt>
      <trkpt lat="45.96111" lon="4.83362">
        <ele>242</ele>
        <time>2018-06-09T10:31:50Z</time>
      </trkpt>
      <trkpt lat="45.9611" lon="4.83354">
        <ele>242</ele>
        <time>2018-06-09T10:31:51Z</time>
      </trkpt>
      <trkpt lat="45.96105" lon="4.83344">
        <ele>242</ele>
        <time>2018-06-09T10:31:52Z</time>
      </trkpt>
      <trkpt lat="45.96103" lon="4.83335">
        <ele>242</ele>
        <time>2018-06-09T10:31:53Z</time>
      </trkpt>
      <trkpt lat="45.96102" lon="4.83326">
        <ele>241</ele>
        <time>2018-06-09T10:31:54Z</time>
      </trkpt>
      <trkpt lat="45.96101" lon="4.83318">
        <ele>241</ele>
        <time>2018-06-09T10:31:55Z</time>
      </trkpt>
      <trkpt lat="45.96101" lon="4.83309">
        <ele>241</ele>
        <time>2018-06-09T10:31:56Z</time>
      </trkpt>
      <trkpt lat="45.96101" lon="4.833">
        <ele>241</ele>
        <time>2018-06-09T10:31:57Z</time>
      </trkpt>
      <trkpt lat="45.96098" lon="4.83292">
        <ele>241</ele>
        <time>2018-06-09T10:31:58Z</time>
      </trkpt>
      <trkpt lat="45.96097" lon="4.83283">
        <ele>241</ele>
        <time>2018-06-09T10:31:59Z</time>
      </trkpt>
      <trkpt lat="45.96098" lon="4.83273">
        <ele>241</ele>
        <time>2018-06-09T10:32:00Z</time>
      </trkpt>
      <trkpt lat="45.96098" lon="4.83264">
        <ele>241</ele>
        <time>2018-06-09T10:32:01Z</time>
      </trkpt>
      <trkpt lat="45.96097" lon="4.83255">
        <ele>241</ele>
        <time>2018-06-09T10:32:02Z</time>
      </trkpt>
      <trkpt lat="45.96096" lon="4.83246">
        <ele>240</ele>
        <time>2018-06-09T10:32:03Z</time>
      </trkpt>
      <trkpt lat="45.96097" lon="4.83238">
        <ele>240</ele>
        <time>2018-06-09T10:32:04Z</time>
      </trkpt>
      <trkpt lat="45.96096" lon="4.83229">
        <ele>240</ele>
        <time>2018-06-09T10:32:05Z</time>
      </trkpt>
      <trkpt lat="45.96095" lon="4.8322">
        <ele>240</ele>
        <time>2018-06-09T10:32:06Z</time>
      </trkpt>
      <trkpt lat="45.96097" lon="4.83213">
        <ele>240</ele>
        <time>2018-06-09T10:32:07Z</time>
      </trkpt>
      <trkpt lat="45.96095" lon="4.83204">
        <ele>240</ele>
        <time>2018-06-09T10:32:08Z</time>
      </trkpt>
      <trkpt lat="45.96097" lon="4.83195">
        <ele>240</ele>
        <time>2018-06-09T10:32:09Z</time>
      </trkpt>
      <trkpt lat="45.96095" lon="4.83187">
        <ele>240</ele>
        <time>2018-06-09T10:32:10Z</time>
      </trkpt>
      <trkpt lat="45.96094" lon="4.83179">
        <ele>240</ele>
        <time>2018-06-09T10:32:11Z</time>
      </trkpt>
      <trkpt lat="45.96093" lon="4.83171">
        <ele>240</ele>
        <time>2018-06-09T10:32:12Z</time>
      </trkpt>
      <trkpt lat="45.9609" lon="4.83165">
        <ele>240</ele>
        <time>2018-06-09T10:32:13Z</time>
      </trkpt>
      <trkpt lat="45.96089" lon="4.83157">
        <ele>240</ele>
        <time>2018-06-09T10:32:14Z</time>
      </trkpt>
      <trkpt lat="45.96092" lon="4.83148">
        <ele>240</ele>
        <time>2018-06-09T10:32:15Z</time>
      </trkpt>
      <trkpt lat="45.9609" lon="4.83138">
        <ele>240</ele>
        <time>2018-06-09T10:32:16Z</time>
      </trkpt>
      <trkpt lat="45.96091" lon="4.83129">
        <ele>240</ele>
        <time>2018-06-09T10:32:17Z</time>
      </trkpt>
      <trkpt lat="45.9609" lon="4.83119">
        <ele>240</ele>
        <time>2018-06-09T10:32:18Z</time>
      </trkpt>
      <trkpt lat="45.9609" lon="4.8311">
        <ele>240</ele>
        <time>2018-06-09T10:32:19Z</time>
      </trkpt>
      <trkpt lat="45.96088" lon="4.83101">
        <ele>240</ele>
        <time>2018-06-09T10:32:20Z</time>
      </trkpt>
      <trkpt lat="45.96087" lon="4.83092">
        <ele>240</ele>
        <time>2018-06-09T10:32:21Z</time>
      </trkpt>
      <trkpt lat="45.96087" lon="4.83084">
        <ele>240</ele>
        <time>2018-06-09T10:32:22Z</time>
      </trkpt>
      <trkpt lat="45.96084" lon="4.83078">
        <ele>240</ele>
        <time>2018-06-09T10:32:23Z</time>
      </trkpt>
      <trkpt lat="45.96083" lon="4.8307">
        <ele>241</ele>
        <time>2018-06-09T10:32:24Z</time>
      </trkpt>
      <trkpt lat="45.96081" lon="4.83062">
        <ele>242</ele>
        <time>2018-06-09T10:32:25Z</time>
      </trkpt>
      <trkpt lat="45.96079" lon="4.83053">
        <ele>242</ele>
        <time>2018-06-09T10:32:26Z</time>
      </trkpt>
      <trkpt lat="45.96076" lon="4.83046">
        <ele>242</ele>
        <time>2018-06-09T10:32:27Z</time>
      </trkpt>
      <trkpt lat="45.96077" lon="4.8304">
        <ele>242</ele>
        <time>2018-06-09T10:32:28Z</time>
      </trkpt>
      <trkpt lat="45.96076" lon="4.83031">
        <ele>242</ele>
        <time>2018-06-09T10:32:29Z</time>
      </trkpt>
      <trkpt lat="45.96075" lon="4.83024">
        <ele>242</ele>
        <time>2018-06-09T10:32:30Z</time>
      </trkpt>
      <trkpt lat="45.96074" lon="4.83017">
        <ele>242</ele>
        <time>2018-06-09T10:32:31Z</time>
      </trkpt>
      <trkpt lat="45.96077" lon="4.83011">
        <ele>241</ele>
        <time>2018-06-09T10:32:32Z</time>
      </trkpt>
      <trkpt lat="45.96077" lon="4.83004">
        <ele>240</ele>
        <time>2018-06-09T10:32:33Z</time>
      </trkpt>
      <trkpt lat="45.96076" lon="4.82997">
        <ele>240</ele>
        <time>2018-06-09T10:32:34Z</time>
      </trkpt>
      <trkpt lat="45.96077" lon="4.8299">
        <ele>240</ele>
        <time>2018-06-09T10:32:35Z</time>
      </trkpt>
      <trkpt lat="45.9608" lon="4.82984">
        <ele>240</ele>
        <time>2018-06-09T10:32:36Z</time>
      </trkpt>
      <trkpt lat="45.9608" lon="4.82976">
        <ele>241</ele>
        <time>2018-06-09T10:32:37Z</time>
      </trkpt>
      <trkpt lat="45.96081" lon="4.82971">
        <ele>241</ele>
        <time>2018-06-09T10:32:38Z</time>
      </trkpt>
      <trkpt lat="45.9608" lon="4.82961">
        <ele>241</ele>
        <time>2018-06-09T10:32:39Z</time>
      </trkpt>
      <trkpt lat="45.96082" lon="4.82954">
        <ele>241</ele>
        <time>2018-06-09T10:32:40Z</time>
      </trkpt>
      <trkpt lat="45.96083" lon="4.82948">
        <ele>241</ele>
        <time>2018-06-09T10:32:41Z</time>
      </trkpt>
      <trkpt lat="45.96084" lon="4.82941">
        <ele>238</ele>
        <time>2018-06-09T10:32:42Z</time>
      </trkpt>
      <trkpt lat="45.96085" lon="4.82933">
        <ele>238</ele>
        <time>2018-06-09T10:32:43Z</time>
      </trkpt>
      <trkpt lat="45.96087" lon="4.82926">
        <ele>238</ele>
        <time>2018-06-09T10:32:44Z</time>
      </trkpt>
      <trkpt lat="45.96089" lon="4.82918">
        <ele>238</ele>
        <time>2018-06-09T10:32:45Z</time>
      </trkpt>
      <trkpt lat="45.96092" lon="4.8291">
        <ele>238</ele>
        <time>2018-06-09T10:32:46Z</time>
      </trkpt>
      <trkpt lat="45.96092" lon="4.82903">
        <ele>238</ele>
        <time>2018-06-09T10:32:47Z</time>
      </trkpt>
      <trkpt lat="45.96093" lon="4.82896">
        <ele>237</ele>
        <time>2018-06-09T10:32:48Z</time>
      </trkpt>
      <trkpt lat="45.96096" lon="4.82887">
        <ele>237</ele>
        <time>2018-06-09T10:32:51Z</time>
      </trkpt>
      <trkpt lat="45.96096" lon="4.82884">
        <ele>237</ele>
        <time>2018-06-09T10:32:52Z</time>
      </trkpt>
      <trkpt lat="45.96099" lon="4.82874">
        <ele>237</ele>
        <time>2018-06-09T10:32:55Z</time>
      </trkpt>
      <trkpt lat="45.961" lon="4.8287">
        <ele>237</ele>
        <time>2018-06-09T10:32:56Z</time>
      </trkpt>
      <trkpt lat="45.96102" lon="4.82859">
        <ele>237</ele>
        <time>2018-06-09T10:32:59Z</time>
      </trkpt>
      <trkpt lat="45.96103" lon="4.82855">
        <ele>237</ele>
        <time>2018-06-09T10:33:00Z</time>
      </trkpt>
      <trkpt lat="45.96103" lon="4.82847">
        <ele>237</ele>
        <time>2018-06-09T10:33:02Z</time>
      </trkpt>
      <trkpt lat="45.96103" lon="4.82842">
        <ele>237</ele>
        <time>2018-06-09T10:33:03Z</time>
      </trkpt>
      <trkpt lat="45.96102" lon="4.82833">
        <ele>237</ele>
        <time>2018-06-09T10:33:05Z</time>
      </trkpt>
      <trkpt lat="45.96101" lon="4.82828">
        <ele>237</ele>
        <time>2018-06-09T10:33:06Z</time>
      </trkpt>
      <trkpt lat="45.96099" lon="4.82816">
        <ele>237</ele>
        <time>2018-06-09T10:33:09Z</time>
      </trkpt>
      <trkpt lat="45.96098" lon="4.82813">
        <ele>237</ele>
        <time>2018-06-09T10:33:10Z</time>
      </trkpt>
      <trkpt lat="45.9609" lon="4.82811">
        <ele>237</ele>
        <time>2018-06-09T10:33:15Z</time>
      </trkpt>
      <trkpt lat="45.96088" lon="4.82812">
        <ele>237</ele>
        <time>2018-06-09T10:33:16Z</time>
      </trkpt>
      <trkpt lat="45.96085" lon="4.82818">
        <ele>237</ele>
        <time>2018-06-09T10:33:26Z</time>
      </trkpt>
      <trkpt lat="45.96085" lon="4.82818">
        <ele>237</ele>
        <time>2018-06-09T10:33:27Z</time>
      </trkpt>
      <trkpt lat="45.96086" lon="4.82819">
        <ele>237</ele>
        <time>2018-06-09T10:34:28Z</time>
      </trkpt>
      <trkpt lat="45.96086" lon="4.82819">
        <ele>237</ele>
        <time>2018-06-09T10:34:29Z</time>
      </trkpt>
      <trkpt lat="45.96079" lon="4.82814">
        <ele>238</ele>
        <time>2018-06-09T10:34:42Z</time>
      </trkpt>
      <trkpt lat="45.96078" lon="4.82813">
        <ele>238</ele>
        <time>2018-06-09T10:34:43Z</time>
      </trkpt>
      <trkpt lat="45.96076" lon="4.82801">
        <ele>238</ele>
        <time>2018-06-09T10:34:49Z</time>
      </trkpt>
      <trkpt lat="45.96075" lon="4.82799">
        <ele>238</ele>
        <time>2018-06-09T10:34:50Z</time>
      </trkpt>
      <trkpt lat="45.96071" lon="4.82789">
        <ele>238</ele>
        <time>2018-06-09T10:35:38Z</time>
      </trkpt>
      <trkpt lat="45.96071" lon="4.82788">
        <ele>238</ele>
        <time>2018-06-09T10:35:39Z</time>
      </trkpt>
      <trkpt lat="45.96072" lon="4.82787">
        <ele>238</ele>
        <time>2018-06-09T10:36:09Z</time>
      </trkpt>
      <trkpt lat="45.96072" lon="4.82788">
        <ele>238</ele>
        <time>2018-06-09T10:36:10Z</time>
      </trkpt>
      <trkpt lat="45.96071" lon="4.82788">
        <ele>238</ele>
        <time>2018-06-09T10:36:15Z</time>
      </trkpt>
      <trkpt lat="45.96071" lon="4.82788">
        <ele>238</ele>
        <time>2018-06-09T10:36:16Z</time>
      </trkpt>
      <trkpt lat="45.96075" lon="4.82785">
        <ele>238</ele>
        <time>2018-06-09T10:36:22Z</time>
      </trkpt>
      <trkpt lat="45.96082" lon="4.82781">
        <ele>238</ele>
        <time>2018-06-09T10:36:23Z</time>
      </trkpt>
      <trkpt lat="45.96087" lon="4.82773">
        <ele>237</ele>
        <time>2018-06-09T10:36:25Z</time>
      </trkpt>
      <trkpt lat="45.96087" lon="4.8277">
        <ele>237</ele>
        <time>2018-06-09T10:36:26Z</time>
      </trkpt>
      <trkpt lat="45.96087" lon="4.82767">
        <ele>237</ele>
        <time>2018-06-09T10:36:27Z</time>
      </trkpt>
      <trkpt lat="45.96085" lon="4.82756">
        <ele>237</ele>
        <time>2018-06-09T10:36:28Z</time>
      </trkpt>
      <trkpt lat="45.96083" lon="4.82751">
        <ele>237</ele>
        <time>2018-06-09T10:36:29Z</time>
      </trkpt>
      <trkpt lat="45.96077" lon="4.82742">
        <ele>237</ele>
        <time>2018-06-09T10:36:30Z</time>
      </trkpt>
      <trkpt lat="45.96075" lon="4.82736">
        <ele>237</ele>
        <time>2018-06-09T10:36:31Z</time>
      </trkpt>
      <trkpt lat="45.96072" lon="4.82731">
        <ele>237</ele>
        <time>2018-06-09T10:36:32Z</time>
      </trkpt>
      <trkpt lat="45.9607" lon="4.82725">
        <ele>237</ele>
        <time>2018-06-09T10:36:33Z</time>
      </trkpt>
      <trkpt lat="45.96068" lon="4.82718">
        <ele>237</ele>
        <time>2018-06-09T10:36:34Z</time>
      </trkpt>
      <trkpt lat="45.96064" lon="4.82711">
        <ele>237</ele>
        <time>2018-06-09T10:36:35Z</time>
      </trkpt>
      <trkpt lat="45.96062" lon="4.82705">
        <ele>237</ele>
        <time>2018-06-09T10:36:36Z</time>
      </trkpt>
      <trkpt lat="45.96059" lon="4.82699">
        <ele>237</ele>
        <time>2018-06-09T10:36:37Z</time>
      </trkpt>
      <trkpt lat="45.96057" lon="4.82692">
        <ele>237</ele>
        <time>2018-06-09T10:36:38Z</time>
      </trkpt>
      <trkpt lat="45.96055" lon="4.82687">
        <ele>236</ele>
        <time>2018-06-09T10:36:39Z</time>
      </trkpt>
      <trkpt lat="45.96052" lon="4.8268">
        <ele>236</ele>
        <time>2018-06-09T10:36:40Z</time>
      </trkpt>
      <trkpt lat="45.96051" lon="4.82673">
        <ele>236</ele>
        <time>2018-06-09T10:36:41Z</time>
      </trkpt>
      <trkpt lat="45.96049" lon="4.82667">
        <ele>235</ele>
        <time>2018-06-09T10:36:42Z</time>
      </trkpt>
      <trkpt lat="45.96047" lon="4.82657">
        <ele>235</ele>
        <time>2018-06-09T10:36:44Z</time>
      </trkpt>
      <trkpt lat="45.96046" lon="4.82649">
        <ele>235</ele>
        <time>2018-06-09T10:36:45Z</time>
      </trkpt>
      <trkpt lat="45.96043" lon="4.82642">
        <ele>235</ele>
        <time>2018-06-09T10:36:46Z</time>
      </trkpt>
      <trkpt lat="45.96042" lon="4.82636">
        <ele>235</ele>
        <time>2018-06-09T10:36:47Z</time>
      </trkpt>
      <trkpt lat="45.96038" lon="4.82626">
        <ele>235</ele>
        <time>2018-06-09T10:36:49Z</time>
      </trkpt>
      <trkpt lat="45.96036" lon="4.8262">
        <ele>235</ele>
        <time>2018-06-09T10:36:50Z</time>
      </trkpt>
      <trkpt lat="45.96032" lon="4.82612">
        <ele>235</ele>
        <time>2018-06-09T10:36:51Z</time>
      </trkpt>
      <trkpt lat="45.96026" lon="4.82604">
        <ele>235</ele>
        <time>2018-06-09T10:36:52Z</time>
      </trkpt>
      <trkpt lat="45.96022" lon="4.82596">
        <ele>235</ele>
        <time>2018-06-09T10:36:53Z</time>
      </trkpt>
      <trkpt lat="45.9602" lon="4.8259">
        <ele>235</ele>
        <time>2018-06-09T10:36:54Z</time>
      </trkpt>
      <trkpt lat="45.96019" lon="4.82584">
        <ele>235</ele>
        <time>2018-06-09T10:36:55Z</time>
      </trkpt>
      <trkpt lat="45.96017" lon="4.82577">
        <ele>234</ele>
        <time>2018-06-09T10:36:56Z</time>
      </trkpt>
      <trkpt lat="45.96018" lon="4.8257">
        <ele>235</ele>
        <time>2018-06-09T10:36:57Z</time>
      </trkpt>
      <trkpt lat="45.96018" lon="4.82563">
        <ele>235</ele>
        <time>2018-06-09T10:36:58Z</time>
      </trkpt>
      <trkpt lat="45.96014" lon="4.82556">
        <ele>235</ele>
        <time>2018-06-09T10:36:59Z</time>
      </trkpt>
      <trkpt lat="45.96011" lon="4.82548">
        <ele>235</ele>
        <time>2018-06-09T10:37:00Z</time>
      </trkpt>
      <trkpt lat="45.9601" lon="4.8254">
        <ele>235</ele>
        <time>2018-06-09T10:37:01Z</time>
      </trkpt>
      <trkpt lat="45.9601" lon="4.82533">
        <ele>235</ele>
        <time>2018-06-09T10:37:02Z</time>
      </trkpt>
      <trkpt lat="45.96011" lon="4.82525">
        <ele>235</ele>
        <time>2018-06-09T10:37:03Z</time>
      </trkpt>
      <trkpt lat="45.96008" lon="4.82515">
        <ele>235</ele>
        <time>2018-06-09T10:37:04Z</time>
      </trkpt>
      <trkpt lat="45.96009" lon="4.82506">
        <ele>235</ele>
        <time>2018-06-09T10:37:05Z</time>
      </trkpt>
      <trkpt lat="45.96013" lon="4.82501">
        <ele>235</ele>
        <time>2018-06-09T10:37:06Z</time>
      </trkpt>
      <trkpt lat="45.96014" lon="4.82492">
        <ele>235</ele>
        <time>2018-06-09T10:37:07Z</time>
      </trkpt>
      <trkpt lat="45.96015" lon="4.82484">
        <ele>235</ele>
        <time>2018-06-09T10:37:08Z</time>
      </trkpt>
      <trkpt lat="45.96017" lon="4.82476">
        <ele>235</ele>
        <time>2018-06-09T10:37:09Z</time>
      </trkpt>
      <trkpt lat="45.96016" lon="4.82467">
        <ele>235</ele>
        <time>2018-06-09T10:37:10Z</time>
      </trkpt>
      <trkpt lat="45.96018" lon="4.82459">
        <ele>235</ele>
        <time>2018-06-09T10:37:11Z</time>
      </trkpt>
      <trkpt lat="45.96014" lon="4.82449">
        <ele>235</ele>
        <time>2018-06-09T10:37:12Z</time>
      </trkpt>
      <trkpt lat="45.96019" lon="4.82442">
        <ele>235</ele>
        <time>2018-06-09T10:37:13Z</time>
      </trkpt>
      <trkpt lat="45.9602" lon="4.82435">
        <ele>235</ele>
        <time>2018-06-09T10:37:14Z</time>
      </trkpt>
      <trkpt lat="45.96022" lon="4.82427">
        <ele>235</ele>
        <time>2018-06-09T10:37:15Z</time>
      </trkpt>
      <trkpt lat="45.96026" lon="4.8242">
        <ele>235</ele>
        <time>2018-06-09T10:37:16Z</time>
      </trkpt>
      <trkpt lat="45.96029" lon="4.82412">
        <ele>235</ele>
        <time>2018-06-09T10:37:17Z</time>
      </trkpt>
      <trkpt lat="45.96029" lon="4.82403">
        <ele>235</ele>
        <time>2018-06-09T10:37:18Z</time>
      </trkpt>
      <trkpt lat="45.96027" lon="4.82393">
        <ele>235</ele>
        <time>2018-06-09T10:37:19Z</time>
      </trkpt>
      <trkpt lat="45.96027" lon="4.82386">
        <ele>235</ele>
        <time>2018-06-09T10:37:20Z</time>
      </trkpt>
      <trkpt lat="45.96029" lon="4.82379">
        <ele>235</ele>
        <time>2018-06-09T10:37:21Z</time>
      </trkpt>
      <trkpt lat="45.96034" lon="4.82375">
        <ele>235</ele>
        <time>2018-06-09T10:37:22Z</time>
      </trkpt>
      <trkpt lat="45.96035" lon="4.82366">
        <ele>235</ele>
        <time>2018-06-09T10:37:24Z</time>
      </trkpt>
      <trkpt lat="45.96032" lon="4.8236">
        <ele>235</ele>
        <time>2018-06-09T10:37:25Z</time>
      </trkpt>
      <trkpt lat="45.96023" lon="4.82357">
        <ele>235</ele>
        <time>2018-06-09T10:37:27Z</time>
      </trkpt>
      <trkpt lat="45.96021" lon="4.82358">
        <ele>235</ele>
        <time>2018-06-09T10:37:28Z</time>
      </trkpt>
      <trkpt lat="45.96014" lon="4.82358">
        <ele>235</ele>
        <time>2018-06-09T10:37:30Z</time>
      </trkpt>
      <trkpt lat="45.96009" lon="4.82357">
        <ele>235</ele>
        <time>2018-06-09T10:37:31Z</time>
      </trkpt>
      <trkpt lat="45.96001" lon="4.8236">
        <ele>235</ele>
        <time>2018-06-09T10:37:35Z</time>
      </trkpt>
      <trkpt lat="45.95992" lon="4.82359">
        <ele>236</ele>
        <time>2018-06-09T10:37:36Z</time>
      </trkpt>
      <trkpt lat="45.95983" lon="4.82361">
        <ele>237</ele>
        <time>2018-06-09T10:37:40Z</time>
      </trkpt>
      <trkpt lat="45.95976" lon="4.82362">
        <ele>237</ele>
        <time>2018-06-09T10:37:41Z</time>
      </trkpt>
      <trkpt lat="45.95967" lon="4.82362">
        <ele>237</ele>
        <time>2018-06-09T10:37:45Z</time>
      </trkpt>
      <trkpt lat="45.95964" lon="4.82362">
        <ele>237</ele>
        <time>2018-06-09T10:37:46Z</time>
      </trkpt>
      <trkpt lat="45.95955" lon="4.82362">
        <ele>237</ele>
        <time>2018-06-09T10:37:49Z</time>
      </trkpt>
      <trkpt lat="45.95953" lon="4.82362">
        <ele>237</ele>
        <time>2018-06-09T10:37:50Z</time>
      </trkpt>
      <trkpt lat="45.95944" lon="4.82362">
        <ele>237</ele>
        <time>2018-06-09T10:37:53Z</time>
      </trkpt>
      <trkpt lat="45.95941" lon="4.82362">
        <ele>237</ele>
        <time>2018-06-09T10:37:54Z</time>
      </trkpt>
      <trkpt lat="45.95932" lon="4.82363">
        <ele>238</ele>
        <time>2018-06-09T10:37:57Z</time>
      </trkpt>
      <trkpt lat="45.95929" lon="4.82363">
        <ele>238</ele>
        <time>2018-06-09T10:37:58Z</time>
      </trkpt>
      <trkpt lat="45.95921" lon="4.82363">
        <ele>238</ele>
        <time>2018-06-09T10:38:01Z</time>
      </trkpt>
      <trkpt lat="45.95919" lon="4.82363">
        <ele>238</ele>
        <time>2018-06-09T10:38:02Z</time>
      </trkpt>
      <trkpt lat="45.9591" lon="4.82364">
        <ele>242</ele>
        <time>2018-06-09T10:38:05Z</time>
      </trkpt>
      <trkpt lat="45.95907" lon="4.82364">
        <ele>242</ele>
        <time>2018-06-09T10:38:06Z</time>
      </trkpt>
      <trkpt lat="45.95902" lon="4.82366">
        <ele>242</ele>
        <time>2018-06-09T10:38:08Z</time>
      </trkpt>
      <trkpt lat="45.95898" lon="4.82366">
        <ele>243</ele>
        <time>2018-06-09T10:38:09Z</time>
      </trkpt>
      <trkpt lat="45.95891" lon="4.82367">
        <ele>243</ele>
        <time>2018-06-09T10:38:12Z</time>
      </trkpt>
      <trkpt lat="45.95888" lon="4.82368">
        <ele>243</ele>
        <time>2018-06-09T10:38:13Z</time>
      </trkpt>
      <trkpt lat="45.9588" lon="4.82369">
        <ele>244</ele>
        <time>2018-06-09T10:38:17Z</time>
      </trkpt>
      <trkpt lat="45.95878" lon="4.82369">
        <ele>244</ele>
        <time>2018-06-09T10:38:18Z</time>
      </trkpt>
      <trkpt lat="45.9587" lon="4.8237">
        <ele>244</ele>
        <time>2018-06-09T10:38:21Z</time>
      </trkpt>
      <trkpt lat="45.95868" lon="4.82371">
        <ele>245</ele>
        <time>2018-06-09T10:38:22Z</time>
      </trkpt>
      <trkpt lat="45.9586" lon="4.82373">
        <ele>245</ele>
        <time>2018-06-09T10:38:26Z</time>
      </trkpt>
      <trkpt lat="45.95858" lon="4.82373">
        <ele>245</ele>
        <time>2018-06-09T10:38:27Z</time>
      </trkpt>
      <trkpt lat="45.95849" lon="4.82372">
        <ele>246</ele>
        <time>2018-06-09T10:38:31Z</time>
      </trkpt>
      <trkpt lat="45.95847" lon="4.82372">
        <ele>246</ele>
        <time>2018-06-09T10:38:32Z</time>
      </trkpt>
      <trkpt lat="45.95839" lon="4.8237">
        <ele>246</ele>
        <time>2018-06-09T10:38:36Z</time>
      </trkpt>
      <trkpt lat="45.95838" lon="4.82369">
        <ele>246</ele>
        <time>2018-06-09T10:38:37Z</time>
      </trkpt>
      <trkpt lat="45.9583" lon="4.82368">
        <ele>251</ele>
        <time>2018-06-09T10:38:41Z</time>
      </trkpt>
      <trkpt lat="45.95827" lon="4.82367">
        <ele>251</ele>
        <time>2018-06-09T10:38:42Z</time>
      </trkpt>
      <trkpt lat="45.95819" lon="4.82365">
        <ele>251</ele>
        <time>2018-06-09T10:38:46Z</time>
      </trkpt>
      <trkpt lat="45.95817" lon="4.82365">
        <ele>251</ele>
        <time>2018-06-09T10:38:47Z</time>
      </trkpt>
      <trkpt lat="45.95808" lon="4.82363">
        <ele>252</ele>
        <time>2018-06-09T10:38:51Z</time>
      </trkpt>
      <trkpt lat="45.95806" lon="4.82363">
        <ele>252</ele>
        <time>2018-06-09T10:38:52Z</time>
      </trkpt>
      <trkpt lat="45.95798" lon="4.8236">
        <ele>252</ele>
        <time>2018-06-09T10:38:56Z</time>
      </trkpt>
      <trkpt lat="45.95796" lon="4.82359">
        <ele>252</ele>
        <time>2018-06-09T10:38:57Z</time>
      </trkpt>
      <trkpt lat="45.95789" lon="4.82354">
        <ele>253</ele>
        <time>2018-06-09T10:39:00Z</time>
      </trkpt>
      <trkpt lat="45.95787" lon="4.82352">
        <ele>253</ele>
        <time>2018-06-09T10:39:01Z</time>
      </trkpt>
      <trkpt lat="45.9578" lon="4.82346">
        <ele>253</ele>
        <time>2018-06-09T10:39:04Z</time>
      </trkpt>
      <trkpt lat="45.95778" lon="4.82344">
        <ele>253</ele>
        <time>2018-06-09T10:39:05Z</time>
      </trkpt>
      <trkpt lat="45.95772" lon="4.82335">
        <ele>254</ele>
        <time>2018-06-09T10:39:08Z</time>
      </trkpt>
      <trkpt lat="45.95769" lon="4.82333">
        <ele>252</ele>
        <time>2018-06-09T10:39:09Z</time>
      </trkpt>
      <trkpt lat="45.95765" lon="4.82327">
        <ele>253</ele>
        <time>2018-06-09T10:39:11Z</time>
      </trkpt>
      <trkpt lat="45.95762" lon="4.82324">
        <ele>253</ele>
        <time>2018-06-09T10:39:12Z</time>
      </trkpt>
      <trkpt lat="45.95756" lon="4.82317">
        <ele>253</ele>
        <time>2018-06-09T10:39:15Z</time>
      </trkpt>
      <trkpt lat="45.95754" lon="4.82314">
        <ele>253</ele>
        <time>2018-06-09T10:39:16Z</time>
      </trkpt>
      <trkpt lat="45.95748" lon="4.82309">
        <ele>255</ele>
        <time>2018-06-09T10:39:19Z</time>
      </trkpt>
      <trkpt lat="45.95746" lon="4.82307">
        <ele>255</ele>
        <time>2018-06-09T10:39:20Z</time>
      </trkpt>
      <trkpt lat="45.9574" lon="4.82301">
        <ele>255</ele>
        <time>2018-06-09T10:39:22Z</time>
      </trkpt>
      <trkpt lat="45.95737" lon="4.82299">
        <ele>255</ele>
        <time>2018-06-09T10:39:23Z</time>
      </trkpt>
      <trkpt lat="45.95731" lon="4.82294">
        <ele>255</ele>
        <time>2018-06-09T10:39:25Z</time>
      </trkpt>
      <trkpt lat="45.95728" lon="4.82291">
        <ele>255</ele>
        <time>2018-06-09T10:39:26Z</time>
      </trkpt>
      <trkpt lat="45.95725" lon="4.82289">
        <ele>255</ele>
        <time>2018-06-09T10:39:27Z</time>
      </trkpt>
      <trkpt lat="45.95717" lon="4.8228">
        <ele>255</ele>
        <time>2018-06-09T10:39:28Z</time>
      </trkpt>
      <trkpt lat="45.95709" lon="4.82273">
        <ele>255</ele>
        <time>2018-06-09T10:39:32Z</time>
      </trkpt>
      <trkpt lat="45.95707" lon="4.82271">
        <ele>255</ele>
        <time>2018-06-09T10:39:33Z</time>
      </trkpt>
      <trkpt lat="45.95702" lon="4.82266">
        <ele>255</ele>
        <time>2018-06-09T10:39:35Z</time>
      </trkpt>
      <trkpt lat="45.95699" lon="4.82262">
        <ele>255</ele>
        <time>2018-06-09T10:39:36Z</time>
      </trkpt>
      <trkpt lat="45.95691" lon="4.82253">
        <ele>255</ele>
        <time>2018-06-09T10:39:37Z</time>
      </trkpt>
      <trkpt lat="45.95685" lon="4.82247">
        <ele>255</ele>
        <time>2018-06-09T10:39:39Z</time>
      </trkpt>
      <trkpt lat="45.95683" lon="4.82245">
        <ele>255</ele>
        <time>2018-06-09T10:39:40Z</time>
      </trkpt>
      <trkpt lat="45.95677" lon="4.82239">
        <ele>255</ele>
        <time>2018-06-09T10:39:42Z</time>
      </trkpt>
      <trkpt lat="45.95673" lon="4.82234">
        <ele>255</ele>
        <time>2018-06-09T10:39:43Z</time>
      </trkpt>
      <trkpt lat="45.95666" lon="4.82228">
        <ele>257</ele>
        <time>2018-06-09T10:39:45Z</time>
      </trkpt>
      <trkpt lat="45.95664" lon="4.82227">
        <ele>257</ele>
        <time>2018-06-09T10:39:46Z</time>
      </trkpt>
      <trkpt lat="45.95655" lon="4.82223">
        <ele>257</ele>
        <time>2018-06-09T10:39:48Z</time>
      </trkpt>
      <trkpt lat="45.95652" lon="4.82221">
        <ele>257</ele>
        <time>2018-06-09T10:39:49Z</time>
      </trkpt>
      <trkpt lat="45.95644" lon="4.8222">
        <ele>257</ele>
        <time>2018-06-09T10:39:51Z</time>
      </trkpt>
      <trkpt lat="45.9564" lon="4.8222">
        <ele>257</ele>
        <time>2018-06-09T10:39:52Z</time>
      </trkpt>
      <trkpt lat="45.95632" lon="4.82221">
        <ele>257</ele>
        <time>2018-06-09T10:39:54Z</time>
      </trkpt>
      <trkpt lat="45.95631" lon="4.82221">
        <ele>257</ele>
        <time>2018-06-09T10:39:55Z</time>
      </trkpt>
      <trkpt lat="45.95623" lon="4.82223">
        <ele>257</ele>
        <time>2018-06-09T10:39:59Z</time>
      </trkpt>
      <trkpt lat="45.95613" lon="4.82225">
        <ele>257</ele>
        <time>2018-06-09T10:40:00Z</time>
      </trkpt>
      <trkpt lat="45.95607" lon="4.82226">
        <ele>257</ele>
        <time>2018-06-09T10:40:03Z</time>
      </trkpt>
      <trkpt lat="45.95604" lon="4.82227">
        <ele>257</ele>
        <time>2018-06-09T10:40:04Z</time>
      </trkpt>
      <trkpt lat="45.95596" lon="4.82226">
        <ele>257</ele>
        <time>2018-06-09T10:40:07Z</time>
      </trkpt>
      <trkpt lat="45.95593" lon="4.82225">
        <ele>257</ele>
        <time>2018-06-09T10:40:08Z</time>
      </trkpt>
      <trkpt lat="45.95584" lon="4.82219">
        <ele>257</ele>
        <time>2018-06-09T10:40:09Z</time>
      </trkpt>
      <trkpt lat="45.95577" lon="4.82212">
        <ele>258</ele>
        <time>2018-06-09T10:40:13Z</time>
      </trkpt>
      <trkpt lat="45.95575" lon="4.8221">
        <ele>258</ele>
        <time>2018-06-09T10:40:14Z</time>
      </trkpt>
      <trkpt lat="45.95567" lon="4.82203">
        <ele>258</ele>
        <time>2018-06-09T10:40:15Z</time>
      </trkpt>
      <trkpt lat="45.95566" lon="4.82201">
        <ele>258</ele>
        <time>2018-06-09T10:40:16Z</time>
      </trkpt>
      <trkpt lat="45.95559" lon="4.82197">
        <ele>259</ele>
        <time>2018-06-09T10:40:18Z</time>
      </trkpt>
      <trkpt lat="45.95557" lon="4.82195">
        <ele>259</ele>
        <time>2018-06-09T10:40:19Z</time>
      </trkpt>
      <trkpt lat="45.95551" lon="4.8219">
        <ele>259</ele>
        <time>2018-06-09T10:40:22Z</time>
      </trkpt>
      <trkpt lat="45.95548" lon="4.82188">
        <ele>259</ele>
        <time>2018-06-09T10:40:23Z</time>
      </trkpt>
      <trkpt lat="45.9554" lon="4.82181">
        <ele>259</ele>
        <time>2018-06-09T10:40:24Z</time>
      </trkpt>
      <trkpt lat="45.95533" lon="4.82175">
        <ele>259</ele>
        <time>2018-06-09T10:40:27Z</time>
      </trkpt>
      <trkpt lat="45.95527" lon="4.82169">
        <ele>259</ele>
        <time>2018-06-09T10:40:28Z</time>
      </trkpt>
      <trkpt lat="45.95523" lon="4.82166">
        <ele>259</ele>
        <time>2018-06-09T10:40:30Z</time>
      </trkpt>
      <trkpt lat="45.95518" lon="4.8216">
        <ele>259</ele>
        <time>2018-06-09T10:40:31Z</time>
      </trkpt>
      <trkpt lat="45.95511" lon="4.82153">
        <ele>259</ele>
        <time>2018-06-09T10:40:33Z</time>
      </trkpt>
      <trkpt lat="45.95508" lon="4.82149">
        <ele>259</ele>
        <time>2018-06-09T10:40:34Z</time>
      </trkpt>
      <trkpt lat="45.95502" lon="4.82142">
        <ele>259</ele>
        <time>2018-06-09T10:40:36Z</time>
      </trkpt>
      <trkpt lat="45.95498" lon="4.82139">
        <ele>260</ele>
        <time>2018-06-09T10:40:37Z</time>
      </trkpt>
      <trkpt lat="45.95492" lon="4.82133">
        <ele>260</ele>
        <time>2018-06-09T10:40:39Z</time>
      </trkpt>
      <trkpt lat="45.95489" lon="4.8213">
        <ele>260</ele>
        <time>2018-06-09T10:40:40Z</time>
      </trkpt>
      <trkpt lat="45.95482" lon="4.82123">
        <ele>260</ele>
        <time>2018-06-09T10:40:42Z</time>
      </trkpt>
      <trkpt lat="45.95479" lon="4.8212">
        <ele>260</ele>
        <time>2018-06-09T10:40:43Z</time>
      </trkpt>
      <trkpt lat="45.95473" lon="4.82113">
        <ele>260</ele>
        <time>2018-06-09T10:40:45Z</time>
      </trkpt>
      <trkpt lat="45.95469" lon="4.8211">
        <ele>260</ele>
        <time>2018-06-09T10:40:46Z</time>
      </trkpt>
      <trkpt lat="45.95466" lon="4.82106">
        <ele>260</ele>
        <time>2018-06-09T10:40:47Z</time>
      </trkpt>
      <trkpt lat="45.95462" lon="4.82102">
        <ele>260</ele>
        <time>2018-06-09T10:40:48Z</time>
      </trkpt>
      <trkpt lat="45.95458" lon="4.82098">
        <ele>260</ele>
        <time>2018-06-09T10:40:49Z</time>
      </trkpt>
      <trkpt lat="45.95454" lon="4.82094">
        <ele>260</ele>
        <time>2018-06-09T10:40:50Z</time>
      </trkpt>
      <trkpt lat="45.95451" lon="4.8209">
        <ele>260</ele>
        <time>2018-06-09T10:40:51Z</time>
      </trkpt>
      <trkpt lat="45.95446" lon="4.82086">
        <ele>260</ele>
        <time>2018-06-09T10:40:52Z</time>
      </trkpt>
      <trkpt lat="45.95441" lon="4.82081">
        <ele>260</ele>
        <time>2018-06-09T10:40:53Z</time>
      </trkpt>
      <trkpt lat="45.95437" lon="4.82076">
        <ele>260</ele>
        <time>2018-06-09T10:40:54Z</time>
      </trkpt>
      <trkpt lat="45.95432" lon="4.82071">
        <ele>260</ele>
        <time>2018-06-09T10:40:56Z</time>
      </trkpt>
      <trkpt lat="45.95427" lon="4.82067">
        <ele>260</ele>
        <time>2018-06-09T10:40:57Z</time>
      </trkpt>
      <trkpt lat="45.95421" lon="4.82059">
        <ele>260</ele>
        <time>2018-06-09T10:40:59Z</time>
      </trkpt>
      <trkpt lat="45.95419" lon="4.82055">
        <ele>260</ele>
        <time>2018-06-09T10:41:00Z</time>
      </trkpt>
      <trkpt lat="45.95415" lon="4.8205">
        <ele>261</ele>
        <time>2018-06-09T10:41:01Z</time>
      </trkpt>
      <trkpt lat="45.95412" lon="4.82046">
        <ele>261</ele>
        <time>2018-06-09T10:41:02Z</time>
      </trkpt>
      <trkpt lat="45.95404" lon="4.82039">
        <ele>261</ele>
        <time>2018-06-09T10:41:04Z</time>
      </trkpt>
      <trkpt lat="45.95401" lon="4.82036">
        <ele>261</ele>
        <time>2018-06-09T10:41:05Z</time>
      </trkpt>
      <trkpt lat="45.95397" lon="4.82032">
        <ele>261</ele>
        <time>2018-06-09T10:41:06Z</time>
      </trkpt>
      <trkpt lat="45.95393" lon="4.82028">
        <ele>261</ele>
        <time>2018-06-09T10:41:07Z</time>
      </trkpt>
      <trkpt lat="45.95389" lon="4.82024">
        <ele>261</ele>
        <time>2018-06-09T10:41:08Z</time>
      </trkpt>
      <trkpt lat="45.95385" lon="4.8202">
        <ele>261</ele>
        <time>2018-06-09T10:41:09Z</time>
      </trkpt>
      <trkpt lat="45.95381" lon="4.82016">
        <ele>262</ele>
        <time>2018-06-09T10:41:10Z</time>
      </trkpt>
      <trkpt lat="45.95377" lon="4.82012">
        <ele>262</ele>
        <time>2018-06-09T10:41:11Z</time>
      </trkpt>
      <trkpt lat="45.95373" lon="4.82008">
        <ele>262</ele>
        <time>2018-06-09T10:41:12Z</time>
      </trkpt>
      <trkpt lat="45.95369" lon="4.82003">
        <ele>262</ele>
        <time>2018-06-09T10:41:13Z</time>
      </trkpt>
      <trkpt lat="45.95365" lon="4.81999">
        <ele>261</ele>
        <time>2018-06-09T10:41:14Z</time>
      </trkpt>
      <trkpt lat="45.95361" lon="4.81994">
        <ele>261</ele>
        <time>2018-06-09T10:41:15Z</time>
      </trkpt>
      <trkpt lat="45.95357" lon="4.8199">
        <ele>262</ele>
        <time>2018-06-09T10:41:16Z</time>
      </trkpt>
      <trkpt lat="45.95354" lon="4.81986">
        <ele>262</ele>
        <time>2018-06-09T10:41:17Z</time>
      </trkpt>
      <trkpt lat="45.95349" lon="4.81982">
        <ele>262</ele>
        <time>2018-06-09T10:41:18Z</time>
      </trkpt>
      <trkpt lat="45.95344" lon="4.81979">
        <ele>262</ele>
        <time>2018-06-09T10:41:19Z</time>
      </trkpt>
      <trkpt lat="45.9534" lon="4.81976">
        <ele>262</ele>
        <time>2018-06-09T10:41:20Z</time>
      </trkpt>
      <trkpt lat="45.95336" lon="4.81972">
        <ele>262</ele>
        <time>2018-06-09T10:41:21Z</time>
      </trkpt>
      <trkpt lat="45.95329" lon="4.81965">
        <ele>262</ele>
        <time>2018-06-09T10:41:23Z</time>
      </trkpt>
      <trkpt lat="45.95325" lon="4.81961">
        <ele>262</ele>
        <time>2018-06-09T10:41:24Z</time>
      </trkpt>
      <trkpt lat="45.95319" lon="4.81953">
        <ele>262</ele>
        <time>2018-06-09T10:41:26Z</time>
      </trkpt>
      <trkpt lat="45.95314" lon="4.81948">
        <ele>262</ele>
        <time>2018-06-09T10:41:27Z</time>
      </trkpt>
      <trkpt lat="45.9531" lon="4.81944">
        <ele>261</ele>
        <time>2018-06-09T10:41:28Z</time>
      </trkpt>
      <trkpt lat="45.95306" lon="4.81939">
        <ele>261</ele>
        <time>2018-06-09T10:41:29Z</time>
      </trkpt>
      <trkpt lat="45.95303" lon="4.81935">
        <ele>261</ele>
        <time>2018-06-09T10:41:30Z</time>
      </trkpt>
      <trkpt lat="45.95298" lon="4.8193">
        <ele>261</ele>
        <time>2018-06-09T10:41:31Z</time>
      </trkpt>
      <trkpt lat="45.95294" lon="4.81926">
        <ele>261</ele>
        <time>2018-06-09T10:41:32Z</time>
      </trkpt>
      <trkpt lat="45.95289" lon="4.81921">
        <ele>261</ele>
        <time>2018-06-09T10:41:33Z</time>
      </trkpt>
      <trkpt lat="45.95285" lon="4.81911">
        <ele>260</ele>
        <time>2018-06-09T10:41:35Z</time>
      </trkpt>
      <trkpt lat="45.95282" lon="4.81907">
        <ele>260</ele>
        <time>2018-06-09T10:41:36Z</time>
      </trkpt>
      <trkpt lat="45.95278" lon="4.819">
        <ele>260</ele>
        <time>2018-06-09T10:41:37Z</time>
      </trkpt>
      <trkpt lat="45.95274" lon="4.81895">
        <ele>260</ele>
        <time>2018-06-09T10:41:38Z</time>
      </trkpt>
      <trkpt lat="45.95272" lon="4.81889">
        <ele>260</ele>
        <time>2018-06-09T10:41:39Z</time>
      </trkpt>
      <trkpt lat="45.95269" lon="4.81884">
        <ele>260</ele>
        <time>2018-06-09T10:41:40Z</time>
      </trkpt>
      <trkpt lat="45.95265" lon="4.81877">
        <ele>260</ele>
        <time>2018-06-09T10:41:41Z</time>
      </trkpt>
      <trkpt lat="45.95261" lon="4.81871">
        <ele>260</ele>
        <time>2018-06-09T10:41:42Z</time>
      </trkpt>
      <trkpt lat="45.95258" lon="4.81866">
        <ele>260</ele>
        <time>2018-06-09T10:41:43Z</time>
      </trkpt>
      <trkpt lat="45.95254" lon="4.81861">
        <ele>260</ele>
        <time>2018-06-09T10:41:44Z</time>
      </trkpt>
      <trkpt lat="45.95251" lon="4.81855">
        <ele>259</ele>
        <time>2018-06-09T10:41:45Z</time>
      </trkpt>
      <trkpt lat="45.95247" lon="4.8185">
        <ele>260</ele>
        <time>2018-06-09T10:41:46Z</time>
      </trkpt>
      <trkpt lat="45.95243" lon="4.81844">
        <ele>260</ele>
        <time>2018-06-09T10:41:47Z</time>
      </trkpt>
      <trkpt lat="45.95239" lon="4.81839">
        <ele>259</ele>
        <time>2018-06-09T10:41:48Z</time>
      </trkpt>
      <trkpt lat="45.95236" lon="4.81833">
        <ele>260</ele>
        <time>2018-06-09T10:41:49Z</time>
      </trkpt>
      <trkpt lat="45.95233" lon="4.81827">
        <ele>259</ele>
        <time>2018-06-09T10:41:50Z</time>
      </trkpt>
      <trkpt lat="45.9523" lon="4.81821">
        <ele>259</ele>
        <time>2018-06-09T10:41:51Z</time>
      </trkpt>
      <trkpt lat="45.95226" lon="4.81816">
        <ele>259</ele>
        <time>2018-06-09T10:41:52Z</time>
      </trkpt>
      <trkpt lat="45.95223" lon="4.81809">
        <ele>259</ele>
        <time>2018-06-09T10:41:53Z</time>
      </trkpt>
      <trkpt lat="45.9522" lon="4.81803">
        <ele>259</ele>
        <time>2018-06-09T10:41:54Z</time>
      </trkpt>
      <trkpt lat="45.95215" lon="4.81798">
        <ele>259</ele>
        <time>2018-06-09T10:41:55Z</time>
      </trkpt>
      <trkpt lat="45.95211" lon="4.81792">
        <ele>258</ele>
        <time>2018-06-09T10:41:56Z</time>
      </trkpt>
      <trkpt lat="45.95205" lon="4.81786">
        <ele>258</ele>
        <time>2018-06-09T10:41:57Z</time>
      </trkpt>
      <trkpt lat="45.952" lon="4.81779">
        <ele>258</ele>
        <time>2018-06-09T10:41:58Z</time>
      </trkpt>
      <trkpt lat="45.95195" lon="4.81773">
        <ele>258</ele>
        <time>2018-06-09T10:41:59Z</time>
      </trkpt>
      <trkpt lat="45.95188" lon="4.81768">
        <ele>258</ele>
        <time>2018-06-09T10:42:00Z</time>
      </trkpt>
      <trkpt lat="45.95181" lon="4.81759">
        <ele>258</ele>
        <time>2018-06-09T10:42:01Z</time>
      </trkpt>
      <trkpt lat="45.95178" lon="4.81752">
        <ele>258</ele>
        <time>2018-06-09T10:42:02Z</time>
      </trkpt>
      <trkpt lat="45.95173" lon="4.81743">
        <ele>257</ele>
        <time>2018-06-09T10:42:03Z</time>
      </trkpt>
      <trkpt lat="45.95169" lon="4.81734">
        <ele>257</ele>
        <time>2018-06-09T10:42:04Z</time>
      </trkpt>
      <trkpt lat="45.95163" lon="4.81725">
        <ele>256</ele>
        <time>2018-06-09T10:42:05Z</time>
      </trkpt>
      <trkpt lat="45.95159" lon="4.81714">
        <ele>256</ele>
        <time>2018-06-09T10:42:06Z</time>
      </trkpt>
      <trkpt lat="45.95157" lon="4.817">
        <ele>255</ele>
        <time>2018-06-09T10:42:07Z</time>
      </trkpt>
      <trkpt lat="45.95156" lon="4.81691">
        <ele>255</ele>
        <time>2018-06-09T10:42:08Z</time>
      </trkpt>
      <trkpt lat="45.95154" lon="4.81679">
        <ele>255</ele>
        <time>2018-06-09T10:42:09Z</time>
      </trkpt>
      <trkpt lat="45.95151" lon="4.81668">
        <ele>255</ele>
        <time>2018-06-09T10:42:10Z</time>
      </trkpt>
      <trkpt lat="45.9515" lon="4.81655">
        <ele>253</ele>
        <time>2018-06-09T10:42:11Z</time>
      </trkpt>
      <trkpt lat="45.95147" lon="4.81643">
        <ele>253</ele>
        <time>2018-06-09T10:42:12Z</time>
      </trkpt>
      <trkpt lat="45.95142" lon="4.81633">
        <ele>253</ele>
        <time>2018-06-09T10:42:13Z</time>
      </trkpt>
      <trkpt lat="45.95137" lon="4.81623">
        <ele>252</ele>
        <time>2018-06-09T10:42:14Z</time>
      </trkpt>
      <trkpt lat="45.95133" lon="4.81609">
        <ele>252</ele>
        <time>2018-06-09T10:42:15Z</time>
      </trkpt>
      <trkpt lat="45.95126" lon="4.81595">
        <ele>252</ele>
        <time>2018-06-09T10:42:16Z</time>
      </trkpt>
      <trkpt lat="45.95121" lon="4.81581">
        <ele>251</ele>
        <time>2018-06-09T10:42:17Z</time>
      </trkpt>
      <trkpt lat="45.95116" lon="4.81568">
        <ele>251</ele>
        <time>2018-06-09T10:42:18Z</time>
      </trkpt>
      <trkpt lat="45.95112" lon="4.81558">
        <ele>251</ele>
        <time>2018-06-09T10:42:19Z</time>
      </trkpt>
      <trkpt lat="45.95107" lon="4.81547">
        <ele>251</ele>
        <time>2018-06-09T10:42:20Z</time>
      </trkpt>
      <trkpt lat="45.95107" lon="4.81538">
        <ele>251</ele>
        <time>2018-06-09T10:42:21Z</time>
      </trkpt>
      <trkpt lat="45.95104" lon="4.81526">
        <ele>251</ele>
        <time>2018-06-09T10:42:22Z</time>
      </trkpt>
      <trkpt lat="45.95099" lon="4.81519">
        <ele>251</ele>
        <time>2018-06-09T10:42:23Z</time>
      </trkpt>
      <trkpt lat="45.95095" lon="4.8151">
        <ele>252</ele>
        <time>2018-06-09T10:42:24Z</time>
      </trkpt>
      <trkpt lat="45.95091" lon="4.81502">
        <ele>252</ele>
        <time>2018-06-09T10:42:25Z</time>
      </trkpt>
      <trkpt lat="45.9509" lon="4.81493">
        <ele>251</ele>
        <time>2018-06-09T10:42:26Z</time>
      </trkpt>
      <trkpt lat="45.95087" lon="4.81481">
        <ele>251</ele>
        <time>2018-06-09T10:42:28Z</time>
      </trkpt>
      <trkpt lat="45.95085" lon="4.81473">
        <ele>251</ele>
        <time>2018-06-09T10:42:29Z</time>
      </trkpt>
      <trkpt lat="45.9508" lon="4.81467">
        <ele>253</ele>
        <time>2018-06-09T10:42:30Z</time>
      </trkpt>
      <trkpt lat="45.95077" lon="4.81461">
        <ele>253</ele>
        <time>2018-06-09T10:42:31Z</time>
      </trkpt>
      <trkpt lat="45.95074" lon="4.81454">
        <ele>253</ele>
        <time>2018-06-09T10:42:32Z</time>
      </trkpt>
      <trkpt lat="45.95071" lon="4.81448">
        <ele>253</ele>
        <time>2018-06-09T10:42:33Z</time>
      </trkpt>
      <trkpt lat="45.95068" lon="4.81441">
        <ele>253</ele>
        <time>2018-06-09T10:42:34Z</time>
      </trkpt>
      <trkpt lat="45.95067" lon="4.81436">
        <ele>252</ele>
        <time>2018-06-09T10:42:35Z</time>
      </trkpt>
      <trkpt lat="45.95064" lon="4.81431">
        <ele>252</ele>
        <time>2018-06-09T10:42:36Z</time>
      </trkpt>
      <trkpt lat="45.95061" lon="4.81426">
        <ele>252</ele>
        <time>2018-06-09T10:42:37Z</time>
      </trkpt>
      <trkpt lat="45.95058" lon="4.81419">
        <ele>253</ele>
        <time>2018-06-09T10:42:38Z</time>
      </trkpt>
      <trkpt lat="45.95056" lon="4.81414">
        <ele>253</ele>
        <time>2018-06-09T10:42:39Z</time>
      </trkpt>
      <trkpt lat="45.95053" lon="4.81403">
        <ele>253</ele>
        <time>2018-06-09T10:42:41Z</time>
      </trkpt>
      <trkpt lat="45.95051" lon="4.81397">
        <ele>253</ele>
        <time>2018-06-09T10:42:42Z</time>
      </trkpt>
      <trkpt lat="45.95048" lon="4.81391">
        <ele>253</ele>
        <time>2018-06-09T10:42:43Z</time>
      </trkpt>
      <trkpt lat="45.95047" lon="4.81385">
        <ele>254</ele>
        <time>2018-06-09T10:42:44Z</time>
      </trkpt>
      <trkpt lat="45.95045" lon="4.81379">
        <ele>254</ele>
        <time>2018-06-09T10:42:45Z</time>
      </trkpt>
      <trkpt lat="45.95042" lon="4.81372">
        <ele>254</ele>
        <time>2018-06-09T10:42:46Z</time>
      </trkpt>
      <trkpt lat="45.95039" lon="4.81361">
        <ele>254</ele>
        <time>2018-06-09T10:42:48Z</time>
      </trkpt>
      <trkpt lat="45.95038" lon="4.81355">
        <ele>254</ele>
        <time>2018-06-09T10:42:49Z</time>
      </trkpt>
      <trkpt lat="45.95034" lon="4.81344">
        <ele>254</ele>
        <time>2018-06-09T10:42:51Z</time>
      </trkpt>
      <trkpt lat="45.95033" lon="4.81338">
        <ele>254</ele>
        <time>2018-06-09T10:42:52Z</time>
      </trkpt>
      <trkpt lat="45.9503" lon="4.81327">
        <ele>255</ele>
        <time>2018-06-09T10:42:54Z</time>
      </trkpt>
      <trkpt lat="45.95028" lon="4.81321">
        <ele>255</ele>
        <time>2018-06-09T10:42:55Z</time>
      </trkpt>
      <trkpt lat="45.95026" lon="4.81315">
        <ele>255</ele>
        <time>2018-06-09T10:42:56Z</time>
      </trkpt>
      <trkpt lat="45.95024" lon="4.81309">
        <ele>255</ele>
        <time>2018-06-09T10:42:57Z</time>
      </trkpt>
      <trkpt lat="45.95023" lon="4.81302">
        <ele>255</ele>
        <time>2018-06-09T10:42:58Z</time>
      </trkpt>
      <trkpt lat="45.95022" lon="4.81296">
        <ele>255</ele>
        <time>2018-06-09T10:42:59Z</time>
      </trkpt>
      <trkpt lat="45.95019" lon="4.81288">
        <ele>255</ele>
        <time>2018-06-09T10:43:00Z</time>
      </trkpt>
      <trkpt lat="45.95017" lon="4.81281">
        <ele>255</ele>
        <time>2018-06-09T10:43:01Z</time>
      </trkpt>
      <trkpt lat="45.95016" lon="4.81274">
        <ele>255</ele>
        <time>2018-06-09T10:43:02Z</time>
      </trkpt>
      <trkpt lat="45.95014" lon="4.81266">
        <ele>255</ele>
        <time>2018-06-09T10:43:03Z</time>
      </trkpt>
      <trkpt lat="45.95013" lon="4.81259">
        <ele>256</ele>
        <time>2018-06-09T10:43:04Z</time>
      </trkpt>
      <trkpt lat="45.95011" lon="4.81251">
        <ele>256</ele>
        <time>2018-06-09T10:43:05Z</time>
      </trkpt>
      <trkpt lat="45.95011" lon="4.81244">
        <ele>256</ele>
        <time>2018-06-09T10:43:06Z</time>
      </trkpt>
      <trkpt lat="45.9501" lon="4.81237">
        <ele>256</ele>
        <time>2018-06-09T10:43:07Z</time>
      </trkpt>
      <trkpt lat="45.95011" lon="4.81229">
        <ele>256</ele>
        <time>2018-06-09T10:43:08Z</time>
      </trkpt>
      <trkpt lat="45.95011" lon="4.81222">
        <ele>256</ele>
        <time>2018-06-09T10:43:09Z</time>
      </trkpt>
      <trkpt lat="45.9501" lon="4.81215">
        <ele>256</ele>
        <time>2018-06-09T10:43:10Z</time>
      </trkpt>
      <trkpt lat="45.95009" lon="4.81208">
        <ele>256</ele>
        <time>2018-06-09T10:43:11Z</time>
      </trkpt>
      <trkpt lat="45.95007" lon="4.81201">
        <ele>256</ele>
        <time>2018-06-09T10:43:12Z</time>
      </trkpt>
      <trkpt lat="45.95007" lon="4.81195">
        <ele>256</ele>
        <time>2018-06-09T10:43:13Z</time>
      </trkpt>
      <trkpt lat="45.95006" lon="4.81183">
        <ele>256</ele>
        <time>2018-06-09T10:43:15Z</time>
      </trkpt>
      <trkpt lat="45.95004" lon="4.81176">
        <ele>256</ele>
        <time>2018-06-09T10:43:16Z</time>
      </trkpt>
      <trkpt lat="45.95003" lon="4.81169">
        <ele>256</ele>
        <time>2018-06-09T10:43:17Z</time>
      </trkpt>
      <trkpt lat="45.95003" lon="4.81163">
        <ele>256</ele>
        <time>2018-06-09T10:43:18Z</time>
      </trkpt>
      <trkpt lat="45.95001" lon="4.81155">
        <ele>256</ele>
        <time>2018-06-09T10:43:19Z</time>
      </trkpt>
      <trkpt lat="45.94999" lon="4.81149">
        <ele>256</ele>
        <time>2018-06-09T10:43:20Z</time>
      </trkpt>
      <trkpt lat="45.94998" lon="4.81142">
        <ele>256</ele>
        <time>2018-06-09T10:43:21Z</time>
      </trkpt>
      <trkpt lat="45.94997" lon="4.81135">
        <ele>256</ele>
        <time>2018-06-09T10:43:22Z</time>
      </trkpt>
      <trkpt lat="45.94996" lon="4.81128">
        <ele>256</ele>
        <time>2018-06-09T10:43:23Z</time>
      </trkpt>
      <trkpt lat="45.94996" lon="4.81122">
        <ele>257</ele>
        <time>2018-06-09T10:43:24Z</time>
      </trkpt>
      <trkpt lat="45.94994" lon="4.8111">
        <ele>257</ele>
        <time>2018-06-09T10:43:26Z</time>
      </trkpt>
      <trkpt lat="45.94994" lon="4.81104">
        <ele>257</ele>
        <time>2018-06-09T10:43:27Z</time>
      </trkpt>
      <trkpt lat="45.94993" lon="4.81093">
        <ele>257</ele>
        <time>2018-06-09T10:43:29Z</time>
      </trkpt>
      <trkpt lat="45.94992" lon="4.81086">
        <ele>257</ele>
        <time>2018-06-09T10:43:30Z</time>
      </trkpt>
      <trkpt lat="45.94992" lon="4.8108">
        <ele>257</ele>
        <time>2018-06-09T10:43:31Z</time>
      </trkpt>
      <trkpt lat="45.94991" lon="4.81073">
        <ele>257</ele>
        <time>2018-06-09T10:43:32Z</time>
      </trkpt>
      <trkpt lat="45.94991" lon="4.81066">
        <ele>257</ele>
        <time>2018-06-09T10:43:33Z</time>
      </trkpt>
      <trkpt lat="45.9499" lon="4.81059">
        <ele>257</ele>
        <time>2018-06-09T10:43:34Z</time>
      </trkpt>
      <trkpt lat="45.9499" lon="4.81052">
        <ele>257</ele>
        <time>2018-06-09T10:43:35Z</time>
      </trkpt>
      <trkpt lat="45.9499" lon="4.81045">
        <ele>257</ele>
        <time>2018-06-09T10:43:36Z</time>
      </trkpt>
      <trkpt lat="45.9499" lon="4.81038">
        <ele>257</ele>
        <time>2018-06-09T10:43:37Z</time>
      </trkpt>
      <trkpt lat="45.9499" lon="4.81031">
        <ele>257</ele>
        <time>2018-06-09T10:43:38Z</time>
      </trkpt>
      <trkpt lat="45.94989" lon="4.81023">
        <ele>257</ele>
        <time>2018-06-09T10:43:39Z</time>
      </trkpt>
      <trkpt lat="45.94989" lon="4.81016">
        <ele>257</ele>
        <time>2018-06-09T10:43:40Z</time>
      </trkpt>
      <trkpt lat="45.94986" lon="4.8101">
        <ele>257</ele>
        <time>2018-06-09T10:43:41Z</time>
      </trkpt>
      <trkpt lat="45.94986" lon="4.81004">
        <ele>257</ele>
        <time>2018-06-09T10:43:42Z</time>
      </trkpt>
      <trkpt lat="45.94986" lon="4.80992">
        <ele>257</ele>
        <time>2018-06-09T10:43:44Z</time>
      </trkpt>
      <trkpt lat="45.94986" lon="4.80987">
        <ele>258</ele>
        <time>2018-06-09T10:43:45Z</time>
      </trkpt>
      <trkpt lat="45.94985" lon="4.80977">
        <ele>258</ele>
        <time>2018-06-09T10:43:47Z</time>
      </trkpt>
      <trkpt lat="45.94983" lon="4.80971">
        <ele>258</ele>
        <time>2018-06-09T10:43:48Z</time>
      </trkpt>
      <trkpt lat="45.94981" lon="4.80958">
        <ele>258</ele>
        <time>2018-06-09T10:43:50Z</time>
      </trkpt>
      <trkpt lat="45.9498" lon="4.80951">
        <ele>258</ele>
        <time>2018-06-09T10:43:51Z</time>
      </trkpt>
      <trkpt lat="45.94978" lon="4.80944">
        <ele>258</ele>
        <time>2018-06-09T10:43:52Z</time>
      </trkpt>
      <trkpt lat="45.94977" lon="4.80938">
        <ele>258</ele>
        <time>2018-06-09T10:43:53Z</time>
      </trkpt>
      <trkpt lat="45.94976" lon="4.80931">
        <ele>258</ele>
        <time>2018-06-09T10:43:54Z</time>
      </trkpt>
      <trkpt lat="45.94975" lon="4.80924">
        <ele>258</ele>
        <time>2018-06-09T10:43:55Z</time>
      </trkpt>
      <trkpt lat="45.94974" lon="4.80918">
        <ele>258</ele>
        <time>2018-06-09T10:43:56Z</time>
      </trkpt>
      <trkpt lat="45.94972" lon="4.8091">
        <ele>258</ele>
        <time>2018-06-09T10:43:57Z</time>
      </trkpt>
      <trkpt lat="45.94971" lon="4.80904">
        <ele>258</ele>
        <time>2018-06-09T10:43:58Z</time>
      </trkpt>
      <trkpt lat="45.9497" lon="4.80897">
        <ele>258</ele>
        <time>2018-06-09T10:43:59Z</time>
      </trkpt>
      <trkpt lat="45.94968" lon="4.80885">
        <ele>258</ele>
        <time>2018-06-09T10:44:01Z</time>
      </trkpt>
      <trkpt lat="45.94968" lon="4.80879">
        <ele>258</ele>
        <time>2018-06-09T10:44:02Z</time>
      </trkpt>
      <trkpt lat="45.94965" lon="4.80873">
        <ele>259</ele>
        <time>2018-06-09T10:44:03Z</time>
      </trkpt>
      <trkpt lat="45.94964" lon="4.80867">
        <ele>259</ele>
        <time>2018-06-09T10:44:04Z</time>
      </trkpt>
      <trkpt lat="45.94963" lon="4.80855">
        <ele>259</ele>
        <time>2018-06-09T10:44:06Z</time>
      </trkpt>
      <trkpt lat="45.94962" lon="4.80849">
        <ele>259</ele>
        <time>2018-06-09T10:44:07Z</time>
      </trkpt>
      <trkpt lat="45.94961" lon="4.80843">
        <ele>259</ele>
        <time>2018-06-09T10:44:08Z</time>
      </trkpt>
      <trkpt lat="45.94958" lon="4.80837">
        <ele>258</ele>
        <time>2018-06-09T10:44:09Z</time>
      </trkpt>
      <trkpt lat="45.94958" lon="4.80825">
        <ele>258</ele>
        <time>2018-06-09T10:44:11Z</time>
      </trkpt>
      <trkpt lat="45.94957" lon="4.80819">
        <ele>258</ele>
        <time>2018-06-09T10:44:12Z</time>
      </trkpt>
      <trkpt lat="45.94954" lon="4.80808">
        <ele>258</ele>
        <time>2018-06-09T10:44:16Z</time>
      </trkpt>
      <trkpt lat="45.94955" lon="4.80806">
        <ele>259</ele>
        <time>2018-06-09T10:44:17Z</time>
      </trkpt>
      <trkpt lat="45.94955" lon="4.808">
        <ele>259</ele>
        <time>2018-06-09T10:44:19Z</time>
      </trkpt>
      <trkpt lat="45.94955" lon="4.80787">
        <ele>259</ele>
        <time>2018-06-09T10:44:20Z</time>
      </trkpt>
      <trkpt lat="45.94953" lon="4.80775">
        <ele>259</ele>
        <time>2018-06-09T10:44:22Z</time>
      </trkpt>
      <trkpt lat="45.94954" lon="4.80768">
        <ele>259</ele>
        <time>2018-06-09T10:44:23Z</time>
      </trkpt>
      <trkpt lat="45.94954" lon="4.8076">
        <ele>259</ele>
        <time>2018-06-09T10:44:24Z</time>
      </trkpt>
      <trkpt lat="45.94953" lon="4.80753">
        <ele>259</ele>
        <time>2018-06-09T10:44:25Z</time>
      </trkpt>
      <trkpt lat="45.94954" lon="4.80746">
        <ele>259</ele>
        <time>2018-06-09T10:44:26Z</time>
      </trkpt>
      <trkpt lat="45.94955" lon="4.80739">
        <ele>259</ele>
        <time>2018-06-09T10:44:27Z</time>
      </trkpt>
      <trkpt lat="45.94954" lon="4.80731">
        <ele>259</ele>
        <time>2018-06-09T10:44:28Z</time>
      </trkpt>
      <trkpt lat="45.94954" lon="4.80724">
        <ele>259</ele>
        <time>2018-06-09T10:44:29Z</time>
      </trkpt>
      <trkpt lat="45.94954" lon="4.80717">
        <ele>259</ele>
        <time>2018-06-09T10:44:30Z</time>
      </trkpt>
      <trkpt lat="45.94954" lon="4.80711">
        <ele>259</ele>
        <time>2018-06-09T10:44:31Z</time>
      </trkpt>
      <trkpt lat="45.94954" lon="4.807">
        <ele>259</ele>
        <time>2018-06-09T10:44:33Z</time>
      </trkpt>
      <trkpt lat="45.94954" lon="4.80694">
        <ele>259</ele>
        <time>2018-06-09T10:44:34Z</time>
      </trkpt>
      <trkpt lat="45.94955" lon="4.80687">
        <ele>259</ele>
        <time>2018-06-09T10:44:35Z</time>
      </trkpt>
      <trkpt lat="45.94954" lon="4.80679">
        <ele>259</ele>
        <time>2018-06-09T10:44:36Z</time>
      </trkpt>
      <trkpt lat="45.94953" lon="4.80671">
        <ele>259</ele>
        <time>2018-06-09T10:44:37Z</time>
      </trkpt>
      <trkpt lat="45.94954" lon="4.80664">
        <ele>259</ele>
        <time>2018-06-09T10:44:38Z</time>
      </trkpt>
      <trkpt lat="45.94954" lon="4.80656">
        <ele>259</ele>
        <time>2018-06-09T10:44:39Z</time>
      </trkpt>
      <trkpt lat="45.94953" lon="4.80647">
        <ele>258</ele>
        <time>2018-06-09T10:44:40Z</time>
      </trkpt>
      <trkpt lat="45.94953" lon="4.80639">
        <ele>258</ele>
        <time>2018-06-09T10:44:41Z</time>
      </trkpt>
      <trkpt lat="45.94953" lon="4.80632">
        <ele>258</ele>
        <time>2018-06-09T10:44:42Z</time>
      </trkpt>
      <trkpt lat="45.94952" lon="4.80624">
        <ele>258</ele>
        <time>2018-06-09T10:44:43Z</time>
      </trkpt>
      <trkpt lat="45.94951" lon="4.80616">
        <ele>258</ele>
        <time>2018-06-09T10:44:44Z</time>
      </trkpt>
      <trkpt lat="45.9495" lon="4.80608">
        <ele>258</ele>
        <time>2018-06-09T10:44:45Z</time>
      </trkpt>
      <trkpt lat="45.94949" lon="4.806">
        <ele>258</ele>
        <time>2018-06-09T10:44:46Z</time>
      </trkpt>
      <trkpt lat="45.94948" lon="4.80593">
        <ele>258</ele>
        <time>2018-06-09T10:44:47Z</time>
      </trkpt>
      <trkpt lat="45.94945" lon="4.80585">
        <ele>258</ele>
        <time>2018-06-09T10:44:48Z</time>
      </trkpt>
      <trkpt lat="45.94946" lon="4.80578">
        <ele>257</ele>
        <time>2018-06-09T10:44:49Z</time>
      </trkpt>
      <trkpt lat="45.94946" lon="4.8057">
        <ele>257</ele>
        <time>2018-06-09T10:44:50Z</time>
      </trkpt>
      <trkpt lat="45.94945" lon="4.80562">
        <ele>257</ele>
        <time>2018-06-09T10:44:51Z</time>
      </trkpt>
      <trkpt lat="45.94944" lon="4.80554">
        <ele>258</ele>
        <time>2018-06-09T10:44:52Z</time>
      </trkpt>
      <trkpt lat="45.94943" lon="4.80545">
        <ele>258</ele>
        <time>2018-06-09T10:44:53Z</time>
      </trkpt>
      <trkpt lat="45.94944" lon="4.80536">
        <ele>258</ele>
        <time>2018-06-09T10:44:54Z</time>
      </trkpt>
      <trkpt lat="45.94943" lon="4.80527">
        <ele>258</ele>
        <time>2018-06-09T10:44:55Z</time>
      </trkpt>
      <trkpt lat="45.94943" lon="4.8052">
        <ele>258</ele>
        <time>2018-06-09T10:44:56Z</time>
      </trkpt>
      <trkpt lat="45.94943" lon="4.80512">
        <ele>258</ele>
        <time>2018-06-09T10:44:57Z</time>
      </trkpt>
      <trkpt lat="45.94944" lon="4.80505">
        <ele>258</ele>
        <time>2018-06-09T10:44:58Z</time>
      </trkpt>
      <trkpt lat="45.94944" lon="4.80496">
        <ele>258</ele>
        <time>2018-06-09T10:44:59Z</time>
      </trkpt>
      <trkpt lat="45.94945" lon="4.80488">
        <ele>258</ele>
        <time>2018-06-09T10:45:00Z</time>
      </trkpt>
      <trkpt lat="45.94947" lon="4.8048">
        <ele>258</ele>
        <time>2018-06-09T10:45:01Z</time>
      </trkpt>
      <trkpt lat="45.94946" lon="4.80472">
        <ele>258</ele>
        <time>2018-06-09T10:45:02Z</time>
      </trkpt>
      <trkpt lat="45.94949" lon="4.80464">
        <ele>258</ele>
        <time>2018-06-09T10:45:03Z</time>
      </trkpt>
      <trkpt lat="45.94947" lon="4.80456">
        <ele>258</ele>
        <time>2018-06-09T10:45:04Z</time>
      </trkpt>
      <trkpt lat="45.94947" lon="4.80448">
        <ele>259</ele>
        <time>2018-06-09T10:45:05Z</time>
      </trkpt>
      <trkpt lat="45.94945" lon="4.80439">
        <ele>259</ele>
        <time>2018-06-09T10:45:06Z</time>
      </trkpt>
      <trkpt lat="45.94947" lon="4.8043">
        <ele>259</ele>
        <time>2018-06-09T10:45:07Z</time>
      </trkpt>
      <trkpt lat="45.94947" lon="4.80421">
        <ele>259</ele>
        <time>2018-06-09T10:45:08Z</time>
      </trkpt>
      <trkpt lat="45.94949" lon="4.80413">
        <ele>258</ele>
        <time>2018-06-09T10:45:09Z</time>
      </trkpt>
      <trkpt lat="45.94944" lon="4.80402">
        <ele>258</ele>
        <time>2018-06-09T10:45:10Z</time>
      </trkpt>
      <trkpt lat="45.94944" lon="4.80394">
        <ele>258</ele>
        <time>2018-06-09T10:45:11Z</time>
      </trkpt>
      <trkpt lat="45.94946" lon="4.80385">
        <ele>258</ele>
        <time>2018-06-09T10:45:12Z</time>
      </trkpt>
      <trkpt lat="45.94948" lon="4.80375">
        <ele>258</ele>
        <time>2018-06-09T10:45:13Z</time>
      </trkpt>
      <trkpt lat="45.94948" lon="4.80366">
        <ele>258</ele>
        <time>2018-06-09T10:45:14Z</time>
      </trkpt>
      <trkpt lat="45.94947" lon="4.80358">
        <ele>258</ele>
        <time>2018-06-09T10:45:15Z</time>
      </trkpt>
      <trkpt lat="45.94946" lon="4.80348">
        <ele>258</ele>
        <time>2018-06-09T10:45:16Z</time>
      </trkpt>
      <trkpt lat="45.94946" lon="4.80339">
        <ele>258</ele>
        <time>2018-06-09T10:45:17Z</time>
      </trkpt>
      <trkpt lat="45.94946" lon="4.8033">
        <ele>257</ele>
        <time>2018-06-09T10:45:18Z</time>
      </trkpt>
      <trkpt lat="45.94945" lon="4.80321">
        <ele>257</ele>
        <time>2018-06-09T10:45:19Z</time>
      </trkpt>
      <trkpt lat="45.94944" lon="4.80312">
        <ele>257</ele>
        <time>2018-06-09T10:45:20Z</time>
      </trkpt>
      <trkpt lat="45.94945" lon="4.80303">
        <ele>257</ele>
        <time>2018-06-09T10:45:21Z</time>
      </trkpt>
      <trkpt lat="45.94944" lon="4.80294">
        <ele>257</ele>
        <time>2018-06-09T10:45:22Z</time>
      </trkpt>
      <trkpt lat="45.94944" lon="4.80284">
        <ele>257</ele>
        <time>2018-06-09T10:45:23Z</time>
      </trkpt>
      <trkpt lat="45.94944" lon="4.80275">
        <ele>257</ele>
        <time>2018-06-09T10:45:24Z</time>
      </trkpt>
      <trkpt lat="45.94942" lon="4.80266">
        <ele>257</ele>
        <time>2018-06-09T10:45:25Z</time>
      </trkpt>
      <trkpt lat="45.94937" lon="4.80258">
        <ele>257</ele>
        <time>2018-06-09T10:45:26Z</time>
      </trkpt>
      <trkpt lat="45.94937" lon="4.8025">
        <ele>257</ele>
        <time>2018-06-09T10:45:27Z</time>
      </trkpt>
      <trkpt lat="45.94934" lon="4.80242">
        <ele>256</ele>
        <time>2018-06-09T10:45:28Z</time>
      </trkpt>
      <trkpt lat="45.94932" lon="4.80233">
        <ele>256</ele>
        <time>2018-06-09T10:45:29Z</time>
      </trkpt>
      <trkpt lat="45.94931" lon="4.80225">
        <ele>256</ele>
        <time>2018-06-09T10:45:30Z</time>
      </trkpt>
      <trkpt lat="45.94933" lon="4.80215">
        <ele>256</ele>
        <time>2018-06-09T10:45:31Z</time>
      </trkpt>
      <trkpt lat="45.94932" lon="4.80207">
        <ele>256</ele>
        <time>2018-06-09T10:45:32Z</time>
      </trkpt>
      <trkpt lat="45.94931" lon="4.80197">
        <ele>256</ele>
        <time>2018-06-09T10:45:33Z</time>
      </trkpt>
      <trkpt lat="45.94929" lon="4.80187">
        <ele>256</ele>
        <time>2018-06-09T10:45:34Z</time>
      </trkpt>
      <trkpt lat="45.94928" lon="4.80178">
        <ele>256</ele>
        <time>2018-06-09T10:45:35Z</time>
      </trkpt>
      <trkpt lat="45.94927" lon="4.80167">
        <ele>255</ele>
        <time>2018-06-09T10:45:36Z</time>
      </trkpt>
      <trkpt lat="45.94925" lon="4.80158">
        <ele>255</ele>
        <time>2018-06-09T10:45:37Z</time>
      </trkpt>
      <trkpt lat="45.94923" lon="4.80148">
        <ele>255</ele>
        <time>2018-06-09T10:45:38Z</time>
      </trkpt>
      <trkpt lat="45.94921" lon="4.80139">
        <ele>256</ele>
        <time>2018-06-09T10:45:39Z</time>
      </trkpt>
      <trkpt lat="45.94921" lon="4.80131">
        <ele>256</ele>
        <time>2018-06-09T10:45:40Z</time>
      </trkpt>
      <trkpt lat="45.9492" lon="4.80121">
        <ele>256</ele>
        <time>2018-06-09T10:45:41Z</time>
      </trkpt>
      <trkpt lat="45.94918" lon="4.80113">
        <ele>256</ele>
        <time>2018-06-09T10:45:42Z</time>
      </trkpt>
      <trkpt lat="45.94916" lon="4.80104">
        <ele>256</ele>
        <time>2018-06-09T10:45:43Z</time>
      </trkpt>
      <trkpt lat="45.94915" lon="4.80094">
        <ele>257</ele>
        <time>2018-06-09T10:45:44Z</time>
      </trkpt>
      <trkpt lat="45.94912" lon="4.80085">
        <ele>257</ele>
        <time>2018-06-09T10:45:45Z</time>
      </trkpt>
      <trkpt lat="45.94909" lon="4.80077">
        <ele>257</ele>
        <time>2018-06-09T10:45:46Z</time>
      </trkpt>
      <trkpt lat="45.94909" lon="4.80069">
        <ele>256</ele>
        <time>2018-06-09T10:45:47Z</time>
      </trkpt>
      <trkpt lat="45.94906" lon="4.80061">
        <ele>256</ele>
        <time>2018-06-09T10:45:48Z</time>
      </trkpt>
      <trkpt lat="45.94904" lon="4.80054">
        <ele>256</ele>
        <time>2018-06-09T10:45:49Z</time>
      </trkpt>
      <trkpt lat="45.94901" lon="4.80046">
        <ele>256</ele>
        <time>2018-06-09T10:45:50Z</time>
      </trkpt>
      <trkpt lat="45.949" lon="4.80039">
        <ele>256</ele>
        <time>2018-06-09T10:45:51Z</time>
      </trkpt>
      <trkpt lat="45.94897" lon="4.8003">
        <ele>256</ele>
        <time>2018-06-09T10:45:52Z</time>
      </trkpt>
      <trkpt lat="45.94893" lon="4.80021">
        <ele>256</ele>
        <time>2018-06-09T10:45:53Z</time>
      </trkpt>
      <trkpt lat="45.9489" lon="4.80011">
        <ele>256</ele>
        <time>2018-06-09T10:45:54Z</time>
      </trkpt>
      <trkpt lat="45.94884" lon="4.80004">
        <ele>256</ele>
        <time>2018-06-09T10:45:55Z</time>
      </trkpt>
      <trkpt lat="45.94881" lon="4.79995">
        <ele>256</ele>
        <time>2018-06-09T10:45:56Z</time>
      </trkpt>
      <trkpt lat="45.94882" lon="4.79987">
        <ele>256</ele>
        <time>2018-06-09T10:45:57Z</time>
      </trkpt>
      <trkpt lat="45.9488" lon="4.7998">
        <ele>256</ele>
        <time>2018-06-09T10:45:58Z</time>
      </trkpt>
      <trkpt lat="45.94877" lon="4.79972">
        <ele>256</ele>
        <time>2018-06-09T10:45:59Z</time>
      </trkpt>
      <trkpt lat="45.94874" lon="4.79965">
        <ele>256</ele>
        <time>2018-06-09T10:46:00Z</time>
      </trkpt>
      <trkpt lat="45.94869" lon="4.79953">
        <ele>256</ele>
        <time>2018-06-09T10:46:01Z</time>
      </trkpt>
      <trkpt lat="45.94867" lon="4.79947">
        <ele>256</ele>
        <time>2018-06-09T10:46:02Z</time>
      </trkpt>
      <trkpt lat="45.94863" lon="4.7994">
        <ele>256</ele>
        <time>2018-06-09T10:46:03Z</time>
      </trkpt>
      <trkpt lat="45.94861" lon="4.79931">
        <ele>256</ele>
        <time>2018-06-09T10:46:04Z</time>
      </trkpt>
      <trkpt lat="45.94855" lon="4.79925">
        <ele>256</ele>
        <time>2018-06-09T10:46:05Z</time>
      </trkpt>
      <trkpt lat="45.94854" lon="4.79918">
        <ele>256</ele>
        <time>2018-06-09T10:46:06Z</time>
      </trkpt>
      <trkpt lat="45.94851" lon="4.79913">
        <ele>256</ele>
        <time>2018-06-09T10:46:07Z</time>
      </trkpt>
      <trkpt lat="45.94846" lon="4.79907">
        <ele>256</ele>
        <time>2018-06-09T10:46:08Z</time>
      </trkpt>
      <trkpt lat="45.94843" lon="4.79898">
        <ele>255</ele>
        <time>2018-06-09T10:46:09Z</time>
      </trkpt>
      <trkpt lat="45.94841" lon="4.79891">
        <ele>255</ele>
        <time>2018-06-09T10:46:10Z</time>
      </trkpt>
      <trkpt lat="45.9484" lon="4.79884">
        <ele>255</ele>
        <time>2018-06-09T10:46:11Z</time>
      </trkpt>
      <trkpt lat="45.94838" lon="4.79875">
        <ele>255</ele>
        <time>2018-06-09T10:46:12Z</time>
      </trkpt>
      <trkpt lat="45.94836" lon="4.79868">
        <ele>255</ele>
        <time>2018-06-09T10:46:13Z</time>
      </trkpt>
      <trkpt lat="45.94833" lon="4.7986">
        <ele>255</ele>
        <time>2018-06-09T10:46:14Z</time>
      </trkpt>
      <trkpt lat="45.9483" lon="4.79852">
        <ele>254</ele>
        <time>2018-06-09T10:46:15Z</time>
      </trkpt>
      <trkpt lat="45.9483" lon="4.79843">
        <ele>254</ele>
        <time>2018-06-09T10:46:16Z</time>
      </trkpt>
      <trkpt lat="45.94829" lon="4.79835">
        <ele>254</ele>
        <time>2018-06-09T10:46:17Z</time>
      </trkpt>
      <trkpt lat="45.94829" lon="4.79826">
        <ele>254</ele>
        <time>2018-06-09T10:46:18Z</time>
      </trkpt>
      <trkpt lat="45.94829" lon="4.79816">
        <ele>254</ele>
        <time>2018-06-09T10:46:19Z</time>
      </trkpt>
      <trkpt lat="45.94822" lon="4.79805">
        <ele>254</ele>
        <time>2018-06-09T10:46:20Z</time>
      </trkpt>
      <trkpt lat="45.94817" lon="4.79794">
        <ele>254</ele>
        <time>2018-06-09T10:46:21Z</time>
      </trkpt>
      <trkpt lat="45.94816" lon="4.79786">
        <ele>254</ele>
        <time>2018-06-09T10:46:22Z</time>
      </trkpt>
      <trkpt lat="45.94812" lon="4.79777">
        <ele>254</ele>
        <time>2018-06-09T10:46:23Z</time>
      </trkpt>
      <trkpt lat="45.94808" lon="4.79768">
        <ele>254</ele>
        <time>2018-06-09T10:46:24Z</time>
      </trkpt>
      <trkpt lat="45.94806" lon="4.7976">
        <ele>254</ele>
        <time>2018-06-09T10:46:25Z</time>
      </trkpt>
      <trkpt lat="45.94802" lon="4.79751">
        <ele>254</ele>
        <time>2018-06-09T10:46:26Z</time>
      </trkpt>
      <trkpt lat="45.94799" lon="4.79743">
        <ele>254</ele>
        <time>2018-06-09T10:46:27Z</time>
      </trkpt>
      <trkpt lat="45.94798" lon="4.79734">
        <ele>254</ele>
        <time>2018-06-09T10:46:28Z</time>
      </trkpt>
      <trkpt lat="45.94794" lon="4.79726">
        <ele>254</ele>
        <time>2018-06-09T10:46:29Z</time>
      </trkpt>
      <trkpt lat="45.94792" lon="4.79719">
        <ele>254</ele>
        <time>2018-06-09T10:46:30Z</time>
      </trkpt>
      <trkpt lat="45.94793" lon="4.79712">
        <ele>254</ele>
        <time>2018-06-09T10:46:31Z</time>
      </trkpt>
      <trkpt lat="45.94792" lon="4.79704">
        <ele>254</ele>
        <time>2018-06-09T10:46:32Z</time>
      </trkpt>
      <trkpt lat="45.9479" lon="4.79697">
        <ele>254</ele>
        <time>2018-06-09T10:46:33Z</time>
      </trkpt>
      <trkpt lat="45.94787" lon="4.79689">
        <ele>254</ele>
        <time>2018-06-09T10:46:34Z</time>
      </trkpt>
      <trkpt lat="45.94785" lon="4.7968">
        <ele>254</ele>
        <time>2018-06-09T10:46:35Z</time>
      </trkpt>
      <trkpt lat="45.94784" lon="4.79672">
        <ele>254</ele>
        <time>2018-06-09T10:46:36Z</time>
      </trkpt>
      <trkpt lat="45.94779" lon="4.79666">
        <ele>254</ele>
        <time>2018-06-09T10:46:37Z</time>
      </trkpt>
      <trkpt lat="45.94776" lon="4.79656">
        <ele>254</ele>
        <time>2018-06-09T10:46:38Z</time>
      </trkpt>
      <trkpt lat="45.94773" lon="4.79646">
        <ele>254</ele>
        <time>2018-06-09T10:46:39Z</time>
      </trkpt>
      <trkpt lat="45.94768" lon="4.79636">
        <ele>254</ele>
        <time>2018-06-09T10:46:40Z</time>
      </trkpt>
      <trkpt lat="45.94768" lon="4.79631">
        <ele>253</ele>
        <time>2018-06-09T10:46:41Z</time>
      </trkpt>
      <trkpt lat="45.94767" lon="4.79624">
        <ele>253</ele>
        <time>2018-06-09T10:46:42Z</time>
      </trkpt>
      <trkpt lat="45.94766" lon="4.79617">
        <ele>253</ele>
        <time>2018-06-09T10:46:43Z</time>
      </trkpt>
      <trkpt lat="45.94765" lon="4.7961">
        <ele>253</ele>
        <time>2018-06-09T10:46:44Z</time>
      </trkpt>
      <trkpt lat="45.94763" lon="4.79603">
        <ele>253</ele>
        <time>2018-06-09T10:46:45Z</time>
      </trkpt>
      <trkpt lat="45.94767" lon="4.79593">
        <ele>253</ele>
        <time>2018-06-09T10:46:47Z</time>
      </trkpt>
      <trkpt lat="45.94767" lon="4.7959">
        <ele>253</ele>
        <time>2018-06-09T10:46:48Z</time>
      </trkpt>
      <trkpt lat="45.94769" lon="4.79582">
        <ele>252</ele>
        <time>2018-06-09T10:46:49Z</time>
      </trkpt>
      <trkpt lat="45.94769" lon="4.79577">
        <ele>252</ele>
        <time>2018-06-09T10:46:50Z</time>
      </trkpt>
      <trkpt lat="45.94767" lon="4.7957">
        <ele>252</ele>
        <time>2018-06-09T10:46:51Z</time>
      </trkpt>
      <trkpt lat="45.94764" lon="4.79564">
        <ele>252</ele>
        <time>2018-06-09T10:46:52Z</time>
      </trkpt>
      <trkpt lat="45.94763" lon="4.79557">
        <ele>252</ele>
        <time>2018-06-09T10:46:53Z</time>
      </trkpt>
      <trkpt lat="45.9476" lon="4.7955">
        <ele>252</ele>
        <time>2018-06-09T10:46:54Z</time>
      </trkpt>
      <trkpt lat="45.94758" lon="4.79543">
        <ele>252</ele>
        <time>2018-06-09T10:46:55Z</time>
      </trkpt>
      <trkpt lat="45.94754" lon="4.79536">
        <ele>252</ele>
        <time>2018-06-09T10:46:56Z</time>
      </trkpt>
      <trkpt lat="45.94752" lon="4.79528">
        <ele>252</ele>
        <time>2018-06-09T10:46:57Z</time>
      </trkpt>
      <trkpt lat="45.94749" lon="4.7952">
        <ele>252</ele>
        <time>2018-06-09T10:46:58Z</time>
      </trkpt>
      <trkpt lat="45.94746" lon="4.79513">
        <ele>252</ele>
        <time>2018-06-09T10:46:59Z</time>
      </trkpt>
      <trkpt lat="45.94741" lon="4.79505">
        <ele>252</ele>
        <time>2018-06-09T10:47:00Z</time>
      </trkpt>
      <trkpt lat="45.94738" lon="4.79497">
        <ele>252</ele>
        <time>2018-06-09T10:47:01Z</time>
      </trkpt>
      <trkpt lat="45.94733" lon="4.7949">
        <ele>253</ele>
        <time>2018-06-09T10:47:02Z</time>
      </trkpt>
      <trkpt lat="45.9473" lon="4.79483">
        <ele>253</ele>
        <time>2018-06-09T10:47:03Z</time>
      </trkpt>
      <trkpt lat="45.94727" lon="4.79476">
        <ele>253</ele>
        <time>2018-06-09T10:47:04Z</time>
      </trkpt>
      <trkpt lat="45.94723" lon="4.79468">
        <ele>253</ele>
        <time>2018-06-09T10:47:05Z</time>
      </trkpt>
      <trkpt lat="45.9472" lon="4.79459">
        <ele>253</ele>
        <time>2018-06-09T10:47:06Z</time>
      </trkpt>
      <trkpt lat="45.94718" lon="4.79452">
        <ele>253</ele>
        <time>2018-06-09T10:47:07Z</time>
      </trkpt>
      <trkpt lat="45.94715" lon="4.79446">
        <ele>253</ele>
        <time>2018-06-09T10:47:08Z</time>
      </trkpt>
      <trkpt lat="45.94712" lon="4.79439">
        <ele>253</ele>
        <time>2018-06-09T10:47:09Z</time>
      </trkpt>
      <trkpt lat="45.94708" lon="4.79432">
        <ele>253</ele>
        <time>2018-06-09T10:47:10Z</time>
      </trkpt>
      <trkpt lat="45.94704" lon="4.79425">
        <ele>253</ele>
        <time>2018-06-09T10:47:11Z</time>
      </trkpt>
      <trkpt lat="45.94701" lon="4.79418">
        <ele>253</ele>
        <time>2018-06-09T10:47:12Z</time>
      </trkpt>
      <trkpt lat="45.94699" lon="4.79411">
        <ele>253</ele>
        <time>2018-06-09T10:47:13Z</time>
      </trkpt>
      <trkpt lat="45.94697" lon="4.79404">
        <ele>253</ele>
        <time>2018-06-09T10:47:14Z</time>
      </trkpt>
      <trkpt lat="45.94693" lon="4.79397">
        <ele>253</ele>
        <time>2018-06-09T10:47:15Z</time>
      </trkpt>
      <trkpt lat="45.9469" lon="4.7939">
        <ele>253</ele>
        <time>2018-06-09T10:47:16Z</time>
      </trkpt>
      <trkpt lat="45.94687" lon="4.79384">
        <ele>253</ele>
        <time>2018-06-09T10:47:17Z</time>
      </trkpt>
      <trkpt lat="45.94684" lon="4.79377">
        <ele>253</ele>
        <time>2018-06-09T10:47:18Z</time>
      </trkpt>
      <trkpt lat="45.9468" lon="4.79371">
        <ele>253</ele>
        <time>2018-06-09T10:47:19Z</time>
      </trkpt>
      <trkpt lat="45.94678" lon="4.79365">
        <ele>253</ele>
        <time>2018-06-09T10:47:20Z</time>
      </trkpt>
      <trkpt lat="45.94674" lon="4.79358">
        <ele>253</ele>
        <time>2018-06-09T10:47:21Z</time>
      </trkpt>
      <trkpt lat="45.9467" lon="4.79352">
        <ele>253</ele>
        <time>2018-06-09T10:47:22Z</time>
      </trkpt>
      <trkpt lat="45.94669" lon="4.79345">
        <ele>254</ele>
        <time>2018-06-09T10:47:23Z</time>
      </trkpt>
      <trkpt lat="45.94665" lon="4.79337">
        <ele>254</ele>
        <time>2018-06-09T10:47:24Z</time>
      </trkpt>
      <trkpt lat="45.94661" lon="4.7933">
        <ele>254</ele>
        <time>2018-06-09T10:47:25Z</time>
      </trkpt>
      <trkpt lat="45.94657" lon="4.79323">
        <ele>254</ele>
        <time>2018-06-09T10:47:26Z</time>
      </trkpt>
      <trkpt lat="45.94652" lon="4.79315">
        <ele>254</ele>
        <time>2018-06-09T10:47:27Z</time>
      </trkpt>
      <trkpt lat="45.94649" lon="4.79309">
        <ele>254</ele>
        <time>2018-06-09T10:47:28Z</time>
      </trkpt>
      <trkpt lat="45.94645" lon="4.79302">
        <ele>254</ele>
        <time>2018-06-09T10:47:29Z</time>
      </trkpt>
      <trkpt lat="45.94642" lon="4.79296">
        <ele>254</ele>
        <time>2018-06-09T10:47:30Z</time>
      </trkpt>
      <trkpt lat="45.94638" lon="4.79288">
        <ele>254</ele>
        <time>2018-06-09T10:47:31Z</time>
      </trkpt>
      <trkpt lat="45.94634" lon="4.7928">
        <ele>254</ele>
        <time>2018-06-09T10:47:32Z</time>
      </trkpt>
      <trkpt lat="45.94627" lon="4.79274">
        <ele>254</ele>
        <time>2018-06-09T10:47:33Z</time>
      </trkpt>
      <trkpt lat="45.94622" lon="4.79265">
        <ele>255</ele>
        <time>2018-06-09T10:47:34Z</time>
      </trkpt>
      <trkpt lat="45.94624" lon="4.79258">
        <ele>255</ele>
        <time>2018-06-09T10:47:35Z</time>
      </trkpt>
      <trkpt lat="45.9462" lon="4.7925">
        <ele>256</ele>
        <time>2018-06-09T10:47:36Z</time>
      </trkpt>
      <trkpt lat="45.9461" lon="4.79239">
        <ele>256</ele>
        <time>2018-06-09T10:47:37Z</time>
      </trkpt>
      <trkpt lat="45.94607" lon="4.7923">
        <ele>256</ele>
        <time>2018-06-09T10:47:38Z</time>
      </trkpt>
      <trkpt lat="45.94602" lon="4.7922">
        <ele>256</ele>
        <time>2018-06-09T10:47:39Z</time>
      </trkpt>
      <trkpt lat="45.94597" lon="4.79212">
        <ele>257</ele>
        <time>2018-06-09T10:47:40Z</time>
      </trkpt>
      <trkpt lat="45.94593" lon="4.79206">
        <ele>257</ele>
        <time>2018-06-09T10:47:41Z</time>
      </trkpt>
      <trkpt lat="45.94592" lon="4.79198">
        <ele>257</ele>
        <time>2018-06-09T10:47:42Z</time>
      </trkpt>
      <trkpt lat="45.94586" lon="4.79193">
        <ele>257</ele>
        <time>2018-06-09T10:47:43Z</time>
      </trkpt>
      <trkpt lat="45.94586" lon="4.79185">
        <ele>258</ele>
        <time>2018-06-09T10:47:44Z</time>
      </trkpt>
      <trkpt lat="45.94578" lon="4.7918">
        <ele>257</ele>
        <time>2018-06-09T10:47:45Z</time>
      </trkpt>
      <trkpt lat="45.94552" lon="4.7917">
        <ele>256</ele>
        <time>2018-06-09T10:47:46Z</time>
      </trkpt>
      <trkpt lat="45.94563" lon="4.79166">
        <ele>257</ele>
        <time>2018-06-09T10:47:47Z</time>
      </trkpt>
      <trkpt lat="45.94556" lon="4.79154">
        <ele>257</ele>
        <time>2018-06-09T10:47:48Z</time>
      </trkpt>
      <trkpt lat="45.94554" lon="4.79144">
        <ele>257</ele>
        <time>2018-06-09T10:47:49Z</time>
      </trkpt>
      <trkpt lat="45.94557" lon="4.79138">
        <ele>257</ele>
        <time>2018-06-09T10:47:50Z</time>
      </trkpt>
      <trkpt lat="45.94562" lon="4.79132">
        <ele>257</ele>
        <time>2018-06-09T10:47:51Z</time>
      </trkpt>
      <trkpt lat="45.94556" lon="4.79124">
        <ele>257</ele>
        <time>2018-06-09T10:47:52Z</time>
      </trkpt>
      <trkpt lat="45.94547" lon="4.79111">
        <ele>256</ele>
        <time>2018-06-09T10:47:53Z</time>
      </trkpt>
      <trkpt lat="45.94552" lon="4.79096">
        <ele>257</ele>
        <time>2018-06-09T10:47:54Z</time>
      </trkpt>
      <trkpt lat="45.94534" lon="4.79088">
        <ele>256</ele>
        <time>2018-06-09T10:47:55Z</time>
      </trkpt>
      <trkpt lat="45.9454" lon="4.79079">
        <ele>256</ele>
        <time>2018-06-09T10:47:56Z</time>
      </trkpt>
      <trkpt lat="45.94544" lon="4.79074">
        <ele>256</ele>
        <time>2018-06-09T10:47:57Z</time>
      </trkpt>
      <trkpt lat="45.94529" lon="4.79072">
        <ele>255</ele>
        <time>2018-06-09T10:47:58Z</time>
      </trkpt>
      <trkpt lat="45.94531" lon="4.79063">
        <ele>255</ele>
        <time>2018-06-09T10:47:59Z</time>
      </trkpt>
      <trkpt lat="45.94533" lon="4.79058">
        <ele>255</ele>
        <time>2018-06-09T10:48:00Z</time>
      </trkpt>
      <trkpt lat="45.94535" lon="4.79052">
        <ele>255</ele>
        <time>2018-06-09T10:48:02Z</time>
      </trkpt>
      <trkpt lat="45.94529" lon="4.79047">
        <ele>255</ele>
        <time>2018-06-09T10:48:03Z</time>
      </trkpt>
      <trkpt lat="45.94525" lon="4.79036">
        <ele>255</ele>
        <time>2018-06-09T10:48:04Z</time>
      </trkpt>
      <trkpt lat="45.94519" lon="4.79028">
        <ele>255</ele>
        <time>2018-06-09T10:48:05Z</time>
      </trkpt>
      <trkpt lat="45.94514" lon="4.79021">
        <ele>255</ele>
        <time>2018-06-09T10:48:06Z</time>
      </trkpt>
      <trkpt lat="45.9451" lon="4.79012">
        <ele>255</ele>
        <time>2018-06-09T10:48:07Z</time>
      </trkpt>
      <trkpt lat="45.94503" lon="4.79006">
        <ele>254</ele>
        <time>2018-06-09T10:48:08Z</time>
      </trkpt>
      <trkpt lat="45.94498" lon="4.78997">
        <ele>254</ele>
        <time>2018-06-09T10:48:09Z</time>
      </trkpt>
      <trkpt lat="45.94494" lon="4.78989">
        <ele>254</ele>
        <time>2018-06-09T10:48:10Z</time>
      </trkpt>
      <trkpt lat="45.94488" lon="4.78981">
        <ele>254</ele>
        <time>2018-06-09T10:48:11Z</time>
      </trkpt>
      <trkpt lat="45.94484" lon="4.78972">
        <ele>254</ele>
        <time>2018-06-09T10:48:12Z</time>
      </trkpt>
      <trkpt lat="45.94479" lon="4.78963">
        <ele>254</ele>
        <time>2018-06-09T10:48:13Z</time>
      </trkpt>
      <trkpt lat="45.94474" lon="4.78953">
        <ele>254</ele>
        <time>2018-06-09T10:48:14Z</time>
      </trkpt>
      <trkpt lat="45.94468" lon="4.78944">
        <ele>254</ele>
        <time>2018-06-09T10:48:15Z</time>
      </trkpt>
      <trkpt lat="45.94465" lon="4.78933">
        <ele>254</ele>
        <time>2018-06-09T10:48:16Z</time>
      </trkpt>
      <trkpt lat="45.9446" lon="4.78922">
        <ele>254</ele>
        <time>2018-06-09T10:48:17Z</time>
      </trkpt>
      <trkpt lat="45.94456" lon="4.78909">
        <ele>253</ele>
        <time>2018-06-09T10:48:18Z</time>
      </trkpt>
      <trkpt lat="45.94451" lon="4.789">
        <ele>253</ele>
        <time>2018-06-09T10:48:19Z</time>
      </trkpt>
      <trkpt lat="45.94448" lon="4.78889">
        <ele>253</ele>
        <time>2018-06-09T10:48:20Z</time>
      </trkpt>
      <trkpt lat="45.94443" lon="4.78865">
        <ele>253</ele>
        <time>2018-06-09T10:48:21Z</time>
      </trkpt>
      <trkpt lat="45.94439" lon="4.78849">
        <ele>253</ele>
        <time>2018-06-09T10:48:22Z</time>
      </trkpt>
      <trkpt lat="45.94435" lon="4.78834">
        <ele>253</ele>
        <time>2018-06-09T10:48:23Z</time>
      </trkpt>
      <trkpt lat="45.94448" lon="4.78824">
        <ele>251</ele>
        <time>2018-06-09T10:48:24Z</time>
      </trkpt>
      <trkpt lat="45.94451" lon="4.7881">
        <ele>251</ele>
        <time>2018-06-09T10:48:25Z</time>
      </trkpt>
      <trkpt lat="45.94458" lon="4.78796">
        <ele>251</ele>
        <time>2018-06-09T10:48:26Z</time>
      </trkpt>
      <trkpt lat="45.94465" lon="4.78779">
        <ele>250</ele>
        <time>2018-06-09T10:48:27Z</time>
      </trkpt>
      <trkpt lat="45.94472" lon="4.78763">
        <ele>250</ele>
        <time>2018-06-09T10:48:28Z</time>
      </trkpt>
      <trkpt lat="45.94475" lon="4.78743">
        <ele>246</ele>
        <time>2018-06-09T10:48:29Z</time>
      </trkpt>
      <trkpt lat="45.94479" lon="4.78728">
        <ele>246</ele>
        <time>2018-06-09T10:48:30Z</time>
      </trkpt>
      <trkpt lat="45.94486" lon="4.78711">
        <ele>245</ele>
        <time>2018-06-09T10:48:31Z</time>
      </trkpt>
      <trkpt lat="45.94491" lon="4.78693">
        <ele>244</ele>
        <time>2018-06-09T10:48:32Z</time>
      </trkpt>
      <trkpt lat="45.94476" lon="4.78673">
        <ele>244</ele>
        <time>2018-06-09T10:48:33Z</time>
      </trkpt>
      <trkpt lat="45.94472" lon="4.78656">
        <ele>241</ele>
        <time>2018-06-09T10:48:34Z</time>
      </trkpt>
      <trkpt lat="45.94473" lon="4.7864">
        <ele>241</ele>
        <time>2018-06-09T10:48:35Z</time>
      </trkpt>
      <trkpt lat="45.9447" lon="4.78623">
        <ele>241</ele>
        <time>2018-06-09T10:48:36Z</time>
      </trkpt>
      <trkpt lat="45.94468" lon="4.78607">
        <ele>241</ele>
        <time>2018-06-09T10:48:37Z</time>
      </trkpt>
      <trkpt lat="45.94457" lon="4.78587">
        <ele>240</ele>
        <time>2018-06-09T10:48:38Z</time>
      </trkpt>
      <trkpt lat="45.94458" lon="4.78573">
        <ele>240</ele>
        <time>2018-06-09T10:48:39Z</time>
      </trkpt>
      <trkpt lat="45.94452" lon="4.78568">
        <ele>240</ele>
        <time>2018-06-09T10:48:40Z</time>
      </trkpt>
      <trkpt lat="45.94447" lon="4.78556">
        <ele>239</ele>
        <time>2018-06-09T10:48:41Z</time>
      </trkpt>
      <trkpt lat="45.94432" lon="4.78541">
        <ele>239</ele>
        <time>2018-06-09T10:48:42Z</time>
      </trkpt>
      <trkpt lat="45.94425" lon="4.78529">
        <ele>238</ele>
        <time>2018-06-09T10:48:43Z</time>
      </trkpt>
      <trkpt lat="45.94418" lon="4.78517">
        <ele>236</ele>
        <time>2018-06-09T10:48:44Z</time>
      </trkpt>
      <trkpt lat="45.94407" lon="4.78506">
        <ele>235</ele>
        <time>2018-06-09T10:48:45Z</time>
      </trkpt>
      <trkpt lat="45.94396" lon="4.78498">
        <ele>235</ele>
        <time>2018-06-09T10:48:46Z</time>
      </trkpt>
      <trkpt lat="45.94387" lon="4.78488">
        <ele>236</ele>
        <time>2018-06-09T10:48:47Z</time>
      </trkpt>
      <trkpt lat="45.94378" lon="4.78476">
        <ele>236</ele>
        <time>2018-06-09T10:48:48Z</time>
      </trkpt>
      <trkpt lat="45.94371" lon="4.78466">
        <ele>236</ele>
        <time>2018-06-09T10:48:49Z</time>
      </trkpt>
      <trkpt lat="45.94361" lon="4.78455">
        <ele>235</ele>
        <time>2018-06-09T10:48:50Z</time>
      </trkpt>
      <trkpt lat="45.94353" lon="4.78444">
        <ele>235</ele>
        <time>2018-06-09T10:48:51Z</time>
      </trkpt>
      <trkpt lat="45.94344" lon="4.78432">
        <ele>233</ele>
        <time>2018-06-09T10:48:52Z</time>
      </trkpt>
      <trkpt lat="45.94338" lon="4.78421">
        <ele>231</ele>
        <time>2018-06-09T10:48:53Z</time>
      </trkpt>
      <trkpt lat="45.94331" lon="4.78407">
        <ele>229</ele>
        <time>2018-06-09T10:48:54Z</time>
      </trkpt>
      <trkpt lat="45.94325" lon="4.78394">
        <ele>230</ele>
        <time>2018-06-09T10:48:55Z</time>
      </trkpt>
      <trkpt lat="45.94318" lon="4.78382">
        <ele>230</ele>
        <time>2018-06-09T10:48:56Z</time>
      </trkpt>
      <trkpt lat="45.94311" lon="4.78368">
        <ele>229</ele>
        <time>2018-06-09T10:48:57Z</time>
      </trkpt>
      <trkpt lat="45.94303" lon="4.78355">
        <ele>229</ele>
        <time>2018-06-09T10:48:58Z</time>
      </trkpt>
      <trkpt lat="45.94299" lon="4.78341">
        <ele>228</ele>
        <time>2018-06-09T10:48:59Z</time>
      </trkpt>
      <trkpt lat="45.94295" lon="4.78327">
        <ele>229</ele>
        <time>2018-06-09T10:49:00Z</time>
      </trkpt>
      <trkpt lat="45.94291" lon="4.78321">
        <ele>229</ele>
        <time>2018-06-09T10:49:01Z</time>
      </trkpt>
      <trkpt lat="45.94285" lon="4.78308">
        <ele>229</ele>
        <time>2018-06-09T10:49:02Z</time>
      </trkpt>
      <trkpt lat="45.94279" lon="4.78297">
        <ele>229</ele>
        <time>2018-06-09T10:49:03Z</time>
      </trkpt>
      <trkpt lat="45.94265" lon="4.78288">
        <ele>229</ele>
        <time>2018-06-09T10:49:04Z</time>
      </trkpt>
      <trkpt lat="45.94257" lon="4.78282">
        <ele>229</ele>
        <time>2018-06-09T10:49:05Z</time>
      </trkpt>
      <trkpt lat="45.9424" lon="4.78288">
        <ele>223</ele>
        <time>2018-06-09T10:49:06Z</time>
      </trkpt>
      <trkpt lat="45.94232" lon="4.78286">
        <ele>223</ele>
        <time>2018-06-09T10:49:07Z</time>
      </trkpt>
      <trkpt lat="45.94219" lon="4.78286">
        <ele>222</ele>
        <time>2018-06-09T10:49:08Z</time>
      </trkpt>
      <trkpt lat="45.94207" lon="4.78285">
        <ele>222</ele>
        <time>2018-06-09T10:49:09Z</time>
      </trkpt>
      <trkpt lat="45.94197" lon="4.78283">
        <ele>221</ele>
        <time>2018-06-09T10:49:10Z</time>
      </trkpt>
      <trkpt lat="45.94186" lon="4.78282">
        <ele>221</ele>
        <time>2018-06-09T10:49:11Z</time>
      </trkpt>
      <trkpt lat="45.94179" lon="4.78278">
        <ele>221</ele>
        <time>2018-06-09T10:49:12Z</time>
      </trkpt>
      <trkpt lat="45.94169" lon="4.78276">
        <ele>220</ele>
        <time>2018-06-09T10:49:13Z</time>
      </trkpt>
      <trkpt lat="45.94161" lon="4.78278">
        <ele>216</ele>
        <time>2018-06-09T10:49:14Z</time>
      </trkpt>
      <trkpt lat="45.94149" lon="4.78272">
        <ele>215</ele>
        <time>2018-06-09T10:49:15Z</time>
      </trkpt>
      <trkpt lat="45.94139" lon="4.78263">
        <ele>215</ele>
        <time>2018-06-09T10:49:16Z</time>
      </trkpt>
      <trkpt lat="45.94131" lon="4.78256">
        <ele>214</ele>
        <time>2018-06-09T10:49:17Z</time>
      </trkpt>
      <trkpt lat="45.94122" lon="4.78251">
        <ele>213</ele>
        <time>2018-06-09T10:49:18Z</time>
      </trkpt>
      <trkpt lat="45.94114" lon="4.78245">
        <ele>214</ele>
        <time>2018-06-09T10:49:19Z</time>
      </trkpt>
      <trkpt lat="45.94103" lon="4.7824">
        <ele>212</ele>
        <time>2018-06-09T10:49:20Z</time>
      </trkpt>
      <trkpt lat="45.94094" lon="4.78232">
        <ele>212</ele>
        <time>2018-06-09T10:49:21Z</time>
      </trkpt>
      <trkpt lat="45.94084" lon="4.78226">
        <ele>212</ele>
        <time>2018-06-09T10:49:22Z</time>
      </trkpt>
      <trkpt lat="45.94076" lon="4.7822">
        <ele>206</ele>
        <time>2018-06-09T10:49:23Z</time>
      </trkpt>
      <trkpt lat="45.94067" lon="4.78215">
        <ele>206</ele>
        <time>2018-06-09T10:49:24Z</time>
      </trkpt>
      <trkpt lat="45.94058" lon="4.78209">
        <ele>206</ele>
        <time>2018-06-09T10:49:25Z</time>
      </trkpt>
      <trkpt lat="45.94049" lon="4.78204">
        <ele>205</ele>
        <time>2018-06-09T10:49:26Z</time>
      </trkpt>
      <trkpt lat="45.9404" lon="4.78198">
        <ele>205</ele>
        <time>2018-06-09T10:49:27Z</time>
      </trkpt>
      <trkpt lat="45.94033" lon="4.78193">
        <ele>204</ele>
        <time>2018-06-09T10:49:28Z</time>
      </trkpt>
      <trkpt lat="45.94026" lon="4.78187">
        <ele>204</ele>
        <time>2018-06-09T10:49:29Z</time>
      </trkpt>
      <trkpt lat="45.9402" lon="4.78183">
        <ele>204</ele>
        <time>2018-06-09T10:49:30Z</time>
      </trkpt>
      <trkpt lat="45.94011" lon="4.78179">
        <ele>203</ele>
        <time>2018-06-09T10:49:31Z</time>
      </trkpt>
      <trkpt lat="45.94004" lon="4.78176">
        <ele>202</ele>
        <time>2018-06-09T10:49:32Z</time>
      </trkpt>
      <trkpt lat="45.94" lon="4.78173">
        <ele>200</ele>
        <time>2018-06-09T10:49:33Z</time>
      </trkpt>
      <trkpt lat="45.93996" lon="4.78168">
        <ele>200</ele>
        <time>2018-06-09T10:49:35Z</time>
      </trkpt>
      <trkpt lat="45.93992" lon="4.78162">
        <ele>199</ele>
        <time>2018-06-09T10:49:36Z</time>
      </trkpt>
      <trkpt lat="45.93988" lon="4.78151">
        <ele>198</ele>
        <time>2018-06-09T10:49:38Z</time>
      </trkpt>
      <trkpt lat="45.93988" lon="4.78144">
        <ele>198</ele>
        <time>2018-06-09T10:49:39Z</time>
      </trkpt>
      <trkpt lat="45.9399" lon="4.78131">
        <ele>197</ele>
        <time>2018-06-09T10:49:41Z</time>
      </trkpt>
      <trkpt lat="45.93991" lon="4.78125">
        <ele>197</ele>
        <time>2018-06-09T10:49:42Z</time>
      </trkpt>
      <trkpt lat="45.93993" lon="4.78118">
        <ele>197</ele>
        <time>2018-06-09T10:49:43Z</time>
      </trkpt>
      <trkpt lat="45.93995" lon="4.78111">
        <ele>197</ele>
        <time>2018-06-09T10:49:44Z</time>
      </trkpt>
      <trkpt lat="45.93997" lon="4.78104">
        <ele>197</ele>
        <time>2018-06-09T10:49:45Z</time>
      </trkpt>
      <trkpt lat="45.93997" lon="4.78096">
        <ele>198</ele>
        <time>2018-06-09T10:49:46Z</time>
      </trkpt>
      <trkpt lat="45.94" lon="4.78088">
        <ele>198</ele>
        <time>2018-06-09T10:49:47Z</time>
      </trkpt>
      <trkpt lat="45.94002" lon="4.78081">
        <ele>199</ele>
        <time>2018-06-09T10:49:48Z</time>
      </trkpt>
      <trkpt lat="45.94004" lon="4.78074">
        <ele>200</ele>
        <time>2018-06-09T10:49:49Z</time>
      </trkpt>
      <trkpt lat="45.94006" lon="4.78065">
        <ele>201</ele>
        <time>2018-06-09T10:49:50Z</time>
      </trkpt>
      <trkpt lat="45.94008" lon="4.78057">
        <ele>201</ele>
        <time>2018-06-09T10:49:51Z</time>
      </trkpt>
      <trkpt lat="45.9401" lon="4.78049">
        <ele>201</ele>
        <time>2018-06-09T10:49:52Z</time>
      </trkpt>
      <trkpt lat="45.9401" lon="4.78042">
        <ele>201</ele>
        <time>2018-06-09T10:49:53Z</time>
      </trkpt>
      <trkpt lat="45.94012" lon="4.78035">
        <ele>201</ele>
        <time>2018-06-09T10:49:54Z</time>
      </trkpt>
      <trkpt lat="45.94015" lon="4.78028">
        <ele>201</ele>
        <time>2018-06-09T10:49:55Z</time>
      </trkpt>
      <trkpt lat="45.94017" lon="4.78021">
        <ele>201</ele>
        <time>2018-06-09T10:49:56Z</time>
      </trkpt>
      <trkpt lat="45.94018" lon="4.78013">
        <ele>200</ele>
        <time>2018-06-09T10:49:57Z</time>
      </trkpt>
      <trkpt lat="45.94018" lon="4.78006">
        <ele>200</ele>
        <time>2018-06-09T10:49:58Z</time>
      </trkpt>
      <trkpt lat="45.9402" lon="4.77997">
        <ele>199</ele>
        <time>2018-06-09T10:49:59Z</time>
      </trkpt>
      <trkpt lat="45.94022" lon="4.7799">
        <ele>200</ele>
        <time>2018-06-09T10:50:00Z</time>
      </trkpt>
      <trkpt lat="45.94022" lon="4.77983">
        <ele>200</ele>
        <time>2018-06-09T10:50:01Z</time>
      </trkpt>
      <trkpt lat="45.94024" lon="4.77975">
        <ele>200</ele>
        <time>2018-06-09T10:50:02Z</time>
      </trkpt>
      <trkpt lat="45.94027" lon="4.77963">
        <ele>200</ele>
        <time>2018-06-09T10:50:04Z</time>
      </trkpt>
      <trkpt lat="45.94028" lon="4.7796">
        <ele>200</ele>
        <time>2018-06-09T10:50:05Z</time>
      </trkpt>
      <trkpt lat="45.94029" lon="4.77949">
        <ele>200</ele>
        <time>2018-06-09T10:50:06Z</time>
      </trkpt>
      <trkpt lat="45.94031" lon="4.77942">
        <ele>200</ele>
        <time>2018-06-09T10:50:07Z</time>
      </trkpt>
      <trkpt lat="45.9403" lon="4.7793">
        <ele>200</ele>
        <time>2018-06-09T10:50:09Z</time>
      </trkpt>
      <trkpt lat="45.94026" lon="4.77926">
        <ele>199</ele>
        <time>2018-06-09T10:50:10Z</time>
      </trkpt>
      <trkpt lat="45.94021" lon="4.77925">
        <ele>199</ele>
        <time>2018-06-09T10:50:11Z</time>
      </trkpt>
      <trkpt lat="45.94016" lon="4.77924">
        <ele>198</ele>
        <time>2018-06-09T10:50:12Z</time>
      </trkpt>
      <trkpt lat="45.94011" lon="4.77924">
        <ele>197</ele>
        <time>2018-06-09T10:50:13Z</time>
      </trkpt>
      <trkpt lat="45.94004" lon="4.77926">
        <ele>196</ele>
        <time>2018-06-09T10:50:14Z</time>
      </trkpt>
      <trkpt lat="45.93998" lon="4.77929">
        <ele>193</ele>
        <time>2018-06-09T10:50:15Z</time>
      </trkpt>
      <trkpt lat="45.93991" lon="4.77933">
        <ele>192</ele>
        <time>2018-06-09T10:50:16Z</time>
      </trkpt>
      <trkpt lat="45.93985" lon="4.77937">
        <ele>192</ele>
        <time>2018-06-09T10:50:17Z</time>
      </trkpt>
      <trkpt lat="45.93978" lon="4.7794">
        <ele>191</ele>
        <time>2018-06-09T10:50:18Z</time>
      </trkpt>
      <trkpt lat="45.93972" lon="4.77942">
        <ele>191</ele>
        <time>2018-06-09T10:50:19Z</time>
      </trkpt>
      <trkpt lat="45.93967" lon="4.77946">
        <ele>190</ele>
        <time>2018-06-09T10:50:20Z</time>
      </trkpt>
      <trkpt lat="45.93961" lon="4.77949">
        <ele>190</ele>
        <time>2018-06-09T10:50:21Z</time>
      </trkpt>
      <trkpt lat="45.93953" lon="4.77953">
        <ele>190</ele>
        <time>2018-06-09T10:50:22Z</time>
      </trkpt>
      <trkpt lat="45.93946" lon="4.77957">
        <ele>189</ele>
        <time>2018-06-09T10:50:23Z</time>
      </trkpt>
      <trkpt lat="45.93939" lon="4.7796">
        <ele>189</ele>
        <time>2018-06-09T10:50:24Z</time>
      </trkpt>
      <trkpt lat="45.93935" lon="4.77961">
        <ele>189</ele>
        <time>2018-06-09T10:50:25Z</time>
      </trkpt>
      <trkpt lat="45.93927" lon="4.77966">
        <ele>188</ele>
        <time>2018-06-09T10:50:26Z</time>
      </trkpt>
      <trkpt lat="45.93919" lon="4.77973">
        <ele>188</ele>
        <time>2018-06-09T10:50:27Z</time>
      </trkpt>
      <trkpt lat="45.93909" lon="4.77981">
        <ele>182</ele>
        <time>2018-06-09T10:50:28Z</time>
      </trkpt>
      <trkpt lat="45.93902" lon="4.77989">
        <ele>182</ele>
        <time>2018-06-09T10:50:29Z</time>
      </trkpt>
      <trkpt lat="45.93899" lon="4.77993">
        <ele>182</ele>
        <time>2018-06-09T10:50:30Z</time>
      </trkpt>
      <trkpt lat="45.93891" lon="4.78">
        <ele>182</ele>
        <time>2018-06-09T10:50:31Z</time>
      </trkpt>
      <trkpt lat="45.93883" lon="4.78005">
        <ele>184</ele>
        <time>2018-06-09T10:50:32Z</time>
      </trkpt>
      <trkpt lat="45.93876" lon="4.78007">
        <ele>183</ele>
        <time>2018-06-09T10:50:33Z</time>
      </trkpt>
      <trkpt lat="45.93871" lon="4.78012">
        <ele>183</ele>
        <time>2018-06-09T10:50:34Z</time>
      </trkpt>
      <trkpt lat="45.93866" lon="4.78004">
        <ele>183</ele>
        <time>2018-06-09T10:50:35Z</time>
      </trkpt>
      <trkpt lat="45.9386" lon="4.78002">
        <ele>182</ele>
        <time>2018-06-09T10:50:36Z</time>
      </trkpt>
      <trkpt lat="45.93852" lon="4.77998">
        <ele>179</ele>
        <time>2018-06-09T10:50:37Z</time>
      </trkpt>
      <trkpt lat="45.93847" lon="4.77993">
        <ele>179</ele>
        <time>2018-06-09T10:50:38Z</time>
      </trkpt>
      <trkpt lat="45.93842" lon="4.77987">
        <ele>179</ele>
        <time>2018-06-09T10:50:39Z</time>
      </trkpt>
      <trkpt lat="45.93839" lon="4.77981">
        <ele>178</ele>
        <time>2018-06-09T10:50:40Z</time>
      </trkpt>
      <trkpt lat="45.93835" lon="4.77974">
        <ele>178</ele>
        <time>2018-06-09T10:50:41Z</time>
      </trkpt>
      <trkpt lat="45.93828" lon="4.77968">
        <ele>172</ele>
        <time>2018-06-09T10:50:42Z</time>
      </trkpt>
      <trkpt lat="45.93824" lon="4.77963">
        <ele>171</ele>
        <time>2018-06-09T10:50:43Z</time>
      </trkpt>
      <trkpt lat="45.9382" lon="4.77957">
        <ele>170</ele>
        <time>2018-06-09T10:50:44Z</time>
      </trkpt>
      <trkpt lat="45.93815" lon="4.77953">
        <ele>170</ele>
        <time>2018-06-09T10:50:45Z</time>
      </trkpt>
      <trkpt lat="45.93811" lon="4.77947">
        <ele>169</ele>
        <time>2018-06-09T10:50:46Z</time>
      </trkpt>
      <trkpt lat="45.93807" lon="4.77942">
        <ele>169</ele>
        <time>2018-06-09T10:50:47Z</time>
      </trkpt>
      <trkpt lat="45.93802" lon="4.77936">
        <ele>169</ele>
        <time>2018-06-09T10:50:48Z</time>
      </trkpt>
      <trkpt lat="45.938" lon="4.77931">
        <ele>168</ele>
        <time>2018-06-09T10:50:49Z</time>
      </trkpt>
      <trkpt lat="45.93797" lon="4.77925">
        <ele>168</ele>
        <time>2018-06-09T10:50:50Z</time>
      </trkpt>
      <trkpt lat="45.93791" lon="4.77919">
        <ele>168</ele>
        <time>2018-06-09T10:50:51Z</time>
      </trkpt>
      <trkpt lat="45.93784" lon="4.77913">
        <ele>166</ele>
        <time>2018-06-09T10:50:52Z</time>
      </trkpt>
      <trkpt lat="45.9378" lon="4.77907">
        <ele>166</ele>
        <time>2018-06-09T10:50:53Z</time>
      </trkpt>
      <trkpt lat="45.93775" lon="4.77902">
        <ele>166</ele>
        <time>2018-06-09T10:50:54Z</time>
      </trkpt>
      <trkpt lat="45.9377" lon="4.77897">
        <ele>166</ele>
        <time>2018-06-09T10:50:55Z</time>
      </trkpt>
      <trkpt lat="45.93766" lon="4.77892">
        <ele>166</ele>
        <time>2018-06-09T10:50:56Z</time>
      </trkpt>
      <trkpt lat="45.93762" lon="4.77886">
        <ele>166</ele>
        <time>2018-06-09T10:50:57Z</time>
      </trkpt>
      <trkpt lat="45.93759" lon="4.77882">
        <ele>166</ele>
        <time>2018-06-09T10:50:58Z</time>
      </trkpt>
      <trkpt lat="45.93755" lon="4.77876">
        <ele>166</ele>
        <time>2018-06-09T10:50:59Z</time>
      </trkpt>
      <trkpt lat="45.93752" lon="4.7787">
        <ele>166</ele>
        <time>2018-06-09T10:51:00Z</time>
      </trkpt>
      <trkpt lat="45.93749" lon="4.77864">
        <ele>167</ele>
        <time>2018-06-09T10:51:01Z</time>
      </trkpt>
      <trkpt lat="45.93746" lon="4.77859">
        <ele>167</ele>
        <time>2018-06-09T10:51:02Z</time>
      </trkpt>
      <trkpt lat="45.93742" lon="4.77852">
        <ele>167</ele>
        <time>2018-06-09T10:51:03Z</time>
      </trkpt>
      <trkpt lat="45.93737" lon="4.77847">
        <ele>167</ele>
        <time>2018-06-09T10:51:04Z</time>
      </trkpt>
      <trkpt lat="45.93733" lon="4.7784">
        <ele>167</ele>
        <time>2018-06-09T10:51:05Z</time>
      </trkpt>
      <trkpt lat="45.93729" lon="4.77834">
        <ele>167</ele>
        <time>2018-06-09T10:51:06Z</time>
      </trkpt>
      <trkpt lat="45.93726" lon="4.77828">
        <ele>168</ele>
        <time>2018-06-09T10:51:07Z</time>
      </trkpt>
      <trkpt lat="45.93721" lon="4.77822">
        <ele>168</ele>
        <time>2018-06-09T10:51:08Z</time>
      </trkpt>
      <trkpt lat="45.93717" lon="4.77816">
        <ele>169</ele>
        <time>2018-06-09T10:51:09Z</time>
      </trkpt>
      <trkpt lat="45.93713" lon="4.77809">
        <ele>169</ele>
        <time>2018-06-09T10:51:10Z</time>
      </trkpt>
      <trkpt lat="45.93707" lon="4.77804">
        <ele>169</ele>
        <time>2018-06-09T10:51:11Z</time>
      </trkpt>
      <trkpt lat="45.93702" lon="4.77797">
        <ele>169</ele>
        <time>2018-06-09T10:51:12Z</time>
      </trkpt>
      <trkpt lat="45.93698" lon="4.7779">
        <ele>169</ele>
        <time>2018-06-09T10:51:13Z</time>
      </trkpt>
      <trkpt lat="45.93693" lon="4.77784">
        <ele>170</ele>
        <time>2018-06-09T10:51:14Z</time>
      </trkpt>
      <trkpt lat="45.93687" lon="4.77777">
        <ele>170</ele>
        <time>2018-06-09T10:51:15Z</time>
      </trkpt>
      <trkpt lat="45.93684" lon="4.77771">
        <ele>170</ele>
        <time>2018-06-09T10:51:16Z</time>
      </trkpt>
      <trkpt lat="45.93679" lon="4.77764">
        <ele>170</ele>
        <time>2018-06-09T10:51:17Z</time>
      </trkpt>
      <trkpt lat="45.9367" lon="4.77758">
        <ele>171</ele>
        <time>2018-06-09T10:51:18Z</time>
      </trkpt>
      <trkpt lat="45.93665" lon="4.77751">
        <ele>171</ele>
        <time>2018-06-09T10:51:19Z</time>
      </trkpt>
      <trkpt lat="45.9366" lon="4.77743">
        <ele>170</ele>
        <time>2018-06-09T10:51:20Z</time>
      </trkpt>
      <trkpt lat="45.93655" lon="4.77733">
        <ele>170</ele>
        <time>2018-06-09T10:51:21Z</time>
      </trkpt>
      <trkpt lat="45.9365" lon="4.77726">
        <ele>170</ele>
        <time>2018-06-09T10:51:22Z</time>
      </trkpt>
      <trkpt lat="45.93646" lon="4.77717">
        <ele>170</ele>
        <time>2018-06-09T10:51:23Z</time>
      </trkpt>
      <trkpt lat="45.9364" lon="4.77708">
        <ele>170</ele>
        <time>2018-06-09T10:51:24Z</time>
      </trkpt>
      <trkpt lat="45.93635" lon="4.77698">
        <ele>169</ele>
        <time>2018-06-09T10:51:25Z</time>
      </trkpt>
      <trkpt lat="45.93629" lon="4.77688">
        <ele>169</ele>
        <time>2018-06-09T10:51:26Z</time>
      </trkpt>
      <trkpt lat="45.93624" lon="4.77677">
        <ele>169</ele>
        <time>2018-06-09T10:51:27Z</time>
      </trkpt>
      <trkpt lat="45.9362" lon="4.77669">
        <ele>169</ele>
        <time>2018-06-09T10:51:28Z</time>
      </trkpt>
      <trkpt lat="45.93615" lon="4.77659">
        <ele>169</ele>
        <time>2018-06-09T10:51:29Z</time>
      </trkpt>
      <trkpt lat="45.9361" lon="4.77649">
        <ele>169</ele>
        <time>2018-06-09T10:51:30Z</time>
      </trkpt>
      <trkpt lat="45.93606" lon="4.77639">
        <ele>169</ele>
        <time>2018-06-09T10:51:31Z</time>
      </trkpt>
      <trkpt lat="45.93603" lon="4.77629">
        <ele>169</ele>
        <time>2018-06-09T10:51:32Z</time>
      </trkpt>
      <trkpt lat="45.93599" lon="4.77619">
        <ele>170</ele>
        <time>2018-06-09T10:51:33Z</time>
      </trkpt>
      <trkpt lat="45.93596" lon="4.7761">
        <ele>170</ele>
        <time>2018-06-09T10:51:34Z</time>
      </trkpt>
      <trkpt lat="45.93594" lon="4.77601">
        <ele>170</ele>
        <time>2018-06-09T10:51:35Z</time>
      </trkpt>
      <trkpt lat="45.93591" lon="4.77592">
        <ele>170</ele>
        <time>2018-06-09T10:51:36Z</time>
      </trkpt>
      <trkpt lat="45.93589" lon="4.77582">
        <ele>170</ele>
        <time>2018-06-09T10:51:37Z</time>
      </trkpt>
      <trkpt lat="45.93586" lon="4.77574">
        <ele>170</ele>
        <time>2018-06-09T10:51:38Z</time>
      </trkpt>
      <trkpt lat="45.93585" lon="4.77566">
        <ele>170</ele>
        <time>2018-06-09T10:51:39Z</time>
      </trkpt>
      <trkpt lat="45.93582" lon="4.77558">
        <ele>169</ele>
        <time>2018-06-09T10:51:40Z</time>
      </trkpt>
      <trkpt lat="45.93579" lon="4.7755">
        <ele>169</ele>
        <time>2018-06-09T10:51:41Z</time>
      </trkpt>
      <trkpt lat="45.93576" lon="4.77541">
        <ele>169</ele>
        <time>2018-06-09T10:51:42Z</time>
      </trkpt>
      <trkpt lat="45.93574" lon="4.77534">
        <ele>169</ele>
        <time>2018-06-09T10:51:43Z</time>
      </trkpt>
      <trkpt lat="45.93572" lon="4.77526">
        <ele>169</ele>
        <time>2018-06-09T10:51:44Z</time>
      </trkpt>
      <trkpt lat="45.93569" lon="4.77517">
        <ele>169</ele>
        <time>2018-06-09T10:51:45Z</time>
      </trkpt>
      <trkpt lat="45.93567" lon="4.77509">
        <ele>169</ele>
        <time>2018-06-09T10:51:46Z</time>
      </trkpt>
      <trkpt lat="45.93563" lon="4.775">
        <ele>169</ele>
        <time>2018-06-09T10:51:47Z</time>
      </trkpt>
      <trkpt lat="45.93561" lon="4.77492">
        <ele>169</ele>
        <time>2018-06-09T10:51:48Z</time>
      </trkpt>
      <trkpt lat="45.93559" lon="4.77483">
        <ele>169</ele>
        <time>2018-06-09T10:51:49Z</time>
      </trkpt>
      <trkpt lat="45.93559" lon="4.77474">
        <ele>169</ele>
        <time>2018-06-09T10:51:50Z</time>
      </trkpt>
      <trkpt lat="45.93556" lon="4.77465">
        <ele>169</ele>
        <time>2018-06-09T10:51:51Z</time>
      </trkpt>
      <trkpt lat="45.93555" lon="4.77455">
        <ele>169</ele>
        <time>2018-06-09T10:51:52Z</time>
      </trkpt>
      <trkpt lat="45.93553" lon="4.77446">
        <ele>169</ele>
        <time>2018-06-09T10:51:53Z</time>
      </trkpt>
      <trkpt lat="45.9355" lon="4.77437">
        <ele>169</ele>
        <time>2018-06-09T10:51:54Z</time>
      </trkpt>
      <trkpt lat="45.93549" lon="4.77429">
        <ele>169</ele>
        <time>2018-06-09T10:51:55Z</time>
      </trkpt>
      <trkpt lat="45.93547" lon="4.7742">
        <ele>170</ele>
        <time>2018-06-09T10:51:56Z</time>
      </trkpt>
      <trkpt lat="45.93545" lon="4.77411">
        <ele>170</ele>
        <time>2018-06-09T10:51:57Z</time>
      </trkpt>
      <trkpt lat="45.93542" lon="4.77402">
        <ele>170</ele>
        <time>2018-06-09T10:51:58Z</time>
      </trkpt>
      <trkpt lat="45.9354" lon="4.77392">
        <ele>170</ele>
        <time>2018-06-09T10:51:59Z</time>
      </trkpt>
      <trkpt lat="45.93538" lon="4.77383">
        <ele>170</ele>
        <time>2018-06-09T10:52:00Z</time>
      </trkpt>
      <trkpt lat="45.93536" lon="4.77373">
        <ele>170</ele>
        <time>2018-06-09T10:52:01Z</time>
      </trkpt>
      <trkpt lat="45.93534" lon="4.77364">
        <ele>170</ele>
        <time>2018-06-09T10:52:02Z</time>
      </trkpt>
      <trkpt lat="45.93532" lon="4.77355">
        <ele>170</ele>
        <time>2018-06-09T10:52:03Z</time>
      </trkpt>
      <trkpt lat="45.9353" lon="4.77346">
        <ele>170</ele>
        <time>2018-06-09T10:52:04Z</time>
      </trkpt>
      <trkpt lat="45.93528" lon="4.77335">
        <ele>170</ele>
        <time>2018-06-09T10:52:05Z</time>
      </trkpt>
      <trkpt lat="45.93526" lon="4.77327">
        <ele>170</ele>
        <time>2018-06-09T10:52:06Z</time>
      </trkpt>
      <trkpt lat="45.93523" lon="4.77318">
        <ele>170</ele>
        <time>2018-06-09T10:52:07Z</time>
      </trkpt>
      <trkpt lat="45.93521" lon="4.77309">
        <ele>170</ele>
        <time>2018-06-09T10:52:08Z</time>
      </trkpt>
      <trkpt lat="45.93519" lon="4.773">
        <ele>170</ele>
        <time>2018-06-09T10:52:09Z</time>
      </trkpt>
      <trkpt lat="45.93518" lon="4.77291">
        <ele>170</ele>
        <time>2018-06-09T10:52:10Z</time>
      </trkpt>
      <trkpt lat="45.93515" lon="4.77283">
        <ele>170</ele>
        <time>2018-06-09T10:52:11Z</time>
      </trkpt>
      <trkpt lat="45.93513" lon="4.77274">
        <ele>170</ele>
        <time>2018-06-09T10:52:12Z</time>
      </trkpt>
      <trkpt lat="45.93512" lon="4.77265">
        <ele>170</ele>
        <time>2018-06-09T10:52:13Z</time>
      </trkpt>
      <trkpt lat="45.93511" lon="4.77257">
        <ele>170</ele>
        <time>2018-06-09T10:52:14Z</time>
      </trkpt>
      <trkpt lat="45.93509" lon="4.77248">
        <ele>170</ele>
        <time>2018-06-09T10:52:15Z</time>
      </trkpt>
      <trkpt lat="45.93507" lon="4.77238">
        <ele>169</ele>
        <time>2018-06-09T10:52:16Z</time>
      </trkpt>
      <trkpt lat="45.93506" lon="4.77228">
        <ele>169</ele>
        <time>2018-06-09T10:52:17Z</time>
      </trkpt>
      <trkpt lat="45.93504" lon="4.77218">
        <ele>169</ele>
        <time>2018-06-09T10:52:18Z</time>
      </trkpt>
      <trkpt lat="45.93501" lon="4.7721">
        <ele>169</ele>
        <time>2018-06-09T10:52:19Z</time>
      </trkpt>
      <trkpt lat="45.93499" lon="4.77201">
        <ele>169</ele>
        <time>2018-06-09T10:52:20Z</time>
      </trkpt>
      <trkpt lat="45.93498" lon="4.77192">
        <ele>169</ele>
        <time>2018-06-09T10:52:21Z</time>
      </trkpt>
      <trkpt lat="45.93495" lon="4.77182">
        <ele>169</ele>
        <time>2018-06-09T10:52:22Z</time>
      </trkpt>
      <trkpt lat="45.93494" lon="4.77174">
        <ele>169</ele>
        <time>2018-06-09T10:52:23Z</time>
      </trkpt>
      <trkpt lat="45.93492" lon="4.77163">
        <ele>169</ele>
        <time>2018-06-09T10:52:24Z</time>
      </trkpt>
      <trkpt lat="45.9349" lon="4.77154">
        <ele>169</ele>
        <time>2018-06-09T10:52:25Z</time>
      </trkpt>
      <trkpt lat="45.93488" lon="4.77145">
        <ele>169</ele>
        <time>2018-06-09T10:52:26Z</time>
      </trkpt>
      <trkpt lat="45.93487" lon="4.77135">
        <ele>169</ele>
        <time>2018-06-09T10:52:27Z</time>
      </trkpt>
      <trkpt lat="45.93485" lon="4.77125">
        <ele>169</ele>
        <time>2018-06-09T10:52:28Z</time>
      </trkpt>
      <trkpt lat="45.93483" lon="4.77116">
        <ele>169</ele>
        <time>2018-06-09T10:52:29Z</time>
      </trkpt>
      <trkpt lat="45.93481" lon="4.77108">
        <ele>169</ele>
        <time>2018-06-09T10:52:30Z</time>
      </trkpt>
      <trkpt lat="45.93479" lon="4.77099">
        <ele>169</ele>
        <time>2018-06-09T10:52:31Z</time>
      </trkpt>
      <trkpt lat="45.93477" lon="4.7709">
        <ele>169</ele>
        <time>2018-06-09T10:52:32Z</time>
      </trkpt>
      <trkpt lat="45.93476" lon="4.77081">
        <ele>170</ele>
        <time>2018-06-09T10:52:33Z</time>
      </trkpt>
      <trkpt lat="45.93474" lon="4.77071">
        <ele>170</ele>
        <time>2018-06-09T10:52:34Z</time>
      </trkpt>
      <trkpt lat="45.93473" lon="4.77062">
        <ele>170</ele>
        <time>2018-06-09T10:52:35Z</time>
      </trkpt>
      <trkpt lat="45.93471" lon="4.77054">
        <ele>170</ele>
        <time>2018-06-09T10:52:36Z</time>
      </trkpt>
      <trkpt lat="45.93471" lon="4.77045">
        <ele>170</ele>
        <time>2018-06-09T10:52:37Z</time>
      </trkpt>
      <trkpt lat="45.93471" lon="4.77036">
        <ele>170</ele>
        <time>2018-06-09T10:52:38Z</time>
      </trkpt>
      <trkpt lat="45.93468" lon="4.77026">
        <ele>170</ele>
        <time>2018-06-09T10:52:39Z</time>
      </trkpt>
      <trkpt lat="45.93466" lon="4.77016">
        <ele>170</ele>
        <time>2018-06-09T10:52:40Z</time>
      </trkpt>
      <trkpt lat="45.93465" lon="4.77007">
        <ele>170</ele>
        <time>2018-06-09T10:52:41Z</time>
      </trkpt>
      <trkpt lat="45.93463" lon="4.76996">
        <ele>170</ele>
        <time>2018-06-09T10:52:42Z</time>
      </trkpt>
      <trkpt lat="45.93461" lon="4.76987">
        <ele>170</ele>
        <time>2018-06-09T10:52:43Z</time>
      </trkpt>
      <trkpt lat="45.9346" lon="4.76978">
        <ele>170</ele>
        <time>2018-06-09T10:52:44Z</time>
      </trkpt>
      <trkpt lat="45.93459" lon="4.76969">
        <ele>170</ele>
        <time>2018-06-09T10:52:45Z</time>
      </trkpt>
      <trkpt lat="45.93457" lon="4.76959">
        <ele>170</ele>
        <time>2018-06-09T10:52:46Z</time>
      </trkpt>
      <trkpt lat="45.93454" lon="4.7695">
        <ele>170</ele>
        <time>2018-06-09T10:52:47Z</time>
      </trkpt>
      <trkpt lat="45.93451" lon="4.76941">
        <ele>170</ele>
        <time>2018-06-09T10:52:48Z</time>
      </trkpt>
      <trkpt lat="45.93449" lon="4.76931">
        <ele>170</ele>
        <time>2018-06-09T10:52:49Z</time>
      </trkpt>
      <trkpt lat="45.93447" lon="4.76922">
        <ele>170</ele>
        <time>2018-06-09T10:52:50Z</time>
      </trkpt>
      <trkpt lat="45.93446" lon="4.76912">
        <ele>170</ele>
        <time>2018-06-09T10:52:51Z</time>
      </trkpt>
      <trkpt lat="45.93442" lon="4.76902">
        <ele>170</ele>
        <time>2018-06-09T10:52:52Z</time>
      </trkpt>
      <trkpt lat="45.93439" lon="4.76894">
        <ele>170</ele>
        <time>2018-06-09T10:52:53Z</time>
      </trkpt>
      <trkpt lat="45.93436" lon="4.76886">
        <ele>171</ele>
        <time>2018-06-09T10:52:54Z</time>
      </trkpt>
      <trkpt lat="45.93434" lon="4.76878">
        <ele>171</ele>
        <time>2018-06-09T10:52:55Z</time>
      </trkpt>
      <trkpt lat="45.93433" lon="4.7687">
        <ele>171</ele>
        <time>2018-06-09T10:52:56Z</time>
      </trkpt>
      <trkpt lat="45.93431" lon="4.76862">
        <ele>171</ele>
        <time>2018-06-09T10:52:57Z</time>
      </trkpt>
      <trkpt lat="45.93429" lon="4.76854">
        <ele>171</ele>
        <time>2018-06-09T10:52:58Z</time>
      </trkpt>
      <trkpt lat="45.93425" lon="4.76847">
        <ele>171</ele>
        <time>2018-06-09T10:52:59Z</time>
      </trkpt>
      <trkpt lat="45.93419" lon="4.76842">
        <ele>171</ele>
        <time>2018-06-09T10:53:00Z</time>
      </trkpt>
      <trkpt lat="45.93414" lon="4.76833">
        <ele>172</ele>
        <time>2018-06-09T10:53:01Z</time>
      </trkpt>
      <trkpt lat="45.9341" lon="4.76826">
        <ele>172</ele>
        <time>2018-06-09T10:53:02Z</time>
      </trkpt>
      <trkpt lat="45.9341" lon="4.76819">
        <ele>172</ele>
        <time>2018-06-09T10:53:03Z</time>
      </trkpt>
      <trkpt lat="45.93406" lon="4.76812">
        <ele>172</ele>
        <time>2018-06-09T10:53:04Z</time>
      </trkpt>
      <trkpt lat="45.934" lon="4.76808">
        <ele>172</ele>
        <time>2018-06-09T10:53:05Z</time>
      </trkpt>
      <trkpt lat="45.93395" lon="4.76802">
        <ele>172</ele>
        <time>2018-06-09T10:53:06Z</time>
      </trkpt>
      <trkpt lat="45.9339" lon="4.76795">
        <ele>172</ele>
        <time>2018-06-09T10:53:07Z</time>
      </trkpt>
      <trkpt lat="45.93385" lon="4.7679">
        <ele>172</ele>
        <time>2018-06-09T10:53:08Z</time>
      </trkpt>
      <trkpt lat="45.9338" lon="4.76784">
        <ele>172</ele>
        <time>2018-06-09T10:53:09Z</time>
      </trkpt>
      <trkpt lat="45.93375" lon="4.76779">
        <ele>172</ele>
        <time>2018-06-09T10:53:10Z</time>
      </trkpt>
      <trkpt lat="45.93369" lon="4.76774">
        <ele>172</ele>
        <time>2018-06-09T10:53:11Z</time>
      </trkpt>
      <trkpt lat="45.93363" lon="4.76768">
        <ele>172</ele>
        <time>2018-06-09T10:53:12Z</time>
      </trkpt>
      <trkpt lat="45.93359" lon="4.76763">
        <ele>172</ele>
        <time>2018-06-09T10:53:13Z</time>
      </trkpt>
      <trkpt lat="45.93354" lon="4.76758">
        <ele>172</ele>
        <time>2018-06-09T10:53:14Z</time>
      </trkpt>
      <trkpt lat="45.93349" lon="4.76753">
        <ele>172</ele>
        <time>2018-06-09T10:53:15Z</time>
      </trkpt>
      <trkpt lat="45.93344" lon="4.7675">
        <ele>173</ele>
        <time>2018-06-09T10:53:16Z</time>
      </trkpt>
      <trkpt lat="45.93339" lon="4.76745">
        <ele>173</ele>
        <time>2018-06-09T10:53:17Z</time>
      </trkpt>
      <trkpt lat="45.93335" lon="4.7674">
        <ele>173</ele>
        <time>2018-06-09T10:53:18Z</time>
      </trkpt>
      <trkpt lat="45.93331" lon="4.76735">
        <ele>172</ele>
        <time>2018-06-09T10:53:19Z</time>
      </trkpt>
      <trkpt lat="45.93326" lon="4.7673">
        <ele>172</ele>
        <time>2018-06-09T10:53:20Z</time>
      </trkpt>
      <trkpt lat="45.93322" lon="4.76724">
        <ele>172</ele>
        <time>2018-06-09T10:53:21Z</time>
      </trkpt>
      <trkpt lat="45.93317" lon="4.7672">
        <ele>172</ele>
        <time>2018-06-09T10:53:22Z</time>
      </trkpt>
      <trkpt lat="45.93313" lon="4.76715">
        <ele>172</ele>
        <time>2018-06-09T10:53:23Z</time>
      </trkpt>
      <trkpt lat="45.93308" lon="4.7671">
        <ele>172</ele>
        <time>2018-06-09T10:53:24Z</time>
      </trkpt>
      <trkpt lat="45.93303" lon="4.76705">
        <ele>172</ele>
        <time>2018-06-09T10:53:25Z</time>
      </trkpt>
      <trkpt lat="45.93298" lon="4.767">
        <ele>172</ele>
        <time>2018-06-09T10:53:26Z</time>
      </trkpt>
      <trkpt lat="45.93294" lon="4.76695">
        <ele>172</ele>
        <time>2018-06-09T10:53:27Z</time>
      </trkpt>
      <trkpt lat="45.93289" lon="4.76691">
        <ele>172</ele>
        <time>2018-06-09T10:53:28Z</time>
      </trkpt>
      <trkpt lat="45.93286" lon="4.76686">
        <ele>172</ele>
        <time>2018-06-09T10:53:29Z</time>
      </trkpt>
      <trkpt lat="45.93282" lon="4.76681">
        <ele>172</ele>
        <time>2018-06-09T10:53:30Z</time>
      </trkpt>
      <trkpt lat="45.93278" lon="4.76677">
        <ele>172</ele>
        <time>2018-06-09T10:53:31Z</time>
      </trkpt>
      <trkpt lat="45.93274" lon="4.76671">
        <ele>172</ele>
        <time>2018-06-09T10:53:32Z</time>
      </trkpt>
      <trkpt lat="45.93269" lon="4.76669">
        <ele>172</ele>
        <time>2018-06-09T10:53:33Z</time>
      </trkpt>
      <trkpt lat="45.93265" lon="4.76664">
        <ele>171</ele>
        <time>2018-06-09T10:53:34Z</time>
      </trkpt>
      <trkpt lat="45.93261" lon="4.76663">
        <ele>171</ele>
        <time>2018-06-09T10:53:35Z</time>
      </trkpt>
      <trkpt lat="45.93256" lon="4.76658">
        <ele>171</ele>
        <time>2018-06-09T10:53:36Z</time>
      </trkpt>
      <trkpt lat="45.9325" lon="4.76653">
        <ele>171</ele>
        <time>2018-06-09T10:53:37Z</time>
      </trkpt>
      <trkpt lat="45.93245" lon="4.76647">
        <ele>171</ele>
        <time>2018-06-09T10:53:38Z</time>
      </trkpt>
      <trkpt lat="45.93239" lon="4.76642">
        <ele>171</ele>
        <time>2018-06-09T10:53:39Z</time>
      </trkpt>
      <trkpt lat="45.93234" lon="4.76636">
        <ele>171</ele>
        <time>2018-06-09T10:53:40Z</time>
      </trkpt>
      <trkpt lat="45.9323" lon="4.76631">
        <ele>170</ele>
        <time>2018-06-09T10:53:41Z</time>
      </trkpt>
      <trkpt lat="45.93226" lon="4.76628">
        <ele>170</ele>
        <time>2018-06-09T10:53:42Z</time>
      </trkpt>
      <trkpt lat="45.93219" lon="4.76624">
        <ele>170</ele>
        <time>2018-06-09T10:53:43Z</time>
      </trkpt>
      <trkpt lat="45.93212" lon="4.76618">
        <ele>170</ele>
        <time>2018-06-09T10:53:44Z</time>
      </trkpt>
      <trkpt lat="45.93207" lon="4.76613">
        <ele>170</ele>
        <time>2018-06-09T10:53:45Z</time>
      </trkpt>
      <trkpt lat="45.93201" lon="4.76606">
        <ele>170</ele>
        <time>2018-06-09T10:53:46Z</time>
      </trkpt>
      <trkpt lat="45.93197" lon="4.76601">
        <ele>170</ele>
        <time>2018-06-09T10:53:47Z</time>
      </trkpt>
      <trkpt lat="45.93192" lon="4.76596">
        <ele>170</ele>
        <time>2018-06-09T10:53:48Z</time>
      </trkpt>
      <trkpt lat="45.93187" lon="4.76589">
        <ele>171</ele>
        <time>2018-06-09T10:53:49Z</time>
      </trkpt>
      <trkpt lat="45.93184" lon="4.76585">
        <ele>171</ele>
        <time>2018-06-09T10:53:50Z</time>
      </trkpt>
      <trkpt lat="45.93177" lon="4.76578">
        <ele>170</ele>
        <time>2018-06-09T10:53:51Z</time>
      </trkpt>
      <trkpt lat="45.93172" lon="4.76573">
        <ele>170</ele>
        <time>2018-06-09T10:53:52Z</time>
      </trkpt>
      <trkpt lat="45.93164" lon="4.76567">
        <ele>170</ele>
        <time>2018-06-09T10:53:53Z</time>
      </trkpt>
      <trkpt lat="45.93159" lon="4.76562">
        <ele>170</ele>
        <time>2018-06-09T10:53:54Z</time>
      </trkpt>
      <trkpt lat="45.93154" lon="4.76557">
        <ele>170</ele>
        <time>2018-06-09T10:53:55Z</time>
      </trkpt>
      <trkpt lat="45.9315" lon="4.76551">
        <ele>170</ele>
        <time>2018-06-09T10:53:56Z</time>
      </trkpt>
      <trkpt lat="45.93145" lon="4.76546">
        <ele>170</ele>
        <time>2018-06-09T10:53:57Z</time>
      </trkpt>
      <trkpt lat="45.9314" lon="4.76541">
        <ele>170</ele>
        <time>2018-06-09T10:53:58Z</time>
      </trkpt>
      <trkpt lat="45.93135" lon="4.76536">
        <ele>170</ele>
        <time>2018-06-09T10:53:59Z</time>
      </trkpt>
      <trkpt lat="45.9313" lon="4.76531">
        <ele>170</ele>
        <time>2018-06-09T10:54:00Z</time>
      </trkpt>
      <trkpt lat="45.93125" lon="4.76525">
        <ele>170</ele>
        <time>2018-06-09T10:54:01Z</time>
      </trkpt>
      <trkpt lat="45.9312" lon="4.7652">
        <ele>170</ele>
        <time>2018-06-09T10:54:02Z</time>
      </trkpt>
      <trkpt lat="45.93115" lon="4.76515">
        <ele>170</ele>
        <time>2018-06-09T10:54:03Z</time>
      </trkpt>
      <trkpt lat="45.93111" lon="4.7651">
        <ele>170</ele>
        <time>2018-06-09T10:54:04Z</time>
      </trkpt>
      <trkpt lat="45.93106" lon="4.76504">
        <ele>170</ele>
        <time>2018-06-09T10:54:05Z</time>
      </trkpt>
      <trkpt lat="45.93102" lon="4.765">
        <ele>169</ele>
        <time>2018-06-09T10:54:06Z</time>
      </trkpt>
      <trkpt lat="45.93098" lon="4.76495">
        <ele>170</ele>
        <time>2018-06-09T10:54:07Z</time>
      </trkpt>
      <trkpt lat="45.93092" lon="4.76491">
        <ele>170</ele>
        <time>2018-06-09T10:54:08Z</time>
      </trkpt>
      <trkpt lat="45.93087" lon="4.76487">
        <ele>170</ele>
        <time>2018-06-09T10:54:09Z</time>
      </trkpt>
      <trkpt lat="45.93083" lon="4.76482">
        <ele>169</ele>
        <time>2018-06-09T10:54:10Z</time>
      </trkpt>
      <trkpt lat="45.93076" lon="4.76476">
        <ele>169</ele>
        <time>2018-06-09T10:54:11Z</time>
      </trkpt>
      <trkpt lat="45.93072" lon="4.76471">
        <ele>169</ele>
        <time>2018-06-09T10:54:12Z</time>
      </trkpt>
      <trkpt lat="45.93068" lon="4.76465">
        <ele>169</ele>
        <time>2018-06-09T10:54:13Z</time>
      </trkpt>
      <trkpt lat="45.93063" lon="4.7646">
        <ele>169</ele>
        <time>2018-06-09T10:54:14Z</time>
      </trkpt>
      <trkpt lat="45.93058" lon="4.76455">
        <ele>169</ele>
        <time>2018-06-09T10:54:15Z</time>
      </trkpt>
      <trkpt lat="45.93052" lon="4.7645">
        <ele>169</ele>
        <time>2018-06-09T10:54:16Z</time>
      </trkpt>
      <trkpt lat="45.93046" lon="4.76445">
        <ele>169</ele>
        <time>2018-06-09T10:54:17Z</time>
      </trkpt>
      <trkpt lat="45.9304" lon="4.76442">
        <ele>169</ele>
        <time>2018-06-09T10:54:18Z</time>
      </trkpt>
      <trkpt lat="45.93035" lon="4.76438">
        <ele>169</ele>
        <time>2018-06-09T10:54:19Z</time>
      </trkpt>
      <trkpt lat="45.93031" lon="4.76434">
        <ele>169</ele>
        <time>2018-06-09T10:54:20Z</time>
      </trkpt>
      <trkpt lat="45.93026" lon="4.76429">
        <ele>169</ele>
        <time>2018-06-09T10:54:21Z</time>
      </trkpt>
      <trkpt lat="45.93023" lon="4.76425">
        <ele>169</ele>
        <time>2018-06-09T10:54:22Z</time>
      </trkpt>
      <trkpt lat="45.93017" lon="4.7642">
        <ele>169</ele>
        <time>2018-06-09T10:54:23Z</time>
      </trkpt>
      <trkpt lat="45.93011" lon="4.76416">
        <ele>169</ele>
        <time>2018-06-09T10:54:24Z</time>
      </trkpt>
      <trkpt lat="45.93007" lon="4.76412">
        <ele>169</ele>
        <time>2018-06-09T10:54:25Z</time>
      </trkpt>
      <trkpt lat="45.93002" lon="4.76408">
        <ele>169</ele>
        <time>2018-06-09T10:54:26Z</time>
      </trkpt>
      <trkpt lat="45.92997" lon="4.76397">
        <ele>169</ele>
        <time>2018-06-09T10:54:28Z</time>
      </trkpt>
      <trkpt lat="45.92992" lon="4.76393">
        <ele>169</ele>
        <time>2018-06-09T10:54:29Z</time>
      </trkpt>
      <trkpt lat="45.92986" lon="4.76388">
        <ele>169</ele>
        <time>2018-06-09T10:54:30Z</time>
      </trkpt>
      <trkpt lat="45.92979" lon="4.76383">
        <ele>169</ele>
        <time>2018-06-09T10:54:31Z</time>
      </trkpt>
      <trkpt lat="45.92974" lon="4.76378">
        <ele>169</ele>
        <time>2018-06-09T10:54:32Z</time>
      </trkpt>
      <trkpt lat="45.92972" lon="4.76374">
        <ele>169</ele>
        <time>2018-06-09T10:54:33Z</time>
      </trkpt>
      <trkpt lat="45.92968" lon="4.7637">
        <ele>169</ele>
        <time>2018-06-09T10:54:34Z</time>
      </trkpt>
      <trkpt lat="45.92964" lon="4.76365">
        <ele>169</ele>
        <time>2018-06-09T10:54:35Z</time>
      </trkpt>
      <trkpt lat="45.92957" lon="4.7636">
        <ele>169</ele>
        <time>2018-06-09T10:54:36Z</time>
      </trkpt>
      <trkpt lat="45.92952" lon="4.76356">
        <ele>169</ele>
        <time>2018-06-09T10:54:37Z</time>
      </trkpt>
      <trkpt lat="45.92948" lon="4.76352">
        <ele>169</ele>
        <time>2018-06-09T10:54:38Z</time>
      </trkpt>
      <trkpt lat="45.92943" lon="4.76347">
        <ele>169</ele>
        <time>2018-06-09T10:54:39Z</time>
      </trkpt>
      <trkpt lat="45.92937" lon="4.76341">
        <ele>169</ele>
        <time>2018-06-09T10:54:40Z</time>
      </trkpt>
      <trkpt lat="45.92933" lon="4.76337">
        <ele>169</ele>
        <time>2018-06-09T10:54:41Z</time>
      </trkpt>
      <trkpt lat="45.92929" lon="4.76332">
        <ele>169</ele>
        <time>2018-06-09T10:54:42Z</time>
      </trkpt>
      <trkpt lat="45.92925" lon="4.76327">
        <ele>169</ele>
        <time>2018-06-09T10:54:43Z</time>
      </trkpt>
      <trkpt lat="45.92921" lon="4.76323">
        <ele>169</ele>
        <time>2018-06-09T10:54:44Z</time>
      </trkpt>
      <trkpt lat="45.92916" lon="4.76319">
        <ele>169</ele>
        <time>2018-06-09T10:54:45Z</time>
      </trkpt>
      <trkpt lat="45.92912" lon="4.76314">
        <ele>169</ele>
        <time>2018-06-09T10:54:46Z</time>
      </trkpt>
      <trkpt lat="45.92909" lon="4.7631">
        <ele>169</ele>
        <time>2018-06-09T10:54:47Z</time>
      </trkpt>
      <trkpt lat="45.92903" lon="4.76306">
        <ele>169</ele>
        <time>2018-06-09T10:54:48Z</time>
      </trkpt>
      <trkpt lat="45.929" lon="4.76302">
        <ele>169</ele>
        <time>2018-06-09T10:54:49Z</time>
      </trkpt>
      <trkpt lat="45.92895" lon="4.76296">
        <ele>169</ele>
        <time>2018-06-09T10:54:50Z</time>
      </trkpt>
      <trkpt lat="45.9289" lon="4.7629">
        <ele>169</ele>
        <time>2018-06-09T10:54:51Z</time>
      </trkpt>
      <trkpt lat="45.92886" lon="4.76286">
        <ele>169</ele>
        <time>2018-06-09T10:54:52Z</time>
      </trkpt>
      <trkpt lat="45.92881" lon="4.76282">
        <ele>169</ele>
        <time>2018-06-09T10:54:53Z</time>
      </trkpt>
      <trkpt lat="45.92878" lon="4.76278">
        <ele>169</ele>
        <time>2018-06-09T10:54:54Z</time>
      </trkpt>
      <trkpt lat="45.92873" lon="4.76274">
        <ele>169</ele>
        <time>2018-06-09T10:54:55Z</time>
      </trkpt>
      <trkpt lat="45.92869" lon="4.76268">
        <ele>169</ele>
        <time>2018-06-09T10:54:56Z</time>
      </trkpt>
      <trkpt lat="45.92864" lon="4.76264">
        <ele>169</ele>
        <time>2018-06-09T10:54:57Z</time>
      </trkpt>
      <trkpt lat="45.9286" lon="4.76259">
        <ele>169</ele>
        <time>2018-06-09T10:54:58Z</time>
      </trkpt>
      <trkpt lat="45.92857" lon="4.76255">
        <ele>169</ele>
        <time>2018-06-09T10:54:59Z</time>
      </trkpt>
      <trkpt lat="45.92853" lon="4.7625">
        <ele>169</ele>
        <time>2018-06-09T10:55:00Z</time>
      </trkpt>
      <trkpt lat="45.92849" lon="4.76245">
        <ele>169</ele>
        <time>2018-06-09T10:55:01Z</time>
      </trkpt>
      <trkpt lat="45.92843" lon="4.76241">
        <ele>169</ele>
        <time>2018-06-09T10:55:02Z</time>
      </trkpt>
      <trkpt lat="45.92837" lon="4.76237">
        <ele>169</ele>
        <time>2018-06-09T10:55:03Z</time>
      </trkpt>
      <trkpt lat="45.92832" lon="4.76233">
        <ele>168</ele>
        <time>2018-06-09T10:55:04Z</time>
      </trkpt>
      <trkpt lat="45.92827" lon="4.76228">
        <ele>168</ele>
        <time>2018-06-09T10:55:05Z</time>
      </trkpt>
      <trkpt lat="45.92822" lon="4.76224">
        <ele>168</ele>
        <time>2018-06-09T10:55:06Z</time>
      </trkpt>
      <trkpt lat="45.92817" lon="4.76218">
        <ele>168</ele>
        <time>2018-06-09T10:55:07Z</time>
      </trkpt>
      <trkpt lat="45.92812" lon="4.76213">
        <ele>168</ele>
        <time>2018-06-09T10:55:08Z</time>
      </trkpt>
      <trkpt lat="45.92808" lon="4.76207">
        <ele>168</ele>
        <time>2018-06-09T10:55:09Z</time>
      </trkpt>
      <trkpt lat="45.92802" lon="4.76203">
        <ele>168</ele>
        <time>2018-06-09T10:55:10Z</time>
      </trkpt>
      <trkpt lat="45.92797" lon="4.76197">
        <ele>168</ele>
        <time>2018-06-09T10:55:11Z</time>
      </trkpt>
      <trkpt lat="45.92792" lon="4.76192">
        <ele>168</ele>
        <time>2018-06-09T10:55:12Z</time>
      </trkpt>
      <trkpt lat="45.92786" lon="4.76187">
        <ele>168</ele>
        <time>2018-06-09T10:55:13Z</time>
      </trkpt>
      <trkpt lat="45.9278" lon="4.76183">
        <ele>168</ele>
        <time>2018-06-09T10:55:14Z</time>
      </trkpt>
      <trkpt lat="45.92776" lon="4.7618">
        <ele>167</ele>
        <time>2018-06-09T10:55:15Z</time>
      </trkpt>
      <trkpt lat="45.9277" lon="4.76178">
        <ele>167</ele>
        <time>2018-06-09T10:55:16Z</time>
      </trkpt>
      <trkpt lat="45.92766" lon="4.76172">
        <ele>167</ele>
        <time>2018-06-09T10:55:17Z</time>
      </trkpt>
      <trkpt lat="45.9276" lon="4.76167">
        <ele>167</ele>
        <time>2018-06-09T10:55:18Z</time>
      </trkpt>
      <trkpt lat="45.92754" lon="4.76161">
        <ele>167</ele>
        <time>2018-06-09T10:55:19Z</time>
      </trkpt>
      <trkpt lat="45.92748" lon="4.76157">
        <ele>167</ele>
        <time>2018-06-09T10:55:20Z</time>
      </trkpt>
      <trkpt lat="45.92743" lon="4.76152">
        <ele>168</ele>
        <time>2018-06-09T10:55:21Z</time>
      </trkpt>
      <trkpt lat="45.92738" lon="4.76147">
        <ele>168</ele>
        <time>2018-06-09T10:55:22Z</time>
      </trkpt>
      <trkpt lat="45.92733" lon="4.76143">
        <ele>168</ele>
        <time>2018-06-09T10:55:23Z</time>
      </trkpt>
      <trkpt lat="45.92728" lon="4.7614">
        <ele>168</ele>
        <time>2018-06-09T10:55:24Z</time>
      </trkpt>
      <trkpt lat="45.92721" lon="4.76135">
        <ele>168</ele>
        <time>2018-06-09T10:55:25Z</time>
      </trkpt>
      <trkpt lat="45.92716" lon="4.76131">
        <ele>168</ele>
        <time>2018-06-09T10:55:26Z</time>
      </trkpt>
      <trkpt lat="45.92712" lon="4.76128">
        <ele>168</ele>
        <time>2018-06-09T10:55:27Z</time>
      </trkpt>
      <trkpt lat="45.92706" lon="4.76125">
        <ele>169</ele>
        <time>2018-06-09T10:55:28Z</time>
      </trkpt>
      <trkpt lat="45.92701" lon="4.7612">
        <ele>169</ele>
        <time>2018-06-09T10:55:29Z</time>
      </trkpt>
      <trkpt lat="45.92696" lon="4.76117">
        <ele>169</ele>
        <time>2018-06-09T10:55:30Z</time>
      </trkpt>
      <trkpt lat="45.92692" lon="4.76113">
        <ele>169</ele>
        <time>2018-06-09T10:55:31Z</time>
      </trkpt>
      <trkpt lat="45.92688" lon="4.76109">
        <ele>169</ele>
        <time>2018-06-09T10:55:32Z</time>
      </trkpt>
      <trkpt lat="45.92683" lon="4.76106">
        <ele>169</ele>
        <time>2018-06-09T10:55:33Z</time>
      </trkpt>
      <trkpt lat="45.92677" lon="4.76102">
        <ele>169</ele>
        <time>2018-06-09T10:55:34Z</time>
      </trkpt>
      <trkpt lat="45.92673" lon="4.761">
        <ele>169</ele>
        <time>2018-06-09T10:55:35Z</time>
      </trkpt>
      <trkpt lat="45.92665" lon="4.76094">
        <ele>170</ele>
        <time>2018-06-09T10:55:37Z</time>
      </trkpt>
      <trkpt lat="45.92662" lon="4.7609">
        <ele>170</ele>
        <time>2018-06-09T10:55:38Z</time>
      </trkpt>
      <trkpt lat="45.92656" lon="4.76085">
        <ele>170</ele>
        <time>2018-06-09T10:55:40Z</time>
      </trkpt>
      <trkpt lat="45.92652" lon="4.76082">
        <ele>170</ele>
        <time>2018-06-09T10:55:41Z</time>
      </trkpt>
      <trkpt lat="45.92645" lon="4.76076">
        <ele>170</ele>
        <time>2018-06-09T10:55:43Z</time>
      </trkpt>
      <trkpt lat="45.92641" lon="4.76073">
        <ele>170</ele>
        <time>2018-06-09T10:55:44Z</time>
      </trkpt>
      <trkpt lat="45.92633" lon="4.76068">
        <ele>170</ele>
        <time>2018-06-09T10:55:46Z</time>
      </trkpt>
      <trkpt lat="45.92629" lon="4.76066">
        <ele>170</ele>
        <time>2018-06-09T10:55:47Z</time>
      </trkpt>
      <trkpt lat="45.92622" lon="4.76061">
        <ele>171</ele>
        <time>2018-06-09T10:55:49Z</time>
      </trkpt>
      <trkpt lat="45.92619" lon="4.76058">
        <ele>171</ele>
        <time>2018-06-09T10:55:50Z</time>
      </trkpt>
      <trkpt lat="45.92612" lon="4.76052">
        <ele>171</ele>
        <time>2018-06-09T10:55:52Z</time>
      </trkpt>
      <trkpt lat="45.92609" lon="4.7605">
        <ele>171</ele>
        <time>2018-06-09T10:55:53Z</time>
      </trkpt>
      <trkpt lat="45.92602" lon="4.76044">
        <ele>171</ele>
        <time>2018-06-09T10:55:55Z</time>
      </trkpt>
      <trkpt lat="45.92599" lon="4.76042">
        <ele>171</ele>
        <time>2018-06-09T10:55:56Z</time>
      </trkpt>
      <trkpt lat="45.92591" lon="4.76037">
        <ele>171</ele>
        <time>2018-06-09T10:55:58Z</time>
      </trkpt>
      <trkpt lat="45.92588" lon="4.76035">
        <ele>171</ele>
        <time>2018-06-09T10:55:59Z</time>
      </trkpt>
      <trkpt lat="45.9258" lon="4.76031">
        <ele>172</ele>
        <time>2018-06-09T10:56:01Z</time>
      </trkpt>
      <trkpt lat="45.92577" lon="4.76029">
        <ele>172</ele>
        <time>2018-06-09T10:56:02Z</time>
      </trkpt>
      <trkpt lat="45.9257" lon="4.76023">
        <ele>172</ele>
        <time>2018-06-09T10:56:04Z</time>
      </trkpt>
      <trkpt lat="45.92565" lon="4.7602">
        <ele>172</ele>
        <time>2018-06-09T10:56:05Z</time>
      </trkpt>
      <trkpt lat="45.92558" lon="4.76014">
        <ele>172</ele>
        <time>2018-06-09T10:56:07Z</time>
      </trkpt>
      <trkpt lat="45.92554" lon="4.76012">
        <ele>172</ele>
        <time>2018-06-09T10:56:08Z</time>
      </trkpt>
      <trkpt lat="45.92546" lon="4.76005">
        <ele>172</ele>
        <time>2018-06-09T10:56:10Z</time>
      </trkpt>
      <trkpt lat="45.92542" lon="4.76001">
        <ele>172</ele>
        <time>2018-06-09T10:56:11Z</time>
      </trkpt>
      <trkpt lat="45.92538" lon="4.75997">
        <ele>172</ele>
        <time>2018-06-09T10:56:12Z</time>
      </trkpt>
      <trkpt lat="45.92534" lon="4.75994">
        <ele>172</ele>
        <time>2018-06-09T10:56:13Z</time>
      </trkpt>
      <trkpt lat="45.92529" lon="4.75991">
        <ele>172</ele>
        <time>2018-06-09T10:56:14Z</time>
      </trkpt>
      <trkpt lat="45.92523" lon="4.75987">
        <ele>172</ele>
        <time>2018-06-09T10:56:15Z</time>
      </trkpt>
      <trkpt lat="45.92516" lon="4.75983">
        <ele>172</ele>
        <time>2018-06-09T10:56:17Z</time>
      </trkpt>
      <trkpt lat="45.92513" lon="4.7598">
        <ele>172</ele>
        <time>2018-06-09T10:56:18Z</time>
      </trkpt>
      <trkpt lat="45.92508" lon="4.75977">
        <ele>172</ele>
        <time>2018-06-09T10:56:19Z</time>
      </trkpt>
      <trkpt lat="45.92503" lon="4.75973">
        <ele>172</ele>
        <time>2018-06-09T10:56:20Z</time>
      </trkpt>
      <trkpt lat="45.92497" lon="4.7597">
        <ele>172</ele>
        <time>2018-06-09T10:56:21Z</time>
      </trkpt>
      <trkpt lat="45.92491" lon="4.75967">
        <ele>172</ele>
        <time>2018-06-09T10:56:22Z</time>
      </trkpt>
      <trkpt lat="45.92487" lon="4.75963">
        <ele>172</ele>
        <time>2018-06-09T10:56:23Z</time>
      </trkpt>
      <trkpt lat="45.92483" lon="4.7596">
        <ele>172</ele>
        <time>2018-06-09T10:56:24Z</time>
      </trkpt>
      <trkpt lat="45.92477" lon="4.75957">
        <ele>172</ele>
        <time>2018-06-09T10:56:25Z</time>
      </trkpt>
      <trkpt lat="45.92472" lon="4.75953">
        <ele>172</ele>
        <time>2018-06-09T10:56:26Z</time>
      </trkpt>
      <trkpt lat="45.92467" lon="4.7595">
        <ele>172</ele>
        <time>2018-06-09T10:56:27Z</time>
      </trkpt>
      <trkpt lat="45.92463" lon="4.75947">
        <ele>172</ele>
        <time>2018-06-09T10:56:28Z</time>
      </trkpt>
      <trkpt lat="45.92457" lon="4.75942">
        <ele>172</ele>
        <time>2018-06-09T10:56:29Z</time>
      </trkpt>
      <trkpt lat="45.92453" lon="4.75938">
        <ele>172</ele>
        <time>2018-06-09T10:56:30Z</time>
      </trkpt>
      <trkpt lat="45.92448" lon="4.75936">
        <ele>172</ele>
        <time>2018-06-09T10:56:31Z</time>
      </trkpt>
      <trkpt lat="45.92442" lon="4.75932">
        <ele>172</ele>
        <time>2018-06-09T10:56:32Z</time>
      </trkpt>
      <trkpt lat="45.92434" lon="4.75929">
        <ele>172</ele>
        <time>2018-06-09T10:56:33Z</time>
      </trkpt>
      <trkpt lat="45.92427" lon="4.75925">
        <ele>172</ele>
        <time>2018-06-09T10:56:34Z</time>
      </trkpt>
      <trkpt lat="45.92421" lon="4.7592">
        <ele>172</ele>
        <time>2018-06-09T10:56:35Z</time>
      </trkpt>
      <trkpt lat="45.92415" lon="4.75917">
        <ele>172</ele>
        <time>2018-06-09T10:56:36Z</time>
      </trkpt>
      <trkpt lat="45.92409" lon="4.75914">
        <ele>172</ele>
        <time>2018-06-09T10:56:37Z</time>
      </trkpt>
      <trkpt lat="45.92403" lon="4.7591">
        <ele>172</ele>
        <time>2018-06-09T10:56:38Z</time>
      </trkpt>
      <trkpt lat="45.92397" lon="4.75907">
        <ele>173</ele>
        <time>2018-06-09T10:56:39Z</time>
      </trkpt>
      <trkpt lat="45.92392" lon="4.75904">
        <ele>173</ele>
        <time>2018-06-09T10:56:40Z</time>
      </trkpt>
      <trkpt lat="45.92386" lon="4.75901">
        <ele>173</ele>
        <time>2018-06-09T10:56:41Z</time>
      </trkpt>
      <trkpt lat="45.92381" lon="4.75897">
        <ele>173</ele>
        <time>2018-06-09T10:56:42Z</time>
      </trkpt>
      <trkpt lat="45.92376" lon="4.75892">
        <ele>173</ele>
        <time>2018-06-09T10:56:43Z</time>
      </trkpt>
      <trkpt lat="45.92371" lon="4.75888">
        <ele>173</ele>
        <time>2018-06-09T10:56:44Z</time>
      </trkpt>
      <trkpt lat="45.92367" lon="4.75885">
        <ele>173</ele>
        <time>2018-06-09T10:56:45Z</time>
      </trkpt>
      <trkpt lat="45.92363" lon="4.75881">
        <ele>173</ele>
        <time>2018-06-09T10:56:46Z</time>
      </trkpt>
      <trkpt lat="45.92358" lon="4.75876">
        <ele>173</ele>
        <time>2018-06-09T10:56:47Z</time>
      </trkpt>
      <trkpt lat="45.92353" lon="4.75873">
        <ele>173</ele>
        <time>2018-06-09T10:56:48Z</time>
      </trkpt>
      <trkpt lat="45.92349" lon="4.7587">
        <ele>173</ele>
        <time>2018-06-09T10:56:49Z</time>
      </trkpt>
      <trkpt lat="45.92344" lon="4.75868">
        <ele>173</ele>
        <time>2018-06-09T10:56:50Z</time>
      </trkpt>
      <trkpt lat="45.9234" lon="4.75865">
        <ele>173</ele>
        <time>2018-06-09T10:56:51Z</time>
      </trkpt>
      <trkpt lat="45.92335" lon="4.75862">
        <ele>173</ele>
        <time>2018-06-09T10:56:52Z</time>
      </trkpt>
      <trkpt lat="45.9233" lon="4.7586">
        <ele>173</ele>
        <time>2018-06-09T10:56:53Z</time>
      </trkpt>
      <trkpt lat="45.92325" lon="4.75857">
        <ele>174</ele>
        <time>2018-06-09T10:56:54Z</time>
      </trkpt>
      <trkpt lat="45.92317" lon="4.75851">
        <ele>174</ele>
        <time>2018-06-09T10:56:56Z</time>
      </trkpt>
      <trkpt lat="45.92313" lon="4.75849">
        <ele>173</ele>
        <time>2018-06-09T10:56:57Z</time>
      </trkpt>
      <trkpt lat="45.92308" lon="4.75846">
        <ele>173</ele>
        <time>2018-06-09T10:56:58Z</time>
      </trkpt>
      <trkpt lat="45.92303" lon="4.75843">
        <ele>173</ele>
        <time>2018-06-09T10:56:59Z</time>
      </trkpt>
      <trkpt lat="45.92298" lon="4.75841">
        <ele>173</ele>
        <time>2018-06-09T10:57:00Z</time>
      </trkpt>
      <trkpt lat="45.92294" lon="4.75838">
        <ele>173</ele>
        <time>2018-06-09T10:57:01Z</time>
      </trkpt>
      <trkpt lat="45.92289" lon="4.75835">
        <ele>173</ele>
        <time>2018-06-09T10:57:02Z</time>
      </trkpt>
      <trkpt lat="45.92284" lon="4.75832">
        <ele>174</ele>
        <time>2018-06-09T10:57:03Z</time>
      </trkpt>
      <trkpt lat="45.92281" lon="4.75828">
        <ele>174</ele>
        <time>2018-06-09T10:57:04Z</time>
      </trkpt>
      <trkpt lat="45.92277" lon="4.75823">
        <ele>174</ele>
        <time>2018-06-09T10:57:05Z</time>
      </trkpt>
      <trkpt lat="45.92272" lon="4.75816">
        <ele>174</ele>
        <time>2018-06-09T10:57:07Z</time>
      </trkpt>
      <trkpt lat="45.92269" lon="4.75811">
        <ele>174</ele>
        <time>2018-06-09T10:57:08Z</time>
      </trkpt>
      <trkpt lat="45.92265" lon="4.758">
        <ele>174</ele>
        <time>2018-06-09T10:57:10Z</time>
      </trkpt>
      <trkpt lat="45.92262" lon="4.75794">
        <ele>174</ele>
        <time>2018-06-09T10:57:11Z</time>
      </trkpt>
      <trkpt lat="45.92261" lon="4.75788">
        <ele>174</ele>
        <time>2018-06-09T10:57:12Z</time>
      </trkpt>
      <trkpt lat="45.92257" lon="4.75783">
        <ele>174</ele>
        <time>2018-06-09T10:57:13Z</time>
      </trkpt>
      <trkpt lat="45.92254" lon="4.75776">
        <ele>174</ele>
        <time>2018-06-09T10:57:14Z</time>
      </trkpt>
      <trkpt lat="45.92253" lon="4.75769">
        <ele>174</ele>
        <time>2018-06-09T10:57:15Z</time>
      </trkpt>
      <trkpt lat="45.92251" lon="4.7576">
        <ele>174</ele>
        <time>2018-06-09T10:57:16Z</time>
      </trkpt>
      <trkpt lat="45.92249" lon="4.75752">
        <ele>174</ele>
        <time>2018-06-09T10:57:17Z</time>
      </trkpt>
      <trkpt lat="45.92247" lon="4.75745">
        <ele>174</ele>
        <time>2018-06-09T10:57:18Z</time>
      </trkpt>
      <trkpt lat="45.92245" lon="4.75737">
        <ele>174</ele>
        <time>2018-06-09T10:57:19Z</time>
      </trkpt>
      <trkpt lat="45.92246" lon="4.75724">
        <ele>174</ele>
        <time>2018-06-09T10:57:21Z</time>
      </trkpt>
      <trkpt lat="45.92241" lon="4.75717">
        <ele>174</ele>
        <time>2018-06-09T10:57:22Z</time>
      </trkpt>
      <trkpt lat="45.92237" lon="4.75711">
        <ele>174</ele>
        <time>2018-06-09T10:57:23Z</time>
      </trkpt>
      <trkpt lat="45.92233" lon="4.75705">
        <ele>174</ele>
        <time>2018-06-09T10:57:24Z</time>
      </trkpt>
      <trkpt lat="45.92227" lon="4.75698">
        <ele>174</ele>
        <time>2018-06-09T10:57:25Z</time>
      </trkpt>
      <trkpt lat="45.92224" lon="4.75693">
        <ele>174</ele>
        <time>2018-06-09T10:57:26Z</time>
      </trkpt>
      <trkpt lat="45.92218" lon="4.7569">
        <ele>174</ele>
        <time>2018-06-09T10:57:27Z</time>
      </trkpt>
      <trkpt lat="45.92213" lon="4.75685">
        <ele>174</ele>
        <time>2018-06-09T10:57:28Z</time>
      </trkpt>
      <trkpt lat="45.92208" lon="4.75681">
        <ele>174</ele>
        <time>2018-06-09T10:57:29Z</time>
      </trkpt>
      <trkpt lat="45.92205" lon="4.75677">
        <ele>174</ele>
        <time>2018-06-09T10:57:30Z</time>
      </trkpt>
      <trkpt lat="45.92199" lon="4.75671">
        <ele>174</ele>
        <time>2018-06-09T10:57:31Z</time>
      </trkpt>
      <trkpt lat="45.92195" lon="4.75667">
        <ele>174</ele>
        <time>2018-06-09T10:57:32Z</time>
      </trkpt>
      <trkpt lat="45.9219" lon="4.75662">
        <ele>174</ele>
        <time>2018-06-09T10:57:33Z</time>
      </trkpt>
      <trkpt lat="45.92184" lon="4.75657">
        <ele>174</ele>
        <time>2018-06-09T10:57:34Z</time>
      </trkpt>
      <trkpt lat="45.92179" lon="4.75653">
        <ele>174</ele>
        <time>2018-06-09T10:57:35Z</time>
      </trkpt>
      <trkpt lat="45.92174" lon="4.75648">
        <ele>174</ele>
        <time>2018-06-09T10:57:36Z</time>
      </trkpt>
      <trkpt lat="45.92171" lon="4.75643">
        <ele>174</ele>
        <time>2018-06-09T10:57:37Z</time>
      </trkpt>
      <trkpt lat="45.92167" lon="4.75639">
        <ele>174</ele>
        <time>2018-06-09T10:57:38Z</time>
      </trkpt>
      <trkpt lat="45.92163" lon="4.75634">
        <ele>174</ele>
        <time>2018-06-09T10:57:39Z</time>
      </trkpt>
      <trkpt lat="45.92158" lon="4.75629">
        <ele>174</ele>
        <time>2018-06-09T10:57:40Z</time>
      </trkpt>
      <trkpt lat="45.92154" lon="4.75626">
        <ele>174</ele>
        <time>2018-06-09T10:57:41Z</time>
      </trkpt>
      <trkpt lat="45.92151" lon="4.7562">
        <ele>174</ele>
        <time>2018-06-09T10:57:42Z</time>
      </trkpt>
      <trkpt lat="45.92147" lon="4.75616">
        <ele>174</ele>
        <time>2018-06-09T10:57:43Z</time>
      </trkpt>
      <trkpt lat="45.92144" lon="4.75612">
        <ele>174</ele>
        <time>2018-06-09T10:57:44Z</time>
      </trkpt>
      <trkpt lat="45.92139" lon="4.75607">
        <ele>174</ele>
        <time>2018-06-09T10:57:45Z</time>
      </trkpt>
      <trkpt lat="45.92134" lon="4.75602">
        <ele>174</ele>
        <time>2018-06-09T10:57:46Z</time>
      </trkpt>
      <trkpt lat="45.9213" lon="4.75597">
        <ele>174</ele>
        <time>2018-06-09T10:57:47Z</time>
      </trkpt>
      <trkpt lat="45.92125" lon="4.75593">
        <ele>174</ele>
        <time>2018-06-09T10:57:48Z</time>
      </trkpt>
      <trkpt lat="45.92122" lon="4.75589">
        <ele>174</ele>
        <time>2018-06-09T10:57:49Z</time>
      </trkpt>
      <trkpt lat="45.92118" lon="4.75585">
        <ele>174</ele>
        <time>2018-06-09T10:57:50Z</time>
      </trkpt>
      <trkpt lat="45.92113" lon="4.75575">
        <ele>174</ele>
        <time>2018-06-09T10:57:52Z</time>
      </trkpt>
      <trkpt lat="45.92113" lon="4.7557">
        <ele>174</ele>
        <time>2018-06-09T10:57:53Z</time>
      </trkpt>
      <trkpt lat="45.92115" lon="4.75563">
        <ele>174</ele>
        <time>2018-06-09T10:57:55Z</time>
      </trkpt>
      <trkpt lat="45.92119" lon="4.75558">
        <ele>174</ele>
        <time>2018-06-09T10:57:56Z</time>
      </trkpt>
      <trkpt lat="45.92122" lon="4.75552">
        <ele>174</ele>
        <time>2018-06-09T10:57:57Z</time>
      </trkpt>
      <trkpt lat="45.92124" lon="4.75545">
        <ele>174</ele>
        <time>2018-06-09T10:57:58Z</time>
      </trkpt>
      <trkpt lat="45.92126" lon="4.75541">
        <ele>174</ele>
        <time>2018-06-09T10:57:59Z</time>
      </trkpt>
      <trkpt lat="45.92132" lon="4.75535">
        <ele>174</ele>
        <time>2018-06-09T10:58:00Z</time>
      </trkpt>
      <trkpt lat="45.92135" lon="4.75529">
        <ele>174</ele>
        <time>2018-06-09T10:58:01Z</time>
      </trkpt>
      <trkpt lat="45.92138" lon="4.75522">
        <ele>174</ele>
        <time>2018-06-09T10:58:02Z</time>
      </trkpt>
      <trkpt lat="45.9214" lon="4.75516">
        <ele>174</ele>
        <time>2018-06-09T10:58:03Z</time>
      </trkpt>
      <trkpt lat="45.92144" lon="4.75508">
        <ele>175</ele>
        <time>2018-06-09T10:58:04Z</time>
      </trkpt>
      <trkpt lat="45.92147" lon="4.75501">
        <ele>175</ele>
        <time>2018-06-09T10:58:05Z</time>
      </trkpt>
      <trkpt lat="45.9215" lon="4.75494">
        <ele>175</ele>
        <time>2018-06-09T10:58:06Z</time>
      </trkpt>
      <trkpt lat="45.92153" lon="4.75487">
        <ele>176</ele>
        <time>2018-06-09T10:58:07Z</time>
      </trkpt>
      <trkpt lat="45.92156" lon="4.75479">
        <ele>176</ele>
        <time>2018-06-09T10:58:08Z</time>
      </trkpt>
      <trkpt lat="45.92159" lon="4.75472">
        <ele>176</ele>
        <time>2018-06-09T10:58:09Z</time>
      </trkpt>
      <trkpt lat="45.92162" lon="4.75464">
        <ele>176</ele>
        <time>2018-06-09T10:58:10Z</time>
      </trkpt>
      <trkpt lat="45.92165" lon="4.75457">
        <ele>176</ele>
        <time>2018-06-09T10:58:11Z</time>
      </trkpt>
      <trkpt lat="45.92168" lon="4.7545">
        <ele>176</ele>
        <time>2018-06-09T10:58:12Z</time>
      </trkpt>
      <trkpt lat="45.92169" lon="4.75444">
        <ele>176</ele>
        <time>2018-06-09T10:58:13Z</time>
      </trkpt>
      <trkpt lat="45.92173" lon="4.75436">
        <ele>177</ele>
        <time>2018-06-09T10:58:14Z</time>
      </trkpt>
      <trkpt lat="45.92177" lon="4.75429">
        <ele>177</ele>
        <time>2018-06-09T10:58:15Z</time>
      </trkpt>
      <trkpt lat="45.92179" lon="4.75422">
        <ele>177</ele>
        <time>2018-06-09T10:58:16Z</time>
      </trkpt>
      <trkpt lat="45.92181" lon="4.75415">
        <ele>177</ele>
        <time>2018-06-09T10:58:17Z</time>
      </trkpt>
      <trkpt lat="45.92183" lon="4.75409">
        <ele>177</ele>
        <time>2018-06-09T10:58:18Z</time>
      </trkpt>
      <trkpt lat="45.92186" lon="4.75401">
        <ele>177</ele>
        <time>2018-06-09T10:58:19Z</time>
      </trkpt>
      <trkpt lat="45.92188" lon="4.75395">
        <ele>177</ele>
        <time>2018-06-09T10:58:20Z</time>
      </trkpt>
      <trkpt lat="45.92191" lon="4.75388">
        <ele>177</ele>
        <time>2018-06-09T10:58:21Z</time>
      </trkpt>
      <trkpt lat="45.92193" lon="4.75382">
        <ele>177</ele>
        <time>2018-06-09T10:58:22Z</time>
      </trkpt>
      <trkpt lat="45.92197" lon="4.75375">
        <ele>177</ele>
        <time>2018-06-09T10:58:23Z</time>
      </trkpt>
      <trkpt lat="45.92201" lon="4.75369">
        <ele>177</ele>
        <time>2018-06-09T10:58:24Z</time>
      </trkpt>
      <trkpt lat="45.92203" lon="4.75363">
        <ele>177</ele>
        <time>2018-06-09T10:58:25Z</time>
      </trkpt>
      <trkpt lat="45.92205" lon="4.75357">
        <ele>177</ele>
        <time>2018-06-09T10:58:26Z</time>
      </trkpt>
      <trkpt lat="45.92206" lon="4.75349">
        <ele>177</ele>
        <time>2018-06-09T10:58:27Z</time>
      </trkpt>
      <trkpt lat="45.92208" lon="4.75341">
        <ele>177</ele>
        <time>2018-06-09T10:58:28Z</time>
      </trkpt>
      <trkpt lat="45.92209" lon="4.75334">
        <ele>177</ele>
        <time>2018-06-09T10:58:29Z</time>
      </trkpt>
      <trkpt lat="45.92211" lon="4.75327">
        <ele>176</ele>
        <time>2018-06-09T10:58:30Z</time>
      </trkpt>
      <trkpt lat="45.92211" lon="4.75318">
        <ele>176</ele>
        <time>2018-06-09T10:58:31Z</time>
      </trkpt>
      <trkpt lat="45.92212" lon="4.75311">
        <ele>176</ele>
        <time>2018-06-09T10:58:32Z</time>
      </trkpt>
      <trkpt lat="45.92214" lon="4.75303">
        <ele>176</ele>
        <time>2018-06-09T10:58:33Z</time>
      </trkpt>
      <trkpt lat="45.92216" lon="4.75294">
        <ele>176</ele>
        <time>2018-06-09T10:58:34Z</time>
      </trkpt>
      <trkpt lat="45.92217" lon="4.75286">
        <ele>176</ele>
        <time>2018-06-09T10:58:35Z</time>
      </trkpt>
      <trkpt lat="45.92217" lon="4.75278">
        <ele>176</ele>
        <time>2018-06-09T10:58:36Z</time>
      </trkpt>
      <trkpt lat="45.92217" lon="4.7527">
        <ele>176</ele>
        <time>2018-06-09T10:58:37Z</time>
      </trkpt>
      <trkpt lat="45.92217" lon="4.7526">
        <ele>176</ele>
        <time>2018-06-09T10:58:38Z</time>
      </trkpt>
      <trkpt lat="45.92218" lon="4.75252">
        <ele>175</ele>
        <time>2018-06-09T10:58:39Z</time>
      </trkpt>
      <trkpt lat="45.92218" lon="4.75243">
        <ele>175</ele>
        <time>2018-06-09T10:58:40Z</time>
      </trkpt>
      <trkpt lat="45.92219" lon="4.75235">
        <ele>175</ele>
        <time>2018-06-09T10:58:41Z</time>
      </trkpt>
      <trkpt lat="45.92219" lon="4.75226">
        <ele>175</ele>
        <time>2018-06-09T10:58:42Z</time>
      </trkpt>
      <trkpt lat="45.9222" lon="4.75217">
        <ele>175</ele>
        <time>2018-06-09T10:58:43Z</time>
      </trkpt>
      <trkpt lat="45.92218" lon="4.75207">
        <ele>175</ele>
        <time>2018-06-09T10:58:44Z</time>
      </trkpt>
      <trkpt lat="45.9222" lon="4.75196">
        <ele>175</ele>
        <time>2018-06-09T10:58:45Z</time>
      </trkpt>
      <trkpt lat="45.92223" lon="4.75188">
        <ele>175</ele>
        <time>2018-06-09T10:58:46Z</time>
      </trkpt>
      <trkpt lat="45.92223" lon="4.75179">
        <ele>175</ele>
        <time>2018-06-09T10:58:47Z</time>
      </trkpt>
      <trkpt lat="45.92226" lon="4.75171">
        <ele>175</ele>
        <time>2018-06-09T10:58:48Z</time>
      </trkpt>
      <trkpt lat="45.92228" lon="4.75161">
        <ele>174</ele>
        <time>2018-06-09T10:58:49Z</time>
      </trkpt>
      <trkpt lat="45.92232" lon="4.75153">
        <ele>174</ele>
        <time>2018-06-09T10:58:50Z</time>
      </trkpt>
      <trkpt lat="45.92235" lon="4.75146">
        <ele>174</ele>
        <time>2018-06-09T10:58:51Z</time>
      </trkpt>
      <trkpt lat="45.9224" lon="4.75138">
        <ele>174</ele>
        <time>2018-06-09T10:58:52Z</time>
      </trkpt>
      <trkpt lat="45.92245" lon="4.75133">
        <ele>174</ele>
        <time>2018-06-09T10:58:53Z</time>
      </trkpt>
      <trkpt lat="45.9225" lon="4.75126">
        <ele>174</ele>
        <time>2018-06-09T10:58:54Z</time>
      </trkpt>
      <trkpt lat="45.92255" lon="4.7512">
        <ele>174</ele>
        <time>2018-06-09T10:58:55Z</time>
      </trkpt>
      <trkpt lat="45.9226" lon="4.75115">
        <ele>174</ele>
        <time>2018-06-09T10:58:56Z</time>
      </trkpt>
      <trkpt lat="45.92264" lon="4.7511">
        <ele>174</ele>
        <time>2018-06-09T10:58:57Z</time>
      </trkpt>
      <trkpt lat="45.92271" lon="4.75104">
        <ele>174</ele>
        <time>2018-06-09T10:58:58Z</time>
      </trkpt>
      <trkpt lat="45.92275" lon="4.75099">
        <ele>173</ele>
        <time>2018-06-09T10:58:59Z</time>
      </trkpt>
      <trkpt lat="45.9228" lon="4.75094">
        <ele>173</ele>
        <time>2018-06-09T10:59:00Z</time>
      </trkpt>
      <trkpt lat="45.92284" lon="4.75092">
        <ele>173</ele>
        <time>2018-06-09T10:59:01Z</time>
      </trkpt>
      <trkpt lat="45.92289" lon="4.75088">
        <ele>173</ele>
        <time>2018-06-09T10:59:02Z</time>
      </trkpt>
      <trkpt lat="45.92294" lon="4.75083">
        <ele>173</ele>
        <time>2018-06-09T10:59:03Z</time>
      </trkpt>
      <trkpt lat="45.92299" lon="4.75078">
        <ele>172</ele>
        <time>2018-06-09T10:59:04Z</time>
      </trkpt>
      <trkpt lat="45.92304" lon="4.75074">
        <ele>172</ele>
        <time>2018-06-09T10:59:05Z</time>
      </trkpt>
      <trkpt lat="45.92308" lon="4.75069">
        <ele>172</ele>
        <time>2018-06-09T10:59:06Z</time>
      </trkpt>
      <trkpt lat="45.92313" lon="4.75062">
        <ele>172</ele>
        <time>2018-06-09T10:59:07Z</time>
      </trkpt>
      <trkpt lat="45.92315" lon="4.75057">
        <ele>172</ele>
        <time>2018-06-09T10:59:08Z</time>
      </trkpt>
      <trkpt lat="45.9232" lon="4.75052">
        <ele>172</ele>
        <time>2018-06-09T10:59:09Z</time>
      </trkpt>
      <trkpt lat="45.92323" lon="4.75044">
        <ele>172</ele>
        <time>2018-06-09T10:59:10Z</time>
      </trkpt>
      <trkpt lat="45.92327" lon="4.75038">
        <ele>171</ele>
        <time>2018-06-09T10:59:11Z</time>
      </trkpt>
      <trkpt lat="45.92332" lon="4.75029">
        <ele>171</ele>
        <time>2018-06-09T10:59:12Z</time>
      </trkpt>
      <trkpt lat="45.92336" lon="4.75023">
        <ele>170</ele>
        <time>2018-06-09T10:59:13Z</time>
      </trkpt>
      <trkpt lat="45.92341" lon="4.75016">
        <ele>170</ele>
        <time>2018-06-09T10:59:14Z</time>
      </trkpt>
      <trkpt lat="45.92342" lon="4.75008">
        <ele>170</ele>
        <time>2018-06-09T10:59:15Z</time>
      </trkpt>
      <trkpt lat="45.92344" lon="4.75001">
        <ele>170</ele>
        <time>2018-06-09T10:59:16Z</time>
      </trkpt>
      <trkpt lat="45.92346" lon="4.74995">
        <ele>170</ele>
        <time>2018-06-09T10:59:17Z</time>
      </trkpt>
      <trkpt lat="45.92349" lon="4.74988">
        <ele>170</ele>
        <time>2018-06-09T10:59:18Z</time>
      </trkpt>
      <trkpt lat="45.92352" lon="4.7498">
        <ele>170</ele>
        <time>2018-06-09T10:59:19Z</time>
      </trkpt>
      <trkpt lat="45.92355" lon="4.74973">
        <ele>170</ele>
        <time>2018-06-09T10:59:20Z</time>
      </trkpt>
      <trkpt lat="45.92359" lon="4.74965">
        <ele>170</ele>
        <time>2018-06-09T10:59:21Z</time>
      </trkpt>
      <trkpt lat="45.92363" lon="4.74957">
        <ele>170</ele>
        <time>2018-06-09T10:59:22Z</time>
      </trkpt>
      <trkpt lat="45.92364" lon="4.74947">
        <ele>170</ele>
        <time>2018-06-09T10:59:23Z</time>
      </trkpt>
      <trkpt lat="45.92368" lon="4.74939">
        <ele>170</ele>
        <time>2018-06-09T10:59:24Z</time>
      </trkpt>
      <trkpt lat="45.9237" lon="4.74933">
        <ele>170</ele>
        <time>2018-06-09T10:59:25Z</time>
      </trkpt>
      <trkpt lat="45.92373" lon="4.74924">
        <ele>170</ele>
        <time>2018-06-09T10:59:26Z</time>
      </trkpt>
      <trkpt lat="45.92376" lon="4.74916">
        <ele>171</ele>
        <time>2018-06-09T10:59:27Z</time>
      </trkpt>
      <trkpt lat="45.92378" lon="4.74907">
        <ele>171</ele>
        <time>2018-06-09T10:59:28Z</time>
      </trkpt>
      <trkpt lat="45.92381" lon="4.74901">
        <ele>171</ele>
        <time>2018-06-09T10:59:29Z</time>
      </trkpt>
      <trkpt lat="45.92385" lon="4.74891">
        <ele>171</ele>
        <time>2018-06-09T10:59:30Z</time>
      </trkpt>
      <trkpt lat="45.92388" lon="4.74884">
        <ele>171</ele>
        <time>2018-06-09T10:59:31Z</time>
      </trkpt>
      <trkpt lat="45.92391" lon="4.74876">
        <ele>171</ele>
        <time>2018-06-09T10:59:32Z</time>
      </trkpt>
      <trkpt lat="45.92392" lon="4.74868">
        <ele>171</ele>
        <time>2018-06-09T10:59:33Z</time>
      </trkpt>
      <trkpt lat="45.92395" lon="4.7486">
        <ele>171</ele>
        <time>2018-06-09T10:59:34Z</time>
      </trkpt>
      <trkpt lat="45.92398" lon="4.74853">
        <ele>171</ele>
        <time>2018-06-09T10:59:35Z</time>
      </trkpt>
      <trkpt lat="45.924" lon="4.74845">
        <ele>171</ele>
        <time>2018-06-09T10:59:36Z</time>
      </trkpt>
      <trkpt lat="45.92402" lon="4.74838">
        <ele>171</ele>
        <time>2018-06-09T10:59:37Z</time>
      </trkpt>
      <trkpt lat="45.92405" lon="4.74829">
        <ele>171</ele>
        <time>2018-06-09T10:59:38Z</time>
      </trkpt>
      <trkpt lat="45.92406" lon="4.74821">
        <ele>171</ele>
        <time>2018-06-09T10:59:39Z</time>
      </trkpt>
      <trkpt lat="45.92409" lon="4.74812">
        <ele>171</ele>
        <time>2018-06-09T10:59:40Z</time>
      </trkpt>
      <trkpt lat="45.92409" lon="4.74804">
        <ele>171</ele>
        <time>2018-06-09T10:59:41Z</time>
      </trkpt>
      <trkpt lat="45.92411" lon="4.74797">
        <ele>171</ele>
        <time>2018-06-09T10:59:42Z</time>
      </trkpt>
      <trkpt lat="45.92412" lon="4.74789">
        <ele>171</ele>
        <time>2018-06-09T10:59:43Z</time>
      </trkpt>
      <trkpt lat="45.92413" lon="4.74782">
        <ele>171</ele>
        <time>2018-06-09T10:59:44Z</time>
      </trkpt>
      <trkpt lat="45.92415" lon="4.74775">
        <ele>171</ele>
        <time>2018-06-09T10:59:45Z</time>
      </trkpt>
      <trkpt lat="45.92418" lon="4.74768">
        <ele>171</ele>
        <time>2018-06-09T10:59:46Z</time>
      </trkpt>
      <trkpt lat="45.9242" lon="4.74761">
        <ele>171</ele>
        <time>2018-06-09T10:59:47Z</time>
      </trkpt>
      <trkpt lat="45.92422" lon="4.74752">
        <ele>172</ele>
        <time>2018-06-09T10:59:48Z</time>
      </trkpt>
      <trkpt lat="45.92421" lon="4.74745">
        <ele>172</ele>
        <time>2018-06-09T10:59:49Z</time>
      </trkpt>
      <trkpt lat="45.92423" lon="4.74738">
        <ele>171</ele>
        <time>2018-06-09T10:59:50Z</time>
      </trkpt>
      <trkpt lat="45.92425" lon="4.74731">
        <ele>171</ele>
        <time>2018-06-09T10:59:51Z</time>
      </trkpt>
      <trkpt lat="45.92426" lon="4.74725">
        <ele>171</ele>
        <time>2018-06-09T10:59:52Z</time>
      </trkpt>
      <trkpt lat="45.92429" lon="4.74714">
        <ele>171</ele>
        <time>2018-06-09T10:59:54Z</time>
      </trkpt>
      <trkpt lat="45.92431" lon="4.74708">
        <ele>171</ele>
        <time>2018-06-09T10:59:55Z</time>
      </trkpt>
      <trkpt lat="45.92433" lon="4.74703">
        <ele>171</ele>
        <time>2018-06-09T10:59:56Z</time>
      </trkpt>
      <trkpt lat="45.92436" lon="4.74697">
        <ele>171</ele>
        <time>2018-06-09T10:59:57Z</time>
      </trkpt>
      <trkpt lat="45.9244" lon="4.74692">
        <ele>171</ele>
        <time>2018-06-09T10:59:58Z</time>
      </trkpt>
      <trkpt lat="45.92442" lon="4.74686">
        <ele>171</ele>
        <time>2018-06-09T10:59:59Z</time>
      </trkpt>
      <trkpt lat="45.92445" lon="4.7468">
        <ele>171</ele>
        <time>2018-06-09T11:00:00Z</time>
      </trkpt>
      <trkpt lat="45.92449" lon="4.74674">
        <ele>171</ele>
        <time>2018-06-09T11:00:01Z</time>
      </trkpt>
      <trkpt lat="45.92452" lon="4.74668">
        <ele>171</ele>
        <time>2018-06-09T11:00:02Z</time>
      </trkpt>
      <trkpt lat="45.92455" lon="4.74663">
        <ele>171</ele>
        <time>2018-06-09T11:00:03Z</time>
      </trkpt>
      <trkpt lat="45.92456" lon="4.74656">
        <ele>171</ele>
        <time>2018-06-09T11:00:04Z</time>
      </trkpt>
      <trkpt lat="45.9246" lon="4.74649">
        <ele>171</ele>
        <time>2018-06-09T11:00:05Z</time>
      </trkpt>
      <trkpt lat="45.92464" lon="4.74644">
        <ele>171</ele>
        <time>2018-06-09T11:00:06Z</time>
      </trkpt>
      <trkpt lat="45.92468" lon="4.74642">
        <ele>171</ele>
        <time>2018-06-09T11:00:07Z</time>
      </trkpt>
      <trkpt lat="45.9247" lon="4.74636">
        <ele>171</ele>
        <time>2018-06-09T11:00:08Z</time>
      </trkpt>
      <trkpt lat="45.92476" lon="4.74629">
        <ele>171</ele>
        <time>2018-06-09T11:00:09Z</time>
      </trkpt>
      <trkpt lat="45.92481" lon="4.74623">
        <ele>171</ele>
        <time>2018-06-09T11:00:10Z</time>
      </trkpt>
      <trkpt lat="45.92485" lon="4.74619">
        <ele>171</ele>
        <time>2018-06-09T11:00:11Z</time>
      </trkpt>
      <trkpt lat="45.92491" lon="4.74612">
        <ele>171</ele>
        <time>2018-06-09T11:00:12Z</time>
      </trkpt>
      <trkpt lat="45.92496" lon="4.74608">
        <ele>171</ele>
        <time>2018-06-09T11:00:13Z</time>
      </trkpt>
      <trkpt lat="45.92499" lon="4.74602">
        <ele>171</ele>
        <time>2018-06-09T11:00:14Z</time>
      </trkpt>
      <trkpt lat="45.92504" lon="4.74595">
        <ele>171</ele>
        <time>2018-06-09T11:00:15Z</time>
      </trkpt>
      <trkpt lat="45.92509" lon="4.7459">
        <ele>171</ele>
        <time>2018-06-09T11:00:16Z</time>
      </trkpt>
      <trkpt lat="45.92514" lon="4.74585">
        <ele>171</ele>
        <time>2018-06-09T11:00:17Z</time>
      </trkpt>
      <trkpt lat="45.92519" lon="4.7458">
        <ele>171</ele>
        <time>2018-06-09T11:00:18Z</time>
      </trkpt>
      <trkpt lat="45.92523" lon="4.74575">
        <ele>171</ele>
        <time>2018-06-09T11:00:19Z</time>
      </trkpt>
      <trkpt lat="45.92526" lon="4.74568">
        <ele>171</ele>
        <time>2018-06-09T11:00:20Z</time>
      </trkpt>
      <trkpt lat="45.92531" lon="4.74561">
        <ele>171</ele>
        <time>2018-06-09T11:00:21Z</time>
      </trkpt>
      <trkpt lat="45.92535" lon="4.74555">
        <ele>171</ele>
        <time>2018-06-09T11:00:22Z</time>
      </trkpt>
      <trkpt lat="45.9254" lon="4.74548">
        <ele>171</ele>
        <time>2018-06-09T11:00:23Z</time>
      </trkpt>
      <trkpt lat="45.92543" lon="4.74543">
        <ele>170</ele>
        <time>2018-06-09T11:00:24Z</time>
      </trkpt>
      <trkpt lat="45.92547" lon="4.74537">
        <ele>170</ele>
        <time>2018-06-09T11:00:25Z</time>
      </trkpt>
      <trkpt lat="45.92551" lon="4.74529">
        <ele>170</ele>
        <time>2018-06-09T11:00:26Z</time>
      </trkpt>
      <trkpt lat="45.92555" lon="4.74521">
        <ele>170</ele>
        <time>2018-06-09T11:00:27Z</time>
      </trkpt>
      <trkpt lat="45.9256" lon="4.74513">
        <ele>170</ele>
        <time>2018-06-09T11:00:28Z</time>
      </trkpt>
      <trkpt lat="45.92564" lon="4.74505">
        <ele>170</ele>
        <time>2018-06-09T11:00:29Z</time>
      </trkpt>
      <trkpt lat="45.92568" lon="4.74497">
        <ele>170</ele>
        <time>2018-06-09T11:00:30Z</time>
      </trkpt>
      <trkpt lat="45.92571" lon="4.74491">
        <ele>170</ele>
        <time>2018-06-09T11:00:31Z</time>
      </trkpt>
      <trkpt lat="45.92575" lon="4.74484">
        <ele>170</ele>
        <time>2018-06-09T11:00:32Z</time>
      </trkpt>
      <trkpt lat="45.92578" lon="4.74478">
        <ele>170</ele>
        <time>2018-06-09T11:00:33Z</time>
      </trkpt>
      <trkpt lat="45.92581" lon="4.7447">
        <ele>170</ele>
        <time>2018-06-09T11:00:34Z</time>
      </trkpt>
      <trkpt lat="45.92585" lon="4.74463">
        <ele>170</ele>
        <time>2018-06-09T11:00:35Z</time>
      </trkpt>
      <trkpt lat="45.92589" lon="4.74456">
        <ele>170</ele>
        <time>2018-06-09T11:00:36Z</time>
      </trkpt>
      <trkpt lat="45.92592" lon="4.74449">
        <ele>170</ele>
        <time>2018-06-09T11:00:37Z</time>
      </trkpt>
      <trkpt lat="45.92595" lon="4.74442">
        <ele>170</ele>
        <time>2018-06-09T11:00:38Z</time>
      </trkpt>
      <trkpt lat="45.92601" lon="4.74437">
        <ele>170</ele>
        <time>2018-06-09T11:00:39Z</time>
      </trkpt>
      <trkpt lat="45.92604" lon="4.74431">
        <ele>170</ele>
        <time>2018-06-09T11:00:40Z</time>
      </trkpt>
      <trkpt lat="45.92607" lon="4.74425">
        <ele>170</ele>
        <time>2018-06-09T11:00:41Z</time>
      </trkpt>
      <trkpt lat="45.9261" lon="4.74419">
        <ele>170</ele>
        <time>2018-06-09T11:00:42Z</time>
      </trkpt>
      <trkpt lat="45.92613" lon="4.74413">
        <ele>170</ele>
        <time>2018-06-09T11:00:43Z</time>
      </trkpt>
      <trkpt lat="45.92617" lon="4.74405">
        <ele>170</ele>
        <time>2018-06-09T11:00:44Z</time>
      </trkpt>
      <trkpt lat="45.9262" lon="4.74399">
        <ele>170</ele>
        <time>2018-06-09T11:00:45Z</time>
      </trkpt>
      <trkpt lat="45.92624" lon="4.74393">
        <ele>170</ele>
        <time>2018-06-09T11:00:46Z</time>
      </trkpt>
      <trkpt lat="45.92626" lon="4.74388">
        <ele>170</ele>
        <time>2018-06-09T11:00:47Z</time>
      </trkpt>
      <trkpt lat="45.92631" lon="4.74381">
        <ele>170</ele>
        <time>2018-06-09T11:00:48Z</time>
      </trkpt>
      <trkpt lat="45.92635" lon="4.74375">
        <ele>171</ele>
        <time>2018-06-09T11:00:49Z</time>
      </trkpt>
      <trkpt lat="45.92637" lon="4.74369">
        <ele>171</ele>
        <time>2018-06-09T11:00:50Z</time>
      </trkpt>
      <trkpt lat="45.9264" lon="4.74364">
        <ele>171</ele>
        <time>2018-06-09T11:00:51Z</time>
      </trkpt>
      <trkpt lat="45.92645" lon="4.74354">
        <ele>171</ele>
        <time>2018-06-09T11:00:53Z</time>
      </trkpt>
      <trkpt lat="45.92649" lon="4.74349">
        <ele>171</ele>
        <time>2018-06-09T11:00:54Z</time>
      </trkpt>
      <trkpt lat="45.92652" lon="4.74343">
        <ele>171</ele>
        <time>2018-06-09T11:00:55Z</time>
      </trkpt>
      <trkpt lat="45.92656" lon="4.74335">
        <ele>171</ele>
        <time>2018-06-09T11:00:56Z</time>
      </trkpt>
      <trkpt lat="45.92659" lon="4.74329">
        <ele>171</ele>
        <time>2018-06-09T11:00:57Z</time>
      </trkpt>
      <trkpt lat="45.92662" lon="4.74323">
        <ele>171</ele>
        <time>2018-06-09T11:00:58Z</time>
      </trkpt>
      <trkpt lat="45.92665" lon="4.74318">
        <ele>171</ele>
        <time>2018-06-09T11:00:59Z</time>
      </trkpt>
      <trkpt lat="45.92668" lon="4.74313">
        <ele>171</ele>
        <time>2018-06-09T11:01:00Z</time>
      </trkpt>
      <trkpt lat="45.92671" lon="4.74307">
        <ele>171</ele>
        <time>2018-06-09T11:01:01Z</time>
      </trkpt>
      <trkpt lat="45.92673" lon="4.74301">
        <ele>171</ele>
        <time>2018-06-09T11:01:02Z</time>
      </trkpt>
      <trkpt lat="45.92675" lon="4.74295">
        <ele>171</ele>
        <time>2018-06-09T11:01:03Z</time>
      </trkpt>
      <trkpt lat="45.92678" lon="4.74288">
        <ele>171</ele>
        <time>2018-06-09T11:01:04Z</time>
      </trkpt>
      <trkpt lat="45.92682" lon="4.74282">
        <ele>171</ele>
        <time>2018-06-09T11:01:05Z</time>
      </trkpt>
      <trkpt lat="45.92686" lon="4.74274">
        <ele>171</ele>
        <time>2018-06-09T11:01:06Z</time>
      </trkpt>
      <trkpt lat="45.9269" lon="4.74268">
        <ele>171</ele>
        <time>2018-06-09T11:01:07Z</time>
      </trkpt>
      <trkpt lat="45.92694" lon="4.74258">
        <ele>171</ele>
        <time>2018-06-09T11:01:08Z</time>
      </trkpt>
      <trkpt lat="45.92698" lon="4.74251">
        <ele>171</ele>
        <time>2018-06-09T11:01:09Z</time>
      </trkpt>
      <trkpt lat="45.92702" lon="4.74245">
        <ele>171</ele>
        <time>2018-06-09T11:01:10Z</time>
      </trkpt>
      <trkpt lat="45.92704" lon="4.7424">
        <ele>171</ele>
        <time>2018-06-09T11:01:11Z</time>
      </trkpt>
      <trkpt lat="45.92708" lon="4.74235">
        <ele>171</ele>
        <time>2018-06-09T11:01:12Z</time>
      </trkpt>
      <trkpt lat="45.92712" lon="4.74229">
        <ele>171</ele>
        <time>2018-06-09T11:01:13Z</time>
      </trkpt>
      <trkpt lat="45.92717" lon="4.74222">
        <ele>171</ele>
        <time>2018-06-09T11:01:14Z</time>
      </trkpt>
      <trkpt lat="45.92721" lon="4.74216">
        <ele>171</ele>
        <time>2018-06-09T11:01:15Z</time>
      </trkpt>
      <trkpt lat="45.92726" lon="4.7421">
        <ele>171</ele>
        <time>2018-06-09T11:01:16Z</time>
      </trkpt>
      <trkpt lat="45.92731" lon="4.74204">
        <ele>171</ele>
        <time>2018-06-09T11:01:17Z</time>
      </trkpt>
      <trkpt lat="45.92734" lon="4.74198">
        <ele>171</ele>
        <time>2018-06-09T11:01:18Z</time>
      </trkpt>
      <trkpt lat="45.92739" lon="4.74192">
        <ele>171</ele>
        <time>2018-06-09T11:01:19Z</time>
      </trkpt>
      <trkpt lat="45.92743" lon="4.74186">
        <ele>172</ele>
        <time>2018-06-09T11:01:20Z</time>
      </trkpt>
      <trkpt lat="45.92749" lon="4.7418">
        <ele>172</ele>
        <time>2018-06-09T11:01:21Z</time>
      </trkpt>
      <trkpt lat="45.92753" lon="4.74175">
        <ele>172</ele>
        <time>2018-06-09T11:01:22Z</time>
      </trkpt>
      <trkpt lat="45.92757" lon="4.74171">
        <ele>172</ele>
        <time>2018-06-09T11:01:23Z</time>
      </trkpt>
      <trkpt lat="45.92761" lon="4.74165">
        <ele>172</ele>
        <time>2018-06-09T11:01:24Z</time>
      </trkpt>
      <trkpt lat="45.92765" lon="4.74162">
        <ele>172</ele>
        <time>2018-06-09T11:01:25Z</time>
      </trkpt>
      <trkpt lat="45.9277" lon="4.74156">
        <ele>172</ele>
        <time>2018-06-09T11:01:26Z</time>
      </trkpt>
      <trkpt lat="45.92774" lon="4.74152">
        <ele>172</ele>
        <time>2018-06-09T11:01:27Z</time>
      </trkpt>
      <trkpt lat="45.92779" lon="4.74146">
        <ele>172</ele>
        <time>2018-06-09T11:01:28Z</time>
      </trkpt>
      <trkpt lat="45.92783" lon="4.7414">
        <ele>172</ele>
        <time>2018-06-09T11:01:29Z</time>
      </trkpt>
      <trkpt lat="45.92788" lon="4.74136">
        <ele>172</ele>
        <time>2018-06-09T11:01:30Z</time>
      </trkpt>
      <trkpt lat="45.92793" lon="4.74132">
        <ele>172</ele>
        <time>2018-06-09T11:01:31Z</time>
      </trkpt>
      <trkpt lat="45.92798" lon="4.74128">
        <ele>172</ele>
        <time>2018-06-09T11:01:32Z</time>
      </trkpt>
      <trkpt lat="45.92802" lon="4.74124">
        <ele>172</ele>
        <time>2018-06-09T11:01:33Z</time>
      </trkpt>
      <trkpt lat="45.92806" lon="4.74121">
        <ele>172</ele>
        <time>2018-06-09T11:01:34Z</time>
      </trkpt>
      <trkpt lat="45.9281" lon="4.74115">
        <ele>172</ele>
        <time>2018-06-09T11:01:35Z</time>
      </trkpt>
      <trkpt lat="45.92814" lon="4.74111">
        <ele>172</ele>
        <time>2018-06-09T11:01:36Z</time>
      </trkpt>
      <trkpt lat="45.92818" lon="4.74105">
        <ele>171</ele>
        <time>2018-06-09T11:01:37Z</time>
      </trkpt>
      <trkpt lat="45.92823" lon="4.74101">
        <ele>171</ele>
        <time>2018-06-09T11:01:38Z</time>
      </trkpt>
      <trkpt lat="45.92826" lon="4.74096">
        <ele>171</ele>
        <time>2018-06-09T11:01:39Z</time>
      </trkpt>
      <trkpt lat="45.9283" lon="4.74092">
        <ele>171</ele>
        <time>2018-06-09T11:01:40Z</time>
      </trkpt>
      <trkpt lat="45.92834" lon="4.74087">
        <ele>171</ele>
        <time>2018-06-09T11:01:41Z</time>
      </trkpt>
      <trkpt lat="45.92838" lon="4.74083">
        <ele>171</ele>
        <time>2018-06-09T11:01:42Z</time>
      </trkpt>
      <trkpt lat="45.92842" lon="4.74078">
        <ele>171</ele>
        <time>2018-06-09T11:01:43Z</time>
      </trkpt>
      <trkpt lat="45.92847" lon="4.74074">
        <ele>172</ele>
        <time>2018-06-09T11:01:44Z</time>
      </trkpt>
      <trkpt lat="45.92852" lon="4.74069">
        <ele>172</ele>
        <time>2018-06-09T11:01:45Z</time>
      </trkpt>
      <trkpt lat="45.92855" lon="4.74066">
        <ele>172</ele>
        <time>2018-06-09T11:01:46Z</time>
      </trkpt>
      <trkpt lat="45.92859" lon="4.74061">
        <ele>172</ele>
        <time>2018-06-09T11:01:47Z</time>
      </trkpt>
      <trkpt lat="45.92861" lon="4.74056">
        <ele>172</ele>
        <time>2018-06-09T11:01:48Z</time>
      </trkpt>
      <trkpt lat="45.92865" lon="4.74052">
        <ele>172</ele>
        <time>2018-06-09T11:01:49Z</time>
      </trkpt>
      <trkpt lat="45.92869" lon="4.74047">
        <ele>172</ele>
        <time>2018-06-09T11:01:50Z</time>
      </trkpt>
      <trkpt lat="45.92871" lon="4.74041">
        <ele>172</ele>
        <time>2018-06-09T11:01:51Z</time>
      </trkpt>
      <trkpt lat="45.92876" lon="4.74039">
        <ele>172</ele>
        <time>2018-06-09T11:01:52Z</time>
      </trkpt>
      <trkpt lat="45.9288" lon="4.74038">
        <ele>172</ele>
        <time>2018-06-09T11:01:53Z</time>
      </trkpt>
      <trkpt lat="45.92886" lon="4.74038">
        <ele>172</ele>
        <time>2018-06-09T11:01:54Z</time>
      </trkpt>
      <trkpt lat="45.92891" lon="4.74039">
        <ele>172</ele>
        <time>2018-06-09T11:01:55Z</time>
      </trkpt>
      <trkpt lat="45.92896" lon="4.74039">
        <ele>172</ele>
        <time>2018-06-09T11:01:56Z</time>
      </trkpt>
      <trkpt lat="45.92902" lon="4.74036">
        <ele>172</ele>
        <time>2018-06-09T11:01:57Z</time>
      </trkpt>
      <trkpt lat="45.92906" lon="4.74032">
        <ele>172</ele>
        <time>2018-06-09T11:01:58Z</time>
      </trkpt>
      <trkpt lat="45.92909" lon="4.74027">
        <ele>172</ele>
        <time>2018-06-09T11:01:59Z</time>
      </trkpt>
      <trkpt lat="45.9291" lon="4.74021">
        <ele>172</ele>
        <time>2018-06-09T11:02:00Z</time>
      </trkpt>
      <trkpt lat="45.92911" lon="4.74014">
        <ele>172</ele>
        <time>2018-06-09T11:02:01Z</time>
      </trkpt>
      <trkpt lat="45.92912" lon="4.74006">
        <ele>172</ele>
        <time>2018-06-09T11:02:02Z</time>
      </trkpt>
      <trkpt lat="45.92911" lon="4.73998">
        <ele>172</ele>
        <time>2018-06-09T11:02:03Z</time>
      </trkpt>
      <trkpt lat="45.92906" lon="4.73994">
        <ele>172</ele>
        <time>2018-06-09T11:02:04Z</time>
      </trkpt>
      <trkpt lat="45.92899" lon="4.73987">
        <ele>172</ele>
        <time>2018-06-09T11:02:06Z</time>
      </trkpt>
      <trkpt lat="45.92894" lon="4.73983">
        <ele>172</ele>
        <time>2018-06-09T11:02:07Z</time>
      </trkpt>
      <trkpt lat="45.9289" lon="4.73979">
        <ele>172</ele>
        <time>2018-06-09T11:02:08Z</time>
      </trkpt>
      <trkpt lat="45.92886" lon="4.73972">
        <ele>172</ele>
        <time>2018-06-09T11:02:09Z</time>
      </trkpt>
      <trkpt lat="45.92887" lon="4.73962">
        <ele>172</ele>
        <time>2018-06-09T11:02:10Z</time>
      </trkpt>
      <trkpt lat="45.92886" lon="4.73953">
        <ele>172</ele>
        <time>2018-06-09T11:02:11Z</time>
      </trkpt>
      <trkpt lat="45.92885" lon="4.73945">
        <ele>172</ele>
        <time>2018-06-09T11:02:12Z</time>
      </trkpt>
      <trkpt lat="45.92884" lon="4.73935">
        <ele>172</ele>
        <time>2018-06-09T11:02:13Z</time>
      </trkpt>
      <trkpt lat="45.92884" lon="4.73925">
        <ele>172</ele>
        <time>2018-06-09T11:02:14Z</time>
      </trkpt>
      <trkpt lat="45.92882" lon="4.73915">
        <ele>173</ele>
        <time>2018-06-09T11:02:15Z</time>
      </trkpt>
      <trkpt lat="45.92881" lon="4.73905">
        <ele>173</ele>
        <time>2018-06-09T11:02:16Z</time>
      </trkpt>
      <trkpt lat="45.92879" lon="4.73896">
        <ele>173</ele>
        <time>2018-06-09T11:02:17Z</time>
      </trkpt>
      <trkpt lat="45.92877" lon="4.73885">
        <ele>173</ele>
        <time>2018-06-09T11:02:18Z</time>
      </trkpt>
      <trkpt lat="45.92876" lon="4.73877">
        <ele>173</ele>
        <time>2018-06-09T11:02:19Z</time>
      </trkpt>
      <trkpt lat="45.92874" lon="4.73866">
        <ele>173</ele>
        <time>2018-06-09T11:02:20Z</time>
      </trkpt>
      <trkpt lat="45.92872" lon="4.73857">
        <ele>173</ele>
        <time>2018-06-09T11:02:21Z</time>
      </trkpt>
      <trkpt lat="45.9287" lon="4.73848">
        <ele>173</ele>
        <time>2018-06-09T11:02:22Z</time>
      </trkpt>
      <trkpt lat="45.92869" lon="4.73841">
        <ele>173</ele>
        <time>2018-06-09T11:02:23Z</time>
      </trkpt>
      <trkpt lat="45.92867" lon="4.73833">
        <ele>173</ele>
        <time>2018-06-09T11:02:24Z</time>
      </trkpt>
      <trkpt lat="45.92864" lon="4.73827">
        <ele>173</ele>
        <time>2018-06-09T11:02:25Z</time>
      </trkpt>
      <trkpt lat="45.92862" lon="4.73819">
        <ele>173</ele>
        <time>2018-06-09T11:02:26Z</time>
      </trkpt>
      <trkpt lat="45.9286" lon="4.73812">
        <ele>173</ele>
        <time>2018-06-09T11:02:27Z</time>
      </trkpt>
      <trkpt lat="45.92857" lon="4.73804">
        <ele>173</ele>
        <time>2018-06-09T11:02:28Z</time>
      </trkpt>
      <trkpt lat="45.92854" lon="4.73797">
        <ele>173</ele>
        <time>2018-06-09T11:02:29Z</time>
      </trkpt>
      <trkpt lat="45.92848" lon="4.73792">
        <ele>173</ele>
        <time>2018-06-09T11:02:30Z</time>
      </trkpt>
      <trkpt lat="45.92843" lon="4.73789">
        <ele>173</ele>
        <time>2018-06-09T11:02:31Z</time>
      </trkpt>
      <trkpt lat="45.92838" lon="4.73785">
        <ele>173</ele>
        <time>2018-06-09T11:02:32Z</time>
      </trkpt>
      <trkpt lat="45.92832" lon="4.73782">
        <ele>173</ele>
        <time>2018-06-09T11:02:33Z</time>
      </trkpt>
      <trkpt lat="45.92828" lon="4.73779">
        <ele>173</ele>
        <time>2018-06-09T11:02:34Z</time>
      </trkpt>
      <trkpt lat="45.92824" lon="4.73776">
        <ele>173</ele>
        <time>2018-06-09T11:02:35Z</time>
      </trkpt>
      <trkpt lat="45.9282" lon="4.73774">
        <ele>173</ele>
        <time>2018-06-09T11:02:36Z</time>
      </trkpt>
      <trkpt lat="45.92815" lon="4.7377">
        <ele>173</ele>
        <time>2018-06-09T11:02:37Z</time>
      </trkpt>
      <trkpt lat="45.92809" lon="4.73767">
        <ele>173</ele>
        <time>2018-06-09T11:02:39Z</time>
      </trkpt>
      <trkpt lat="45.92805" lon="4.73765">
        <ele>173</ele>
        <time>2018-06-09T11:02:40Z</time>
      </trkpt>
      <trkpt lat="45.92799" lon="4.73759">
        <ele>173</ele>
        <time>2018-06-09T11:02:42Z</time>
      </trkpt>
      <trkpt lat="45.92795" lon="4.73756">
        <ele>173</ele>
        <time>2018-06-09T11:02:43Z</time>
      </trkpt>
      <trkpt lat="45.92789" lon="4.73749">
        <ele>172</ele>
        <time>2018-06-09T11:02:45Z</time>
      </trkpt>
      <trkpt lat="45.92785" lon="4.73744">
        <ele>172</ele>
        <time>2018-06-09T11:02:46Z</time>
      </trkpt>
      <trkpt lat="45.92781" lon="4.73739">
        <ele>172</ele>
        <time>2018-06-09T11:02:47Z</time>
      </trkpt>
      <trkpt lat="45.92778" lon="4.73735">
        <ele>172</ele>
        <time>2018-06-09T11:02:48Z</time>
      </trkpt>
      <trkpt lat="45.92773" lon="4.73731">
        <ele>172</ele>
        <time>2018-06-09T11:02:49Z</time>
      </trkpt>
      <trkpt lat="45.92769" lon="4.7373">
        <ele>172</ele>
        <time>2018-06-09T11:02:50Z</time>
      </trkpt>
      <trkpt lat="45.92761" lon="4.73728">
        <ele>172</ele>
        <time>2018-06-09T11:02:52Z</time>
      </trkpt>
      <trkpt lat="45.92758" lon="4.73727">
        <ele>172</ele>
        <time>2018-06-09T11:02:53Z</time>
      </trkpt>
      <trkpt lat="45.92753" lon="4.73727">
        <ele>172</ele>
        <time>2018-06-09T11:02:54Z</time>
      </trkpt>
      <trkpt lat="45.92746" lon="4.73725">
        <ele>173</ele>
        <time>2018-06-09T11:02:55Z</time>
      </trkpt>
      <trkpt lat="45.92739" lon="4.73723">
        <ele>173</ele>
        <time>2018-06-09T11:02:56Z</time>
      </trkpt>
      <trkpt lat="45.92734" lon="4.73721">
        <ele>173</ele>
        <time>2018-06-09T11:02:57Z</time>
      </trkpt>
      <trkpt lat="45.92729" lon="4.73719">
        <ele>173</ele>
        <time>2018-06-09T11:02:58Z</time>
      </trkpt>
      <trkpt lat="45.92724" lon="4.73716">
        <ele>173</ele>
        <time>2018-06-09T11:02:59Z</time>
      </trkpt>
      <trkpt lat="45.9272" lon="4.73715">
        <ele>173</ele>
        <time>2018-06-09T11:03:00Z</time>
      </trkpt>
      <trkpt lat="45.92715" lon="4.73714">
        <ele>173</ele>
        <time>2018-06-09T11:03:01Z</time>
      </trkpt>
      <trkpt lat="45.92706" lon="4.73716">
        <ele>173</ele>
        <time>2018-06-09T11:03:03Z</time>
      </trkpt>
      <trkpt lat="45.927" lon="4.73713">
        <ele>173</ele>
        <time>2018-06-09T11:03:04Z</time>
      </trkpt>
      <trkpt lat="45.92694" lon="4.73713">
        <ele>173</ele>
        <time>2018-06-09T11:03:05Z</time>
      </trkpt>
      <trkpt lat="45.92689" lon="4.73712">
        <ele>173</ele>
        <time>2018-06-09T11:03:06Z</time>
      </trkpt>
      <trkpt lat="45.92682" lon="4.73707">
        <ele>173</ele>
        <time>2018-06-09T11:03:08Z</time>
      </trkpt>
      <trkpt lat="45.92676" lon="4.73705">
        <ele>173</ele>
        <time>2018-06-09T11:03:09Z</time>
      </trkpt>
      <trkpt lat="45.92671" lon="4.73703">
        <ele>174</ele>
        <time>2018-06-09T11:03:10Z</time>
      </trkpt>
      <trkpt lat="45.92666" lon="4.737">
        <ele>173</ele>
        <time>2018-06-09T11:03:11Z</time>
      </trkpt>
      <trkpt lat="45.92662" lon="4.73698">
        <ele>173</ele>
        <time>2018-06-09T11:03:12Z</time>
      </trkpt>
      <trkpt lat="45.92657" lon="4.73696">
        <ele>173</ele>
        <time>2018-06-09T11:03:13Z</time>
      </trkpt>
      <trkpt lat="45.92653" lon="4.73693">
        <ele>173</ele>
        <time>2018-06-09T11:03:14Z</time>
      </trkpt>
      <trkpt lat="45.9265" lon="4.73687">
        <ele>173</ele>
        <time>2018-06-09T11:03:15Z</time>
      </trkpt>
      <trkpt lat="45.92646" lon="4.73683">
        <ele>173</ele>
        <time>2018-06-09T11:03:16Z</time>
      </trkpt>
      <trkpt lat="45.92641" lon="4.73678">
        <ele>173</ele>
        <time>2018-06-09T11:03:17Z</time>
      </trkpt>
      <trkpt lat="45.92638" lon="4.73673">
        <ele>173</ele>
        <time>2018-06-09T11:03:18Z</time>
      </trkpt>
      <trkpt lat="45.92633" lon="4.73668">
        <ele>173</ele>
        <time>2018-06-09T11:03:19Z</time>
      </trkpt>
      <trkpt lat="45.92629" lon="4.73662">
        <ele>173</ele>
        <time>2018-06-09T11:03:20Z</time>
      </trkpt>
      <trkpt lat="45.92625" lon="4.73656">
        <ele>173</ele>
        <time>2018-06-09T11:03:21Z</time>
      </trkpt>
      <trkpt lat="45.92623" lon="4.73649">
        <ele>173</ele>
        <time>2018-06-09T11:03:22Z</time>
      </trkpt>
      <trkpt lat="45.92621" lon="4.73644">
        <ele>173</ele>
        <time>2018-06-09T11:03:23Z</time>
      </trkpt>
      <trkpt lat="45.92618" lon="4.73634">
        <ele>173</ele>
        <time>2018-06-09T11:03:25Z</time>
      </trkpt>
      <trkpt lat="45.92616" lon="4.73631">
        <ele>173</ele>
        <time>2018-06-09T11:03:26Z</time>
      </trkpt>
      <trkpt lat="45.92612" lon="4.73627">
        <ele>173</ele>
        <time>2018-06-09T11:03:27Z</time>
      </trkpt>
      <trkpt lat="45.92606" lon="4.73624">
        <ele>173</ele>
        <time>2018-06-09T11:03:28Z</time>
      </trkpt>
      <trkpt lat="45.92597" lon="4.73623">
        <ele>173</ele>
        <time>2018-06-09T11:03:30Z</time>
      </trkpt>
      <trkpt lat="45.92592" lon="4.73623">
        <ele>173</ele>
        <time>2018-06-09T11:03:31Z</time>
      </trkpt>
      <trkpt lat="45.92587" lon="4.73624">
        <ele>172</ele>
        <time>2018-06-09T11:03:32Z</time>
      </trkpt>
      <trkpt lat="45.92581" lon="4.73626">
        <ele>173</ele>
        <time>2018-06-09T11:03:33Z</time>
      </trkpt>
      <trkpt lat="45.92576" lon="4.73628">
        <ele>173</ele>
        <time>2018-06-09T11:03:34Z</time>
      </trkpt>
      <trkpt lat="45.92572" lon="4.73628">
        <ele>173</ele>
        <time>2018-06-09T11:03:35Z</time>
      </trkpt>
      <trkpt lat="45.92568" lon="4.73628">
        <ele>173</ele>
        <time>2018-06-09T11:03:36Z</time>
      </trkpt>
      <trkpt lat="45.92562" lon="4.73629">
        <ele>173</ele>
        <time>2018-06-09T11:03:37Z</time>
      </trkpt>
      <trkpt lat="45.92555" lon="4.7363">
        <ele>173</ele>
        <time>2018-06-09T11:03:39Z</time>
      </trkpt>
      <trkpt lat="45.92553" lon="4.73632">
        <ele>173</ele>
        <time>2018-06-09T11:03:40Z</time>
      </trkpt>
      <trkpt lat="45.92549" lon="4.73634">
        <ele>173</ele>
        <time>2018-06-09T11:03:41Z</time>
      </trkpt>
      <trkpt lat="45.92544" lon="4.73634">
        <ele>173</ele>
        <time>2018-06-09T11:03:42Z</time>
      </trkpt>
      <trkpt lat="45.92537" lon="4.73635">
        <ele>173</ele>
        <time>2018-06-09T11:03:43Z</time>
      </trkpt>
      <trkpt lat="45.92532" lon="4.73637">
        <ele>173</ele>
        <time>2018-06-09T11:03:44Z</time>
      </trkpt>
      <trkpt lat="45.92528" lon="4.73637">
        <ele>173</ele>
        <time>2018-06-09T11:03:45Z</time>
      </trkpt>
      <trkpt lat="45.92523" lon="4.73637">
        <ele>173</ele>
        <time>2018-06-09T11:03:46Z</time>
      </trkpt>
      <trkpt lat="45.92518" lon="4.73637">
        <ele>173</ele>
        <time>2018-06-09T11:03:47Z</time>
      </trkpt>
      <trkpt lat="45.92512" lon="4.73637">
        <ele>173</ele>
        <time>2018-06-09T11:03:48Z</time>
      </trkpt>
      <trkpt lat="45.92507" lon="4.73637">
        <ele>174</ele>
        <time>2018-06-09T11:03:49Z</time>
      </trkpt>
      <trkpt lat="45.92502" lon="4.73637">
        <ele>174</ele>
        <time>2018-06-09T11:03:50Z</time>
      </trkpt>
      <trkpt lat="45.92496" lon="4.73639">
        <ele>174</ele>
        <time>2018-06-09T11:03:52Z</time>
      </trkpt>
      <trkpt lat="45.92491" lon="4.73639">
        <ele>174</ele>
        <time>2018-06-09T11:03:53Z</time>
      </trkpt>
      <trkpt lat="45.92484" lon="4.73637">
        <ele>174</ele>
        <time>2018-06-09T11:03:55Z</time>
      </trkpt>
      <trkpt lat="45.9248" lon="4.73637">
        <ele>174</ele>
        <time>2018-06-09T11:03:56Z</time>
      </trkpt>
      <trkpt lat="45.92478" lon="4.73639">
        <ele>174</ele>
        <time>2018-06-09T11:03:57Z</time>
      </trkpt>
      <trkpt lat="45.92471" lon="4.73644">
        <ele>174</ele>
        <time>2018-06-09T11:03:58Z</time>
      </trkpt>
      <trkpt lat="45.92469" lon="4.73654">
        <ele>174</ele>
        <time>2018-06-09T11:04:00Z</time>
      </trkpt>
      <trkpt lat="45.92468" lon="4.73659">
        <ele>174</ele>
        <time>2018-06-09T11:04:01Z</time>
      </trkpt>
      <trkpt lat="45.92467" lon="4.73669">
        <ele>174</ele>
        <time>2018-06-09T11:04:04Z</time>
      </trkpt>
      <trkpt lat="45.92467" lon="4.73673">
        <ele>174</ele>
        <time>2018-06-09T11:04:05Z</time>
      </trkpt>
      <trkpt lat="45.92466" lon="4.73681">
        <ele>174</ele>
        <time>2018-06-09T11:04:07Z</time>
      </trkpt>
      <trkpt lat="45.92465" lon="4.73685">
        <ele>174</ele>
        <time>2018-06-09T11:04:08Z</time>
      </trkpt>
      <trkpt lat="45.92464" lon="4.73695">
        <ele>174</ele>
        <time>2018-06-09T11:04:10Z</time>
      </trkpt>
      <trkpt lat="45.92463" lon="4.73698">
        <ele>174</ele>
        <time>2018-06-09T11:04:11Z</time>
      </trkpt>
      <trkpt lat="45.92461" lon="4.73705">
        <ele>174</ele>
        <time>2018-06-09T11:04:15Z</time>
      </trkpt>
      <trkpt lat="45.92461" lon="4.73706">
        <ele>174</ele>
        <time>2018-06-09T11:04:16Z</time>
      </trkpt>
      <trkpt lat="45.92461" lon="4.73706">
        <ele>174</ele>
        <time>2018-06-09T11:04:17Z</time>
      </trkpt>
      <trkpt lat="45.9246" lon="4.73707">
        <ele>174</ele>
        <time>2018-06-09T11:04:18Z</time>
      </trkpt>
      <trkpt lat="45.92457" lon="4.73709">
        <ele>174</ele>
        <time>2018-06-09T11:04:57.349Z</time>
      </trkpt>
    </trkseg>
  </trk>
</gpx>